<?xml version='1.0' encoding='UTF-8'?><gpx version="1.1" creator="JPX - https://github.com/jenetics/jpx" xmlns="http://www.topografix.com/GPX/1/1"><trk><trkseg><trkpt lat="46.1096566" lon="12.1897254"><ele>352.0</ele><time>2026-05-01T11:12:41.267Z</time></trkpt><trkpt lat="46.1095897" lon="12.1897924"><ele>352.0</ele><time>2026-05-01T11:12:43.273Z</time></trkpt><trkpt lat="46.109518" lon="12.1898653"><ele>352.0</ele><time>2026-05-01T11:12:45.265Z</time></trkpt><trkpt lat="46.1094427" lon="12.1899402"><ele>352.0</ele><time>2026-05-01T11:12:47.266Z</time></trkpt><trkpt lat="46.1093664" lon="12.1900127"><ele>352.0</ele><time>2026-05-01T11:12:49.275Z</time></trkpt><trkpt lat="46.1092845" lon="12.1900788"><ele>352.0</ele><time>2026-05-01T11:12:51.268Z</time></trkpt><trkpt lat="46.1092063" lon="12.1901506"><ele>352.0</ele><time>2026-05-01T11:12:53.27Z</time></trkpt><trkpt lat="46.1091234" lon="12.1902198"><ele>352.0</ele><time>2026-05-01T11:12:55.267Z</time></trkpt><trkpt lat="46.1090436" lon="12.1902942"><ele>352.0</ele><time>2026-05-01T11:12:57.265Z</time></trkpt><trkpt lat="46.1089609" lon="12.1903553"><ele>352.0</ele><time>2026-05-01T11:12:59.264Z</time></trkpt><trkpt lat="46.1088847" lon="12.1904129"><ele>352.0</ele><time>2026-05-01T11:13:01.272Z</time></trkpt><trkpt lat="46.1088046" lon="12.1904858"><ele>352.0</ele><time>2026-05-01T11:13:03.275Z</time></trkpt><trkpt lat="46.1087325" lon="12.1905417"><ele>352.0</ele><time>2026-05-01T11:13:05.269Z</time></trkpt><trkpt lat="46.1086586" lon="12.1906107"><ele>352.0</ele><time>2026-05-01T11:13:07.275Z</time></trkpt><trkpt lat="46.1085824" lon="12.1906772"><ele>352.0</ele><time>2026-05-01T11:13:09.272Z</time></trkpt><trkpt lat="46.1085112" lon="12.1907502"><ele>352.0</ele><time>2026-05-01T11:13:11.267Z</time></trkpt><trkpt lat="46.1084385" lon="12.190824"><ele>352.0</ele><time>2026-05-01T11:13:13.275Z</time></trkpt><trkpt lat="46.108368" lon="12.1908949"><ele>352.3333333333333</ele><time>2026-05-01T11:13:15.268Z</time></trkpt><trkpt lat="46.1082987" lon="12.1909674"><ele>352.66666666666663</ele><time>2026-05-01T11:13:17.265Z</time></trkpt><trkpt lat="46.1082294" lon="12.1910411"><ele>353.0</ele><time>2026-05-01T11:13:19.268Z</time></trkpt><trkpt lat="46.1081557" lon="12.1911033"><ele>353.3333333333333</ele><time>2026-05-01T11:13:21.276Z</time></trkpt><trkpt lat="46.108076" lon="12.1911471"><ele>353.6666666666667</ele><time>2026-05-01T11:13:23.267Z</time></trkpt><trkpt lat="46.1079908" lon="12.1911764"><ele>354.0</ele><time>2026-05-01T11:13:25.268Z</time></trkpt><trkpt lat="46.1079041" lon="12.1911978"><ele>354.2</ele><time>2026-05-01T11:13:27.268Z</time></trkpt><trkpt lat="46.1078166" lon="12.1912137"><ele>354.4</ele><time>2026-05-01T11:13:29.275Z</time></trkpt><trkpt lat="46.107722" lon="12.1912154"><ele>354.6</ele><time>2026-05-01T11:13:31.266Z</time></trkpt><trkpt lat="46.1076314" lon="12.1912166"><ele>354.8</ele><time>2026-05-01T11:13:33.266Z</time></trkpt><trkpt lat="46.1075403" lon="12.1912046"><ele>355.0</ele><time>2026-05-01T11:13:35.265Z</time></trkpt><trkpt lat="46.1074526" lon="12.1912374"><ele>355.8</ele><time>2026-05-01T11:13:37.274Z</time></trkpt><trkpt lat="46.1073842" lon="12.191327"><ele>356.6</ele><time>2026-05-01T11:13:39.268Z</time></trkpt><trkpt lat="46.1073492" lon="12.1914489"><ele>357.4</ele><time>2026-05-01T11:13:41.264Z</time></trkpt><trkpt lat="46.1073318" lon="12.1915872"><ele>358.2</ele><time>2026-05-01T11:13:43.275Z</time></trkpt><trkpt lat="46.1073213" lon="12.1917297"><ele>359.0</ele><time>2026-05-01T11:13:45.266Z</time></trkpt><trkpt lat="46.1073223" lon="12.1918761"><ele>359.0</ele><time>2026-05-01T11:13:47.265Z</time></trkpt><trkpt lat="46.1073388" lon="12.1920181"><ele>359.0</ele><time>2026-05-01T11:13:49.272Z</time></trkpt><trkpt lat="46.1073646" lon="12.1921632"><ele>359.0</ele><time>2026-05-01T11:13:51.266Z</time></trkpt><trkpt lat="46.1073818" lon="12.192302"><ele>359.0</ele><time>2026-05-01T11:13:53.275Z</time></trkpt><trkpt lat="46.1073404" lon="12.1924242"><ele>359.0</ele><time>2026-05-01T11:13:55.273Z</time></trkpt><trkpt lat="46.1072534" lon="12.1924944"><ele>359.2</ele><time>2026-05-01T11:13:57.275Z</time></trkpt><trkpt lat="46.1071515" lon="12.1925069"><ele>359.4</ele><time>2026-05-01T11:13:59.275Z</time></trkpt><trkpt lat="46.1070508" lon="12.1925496"><ele>359.6</ele><time>2026-05-01T11:14:01.272Z</time></trkpt><trkpt lat="46.1069857" lon="12.1926778"><ele>359.8</ele><time>2026-05-01T11:14:03.275Z</time></trkpt><trkpt lat="46.1069987" lon="12.1928435"><ele>360.0</ele><time>2026-05-01T11:14:05.267Z</time></trkpt><trkpt lat="46.1070578" lon="12.1930022"><ele>360.0</ele><time>2026-05-01T11:14:07.266Z</time></trkpt><trkpt lat="46.1071038" lon="12.1931694"><ele>360.0</ele><time>2026-05-01T11:14:09.266Z</time></trkpt><trkpt lat="46.1071167" lon="12.1932598"><ele>360.0</ele><time>2026-05-01T11:14:10.272Z</time></trkpt><trkpt lat="46.1071342" lon="12.1934342"><ele>360.0</ele><time>2026-05-01T11:14:12.267Z</time></trkpt><trkpt lat="46.1071557" lon="12.1936109"><ele>360.0</ele><time>2026-05-01T11:14:14.275Z</time></trkpt><trkpt lat="46.1071655" lon="12.1937041"><ele>360.25</ele><time>2026-05-01T11:14:15.266Z</time></trkpt><trkpt lat="46.1071901" lon="12.193882"><ele>360.5</ele><time>2026-05-01T11:14:17.267Z</time></trkpt><trkpt lat="46.1072062" lon="12.1940558"><ele>360.75</ele><time>2026-05-01T11:14:19.276Z</time></trkpt><trkpt lat="46.1072256" lon="12.1942291"><ele>361.0</ele><time>2026-05-01T11:14:21.265Z</time></trkpt><trkpt lat="46.1072433" lon="12.1943976"><ele>361.0</ele><time>2026-05-01T11:14:23.273Z</time></trkpt><trkpt lat="46.1072538" lon="12.1944895"><ele>361.0</ele><time>2026-05-01T11:14:24.267Z</time></trkpt><trkpt lat="46.107283" lon="12.1946617"><ele>361.0</ele><time>2026-05-01T11:14:26.274Z</time></trkpt><trkpt lat="46.1073052" lon="12.1947491"><ele>361.0</ele><time>2026-05-01T11:14:27.276Z</time></trkpt><trkpt lat="46.1073292" lon="12.1948352"><ele>361.0</ele><time>2026-05-01T11:14:28.274Z</time></trkpt><trkpt lat="46.1073526" lon="12.1949239"><ele>361.0</ele><time>2026-05-01T11:14:29.267Z</time></trkpt><trkpt lat="46.1073696" lon="12.1950151"><ele>361.0</ele><time>2026-05-01T11:14:30.264Z</time></trkpt><trkpt lat="46.1073815" lon="12.1951914"><ele>361.14285714285717</ele><time>2026-05-01T11:14:32.264Z</time></trkpt><trkpt lat="46.1073843" lon="12.1952858"><ele>361.2857142857143</ele><time>2026-05-01T11:14:33.276Z</time></trkpt><trkpt lat="46.1073892" lon="12.1953814"><ele>361.42857142857144</ele><time>2026-05-01T11:14:34.276Z</time></trkpt><trkpt lat="46.1073913" lon="12.1954796"><ele>361.57142857142856</ele><time>2026-05-01T11:14:35.265Z</time></trkpt><trkpt lat="46.1073939" lon="12.1955747"><ele>361.71428571428567</ele><time>2026-05-01T11:14:36.277Z</time></trkpt><trkpt lat="46.1074027" lon="12.1956708"><ele>361.85714285714283</ele><time>2026-05-01T11:14:37.275Z</time></trkpt><trkpt lat="46.1074126" lon="12.1957658"><ele>362.0</ele><time>2026-05-01T11:14:38.264Z</time></trkpt><trkpt lat="46.1074276" lon="12.1958623"><ele>360.57142857142856</ele><time>2026-05-01T11:14:39.269Z</time></trkpt><trkpt lat="46.107441" lon="12.1959542"><ele>359.1428571428571</ele><time>2026-05-01T11:14:40.265Z</time></trkpt><trkpt lat="46.1074508" lon="12.1960469"><ele>357.7142857142857</ele><time>2026-05-01T11:14:41.269Z</time></trkpt><trkpt lat="46.1074605" lon="12.1961407"><ele>356.2857142857143</ele><time>2026-05-01T11:14:42.275Z</time></trkpt><trkpt lat="46.1074711" lon="12.1962384"><ele>354.85714285714283</ele><time>2026-05-01T11:14:43.352Z</time></trkpt><trkpt lat="46.1074852" lon="12.1963381"><ele>353.42857142857144</ele><time>2026-05-01T11:14:44.273Z</time></trkpt><trkpt lat="46.1075055" lon="12.1964494"><ele>352.0</ele><time>2026-05-01T11:14:45.266Z</time></trkpt><trkpt lat="46.1075286" lon="12.1965583"><ele>351.7142857142857</ele><time>2026-05-01T11:14:46.275Z</time></trkpt><trkpt lat="46.1075565" lon="12.1966684"><ele>351.42857142857144</ele><time>2026-05-01T11:14:47.265Z</time></trkpt><trkpt lat="46.1075838" lon="12.1967718"><ele>351.1428571428571</ele><time>2026-05-01T11:14:48.267Z</time></trkpt><trkpt lat="46.1076091" lon="12.1968734"><ele>350.8571428571429</ele><time>2026-05-01T11:14:49.276Z</time></trkpt><trkpt lat="46.1076382" lon="12.1969681"><ele>350.57142857142856</ele><time>2026-05-01T11:14:50.268Z</time></trkpt><trkpt lat="46.1076673" lon="12.1970586"><ele>350.2857142857143</ele><time>2026-05-01T11:14:51.267Z</time></trkpt><trkpt lat="46.1076925" lon="12.1971461"><ele>350.0</ele><time>2026-05-01T11:14:52.274Z</time></trkpt><trkpt lat="46.1077207" lon="12.1972327"><ele>349.8</ele><time>2026-05-01T11:14:53.263Z</time></trkpt><trkpt lat="46.1077856" lon="12.1973895"><ele>349.6</ele><time>2026-05-01T11:14:55.269Z</time></trkpt><trkpt lat="46.1078172" lon="12.1974706"><ele>349.4</ele><time>2026-05-01T11:14:56.272Z</time></trkpt><trkpt lat="46.1078847" lon="12.1976147"><ele>349.2</ele><time>2026-05-01T11:14:58.266Z</time></trkpt><trkpt lat="46.1079667" lon="12.1977384"><ele>349.0</ele><time>2026-05-01T11:15:00.263Z</time></trkpt><trkpt lat="46.1080585" lon="12.1978532"><ele>349.0</ele><time>2026-05-01T11:15:02.263Z</time></trkpt><trkpt lat="46.1081545" lon="12.1979606"><ele>349.0</ele><time>2026-05-01T11:15:04.266Z</time></trkpt><trkpt lat="46.1082067" lon="12.1980127"><ele>349.0</ele><time>2026-05-01T11:15:05.264Z</time></trkpt><trkpt lat="46.1082608" lon="12.1980622"><ele>349.0</ele><time>2026-05-01T11:15:06.271Z</time></trkpt><trkpt lat="46.1083719" lon="12.1981484"><ele>349.0</ele><time>2026-05-01T11:15:08.27Z</time></trkpt><trkpt lat="46.1084296" lon="12.1981909"><ele>349.0</ele><time>2026-05-01T11:15:09.27Z</time></trkpt><trkpt lat="46.1084883" lon="12.1982321"><ele>349.5</ele><time>2026-05-01T11:15:10.262Z</time></trkpt><trkpt lat="46.10855" lon="12.1982663"><ele>350.0</ele><time>2026-05-01T11:15:11.26Z</time></trkpt><trkpt lat="46.1086114" lon="12.1983001"><ele>350.5</ele><time>2026-05-01T11:15:12.263Z</time></trkpt><trkpt lat="46.1086726" lon="12.1983299"><ele>351.0</ele><time>2026-05-01T11:15:13.271Z</time></trkpt><trkpt lat="46.1087377" lon="12.1983536"><ele>351.5</ele><time>2026-05-01T11:15:14.262Z</time></trkpt><trkpt lat="46.1088054" lon="12.1983732"><ele>352.0</ele><time>2026-05-01T11:15:15.274Z</time></trkpt><trkpt lat="46.1089352" lon="12.1983924"><ele>352.0</ele><time>2026-05-01T11:15:17.271Z</time></trkpt><trkpt lat="46.1089991" lon="12.1984028"><ele>352.0</ele><time>2026-05-01T11:15:18.27Z</time></trkpt><trkpt lat="46.1091263" lon="12.1984139"><ele>352.0</ele><time>2026-05-01T11:15:20.271Z</time></trkpt><trkpt lat="46.109191" lon="12.1984275"><ele>352.0</ele><time>2026-05-01T11:15:21.267Z</time></trkpt><trkpt lat="46.1093116" lon="12.1984337"><ele>352.0</ele><time>2026-05-01T11:15:23.26Z</time></trkpt><trkpt lat="46.1093757" lon="12.198437"><ele>352.0</ele><time>2026-05-01T11:15:24.265Z</time></trkpt><trkpt lat="46.1095012" lon="12.1984419"><ele>352.25</ele><time>2026-05-01T11:15:26.268Z</time></trkpt><trkpt lat="46.1096205" lon="12.1984467"><ele>352.5</ele><time>2026-05-01T11:15:28.261Z</time></trkpt><trkpt lat="46.1097366" lon="12.19848"><ele>352.75</ele><time>2026-05-01T11:15:30.268Z</time></trkpt><trkpt lat="46.109853" lon="12.1985141"><ele>353.0</ele><time>2026-05-01T11:15:32.262Z</time></trkpt><trkpt lat="46.1099686" lon="12.1985269"><ele>353.5</ele><time>2026-05-01T11:15:34.261Z</time></trkpt><trkpt lat="46.1100832" lon="12.198541"><ele>354.0</ele><time>2026-05-01T11:15:36.27Z</time></trkpt><trkpt lat="46.1102014" lon="12.1985523"><ele>354.5</ele><time>2026-05-01T11:15:38.262Z</time></trkpt><trkpt lat="46.1103234" lon="12.1985587"><ele>355.0</ele><time>2026-05-01T11:15:40.272Z</time></trkpt><trkpt lat="46.1104398" lon="12.1985623"><ele>355.0</ele><time>2026-05-01T11:15:42.271Z</time></trkpt><trkpt lat="46.11056" lon="12.1985653"><ele>355.0</ele><time>2026-05-01T11:15:44.271Z</time></trkpt><trkpt lat="46.1106737" lon="12.198563"><ele>355.0</ele><time>2026-05-01T11:15:46.265Z</time></trkpt><trkpt lat="46.1107369" lon="12.1985675"><ele>355.0</ele><time>2026-05-01T11:15:47.262Z</time></trkpt><trkpt lat="46.1108577" lon="12.1985771"><ele>355.0</ele><time>2026-05-01T11:15:49.271Z</time></trkpt><trkpt lat="46.1109777" lon="12.1985773"><ele>354.66666666666663</ele><time>2026-05-01T11:15:51.261Z</time></trkpt><trkpt lat="46.1111066" lon="12.1985869"><ele>354.3333333333333</ele><time>2026-05-01T11:15:53.271Z</time></trkpt><trkpt lat="46.1111701" lon="12.1985888"><ele>354.0</ele><time>2026-05-01T11:15:54.264Z</time></trkpt><trkpt lat="46.1112336" lon="12.1985987"><ele>353.6666666666667</ele><time>2026-05-01T11:15:55.264Z</time></trkpt><trkpt lat="46.1113593" lon="12.1986099"><ele>353.33333333333337</ele><time>2026-05-01T11:15:57.265Z</time></trkpt><trkpt lat="46.1114237" lon="12.1986154"><ele>353.0</ele><time>2026-05-01T11:15:58.263Z</time></trkpt><trkpt lat="46.111489" lon="12.1986239"><ele>353.0</ele><time>2026-05-01T11:15:59.271Z</time></trkpt><trkpt lat="46.1115537" lon="12.1986307"><ele>353.0</ele><time>2026-05-01T11:16:00.271Z</time></trkpt><trkpt lat="46.1116174" lon="12.1986402"><ele>353.0</ele><time>2026-05-01T11:16:01.27Z</time></trkpt><trkpt lat="46.1117432" lon="12.1986609"><ele>353.0</ele><time>2026-05-01T11:16:03.271Z</time></trkpt><trkpt lat="46.1118091" lon="12.1986695"><ele>353.0</ele><time>2026-05-01T11:16:04.27Z</time></trkpt><trkpt lat="46.1119264" lon="12.1986909"><ele>353.0</ele><time>2026-05-01T11:16:06.263Z</time></trkpt><trkpt lat="46.1120533" lon="12.1987097"><ele>352.79999999999995</ele><time>2026-05-01T11:16:08.262Z</time></trkpt><trkpt lat="46.1121681" lon="12.1987484"><ele>352.6</ele><time>2026-05-01T11:16:10.264Z</time></trkpt><trkpt lat="46.112262" lon="12.198783"><ele>352.4</ele><time>2026-05-01T11:16:12.262Z</time></trkpt><trkpt lat="46.1123449" lon="12.1988289"><ele>352.20000000000005</ele><time>2026-05-01T11:16:14.265Z</time></trkpt><trkpt lat="46.1124244" lon="12.1988789"><ele>352.0</ele><time>2026-05-01T11:16:16.263Z</time></trkpt><trkpt lat="46.1125175" lon="12.1989337"><ele>352.0</ele><time>2026-05-01T11:16:18.263Z</time></trkpt><trkpt lat="46.1126194" lon="12.1990065"><ele>352.0</ele><time>2026-05-01T11:16:20.274Z</time></trkpt><trkpt lat="46.1127271" lon="12.1990907"><ele>352.0</ele><time>2026-05-01T11:16:22.263Z</time></trkpt><trkpt lat="46.11278" lon="12.1991418"><ele>352.0</ele><time>2026-05-01T11:16:23.263Z</time></trkpt><trkpt lat="46.1128389" lon="12.1991895"><ele>352.0</ele><time>2026-05-01T11:16:24.259Z</time></trkpt><trkpt lat="46.1128967" lon="12.1992359"><ele>352.0</ele><time>2026-05-01T11:16:25.263Z</time></trkpt><trkpt lat="46.1129558" lon="12.1992821"><ele>352.0</ele><time>2026-05-01T11:16:26.27Z</time></trkpt><trkpt lat="46.1130097" lon="12.1993313"><ele>352.0</ele><time>2026-05-01T11:16:27.358Z</time></trkpt><trkpt lat="46.1130664" lon="12.1993787"><ele>352.0</ele><time>2026-05-01T11:16:28.271Z</time></trkpt><trkpt lat="46.113125" lon="12.1994266"><ele>352.0</ele><time>2026-05-01T11:16:29.271Z</time></trkpt><trkpt lat="46.1131836" lon="12.1994788"><ele>352.0</ele><time>2026-05-01T11:16:30.269Z</time></trkpt><trkpt lat="46.1132432" lon="12.1995318"><ele>352.0</ele><time>2026-05-01T11:16:31.27Z</time></trkpt><trkpt lat="46.1133034" lon="12.1995789"><ele>352.0</ele><time>2026-05-01T11:16:32.269Z</time></trkpt><trkpt lat="46.113357" lon="12.199629"><ele>351.57142857142856</ele><time>2026-05-01T11:16:33.26Z</time></trkpt><trkpt lat="46.1134158" lon="12.1996787"><ele>351.1428571428571</ele><time>2026-05-01T11:16:34.263Z</time></trkpt><trkpt lat="46.1134722" lon="12.1997347"><ele>350.71428571428567</ele><time>2026-05-01T11:16:35.264Z</time></trkpt><trkpt lat="46.1135298" lon="12.1997915"><ele>350.2857142857143</ele><time>2026-05-01T11:16:36.261Z</time></trkpt><trkpt lat="46.1135889" lon="12.1998367"><ele>349.85714285714283</ele><time>2026-05-01T11:16:37.262Z</time></trkpt><trkpt lat="46.1136466" lon="12.1998846"><ele>349.4285714285714</ele><time>2026-05-01T11:16:38.263Z</time></trkpt><trkpt lat="46.1136984" lon="12.1999381"><ele>349.0</ele><time>2026-05-01T11:16:39.269Z</time></trkpt><trkpt lat="46.1137584" lon="12.1999869"><ele>348.99999999999994</ele><time>2026-05-01T11:16:40.262Z</time></trkpt><trkpt lat="46.1138204" lon="12.2000332"><ele>349.0</ele><time>2026-05-01T11:16:41.27Z</time></trkpt><trkpt lat="46.1138783" lon="12.2000878"><ele>349.0</ele><time>2026-05-01T11:16:42.257Z</time></trkpt><trkpt lat="46.1139387" lon="12.2001353"><ele>349.0</ele><time>2026-05-01T11:16:43.262Z</time></trkpt><trkpt lat="46.1139991" lon="12.2001853"><ele>349.0</ele><time>2026-05-01T11:16:44.27Z</time></trkpt><trkpt lat="46.1140581" lon="12.2002361"><ele>348.99999999999994</ele><time>2026-05-01T11:16:45.261Z</time></trkpt><trkpt lat="46.1141153" lon="12.2002888"><ele>349.0</ele><time>2026-05-01T11:16:46.263Z</time></trkpt><trkpt lat="46.1141715" lon="12.2003409"><ele>348.71428571428567</ele><time>2026-05-01T11:16:47.262Z</time></trkpt><trkpt lat="46.1142288" lon="12.2003925"><ele>348.42857142857144</ele><time>2026-05-01T11:16:48.269Z</time></trkpt><trkpt lat="46.1142892" lon="12.2004412"><ele>348.1428571428571</ele><time>2026-05-01T11:16:49.271Z</time></trkpt><trkpt lat="46.114347" lon="12.2004967"><ele>347.85714285714283</ele><time>2026-05-01T11:16:50.262Z</time></trkpt><trkpt lat="46.1144091" lon="12.2005536"><ele>347.57142857142856</ele><time>2026-05-01T11:16:51.262Z</time></trkpt><trkpt lat="46.1144727" lon="12.2006049"><ele>347.2857142857143</ele><time>2026-05-01T11:16:52.267Z</time></trkpt><trkpt lat="46.1145367" lon="12.2006573"><ele>347.0</ele><time>2026-05-01T11:16:53.273Z</time></trkpt><trkpt lat="46.1145978" lon="12.2007091"><ele>346.8571428571429</ele><time>2026-05-01T11:16:54.27Z</time></trkpt><trkpt lat="46.1146586" lon="12.2007647"><ele>346.71428571428567</ele><time>2026-05-01T11:16:55.272Z</time></trkpt><trkpt lat="46.1147208" lon="12.2008231"><ele>346.57142857142856</ele><time>2026-05-01T11:16:56.259Z</time></trkpt><trkpt lat="46.1147841" lon="12.2008787"><ele>346.42857142857144</ele><time>2026-05-01T11:16:57.262Z</time></trkpt><trkpt lat="46.1148473" lon="12.200936"><ele>346.28571428571433</ele><time>2026-05-01T11:16:58.261Z</time></trkpt><trkpt lat="46.1149101" lon="12.2009972"><ele>346.1428571428571</ele><time>2026-05-01T11:16:59.263Z</time></trkpt><trkpt lat="46.1149757" lon="12.2010533"><ele>346.0</ele><time>2026-05-01T11:17:00.263Z</time></trkpt><trkpt lat="46.1150389" lon="12.2011076"><ele>345.57142857142856</ele><time>2026-05-01T11:17:01.27Z</time></trkpt><trkpt lat="46.1151017" lon="12.2011594"><ele>345.14285714285717</ele><time>2026-05-01T11:17:02.266Z</time></trkpt><trkpt lat="46.1151653" lon="12.2012192"><ele>344.7142857142857</ele><time>2026-05-01T11:17:03.264Z</time></trkpt><trkpt lat="46.1152307" lon="12.2012686"><ele>344.2857142857143</ele><time>2026-05-01T11:17:04.272Z</time></trkpt><trkpt lat="46.1152931" lon="12.2013194"><ele>343.8571428571429</ele><time>2026-05-01T11:17:05.271Z</time></trkpt><trkpt lat="46.115354" lon="12.2013738"><ele>343.42857142857144</ele><time>2026-05-01T11:17:06.271Z</time></trkpt><trkpt lat="46.1154146" lon="12.2014275"><ele>343.0</ele><time>2026-05-01T11:17:07.263Z</time></trkpt><trkpt lat="46.1154807" lon="12.2014792"><ele>343.14285714285717</ele><time>2026-05-01T11:17:08.27Z</time></trkpt><trkpt lat="46.115544" lon="12.2015291"><ele>343.2857142857143</ele><time>2026-05-01T11:17:09.27Z</time></trkpt><trkpt lat="46.1156043" lon="12.2015882"><ele>343.42857142857144</ele><time>2026-05-01T11:17:10.269Z</time></trkpt><trkpt lat="46.1156622" lon="12.2016476"><ele>343.57142857142856</ele><time>2026-05-01T11:17:11.264Z</time></trkpt><trkpt lat="46.1157229" lon="12.2017043"><ele>343.7142857142857</ele><time>2026-05-01T11:17:12.262Z</time></trkpt><trkpt lat="46.1157804" lon="12.201762"><ele>343.8571428571429</ele><time>2026-05-01T11:17:13.27Z</time></trkpt><trkpt lat="46.1158398" lon="12.2018162"><ele>344.0</ele><time>2026-05-01T11:17:14.271Z</time></trkpt><trkpt lat="46.1158972" lon="12.2018731"><ele>343.7142857142857</ele><time>2026-05-01T11:17:15.271Z</time></trkpt><trkpt lat="46.1159548" lon="12.2019251"><ele>343.42857142857144</ele><time>2026-05-01T11:17:16.272Z</time></trkpt><trkpt lat="46.1160135" lon="12.2019788"><ele>343.1428571428571</ele><time>2026-05-01T11:17:17.263Z</time></trkpt><trkpt lat="46.1160733" lon="12.2020318"><ele>342.8571428571429</ele><time>2026-05-01T11:17:18.264Z</time></trkpt><trkpt lat="46.1161328" lon="12.2020837"><ele>342.57142857142856</ele><time>2026-05-01T11:17:19.263Z</time></trkpt><trkpt lat="46.1161853" lon="12.2021371"><ele>342.2857142857143</ele><time>2026-05-01T11:17:20.264Z</time></trkpt><trkpt lat="46.1162429" lon="12.202192"><ele>342.0</ele><time>2026-05-01T11:17:21.269Z</time></trkpt><trkpt lat="46.1163001" lon="12.2022441"><ele>341.99999999999994</ele><time>2026-05-01T11:17:22.271Z</time></trkpt><trkpt lat="46.1163558" lon="12.2022897"><ele>342.0</ele><time>2026-05-01T11:17:23.271Z</time></trkpt><trkpt lat="46.1164131" lon="12.2023396"><ele>342.0</ele><time>2026-05-01T11:17:24.27Z</time></trkpt><trkpt lat="46.1164701" lon="12.2023862"><ele>342.0</ele><time>2026-05-01T11:17:25.264Z</time></trkpt><trkpt lat="46.1165249" lon="12.2024373"><ele>342.0</ele><time>2026-05-01T11:17:26.268Z</time></trkpt><trkpt lat="46.1165814" lon="12.2024868"><ele>341.99999999999994</ele><time>2026-05-01T11:17:27.265Z</time></trkpt><trkpt lat="46.1166399" lon="12.2025335"><ele>342.0</ele><time>2026-05-01T11:17:28.271Z</time></trkpt><trkpt lat="46.1166984" lon="12.2025792"><ele>341.99999999999994</ele><time>2026-05-01T11:17:29.271Z</time></trkpt><trkpt lat="46.1167539" lon="12.2026313"><ele>342.0</ele><time>2026-05-01T11:17:30.27Z</time></trkpt><trkpt lat="46.1168106" lon="12.2026753"><ele>342.0</ele><time>2026-05-01T11:17:31.272Z</time></trkpt><trkpt lat="46.1168683" lon="12.2027194"><ele>342.0</ele><time>2026-05-01T11:17:32.262Z</time></trkpt><trkpt lat="46.1169268" lon="12.2027639"><ele>342.0</ele><time>2026-05-01T11:17:33.272Z</time></trkpt><trkpt lat="46.116987" lon="12.2028018"><ele>341.99999999999994</ele><time>2026-05-01T11:17:34.269Z</time></trkpt><trkpt lat="46.1170499" lon="12.2028369"><ele>342.0</ele><time>2026-05-01T11:17:35.261Z</time></trkpt><trkpt lat="46.1171093" lon="12.2028694"><ele>342.0</ele><time>2026-05-01T11:17:36.263Z</time></trkpt><trkpt lat="46.1172238" lon="12.2029334"><ele>342.0</ele><time>2026-05-01T11:17:38.271Z</time></trkpt><trkpt lat="46.1172869" lon="12.2029669"><ele>342.0</ele><time>2026-05-01T11:17:39.262Z</time></trkpt><trkpt lat="46.1173483" lon="12.2029977"><ele>342.0</ele><time>2026-05-01T11:17:40.271Z</time></trkpt><trkpt lat="46.1174076" lon="12.2030344"><ele>342.0</ele><time>2026-05-01T11:17:41.266Z</time></trkpt><trkpt lat="46.1175252" lon="12.2031032"><ele>342.0</ele><time>2026-05-01T11:17:43.27Z</time></trkpt><trkpt lat="46.117587" lon="12.2031393"><ele>342.2857142857143</ele><time>2026-05-01T11:17:44.27Z</time></trkpt><trkpt lat="46.1176473" lon="12.2031741"><ele>342.57142857142856</ele><time>2026-05-01T11:17:45.264Z</time></trkpt><trkpt lat="46.1177102" lon="12.2032069"><ele>342.8571428571429</ele><time>2026-05-01T11:17:46.27Z</time></trkpt><trkpt lat="46.1177704" lon="12.2032423"><ele>343.1428571428571</ele><time>2026-05-01T11:17:47.264Z</time></trkpt><trkpt lat="46.1178329" lon="12.2032747"><ele>343.42857142857144</ele><time>2026-05-01T11:17:48.27Z</time></trkpt><trkpt lat="46.1178936" lon="12.2033065"><ele>343.7142857142857</ele><time>2026-05-01T11:17:49.266Z</time></trkpt><trkpt lat="46.1179541" lon="12.2033404"><ele>344.0</ele><time>2026-05-01T11:17:50.268Z</time></trkpt><trkpt lat="46.1180127" lon="12.2033763"><ele>344.0</ele><time>2026-05-01T11:17:51.272Z</time></trkpt><trkpt lat="46.1180734" lon="12.2034005"><ele>344.0</ele><time>2026-05-01T11:17:52.263Z</time></trkpt><trkpt lat="46.11819" lon="12.2034623"><ele>344.0</ele><time>2026-05-01T11:17:54.261Z</time></trkpt><trkpt lat="46.1183036" lon="12.203525"><ele>344.0</ele><time>2026-05-01T11:17:56.271Z</time></trkpt><trkpt lat="46.1183641" lon="12.2035512"><ele>344.0</ele><time>2026-05-01T11:17:57.265Z</time></trkpt><trkpt lat="46.1184749" lon="12.2036158"><ele>343.75</ele><time>2026-05-01T11:17:59.271Z</time></trkpt><trkpt lat="46.1185897" lon="12.2036769"><ele>343.5</ele><time>2026-05-01T11:18:01.27Z</time></trkpt><trkpt lat="46.118704" lon="12.2037375"><ele>343.25</ele><time>2026-05-01T11:18:03.269Z</time></trkpt><trkpt lat="46.1188151" lon="12.2037899"><ele>343.0</ele><time>2026-05-01T11:18:05.266Z</time></trkpt><trkpt lat="46.1189288" lon="12.2038521"><ele>343.0</ele><time>2026-05-01T11:18:07.347Z</time></trkpt><trkpt lat="46.1190417" lon="12.2039165"><ele>343.0</ele><time>2026-05-01T11:18:09.271Z</time></trkpt><trkpt lat="46.1191553" lon="12.2039719"><ele>343.0</ele><time>2026-05-01T11:18:11.272Z</time></trkpt><trkpt lat="46.1192649" lon="12.2040335"><ele>343.0</ele><time>2026-05-01T11:18:13.265Z</time></trkpt><trkpt lat="46.1193701" lon="12.2040927"><ele>343.2</ele><time>2026-05-01T11:18:15.271Z</time></trkpt><trkpt lat="46.1194719" lon="12.2041522"><ele>343.4</ele><time>2026-05-01T11:18:17.264Z</time></trkpt><trkpt lat="46.119576" lon="12.2042088"><ele>343.59999999999997</ele><time>2026-05-01T11:18:19.273Z</time></trkpt><trkpt lat="46.1196773" lon="12.2042622"><ele>343.79999999999995</ele><time>2026-05-01T11:18:21.266Z</time></trkpt><trkpt lat="46.1197801" lon="12.2043216"><ele>344.0</ele><time>2026-05-01T11:18:23.263Z</time></trkpt><trkpt lat="46.1198805" lon="12.2043735"><ele>344.2</ele><time>2026-05-01T11:18:25.263Z</time></trkpt><trkpt lat="46.119972" lon="12.204435"><ele>344.4</ele><time>2026-05-01T11:18:27.269Z</time></trkpt><trkpt lat="46.1200425" lon="12.2045308"><ele>344.6</ele><time>2026-05-01T11:18:29.267Z</time></trkpt><trkpt lat="46.1200698" lon="12.2046568"><ele>344.8</ele><time>2026-05-01T11:18:31.266Z</time></trkpt><trkpt lat="46.12013" lon="12.2047627"><ele>345.0</ele><time>2026-05-01T11:18:33.265Z</time></trkpt><trkpt lat="46.12022" lon="12.2047749"><ele>345.0</ele><time>2026-05-01T11:18:35.27Z</time></trkpt><trkpt lat="46.1203095" lon="12.2047303"><ele>345.0</ele><time>2026-05-01T11:18:37.269Z</time></trkpt><trkpt lat="46.1203968" lon="12.2046808"><ele>345.0</ele><time>2026-05-01T11:18:39.27Z</time></trkpt><trkpt lat="46.1204885" lon="12.2046637"><ele>345.0</ele><time>2026-05-01T11:18:41.267Z</time></trkpt><trkpt lat="46.1205825" lon="12.2046615"><ele>345.0</ele><time>2026-05-01T11:18:43.263Z</time></trkpt><trkpt lat="46.1206838" lon="12.2046619"><ele>346.0</ele><time>2026-05-01T11:18:45.268Z</time></trkpt><trkpt lat="46.1207783" lon="12.2046699"><ele>347.0</ele><time>2026-05-01T11:18:47.271Z</time></trkpt><trkpt lat="46.1208687" lon="12.2046851"><ele>348.0</ele><time>2026-05-01T11:18:49.27Z</time></trkpt><trkpt lat="46.1209519" lon="12.2047074"><ele>349.0</ele><time>2026-05-01T11:18:51.27Z</time></trkpt><trkpt lat="46.1210301" lon="12.2047411"><ele>350.0</ele><time>2026-05-01T11:18:53.267Z</time></trkpt><trkpt lat="46.1211093" lon="12.2047779"><ele>351.0</ele><time>2026-05-01T11:18:55.268Z</time></trkpt><trkpt lat="46.1211902" lon="12.2048125"><ele>351.5</ele><time>2026-05-01T11:18:57.27Z</time></trkpt><trkpt lat="46.1212709" lon="12.2048482"><ele>352.0</ele><time>2026-05-01T11:18:59.27Z</time></trkpt><trkpt lat="46.121353" lon="12.2048849"><ele>352.5</ele><time>2026-05-01T11:19:01.262Z</time></trkpt><trkpt lat="46.1214322" lon="12.2049229"><ele>353.0</ele><time>2026-05-01T11:19:03.261Z</time></trkpt><trkpt lat="46.1215098" lon="12.2049601"><ele>353.5</ele><time>2026-05-01T11:19:05.267Z</time></trkpt><trkpt lat="46.1215879" lon="12.2049958"><ele>354.0</ele><time>2026-05-01T11:19:07.268Z</time></trkpt><trkpt lat="46.1216675" lon="12.2050303"><ele>354.3333333333333</ele><time>2026-05-01T11:19:09.273Z</time></trkpt><trkpt lat="46.1217474" lon="12.205064"><ele>354.6666666666667</ele><time>2026-05-01T11:19:11.27Z</time></trkpt><trkpt lat="46.1218277" lon="12.2051001"><ele>355.0</ele><time>2026-05-01T11:19:13.262Z</time></trkpt><trkpt lat="46.1219052" lon="12.2051367"><ele>355.33333333333337</ele><time>2026-05-01T11:19:15.263Z</time></trkpt><trkpt lat="46.1219833" lon="12.2051704"><ele>355.6666666666667</ele><time>2026-05-01T11:19:17.273Z</time></trkpt><trkpt lat="46.1220609" lon="12.2052107"><ele>356.0</ele><time>2026-05-01T11:19:19.272Z</time></trkpt><trkpt lat="46.1221409" lon="12.2052451"><ele>356.0</ele><time>2026-05-01T11:19:21.263Z</time></trkpt><trkpt lat="46.1222205" lon="12.205283"><ele>356.0</ele><time>2026-05-01T11:19:23.27Z</time></trkpt><trkpt lat="46.1223011" lon="12.2053206"><ele>356.0</ele><time>2026-05-01T11:19:25.276Z</time></trkpt><trkpt lat="46.1223834" lon="12.205355"><ele>356.0</ele><time>2026-05-01T11:19:27.275Z</time></trkpt><trkpt lat="46.1224664" lon="12.2053921"><ele>356.0</ele><time>2026-05-01T11:19:29.272Z</time></trkpt><trkpt lat="46.1225504" lon="12.205432"><ele>356.0</ele><time>2026-05-01T11:19:31.28Z</time></trkpt><trkpt lat="46.1226366" lon="12.2054691"><ele>356.20000000000005</ele><time>2026-05-01T11:19:33.264Z</time></trkpt><trkpt lat="46.1227246" lon="12.2055176"><ele>356.40000000000003</ele><time>2026-05-01T11:19:35.274Z</time></trkpt><trkpt lat="46.1228234" lon="12.2055693"><ele>356.6</ele><time>2026-05-01T11:19:37.27Z</time></trkpt><trkpt lat="46.1229218" lon="12.2056266"><ele>356.8</ele><time>2026-05-01T11:19:39.262Z</time></trkpt><trkpt lat="46.1230263" lon="12.2056888"><ele>357.0</ele><time>2026-05-01T11:19:41.268Z</time></trkpt><trkpt lat="46.1231297" lon="12.2057387"><ele>358.25</ele><time>2026-05-01T11:19:43.269Z</time></trkpt><trkpt lat="46.1232383" lon="12.2057996"><ele>359.5</ele><time>2026-05-01T11:19:45.261Z</time></trkpt><trkpt lat="46.1233514" lon="12.2058691"><ele>360.75</ele><time>2026-05-01T11:19:47.271Z</time></trkpt><trkpt lat="46.1234618" lon="12.2059307"><ele>362.0</ele><time>2026-05-01T11:19:49.273Z</time></trkpt><trkpt lat="46.1235721" lon="12.2059972"><ele>362.0</ele><time>2026-05-01T11:19:51.27Z</time></trkpt><trkpt lat="46.1236837" lon="12.2060711"><ele>362.0</ele><time>2026-05-01T11:19:53.269Z</time></trkpt><trkpt lat="46.1237968" lon="12.2061398"><ele>362.0</ele><time>2026-05-01T11:19:55.268Z</time></trkpt><trkpt lat="46.1239108" lon="12.2062076"><ele>362.0</ele><time>2026-05-01T11:19:57.271Z</time></trkpt><trkpt lat="46.1240188" lon="12.2062907"><ele>360.75</ele><time>2026-05-01T11:19:59.27Z</time></trkpt><trkpt lat="46.1241273" lon="12.2063736"><ele>359.5</ele><time>2026-05-01T11:20:01.265Z</time></trkpt><trkpt lat="46.1242347" lon="12.2064552"><ele>358.25</ele><time>2026-05-01T11:20:03.274Z</time></trkpt><trkpt lat="46.1243402" lon="12.206547"><ele>357.0</ele><time>2026-05-01T11:20:05.271Z</time></trkpt><trkpt lat="46.1244464" lon="12.2066378"><ele>357.0</ele><time>2026-05-01T11:20:07.275Z</time></trkpt><trkpt lat="46.1245463" lon="12.2067274"><ele>357.0</ele><time>2026-05-01T11:20:09.264Z</time></trkpt><trkpt lat="46.1246519" lon="12.2068219"><ele>357.0</ele><time>2026-05-01T11:20:11.271Z</time></trkpt><trkpt lat="46.124754" lon="12.2069244"><ele>357.0</ele><time>2026-05-01T11:20:13.269Z</time></trkpt><trkpt lat="46.1248515" lon="12.2070205"><ele>357.0</ele><time>2026-05-01T11:20:15.264Z</time></trkpt><trkpt lat="46.1249553" lon="12.207123"><ele>357.0</ele><time>2026-05-01T11:20:17.27Z</time></trkpt><trkpt lat="46.125008" lon="12.2071759"><ele>357.0</ele><time>2026-05-01T11:20:18.264Z</time></trkpt><trkpt lat="46.1251037" lon="12.2072823"><ele>357.0</ele><time>2026-05-01T11:20:20.269Z</time></trkpt><trkpt lat="46.1251965" lon="12.2073839"><ele>357.0</ele><time>2026-05-01T11:20:22.262Z</time></trkpt><trkpt lat="46.1252928" lon="12.2074954"><ele>357.0</ele><time>2026-05-01T11:20:24.273Z</time></trkpt><trkpt lat="46.1253894" lon="12.207603"><ele>357.0</ele><time>2026-05-01T11:20:26.261Z</time></trkpt><trkpt lat="46.1254765" lon="12.2077162"><ele>357.0</ele><time>2026-05-01T11:20:28.265Z</time></trkpt><trkpt lat="46.1255639" lon="12.2078299"><ele>357.0</ele><time>2026-05-01T11:20:30.27Z</time></trkpt><trkpt lat="46.1256509" lon="12.2079468"><ele>357.5</ele><time>2026-05-01T11:20:32.267Z</time></trkpt><trkpt lat="46.1257391" lon="12.208058"><ele>358.0</ele><time>2026-05-01T11:20:34.262Z</time></trkpt><trkpt lat="46.1258256" lon="12.2081664"><ele>358.5</ele><time>2026-05-01T11:20:36.269Z</time></trkpt><trkpt lat="46.1259075" lon="12.2082818"><ele>359.0</ele><time>2026-05-01T11:20:38.27Z</time></trkpt><trkpt lat="46.1259834" lon="12.2084004"><ele>359.2</ele><time>2026-05-01T11:20:40.269Z</time></trkpt><trkpt lat="46.1260652" lon="12.2085169"><ele>359.4</ele><time>2026-05-01T11:20:42.265Z</time></trkpt><trkpt lat="46.12614" lon="12.2086396"><ele>359.6</ele><time>2026-05-01T11:20:44.27Z</time></trkpt><trkpt lat="46.1262205" lon="12.2087694"><ele>359.8</ele><time>2026-05-01T11:20:46.265Z</time></trkpt><trkpt lat="46.1262643" lon="12.2088355"><ele>360.0</ele><time>2026-05-01T11:20:47.267Z</time></trkpt><trkpt lat="46.1263449" lon="12.2089674"><ele>359.6666666666667</ele><time>2026-05-01T11:20:49.271Z</time></trkpt><trkpt lat="46.126388" lon="12.209034"><ele>359.3333333333333</ele><time>2026-05-01T11:20:50.271Z</time></trkpt><trkpt lat="46.1264307" lon="12.2091044"><ele>359.0</ele><time>2026-05-01T11:20:51.278Z</time></trkpt><trkpt lat="46.1265141" lon="12.2092449"><ele>358.66666666666663</ele><time>2026-05-01T11:20:53.27Z</time></trkpt><trkpt lat="46.1265938" lon="12.2093841"><ele>358.3333333333333</ele><time>2026-05-01T11:20:55.269Z</time></trkpt><trkpt lat="46.1266312" lon="12.2094606"><ele>358.0</ele><time>2026-05-01T11:20:56.269Z</time></trkpt><trkpt lat="46.126709" lon="12.2096022"><ele>357.66666666666663</ele><time>2026-05-01T11:20:58.269Z</time></trkpt><trkpt lat="46.1267484" lon="12.2096758"><ele>357.3333333333333</ele><time>2026-05-01T11:20:59.271Z</time></trkpt><trkpt lat="46.1267855" lon="12.2097525"><ele>357.0</ele><time>2026-05-01T11:21:00.273Z</time></trkpt><trkpt lat="46.1268227" lon="12.2098278"><ele>356.6666666666667</ele><time>2026-05-01T11:21:01.27Z</time></trkpt><trkpt lat="46.1268947" lon="12.2099757"><ele>356.33333333333337</ele><time>2026-05-01T11:21:03.269Z</time></trkpt><trkpt lat="46.1269328" lon="12.2100536"><ele>356.0</ele><time>2026-05-01T11:21:04.267Z</time></trkpt><trkpt lat="46.1269728" lon="12.2101339"><ele>355.99999999999994</ele><time>2026-05-01T11:21:05.266Z</time></trkpt><trkpt lat="46.1270106" lon="12.21021"><ele>356.0</ele><time>2026-05-01T11:21:06.269Z</time></trkpt><trkpt lat="46.1270503" lon="12.210288"><ele>356.0</ele><time>2026-05-01T11:21:07.266Z</time></trkpt><trkpt lat="46.1270864" lon="12.2103628"><ele>356.0</ele><time>2026-05-01T11:21:08.263Z</time></trkpt><trkpt lat="46.1271217" lon="12.2104483"><ele>356.0</ele><time>2026-05-01T11:21:09.273Z</time></trkpt><trkpt lat="46.1271578" lon="12.2105311"><ele>355.99999999999994</ele><time>2026-05-01T11:21:10.27Z</time></trkpt><trkpt lat="46.1271946" lon="12.2106173"><ele>356.0</ele><time>2026-05-01T11:21:11.271Z</time></trkpt><trkpt lat="46.1272318" lon="12.2107001"><ele>356.2857142857143</ele><time>2026-05-01T11:21:12.273Z</time></trkpt><trkpt lat="46.1272665" lon="12.2107825"><ele>356.57142857142856</ele><time>2026-05-01T11:21:13.267Z</time></trkpt><trkpt lat="46.1273031" lon="12.2108721"><ele>356.8571428571429</ele><time>2026-05-01T11:21:14.27Z</time></trkpt><trkpt lat="46.1273358" lon="12.2109665"><ele>357.1428571428571</ele><time>2026-05-01T11:21:15.27Z</time></trkpt><trkpt lat="46.1273702" lon="12.2110616"><ele>357.42857142857144</ele><time>2026-05-01T11:21:16.271Z</time></trkpt><trkpt lat="46.1274022" lon="12.2111621"><ele>357.7142857142857</ele><time>2026-05-01T11:21:17.265Z</time></trkpt><trkpt lat="46.127437" lon="12.2112578"><ele>358.0</ele><time>2026-05-01T11:21:18.271Z</time></trkpt><trkpt lat="46.1274653" lon="12.2113605"><ele>356.8333333333333</ele><time>2026-05-01T11:21:19.27Z</time></trkpt><trkpt lat="46.1274991" lon="12.2114595"><ele>355.66666666666663</ele><time>2026-05-01T11:21:20.272Z</time></trkpt><trkpt lat="46.127535" lon="12.2115577"><ele>354.5</ele><time>2026-05-01T11:21:21.274Z</time></trkpt><trkpt lat="46.1275706" lon="12.2116577"><ele>353.3333333333333</ele><time>2026-05-01T11:21:22.271Z</time></trkpt><trkpt lat="46.1276041" lon="12.2117551"><ele>352.1666666666667</ele><time>2026-05-01T11:21:23.271Z</time></trkpt><trkpt lat="46.1276395" lon="12.2118538"><ele>351.0</ele><time>2026-05-01T11:21:24.271Z</time></trkpt><trkpt lat="46.127675" lon="12.2119543"><ele>351.0</ele><time>2026-05-01T11:21:25.265Z</time></trkpt><trkpt lat="46.1277129" lon="12.2120497"><ele>351.0</ele><time>2026-05-01T11:21:26.27Z</time></trkpt><trkpt lat="46.1277538" lon="12.2121467"><ele>351.0</ele><time>2026-05-01T11:21:27.273Z</time></trkpt><trkpt lat="46.1277973" lon="12.2122417"><ele>351.0</ele><time>2026-05-01T11:21:28.272Z</time></trkpt><trkpt lat="46.1278455" lon="12.212333"><ele>351.0</ele><time>2026-05-01T11:21:29.271Z</time></trkpt><trkpt lat="46.1278986" lon="12.2124246"><ele>351.0</ele><time>2026-05-01T11:21:30.266Z</time></trkpt><trkpt lat="46.1279563" lon="12.2125092"><ele>351.3333333333333</ele><time>2026-05-01T11:21:31.268Z</time></trkpt><trkpt lat="46.128016" lon="12.2125882"><ele>351.6666666666667</ele><time>2026-05-01T11:21:32.27Z</time></trkpt><trkpt lat="46.1280794" lon="12.2126655"><ele>352.0</ele><time>2026-05-01T11:21:33.267Z</time></trkpt><trkpt lat="46.1281449" lon="12.2127469"><ele>352.33333333333337</ele><time>2026-05-01T11:21:34.272Z</time></trkpt><trkpt lat="46.1282145" lon="12.2128118"><ele>352.6666666666667</ele><time>2026-05-01T11:21:35.274Z</time></trkpt><trkpt lat="46.1282786" lon="12.2128687"><ele>353.0</ele><time>2026-05-01T11:21:36.263Z</time></trkpt><trkpt lat="46.12835" lon="12.2129156"><ele>352.0</ele><time>2026-05-01T11:21:37.265Z</time></trkpt><trkpt lat="46.1284212" lon="12.2129532"><ele>351.0</ele><time>2026-05-01T11:21:38.264Z</time></trkpt><trkpt lat="46.12849" lon="12.2129967"><ele>350.0</ele><time>2026-05-01T11:21:39.279Z</time></trkpt><trkpt lat="46.1285584" lon="12.2130249"><ele>349.0</ele><time>2026-05-01T11:21:40.264Z</time></trkpt><trkpt lat="46.1286255" lon="12.213038"><ele>348.0</ele><time>2026-05-01T11:21:41.273Z</time></trkpt><trkpt lat="46.1287237" lon="12.2130895"><ele>347.0</ele><time>2026-05-01T11:21:43.265Z</time></trkpt><trkpt lat="46.1287863" lon="12.2130799"><ele>347.0</ele><time>2026-05-01T11:21:58.266Z</time></trkpt><trkpt lat="46.1288829" lon="12.2130395"><ele>347.0</ele><time>2026-05-01T11:22:01.267Z</time></trkpt><trkpt lat="46.1289708" lon="12.2130548"><ele>347.0</ele><time>2026-05-01T11:22:03.272Z</time></trkpt><trkpt lat="46.1290725" lon="12.213057"><ele>347.0</ele><time>2026-05-01T11:22:05.261Z</time></trkpt><trkpt lat="46.1291763" lon="12.2130609"><ele>347.0</ele><time>2026-05-01T11:22:07.263Z</time></trkpt><trkpt lat="46.1294241" lon="12.2130963"><ele>347.0</ele><time>2026-05-01T11:22:12.266Z</time></trkpt><trkpt lat="46.1295215" lon="12.2131071"><ele>347.0</ele><time>2026-05-01T11:22:14.265Z</time></trkpt><trkpt lat="46.1296239" lon="12.2131217"><ele>347.0</ele><time>2026-05-01T11:22:16.276Z</time></trkpt><trkpt lat="46.1297276" lon="12.2131359"><ele>347.0</ele><time>2026-05-01T11:22:18.263Z</time></trkpt><trkpt lat="46.1298311" lon="12.2131492"><ele>347.0</ele><time>2026-05-01T11:22:20.265Z</time></trkpt><trkpt lat="46.1299406" lon="12.2131559"><ele>347.0</ele><time>2026-05-01T11:22:22.28Z</time></trkpt><trkpt lat="46.1300532" lon="12.2131716"><ele>347.0</ele><time>2026-05-01T11:22:24.27Z</time></trkpt><trkpt lat="46.1301636" lon="12.2132003"><ele>347.0</ele><time>2026-05-01T11:22:26.275Z</time></trkpt><trkpt lat="46.1302756" lon="12.2132482"><ele>347.0</ele><time>2026-05-01T11:22:28.274Z</time></trkpt><trkpt lat="46.1303867" lon="12.2133042"><ele>347.0</ele><time>2026-05-01T11:22:30.272Z</time></trkpt><trkpt lat="46.1304932" lon="12.2133722"><ele>347.0</ele><time>2026-05-01T11:22:32.27Z</time></trkpt><trkpt lat="46.1305993" lon="12.2134347"><ele>347.0</ele><time>2026-05-01T11:22:34.271Z</time></trkpt><trkpt lat="46.1307079" lon="12.2134971"><ele>347.0</ele><time>2026-05-01T11:22:36.267Z</time></trkpt><trkpt lat="46.1308188" lon="12.2135662"><ele>347.5</ele><time>2026-05-01T11:22:38.279Z</time></trkpt><trkpt lat="46.1309316" lon="12.2136253"><ele>348.0</ele><time>2026-05-01T11:22:40.269Z</time></trkpt><trkpt lat="46.1310423" lon="12.2136985"><ele>348.5</ele><time>2026-05-01T11:22:42.274Z</time></trkpt><trkpt lat="46.131154" lon="12.2137652"><ele>349.0</ele><time>2026-05-01T11:22:44.268Z</time></trkpt><trkpt lat="46.1312605" lon="12.2138364"><ele>349.0</ele><time>2026-05-01T11:22:46.273Z</time></trkpt><trkpt lat="46.1313528" lon="12.2139258"><ele>349.0</ele><time>2026-05-01T11:22:48.265Z</time></trkpt><trkpt lat="46.1314392" lon="12.2140377"><ele>349.0</ele><time>2026-05-01T11:22:50.269Z</time></trkpt><trkpt lat="46.131516" lon="12.214163"><ele>349.0</ele><time>2026-05-01T11:22:52.27Z</time></trkpt><trkpt lat="46.1315855" lon="12.2143011"><ele>349.0</ele><time>2026-05-01T11:22:54.271Z</time></trkpt><trkpt lat="46.1316545" lon="12.2144367"><ele>349.0</ele><time>2026-05-01T11:22:56.277Z</time></trkpt><trkpt lat="46.1317166" lon="12.2145725"><ele>349.0</ele><time>2026-05-01T11:22:58.271Z</time></trkpt><trkpt lat="46.1317783" lon="12.214707"><ele>349.0</ele><time>2026-05-01T11:23:00.273Z</time></trkpt><trkpt lat="46.1318441" lon="12.2148365"><ele>350.0</ele><time>2026-05-01T11:23:02.272Z</time></trkpt><trkpt lat="46.1319076" lon="12.214972"><ele>351.0</ele><time>2026-05-01T11:23:04.278Z</time></trkpt><trkpt lat="46.1319682" lon="12.2151057"><ele>352.0</ele><time>2026-05-01T11:23:06.273Z</time></trkpt><trkpt lat="46.1320322" lon="12.2152416"><ele>353.0</ele><time>2026-05-01T11:23:08.266Z</time></trkpt><trkpt lat="46.1320989" lon="12.2153827"><ele>353.0</ele><time>2026-05-01T11:23:10.267Z</time></trkpt><trkpt lat="46.1321613" lon="12.2155243"><ele>353.0</ele><time>2026-05-01T11:23:12.273Z</time></trkpt><trkpt lat="46.1322212" lon="12.2156537"><ele>353.0</ele><time>2026-05-01T11:23:14.272Z</time></trkpt><trkpt lat="46.1322774" lon="12.2157904"><ele>353.0</ele><time>2026-05-01T11:23:16.278Z</time></trkpt><trkpt lat="46.1323437" lon="12.2159278"><ele>352.79999999999995</ele><time>2026-05-01T11:23:18.261Z</time></trkpt><trkpt lat="46.1324105" lon="12.216053"><ele>352.6</ele><time>2026-05-01T11:23:20.273Z</time></trkpt><trkpt lat="46.1324726" lon="12.2161927"><ele>352.4</ele><time>2026-05-01T11:23:22.269Z</time></trkpt><trkpt lat="46.1325349" lon="12.2163288"><ele>352.20000000000005</ele><time>2026-05-01T11:23:24.271Z</time></trkpt><trkpt lat="46.1326004" lon="12.2164575"><ele>352.0</ele><time>2026-05-01T11:23:26.274Z</time></trkpt><trkpt lat="46.1326602" lon="12.216564"><ele>352.0</ele><time>2026-05-01T11:23:28.255Z</time></trkpt><trkpt lat="46.1327188" lon="12.2166621"><ele>352.0</ele><time>2026-05-01T11:23:30.259Z</time></trkpt><trkpt lat="46.1327897" lon="12.2167527"><ele>352.0</ele><time>2026-05-01T11:23:32.265Z</time></trkpt><trkpt lat="46.1328578" lon="12.2168417"><ele>352.0</ele><time>2026-05-01T11:23:34.272Z</time></trkpt><trkpt lat="46.1329221" lon="12.2169393"><ele>352.0</ele><time>2026-05-01T11:23:36.27Z</time></trkpt><trkpt lat="46.1329929" lon="12.2170293"><ele>352.0</ele><time>2026-05-01T11:23:38.269Z</time></trkpt><trkpt lat="46.1330055" lon="12.2171526"><ele>352.0</ele><time>2026-05-01T11:23:40.276Z</time></trkpt><trkpt lat="46.1330928" lon="12.2172337"><ele>352.0</ele><time>2026-05-01T11:23:42.281Z</time></trkpt><trkpt lat="46.133187" lon="12.2173369"><ele>352.0</ele><time>2026-05-01T11:23:44.264Z</time></trkpt><trkpt lat="46.1332399" lon="12.2173906"><ele>352.0</ele><time>2026-05-01T11:23:45.268Z</time></trkpt><trkpt lat="46.1332889" lon="12.2174492"><ele>352.0</ele><time>2026-05-01T11:23:46.271Z</time></trkpt><trkpt lat="46.1333378" lon="12.2175106"><ele>351.2857142857143</ele><time>2026-05-01T11:23:47.274Z</time></trkpt><trkpt lat="46.1333907" lon="12.2175658"><ele>350.57142857142856</ele><time>2026-05-01T11:23:48.261Z</time></trkpt><trkpt lat="46.1334501" lon="12.217605"><ele>349.8571428571429</ele><time>2026-05-01T11:23:49.271Z</time></trkpt><trkpt lat="46.1335081" lon="12.2176514"><ele>349.1428571428571</ele><time>2026-05-01T11:23:50.274Z</time></trkpt><trkpt lat="46.133564" lon="12.2177045"><ele>348.4285714285714</ele><time>2026-05-01T11:23:51.268Z</time></trkpt><trkpt lat="46.1336206" lon="12.2177537"><ele>347.7142857142857</ele><time>2026-05-01T11:23:52.273Z</time></trkpt><trkpt lat="46.1336797" lon="12.2178019"><ele>347.0</ele><time>2026-05-01T11:23:53.273Z</time></trkpt><trkpt lat="46.1337376" lon="12.2178549"><ele>347.0</ele><time>2026-05-01T11:23:54.262Z</time></trkpt><trkpt lat="46.13379" lon="12.2179191"><ele>347.0</ele><time>2026-05-01T11:23:55.271Z</time></trkpt><trkpt lat="46.1338385" lon="12.2179839"><ele>347.0</ele><time>2026-05-01T11:23:56.278Z</time></trkpt><trkpt lat="46.1338917" lon="12.2180447"><ele>347.0</ele><time>2026-05-01T11:23:57.262Z</time></trkpt><trkpt lat="46.1339429" lon="12.2181017"><ele>347.0</ele><time>2026-05-01T11:23:58.261Z</time></trkpt><trkpt lat="46.134003" lon="12.2182398"><ele>347.0</ele><time>2026-05-01T11:24:00.267Z</time></trkpt><trkpt lat="46.1340212" lon="12.2183302"><ele>347.0</ele><time>2026-05-01T11:24:01.269Z</time></trkpt><trkpt lat="46.1340992" lon="12.2184514"><ele>345.40000000000003</ele><time>2026-05-01T11:24:03.273Z</time></trkpt><trkpt lat="46.1341764" lon="12.218576"><ele>343.8</ele><time>2026-05-01T11:24:05.264Z</time></trkpt><trkpt lat="46.1342591" lon="12.2186835"><ele>342.2</ele><time>2026-05-01T11:24:07.265Z</time></trkpt><trkpt lat="46.1343438" lon="12.2187847"><ele>340.6</ele><time>2026-05-01T11:24:09.263Z</time></trkpt><trkpt lat="46.1344242" lon="12.218886"><ele>339.0</ele><time>2026-05-01T11:24:11.273Z</time></trkpt><trkpt lat="46.1345038" lon="12.2189801"><ele>338.6</ele><time>2026-05-01T11:24:13.267Z</time></trkpt><trkpt lat="46.134585" lon="12.2190728"><ele>338.2</ele><time>2026-05-01T11:24:15.273Z</time></trkpt><trkpt lat="46.1346745" lon="12.2191544"><ele>337.8</ele><time>2026-05-01T11:24:17.277Z</time></trkpt><trkpt lat="46.1347765" lon="12.2192135"><ele>337.40000000000003</ele><time>2026-05-01T11:24:19.269Z</time></trkpt><trkpt lat="46.1348914" lon="12.2191771"><ele>337.0</ele><time>2026-05-01T11:24:21.274Z</time></trkpt><trkpt lat="46.1349734" lon="12.219095"><ele>337.40000000000003</ele><time>2026-05-01T11:24:23.271Z</time></trkpt><trkpt lat="46.1350622" lon="12.2190044"><ele>337.8</ele><time>2026-05-01T11:24:25.28Z</time></trkpt><trkpt lat="46.135139" lon="12.2189089"><ele>338.2</ele><time>2026-05-01T11:24:27.275Z</time></trkpt><trkpt lat="46.1352079" lon="12.2188063"><ele>338.6</ele><time>2026-05-01T11:24:29.271Z</time></trkpt><trkpt lat="46.1352708" lon="12.2187054"><ele>339.0</ele><time>2026-05-01T11:24:31.261Z</time></trkpt><trkpt lat="46.1353321" lon="12.2186089"><ele>339.0</ele><time>2026-05-01T11:24:33.272Z</time></trkpt><trkpt lat="46.1353992" lon="12.2185145"><ele>339.0</ele><time>2026-05-01T11:24:35.274Z</time></trkpt><trkpt lat="46.1354713" lon="12.2184227"><ele>339.0</ele><time>2026-05-01T11:24:37.269Z</time></trkpt><trkpt lat="46.1355487" lon="12.2183479"><ele>339.0</ele><time>2026-05-01T11:24:39.278Z</time></trkpt><trkpt lat="46.1356326" lon="12.2182836"><ele>339.0</ele><time>2026-05-01T11:24:41.268Z</time></trkpt><trkpt lat="46.1357143" lon="12.2182265"><ele>338.79999999999995</ele><time>2026-05-01T11:24:43.265Z</time></trkpt><trkpt lat="46.1357943" lon="12.2181601"><ele>338.59999999999997</ele><time>2026-05-01T11:24:45.261Z</time></trkpt><trkpt lat="46.1358713" lon="12.2180979"><ele>338.4</ele><time>2026-05-01T11:24:47.279Z</time></trkpt><trkpt lat="46.1359532" lon="12.2180363"><ele>338.2</ele><time>2026-05-01T11:24:49.269Z</time></trkpt><trkpt lat="46.1360348" lon="12.2179721"><ele>338.0</ele><time>2026-05-01T11:24:51.277Z</time></trkpt><trkpt lat="46.1361192" lon="12.2179232"><ele>338.0</ele><time>2026-05-01T11:24:53.28Z</time></trkpt><trkpt lat="46.1361954" lon="12.2178617"><ele>338.0</ele><time>2026-05-01T11:24:55.285Z</time></trkpt><trkpt lat="46.1362781" lon="12.2178067"><ele>338.0</ele><time>2026-05-01T11:24:57.273Z</time></trkpt><trkpt lat="46.1363582" lon="12.2177568"><ele>338.0</ele><time>2026-05-01T11:24:59.262Z</time></trkpt><trkpt lat="46.1364385" lon="12.2176946"><ele>338.0</ele><time>2026-05-01T11:25:01.271Z</time></trkpt><trkpt lat="46.1365144" lon="12.2176279"><ele>338.0</ele><time>2026-05-01T11:25:03.274Z</time></trkpt><trkpt lat="46.1365839" lon="12.2175492"><ele>338.33333333333337</ele><time>2026-05-01T11:25:05.271Z</time></trkpt><trkpt lat="46.1366507" lon="12.2174636"><ele>338.6666666666667</ele><time>2026-05-01T11:25:07.266Z</time></trkpt><trkpt lat="46.1367176" lon="12.2173773"><ele>339.0</ele><time>2026-05-01T11:25:09.268Z</time></trkpt><trkpt lat="46.136783" lon="12.2172918"><ele>339.3333333333333</ele><time>2026-05-01T11:25:11.273Z</time></trkpt><trkpt lat="46.1368452" lon="12.2172063"><ele>339.66666666666663</ele><time>2026-05-01T11:25:13.273Z</time></trkpt><trkpt lat="46.1369058" lon="12.2171193"><ele>340.0</ele><time>2026-05-01T11:25:15.276Z</time></trkpt><trkpt lat="46.1369707" lon="12.2170348"><ele>340.0</ele><time>2026-05-01T11:25:17.271Z</time></trkpt><trkpt lat="46.137039" lon="12.2169539"><ele>340.0</ele><time>2026-05-01T11:25:19.273Z</time></trkpt><trkpt lat="46.1371113" lon="12.2168643"><ele>340.0</ele><time>2026-05-01T11:25:21.273Z</time></trkpt><trkpt lat="46.1371808" lon="12.2167741"><ele>340.0</ele><time>2026-05-01T11:25:23.273Z</time></trkpt><trkpt lat="46.1372475" lon="12.2166877"><ele>340.0</ele><time>2026-05-01T11:25:25.273Z</time></trkpt><trkpt lat="46.1373127" lon="12.2165955"><ele>340.0</ele><time>2026-05-01T11:25:27.274Z</time></trkpt><trkpt lat="46.1373783" lon="12.2165034"><ele>340.0</ele><time>2026-05-01T11:25:29.272Z</time></trkpt><trkpt lat="46.1374478" lon="12.216408"><ele>340.0</ele><time>2026-05-01T11:25:31.274Z</time></trkpt><trkpt lat="46.1375092" lon="12.2163206"><ele>340.0</ele><time>2026-05-01T11:25:33.276Z</time></trkpt><trkpt lat="46.1375737" lon="12.2162257"><ele>340.0</ele><time>2026-05-01T11:25:35.29Z</time></trkpt><trkpt lat="46.137634" lon="12.2161257"><ele>340.6</ele><time>2026-05-01T11:25:37.267Z</time></trkpt><trkpt lat="46.1376862" lon="12.2160062"><ele>341.2</ele><time>2026-05-01T11:25:39.278Z</time></trkpt><trkpt lat="46.1377319" lon="12.2158835"><ele>341.79999999999995</ele><time>2026-05-01T11:25:41.265Z</time></trkpt><trkpt lat="46.1377759" lon="12.2157689"><ele>342.4</ele><time>2026-05-01T11:25:43.263Z</time></trkpt><trkpt lat="46.1378233" lon="12.2156631"><ele>343.0</ele><time>2026-05-01T11:25:45.274Z</time></trkpt><trkpt lat="46.1378656" lon="12.2155597"><ele>343.0</ele><time>2026-05-01T11:25:47.268Z</time></trkpt><trkpt lat="46.1378995" lon="12.2154589"><ele>343.0</ele><time>2026-05-01T11:25:49.272Z</time></trkpt><trkpt lat="46.1379369" lon="12.2153672"><ele>343.0</ele><time>2026-05-01T11:25:51.271Z</time></trkpt><trkpt lat="46.137977" lon="12.215277"><ele>343.0</ele><time>2026-05-01T11:25:53.271Z</time></trkpt><trkpt lat="46.1380168" lon="12.2151926"><ele>343.0</ele><time>2026-05-01T11:25:55.273Z</time></trkpt><trkpt lat="46.1380528" lon="12.2151069"><ele>343.0</ele><time>2026-05-01T11:25:57.269Z</time></trkpt><trkpt lat="46.1380947" lon="12.2150286"><ele>343.0</ele><time>2026-05-01T11:25:59.283Z</time></trkpt><trkpt lat="46.1381342" lon="12.2149469"><ele>343.0</ele><time>2026-05-01T11:26:01.269Z</time></trkpt><trkpt lat="46.138176" lon="12.2148734"><ele>343.0</ele><time>2026-05-01T11:26:03.27Z</time></trkpt><trkpt lat="46.1382169" lon="12.2147969"><ele>343.0</ele><time>2026-05-01T11:26:05.282Z</time></trkpt><trkpt lat="46.1382627" lon="12.2147237"><ele>343.0</ele><time>2026-05-01T11:26:07.282Z</time></trkpt><trkpt lat="46.1383063" lon="12.2146444"><ele>343.0</ele><time>2026-05-01T11:26:09.28Z</time></trkpt><trkpt lat="46.1383514" lon="12.2145666"><ele>343.0</ele><time>2026-05-01T11:26:11.269Z</time></trkpt><trkpt lat="46.1383965" lon="12.2144928"><ele>343.0</ele><time>2026-05-01T11:26:13.264Z</time></trkpt><trkpt lat="46.1384396" lon="12.2144185"><ele>344.57142857142856</ele><time>2026-05-01T11:26:15.263Z</time></trkpt><trkpt lat="46.1384812" lon="12.2143431"><ele>346.1428571428571</ele><time>2026-05-01T11:26:17.262Z</time></trkpt><trkpt lat="46.138524" lon="12.2142651"><ele>347.7142857142857</ele><time>2026-05-01T11:26:19.269Z</time></trkpt><trkpt lat="46.1385641" lon="12.2141911"><ele>349.2857142857143</ele><time>2026-05-01T11:26:21.273Z</time></trkpt><trkpt lat="46.1386085" lon="12.21412"><ele>350.85714285714283</ele><time>2026-05-01T11:26:23.275Z</time></trkpt><trkpt lat="46.1386514" lon="12.2140482"><ele>352.42857142857144</ele><time>2026-05-01T11:26:25.265Z</time></trkpt><trkpt lat="46.1386869" lon="12.21397"><ele>354.0</ele><time>2026-05-01T11:26:27.266Z</time></trkpt><trkpt lat="46.1387227" lon="12.2138941"><ele>354.0</ele><time>2026-05-01T11:26:29.279Z</time></trkpt><trkpt lat="46.1387505" lon="12.2138065"><ele>354.0</ele><time>2026-05-01T11:26:31.272Z</time></trkpt><trkpt lat="46.1387733" lon="12.213717"><ele>354.0</ele><time>2026-05-01T11:26:33.262Z</time></trkpt><trkpt lat="46.1387893" lon="12.2136163"><ele>354.0</ele><time>2026-05-01T11:26:35.271Z</time></trkpt><trkpt lat="46.1388055" lon="12.2135119"><ele>354.0</ele><time>2026-05-01T11:26:37.278Z</time></trkpt><trkpt lat="46.1388207" lon="12.2134027"><ele>354.0</ele><time>2026-05-01T11:26:39.278Z</time></trkpt><trkpt lat="46.1388385" lon="12.2132904"><ele>354.0</ele><time>2026-05-01T11:26:41.269Z</time></trkpt><trkpt lat="46.1388555" lon="12.2131781"><ele>354.0</ele><time>2026-05-01T11:26:43.277Z</time></trkpt><trkpt lat="46.1388727" lon="12.2130654"><ele>354.0</ele><time>2026-05-01T11:26:45.276Z</time></trkpt><trkpt lat="46.1388745" lon="12.2129507"><ele>354.0</ele><time>2026-05-01T11:26:47.266Z</time></trkpt><trkpt lat="46.1388713" lon="12.2128341"><ele>354.0</ele><time>2026-05-01T11:26:49.276Z</time></trkpt><trkpt lat="46.1388646" lon="12.2127151"><ele>354.0</ele><time>2026-05-01T11:26:51.274Z</time></trkpt><trkpt lat="46.1388519" lon="12.2125951"><ele>354.0</ele><time>2026-05-01T11:26:53.283Z</time></trkpt><trkpt lat="46.138831" lon="12.212477"><ele>354.0</ele><time>2026-05-01T11:26:55.28Z</time></trkpt><trkpt lat="46.1388025" lon="12.2123665"><ele>354.0</ele><time>2026-05-01T11:26:57.266Z</time></trkpt><trkpt lat="46.1387708" lon="12.2122553"><ele>354.0</ele><time>2026-05-01T11:26:59.278Z</time></trkpt><trkpt lat="46.1387331" lon="12.2121463"><ele>354.0</ele><time>2026-05-01T11:27:01.279Z</time></trkpt><trkpt lat="46.1386959" lon="12.2120379"><ele>354.0</ele><time>2026-05-01T11:27:03.26Z</time></trkpt><trkpt lat="46.1386589" lon="12.2119344"><ele>354.0</ele><time>2026-05-01T11:27:05.275Z</time></trkpt><trkpt lat="46.1386281" lon="12.211832"><ele>353.7142857142857</ele><time>2026-05-01T11:27:07.267Z</time></trkpt><trkpt lat="46.1386026" lon="12.2117287"><ele>353.4285714285714</ele><time>2026-05-01T11:27:09.266Z</time></trkpt><trkpt lat="46.1385862" lon="12.2116254"><ele>353.1428571428571</ele><time>2026-05-01T11:27:11.261Z</time></trkpt><trkpt lat="46.1385795" lon="12.2115217"><ele>352.8571428571429</ele><time>2026-05-01T11:27:13.275Z</time></trkpt><trkpt lat="46.1385769" lon="12.2114223"><ele>352.57142857142856</ele><time>2026-05-01T11:27:15.261Z</time></trkpt><trkpt lat="46.1385893" lon="12.2113282"><ele>352.2857142857143</ele><time>2026-05-01T11:27:17.263Z</time></trkpt><trkpt lat="46.1386091" lon="12.2112376"><ele>352.0</ele><time>2026-05-01T11:27:19.264Z</time></trkpt><trkpt lat="46.1386371" lon="12.2111501"><ele>352.0</ele><time>2026-05-01T11:27:21.273Z</time></trkpt><trkpt lat="46.1386723" lon="12.211072"><ele>352.0</ele><time>2026-05-01T11:27:23.277Z</time></trkpt><trkpt lat="46.1387118" lon="12.2109982"><ele>352.0</ele><time>2026-05-01T11:27:25.261Z</time></trkpt><trkpt lat="46.1387577" lon="12.2109298"><ele>352.0</ele><time>2026-05-01T11:27:27.271Z</time></trkpt><trkpt lat="46.1388064" lon="12.2108615"><ele>352.0</ele><time>2026-05-01T11:27:29.28Z</time></trkpt><trkpt lat="46.1388575" lon="12.2108055"><ele>352.0</ele><time>2026-05-01T11:27:31.266Z</time></trkpt><trkpt lat="46.1389128" lon="12.2107524"><ele>352.0</ele><time>2026-05-01T11:27:33.267Z</time></trkpt><trkpt lat="46.1389705" lon="12.2107078"><ele>352.0</ele><time>2026-05-01T11:27:35.267Z</time></trkpt><trkpt lat="46.1390286" lon="12.2106579"><ele>352.0</ele><time>2026-05-01T11:27:37.28Z</time></trkpt><trkpt lat="46.139098" lon="12.2105636"><ele>352.0</ele><time>2026-05-01T11:27:40.284Z</time></trkpt><trkpt lat="46.1391401" lon="12.2104897"><ele>352.0</ele><time>2026-05-01T11:27:42.282Z</time></trkpt><trkpt lat="46.1391705" lon="12.2104037"><ele>352.0</ele><time>2026-05-01T11:27:44.282Z</time></trkpt><trkpt lat="46.1391968" lon="12.2103202"><ele>352.0</ele><time>2026-05-01T11:27:46.272Z</time></trkpt><trkpt lat="46.1392103" lon="12.2102227"><ele>352.0</ele><time>2026-05-01T11:27:48.259Z</time></trkpt><trkpt lat="46.139214" lon="12.2101217"><ele>356.2857142857143</ele><time>2026-05-01T11:27:50.28Z</time></trkpt><trkpt lat="46.139211" lon="12.2100259"><ele>360.57142857142856</ele><time>2026-05-01T11:27:52.267Z</time></trkpt><trkpt lat="46.1391918" lon="12.2099292"><ele>364.8571428571429</ele><time>2026-05-01T11:27:54.275Z</time></trkpt><trkpt lat="46.1391565" lon="12.2098374"><ele>369.1428571428571</ele><time>2026-05-01T11:27:56.281Z</time></trkpt><trkpt lat="46.1391186" lon="12.2097401"><ele>373.4285714285714</ele><time>2026-05-01T11:27:58.282Z</time></trkpt><trkpt lat="46.1390858" lon="12.2096469"><ele>377.7142857142857</ele><time>2026-05-01T11:28:00.284Z</time></trkpt><trkpt lat="46.1390714" lon="12.209548"><ele>382.0</ele><time>2026-05-01T11:28:02.274Z</time></trkpt><trkpt lat="46.1390722" lon="12.2094489"><ele>382.0</ele><time>2026-05-01T11:28:04.275Z</time></trkpt><trkpt lat="46.1390903" lon="12.2093608"><ele>382.0</ele><time>2026-05-01T11:28:06.271Z</time></trkpt><trkpt lat="46.1391238" lon="12.2092794"><ele>382.0</ele><time>2026-05-01T11:28:08.272Z</time></trkpt><trkpt lat="46.1391615" lon="12.2092008"><ele>382.0</ele><time>2026-05-01T11:28:10.263Z</time></trkpt><trkpt lat="46.139201" lon="12.2091217"><ele>382.0</ele><time>2026-05-01T11:28:12.273Z</time></trkpt><trkpt lat="46.1392478" lon="12.2090499"><ele>382.0</ele><time>2026-05-01T11:28:14.278Z</time></trkpt><trkpt lat="46.1393338" lon="12.209019"><ele>382.0</ele><time>2026-05-01T11:28:17.273Z</time></trkpt><trkpt lat="46.1394183" lon="12.2090583"><ele>382.0</ele><time>2026-05-01T11:28:20.278Z</time></trkpt><trkpt lat="46.1394879" lon="12.2090704"><ele>382.0</ele><time>2026-05-01T11:28:22.281Z</time></trkpt><trkpt lat="46.1395563" lon="12.2090404"><ele>382.0</ele><time>2026-05-01T11:28:24.269Z</time></trkpt><trkpt lat="46.1395923" lon="12.2089487"><ele>382.0</ele><time>2026-05-01T11:28:26.279Z</time></trkpt><trkpt lat="46.1395956" lon="12.2088415"><ele>382.0</ele><time>2026-05-01T11:28:28.287Z</time></trkpt><trkpt lat="46.1395723" lon="12.2087271"><ele>382.0</ele><time>2026-05-01T11:28:30.28Z</time></trkpt><trkpt lat="46.1395315" lon="12.2086191"><ele>382.8333333333333</ele><time>2026-05-01T11:28:32.276Z</time></trkpt><trkpt lat="46.1394814" lon="12.2085132"><ele>383.66666666666663</ele><time>2026-05-01T11:28:34.263Z</time></trkpt><trkpt lat="46.1394333" lon="12.2084127"><ele>384.5</ele><time>2026-05-01T11:28:36.267Z</time></trkpt><trkpt lat="46.1393855" lon="12.2083103"><ele>385.3333333333333</ele><time>2026-05-01T11:28:38.266Z</time></trkpt><trkpt lat="46.1393324" lon="12.2082045"><ele>386.1666666666667</ele><time>2026-05-01T11:28:40.269Z</time></trkpt><trkpt lat="46.1392741" lon="12.2080934"><ele>387.0</ele><time>2026-05-01T11:28:42.264Z</time></trkpt><trkpt lat="46.139211" lon="12.2079794"><ele>386.8</ele><time>2026-05-01T11:28:44.259Z</time></trkpt><trkpt lat="46.1391624" lon="12.2078643"><ele>386.6</ele><time>2026-05-01T11:28:46.262Z</time></trkpt><trkpt lat="46.139107" lon="12.2077583"><ele>386.40000000000003</ele><time>2026-05-01T11:28:48.264Z</time></trkpt><trkpt lat="46.1390531" lon="12.2076549"><ele>386.20000000000005</ele><time>2026-05-01T11:28:50.259Z</time></trkpt><trkpt lat="46.1389853" lon="12.2075612"><ele>386.0</ele><time>2026-05-01T11:28:52.266Z</time></trkpt><trkpt lat="46.1389167" lon="12.2074551"><ele>386.0</ele><time>2026-05-01T11:28:54.272Z</time></trkpt><trkpt lat="46.1388526" lon="12.2073471"><ele>386.0</ele><time>2026-05-01T11:28:56.274Z</time></trkpt><trkpt lat="46.1387894" lon="12.2072322"><ele>386.0</ele><time>2026-05-01T11:28:58.266Z</time></trkpt><trkpt lat="46.1387206" lon="12.2071142"><ele>386.0</ele><time>2026-05-01T11:29:00.275Z</time></trkpt><trkpt lat="46.138652" lon="12.2069863"><ele>386.0</ele><time>2026-05-01T11:29:02.275Z</time></trkpt><trkpt lat="46.1385803" lon="12.2068637"><ele>386.75</ele><time>2026-05-01T11:29:04.269Z</time></trkpt><trkpt lat="46.1385087" lon="12.2067389"><ele>387.5</ele><time>2026-05-01T11:29:06.27Z</time></trkpt><trkpt lat="46.138436" lon="12.2066134"><ele>388.25</ele><time>2026-05-01T11:29:08.272Z</time></trkpt><trkpt lat="46.1383605" lon="12.2064926"><ele>389.0</ele><time>2026-05-01T11:29:10.263Z</time></trkpt><trkpt lat="46.1382815" lon="12.2063637"><ele>390.0</ele><time>2026-05-01T11:29:12.273Z</time></trkpt><trkpt lat="46.1382025" lon="12.2062329"><ele>391.0</ele><time>2026-05-01T11:29:14.274Z</time></trkpt><trkpt lat="46.1381236" lon="12.2061057"><ele>392.0</ele><time>2026-05-01T11:29:16.273Z</time></trkpt><trkpt lat="46.1380488" lon="12.2059745"><ele>393.0</ele><time>2026-05-01T11:29:18.271Z</time></trkpt><trkpt lat="46.1379802" lon="12.2058431"><ele>393.0</ele><time>2026-05-01T11:29:20.269Z</time></trkpt><trkpt lat="46.1379145" lon="12.2057186"><ele>393.0</ele><time>2026-05-01T11:29:22.269Z</time></trkpt><trkpt lat="46.1378514" lon="12.2055944"><ele>393.0</ele><time>2026-05-01T11:29:24.272Z</time></trkpt><trkpt lat="46.1377965" lon="12.2054618"><ele>393.0</ele><time>2026-05-01T11:29:26.272Z</time></trkpt><trkpt lat="46.1377336" lon="12.2053324"><ele>393.0</ele><time>2026-05-01T11:29:28.271Z</time></trkpt><trkpt lat="46.1376669" lon="12.2051944"><ele>393.0</ele><time>2026-05-01T11:29:30.27Z</time></trkpt><trkpt lat="46.1376049" lon="12.2050625"><ele>393.0</ele><time>2026-05-01T11:29:32.274Z</time></trkpt><trkpt lat="46.1375425" lon="12.2049364"><ele>393.0</ele><time>2026-05-01T11:29:34.269Z</time></trkpt><trkpt lat="46.1374856" lon="12.2048152"><ele>393.0</ele><time>2026-05-01T11:29:36.262Z</time></trkpt><trkpt lat="46.1374314" lon="12.2046845"><ele>393.0</ele><time>2026-05-01T11:29:38.276Z</time></trkpt><trkpt lat="46.1373754" lon="12.2045585"><ele>393.0</ele><time>2026-05-01T11:29:40.276Z</time></trkpt><trkpt lat="46.1373148" lon="12.204434"><ele>393.0</ele><time>2026-05-01T11:29:42.255Z</time></trkpt><trkpt lat="46.1372617" lon="12.2043117"><ele>393.0</ele><time>2026-05-01T11:29:44.272Z</time></trkpt><trkpt lat="46.1371996" lon="12.2041897"><ele>393.0</ele><time>2026-05-01T11:29:46.277Z</time></trkpt><trkpt lat="46.1371367" lon="12.2040772"><ele>393.0</ele><time>2026-05-01T11:29:48.271Z</time></trkpt><trkpt lat="46.13708" lon="12.2039627"><ele>393.0</ele><time>2026-05-01T11:29:50.27Z</time></trkpt><trkpt lat="46.1370241" lon="12.2038488"><ele>393.0</ele><time>2026-05-01T11:29:52.272Z</time></trkpt><trkpt lat="46.1369717" lon="12.2037348"><ele>393.0</ele><time>2026-05-01T11:29:54.267Z</time></trkpt><trkpt lat="46.1369144" lon="12.2036148"><ele>393.0</ele><time>2026-05-01T11:29:56.27Z</time></trkpt><trkpt lat="46.1368586" lon="12.2034941"><ele>393.0</ele><time>2026-05-01T11:29:58.269Z</time></trkpt><trkpt lat="46.1367985" lon="12.2033786"><ele>393.0</ele><time>2026-05-01T11:30:00.265Z</time></trkpt><trkpt lat="46.1367422" lon="12.2032606"><ele>393.0</ele><time>2026-05-01T11:30:02.267Z</time></trkpt><trkpt lat="46.1366814" lon="12.2031454"><ele>393.0</ele><time>2026-05-01T11:30:04.271Z</time></trkpt><trkpt lat="46.1366241" lon="12.2030272"><ele>393.0</ele><time>2026-05-01T11:30:06.271Z</time></trkpt><trkpt lat="46.136569" lon="12.2029019"><ele>393.0</ele><time>2026-05-01T11:30:08.266Z</time></trkpt><trkpt lat="46.1365106" lon="12.2027888"><ele>393.2</ele><time>2026-05-01T11:30:10.265Z</time></trkpt><trkpt lat="46.1364598" lon="12.2026757"><ele>393.4</ele><time>2026-05-01T11:30:12.268Z</time></trkpt><trkpt lat="46.1364047" lon="12.202554"><ele>393.59999999999997</ele><time>2026-05-01T11:30:14.268Z</time></trkpt><trkpt lat="46.1363506" lon="12.2024301"><ele>393.79999999999995</ele><time>2026-05-01T11:30:16.263Z</time></trkpt><trkpt lat="46.1362919" lon="12.2023124"><ele>394.0</ele><time>2026-05-01T11:30:18.274Z</time></trkpt><trkpt lat="46.136234" lon="12.2021944"><ele>394.0</ele><time>2026-05-01T11:30:20.263Z</time></trkpt><trkpt lat="46.1361802" lon="12.2020848"><ele>394.0</ele><time>2026-05-01T11:30:22.272Z</time></trkpt><trkpt lat="46.1361226" lon="12.2019726"><ele>394.0</ele><time>2026-05-01T11:30:24.283Z</time></trkpt><trkpt lat="46.1360613" lon="12.2018513"><ele>394.0</ele><time>2026-05-01T11:30:26.268Z</time></trkpt><trkpt lat="46.1359952" lon="12.2017212"><ele>394.0</ele><time>2026-05-01T11:30:28.268Z</time></trkpt><trkpt lat="46.1359312" lon="12.2016052"><ele>393.79999999999995</ele><time>2026-05-01T11:30:30.269Z</time></trkpt><trkpt lat="46.1358661" lon="12.2014729"><ele>393.59999999999997</ele><time>2026-05-01T11:30:32.273Z</time></trkpt><trkpt lat="46.1358056" lon="12.2013422"><ele>393.4</ele><time>2026-05-01T11:30:34.272Z</time></trkpt><trkpt lat="46.1357402" lon="12.2012099"><ele>393.2</ele><time>2026-05-01T11:30:36.266Z</time></trkpt><trkpt lat="46.1356746" lon="12.2010841"><ele>393.0</ele><time>2026-05-01T11:30:38.271Z</time></trkpt><trkpt lat="46.135623" lon="12.200965"><ele>392.59999999999997</ele><time>2026-05-01T11:30:40.272Z</time></trkpt><trkpt lat="46.1355657" lon="12.2008674"><ele>392.2</ele><time>2026-05-01T11:30:42.265Z</time></trkpt><trkpt lat="46.1355196" lon="12.200759"><ele>391.8</ele><time>2026-05-01T11:30:44.259Z</time></trkpt><trkpt lat="46.1354767" lon="12.2006441"><ele>391.4</ele><time>2026-05-01T11:30:46.264Z</time></trkpt><trkpt lat="46.135454" lon="12.2005221"><ele>391.0</ele><time>2026-05-01T11:30:48.265Z</time></trkpt><trkpt lat="46.1354071" lon="12.2003967"><ele>390.6</ele><time>2026-05-01T11:30:50.273Z</time></trkpt><trkpt lat="46.1353572" lon="12.2002703"><ele>390.20000000000005</ele><time>2026-05-01T11:30:52.261Z</time></trkpt><trkpt lat="46.1353092" lon="12.2001446"><ele>389.79999999999995</ele><time>2026-05-01T11:30:54.267Z</time></trkpt><trkpt lat="46.1352575" lon="12.2000068"><ele>389.4</ele><time>2026-05-01T11:30:56.264Z</time></trkpt><trkpt lat="46.1352072" lon="12.1998798"><ele>389.0</ele><time>2026-05-01T11:30:58.267Z</time></trkpt><trkpt lat="46.1351503" lon="12.1997566"><ele>388.6</ele><time>2026-05-01T11:31:00.275Z</time></trkpt><trkpt lat="46.1350966" lon="12.1996218"><ele>388.2</ele><time>2026-05-01T11:31:02.267Z</time></trkpt><trkpt lat="46.1350464" lon="12.1994893"><ele>387.8</ele><time>2026-05-01T11:31:04.272Z</time></trkpt><trkpt lat="46.1349979" lon="12.1993659"><ele>387.40000000000003</ele><time>2026-05-01T11:31:06.272Z</time></trkpt><trkpt lat="46.1349453" lon="12.199239"><ele>387.0</ele><time>2026-05-01T11:31:08.27Z</time></trkpt><trkpt lat="46.134902" lon="12.1991025"><ele>386.20000000000005</ele><time>2026-05-01T11:31:10.269Z</time></trkpt><trkpt lat="46.1348599" lon="12.1989764"><ele>385.4</ele><time>2026-05-01T11:31:12.269Z</time></trkpt><trkpt lat="46.1348184" lon="12.1988348"><ele>384.6</ele><time>2026-05-01T11:31:14.272Z</time></trkpt><trkpt lat="46.134762" lon="12.1986944"><ele>383.79999999999995</ele><time>2026-05-01T11:31:16.276Z</time></trkpt><trkpt lat="46.1346988" lon="12.1985506"><ele>383.0</ele><time>2026-05-01T11:31:18.262Z</time></trkpt><trkpt lat="46.1346454" lon="12.198407"><ele>383.0</ele><time>2026-05-01T11:31:20.262Z</time></trkpt><trkpt lat="46.1345904" lon="12.1982655"><ele>383.0</ele><time>2026-05-01T11:31:22.271Z</time></trkpt><trkpt lat="46.1345232" lon="12.1981359"><ele>383.0</ele><time>2026-05-01T11:31:24.27Z</time></trkpt><trkpt lat="46.1344641" lon="12.1980007"><ele>383.0</ele><time>2026-05-01T11:31:26.268Z</time></trkpt><trkpt lat="46.1344121" lon="12.1978798"><ele>383.0</ele><time>2026-05-01T11:31:28.268Z</time></trkpt><trkpt lat="46.134291" lon="12.1977561"><ele>383.1666666666667</ele><time>2026-05-01T11:31:31.269Z</time></trkpt><trkpt lat="46.1342213" lon="12.1976552"><ele>383.33333333333337</ele><time>2026-05-01T11:31:33.272Z</time></trkpt><trkpt lat="46.1341481" lon="12.1975875"><ele>383.5</ele><time>2026-05-01T11:31:35.261Z</time></trkpt><trkpt lat="46.1340918" lon="12.1976474"><ele>383.6666666666667</ele><time>2026-05-01T11:31:38.27Z</time></trkpt><trkpt lat="46.1340287" lon="12.1975546"><ele>383.8333333333333</ele><time>2026-05-01T11:31:42.274Z</time></trkpt><trkpt lat="46.1339754" lon="12.1974783"><ele>384.0</ele><time>2026-05-01T11:31:44.272Z</time></trkpt><trkpt lat="46.1339173" lon="12.1973932"><ele>383.5</ele><time>2026-05-01T11:31:46.266Z</time></trkpt><trkpt lat="46.1338576" lon="12.1973038"><ele>383.0</ele><time>2026-05-01T11:31:48.271Z</time></trkpt><trkpt lat="46.1337986" lon="12.197216"><ele>382.5</ele><time>2026-05-01T11:31:50.265Z</time></trkpt><trkpt lat="46.1337437" lon="12.1971267"><ele>382.0</ele><time>2026-05-01T11:31:52.276Z</time></trkpt><trkpt lat="46.1336894" lon="12.1970435"><ele>381.5</ele><time>2026-05-01T11:31:54.271Z</time></trkpt><trkpt lat="46.1336295" lon="12.1969662"><ele>381.0</ele><time>2026-05-01T11:31:56.274Z</time></trkpt><trkpt lat="46.133565" lon="12.1968868"><ele>381.0</ele><time>2026-05-01T11:31:58.274Z</time></trkpt><trkpt lat="46.1334958" lon="12.196813"><ele>381.0</ele><time>2026-05-01T11:32:00.274Z</time></trkpt><trkpt lat="46.1334207" lon="12.1967413"><ele>381.0</ele><time>2026-05-01T11:32:02.264Z</time></trkpt><trkpt lat="46.133345" lon="12.1966747"><ele>381.0</ele><time>2026-05-01T11:32:04.27Z</time></trkpt><trkpt lat="46.1332626" lon="12.1966156"><ele>381.0</ele><time>2026-05-01T11:32:06.27Z</time></trkpt><trkpt lat="46.133181" lon="12.1965646"><ele>381.0</ele><time>2026-05-01T11:32:08.267Z</time></trkpt><trkpt lat="46.1330956" lon="12.1965211"><ele>381.0</ele><time>2026-05-01T11:32:10.298Z</time></trkpt><trkpt lat="46.1330045" lon="12.19647"><ele>381.0</ele><time>2026-05-01T11:32:12.268Z</time></trkpt><trkpt lat="46.132911" lon="12.196428"><ele>381.0</ele><time>2026-05-01T11:32:14.269Z</time></trkpt><trkpt lat="46.1328139" lon="12.1963765"><ele>381.0</ele><time>2026-05-01T11:32:16.262Z</time></trkpt><trkpt lat="46.1327086" lon="12.1963277"><ele>381.0</ele><time>2026-05-01T11:32:18.274Z</time></trkpt><trkpt lat="46.1326039" lon="12.1962727"><ele>381.0</ele><time>2026-05-01T11:32:20.276Z</time></trkpt><trkpt lat="46.1324961" lon="12.1962167"><ele>381.0</ele><time>2026-05-01T11:32:22.267Z</time></trkpt><trkpt lat="46.1323862" lon="12.1961711"><ele>381.0</ele><time>2026-05-01T11:32:24.273Z</time></trkpt><trkpt lat="46.1322904" lon="12.1961245"><ele>381.0</ele><time>2026-05-01T11:32:26.266Z</time></trkpt><trkpt lat="46.1321974" lon="12.196032"><ele>381.0</ele><time>2026-05-01T11:32:28.274Z</time></trkpt><trkpt lat="46.1320999" lon="12.1959514"><ele>381.0</ele><time>2026-05-01T11:32:30.277Z</time></trkpt><trkpt lat="46.1320095" lon="12.195878"><ele>381.0</ele><time>2026-05-01T11:32:32.276Z</time></trkpt><trkpt lat="46.1319086" lon="12.1957947"><ele>381.0</ele><time>2026-05-01T11:32:34.269Z</time></trkpt><trkpt lat="46.1318053" lon="12.1957176"><ele>381.0</ele><time>2026-05-01T11:32:36.264Z</time></trkpt><trkpt lat="46.1317031" lon="12.1956337"><ele>381.0</ele><time>2026-05-01T11:32:38.276Z</time></trkpt><trkpt lat="46.1315977" lon="12.1955585"><ele>381.0</ele><time>2026-05-01T11:32:40.275Z</time></trkpt><trkpt lat="46.1314886" lon="12.1954794"><ele>381.0</ele><time>2026-05-01T11:32:42.271Z</time></trkpt><trkpt lat="46.1313845" lon="12.1953957"><ele>381.0</ele><time>2026-05-01T11:32:44.273Z</time></trkpt><trkpt lat="46.1312818" lon="12.195318"><ele>381.25</ele><time>2026-05-01T11:32:46.271Z</time></trkpt><trkpt lat="46.1311806" lon="12.1952344"><ele>381.5</ele><time>2026-05-01T11:32:48.27Z</time></trkpt><trkpt lat="46.1310762" lon="12.1951599"><ele>381.75</ele><time>2026-05-01T11:32:50.267Z</time></trkpt><trkpt lat="46.1309732" lon="12.195082"><ele>382.0</ele><time>2026-05-01T11:32:52.272Z</time></trkpt><trkpt lat="46.1308688" lon="12.1950073"><ele>382.0</ele><time>2026-05-01T11:32:54.274Z</time></trkpt><trkpt lat="46.1307672" lon="12.1949297"><ele>382.0</ele><time>2026-05-01T11:32:56.269Z</time></trkpt><trkpt lat="46.1306643" lon="12.1948526"><ele>382.0</ele><time>2026-05-01T11:32:58.267Z</time></trkpt><trkpt lat="46.1305598" lon="12.1947719"><ele>382.0</ele><time>2026-05-01T11:33:00.264Z</time></trkpt><trkpt lat="46.1304535" lon="12.1946928"><ele>381.5714285714286</ele><time>2026-05-01T11:33:02.274Z</time></trkpt><trkpt lat="46.1303952" lon="12.1946575"><ele>381.1428571428571</ele><time>2026-05-01T11:33:03.273Z</time></trkpt><trkpt lat="46.1303351" lon="12.1946196"><ele>380.7142857142857</ele><time>2026-05-01T11:33:04.271Z</time></trkpt><trkpt lat="46.1302762" lon="12.1945731"><ele>380.28571428571433</ele><time>2026-05-01T11:33:05.271Z</time></trkpt><trkpt lat="46.1302175" lon="12.1945318"><ele>379.8571428571429</ele><time>2026-05-01T11:33:06.267Z</time></trkpt><trkpt lat="46.1301603" lon="12.1944824"><ele>379.42857142857144</ele><time>2026-05-01T11:33:07.272Z</time></trkpt><trkpt lat="46.1300977" lon="12.1944367"><ele>379.0</ele><time>2026-05-01T11:33:08.269Z</time></trkpt><trkpt lat="46.1300364" lon="12.194391"><ele>379.0</ele><time>2026-05-01T11:33:09.275Z</time></trkpt><trkpt lat="46.1299266" lon="12.1943094"><ele>379.0</ele><time>2026-05-01T11:33:11.265Z</time></trkpt><trkpt lat="46.1298197" lon="12.1942244"><ele>379.0</ele><time>2026-05-01T11:33:13.276Z</time></trkpt><trkpt lat="46.1297136" lon="12.1941423"><ele>379.0</ele><time>2026-05-01T11:33:15.272Z</time></trkpt><trkpt lat="46.1296224" lon="12.1940703"><ele>379.3333333333333</ele><time>2026-05-01T11:33:17.266Z</time></trkpt><trkpt lat="46.1295352" lon="12.1940048"><ele>379.66666666666663</ele><time>2026-05-01T11:33:19.273Z</time></trkpt><trkpt lat="46.1294527" lon="12.1939501"><ele>380.0</ele><time>2026-05-01T11:33:21.275Z</time></trkpt><trkpt lat="46.1293763" lon="12.1938977"><ele>380.3333333333333</ele><time>2026-05-01T11:33:23.264Z</time></trkpt><trkpt lat="46.1293046" lon="12.1938399"><ele>380.6666666666667</ele><time>2026-05-01T11:33:25.275Z</time></trkpt><trkpt lat="46.129236" lon="12.1937719"><ele>381.0</ele><time>2026-05-01T11:33:27.273Z</time></trkpt><trkpt lat="46.1291666" lon="12.1937054"><ele>381.0</ele><time>2026-05-01T11:33:29.269Z</time></trkpt><trkpt lat="46.1291" lon="12.1936249"><ele>381.0</ele><time>2026-05-01T11:33:31.275Z</time></trkpt><trkpt lat="46.1290347" lon="12.1935406"><ele>381.0</ele><time>2026-05-01T11:33:33.275Z</time></trkpt><trkpt lat="46.1289678" lon="12.1934586"><ele>381.0</ele><time>2026-05-01T11:33:35.272Z</time></trkpt><trkpt lat="46.1289007" lon="12.1933759"><ele>381.0</ele><time>2026-05-01T11:33:37.376Z</time></trkpt><trkpt lat="46.128838" lon="12.1932899"><ele>381.0</ele><time>2026-05-01T11:33:39.266Z</time></trkpt><trkpt lat="46.1287746" lon="12.1931972"><ele>381.0</ele><time>2026-05-01T11:33:41.276Z</time></trkpt><trkpt lat="46.1287082" lon="12.1931086"><ele>381.0</ele><time>2026-05-01T11:33:43.271Z</time></trkpt><trkpt lat="46.1286361" lon="12.1930343"><ele>381.0</ele><time>2026-05-01T11:33:45.275Z</time></trkpt><trkpt lat="46.1285691" lon="12.1929582"><ele>381.0</ele><time>2026-05-01T11:33:47.271Z</time></trkpt><trkpt lat="46.1284976" lon="12.1928883"><ele>381.0</ele><time>2026-05-01T11:33:49.275Z</time></trkpt><trkpt lat="46.1284311" lon="12.1928083"><ele>381.0</ele><time>2026-05-01T11:33:51.264Z</time></trkpt><trkpt lat="46.1283629" lon="12.1927301"><ele>381.0</ele><time>2026-05-01T11:33:53.272Z</time></trkpt><trkpt lat="46.1283018" lon="12.1926441"><ele>381.0</ele><time>2026-05-01T11:33:55.278Z</time></trkpt><trkpt lat="46.1282418" lon="12.1925589"><ele>381.0</ele><time>2026-05-01T11:33:57.27Z</time></trkpt><trkpt lat="46.1281761" lon="12.1924703"><ele>381.0</ele><time>2026-05-01T11:33:59.275Z</time></trkpt><trkpt lat="46.1281124" lon="12.1923882"><ele>381.0</ele><time>2026-05-01T11:34:01.273Z</time></trkpt><trkpt lat="46.1280455" lon="12.192304"><ele>381.0</ele><time>2026-05-01T11:34:03.272Z</time></trkpt><trkpt lat="46.1279799" lon="12.1922128"><ele>381.0</ele><time>2026-05-01T11:34:05.261Z</time></trkpt><trkpt lat="46.1279144" lon="12.1921197"><ele>381.0</ele><time>2026-05-01T11:34:07.266Z</time></trkpt><trkpt lat="46.1278432" lon="12.1920293"><ele>381.0</ele><time>2026-05-01T11:34:09.278Z</time></trkpt><trkpt lat="46.1277825" lon="12.1919399"><ele>381.0</ele><time>2026-05-01T11:34:11.274Z</time></trkpt><trkpt lat="46.1277215" lon="12.1918374"><ele>381.0</ele><time>2026-05-01T11:34:13.272Z</time></trkpt><trkpt lat="46.1276639" lon="12.1917326"><ele>381.0</ele><time>2026-05-01T11:34:15.274Z</time></trkpt><trkpt lat="46.1276098" lon="12.1916252"><ele>381.0</ele><time>2026-05-01T11:34:17.26Z</time></trkpt><trkpt lat="46.1275496" lon="12.1915409"><ele>381.0</ele><time>2026-05-01T11:34:19.274Z</time></trkpt><trkpt lat="46.1274926" lon="12.1914423"><ele>381.0</ele><time>2026-05-01T11:34:21.272Z</time></trkpt><trkpt lat="46.1274333" lon="12.1913415"><ele>381.0</ele><time>2026-05-01T11:34:23.268Z</time></trkpt><trkpt lat="46.1273729" lon="12.1912455"><ele>381.0</ele><time>2026-05-01T11:34:25.266Z</time></trkpt><trkpt lat="46.1273135" lon="12.191146"><ele>381.0</ele><time>2026-05-01T11:34:27.277Z</time></trkpt><trkpt lat="46.1272493" lon="12.191052"><ele>381.0</ele><time>2026-05-01T11:34:29.271Z</time></trkpt><trkpt lat="46.1271899" lon="12.1909592"><ele>381.0</ele><time>2026-05-01T11:34:31.268Z</time></trkpt><trkpt lat="46.1271291" lon="12.190858"><ele>381.0</ele><time>2026-05-01T11:34:33.265Z</time></trkpt><trkpt lat="46.1270691" lon="12.1907603"><ele>381.0</ele><time>2026-05-01T11:34:35.261Z</time></trkpt><trkpt lat="46.1270107" lon="12.1906584"><ele>381.0</ele><time>2026-05-01T11:34:37.258Z</time></trkpt><trkpt lat="46.1269579" lon="12.1905602"><ele>381.0</ele><time>2026-05-01T11:34:39.26Z</time></trkpt><trkpt lat="46.1268996" lon="12.1904694"><ele>381.0</ele><time>2026-05-01T11:34:41.265Z</time></trkpt><trkpt lat="46.1268416" lon="12.1903826"><ele>381.0</ele><time>2026-05-01T11:34:43.263Z</time></trkpt><trkpt lat="46.1267747" lon="12.1903034"><ele>381.0</ele><time>2026-05-01T11:34:45.267Z</time></trkpt><trkpt lat="46.1267137" lon="12.1902208"><ele>381.0</ele><time>2026-05-01T11:34:47.262Z</time></trkpt><trkpt lat="46.1266642" lon="12.1901426"><ele>381.0</ele><time>2026-05-01T11:34:49.262Z</time></trkpt><trkpt lat="46.1266165" lon="12.1900665"><ele>381.0</ele><time>2026-05-01T11:34:51.265Z</time></trkpt><trkpt lat="46.1265624" lon="12.1899819"><ele>381.0</ele><time>2026-05-01T11:34:53.266Z</time></trkpt><trkpt lat="46.1265033" lon="12.189887"><ele>381.0</ele><time>2026-05-01T11:34:55.262Z</time></trkpt><trkpt lat="46.1264411" lon="12.1897849"><ele>381.0</ele><time>2026-05-01T11:34:57.262Z</time></trkpt><trkpt lat="46.1263747" lon="12.1896907"><ele>381.0</ele><time>2026-05-01T11:34:59.262Z</time></trkpt><trkpt lat="46.1263105" lon="12.1896034"><ele>381.3333333333333</ele><time>2026-05-01T11:35:01.264Z</time></trkpt><trkpt lat="46.1262492" lon="12.1895081"><ele>381.6666666666667</ele><time>2026-05-01T11:35:03.264Z</time></trkpt><trkpt lat="46.1261897" lon="12.189409"><ele>382.0</ele><time>2026-05-01T11:35:05.259Z</time></trkpt><trkpt lat="46.1261327" lon="12.1893066"><ele>382.33333333333337</ele><time>2026-05-01T11:35:07.261Z</time></trkpt><trkpt lat="46.1260843" lon="12.1892086"><ele>382.6666666666667</ele><time>2026-05-01T11:35:09.262Z</time></trkpt><trkpt lat="46.1260331" lon="12.1891208"><ele>383.0</ele><time>2026-05-01T11:35:11.267Z</time></trkpt><trkpt lat="46.1259809" lon="12.18904"><ele>383.0</ele><time>2026-05-01T11:35:13.263Z</time></trkpt><trkpt lat="46.1259317" lon="12.1889558"><ele>383.0</ele><time>2026-05-01T11:35:15.263Z</time></trkpt><trkpt lat="46.1258773" lon="12.188869"><ele>383.0</ele><time>2026-05-01T11:35:17.264Z</time></trkpt><trkpt lat="46.1258229" lon="12.1887834"><ele>383.0</ele><time>2026-05-01T11:35:19.273Z</time></trkpt><trkpt lat="46.125774" lon="12.1886921"><ele>383.0</ele><time>2026-05-01T11:35:21.271Z</time></trkpt><trkpt lat="46.1257256" lon="12.1886"><ele>383.0</ele><time>2026-05-01T11:35:23.271Z</time></trkpt><trkpt lat="46.1256753" lon="12.1885002"><ele>383.4</ele><time>2026-05-01T11:35:25.275Z</time></trkpt><trkpt lat="46.1256283" lon="12.1883924"><ele>383.79999999999995</ele><time>2026-05-01T11:35:27.274Z</time></trkpt><trkpt lat="46.1255798" lon="12.1882741"><ele>384.2</ele><time>2026-05-01T11:35:29.275Z</time></trkpt><trkpt lat="46.1255306" lon="12.1881607"><ele>384.6</ele><time>2026-05-01T11:35:31.275Z</time></trkpt><trkpt lat="46.125485" lon="12.1880464"><ele>385.0</ele><time>2026-05-01T11:35:33.271Z</time></trkpt><trkpt lat="46.1254372" lon="12.1879402"><ele>385.00000000000006</ele><time>2026-05-01T11:35:35.265Z</time></trkpt><trkpt lat="46.1253933" lon="12.1878349"><ele>385.0</ele><time>2026-05-01T11:35:37.273Z</time></trkpt><trkpt lat="46.1253512" lon="12.1877359"><ele>385.0</ele><time>2026-05-01T11:35:39.277Z</time></trkpt><trkpt lat="46.1253019" lon="12.1876282"><ele>385.0</ele><time>2026-05-01T11:35:41.274Z</time></trkpt><trkpt lat="46.1252525" lon="12.1875173"><ele>385.00000000000006</ele><time>2026-05-01T11:35:43.269Z</time></trkpt><trkpt lat="46.1252138" lon="12.1873938"><ele>385.0</ele><time>2026-05-01T11:35:45.275Z</time></trkpt><trkpt lat="46.1251794" lon="12.1872583"><ele>384.8</ele><time>2026-05-01T11:35:47.271Z</time></trkpt><trkpt lat="46.1251338" lon="12.1871202"><ele>384.6</ele><time>2026-05-01T11:35:49.267Z</time></trkpt><trkpt lat="46.1250871" lon="12.1869794"><ele>384.4</ele><time>2026-05-01T11:35:51.276Z</time></trkpt><trkpt lat="46.1250354" lon="12.1868342"><ele>384.2</ele><time>2026-05-01T11:35:53.266Z</time></trkpt><trkpt lat="46.1249851" lon="12.1866856"><ele>384.0</ele><time>2026-05-01T11:35:55.273Z</time></trkpt><trkpt lat="46.1249294" lon="12.1865241"><ele>384.1666666666667</ele><time>2026-05-01T11:35:57.264Z</time></trkpt><trkpt lat="46.1249023" lon="12.1864379"><ele>384.33333333333337</ele><time>2026-05-01T11:35:58.271Z</time></trkpt><trkpt lat="46.1248737" lon="12.1863496"><ele>384.5</ele><time>2026-05-01T11:35:59.273Z</time></trkpt><trkpt lat="46.1248405" lon="12.1862626"><ele>384.6666666666667</ele><time>2026-05-01T11:36:00.278Z</time></trkpt><trkpt lat="46.1247804" lon="12.1861237"><ele>384.83333333333337</ele><time>2026-05-01T11:36:02.272Z</time></trkpt><trkpt lat="46.1247537" lon="12.1860138"><ele>385.0</ele><time>2026-05-01T11:36:04.284Z</time></trkpt><trkpt lat="46.1248171" lon="12.1859705"><ele>385.0</ele><time>2026-05-01T11:36:06.268Z</time></trkpt><trkpt lat="46.12488" lon="12.1859334"><ele>385.0</ele><time>2026-05-01T11:36:08.272Z</time></trkpt><trkpt lat="46.124948" lon="12.1858889"><ele>385.0</ele><time>2026-05-01T11:36:10.278Z</time></trkpt><trkpt lat="46.1250102" lon="12.1858299"><ele>385.0</ele><time>2026-05-01T11:36:12.274Z</time></trkpt><trkpt lat="46.1250694" lon="12.185765"><ele>385.0</ele><time>2026-05-01T11:36:14.275Z</time></trkpt><trkpt lat="46.1250683" lon="12.1856611"><ele>385.0</ele><time>2026-05-01T11:36:16.271Z</time></trkpt><trkpt lat="46.1250005" lon="12.1855938"><ele>385.0</ele><time>2026-05-01T11:36:18.276Z</time></trkpt><trkpt lat="46.1249281" lon="12.1855357"><ele>384.83333333333337</ele><time>2026-05-01T11:36:20.276Z</time></trkpt><trkpt lat="46.1248551" lon="12.1854801"><ele>384.6666666666667</ele><time>2026-05-01T11:36:22.276Z</time></trkpt><trkpt lat="46.1247817" lon="12.1854165"><ele>384.5</ele><time>2026-05-01T11:36:24.27Z</time></trkpt><trkpt lat="46.1247099" lon="12.1853543"><ele>384.33333333333337</ele><time>2026-05-01T11:36:26.274Z</time></trkpt><trkpt lat="46.1246353" lon="12.1852876"><ele>384.1666666666667</ele><time>2026-05-01T11:36:28.265Z</time></trkpt><trkpt lat="46.1245533" lon="12.1852046"><ele>384.0</ele><time>2026-05-01T11:36:30.275Z</time></trkpt><trkpt lat="46.1244705" lon="12.1851399"><ele>384.0</ele><time>2026-05-01T11:36:32.274Z</time></trkpt><trkpt lat="46.1243859" lon="12.1850644"><ele>384.0</ele><time>2026-05-01T11:36:34.282Z</time></trkpt><trkpt lat="46.1243016" lon="12.184992"><ele>384.0</ele><time>2026-05-01T11:36:36.271Z</time></trkpt><trkpt lat="46.1242164" lon="12.1849218"><ele>384.0</ele><time>2026-05-01T11:36:38.264Z</time></trkpt><trkpt lat="46.1241311" lon="12.184849"><ele>384.0</ele><time>2026-05-01T11:36:40.269Z</time></trkpt><trkpt lat="46.1240468" lon="12.1847761"><ele>384.0</ele><time>2026-05-01T11:36:42.264Z</time></trkpt><trkpt lat="46.123959" lon="12.1847037"><ele>384.0</ele><time>2026-05-01T11:36:44.262Z</time></trkpt><trkpt lat="46.1238772" lon="12.1846338"><ele>384.0</ele><time>2026-05-01T11:36:46.275Z</time></trkpt><trkpt lat="46.1237989" lon="12.1845597"><ele>384.0</ele><time>2026-05-01T11:36:48.271Z</time></trkpt><trkpt lat="46.1237179" lon="12.1844964"><ele>384.0</ele><time>2026-05-01T11:36:50.28Z</time></trkpt><trkpt lat="46.1236342" lon="12.1844288"><ele>384.0</ele><time>2026-05-01T11:36:52.278Z</time></trkpt><trkpt lat="46.1235508" lon="12.1843572"><ele>384.0</ele><time>2026-05-01T11:36:54.275Z</time></trkpt><trkpt lat="46.1234661" lon="12.1842817"><ele>384.0</ele><time>2026-05-01T11:36:56.274Z</time></trkpt><trkpt lat="46.1233839" lon="12.1842169"><ele>384.0</ele><time>2026-05-01T11:36:58.277Z</time></trkpt><trkpt lat="46.1233001" lon="12.1841485"><ele>384.0</ele><time>2026-05-01T11:37:00.27Z</time></trkpt><trkpt lat="46.1232119" lon="12.1840719"><ele>384.4</ele><time>2026-05-01T11:37:02.278Z</time></trkpt><trkpt lat="46.1231244" lon="12.1840084"><ele>384.79999999999995</ele><time>2026-05-01T11:37:04.271Z</time></trkpt><trkpt lat="46.1230381" lon="12.1839349"><ele>385.20000000000005</ele><time>2026-05-01T11:37:06.279Z</time></trkpt><trkpt lat="46.1229514" lon="12.1838603"><ele>385.6</ele><time>2026-05-01T11:37:08.261Z</time></trkpt><trkpt lat="46.1228614" lon="12.1837855"><ele>386.0</ele><time>2026-05-01T11:37:10.264Z</time></trkpt><trkpt lat="46.1227667" lon="12.1837122"><ele>386.0</ele><time>2026-05-01T11:37:12.271Z</time></trkpt><trkpt lat="46.1226702" lon="12.1836312"><ele>386.0</ele><time>2026-05-01T11:37:14.277Z</time></trkpt><trkpt lat="46.1225788" lon="12.1835518"><ele>386.0</ele><time>2026-05-01T11:37:16.27Z</time></trkpt><trkpt lat="46.1224919" lon="12.183491"><ele>386.0</ele><time>2026-05-01T11:37:18.272Z</time></trkpt><trkpt lat="46.1224032" lon="12.1834175"><ele>386.0</ele><time>2026-05-01T11:37:20.267Z</time></trkpt><trkpt lat="46.122316" lon="12.1833456"><ele>385.8333333333333</ele><time>2026-05-01T11:37:22.27Z</time></trkpt><trkpt lat="46.1222593" lon="12.1832731"><ele>385.66666666666663</ele><time>2026-05-01T11:37:24.273Z</time></trkpt><trkpt lat="46.1222701" lon="12.1831811"><ele>385.5</ele><time>2026-05-01T11:37:26.271Z</time></trkpt><trkpt lat="46.1223036" lon="12.1830504"><ele>385.33333333333337</ele><time>2026-05-01T11:37:29.262Z</time></trkpt><trkpt lat="46.1223274" lon="12.1829429"><ele>385.1666666666667</ele><time>2026-05-01T11:37:31.274Z</time></trkpt><trkpt lat="46.1223307" lon="12.182822"><ele>385.0</ele><time>2026-05-01T11:37:34.269Z</time></trkpt><trkpt lat="46.1222873" lon="12.1827495"><ele>385.0</ele><time>2026-05-01T11:37:36.274Z</time></trkpt><trkpt lat="46.1222296" lon="12.182686"><ele>385.0</ele><time>2026-05-01T11:37:38.271Z</time></trkpt><trkpt lat="46.1221666" lon="12.1826264"><ele>385.0</ele><time>2026-05-01T11:37:40.267Z</time></trkpt><trkpt lat="46.1221184" lon="12.1825566"><ele>385.0</ele><time>2026-05-01T11:37:42.268Z</time></trkpt><trkpt lat="46.1220681" lon="12.1824826"><ele>385.0</ele><time>2026-05-01T11:37:44.272Z</time></trkpt><trkpt lat="46.1220112" lon="12.1824186"><ele>385.0</ele><time>2026-05-01T11:37:46.265Z</time></trkpt><trkpt lat="46.1219499" lon="12.182376"><ele>385.0</ele><time>2026-05-01T11:37:48.269Z</time></trkpt><trkpt lat="46.1218946" lon="12.1823296"><ele>386.0</ele><time>2026-05-01T11:37:50.277Z</time></trkpt><trkpt lat="46.1218127" lon="12.1822752"><ele>387.0</ele><time>2026-05-01T11:37:53.276Z</time></trkpt><trkpt lat="46.1217537" lon="12.1822388"><ele>388.0</ele><time>2026-05-01T11:37:55.281Z</time></trkpt><trkpt lat="46.1216943" lon="12.1821896"><ele>389.0</ele><time>2026-05-01T11:37:57.268Z</time></trkpt><trkpt lat="46.1216356" lon="12.18215"><ele>390.0</ele><time>2026-05-01T11:37:59.281Z</time></trkpt><trkpt lat="46.1215728" lon="12.1821066"><ele>391.0</ele><time>2026-05-01T11:38:01.274Z</time></trkpt><trkpt lat="46.1215112" lon="12.1820613"><ele>392.0</ele><time>2026-05-01T11:38:03.267Z</time></trkpt><trkpt lat="46.1214518" lon="12.1820139"><ele>392.66666666666663</ele><time>2026-05-01T11:38:05.273Z</time></trkpt><trkpt lat="46.1213943" lon="12.1819576"><ele>393.3333333333333</ele><time>2026-05-01T11:38:07.28Z</time></trkpt><trkpt lat="46.121337" lon="12.1819002"><ele>394.0</ele><time>2026-05-01T11:38:09.275Z</time></trkpt><trkpt lat="46.1212815" lon="12.1818464"><ele>394.66666666666663</ele><time>2026-05-01T11:38:11.265Z</time></trkpt><trkpt lat="46.1212097" lon="12.1817731"><ele>395.3333333333333</ele><time>2026-05-01T11:38:14.272Z</time></trkpt><trkpt lat="46.1211484" lon="12.181698"><ele>396.0</ele><time>2026-05-01T11:38:17.275Z</time></trkpt><trkpt lat="46.1210915" lon="12.1816218"><ele>396.0</ele><time>2026-05-01T11:38:20.269Z</time></trkpt><trkpt lat="46.1210442" lon="12.1815507"><ele>396.0</ele><time>2026-05-01T11:38:23.265Z</time></trkpt><trkpt lat="46.1209968" lon="12.1814815"><ele>396.0</ele><time>2026-05-01T11:38:26.272Z</time></trkpt><trkpt lat="46.120943" lon="12.1814159"><ele>396.0</ele><time>2026-05-01T11:38:29.285Z</time></trkpt><trkpt lat="46.1208843" lon="12.1813548"><ele>396.0</ele><time>2026-05-01T11:38:32.273Z</time></trkpt><trkpt lat="46.1208225" lon="12.1812932"><ele>396.0</ele><time>2026-05-01T11:38:35.273Z</time></trkpt><trkpt lat="46.1207625" lon="12.1812396"><ele>396.0</ele><time>2026-05-01T11:38:38.284Z</time></trkpt><trkpt lat="46.1207053" lon="12.1811837"><ele>396.42857142857144</ele><time>2026-05-01T11:38:41.261Z</time></trkpt><trkpt lat="46.1206529" lon="12.1811328"><ele>396.85714285714283</ele><time>2026-05-01T11:38:44.283Z</time></trkpt><trkpt lat="46.1205984" lon="12.1810841"><ele>397.2857142857143</ele><time>2026-05-01T11:38:47.265Z</time></trkpt><trkpt lat="46.1205444" lon="12.1810326"><ele>397.7142857142857</ele><time>2026-05-01T11:38:50.274Z</time></trkpt><trkpt lat="46.1204896" lon="12.1809638"><ele>398.1428571428571</ele><time>2026-05-01T11:38:53.271Z</time></trkpt><trkpt lat="46.1204387" lon="12.1808859"><ele>398.57142857142856</ele><time>2026-05-01T11:38:57.272Z</time></trkpt><trkpt lat="46.1203948" lon="12.1808006"><ele>399.0</ele><time>2026-05-01T11:39:01.274Z</time></trkpt><trkpt lat="46.1203488" lon="12.1806982"><ele>399.2857142857143</ele><time>2026-05-01T11:39:05.277Z</time></trkpt><trkpt lat="46.1203188" lon="12.1806079"><ele>399.57142857142856</ele><time>2026-05-01T11:39:08.271Z</time></trkpt><trkpt lat="46.1202898" lon="12.1805016"><ele>399.8571428571429</ele><time>2026-05-01T11:39:11.272Z</time></trkpt><trkpt lat="46.120259" lon="12.1803867"><ele>400.1428571428571</ele><time>2026-05-01T11:39:14.272Z</time></trkpt><trkpt lat="46.1202392" lon="12.1802995"><ele>400.42857142857144</ele><time>2026-05-01T11:39:16.272Z</time></trkpt><trkpt lat="46.1202125" lon="12.1802115"><ele>400.7142857142857</ele><time>2026-05-01T11:39:18.263Z</time></trkpt><trkpt lat="46.1201853" lon="12.1801221"><ele>401.0</ele><time>2026-05-01T11:39:20.27Z</time></trkpt><trkpt lat="46.1201595" lon="12.180035"><ele>401.0</ele><time>2026-05-01T11:39:22.27Z</time></trkpt><trkpt lat="46.1201278" lon="12.1799096"><ele>401.0</ele><time>2026-05-01T11:39:25.279Z</time></trkpt><trkpt lat="46.1200917" lon="12.1797938"><ele>401.0</ele><time>2026-05-01T11:39:28.273Z</time></trkpt><trkpt lat="46.1200481" lon="12.1796795"><ele>401.0</ele><time>2026-05-01T11:39:31.277Z</time></trkpt><trkpt lat="46.1200048" lon="12.1795623"><ele>401.0</ele><time>2026-05-01T11:39:34.272Z</time></trkpt><trkpt lat="46.1199656" lon="12.1794404"><ele>401.16666666666663</ele><time>2026-05-01T11:39:37.28Z</time></trkpt><trkpt lat="46.1199375" lon="12.1793104"><ele>401.3333333333333</ele><time>2026-05-01T11:39:40.264Z</time></trkpt><trkpt lat="46.1199134" lon="12.1792236"><ele>401.5</ele><time>2026-05-01T11:39:42.267Z</time></trkpt><trkpt lat="46.1198903" lon="12.1791069"><ele>401.66666666666663</ele><time>2026-05-01T11:39:45.278Z</time></trkpt><trkpt lat="46.1198604" lon="12.1789881"><ele>401.8333333333333</ele><time>2026-05-01T11:39:47.278Z</time></trkpt><trkpt lat="46.1198411" lon="12.1788716"><ele>402.0</ele><time>2026-05-01T11:39:49.259Z</time></trkpt><trkpt lat="46.1198364" lon="12.1787694"><ele>402.57142857142856</ele><time>2026-05-01T11:39:51.285Z</time></trkpt><trkpt lat="46.1198628" lon="12.1786758"><ele>403.14285714285717</ele><time>2026-05-01T11:39:53.273Z</time></trkpt><trkpt lat="46.1198931" lon="12.1785831"><ele>403.7142857142857</ele><time>2026-05-01T11:39:55.275Z</time></trkpt><trkpt lat="46.1199283" lon="12.1784998"><ele>404.2857142857143</ele><time>2026-05-01T11:39:57.274Z</time></trkpt><trkpt lat="46.1199717" lon="12.1784272"><ele>404.8571428571429</ele><time>2026-05-01T11:39:59.273Z</time></trkpt><trkpt lat="46.1200223" lon="12.1783702"><ele>405.42857142857144</ele><time>2026-05-01T11:40:01.272Z</time></trkpt><trkpt lat="46.1200927" lon="12.178292"><ele>406.0</ele><time>2026-05-01T11:40:04.279Z</time></trkpt><trkpt lat="46.1201624" lon="12.178226"><ele>406.6666666666667</ele><time>2026-05-01T11:40:07.274Z</time></trkpt><trkpt lat="46.1202284" lon="12.1781742"><ele>407.33333333333337</ele><time>2026-05-01T11:40:10.278Z</time></trkpt><trkpt lat="46.1202995" lon="12.1781139"><ele>408.0</ele><time>2026-05-01T11:40:13.265Z</time></trkpt><trkpt lat="46.1203605" lon="12.1780469"><ele>408.66666666666663</ele><time>2026-05-01T11:40:16.281Z</time></trkpt><trkpt lat="46.120408" lon="12.177965"><ele>409.3333333333333</ele><time>2026-05-01T11:40:19.284Z</time></trkpt><trkpt lat="46.1204474" lon="12.1778784"><ele>410.0</ele><time>2026-05-01T11:40:22.272Z</time></trkpt><trkpt lat="46.1204797" lon="12.1777718"><ele>409.99999999999994</ele><time>2026-05-01T11:40:26.266Z</time></trkpt><trkpt lat="46.1205111" lon="12.177659"><ele>410.0</ele><time>2026-05-01T11:40:30.27Z</time></trkpt><trkpt lat="46.1205379" lon="12.1775476"><ele>410.0</ele><time>2026-05-01T11:40:34.256Z</time></trkpt><trkpt lat="46.1205695" lon="12.1774367"><ele>410.0</ele><time>2026-05-01T11:40:38.266Z</time></trkpt><trkpt lat="46.1205903" lon="12.1773458"><ele>409.99999999999994</ele><time>2026-05-01T11:40:41.275Z</time></trkpt><trkpt lat="46.1206238" lon="12.1772388"><ele>410.0</ele><time>2026-05-01T11:40:45.284Z</time></trkpt><trkpt lat="46.1206576" lon="12.1771366"><ele>410.8571428571429</ele><time>2026-05-01T11:40:49.291Z</time></trkpt><trkpt lat="46.1207027" lon="12.1770388"><ele>411.71428571428567</ele><time>2026-05-01T11:40:53.283Z</time></trkpt><trkpt lat="46.1207402" lon="12.1769633"><ele>412.57142857142856</ele><time>2026-05-01T11:40:56.282Z</time></trkpt><trkpt lat="46.1207928" lon="12.1768752"><ele>413.42857142857144</ele><time>2026-05-01T11:41:00.272Z</time></trkpt><trkpt lat="46.1208397" lon="12.1767844"><ele>414.28571428571433</ele><time>2026-05-01T11:41:04.269Z</time></trkpt><trkpt lat="46.1208034" lon="12.1767095"><ele>415.1428571428571</ele><time>2026-05-01T11:41:07.273Z</time></trkpt><trkpt lat="46.1207465" lon="12.1766564"><ele>416.0</ele><time>2026-05-01T11:41:10.287Z</time></trkpt><trkpt lat="46.1206725" lon="12.1765851"><ele>416.0</ele><time>2026-05-01T11:41:13.273Z</time></trkpt><trkpt lat="46.1206188" lon="12.1765345"><ele>416.0</ele><time>2026-05-01T11:41:15.278Z</time></trkpt><trkpt lat="46.1205614" lon="12.176483"><ele>416.0</ele><time>2026-05-01T11:41:17.278Z</time></trkpt><trkpt lat="46.120504" lon="12.1764234"><ele>416.0</ele><time>2026-05-01T11:41:19.272Z</time></trkpt><trkpt lat="46.1204401" lon="12.1763678"><ele>416.0</ele><time>2026-05-01T11:41:21.272Z</time></trkpt><trkpt lat="46.1203802" lon="12.176307"><ele>416.0</ele><time>2026-05-01T11:41:23.273Z</time></trkpt><trkpt lat="46.1203176" lon="12.176249"><ele>416.0</ele><time>2026-05-01T11:41:25.277Z</time></trkpt><trkpt lat="46.1202615" lon="12.1761877"><ele>416.4285714285714</ele><time>2026-05-01T11:41:27.27Z</time></trkpt><trkpt lat="46.1202021" lon="12.1761391"><ele>416.8571428571429</ele><time>2026-05-01T11:41:29.275Z</time></trkpt><trkpt lat="46.1201379" lon="12.1761024"><ele>417.2857142857143</ele><time>2026-05-01T11:41:31.284Z</time></trkpt><trkpt lat="46.1200716" lon="12.1760624"><ele>417.71428571428567</ele><time>2026-05-01T11:41:33.28Z</time></trkpt><trkpt lat="46.119995" lon="12.1760309"><ele>418.1428571428571</ele><time>2026-05-01T11:41:35.268Z</time></trkpt><trkpt lat="46.1199184" lon="12.1759935"><ele>418.57142857142856</ele><time>2026-05-01T11:41:37.263Z</time></trkpt><trkpt lat="46.1198408" lon="12.1759725"><ele>419.0</ele><time>2026-05-01T11:41:39.273Z</time></trkpt><trkpt lat="46.1197677" lon="12.1759493"><ele>418.99999999999994</ele><time>2026-05-01T11:41:41.277Z</time></trkpt><trkpt lat="46.1196986" lon="12.1759173"><ele>419.0</ele><time>2026-05-01T11:41:43.272Z</time></trkpt><trkpt lat="46.1196222" lon="12.1758851"><ele>419.0</ele><time>2026-05-01T11:41:45.273Z</time></trkpt><trkpt lat="46.1195448" lon="12.1758447"><ele>419.0</ele><time>2026-05-01T11:41:47.276Z</time></trkpt><trkpt lat="46.1194594" lon="12.1758007"><ele>418.99999999999994</ele><time>2026-05-01T11:41:49.272Z</time></trkpt><trkpt lat="46.1193674" lon="12.1757654"><ele>419.0</ele><time>2026-05-01T11:41:51.282Z</time></trkpt><trkpt lat="46.1192786" lon="12.1757252"><ele>419.0</ele><time>2026-05-01T11:41:53.278Z</time></trkpt><trkpt lat="46.1191843" lon="12.1756724"><ele>419.0</ele><time>2026-05-01T11:41:55.285Z</time></trkpt><trkpt lat="46.1190964" lon="12.1756126"><ele>419.0</ele><time>2026-05-01T11:41:57.272Z</time></trkpt><trkpt lat="46.1190102" lon="12.1755372"><ele>419.0</ele><time>2026-05-01T11:41:59.27Z</time></trkpt><trkpt lat="46.1189266" lon="12.1754504"><ele>419.0</ele><time>2026-05-01T11:42:01.273Z</time></trkpt><trkpt lat="46.1188385" lon="12.1753635"><ele>419.0</ele><time>2026-05-01T11:42:03.273Z</time></trkpt><trkpt lat="46.1187552" lon="12.1752566"><ele>419.0</ele><time>2026-05-01T11:42:05.27Z</time></trkpt><trkpt lat="46.1186613" lon="12.1751645"><ele>419.0</ele><time>2026-05-01T11:42:07.269Z</time></trkpt><trkpt lat="46.1185712" lon="12.1750766"><ele>419.0</ele><time>2026-05-01T11:42:09.276Z</time></trkpt><trkpt lat="46.1184807" lon="12.1749792"><ele>419.0</ele><time>2026-05-01T11:42:11.272Z</time></trkpt><trkpt lat="46.1183904" lon="12.1748861"><ele>418.79999999999995</ele><time>2026-05-01T11:42:13.273Z</time></trkpt><trkpt lat="46.1182977" lon="12.1748046"><ele>418.59999999999997</ele><time>2026-05-01T11:42:15.268Z</time></trkpt><trkpt lat="46.1182154" lon="12.1747158"><ele>418.4</ele><time>2026-05-01T11:42:17.272Z</time></trkpt><trkpt lat="46.1181356" lon="12.1746378"><ele>418.2</ele><time>2026-05-01T11:42:19.273Z</time></trkpt><trkpt lat="46.118061" lon="12.1745582"><ele>418.0</ele><time>2026-05-01T11:42:21.273Z</time></trkpt><trkpt lat="46.1179841" lon="12.1744786"><ele>418.0</ele><time>2026-05-01T11:42:23.266Z</time></trkpt><trkpt lat="46.1179025" lon="12.1744016"><ele>418.0</ele><time>2026-05-01T11:42:25.272Z</time></trkpt><trkpt lat="46.1178363" lon="12.1743103"><ele>418.0</ele><time>2026-05-01T11:42:27.287Z</time></trkpt><trkpt lat="46.1177845" lon="12.1742029"><ele>418.0</ele><time>2026-05-01T11:42:29.278Z</time></trkpt><trkpt lat="46.1177403" lon="12.1740838"><ele>418.0</ele><time>2026-05-01T11:42:31.274Z</time></trkpt><trkpt lat="46.1176986" lon="12.173969"><ele>418.0</ele><time>2026-05-01T11:42:33.272Z</time></trkpt><trkpt lat="46.1176446" lon="12.17387"><ele>418.0</ele><time>2026-05-01T11:42:35.277Z</time></trkpt><trkpt lat="46.1175674" lon="12.1737811"><ele>418.0</ele><time>2026-05-01T11:42:37.274Z</time></trkpt><trkpt lat="46.1174783" lon="12.1737207"><ele>418.0</ele><time>2026-05-01T11:42:39.271Z</time></trkpt><trkpt lat="46.1173786" lon="12.1736784"><ele>418.0</ele><time>2026-05-01T11:42:41.271Z</time></trkpt><trkpt lat="46.117279" lon="12.1736353"><ele>418.2</ele><time>2026-05-01T11:42:43.273Z</time></trkpt><trkpt lat="46.1171774" lon="12.1735712"><ele>418.4</ele><time>2026-05-01T11:42:45.263Z</time></trkpt><trkpt lat="46.117088" lon="12.1734765"><ele>418.59999999999997</ele><time>2026-05-01T11:42:47.271Z</time></trkpt><trkpt lat="46.1170066" lon="12.1733655"><ele>418.79999999999995</ele><time>2026-05-01T11:42:49.271Z</time></trkpt><trkpt lat="46.1169212" lon="12.1732728"><ele>419.0</ele><time>2026-05-01T11:42:51.268Z</time></trkpt><trkpt lat="46.1168349" lon="12.1731945"><ele>419.2</ele><time>2026-05-01T11:42:53.272Z</time></trkpt><trkpt lat="46.1167645" lon="12.1730918"><ele>419.4</ele><time>2026-05-01T11:42:55.267Z</time></trkpt><trkpt lat="46.11672" lon="12.1729663"><ele>419.6</ele><time>2026-05-01T11:42:57.273Z</time></trkpt><trkpt lat="46.1166771" lon="12.1728295"><ele>419.8</ele><time>2026-05-01T11:42:59.273Z</time></trkpt><trkpt lat="46.1166464" lon="12.1726941"><ele>420.0</ele><time>2026-05-01T11:43:01.274Z</time></trkpt><trkpt lat="46.1166086" lon="12.1725584"><ele>420.6</ele><time>2026-05-01T11:43:03.28Z</time></trkpt><trkpt lat="46.1165505" lon="12.1724441"><ele>421.2</ele><time>2026-05-01T11:43:05.273Z</time></trkpt><trkpt lat="46.1164944" lon="12.1723322"><ele>421.79999999999995</ele><time>2026-05-01T11:43:07.271Z</time></trkpt><trkpt lat="46.1164375" lon="12.1722257"><ele>422.4</ele><time>2026-05-01T11:43:09.274Z</time></trkpt><trkpt lat="46.1163841" lon="12.1721296"><ele>423.0</ele><time>2026-05-01T11:43:11.276Z</time></trkpt><trkpt lat="46.1163281" lon="12.172051"><ele>423.2857142857143</ele><time>2026-05-01T11:43:13.273Z</time></trkpt><trkpt lat="46.1162681" lon="12.1719807"><ele>423.5714285714286</ele><time>2026-05-01T11:43:15.272Z</time></trkpt><trkpt lat="46.1162115" lon="12.171915"><ele>423.8571428571429</ele><time>2026-05-01T11:43:17.28Z</time></trkpt><trkpt lat="46.1161603" lon="12.171855"><ele>424.1428571428571</ele><time>2026-05-01T11:43:19.277Z</time></trkpt><trkpt lat="46.1161086" lon="12.1718019"><ele>424.42857142857144</ele><time>2026-05-01T11:43:21.272Z</time></trkpt><trkpt lat="46.1160579" lon="12.1717455"><ele>424.7142857142857</ele><time>2026-05-01T11:43:23.275Z</time></trkpt><trkpt lat="46.1159818" lon="12.1716642"><ele>425.0</ele><time>2026-05-01T11:43:26.275Z</time></trkpt><trkpt lat="46.1159332" lon="12.1716047"><ele>424.99999999999994</ele><time>2026-05-01T11:43:28.273Z</time></trkpt><trkpt lat="46.1158825" lon="12.1715448"><ele>425.0</ele><time>2026-05-01T11:43:30.272Z</time></trkpt><trkpt lat="46.1158155" lon="12.1714786"><ele>425.0</ele><time>2026-05-01T11:43:33.275Z</time></trkpt><trkpt lat="46.1157464" lon="12.1714296"><ele>425.0</ele><time>2026-05-01T11:43:36.276Z</time></trkpt><trkpt lat="46.1156713" lon="12.1713674"><ele>424.99999999999994</ele><time>2026-05-01T11:43:39.266Z</time></trkpt><trkpt lat="46.1156005" lon="12.1713"><ele>425.0</ele><time>2026-05-01T11:43:42.28Z</time></trkpt><trkpt lat="46.1155257" lon="12.1712416"><ele>425.16666666666663</ele><time>2026-05-01T11:43:45.276Z</time></trkpt><trkpt lat="46.1154483" lon="12.171172"><ele>425.3333333333333</ele><time>2026-05-01T11:43:48.27Z</time></trkpt><trkpt lat="46.1153707" lon="12.1711165"><ele>425.5</ele><time>2026-05-01T11:43:51.278Z</time></trkpt><trkpt lat="46.1152918" lon="12.1710645"><ele>425.66666666666663</ele><time>2026-05-01T11:43:54.275Z</time></trkpt><trkpt lat="46.1152377" lon="12.1710169"><ele>425.8333333333333</ele><time>2026-05-01T11:43:56.276Z</time></trkpt><trkpt lat="46.1151799" lon="12.1709626"><ele>426.0</ele><time>2026-05-01T11:43:58.269Z</time></trkpt><trkpt lat="46.1151083" lon="12.1709056"><ele>426.0</ele><time>2026-05-01T11:44:00.283Z</time></trkpt><trkpt lat="46.1150058" lon="12.1708378"><ele>426.0</ele><time>2026-05-01T11:44:02.271Z</time></trkpt><trkpt lat="46.1148925" lon="12.1707576"><ele>426.0</ele><time>2026-05-01T11:44:04.266Z</time></trkpt><trkpt lat="46.1148383" lon="12.1707044"><ele>426.0</ele><time>2026-05-01T11:44:05.272Z</time></trkpt><trkpt lat="46.1147849" lon="12.1706436"><ele>426.0</ele><time>2026-05-01T11:44:06.278Z</time></trkpt><trkpt lat="46.1147358" lon="12.1705691"><ele>426.0</ele><time>2026-05-01T11:44:07.272Z</time></trkpt><trkpt lat="46.1146964" lon="12.1704844"><ele>425.1428571428571</ele><time>2026-05-01T11:44:08.272Z</time></trkpt><trkpt lat="46.1146653" lon="12.1703917"><ele>424.2857142857143</ele><time>2026-05-01T11:44:09.273Z</time></trkpt><trkpt lat="46.1146318" lon="12.1703064"><ele>423.42857142857144</ele><time>2026-05-01T11:44:10.278Z</time></trkpt><trkpt lat="46.1145969" lon="12.170225"><ele>422.57142857142856</ele><time>2026-05-01T11:44:11.269Z</time></trkpt><trkpt lat="46.1145509" lon="12.1701496"><ele>421.7142857142857</ele><time>2026-05-01T11:44:12.263Z</time></trkpt><trkpt lat="46.1144882" lon="12.1700816"><ele>420.85714285714283</ele><time>2026-05-01T11:44:13.265Z</time></trkpt><trkpt lat="46.1144226" lon="12.1700301"><ele>420.0</ele><time>2026-05-01T11:44:14.274Z</time></trkpt><trkpt lat="46.1143487" lon="12.1699862"><ele>420.0</ele><time>2026-05-01T11:44:15.272Z</time></trkpt><trkpt lat="46.1142866" lon="12.1699656"><ele>420.0</ele><time>2026-05-01T11:44:16.271Z</time></trkpt><trkpt lat="46.1142202" lon="12.1699444"><ele>420.0</ele><time>2026-05-01T11:44:17.268Z</time></trkpt><trkpt lat="46.1141588" lon="12.1698939"><ele>420.0</ele><time>2026-05-01T11:44:18.273Z</time></trkpt><trkpt lat="46.1141015" lon="12.1698287"><ele>420.0</ele><time>2026-05-01T11:44:19.273Z</time></trkpt><trkpt lat="46.1140521" lon="12.1697359"><ele>420.0</ele><time>2026-05-01T11:44:20.271Z</time></trkpt><trkpt lat="46.1140225" lon="12.1696311"><ele>420.0</ele><time>2026-05-01T11:44:21.275Z</time></trkpt><trkpt lat="46.1140223" lon="12.1695254"><ele>419.3333333333333</ele><time>2026-05-01T11:44:22.273Z</time></trkpt><trkpt lat="46.1140238" lon="12.1694112"><ele>418.66666666666663</ele><time>2026-05-01T11:44:23.272Z</time></trkpt><trkpt lat="46.1140409" lon="12.1693034"><ele>418.0</ele><time>2026-05-01T11:44:24.274Z</time></trkpt><trkpt lat="46.1140578" lon="12.1691991"><ele>417.3333333333333</ele><time>2026-05-01T11:44:25.271Z</time></trkpt><trkpt lat="46.1140802" lon="12.169089"><ele>416.66666666666663</ele><time>2026-05-01T11:44:26.27Z</time></trkpt><trkpt lat="46.1140985" lon="12.1689766"><ele>416.0</ele><time>2026-05-01T11:44:27.268Z</time></trkpt><trkpt lat="46.1141121" lon="12.1688664"><ele>415.16666666666663</ele><time>2026-05-01T11:44:28.276Z</time></trkpt><trkpt lat="46.1141268" lon="12.168761"><ele>414.3333333333333</ele><time>2026-05-01T11:44:29.288Z</time></trkpt><trkpt lat="46.1141354" lon="12.1686441"><ele>413.5</ele><time>2026-05-01T11:44:30.273Z</time></trkpt><trkpt lat="46.1141376" lon="12.1685331"><ele>412.66666666666663</ele><time>2026-05-01T11:44:31.273Z</time></trkpt><trkpt lat="46.1141407" lon="12.1684192"><ele>411.8333333333333</ele><time>2026-05-01T11:44:32.272Z</time></trkpt><trkpt lat="46.114136" lon="12.1683149"><ele>411.0</ele><time>2026-05-01T11:44:33.278Z</time></trkpt><trkpt lat="46.1141217" lon="12.1682118"><ele>410.6666666666667</ele><time>2026-05-01T11:44:34.267Z</time></trkpt><trkpt lat="46.1140924" lon="12.1681271"><ele>410.33333333333337</ele><time>2026-05-01T11:44:35.275Z</time></trkpt><trkpt lat="46.1140358" lon="12.1680359"><ele>410.0</ele><time>2026-05-01T11:44:36.27Z</time></trkpt><trkpt lat="46.1139762" lon="12.1679474"><ele>409.6666666666667</ele><time>2026-05-01T11:44:37.279Z</time></trkpt><trkpt lat="46.1139172" lon="12.167868"><ele>409.33333333333337</ele><time>2026-05-01T11:44:38.281Z</time></trkpt><trkpt lat="46.1138623" lon="12.167791"><ele>409.0</ele><time>2026-05-01T11:44:39.275Z</time></trkpt><trkpt lat="46.1138018" lon="12.1676915"><ele>409.0</ele><time>2026-05-01T11:44:40.263Z</time></trkpt><trkpt lat="46.1137547" lon="12.1676074"><ele>409.0</ele><time>2026-05-01T11:44:41.281Z</time></trkpt><trkpt lat="46.1137177" lon="12.1675136"><ele>409.0</ele><time>2026-05-01T11:44:42.272Z</time></trkpt><trkpt lat="46.1136521" lon="12.1674509"><ele>409.0</ele><time>2026-05-01T11:44:43.269Z</time></trkpt><trkpt lat="46.1135941" lon="12.1673826"><ele>409.0</ele><time>2026-05-01T11:44:44.274Z</time></trkpt><trkpt lat="46.1135505" lon="12.1673086"><ele>409.0</ele><time>2026-05-01T11:44:45.276Z</time></trkpt><trkpt lat="46.1135027" lon="12.1672324"><ele>409.0</ele><time>2026-05-01T11:44:46.278Z</time></trkpt><trkpt lat="46.1134677" lon="12.1671495"><ele>409.0</ele><time>2026-05-01T11:44:47.274Z</time></trkpt><trkpt lat="46.1134262" lon="12.166989"><ele>409.0</ele><time>2026-05-01T11:44:49.278Z</time></trkpt><trkpt lat="46.1133788" lon="12.1668434"><ele>409.0</ele><time>2026-05-01T11:44:51.262Z</time></trkpt><trkpt lat="46.1133408" lon="12.1667272"><ele>409.0</ele><time>2026-05-01T11:44:53.266Z</time></trkpt><trkpt lat="46.1133016" lon="12.1666023"><ele>409.0</ele><time>2026-05-01T11:44:55.274Z</time></trkpt><trkpt lat="46.1132633" lon="12.1664851"><ele>407.79999999999995</ele><time>2026-05-01T11:44:57.273Z</time></trkpt><trkpt lat="46.1132168" lon="12.1663571"><ele>406.59999999999997</ele><time>2026-05-01T11:44:59.276Z</time></trkpt><trkpt lat="46.1131652" lon="12.1662146"><ele>405.4</ele><time>2026-05-01T11:45:01.27Z</time></trkpt><trkpt lat="46.1131063" lon="12.166058"><ele>404.2</ele><time>2026-05-01T11:45:03.273Z</time></trkpt><trkpt lat="46.1130773" lon="12.1659773"><ele>403.0</ele><time>2026-05-01T11:45:04.275Z</time></trkpt><trkpt lat="46.1130229" lon="12.1658103"><ele>403.0</ele><time>2026-05-01T11:45:06.27Z</time></trkpt><trkpt lat="46.1129979" lon="12.1657212"><ele>403.0</ele><time>2026-05-01T11:45:07.271Z</time></trkpt><trkpt lat="46.1129756" lon="12.1656354"><ele>403.0</ele><time>2026-05-01T11:45:08.275Z</time></trkpt><trkpt lat="46.1129396" lon="12.1654686"><ele>403.0</ele><time>2026-05-01T11:45:10.275Z</time></trkpt><trkpt lat="46.1129047" lon="12.1653002"><ele>403.0</ele><time>2026-05-01T11:45:12.268Z</time></trkpt><trkpt lat="46.1128653" lon="12.1651599"><ele>403.5</ele><time>2026-05-01T11:45:14.272Z</time></trkpt><trkpt lat="46.1128316" lon="12.1650053"><ele>404.0</ele><time>2026-05-01T11:45:16.275Z</time></trkpt><trkpt lat="46.1127699" lon="12.1648679"><ele>404.5</ele><time>2026-05-01T11:45:18.272Z</time></trkpt><trkpt lat="46.112695" lon="12.1647404"><ele>405.0</ele><time>2026-05-01T11:45:20.264Z</time></trkpt><trkpt lat="46.1126302" lon="12.1646045"><ele>405.2</ele><time>2026-05-01T11:45:22.277Z</time></trkpt><trkpt lat="46.1125656" lon="12.1644766"><ele>405.4</ele><time>2026-05-01T11:45:24.275Z</time></trkpt><trkpt lat="46.1125238" lon="12.1644064"><ele>405.6</ele><time>2026-05-01T11:45:25.273Z</time></trkpt><trkpt lat="46.1124606" lon="12.1642834"><ele>405.8</ele><time>2026-05-01T11:45:27.267Z</time></trkpt><trkpt lat="46.1124033" lon="12.1641514"><ele>406.0</ele><time>2026-05-01T11:45:29.273Z</time></trkpt><trkpt lat="46.1123331" lon="12.1640279"><ele>406.33333333333337</ele><time>2026-05-01T11:45:31.285Z</time></trkpt><trkpt lat="46.1122837" lon="12.1639174"><ele>406.6666666666667</ele><time>2026-05-01T11:45:33.274Z</time></trkpt><trkpt lat="46.1122209" lon="12.1638157"><ele>407.0</ele><time>2026-05-01T11:45:35.275Z</time></trkpt><trkpt lat="46.1121548" lon="12.1637161"><ele>407.33333333333337</ele><time>2026-05-01T11:45:37.265Z</time></trkpt><trkpt lat="46.1121098" lon="12.1636312"><ele>407.6666666666667</ele><time>2026-05-01T11:45:39.269Z</time></trkpt><trkpt lat="46.1120541" lon="12.1635483"><ele>408.0</ele><time>2026-05-01T11:45:41.275Z</time></trkpt><trkpt lat="46.1119891" lon="12.1634483"><ele>408.0</ele><time>2026-05-01T11:45:44.273Z</time></trkpt><trkpt lat="46.1119364" lon="12.1633901"><ele>408.0</ele><time>2026-05-01T11:45:46.273Z</time></trkpt><trkpt lat="46.1118702" lon="12.163289"><ele>408.0</ele><time>2026-05-01T11:45:49.274Z</time></trkpt><trkpt lat="46.1118304" lon="12.163198"><ele>408.0</ele><time>2026-05-01T11:45:51.275Z</time></trkpt><trkpt lat="46.1117928" lon="12.1631046"><ele>408.0</ele><time>2026-05-01T11:45:53.274Z</time></trkpt><trkpt lat="46.111761" lon="12.1630163"><ele>408.0</ele><time>2026-05-01T11:45:55.275Z</time></trkpt><trkpt lat="46.1117287" lon="12.1629293"><ele>408.0</ele><time>2026-05-01T11:45:57.273Z</time></trkpt><trkpt lat="46.1116983" lon="12.1628465"><ele>408.0</ele><time>2026-05-01T11:45:59.271Z</time></trkpt><trkpt lat="46.1116656" lon="12.1627653"><ele>408.0</ele><time>2026-05-01T11:46:01.265Z</time></trkpt><trkpt lat="46.1116342" lon="12.1626836"><ele>408.0</ele><time>2026-05-01T11:46:03.271Z</time></trkpt><trkpt lat="46.1116007" lon="12.1625783"><ele>408.0</ele><time>2026-05-01T11:46:06.269Z</time></trkpt><trkpt lat="46.1115577" lon="12.1624948"><ele>408.0</ele><time>2026-05-01T11:46:10.265Z</time></trkpt><trkpt lat="46.1115603" lon="12.1625868"><ele>408.0</ele><time>2026-05-01T11:46:16.262Z</time></trkpt><trkpt lat="46.1116135" lon="12.1626876"><ele>408.0</ele><time>2026-05-01T11:46:19.271Z</time></trkpt><trkpt lat="46.1116506" lon="12.1627826"><ele>408.0</ele><time>2026-05-01T11:46:21.266Z</time></trkpt><trkpt lat="46.1116846" lon="12.1628867"><ele>408.0</ele><time>2026-05-01T11:46:23.271Z</time></trkpt><trkpt lat="46.1117142" lon="12.163006"><ele>408.0</ele><time>2026-05-01T11:46:25.272Z</time></trkpt><trkpt lat="46.111762" lon="12.1631353"><ele>408.0</ele><time>2026-05-01T11:46:27.271Z</time></trkpt><trkpt lat="46.1118121" lon="12.1632635"><ele>408.0</ele><time>2026-05-01T11:46:29.267Z</time></trkpt><trkpt lat="46.1118805" lon="12.1633788"><ele>408.0</ele><time>2026-05-01T11:46:31.272Z</time></trkpt><trkpt lat="46.1119691" lon="12.1634697"><ele>408.0</ele><time>2026-05-01T11:46:33.272Z</time></trkpt><trkpt lat="46.112046" lon="12.1635878"><ele>408.0</ele><time>2026-05-01T11:46:35.275Z</time></trkpt><trkpt lat="46.1121374" lon="12.1637192"><ele>408.0</ele><time>2026-05-01T11:46:37.271Z</time></trkpt><trkpt lat="46.1121982" lon="12.1638046"><ele>408.0</ele><time>2026-05-01T11:46:38.271Z</time></trkpt><trkpt lat="46.1122485" lon="12.1638905"><ele>408.0</ele><time>2026-05-01T11:46:39.271Z</time></trkpt><trkpt lat="46.1122976" lon="12.1639889"><ele>408.0</ele><time>2026-05-01T11:46:40.272Z</time></trkpt><trkpt lat="46.1123484" lon="12.1640634"><ele>408.0</ele><time>2026-05-01T11:46:41.273Z</time></trkpt><trkpt lat="46.1123915" lon="12.1641682"><ele>408.0</ele><time>2026-05-01T11:46:42.271Z</time></trkpt><trkpt lat="46.1124376" lon="12.1642563"><ele>408.0</ele><time>2026-05-01T11:46:43.27Z</time></trkpt><trkpt lat="46.1124826" lon="12.1643468"><ele>408.0</ele><time>2026-05-01T11:46:44.263Z</time></trkpt><trkpt lat="46.11253" lon="12.1644403"><ele>407.7142857142857</ele><time>2026-05-01T11:46:45.273Z</time></trkpt><trkpt lat="46.1125736" lon="12.1645165"><ele>407.42857142857144</ele><time>2026-05-01T11:46:46.27Z</time></trkpt><trkpt lat="46.1126127" lon="12.1646009"><ele>407.1428571428571</ele><time>2026-05-01T11:46:47.271Z</time></trkpt><trkpt lat="46.1126515" lon="12.1646806"><ele>406.8571428571429</ele><time>2026-05-01T11:46:48.267Z</time></trkpt><trkpt lat="46.1126939" lon="12.1647841"><ele>406.57142857142856</ele><time>2026-05-01T11:46:50.263Z</time></trkpt><trkpt lat="46.1127413" lon="12.1648558"><ele>406.2857142857143</ele><time>2026-05-01T11:46:52.263Z</time></trkpt><trkpt lat="46.1127837" lon="12.1649533"><ele>406.0</ele><time>2026-05-01T11:46:55.272Z</time></trkpt><trkpt lat="46.1127498" lon="12.1648344"><ele>406.00000000000006</ele><time>2026-05-01T11:47:02.272Z</time></trkpt><trkpt lat="46.1127384" lon="12.1647338"><ele>406.0</ele><time>2026-05-01T11:47:04.271Z</time></trkpt><trkpt lat="46.1127793" lon="12.1646289"><ele>406.0</ele><time>2026-05-01T11:47:06.263Z</time></trkpt><trkpt lat="46.1128047" lon="12.1644772"><ele>406.0</ele><time>2026-05-01T11:47:08.264Z</time></trkpt><trkpt lat="46.1128157" lon="12.1643846"><ele>406.00000000000006</ele><time>2026-05-01T11:47:09.265Z</time></trkpt><trkpt lat="46.1128261" lon="12.164292"><ele>406.0</ele><time>2026-05-01T11:47:10.274Z</time></trkpt><trkpt lat="46.1128405" lon="12.1641974"><ele>406.00000000000006</ele><time>2026-05-01T11:47:11.272Z</time></trkpt><trkpt lat="46.1128644" lon="12.1640964"><ele>406.0</ele><time>2026-05-01T11:47:12.265Z</time></trkpt><trkpt lat="46.1128863" lon="12.163992"><ele>406.0</ele><time>2026-05-01T11:47:13.261Z</time></trkpt><trkpt lat="46.1129094" lon="12.1638893"><ele>406.0</ele><time>2026-05-01T11:47:14.269Z</time></trkpt><trkpt lat="46.1129308" lon="12.1637854"><ele>406.00000000000006</ele><time>2026-05-01T11:47:15.272Z</time></trkpt><trkpt lat="46.1129372" lon="12.1636712"><ele>406.0</ele><time>2026-05-01T11:47:16.271Z</time></trkpt><trkpt lat="46.1129344" lon="12.1635477"><ele>405.6</ele><time>2026-05-01T11:47:17.261Z</time></trkpt><trkpt lat="46.1129312" lon="12.1634175"><ele>405.20000000000005</ele><time>2026-05-01T11:47:18.264Z</time></trkpt><trkpt lat="46.1129207" lon="12.1632819"><ele>404.79999999999995</ele><time>2026-05-01T11:47:19.262Z</time></trkpt><trkpt lat="46.1129107" lon="12.1631434"><ele>404.4</ele><time>2026-05-01T11:47:20.271Z</time></trkpt><trkpt lat="46.1128996" lon="12.1630139"><ele>404.0</ele><time>2026-05-01T11:47:21.278Z</time></trkpt><trkpt lat="46.1128898" lon="12.1628816"><ele>403.4</ele><time>2026-05-01T11:47:22.267Z</time></trkpt><trkpt lat="46.1128789" lon="12.162759"><ele>402.79999999999995</ele><time>2026-05-01T11:47:23.264Z</time></trkpt><trkpt lat="46.1128677" lon="12.1626196"><ele>402.20000000000005</ele><time>2026-05-01T11:47:24.271Z</time></trkpt><trkpt lat="46.1128524" lon="12.1624825"><ele>401.6</ele><time>2026-05-01T11:47:25.274Z</time></trkpt><trkpt lat="46.1128372" lon="12.1623458"><ele>401.0</ele><time>2026-05-01T11:47:26.271Z</time></trkpt><trkpt lat="46.1128296" lon="12.1622018"><ele>399.49999999999994</ele><time>2026-05-01T11:47:27.271Z</time></trkpt><trkpt lat="46.1128338" lon="12.1620682"><ele>398.0</ele><time>2026-05-01T11:47:28.272Z</time></trkpt><trkpt lat="46.112843" lon="12.1619259"><ele>396.5</ele><time>2026-05-01T11:47:29.262Z</time></trkpt><trkpt lat="46.1128549" lon="12.1618185"><ele>395.0</ele><time>2026-05-01T11:47:30.263Z</time></trkpt><trkpt lat="46.1128555" lon="12.1616917"><ele>393.49999999999994</ele><time>2026-05-01T11:47:31.269Z</time></trkpt><trkpt lat="46.1128519" lon="12.1615723"><ele>392.0</ele><time>2026-05-01T11:47:32.271Z</time></trkpt><trkpt lat="46.1128412" lon="12.1614501"><ele>390.99999999999994</ele><time>2026-05-01T11:47:33.27Z</time></trkpt><trkpt lat="46.112825" lon="12.1613322"><ele>390.0</ele><time>2026-05-01T11:47:34.275Z</time></trkpt><trkpt lat="46.112804" lon="12.1612181"><ele>389.0</ele><time>2026-05-01T11:47:35.27Z</time></trkpt><trkpt lat="46.1127793" lon="12.1611083"><ele>388.0</ele><time>2026-05-01T11:47:36.273Z</time></trkpt><trkpt lat="46.112751" lon="12.161006"><ele>386.99999999999994</ele><time>2026-05-01T11:47:37.272Z</time></trkpt><trkpt lat="46.1127203" lon="12.1609127"><ele>386.0</ele><time>2026-05-01T11:47:38.263Z</time></trkpt><trkpt lat="46.1126913" lon="12.1608183"><ele>385.99999999999994</ele><time>2026-05-01T11:47:39.269Z</time></trkpt><trkpt lat="46.1126676" lon="12.1607275"><ele>386.0</ele><time>2026-05-01T11:47:40.272Z</time></trkpt><trkpt lat="46.1126428" lon="12.1606338"><ele>386.0</ele><time>2026-05-01T11:47:41.274Z</time></trkpt><trkpt lat="46.1126145" lon="12.1605483"><ele>386.0</ele><time>2026-05-01T11:47:42.273Z</time></trkpt><trkpt lat="46.1125881" lon="12.1604645"><ele>385.99999999999994</ele><time>2026-05-01T11:47:43.27Z</time></trkpt><trkpt lat="46.1125384" lon="12.1603076"><ele>386.0</ele><time>2026-05-01T11:47:45.274Z</time></trkpt><trkpt lat="46.1124987" lon="12.1601537"><ele>385.8</ele><time>2026-05-01T11:47:47.267Z</time></trkpt><trkpt lat="46.1124618" lon="12.1600084"><ele>385.6</ele><time>2026-05-01T11:47:49.27Z</time></trkpt><trkpt lat="46.112428" lon="12.1598705"><ele>385.4</ele><time>2026-05-01T11:47:51.272Z</time></trkpt><trkpt lat="46.1123851" lon="12.1597415"><ele>385.2</ele><time>2026-05-01T11:47:53.26Z</time></trkpt><trkpt lat="46.1123174" lon="12.159647"><ele>385.0</ele><time>2026-05-01T11:47:55.268Z</time></trkpt><trkpt lat="46.1122363" lon="12.1596474"><ele>385.0</ele><time>2026-05-01T11:47:57.271Z</time></trkpt><trkpt lat="46.1121622" lon="12.1596755"><ele>385.0</ele><time>2026-05-01T11:47:59.265Z</time></trkpt><trkpt lat="46.1120972" lon="12.1596994"><ele>385.0</ele><time>2026-05-01T11:48:01.273Z</time></trkpt><trkpt lat="46.112029" lon="12.1596916"><ele>385.0</ele><time>2026-05-01T11:48:03.27Z</time></trkpt><trkpt lat="46.1119686" lon="12.1596313"><ele>385.0</ele><time>2026-05-01T11:48:05.27Z</time></trkpt><trkpt lat="46.1119358" lon="12.1595317"><ele>385.0</ele><time>2026-05-01T11:48:07.272Z</time></trkpt><trkpt lat="46.111906" lon="12.1594335"><ele>385.0</ele><time>2026-05-01T11:48:09.271Z</time></trkpt><trkpt lat="46.1118702" lon="12.1593321"><ele>385.00000000000006</ele><time>2026-05-01T11:48:11.27Z</time></trkpt><trkpt lat="46.1118335" lon="12.159228"><ele>385.0</ele><time>2026-05-01T11:48:13.271Z</time></trkpt><trkpt lat="46.1117992" lon="12.159123"><ele>385.0</ele><time>2026-05-01T11:48:15.272Z</time></trkpt><trkpt lat="46.1117602" lon="12.1590173"><ele>385.0</ele><time>2026-05-01T11:48:17.271Z</time></trkpt><trkpt lat="46.1117212" lon="12.1589136"><ele>385.00000000000006</ele><time>2026-05-01T11:48:19.265Z</time></trkpt><trkpt lat="46.1116841" lon="12.1588086"><ele>385.0</ele><time>2026-05-01T11:48:21.271Z</time></trkpt><trkpt lat="46.1116467" lon="12.158703"><ele>385.33333333333337</ele><time>2026-05-01T11:48:23.272Z</time></trkpt><trkpt lat="46.1116091" lon="12.1585974"><ele>385.6666666666667</ele><time>2026-05-01T11:48:25.264Z</time></trkpt><trkpt lat="46.1115707" lon="12.1584936"><ele>386.0</ele><time>2026-05-01T11:48:27.27Z</time></trkpt><trkpt lat="46.1115375" lon="12.1583867"><ele>386.33333333333337</ele><time>2026-05-01T11:48:29.274Z</time></trkpt><trkpt lat="46.1115001" lon="12.1582856"><ele>386.6666666666667</ele><time>2026-05-01T11:48:31.271Z</time></trkpt><trkpt lat="46.1114626" lon="12.1581786"><ele>387.0</ele><time>2026-05-01T11:48:33.273Z</time></trkpt><trkpt lat="46.1114245" lon="12.1580713"><ele>387.3333333333333</ele><time>2026-05-01T11:48:35.264Z</time></trkpt><trkpt lat="46.111386" lon="12.1579652"><ele>387.66666666666663</ele><time>2026-05-01T11:48:37.265Z</time></trkpt><trkpt lat="46.1113473" lon="12.1578609"><ele>388.0</ele><time>2026-05-01T11:48:39.281Z</time></trkpt><trkpt lat="46.111307" lon="12.1577586"><ele>388.3333333333333</ele><time>2026-05-01T11:48:41.274Z</time></trkpt><trkpt lat="46.11127" lon="12.1576554"><ele>388.66666666666663</ele><time>2026-05-01T11:48:43.269Z</time></trkpt><trkpt lat="46.1112309" lon="12.1575533"><ele>389.0</ele><time>2026-05-01T11:48:45.262Z</time></trkpt><trkpt lat="46.1111913" lon="12.157453"><ele>389.16666666666663</ele><time>2026-05-01T11:48:47.266Z</time></trkpt><trkpt lat="46.1111517" lon="12.1573552"><ele>389.3333333333333</ele><time>2026-05-01T11:48:49.265Z</time></trkpt><trkpt lat="46.1111143" lon="12.1572561"><ele>389.5</ele><time>2026-05-01T11:48:51.271Z</time></trkpt><trkpt lat="46.1110787" lon="12.1571588"><ele>389.66666666666663</ele><time>2026-05-01T11:48:53.269Z</time></trkpt><trkpt lat="46.1110443" lon="12.1570625"><ele>389.8333333333333</ele><time>2026-05-01T11:48:55.27Z</time></trkpt><trkpt lat="46.1110114" lon="12.1569684"><ele>390.0</ele><time>2026-05-01T11:48:57.27Z</time></trkpt><trkpt lat="46.1109788" lon="12.1568711"><ele>390.0</ele><time>2026-05-01T11:48:59.271Z</time></trkpt><trkpt lat="46.1109434" lon="12.1567753"><ele>390.0</ele><time>2026-05-01T11:49:01.265Z</time></trkpt><trkpt lat="46.1109081" lon="12.1566806"><ele>390.0</ele><time>2026-05-01T11:49:03.27Z</time></trkpt><trkpt lat="46.1108773" lon="12.1565877"><ele>390.0</ele><time>2026-05-01T11:49:05.271Z</time></trkpt><trkpt lat="46.1108534" lon="12.1564956"><ele>390.0</ele><time>2026-05-01T11:49:07.272Z</time></trkpt><trkpt lat="46.1108278" lon="12.1564041"><ele>390.0</ele><time>2026-05-01T11:49:09.265Z</time></trkpt><trkpt lat="46.1108064" lon="12.1563119"><ele>390.0</ele><time>2026-05-01T11:49:11.277Z</time></trkpt><trkpt lat="46.1107878" lon="12.156216"><ele>390.1666666666667</ele><time>2026-05-01T11:49:13.272Z</time></trkpt><trkpt lat="46.1107717" lon="12.1561226"><ele>390.33333333333337</ele><time>2026-05-01T11:49:15.284Z</time></trkpt><trkpt lat="46.11075" lon="12.1559965"><ele>390.5</ele><time>2026-05-01T11:49:18.273Z</time></trkpt><trkpt lat="46.1107295" lon="12.155881"><ele>390.6666666666667</ele><time>2026-05-01T11:49:21.27Z</time></trkpt><trkpt lat="46.1107111" lon="12.1557624"><ele>390.83333333333337</ele><time>2026-05-01T11:49:24.266Z</time></trkpt><trkpt lat="46.1107386" lon="12.1556499"><ele>391.0</ele><time>2026-05-01T11:49:27.263Z</time></trkpt><trkpt lat="46.1108061" lon="12.1556415"><ele>391.00000000000006</ele><time>2026-05-01T11:49:29.272Z</time></trkpt><trkpt lat="46.1108855" lon="12.1557084"><ele>391.0</ele><time>2026-05-01T11:49:31.264Z</time></trkpt><trkpt lat="46.1109772" lon="12.1557797"><ele>391.0</ele><time>2026-05-01T11:49:33.265Z</time></trkpt><trkpt lat="46.111086" lon="12.1558463"><ele>391.0</ele><time>2026-05-01T11:49:35.27Z</time></trkpt><trkpt lat="46.1111485" lon="12.1558674"><ele>391.00000000000006</ele><time>2026-05-01T11:49:36.272Z</time></trkpt><trkpt lat="46.1112165" lon="12.1558642"><ele>391.0</ele><time>2026-05-01T11:49:37.263Z</time></trkpt><trkpt lat="46.1112841" lon="12.1558445"><ele>390.99999999999994</ele><time>2026-05-01T11:49:38.277Z</time></trkpt><trkpt lat="46.1113516" lon="12.1558075"><ele>391.0</ele><time>2026-05-01T11:49:39.271Z</time></trkpt><trkpt lat="46.1114218" lon="12.1557694"><ele>391.0</ele><time>2026-05-01T11:49:40.271Z</time></trkpt><trkpt lat="46.1114914" lon="12.1557256"><ele>391.0</ele><time>2026-05-01T11:49:41.264Z</time></trkpt><trkpt lat="46.1115567" lon="12.1556724"><ele>391.0</ele><time>2026-05-01T11:49:42.27Z</time></trkpt><trkpt lat="46.1116236" lon="12.1556278"><ele>390.99999999999994</ele><time>2026-05-01T11:49:43.271Z</time></trkpt><trkpt lat="46.1116956" lon="12.1555926"><ele>391.0</ele><time>2026-05-01T11:49:44.264Z</time></trkpt><trkpt lat="46.111766" lon="12.1555797"><ele>390.1428571428571</ele><time>2026-05-01T11:49:45.263Z</time></trkpt><trkpt lat="46.1118389" lon="12.1555888"><ele>389.2857142857143</ele><time>2026-05-01T11:49:46.266Z</time></trkpt><trkpt lat="46.1119081" lon="12.1556202"><ele>388.42857142857144</ele><time>2026-05-01T11:49:47.273Z</time></trkpt><trkpt lat="46.1119739" lon="12.155659"><ele>387.57142857142856</ele><time>2026-05-01T11:49:48.263Z</time></trkpt><trkpt lat="46.1120421" lon="12.155689"><ele>386.7142857142857</ele><time>2026-05-01T11:49:49.263Z</time></trkpt><trkpt lat="46.1121105" lon="12.1557049"><ele>385.85714285714283</ele><time>2026-05-01T11:49:50.277Z</time></trkpt><trkpt lat="46.1121788" lon="12.1557018"><ele>385.0</ele><time>2026-05-01T11:49:51.271Z</time></trkpt><trkpt lat="46.1122469" lon="12.1557027"><ele>385.00000000000006</ele><time>2026-05-01T11:49:52.271Z</time></trkpt><trkpt lat="46.1123135" lon="12.1557034"><ele>385.0</ele><time>2026-05-01T11:49:53.271Z</time></trkpt><trkpt lat="46.1123794" lon="12.1556983"><ele>385.0</ele><time>2026-05-01T11:49:54.271Z</time></trkpt><trkpt lat="46.1124435" lon="12.1557072"><ele>385.0</ele><time>2026-05-01T11:49:55.263Z</time></trkpt><trkpt lat="46.1125637" lon="12.1557227"><ele>385.00000000000006</ele><time>2026-05-01T11:49:57.262Z</time></trkpt><trkpt lat="46.1126812" lon="12.155741"><ele>385.0</ele><time>2026-05-01T11:49:59.271Z</time></trkpt><trkpt lat="46.1127959" lon="12.1557247"><ele>385.0</ele><time>2026-05-01T11:50:01.269Z</time></trkpt><trkpt lat="46.1128993" lon="12.1557048"><ele>385.0</ele><time>2026-05-01T11:50:03.275Z</time></trkpt><trkpt lat="46.1129828" lon="12.1556765"><ele>385.0</ele><time>2026-05-01T11:50:05.264Z</time></trkpt><trkpt lat="46.1130693" lon="12.1556511"><ele>385.0</ele><time>2026-05-01T11:50:07.271Z</time></trkpt><trkpt lat="46.1131586" lon="12.1556213"><ele>385.0</ele><time>2026-05-01T11:50:09.264Z</time></trkpt><trkpt lat="46.1132469" lon="12.155575"><ele>384.83333333333337</ele><time>2026-05-01T11:50:11.27Z</time></trkpt><trkpt lat="46.1133297" lon="12.1555236"><ele>384.6666666666667</ele><time>2026-05-01T11:50:13.263Z</time></trkpt><trkpt lat="46.1134162" lon="12.1554724"><ele>384.5</ele><time>2026-05-01T11:50:15.271Z</time></trkpt><trkpt lat="46.1134953" lon="12.1554291"><ele>384.33333333333337</ele><time>2026-05-01T11:50:17.272Z</time></trkpt><trkpt lat="46.1135707" lon="12.1553858"><ele>384.1666666666667</ele><time>2026-05-01T11:50:19.272Z</time></trkpt><trkpt lat="46.1136487" lon="12.1553449"><ele>384.0</ele><time>2026-05-01T11:50:21.264Z</time></trkpt><trkpt lat="46.1137265" lon="12.1553003"><ele>383.99999999999994</ele><time>2026-05-01T11:50:23.272Z</time></trkpt><trkpt lat="46.1138048" lon="12.1552563"><ele>384.0</ele><time>2026-05-01T11:50:25.272Z</time></trkpt><trkpt lat="46.1138779" lon="12.1552139"><ele>384.0</ele><time>2026-05-01T11:50:27.271Z</time></trkpt><trkpt lat="46.1139457" lon="12.155174"><ele>384.0</ele><time>2026-05-01T11:50:29.266Z</time></trkpt><trkpt lat="46.1139995" lon="12.1551159"><ele>384.0</ele><time>2026-05-01T11:50:31.271Z</time></trkpt><trkpt lat="46.114003" lon="12.1550238"><ele>383.99999999999994</ele><time>2026-05-01T11:50:33.27Z</time></trkpt><trkpt lat="46.1139681" lon="12.1549359"><ele>384.0</ele><time>2026-05-01T11:50:35.262Z</time></trkpt><trkpt lat="46.1139239" lon="12.1548459"><ele>384.0</ele><time>2026-05-01T11:50:37.267Z</time></trkpt><trkpt lat="46.1138745" lon="12.1547541"><ele>384.0</ele><time>2026-05-01T11:50:39.272Z</time></trkpt><trkpt lat="46.11383" lon="12.1546571"><ele>384.0</ele><time>2026-05-01T11:50:41.272Z</time></trkpt><trkpt lat="46.1137851" lon="12.1545586"><ele>384.0</ele><time>2026-05-01T11:50:43.389Z</time></trkpt><trkpt lat="46.113738" lon="12.1544592"><ele>384.0</ele><time>2026-05-01T11:50:45.265Z</time></trkpt><trkpt lat="46.1136906" lon="12.1543579"><ele>384.0</ele><time>2026-05-01T11:50:47.271Z</time></trkpt><trkpt lat="46.1136429" lon="12.1542529"><ele>384.0</ele><time>2026-05-01T11:50:49.279Z</time></trkpt><trkpt lat="46.1135972" lon="12.1541472"><ele>384.0</ele><time>2026-05-01T11:50:51.271Z</time></trkpt><trkpt lat="46.1135527" lon="12.1540454"><ele>384.0</ele><time>2026-05-01T11:50:53.263Z</time></trkpt><trkpt lat="46.1135061" lon="12.1539441"><ele>384.0</ele><time>2026-05-01T11:50:55.271Z</time></trkpt><trkpt lat="46.1134615" lon="12.1538422"><ele>384.0</ele><time>2026-05-01T11:50:57.272Z</time></trkpt><trkpt lat="46.1134204" lon="12.1537377"><ele>384.0</ele><time>2026-05-01T11:50:59.271Z</time></trkpt><trkpt lat="46.1133798" lon="12.153633"><ele>384.1666666666667</ele><time>2026-05-01T11:51:01.264Z</time></trkpt><trkpt lat="46.113335" lon="12.1535321"><ele>384.33333333333337</ele><time>2026-05-01T11:51:03.27Z</time></trkpt><trkpt lat="46.1132918" lon="12.1534245"><ele>384.5</ele><time>2026-05-01T11:51:05.271Z</time></trkpt><trkpt lat="46.1132429" lon="12.1533179"><ele>384.6666666666667</ele><time>2026-05-01T11:51:07.273Z</time></trkpt><trkpt lat="46.1131968" lon="12.1532157"><ele>384.83333333333337</ele><time>2026-05-01T11:51:09.262Z</time></trkpt><trkpt lat="46.1131522" lon="12.1531145"><ele>385.0</ele><time>2026-05-01T11:51:11.267Z</time></trkpt><trkpt lat="46.1131087" lon="12.153013"><ele>385.33333333333337</ele><time>2026-05-01T11:51:13.264Z</time></trkpt><trkpt lat="46.1130654" lon="12.152912"><ele>385.6666666666667</ele><time>2026-05-01T11:51:15.264Z</time></trkpt><trkpt lat="46.1130277" lon="12.152809"><ele>386.0</ele><time>2026-05-01T11:51:17.265Z</time></trkpt><trkpt lat="46.1129887" lon="12.1527103"><ele>386.33333333333337</ele><time>2026-05-01T11:51:19.27Z</time></trkpt><trkpt lat="46.1129488" lon="12.1526111"><ele>386.6666666666667</ele><time>2026-05-01T11:51:21.272Z</time></trkpt><trkpt lat="46.1129091" lon="12.1525105"><ele>387.0</ele><time>2026-05-01T11:51:23.27Z</time></trkpt><trkpt lat="46.1128738" lon="12.1524088"><ele>387.6666666666667</ele><time>2026-05-01T11:51:25.264Z</time></trkpt><trkpt lat="46.1128313" lon="12.1523131"><ele>388.33333333333337</ele><time>2026-05-01T11:51:27.271Z</time></trkpt><trkpt lat="46.1127918" lon="12.1522203"><ele>389.0</ele><time>2026-05-01T11:51:29.27Z</time></trkpt><trkpt lat="46.1127554" lon="12.1521251"><ele>389.6666666666667</ele><time>2026-05-01T11:51:31.271Z</time></trkpt><trkpt lat="46.1127199" lon="12.1520312"><ele>390.33333333333337</ele><time>2026-05-01T11:51:33.26Z</time></trkpt><trkpt lat="46.112685" lon="12.1519393"><ele>391.0</ele><time>2026-05-01T11:51:35.271Z</time></trkpt><trkpt lat="46.1126497" lon="12.1518464"><ele>390.99999999999994</ele><time>2026-05-01T11:51:37.276Z</time></trkpt><trkpt lat="46.1126167" lon="12.1517537"><ele>391.0</ele><time>2026-05-01T11:51:39.277Z</time></trkpt><trkpt lat="46.1125858" lon="12.1516605"><ele>391.0</ele><time>2026-05-01T11:51:41.265Z</time></trkpt><trkpt lat="46.1125561" lon="12.1515673"><ele>391.0</ele><time>2026-05-01T11:51:43.271Z</time></trkpt><trkpt lat="46.1125266" lon="12.1514755"><ele>391.0</ele><time>2026-05-01T11:51:45.27Z</time></trkpt><trkpt lat="46.1124996" lon="12.1513812"><ele>390.99999999999994</ele><time>2026-05-01T11:51:47.269Z</time></trkpt><trkpt lat="46.112475" lon="12.1512872"><ele>391.0</ele><time>2026-05-01T11:51:49.266Z</time></trkpt><trkpt lat="46.1124466" lon="12.1511941"><ele>391.2857142857143</ele><time>2026-05-01T11:51:51.271Z</time></trkpt><trkpt lat="46.1124216" lon="12.1511004"><ele>391.57142857142856</ele><time>2026-05-01T11:51:53.272Z</time></trkpt><trkpt lat="46.1123952" lon="12.1510088"><ele>391.8571428571429</ele><time>2026-05-01T11:51:55.271Z</time></trkpt><trkpt lat="46.1123732" lon="12.1509112"><ele>392.1428571428571</ele><time>2026-05-01T11:51:57.266Z</time></trkpt><trkpt lat="46.1123489" lon="12.1508187"><ele>392.42857142857144</ele><time>2026-05-01T11:51:59.272Z</time></trkpt><trkpt lat="46.1123213" lon="12.1507261"><ele>392.7142857142857</ele><time>2026-05-01T11:52:01.271Z</time></trkpt><trkpt lat="46.1122979" lon="12.15063"><ele>393.0</ele><time>2026-05-01T11:52:03.264Z</time></trkpt><trkpt lat="46.112276" lon="12.1505349"><ele>393.00000000000006</ele><time>2026-05-01T11:52:05.27Z</time></trkpt><trkpt lat="46.1122567" lon="12.1504374"><ele>393.0</ele><time>2026-05-01T11:52:07.272Z</time></trkpt><trkpt lat="46.1122367" lon="12.150344"><ele>393.0</ele><time>2026-05-01T11:52:09.262Z</time></trkpt><trkpt lat="46.1122132" lon="12.1502495"><ele>393.0</ele><time>2026-05-01T11:52:11.27Z</time></trkpt><trkpt lat="46.112194" lon="12.1501543"><ele>393.0</ele><time>2026-05-01T11:52:13.264Z</time></trkpt><trkpt lat="46.1121754" lon="12.1500587"><ele>393.00000000000006</ele><time>2026-05-01T11:52:15.271Z</time></trkpt><trkpt lat="46.1121567" lon="12.1499638"><ele>393.0</ele><time>2026-05-01T11:52:17.273Z</time></trkpt><trkpt lat="46.1121316" lon="12.149871"><ele>394.14285714285717</ele><time>2026-05-01T11:52:19.271Z</time></trkpt><trkpt lat="46.112108" lon="12.1497746"><ele>395.2857142857143</ele><time>2026-05-01T11:52:21.268Z</time></trkpt><trkpt lat="46.1120868" lon="12.1496777"><ele>396.42857142857144</ele><time>2026-05-01T11:52:23.271Z</time></trkpt><trkpt lat="46.112062" lon="12.1495821"><ele>397.57142857142856</ele><time>2026-05-01T11:52:25.273Z</time></trkpt><trkpt lat="46.112039" lon="12.1494865"><ele>398.7142857142857</ele><time>2026-05-01T11:52:27.269Z</time></trkpt><trkpt lat="46.1120227" lon="12.1493838"><ele>399.8571428571429</ele><time>2026-05-01T11:52:29.263Z</time></trkpt><trkpt lat="46.1120021" lon="12.1492831"><ele>401.0</ele><time>2026-05-01T11:52:31.277Z</time></trkpt><trkpt lat="46.1119847" lon="12.1491786"><ele>400.99999999999994</ele><time>2026-05-01T11:52:33.264Z</time></trkpt><trkpt lat="46.111967" lon="12.1490809"><ele>401.0</ele><time>2026-05-01T11:52:35.268Z</time></trkpt><trkpt lat="46.1119455" lon="12.1489771"><ele>401.0</ele><time>2026-05-01T11:52:37.27Z</time></trkpt><trkpt lat="46.1119262" lon="12.1488683"><ele>401.0</ele><time>2026-05-01T11:52:39.272Z</time></trkpt><trkpt lat="46.1119027" lon="12.1487555"><ele>400.99999999999994</ele><time>2026-05-01T11:52:41.268Z</time></trkpt><trkpt lat="46.1118788" lon="12.1486399"><ele>401.0</ele><time>2026-05-01T11:52:43.272Z</time></trkpt><trkpt lat="46.1118546" lon="12.148523"><ele>401.16666666666663</ele><time>2026-05-01T11:52:45.273Z</time></trkpt><trkpt lat="46.111828" lon="12.1484032"><ele>401.3333333333333</ele><time>2026-05-01T11:52:47.263Z</time></trkpt><trkpt lat="46.1118039" lon="12.1482822"><ele>401.5</ele><time>2026-05-01T11:52:49.268Z</time></trkpt><trkpt lat="46.1117807" lon="12.1481635"><ele>401.66666666666663</ele><time>2026-05-01T11:52:51.273Z</time></trkpt><trkpt lat="46.1117551" lon="12.1480413"><ele>401.8333333333333</ele><time>2026-05-01T11:52:53.265Z</time></trkpt><trkpt lat="46.1117311" lon="12.1479201"><ele>402.0</ele><time>2026-05-01T11:52:55.278Z</time></trkpt><trkpt lat="46.1117061" lon="12.1478"><ele>402.0</ele><time>2026-05-01T11:52:57.272Z</time></trkpt><trkpt lat="46.1116819" lon="12.1476783"><ele>402.0</ele><time>2026-05-01T11:52:59.272Z</time></trkpt><trkpt lat="46.1116579" lon="12.1475547"><ele>402.0</ele><time>2026-05-01T11:53:01.272Z</time></trkpt><trkpt lat="46.1116342" lon="12.1474314"><ele>402.0</ele><time>2026-05-01T11:53:03.271Z</time></trkpt><trkpt lat="46.1116077" lon="12.14731"><ele>402.0</ele><time>2026-05-01T11:53:05.268Z</time></trkpt><trkpt lat="46.1115843" lon="12.1471865"><ele>402.0</ele><time>2026-05-01T11:53:07.275Z</time></trkpt><trkpt lat="46.1115586" lon="12.1470633"><ele>402.1666666666667</ele><time>2026-05-01T11:53:09.272Z</time></trkpt><trkpt lat="46.1115348" lon="12.146943"><ele>402.33333333333337</ele><time>2026-05-01T11:53:11.274Z</time></trkpt><trkpt lat="46.111511" lon="12.1468205"><ele>402.5</ele><time>2026-05-01T11:53:13.271Z</time></trkpt><trkpt lat="46.1114888" lon="12.1466964"><ele>402.6666666666667</ele><time>2026-05-01T11:53:15.272Z</time></trkpt><trkpt lat="46.1114683" lon="12.1465724"><ele>402.83333333333337</ele><time>2026-05-01T11:53:17.274Z</time></trkpt><trkpt lat="46.111447" lon="12.1464544"><ele>403.0</ele><time>2026-05-01T11:53:19.271Z</time></trkpt><trkpt lat="46.1114239" lon="12.1463478"><ele>403.00000000000006</ele><time>2026-05-01T11:53:21.266Z</time></trkpt><trkpt lat="46.1113996" lon="12.1462339"><ele>403.0</ele><time>2026-05-01T11:53:24.273Z</time></trkpt><trkpt lat="46.1114084" lon="12.146381"><ele>403.0</ele><time>2026-05-01T11:53:30.263Z</time></trkpt><trkpt lat="46.1114336" lon="12.1465042"><ele>403.0</ele><time>2026-05-01T11:53:32.272Z</time></trkpt><trkpt lat="46.1114555" lon="12.1466204"><ele>403.00000000000006</ele><time>2026-05-01T11:53:34.272Z</time></trkpt><trkpt lat="46.1114754" lon="12.1467451"><ele>403.0</ele><time>2026-05-01T11:53:37.267Z</time></trkpt><trkpt lat="46.1115035" lon="12.1468451"><ele>403.14285714285717</ele><time>2026-05-01T11:53:40.272Z</time></trkpt><trkpt lat="46.1115401" lon="12.1469544"><ele>403.2857142857143</ele><time>2026-05-01T11:53:44.277Z</time></trkpt><trkpt lat="46.1115705" lon="12.1470596"><ele>403.42857142857144</ele><time>2026-05-01T11:53:47.271Z</time></trkpt><trkpt lat="46.1115862" lon="12.1471497"><ele>403.57142857142856</ele><time>2026-05-01T11:53:49.272Z</time></trkpt><trkpt lat="46.1116033" lon="12.1472393"><ele>403.71428571428567</ele><time>2026-05-01T11:53:51.27Z</time></trkpt><trkpt lat="46.1116245" lon="12.1473392"><ele>403.85714285714283</ele><time>2026-05-01T11:53:53.265Z</time></trkpt><trkpt lat="46.1116477" lon="12.1474458"><ele>404.0</ele><time>2026-05-01T11:53:55.271Z</time></trkpt><trkpt lat="46.1116705" lon="12.1475647"><ele>404.0</ele><time>2026-05-01T11:53:57.271Z</time></trkpt><trkpt lat="46.1116929" lon="12.1476949"><ele>404.0</ele><time>2026-05-01T11:53:59.269Z</time></trkpt><trkpt lat="46.11172" lon="12.1478294"><ele>404.0</ele><time>2026-05-01T11:54:01.267Z</time></trkpt><trkpt lat="46.1117494" lon="12.1479663"><ele>404.0</ele><time>2026-05-01T11:54:03.272Z</time></trkpt><trkpt lat="46.1117805" lon="12.1481157"><ele>404.0</ele><time>2026-05-01T11:54:05.273Z</time></trkpt><trkpt lat="46.1118106" lon="12.1482627"><ele>404.0</ele><time>2026-05-01T11:54:07.27Z</time></trkpt><trkpt lat="46.11184" lon="12.1484106"><ele>404.0</ele><time>2026-05-01T11:54:09.268Z</time></trkpt><trkpt lat="46.1118741" lon="12.1485605"><ele>404.0</ele><time>2026-05-01T11:54:11.27Z</time></trkpt><trkpt lat="46.1119042" lon="12.1487017"><ele>404.0</ele><time>2026-05-01T11:54:13.272Z</time></trkpt><trkpt lat="46.1119312" lon="12.1488413"><ele>404.0</ele><time>2026-05-01T11:54:15.27Z</time></trkpt><trkpt lat="46.1119587" lon="12.1489659"><ele>403.4</ele><time>2026-05-01T11:54:17.267Z</time></trkpt><trkpt lat="46.1119878" lon="12.1491054"><ele>402.79999999999995</ele><time>2026-05-01T11:54:19.271Z</time></trkpt><trkpt lat="46.1120205" lon="12.1492292"><ele>402.20000000000005</ele><time>2026-05-01T11:54:21.271Z</time></trkpt><trkpt lat="46.1120443" lon="12.1493775"><ele>401.6</ele><time>2026-05-01T11:54:23.264Z</time></trkpt><trkpt lat="46.1120752" lon="12.149526"><ele>401.0</ele><time>2026-05-01T11:54:25.265Z</time></trkpt><trkpt lat="46.1121015" lon="12.149672"><ele>401.0</ele><time>2026-05-01T11:54:27.268Z</time></trkpt><trkpt lat="46.1121304" lon="12.149813"><ele>401.0</ele><time>2026-05-01T11:54:29.27Z</time></trkpt><trkpt lat="46.1121615" lon="12.1499594"><ele>401.0</ele><time>2026-05-01T11:54:31.272Z</time></trkpt><trkpt lat="46.112199" lon="12.1501092"><ele>401.0</ele><time>2026-05-01T11:54:33.265Z</time></trkpt><trkpt lat="46.1122324" lon="12.1502669"><ele>401.0</ele><time>2026-05-01T11:54:35.27Z</time></trkpt><trkpt lat="46.1122639" lon="12.1504198"><ele>399.0</ele><time>2026-05-01T11:54:37.388Z</time></trkpt><trkpt lat="46.1122999" lon="12.1505759"><ele>397.0</ele><time>2026-05-01T11:54:39.266Z</time></trkpt><trkpt lat="46.1123336" lon="12.1507335"><ele>395.0</ele><time>2026-05-01T11:54:41.272Z</time></trkpt><trkpt lat="46.1123703" lon="12.1508956"><ele>393.0</ele><time>2026-05-01T11:54:43.266Z</time></trkpt><trkpt lat="46.1124103" lon="12.1510588"><ele>393.0</ele><time>2026-05-01T11:54:45.271Z</time></trkpt><trkpt lat="46.1124532" lon="12.1512268"><ele>393.0</ele><time>2026-05-01T11:54:47.271Z</time></trkpt><trkpt lat="46.1124792" lon="12.1513115"><ele>393.0</ele><time>2026-05-01T11:54:48.272Z</time></trkpt><trkpt lat="46.1125308" lon="12.1514714"><ele>393.0</ele><time>2026-05-01T11:54:50.272Z</time></trkpt><trkpt lat="46.1125786" lon="12.1516262"><ele>393.0</ele><time>2026-05-01T11:54:52.271Z</time></trkpt><trkpt lat="46.1126347" lon="12.1517789"><ele>392.7142857142857</ele><time>2026-05-01T11:54:54.272Z</time></trkpt><trkpt lat="46.1126633" lon="12.1518623"><ele>392.42857142857144</ele><time>2026-05-01T11:54:55.271Z</time></trkpt><trkpt lat="46.1126923" lon="12.1519495"><ele>392.1428571428571</ele><time>2026-05-01T11:54:56.27Z</time></trkpt><trkpt lat="46.1127212" lon="12.1520351"><ele>391.8571428571429</ele><time>2026-05-01T11:54:57.264Z</time></trkpt><trkpt lat="46.1127536" lon="12.1521206"><ele>391.57142857142856</ele><time>2026-05-01T11:54:58.271Z</time></trkpt><trkpt lat="46.1127899" lon="12.1521988"><ele>391.2857142857143</ele><time>2026-05-01T11:54:59.273Z</time></trkpt><trkpt lat="46.1128219" lon="12.1522844"><ele>391.0</ele><time>2026-05-01T11:55:00.263Z</time></trkpt><trkpt lat="46.112858" lon="12.1523715"><ele>390.33333333333337</ele><time>2026-05-01T11:55:01.27Z</time></trkpt><trkpt lat="46.1128906" lon="12.1524584"><ele>389.6666666666667</ele><time>2026-05-01T11:55:02.271Z</time></trkpt><trkpt lat="46.1129249" lon="12.1525386"><ele>389.0</ele><time>2026-05-01T11:55:03.268Z</time></trkpt><trkpt lat="46.1129556" lon="12.1526181"><ele>388.33333333333337</ele><time>2026-05-01T11:55:04.272Z</time></trkpt><trkpt lat="46.1130214" lon="12.1527785"><ele>387.6666666666667</ele><time>2026-05-01T11:55:06.263Z</time></trkpt><trkpt lat="46.1130543" lon="12.15286"><ele>387.0</ele><time>2026-05-01T11:55:07.271Z</time></trkpt><trkpt lat="46.1130889" lon="12.1529477"><ele>387.0</ele><time>2026-05-01T11:55:08.261Z</time></trkpt><trkpt lat="46.1131261" lon="12.1530373"><ele>387.0</ele><time>2026-05-01T11:55:09.296Z</time></trkpt><trkpt lat="46.113161" lon="12.1531296"><ele>387.0</ele><time>2026-05-01T11:55:10.265Z</time></trkpt><trkpt lat="46.1131977" lon="12.153218"><ele>387.0</ele><time>2026-05-01T11:55:11.272Z</time></trkpt><trkpt lat="46.1132334" lon="12.1533041"><ele>387.0</ele><time>2026-05-01T11:55:12.271Z</time></trkpt><trkpt lat="46.1132709" lon="12.1533906"><ele>387.0</ele><time>2026-05-01T11:55:13.266Z</time></trkpt><trkpt lat="46.113304" lon="12.1534797"><ele>387.0</ele><time>2026-05-01T11:55:14.274Z</time></trkpt><trkpt lat="46.1133435" lon="12.1535666"><ele>386.7142857142857</ele><time>2026-05-01T11:55:15.272Z</time></trkpt><trkpt lat="46.1133803" lon="12.1536455"><ele>386.42857142857144</ele><time>2026-05-01T11:55:16.273Z</time></trkpt><trkpt lat="46.1134171" lon="12.153728"><ele>386.1428571428571</ele><time>2026-05-01T11:55:17.273Z</time></trkpt><trkpt lat="46.1134527" lon="12.1538114"><ele>385.8571428571429</ele><time>2026-05-01T11:55:18.273Z</time></trkpt><trkpt lat="46.1134887" lon="12.153896"><ele>385.57142857142856</ele><time>2026-05-01T11:55:19.274Z</time></trkpt><trkpt lat="46.1135234" lon="12.1539836"><ele>385.2857142857143</ele><time>2026-05-01T11:55:20.271Z</time></trkpt><trkpt lat="46.1135611" lon="12.1540691"><ele>385.0</ele><time>2026-05-01T11:55:21.267Z</time></trkpt><trkpt lat="46.1135948" lon="12.1541492"><ele>384.8</ele><time>2026-05-01T11:55:22.271Z</time></trkpt><trkpt lat="46.1136274" lon="12.1542295"><ele>384.6</ele><time>2026-05-01T11:55:23.271Z</time></trkpt><trkpt lat="46.1136913" lon="12.154383"><ele>384.4</ele><time>2026-05-01T11:55:25.272Z</time></trkpt><trkpt lat="46.1137526" lon="12.1545167"><ele>384.2</ele><time>2026-05-01T11:55:27.271Z</time></trkpt><trkpt lat="46.1138114" lon="12.1546438"><ele>384.0</ele><time>2026-05-01T11:55:29.266Z</time></trkpt><trkpt lat="46.1138687" lon="12.1547684"><ele>384.0</ele><time>2026-05-01T11:55:31.26Z</time></trkpt><trkpt lat="46.1139262" lon="12.1548834"><ele>384.0</ele><time>2026-05-01T11:55:33.271Z</time></trkpt><trkpt lat="46.1139783" lon="12.1549931"><ele>384.0</ele><time>2026-05-01T11:55:35.268Z</time></trkpt><trkpt lat="46.1139609" lon="12.1551203"><ele>384.0</ele><time>2026-05-01T11:55:37.266Z</time></trkpt><trkpt lat="46.1138638" lon="12.155192"><ele>384.0</ele><time>2026-05-01T11:55:39.287Z</time></trkpt><trkpt lat="46.1138011" lon="12.1552306"><ele>383.99999999999994</ele><time>2026-05-01T11:55:40.271Z</time></trkpt><trkpt lat="46.1137385" lon="12.1552702"><ele>384.0</ele><time>2026-05-01T11:55:41.273Z</time></trkpt><trkpt lat="46.1136726" lon="12.1553067"><ele>384.0</ele><time>2026-05-01T11:55:42.27Z</time></trkpt><trkpt lat="46.1136091" lon="12.1553428"><ele>384.0</ele><time>2026-05-01T11:55:43.266Z</time></trkpt><trkpt lat="46.1135438" lon="12.155375"><ele>384.0</ele><time>2026-05-01T11:55:44.275Z</time></trkpt><trkpt lat="46.1134809" lon="12.1554088"><ele>383.99999999999994</ele><time>2026-05-01T11:55:45.264Z</time></trkpt><trkpt lat="46.1134177" lon="12.1554477"><ele>384.0</ele><time>2026-05-01T11:55:46.269Z</time></trkpt><trkpt lat="46.1133558" lon="12.155483"><ele>383.99999999999994</ele><time>2026-05-01T11:55:47.272Z</time></trkpt><trkpt lat="46.1132957" lon="12.1555142"><ele>384.0</ele><time>2026-05-01T11:55:48.264Z</time></trkpt><trkpt lat="46.1132344" lon="12.1555413"><ele>384.0</ele><time>2026-05-01T11:55:49.269Z</time></trkpt><trkpt lat="46.1131722" lon="12.1555741"><ele>384.0</ele><time>2026-05-01T11:55:50.27Z</time></trkpt><trkpt lat="46.1131109" lon="12.155607"><ele>384.0</ele><time>2026-05-01T11:55:51.267Z</time></trkpt><trkpt lat="46.1130453" lon="12.1556351"><ele>383.99999999999994</ele><time>2026-05-01T11:55:52.271Z</time></trkpt><trkpt lat="46.1129795" lon="12.1556609"><ele>384.0</ele><time>2026-05-01T11:55:53.266Z</time></trkpt><trkpt lat="46.112914" lon="12.1556872"><ele>383.99999999999994</ele><time>2026-05-01T11:55:54.272Z</time></trkpt><trkpt lat="46.1128468" lon="12.1557078"><ele>384.0</ele><time>2026-05-01T11:55:55.272Z</time></trkpt><trkpt lat="46.1127748" lon="12.155728"><ele>384.0</ele><time>2026-05-01T11:55:56.274Z</time></trkpt><trkpt lat="46.1127038" lon="12.1557313"><ele>384.0</ele><time>2026-05-01T11:55:57.273Z</time></trkpt><trkpt lat="46.1126348" lon="12.1557272"><ele>384.0</ele><time>2026-05-01T11:55:58.273Z</time></trkpt><trkpt lat="46.1125662" lon="12.1557133"><ele>383.99999999999994</ele><time>2026-05-01T11:55:59.259Z</time></trkpt><trkpt lat="46.112496" lon="12.1557"><ele>384.0</ele><time>2026-05-01T11:56:00.27Z</time></trkpt><trkpt lat="46.1124289" lon="12.1556952"><ele>384.1428571428571</ele><time>2026-05-01T11:56:01.27Z</time></trkpt><trkpt lat="46.1123646" lon="12.1556967"><ele>384.2857142857143</ele><time>2026-05-01T11:56:02.27Z</time></trkpt><trkpt lat="46.1122977" lon="12.1557024"><ele>384.42857142857144</ele><time>2026-05-01T11:56:03.265Z</time></trkpt><trkpt lat="46.1122306" lon="12.155706"><ele>384.57142857142856</ele><time>2026-05-01T11:56:04.256Z</time></trkpt><trkpt lat="46.1121662" lon="12.1557034"><ele>384.7142857142857</ele><time>2026-05-01T11:56:05.271Z</time></trkpt><trkpt lat="46.1121022" lon="12.1557002"><ele>384.85714285714283</ele><time>2026-05-01T11:56:06.271Z</time></trkpt><trkpt lat="46.1119896" lon="12.1556527"><ele>385.0</ele><time>2026-05-01T11:56:08.263Z</time></trkpt><trkpt lat="46.1118823" lon="12.1555897"><ele>385.0</ele><time>2026-05-01T11:56:10.263Z</time></trkpt><trkpt lat="46.1117747" lon="12.1555614"><ele>385.0</ele><time>2026-05-01T11:56:12.272Z</time></trkpt><trkpt lat="46.1116714" lon="12.1555895"><ele>385.0</ele><time>2026-05-01T11:56:14.272Z</time></trkpt><trkpt lat="46.1115753" lon="12.1556405"><ele>385.0</ele><time>2026-05-01T11:56:16.27Z</time></trkpt><trkpt lat="46.1114837" lon="12.1557078"><ele>385.0</ele><time>2026-05-01T11:56:18.268Z</time></trkpt><trkpt lat="46.111399" lon="12.1557662"><ele>386.00000000000006</ele><time>2026-05-01T11:56:20.274Z</time></trkpt><trkpt lat="46.1113151" lon="12.1558147"><ele>387.0</ele><time>2026-05-01T11:56:22.27Z</time></trkpt><trkpt lat="46.1112354" lon="12.1558478"><ele>388.0</ele><time>2026-05-01T11:56:24.272Z</time></trkpt><trkpt lat="46.1111578" lon="12.1558587"><ele>389.0</ele><time>2026-05-01T11:56:26.265Z</time></trkpt><trkpt lat="46.1110902" lon="12.1558361"><ele>390.00000000000006</ele><time>2026-05-01T11:56:28.276Z</time></trkpt><trkpt lat="46.1110282" lon="12.1558037"><ele>391.0</ele><time>2026-05-01T11:56:30.272Z</time></trkpt><trkpt lat="46.1109701" lon="12.1557627"><ele>391.00000000000006</ele><time>2026-05-01T11:56:32.272Z</time></trkpt><trkpt lat="46.1108864" lon="12.1557028"><ele>391.0</ele><time>2026-05-01T11:56:35.266Z</time></trkpt><trkpt lat="46.1108086" lon="12.1556487"><ele>391.0</ele><time>2026-05-01T11:56:38.27Z</time></trkpt><trkpt lat="46.1107369" lon="12.1556775"><ele>391.0</ele><time>2026-05-01T11:56:41.263Z</time></trkpt><trkpt lat="46.1107256" lon="12.1557834"><ele>391.00000000000006</ele><time>2026-05-01T11:56:44.272Z</time></trkpt><trkpt lat="46.1107386" lon="12.1559104"><ele>391.0</ele><time>2026-05-01T11:56:47.271Z</time></trkpt><trkpt lat="46.11075" lon="12.1560018"><ele>391.00000000000006</ele><time>2026-05-01T11:56:49.267Z</time></trkpt><trkpt lat="46.1107668" lon="12.1560934"><ele>391.0</ele><time>2026-05-01T11:56:51.272Z</time></trkpt><trkpt lat="46.110785" lon="12.1561969"><ele>391.0</ele><time>2026-05-01T11:56:53.264Z</time></trkpt><trkpt lat="46.1108082" lon="12.1563057"><ele>391.0</ele><time>2026-05-01T11:56:55.271Z</time></trkpt><trkpt lat="46.1108306" lon="12.1564185"><ele>391.00000000000006</ele><time>2026-05-01T11:56:57.267Z</time></trkpt><trkpt lat="46.1108549" lon="12.1565299"><ele>391.0</ele><time>2026-05-01T11:56:59.272Z</time></trkpt><trkpt lat="46.1108796" lon="12.1566412"><ele>390.8</ele><time>2026-05-01T11:57:01.271Z</time></trkpt><trkpt lat="46.1109159" lon="12.1567542"><ele>390.6</ele><time>2026-05-01T11:57:03.271Z</time></trkpt><trkpt lat="46.110959" lon="12.1568765"><ele>390.4</ele><time>2026-05-01T11:57:05.272Z</time></trkpt><trkpt lat="46.111006" lon="12.1569983"><ele>390.2</ele><time>2026-05-01T11:57:07.377Z</time></trkpt><trkpt lat="46.1110583" lon="12.1571294"><ele>390.0</ele><time>2026-05-01T11:57:09.278Z</time></trkpt><trkpt lat="46.1111031" lon="12.1572675"><ele>389.8</ele><time>2026-05-01T11:57:11.27Z</time></trkpt><trkpt lat="46.1111528" lon="12.1574085"><ele>389.6</ele><time>2026-05-01T11:57:13.265Z</time></trkpt><trkpt lat="46.1112121" lon="12.1575597"><ele>389.4</ele><time>2026-05-01T11:57:15.273Z</time></trkpt><trkpt lat="46.1112727" lon="12.1577175"><ele>389.2</ele><time>2026-05-01T11:57:17.27Z</time></trkpt><trkpt lat="46.1113057" lon="12.1578018"><ele>389.0</ele><time>2026-05-01T11:57:18.272Z</time></trkpt><trkpt lat="46.1113366" lon="12.1578891"><ele>389.0</ele><time>2026-05-01T11:57:19.275Z</time></trkpt><trkpt lat="46.1113659" lon="12.1579728"><ele>389.0</ele><time>2026-05-01T11:57:20.273Z</time></trkpt><trkpt lat="46.1113961" lon="12.1580619"><ele>389.0</ele><time>2026-05-01T11:57:21.271Z</time></trkpt><trkpt lat="46.1114308" lon="12.1581485"><ele>389.0</ele><time>2026-05-01T11:57:22.268Z</time></trkpt><trkpt lat="46.1114661" lon="12.1582377"><ele>389.0</ele><time>2026-05-01T11:57:23.264Z</time></trkpt><trkpt lat="46.1115" lon="12.1583258"><ele>389.0</ele><time>2026-05-01T11:57:24.271Z</time></trkpt><trkpt lat="46.1115313" lon="12.1584184"><ele>389.0</ele><time>2026-05-01T11:57:25.271Z</time></trkpt><trkpt lat="46.1115667" lon="12.1585059"><ele>388.7142857142857</ele><time>2026-05-01T11:57:26.271Z</time></trkpt><trkpt lat="46.1115981" lon="12.1585926"><ele>388.4285714285714</ele><time>2026-05-01T11:57:27.271Z</time></trkpt><trkpt lat="46.1116248" lon="12.1586764"><ele>388.1428571428571</ele><time>2026-05-01T11:57:28.277Z</time></trkpt><trkpt lat="46.1116547" lon="12.1587591"><ele>387.8571428571429</ele><time>2026-05-01T11:57:29.271Z</time></trkpt><trkpt lat="46.1116841" lon="12.1588422"><ele>387.57142857142856</ele><time>2026-05-01T11:57:30.266Z</time></trkpt><trkpt lat="46.1117122" lon="12.1589303"><ele>387.2857142857143</ele><time>2026-05-01T11:57:31.27Z</time></trkpt><trkpt lat="46.1117444" lon="12.1590143"><ele>387.0</ele><time>2026-05-01T11:57:32.272Z</time></trkpt><trkpt lat="46.1117726" lon="12.1591023"><ele>386.6666666666667</ele><time>2026-05-01T11:57:33.271Z</time></trkpt><trkpt lat="46.1118045" lon="12.1591878"><ele>386.33333333333337</ele><time>2026-05-01T11:57:34.272Z</time></trkpt><trkpt lat="46.1118616" lon="12.1593516"><ele>386.0</ele><time>2026-05-01T11:57:36.263Z</time></trkpt><trkpt lat="46.111892" lon="12.1594343"><ele>385.6666666666667</ele><time>2026-05-01T11:57:37.269Z</time></trkpt><trkpt lat="46.1119221" lon="12.1595187"><ele>385.33333333333337</ele><time>2026-05-01T11:57:38.265Z</time></trkpt><trkpt lat="46.1119674" lon="12.1595878"><ele>385.0</ele><time>2026-05-01T11:57:39.271Z</time></trkpt><trkpt lat="46.1120093" lon="12.1596602"><ele>385.0</ele><time>2026-05-01T11:57:40.272Z</time></trkpt><trkpt lat="46.1121284" lon="12.1596959"><ele>385.0</ele><time>2026-05-01T11:57:42.271Z</time></trkpt><trkpt lat="46.1122417" lon="12.1596765"><ele>385.0</ele><time>2026-05-01T11:57:44.269Z</time></trkpt><trkpt lat="46.1123484" lon="12.1597223"><ele>385.0</ele><time>2026-05-01T11:57:46.264Z</time></trkpt><trkpt lat="46.1124166" lon="12.1598641"><ele>384.85714285714283</ele><time>2026-05-01T11:57:48.265Z</time></trkpt><trkpt lat="46.1124421" lon="12.1599511"><ele>384.7142857142857</ele><time>2026-05-01T11:57:49.27Z</time></trkpt><trkpt lat="46.1124653" lon="12.1600396"><ele>384.57142857142856</ele><time>2026-05-01T11:57:50.271Z</time></trkpt><trkpt lat="46.1124876" lon="12.1601249"><ele>384.42857142857144</ele><time>2026-05-01T11:57:51.272Z</time></trkpt><trkpt lat="46.1125107" lon="12.1602121"><ele>384.2857142857143</ele><time>2026-05-01T11:57:52.272Z</time></trkpt><trkpt lat="46.112535" lon="12.1602993"><ele>384.1428571428571</ele><time>2026-05-01T11:57:53.27Z</time></trkpt><trkpt lat="46.1125643" lon="12.1603872"><ele>384.0</ele><time>2026-05-01T11:57:54.265Z</time></trkpt><trkpt lat="46.1126133" lon="12.1605494"><ele>384.5</ele><time>2026-05-01T11:57:56.271Z</time></trkpt><trkpt lat="46.1126574" lon="12.1607089"><ele>385.0</ele><time>2026-05-01T11:57:58.271Z</time></trkpt><trkpt lat="46.1127011" lon="12.1608682"><ele>385.5</ele><time>2026-05-01T11:58:00.264Z</time></trkpt><trkpt lat="46.112747" lon="12.16102"><ele>386.0</ele><time>2026-05-01T11:58:02.275Z</time></trkpt><trkpt lat="46.1127916" lon="12.1611698"><ele>386.0</ele><time>2026-05-01T11:58:04.272Z</time></trkpt><trkpt lat="46.1128306" lon="12.1613249"><ele>386.0</ele><time>2026-05-01T11:58:06.272Z</time></trkpt><trkpt lat="46.1128508" lon="12.1614716"><ele>386.0</ele><time>2026-05-01T11:58:08.265Z</time></trkpt><trkpt lat="46.112862" lon="12.1616122"><ele>386.0</ele><time>2026-05-01T11:58:10.262Z</time></trkpt><trkpt lat="46.112863" lon="12.1617318"><ele>386.0</ele><time>2026-05-01T11:58:12.271Z</time></trkpt><trkpt lat="46.112867" lon="12.1618629"><ele>386.99999999999994</ele><time>2026-05-01T11:58:14.269Z</time></trkpt><trkpt lat="46.1128649" lon="12.1619564"><ele>388.0</ele><time>2026-05-01T11:58:16.273Z</time></trkpt><trkpt lat="46.112864" lon="12.1620764"><ele>389.0</ele><time>2026-05-01T11:58:18.27Z</time></trkpt><trkpt lat="46.1128543" lon="12.1622015"><ele>390.0</ele><time>2026-05-01T11:58:20.269Z</time></trkpt><trkpt lat="46.1128626" lon="12.1623098"><ele>390.99999999999994</ele><time>2026-05-01T11:58:22.265Z</time></trkpt><trkpt lat="46.1128632" lon="12.1624044"><ele>392.0</ele><time>2026-05-01T11:58:24.273Z</time></trkpt><trkpt lat="46.112862" lon="12.1625342"><ele>393.49999999999994</ele><time>2026-05-01T11:58:27.272Z</time></trkpt><trkpt lat="46.1128762" lon="12.1626608"><ele>395.0</ele><time>2026-05-01T11:58:30.278Z</time></trkpt><trkpt lat="46.1129149" lon="12.1627536"><ele>396.5</ele><time>2026-05-01T11:58:33.276Z</time></trkpt><trkpt lat="46.1129668" lon="12.1628708"><ele>398.0</ele><time>2026-05-01T11:58:36.271Z</time></trkpt><trkpt lat="46.1130149" lon="12.1629537"><ele>399.49999999999994</ele><time>2026-05-01T11:58:38.271Z</time></trkpt><trkpt lat="46.1130535" lon="12.163036"><ele>401.0</ele><time>2026-05-01T11:58:40.272Z</time></trkpt><trkpt lat="46.1130881" lon="12.1631139"><ele>401.49999999999994</ele><time>2026-05-01T11:58:42.271Z</time></trkpt><trkpt lat="46.1131319" lon="12.163232"><ele>402.0</ele><time>2026-05-01T11:58:45.273Z</time></trkpt><trkpt lat="46.1131646" lon="12.1633159"><ele>402.5</ele><time>2026-05-01T11:58:47.271Z</time></trkpt><trkpt lat="46.1131973" lon="12.163394"><ele>403.0</ele><time>2026-05-01T11:58:49.262Z</time></trkpt><trkpt lat="46.1132466" lon="12.1635058"><ele>403.49999999999994</ele><time>2026-05-01T11:58:52.274Z</time></trkpt><trkpt lat="46.1132967" lon="12.1636214"><ele>404.0</ele><time>2026-05-01T11:58:55.27Z</time></trkpt><trkpt lat="46.1133384" lon="12.1636965"><ele>402.66666666666663</ele><time>2026-05-01T11:58:57.276Z</time></trkpt><trkpt lat="46.1133888" lon="12.1638089"><ele>401.3333333333333</ele><time>2026-05-01T11:59:00.27Z</time></trkpt><trkpt lat="46.1134272" lon="12.1639153"><ele>400.0</ele><time>2026-05-01T11:59:03.272Z</time></trkpt><trkpt lat="46.1134789" lon="12.1640137"><ele>398.66666666666663</ele><time>2026-05-01T11:59:06.27Z</time></trkpt><trkpt lat="46.113516" lon="12.164089"><ele>397.3333333333333</ele><time>2026-05-01T11:59:08.27Z</time></trkpt><trkpt lat="46.1135655" lon="12.1641881"><ele>396.0</ele><time>2026-05-01T11:59:11.271Z</time></trkpt><trkpt lat="46.1136118" lon="12.1642838"><ele>396.0</ele><time>2026-05-01T11:59:14.271Z</time></trkpt><trkpt lat="46.1136515" lon="12.1643662"><ele>396.0</ele><time>2026-05-01T11:59:16.27Z</time></trkpt><trkpt lat="46.1136925" lon="12.1644402"><ele>396.0</ele><time>2026-05-01T11:59:18.264Z</time></trkpt><trkpt lat="46.1137337" lon="12.1645124"><ele>396.0</ele><time>2026-05-01T11:59:20.271Z</time></trkpt><trkpt lat="46.113778" lon="12.1645907"><ele>396.0</ele><time>2026-05-01T11:59:22.271Z</time></trkpt><trkpt lat="46.1138284" lon="12.1646622"><ele>396.0</ele><time>2026-05-01T11:59:24.27Z</time></trkpt><trkpt lat="46.1138803" lon="12.1647343"><ele>396.0</ele><time>2026-05-01T11:59:26.269Z</time></trkpt><trkpt lat="46.1139334" lon="12.1647971"><ele>396.0</ele><time>2026-05-01T11:59:28.27Z</time></trkpt><trkpt lat="46.1139896" lon="12.1648526"><ele>396.0</ele><time>2026-05-01T11:59:30.265Z</time></trkpt><trkpt lat="46.1140648" lon="12.1649305"><ele>396.0</ele><time>2026-05-01T11:59:33.264Z</time></trkpt><trkpt lat="46.1141281" lon="12.1650199"><ele>396.0</ele><time>2026-05-01T11:59:36.263Z</time></trkpt><trkpt lat="46.1141808" lon="12.1651138"><ele>396.0</ele><time>2026-05-01T11:59:39.268Z</time></trkpt><trkpt lat="46.114241" lon="12.1651985"><ele>396.0</ele><time>2026-05-01T11:59:42.267Z</time></trkpt><trkpt lat="46.1142995" lon="12.165275"><ele>396.2857142857143</ele><time>2026-05-01T11:59:45.27Z</time></trkpt><trkpt lat="46.1143551" lon="12.1653358"><ele>396.57142857142856</ele><time>2026-05-01T11:59:48.27Z</time></trkpt><trkpt lat="46.1144156" lon="12.1654025"><ele>396.85714285714283</ele><time>2026-05-01T11:59:51.268Z</time></trkpt><trkpt lat="46.1144671" lon="12.1654661"><ele>397.1428571428571</ele><time>2026-05-01T11:59:54.269Z</time></trkpt><trkpt lat="46.1145257" lon="12.165515"><ele>397.42857142857144</ele><time>2026-05-01T11:59:57.272Z</time></trkpt><trkpt lat="46.1145735" lon="12.1656004"><ele>397.71428571428567</ele><time>2026-05-01T12:00:01.272Z</time></trkpt><trkpt lat="46.1146126" lon="12.1656793"><ele>398.0</ele><time>2026-05-01T12:00:04.272Z</time></trkpt><trkpt lat="46.1146717" lon="12.165766"><ele>398.3333333333333</ele><time>2026-05-01T12:00:07.27Z</time></trkpt><trkpt lat="46.114752" lon="12.1658285"><ele>398.66666666666663</ele><time>2026-05-01T12:00:10.264Z</time></trkpt><trkpt lat="46.1148171" lon="12.165871"><ele>399.0</ele><time>2026-05-01T12:00:13.271Z</time></trkpt><trkpt lat="46.1148901" lon="12.1659231"><ele>399.33333333333337</ele><time>2026-05-01T12:00:17.271Z</time></trkpt><trkpt lat="46.1149721" lon="12.1659043"><ele>399.6666666666667</ele><time>2026-05-01T12:00:21.262Z</time></trkpt><trkpt lat="46.1150432" lon="12.1658564"><ele>400.0</ele><time>2026-05-01T12:00:24.265Z</time></trkpt><trkpt lat="46.1151102" lon="12.1658389"><ele>400.0</ele><time>2026-05-01T12:00:26.264Z</time></trkpt><trkpt lat="46.1151751" lon="12.1658278"><ele>400.0</ele><time>2026-05-01T12:00:28.271Z</time></trkpt><trkpt lat="46.1152674" lon="12.1658023"><ele>400.0</ele><time>2026-05-01T12:00:31.271Z</time></trkpt><trkpt lat="46.1153502" lon="12.1657471"><ele>400.0</ele><time>2026-05-01T12:00:34.268Z</time></trkpt><trkpt lat="46.1154345" lon="12.1656489"><ele>400.0</ele><time>2026-05-01T12:00:37.271Z</time></trkpt><trkpt lat="46.1155273" lon="12.1655967"><ele>399.2</ele><time>2026-05-01T12:00:38.271Z</time></trkpt><trkpt lat="46.1156136" lon="12.1655125"><ele>398.4</ele><time>2026-05-01T12:00:40.269Z</time></trkpt><trkpt lat="46.1157074" lon="12.1654066"><ele>397.6</ele><time>2026-05-01T12:00:42.264Z</time></trkpt><trkpt lat="46.1157712" lon="12.1653537"><ele>396.8</ele><time>2026-05-01T12:00:43.272Z</time></trkpt><trkpt lat="46.1158704" lon="12.1652993"><ele>396.0</ele><time>2026-05-01T12:00:45.27Z</time></trkpt><trkpt lat="46.1159406" lon="12.1652723"><ele>395.8</ele><time>2026-05-01T12:00:46.276Z</time></trkpt><trkpt lat="46.1160081" lon="12.1652515"><ele>395.6</ele><time>2026-05-01T12:00:47.276Z</time></trkpt><trkpt lat="46.1161246" lon="12.1651875"><ele>395.4</ele><time>2026-05-01T12:00:49.271Z</time></trkpt><trkpt lat="46.1162372" lon="12.1651147"><ele>395.2</ele><time>2026-05-01T12:00:51.269Z</time></trkpt><trkpt lat="46.1162954" lon="12.1650746"><ele>395.0</ele><time>2026-05-01T12:00:52.27Z</time></trkpt><trkpt lat="46.1163864" lon="12.1649967"><ele>395.0</ele><time>2026-05-01T12:00:54.27Z</time></trkpt><trkpt lat="46.116485" lon="12.16493"><ele>395.0</ele><time>2026-05-01T12:00:56.27Z</time></trkpt><trkpt lat="46.1165823" lon="12.1649741"><ele>395.0</ele><time>2026-05-01T12:00:58.262Z</time></trkpt><trkpt lat="46.116655" lon="12.1650375"><ele>395.0</ele><time>2026-05-01T12:01:00.27Z</time></trkpt><trkpt lat="46.1167243" lon="12.1650678"><ele>395.0</ele><time>2026-05-01T12:01:01.273Z</time></trkpt><trkpt lat="46.1168146" lon="12.1651396"><ele>395.16666666666663</ele><time>2026-05-01T12:01:03.277Z</time></trkpt><trkpt lat="46.1169133" lon="12.1651801"><ele>395.3333333333333</ele><time>2026-05-01T12:01:05.272Z</time></trkpt><trkpt lat="46.1169895" lon="12.1652323"><ele>395.5</ele><time>2026-05-01T12:01:07.269Z</time></trkpt><trkpt lat="46.1170479" lon="12.1652916"><ele>395.66666666666663</ele><time>2026-05-01T12:01:09.273Z</time></trkpt><trkpt lat="46.1171164" lon="12.1653614"><ele>395.8333333333333</ele><time>2026-05-01T12:01:11.271Z</time></trkpt><trkpt lat="46.1171653" lon="12.1654517"><ele>396.0</ele><time>2026-05-01T12:01:13.269Z</time></trkpt><trkpt lat="46.117196" lon="12.1655545"><ele>396.0</ele><time>2026-05-01T12:01:15.264Z</time></trkpt><trkpt lat="46.1172455" lon="12.1656335"><ele>396.0</ele><time>2026-05-01T12:01:17.262Z</time></trkpt><trkpt lat="46.1173103" lon="12.1656212"><ele>396.0</ele><time>2026-05-01T12:01:20.262Z</time></trkpt><trkpt lat="46.1173379" lon="12.1655078"><ele>396.0</ele><time>2026-05-01T12:01:25.272Z</time></trkpt><trkpt lat="46.1173611" lon="12.1654064"><ele>396.0</ele><time>2026-05-01T12:01:27.269Z</time></trkpt><trkpt lat="46.1173371" lon="12.1652804"><ele>396.0</ele><time>2026-05-01T12:01:29.262Z</time></trkpt><trkpt lat="46.1173125" lon="12.1651447"><ele>396.0</ele><time>2026-05-01T12:01:31.268Z</time></trkpt><trkpt lat="46.1172856" lon="12.1649954"><ele>396.0</ele><time>2026-05-01T12:01:33.271Z</time></trkpt><trkpt lat="46.1172592" lon="12.1648316"><ele>396.0</ele><time>2026-05-01T12:01:35.264Z</time></trkpt><trkpt lat="46.1172301" lon="12.164659"><ele>396.0</ele><time>2026-05-01T12:01:37.27Z</time></trkpt><trkpt lat="46.1171974" lon="12.1644939"><ele>395.5</ele><time>2026-05-01T12:01:39.269Z</time></trkpt><trkpt lat="46.1171802" lon="12.1643982"><ele>395.0</ele><time>2026-05-01T12:01:40.268Z</time></trkpt><trkpt lat="46.1171567" lon="12.1642393"><ele>394.5</ele><time>2026-05-01T12:01:42.268Z</time></trkpt><trkpt lat="46.1171666" lon="12.1640988"><ele>394.0</ele><time>2026-05-01T12:01:44.268Z</time></trkpt><trkpt lat="46.1172294" lon="12.1640435"><ele>393.5</ele><time>2026-05-01T12:01:46.272Z</time></trkpt><trkpt lat="46.1173078" lon="12.1640411"><ele>393.0</ele><time>2026-05-01T12:01:48.271Z</time></trkpt><trkpt lat="46.1173928" lon="12.1640438"><ele>394.2</ele><time>2026-05-01T12:01:50.261Z</time></trkpt><trkpt lat="46.117479" lon="12.1640473"><ele>395.4</ele><time>2026-05-01T12:01:52.272Z</time></trkpt><trkpt lat="46.1175741" lon="12.164049"><ele>396.59999999999997</ele><time>2026-05-01T12:01:54.265Z</time></trkpt><trkpt lat="46.1176688" lon="12.1640663"><ele>397.79999999999995</ele><time>2026-05-01T12:01:56.269Z</time></trkpt><trkpt lat="46.1177652" lon="12.164093"><ele>399.0</ele><time>2026-05-01T12:01:58.273Z</time></trkpt><trkpt lat="46.1178496" lon="12.1641514"><ele>399.0</ele><time>2026-05-01T12:02:00.27Z</time></trkpt><trkpt lat="46.1179336" lon="12.164234"><ele>399.0</ele><time>2026-05-01T12:02:02.271Z</time></trkpt><trkpt lat="46.1179966" lon="12.1643291"><ele>399.0</ele><time>2026-05-01T12:02:04.267Z</time></trkpt><trkpt lat="46.1180568" lon="12.1644151"><ele>399.0</ele><time>2026-05-01T12:02:06.271Z</time></trkpt><trkpt lat="46.118118" lon="12.1644781"><ele>399.0</ele><time>2026-05-01T12:02:08.264Z</time></trkpt><trkpt lat="46.1181829" lon="12.1645251"><ele>399.0</ele><time>2026-05-01T12:02:10.272Z</time></trkpt><trkpt lat="46.1182443" lon="12.1645703"><ele>398.5</ele><time>2026-05-01T12:02:12.272Z</time></trkpt><trkpt lat="46.11832" lon="12.1646054"><ele>398.0</ele><time>2026-05-01T12:02:14.272Z</time></trkpt><trkpt lat="46.1183948" lon="12.1646374"><ele>397.5</ele><time>2026-05-01T12:02:16.261Z</time></trkpt><trkpt lat="46.1184709" lon="12.1646691"><ele>397.0</ele><time>2026-05-01T12:02:18.263Z</time></trkpt><trkpt lat="46.118555" lon="12.1646991"><ele>396.5</ele><time>2026-05-01T12:02:20.263Z</time></trkpt><trkpt lat="46.118636" lon="12.1647295"><ele>396.0</ele><time>2026-05-01T12:02:22.261Z</time></trkpt><trkpt lat="46.1187181" lon="12.1647647"><ele>396.0</ele><time>2026-05-01T12:02:24.272Z</time></trkpt><trkpt lat="46.1187982" lon="12.1648239"><ele>396.0</ele><time>2026-05-01T12:02:26.272Z</time></trkpt><trkpt lat="46.1188638" lon="12.1649041"><ele>396.0</ele><time>2026-05-01T12:02:28.273Z</time></trkpt><trkpt lat="46.118924" lon="12.1649853"><ele>396.0</ele><time>2026-05-01T12:02:30.275Z</time></trkpt><trkpt lat="46.1189811" lon="12.1650677"><ele>396.0</ele><time>2026-05-01T12:02:32.269Z</time></trkpt><trkpt lat="46.1190496" lon="12.1651403"><ele>396.0</ele><time>2026-05-01T12:02:34.272Z</time></trkpt><trkpt lat="46.1191255" lon="12.165192"><ele>396.8333333333333</ele><time>2026-05-01T12:02:36.27Z</time></trkpt><trkpt lat="46.1192042" lon="12.1652114"><ele>397.66666666666663</ele><time>2026-05-01T12:02:38.271Z</time></trkpt><trkpt lat="46.1192813" lon="12.1652058"><ele>398.5</ele><time>2026-05-01T12:02:40.272Z</time></trkpt><trkpt lat="46.1193523" lon="12.1651986"><ele>399.3333333333333</ele><time>2026-05-01T12:02:42.273Z</time></trkpt><trkpt lat="46.1194267" lon="12.1652128"><ele>400.16666666666663</ele><time>2026-05-01T12:02:44.269Z</time></trkpt><trkpt lat="46.1195102" lon="12.1652341"><ele>401.0</ele><time>2026-05-01T12:02:46.269Z</time></trkpt><trkpt lat="46.1196016" lon="12.1652687"><ele>400.99999999999994</ele><time>2026-05-01T12:02:48.273Z</time></trkpt><trkpt lat="46.1196867" lon="12.1653005"><ele>401.0</ele><time>2026-05-01T12:02:50.273Z</time></trkpt><trkpt lat="46.1197657" lon="12.16534"><ele>401.0</ele><time>2026-05-01T12:02:52.269Z</time></trkpt><trkpt lat="46.1198414" lon="12.165386"><ele>401.0</ele><time>2026-05-01T12:02:54.271Z</time></trkpt><trkpt lat="46.1199131" lon="12.1654356"><ele>400.99999999999994</ele><time>2026-05-01T12:02:56.272Z</time></trkpt><trkpt lat="46.1199886" lon="12.1654558"><ele>401.0</ele><time>2026-05-01T12:02:58.272Z</time></trkpt><trkpt lat="46.1200628" lon="12.1654638"><ele>400.66666666666663</ele><time>2026-05-01T12:03:00.269Z</time></trkpt><trkpt lat="46.1201404" lon="12.1654723"><ele>400.3333333333333</ele><time>2026-05-01T12:03:02.265Z</time></trkpt><trkpt lat="46.1202159" lon="12.1654906"><ele>400.0</ele><time>2026-05-01T12:03:04.262Z</time></trkpt><trkpt lat="46.1202853" lon="12.1655222"><ele>399.66666666666663</ele><time>2026-05-01T12:03:06.274Z</time></trkpt><trkpt lat="46.1203536" lon="12.1655562"><ele>399.3333333333333</ele><time>2026-05-01T12:03:08.265Z</time></trkpt><trkpt lat="46.1204315" lon="12.1655974"><ele>399.0</ele><time>2026-05-01T12:03:10.275Z</time></trkpt><trkpt lat="46.1205094" lon="12.1656376"><ele>399.0</ele><time>2026-05-01T12:03:12.272Z</time></trkpt><trkpt lat="46.1205869" lon="12.1656724"><ele>399.0</ele><time>2026-05-01T12:03:14.271Z</time></trkpt><trkpt lat="46.1206681" lon="12.1657076"><ele>399.0</ele><time>2026-05-01T12:03:16.268Z</time></trkpt><trkpt lat="46.1207467" lon="12.1657522"><ele>399.0</ele><time>2026-05-01T12:03:18.265Z</time></trkpt><trkpt lat="46.1208156" lon="12.1657986"><ele>399.0</ele><time>2026-05-01T12:03:20.273Z</time></trkpt><trkpt lat="46.1208778" lon="12.1658423"><ele>399.0</ele><time>2026-05-01T12:03:22.272Z</time></trkpt><trkpt lat="46.120932" lon="12.1658913"><ele>399.85714285714283</ele><time>2026-05-01T12:03:24.274Z</time></trkpt><trkpt lat="46.1209863" lon="12.1659485"><ele>400.7142857142857</ele><time>2026-05-01T12:03:26.273Z</time></trkpt><trkpt lat="46.1210374" lon="12.1660142"><ele>401.57142857142856</ele><time>2026-05-01T12:03:28.263Z</time></trkpt><trkpt lat="46.1210865" lon="12.1660718"><ele>402.42857142857144</ele><time>2026-05-01T12:03:30.271Z</time></trkpt><trkpt lat="46.1211601" lon="12.1661501"><ele>403.2857142857143</ele><time>2026-05-01T12:03:33.272Z</time></trkpt><trkpt lat="46.1212323" lon="12.1662295"><ele>404.1428571428571</ele><time>2026-05-01T12:03:36.266Z</time></trkpt><trkpt lat="46.1212823" lon="12.1662867"><ele>405.0</ele><time>2026-05-01T12:03:38.271Z</time></trkpt><trkpt lat="46.1213542" lon="12.1663687"><ele>405.0</ele><time>2026-05-01T12:03:41.272Z</time></trkpt><trkpt lat="46.1214241" lon="12.1664498"><ele>405.0</ele><time>2026-05-01T12:03:44.263Z</time></trkpt><trkpt lat="46.1214732" lon="12.1665476"><ele>405.0</ele><time>2026-05-01T12:03:47.265Z</time></trkpt><trkpt lat="46.1215138" lon="12.1666293"><ele>405.0</ele><time>2026-05-01T12:03:50.271Z</time></trkpt><trkpt lat="46.1215581" lon="12.1667124"><ele>405.0</ele><time>2026-05-01T12:03:54.27Z</time></trkpt><trkpt lat="46.1215801" lon="12.1668138"><ele>405.0</ele><time>2026-05-01T12:03:58.273Z</time></trkpt><trkpt lat="46.121582" lon="12.1669174"><ele>406.5</ele><time>2026-05-01T12:04:02.268Z</time></trkpt><trkpt lat="46.1216279" lon="12.1670149"><ele>408.0</ele><time>2026-05-01T12:04:06.269Z</time></trkpt><trkpt lat="46.1216827" lon="12.1671005"><ele>409.5</ele><time>2026-05-01T12:04:10.27Z</time></trkpt><trkpt lat="46.1217425" lon="12.1671716"><ele>411.0</ele><time>2026-05-01T12:04:13.27Z</time></trkpt><trkpt lat="46.1218007" lon="12.1672337"><ele>412.5</ele><time>2026-05-01T12:04:16.272Z</time></trkpt><trkpt lat="46.1218705" lon="12.1672987"><ele>414.0</ele><time>2026-05-01T12:04:19.267Z</time></trkpt><trkpt lat="46.1219413" lon="12.1673526"><ele>414.0</ele><time>2026-05-01T12:04:22.27Z</time></trkpt><trkpt lat="46.1220157" lon="12.1674002"><ele>414.0</ele><time>2026-05-01T12:04:25.271Z</time></trkpt><trkpt lat="46.1221077" lon="12.1674591"><ele>414.0</ele><time>2026-05-01T12:04:28.263Z</time></trkpt><trkpt lat="46.1221737" lon="12.1675046"><ele>414.0</ele><time>2026-05-01T12:04:30.271Z</time></trkpt><trkpt lat="46.1222288" lon="12.1675541"><ele>414.0</ele><time>2026-05-01T12:04:32.27Z</time></trkpt><trkpt lat="46.1223087" lon="12.1675858"><ele>414.0</ele><time>2026-05-01T12:04:36.272Z</time></trkpt><trkpt lat="46.1223854" lon="12.1675353"><ele>414.3333333333333</ele><time>2026-05-01T12:04:39.268Z</time></trkpt><trkpt lat="46.1224646" lon="12.1674584"><ele>414.66666666666663</ele><time>2026-05-01T12:04:42.272Z</time></trkpt><trkpt lat="46.1225167" lon="12.1673993"><ele>415.0</ele><time>2026-05-01T12:04:44.272Z</time></trkpt><trkpt lat="46.1225747" lon="12.1673518"><ele>415.3333333333333</ele><time>2026-05-01T12:04:46.271Z</time></trkpt><trkpt lat="46.1226394" lon="12.167358"><ele>415.66666666666663</ele><time>2026-05-01T12:04:48.289Z</time></trkpt><trkpt lat="46.1227038" lon="12.1674475"><ele>416.0</ele><time>2026-05-01T12:04:51.262Z</time></trkpt><trkpt lat="46.1227523" lon="12.1675315"><ele>416.16666666666663</ele><time>2026-05-01T12:04:54.271Z</time></trkpt><trkpt lat="46.1228133" lon="12.1676015"><ele>416.3333333333333</ele><time>2026-05-01T12:04:57.272Z</time></trkpt><trkpt lat="46.122878" lon="12.1676922"><ele>416.5</ele><time>2026-05-01T12:05:00.265Z</time></trkpt><trkpt lat="46.1229286" lon="12.1677608"><ele>416.66666666666663</ele><time>2026-05-01T12:05:02.273Z</time></trkpt><trkpt lat="46.1229776" lon="12.1678311"><ele>416.8333333333333</ele><time>2026-05-01T12:05:04.27Z</time></trkpt><trkpt lat="46.1230282" lon="12.1678981"><ele>417.0</ele><time>2026-05-01T12:05:06.263Z</time></trkpt><trkpt lat="46.123095" lon="12.168006"><ele>417.0</ele><time>2026-05-01T12:05:09.262Z</time></trkpt><trkpt lat="46.123145" lon="12.1680775"><ele>417.0</ele><time>2026-05-01T12:05:11.263Z</time></trkpt><trkpt lat="46.1231894" lon="12.1681556"><ele>417.0</ele><time>2026-05-01T12:05:13.277Z</time></trkpt><trkpt lat="46.123239" lon="12.1682288"><ele>417.0</ele><time>2026-05-01T12:05:15.269Z</time></trkpt><trkpt lat="46.1232889" lon="12.1683007"><ele>417.0</ele><time>2026-05-01T12:05:17.261Z</time></trkpt><trkpt lat="46.1233421" lon="12.1683799"><ele>417.0</ele><time>2026-05-01T12:05:19.273Z</time></trkpt><trkpt lat="46.1233957" lon="12.1684519"><ele>417.0</ele><time>2026-05-01T12:05:21.272Z</time></trkpt><trkpt lat="46.1234482" lon="12.1685318"><ele>418.3333333333333</ele><time>2026-05-01T12:05:23.267Z</time></trkpt><trkpt lat="46.1235019" lon="12.1686173"><ele>419.66666666666663</ele><time>2026-05-01T12:05:25.269Z</time></trkpt><trkpt lat="46.1235523" lon="12.1687003"><ele>421.0</ele><time>2026-05-01T12:05:27.272Z</time></trkpt><trkpt lat="46.1236063" lon="12.1687725"><ele>422.3333333333333</ele><time>2026-05-01T12:05:29.271Z</time></trkpt><trkpt lat="46.1236693" lon="12.1688709"><ele>423.66666666666663</ele><time>2026-05-01T12:05:32.27Z</time></trkpt><trkpt lat="46.1237408" lon="12.168888"><ele>425.0</ele><time>2026-05-01T12:05:34.268Z</time></trkpt><trkpt lat="46.1238136" lon="12.1688607"><ele>425.0</ele><time>2026-05-01T12:05:36.274Z</time></trkpt><trkpt lat="46.1238858" lon="12.1688483"><ele>425.0</ele><time>2026-05-01T12:05:38.277Z</time></trkpt><trkpt lat="46.1239652" lon="12.1689319"><ele>425.0</ele><time>2026-05-01T12:05:41.267Z</time></trkpt><trkpt lat="46.1240315" lon="12.1690398"><ele>425.0</ele><time>2026-05-01T12:05:43.273Z</time></trkpt><trkpt lat="46.1240845" lon="12.1691489"><ele>425.0</ele><time>2026-05-01T12:05:45.274Z</time></trkpt><trkpt lat="46.1241412" lon="12.1692625"><ele>424.8333333333333</ele><time>2026-05-01T12:05:47.265Z</time></trkpt><trkpt lat="46.1242003" lon="12.1693734"><ele>424.66666666666663</ele><time>2026-05-01T12:05:49.263Z</time></trkpt><trkpt lat="46.1242611" lon="12.1694702"><ele>424.5</ele><time>2026-05-01T12:05:51.271Z</time></trkpt><trkpt lat="46.1243246" lon="12.1695605"><ele>424.33333333333337</ele><time>2026-05-01T12:05:53.274Z</time></trkpt><trkpt lat="46.1243839" lon="12.1696408"><ele>424.1666666666667</ele><time>2026-05-01T12:05:55.269Z</time></trkpt><trkpt lat="46.1244412" lon="12.1697351"><ele>424.0</ele><time>2026-05-01T12:05:57.271Z</time></trkpt><trkpt lat="46.1245128" lon="12.1698313"><ele>424.0</ele><time>2026-05-01T12:05:59.272Z</time></trkpt><trkpt lat="46.124598" lon="12.169906"><ele>424.0</ele><time>2026-05-01T12:06:01.27Z</time></trkpt><trkpt lat="46.1246796" lon="12.1699988"><ele>424.0</ele><time>2026-05-01T12:06:03.266Z</time></trkpt><trkpt lat="46.1247681" lon="12.1700962"><ele>424.0</ele><time>2026-05-01T12:06:05.268Z</time></trkpt><trkpt lat="46.1248507" lon="12.1701864"><ele>424.0</ele><time>2026-05-01T12:06:07.264Z</time></trkpt><trkpt lat="46.124936" lon="12.1702711"><ele>423.79999999999995</ele><time>2026-05-01T12:06:09.271Z</time></trkpt><trkpt lat="46.1250336" lon="12.1703356"><ele>423.59999999999997</ele><time>2026-05-01T12:06:11.26Z</time></trkpt><trkpt lat="46.1251377" lon="12.1703961"><ele>423.4</ele><time>2026-05-01T12:06:13.271Z</time></trkpt><trkpt lat="46.1252458" lon="12.1704384"><ele>423.2</ele><time>2026-05-01T12:06:15.262Z</time></trkpt><trkpt lat="46.1253478" lon="12.1704026"><ele>423.0</ele><time>2026-05-01T12:06:17.271Z</time></trkpt><trkpt lat="46.1254299" lon="12.1703113"><ele>423.0</ele><time>2026-05-01T12:06:19.27Z</time></trkpt><trkpt lat="46.1255025" lon="12.1702088"><ele>423.0</ele><time>2026-05-01T12:06:21.275Z</time></trkpt><trkpt lat="46.1255772" lon="12.170107"><ele>423.0</ele><time>2026-05-01T12:06:23.255Z</time></trkpt><trkpt lat="46.1256559" lon="12.1700077"><ele>423.0</ele><time>2026-05-01T12:06:25.273Z</time></trkpt><trkpt lat="46.1257341" lon="12.1698991"><ele>423.0</ele><time>2026-05-01T12:06:27.275Z</time></trkpt><trkpt lat="46.1258053" lon="12.1697973"><ele>423.6666666666667</ele><time>2026-05-01T12:06:29.274Z</time></trkpt><trkpt lat="46.1258775" lon="12.1697075"><ele>424.33333333333337</ele><time>2026-05-01T12:06:31.388Z</time></trkpt><trkpt lat="46.1259503" lon="12.1696353"><ele>425.0</ele><time>2026-05-01T12:06:33.262Z</time></trkpt><trkpt lat="46.1260077" lon="12.1695554"><ele>425.6666666666667</ele><time>2026-05-01T12:06:35.266Z</time></trkpt><trkpt lat="46.1260607" lon="12.1694829"><ele>426.33333333333337</ele><time>2026-05-01T12:06:37.263Z</time></trkpt><trkpt lat="46.1261153" lon="12.1694191"><ele>427.0</ele><time>2026-05-01T12:06:39.271Z</time></trkpt><trkpt lat="46.1261678" lon="12.1693668"><ele>427.0</ele><time>2026-05-01T12:06:42.271Z</time></trkpt><trkpt lat="46.1262217" lon="12.169463"><ele>427.00000000000006</ele><time>2026-05-01T12:06:56.268Z</time></trkpt><trkpt lat="46.1262506" lon="12.1695686"><ele>427.00000000000006</ele><time>2026-05-01T12:06:58.27Z</time></trkpt><trkpt lat="46.126289" lon="12.1696819"><ele>427.0</ele><time>2026-05-01T12:07:00.277Z</time></trkpt><trkpt lat="46.1263345" lon="12.1698039"><ele>427.0</ele><time>2026-05-01T12:07:02.271Z</time></trkpt><trkpt lat="46.1263826" lon="12.1699341"><ele>426.6</ele><time>2026-05-01T12:07:04.269Z</time></trkpt><trkpt lat="46.1264214" lon="12.1700764"><ele>426.20000000000005</ele><time>2026-05-01T12:07:06.272Z</time></trkpt><trkpt lat="46.1264666" lon="12.1702232"><ele>425.8</ele><time>2026-05-01T12:07:08.271Z</time></trkpt><trkpt lat="46.1265042" lon="12.1703679"><ele>425.4</ele><time>2026-05-01T12:07:10.268Z</time></trkpt><trkpt lat="46.1265432" lon="12.1705103"><ele>425.0</ele><time>2026-05-01T12:07:12.27Z</time></trkpt><trkpt lat="46.1265763" lon="12.1706524"><ele>425.75</ele><time>2026-05-01T12:07:14.27Z</time></trkpt><trkpt lat="46.1266158" lon="12.1708041"><ele>426.5</ele><time>2026-05-01T12:07:16.269Z</time></trkpt><trkpt lat="46.1266466" lon="12.1709567"><ele>427.25</ele><time>2026-05-01T12:07:18.272Z</time></trkpt><trkpt lat="46.126647" lon="12.1711241"><ele>428.0</ele><time>2026-05-01T12:07:20.273Z</time></trkpt><trkpt lat="46.1265773" lon="12.1712604"><ele>428.0</ele><time>2026-05-01T12:07:22.272Z</time></trkpt><trkpt lat="46.1264923" lon="12.1713622"><ele>427.99999999999994</ele><time>2026-05-01T12:07:24.27Z</time></trkpt><trkpt lat="46.1264054" lon="12.171482"><ele>427.99999999999994</ele><time>2026-05-01T12:07:26.269Z</time></trkpt><trkpt lat="46.1263627" lon="12.1716319"><ele>428.0</ele><time>2026-05-01T12:07:28.269Z</time></trkpt><trkpt lat="46.1263583" lon="12.1717818"><ele>428.0</ele><time>2026-05-01T12:07:30.271Z</time></trkpt><trkpt lat="46.1263565" lon="12.1719196"><ele>428.0</ele><time>2026-05-01T12:07:32.271Z</time></trkpt><trkpt lat="46.1262889" lon="12.1719883"><ele>427.99999999999994</ele><time>2026-05-01T12:07:34.269Z</time></trkpt><trkpt lat="46.1261978" lon="12.1720279"><ele>427.99999999999994</ele><time>2026-05-01T12:07:36.275Z</time></trkpt><trkpt lat="46.1261019" lon="12.17206"><ele>428.0</ele><time>2026-05-01T12:07:38.27Z</time></trkpt><trkpt lat="46.1260014" lon="12.1720948"><ele>428.0</ele><time>2026-05-01T12:07:40.271Z</time></trkpt><trkpt lat="46.1259151" lon="12.1721266"><ele>428.0</ele><time>2026-05-01T12:07:42.265Z</time></trkpt><trkpt lat="46.1258314" lon="12.172192"><ele>427.99999999999994</ele><time>2026-05-01T12:07:44.276Z</time></trkpt><trkpt lat="46.1258135" lon="12.1723174"><ele>427.99999999999994</ele><time>2026-05-01T12:07:46.268Z</time></trkpt><trkpt lat="46.12582" lon="12.1724637"><ele>428.0</ele><time>2026-05-01T12:07:48.262Z</time></trkpt><trkpt lat="46.1258281" lon="12.1725922"><ele>428.0</ele><time>2026-05-01T12:07:50.265Z</time></trkpt><trkpt lat="46.125831" lon="12.1727439"><ele>428.2</ele><time>2026-05-01T12:07:52.269Z</time></trkpt><trkpt lat="46.1258367" lon="12.1729002"><ele>428.4</ele><time>2026-05-01T12:07:54.271Z</time></trkpt><trkpt lat="46.1258082" lon="12.1730507"><ele>428.59999999999997</ele><time>2026-05-01T12:07:56.27Z</time></trkpt><trkpt lat="46.1257655" lon="12.1732122"><ele>428.79999999999995</ele><time>2026-05-01T12:07:58.262Z</time></trkpt><trkpt lat="46.1257375" lon="12.1732972"><ele>429.0</ele><time>2026-05-01T12:07:59.271Z</time></trkpt><trkpt lat="46.125685" lon="12.1734591"><ele>428.0</ele><time>2026-05-01T12:08:01.271Z</time></trkpt><trkpt lat="46.1256299" lon="12.1735928"><ele>427.0</ele><time>2026-05-01T12:08:03.266Z</time></trkpt><trkpt lat="46.1255735" lon="12.1737144"><ele>426.0</ele><time>2026-05-01T12:08:05.257Z</time></trkpt><trkpt lat="46.1255404" lon="12.173834"><ele>425.0</ele><time>2026-05-01T12:08:07.264Z</time></trkpt><trkpt lat="46.1255953" lon="12.1739164"><ele>424.0</ele><time>2026-05-01T12:08:09.268Z</time></trkpt><trkpt lat="46.1256713" lon="12.1739841"><ele>423.79999999999995</ele><time>2026-05-01T12:08:11.261Z</time></trkpt><trkpt lat="46.1257533" lon="12.1740516"><ele>423.59999999999997</ele><time>2026-05-01T12:08:13.265Z</time></trkpt><trkpt lat="46.1258539" lon="12.1740953"><ele>423.4</ele><time>2026-05-01T12:08:15.276Z</time></trkpt><trkpt lat="46.1259659" lon="12.1741055"><ele>423.2</ele><time>2026-05-01T12:08:17.271Z</time></trkpt><trkpt lat="46.1260774" lon="12.1741103"><ele>423.0</ele><time>2026-05-01T12:08:19.269Z</time></trkpt><trkpt lat="46.1261864" lon="12.1741355"><ele>423.0</ele><time>2026-05-01T12:08:21.377Z</time></trkpt><trkpt lat="46.1262919" lon="12.1741771"><ele>423.0</ele><time>2026-05-01T12:08:23.271Z</time></trkpt><trkpt lat="46.1263919" lon="12.1742463"><ele>423.0</ele><time>2026-05-01T12:08:25.268Z</time></trkpt><trkpt lat="46.126482" lon="12.1743335"><ele>423.0</ele><time>2026-05-01T12:08:27.266Z</time></trkpt><trkpt lat="46.1265512" lon="12.1744475"><ele>423.0</ele><time>2026-05-01T12:08:29.27Z</time></trkpt><trkpt lat="46.1266279" lon="12.1745533"><ele>423.3333333333333</ele><time>2026-05-01T12:08:31.269Z</time></trkpt><trkpt lat="46.1267036" lon="12.174657"><ele>423.66666666666663</ele><time>2026-05-01T12:08:33.268Z</time></trkpt><trkpt lat="46.1267827" lon="12.1747453"><ele>424.0</ele><time>2026-05-01T12:08:35.267Z</time></trkpt><trkpt lat="46.1268399" lon="12.1747851"><ele>424.3333333333333</ele><time>2026-05-01T12:08:37.265Z</time></trkpt><trkpt lat="46.1268865" lon="12.1747232"><ele>424.66666666666663</ele><time>2026-05-01T12:08:41.271Z</time></trkpt><trkpt lat="46.1269451" lon="12.1746587"><ele>425.0</ele><time>2026-05-01T12:08:44.268Z</time></trkpt><trkpt lat="46.1270048" lon="12.174601"><ele>424.99999999999994</ele><time>2026-05-01T12:08:46.271Z</time></trkpt><trkpt lat="46.1270684" lon="12.1745445"><ele>425.0</ele><time>2026-05-01T12:08:48.265Z</time></trkpt><trkpt lat="46.1271338" lon="12.1744785"><ele>425.0</ele><time>2026-05-01T12:08:50.271Z</time></trkpt><trkpt lat="46.1272028" lon="12.1744099"><ele>425.0</ele><time>2026-05-01T12:08:52.268Z</time></trkpt><trkpt lat="46.1272714" lon="12.1743337"><ele>424.99999999999994</ele><time>2026-05-01T12:08:54.263Z</time></trkpt><trkpt lat="46.1273376" lon="12.174252"><ele>425.0</ele><time>2026-05-01T12:08:56.271Z</time></trkpt><trkpt lat="46.1273988" lon="12.1741671"><ele>426.0</ele><time>2026-05-01T12:08:58.262Z</time></trkpt><trkpt lat="46.1274568" lon="12.1740807"><ele>427.0</ele><time>2026-05-01T12:09:00.27Z</time></trkpt><trkpt lat="46.1275118" lon="12.1739858"><ele>428.0</ele><time>2026-05-01T12:09:02.27Z</time></trkpt><trkpt lat="46.1275635" lon="12.1738824"><ele>429.0</ele><time>2026-05-01T12:09:04.27Z</time></trkpt><trkpt lat="46.1276116" lon="12.1737623"><ele>430.0</ele><time>2026-05-01T12:09:06.277Z</time></trkpt><trkpt lat="46.127663" lon="12.1736377"><ele>429.8</ele><time>2026-05-01T12:09:08.279Z</time></trkpt><trkpt lat="46.127729" lon="12.1735199"><ele>429.6</ele><time>2026-05-01T12:09:10.286Z</time></trkpt><trkpt lat="46.1278005" lon="12.1734277"><ele>429.4</ele><time>2026-05-01T12:09:12.271Z</time></trkpt><trkpt lat="46.1278768" lon="12.1733431"><ele>429.2</ele><time>2026-05-01T12:09:14.264Z</time></trkpt><trkpt lat="46.1279451" lon="12.1732458"><ele>429.0</ele><time>2026-05-01T12:09:16.27Z</time></trkpt><trkpt lat="46.1280065" lon="12.1731461"><ele>429.0</ele><time>2026-05-01T12:09:18.27Z</time></trkpt><trkpt lat="46.1280663" lon="12.1730318"><ele>429.0</ele><time>2026-05-01T12:09:20.27Z</time></trkpt><trkpt lat="46.1281358" lon="12.1729558"><ele>429.0</ele><time>2026-05-01T12:09:22.27Z</time></trkpt><trkpt lat="46.1282277" lon="12.1729158"><ele>429.0</ele><time>2026-05-01T12:09:24.269Z</time></trkpt><trkpt lat="46.128316" lon="12.1729048"><ele>429.0</ele><time>2026-05-01T12:09:26.268Z</time></trkpt><trkpt lat="46.1284178" lon="12.1729172"><ele>429.5</ele><time>2026-05-01T12:09:28.271Z</time></trkpt><trkpt lat="46.1285051" lon="12.1729325"><ele>430.0</ele><time>2026-05-01T12:09:30.268Z</time></trkpt><trkpt lat="46.1285851" lon="12.1729663"><ele>430.5</ele><time>2026-05-01T12:09:32.258Z</time></trkpt><trkpt lat="46.128662" lon="12.1729959"><ele>431.0</ele><time>2026-05-01T12:09:34.272Z</time></trkpt><trkpt lat="46.1287314" lon="12.1730347"><ele>431.5</ele><time>2026-05-01T12:09:36.264Z</time></trkpt><trkpt lat="46.1288081" lon="12.173075"><ele>432.0</ele><time>2026-05-01T12:09:38.27Z</time></trkpt><trkpt lat="46.1288847" lon="12.1731043"><ele>432.0</ele><time>2026-05-01T12:09:40.266Z</time></trkpt><trkpt lat="46.1289546" lon="12.1731455"><ele>432.0</ele><time>2026-05-01T12:09:42.271Z</time></trkpt><trkpt lat="46.1290302" lon="12.1731743"><ele>432.0</ele><time>2026-05-01T12:09:45.262Z</time></trkpt><trkpt lat="46.1289585" lon="12.1731488"><ele>432.0</ele><time>2026-05-01T12:10:04.269Z</time></trkpt><trkpt lat="46.1289109" lon="12.1730476"><ele>432.0</ele><time>2026-05-01T12:10:07.271Z</time></trkpt><trkpt lat="46.1289647" lon="12.1729472"><ele>432.0</ele><time>2026-05-01T12:10:09.27Z</time></trkpt><trkpt lat="46.1290082" lon="12.1728468"><ele>433.3333333333333</ele><time>2026-05-01T12:10:11.269Z</time></trkpt><trkpt lat="46.1290603" lon="12.1727619"><ele>434.66666666666663</ele><time>2026-05-01T12:10:13.269Z</time></trkpt><trkpt lat="46.1291003" lon="12.1726806"><ele>436.0</ele><time>2026-05-01T12:10:15.269Z</time></trkpt><trkpt lat="46.1291523" lon="12.1726139"><ele>437.3333333333333</ele><time>2026-05-01T12:10:17.268Z</time></trkpt><trkpt lat="46.129234" lon="12.1725493"><ele>438.66666666666663</ele><time>2026-05-01T12:10:19.271Z</time></trkpt><trkpt lat="46.1293152" lon="12.1725004"><ele>440.0</ele><time>2026-05-01T12:10:22.269Z</time></trkpt><trkpt lat="46.1293936" lon="12.1724562"><ele>439.99999999999994</ele><time>2026-05-01T12:10:25.27Z</time></trkpt><trkpt lat="46.1294795" lon="12.1724062"><ele>440.0</ele><time>2026-05-01T12:10:28.27Z</time></trkpt><trkpt lat="46.1295591" lon="12.1723526"><ele>440.0</ele><time>2026-05-01T12:10:31.271Z</time></trkpt><trkpt lat="46.1296165" lon="12.1722949"><ele>440.0</ele><time>2026-05-01T12:10:34.27Z</time></trkpt><trkpt lat="46.129663" lon="12.1722321"><ele>439.99999999999994</ele><time>2026-05-01T12:10:37.268Z</time></trkpt><trkpt lat="46.1297162" lon="12.1721422"><ele>440.0</ele><time>2026-05-01T12:10:41.272Z</time></trkpt><trkpt lat="46.1297597" lon="12.1720515"><ele>440.4285714285714</ele><time>2026-05-01T12:10:45.267Z</time></trkpt><trkpt lat="46.129798" lon="12.1719782"><ele>440.85714285714283</ele><time>2026-05-01T12:10:48.267Z</time></trkpt><trkpt lat="46.1298587" lon="12.1719198"><ele>441.2857142857143</ele><time>2026-05-01T12:10:52.27Z</time></trkpt><trkpt lat="46.1299388" lon="12.1719293"><ele>441.71428571428567</ele><time>2026-05-01T12:10:58.271Z</time></trkpt><trkpt lat="46.1300142" lon="12.1719314"><ele>442.14285714285717</ele><time>2026-05-01T12:11:02.263Z</time></trkpt><trkpt lat="46.1300901" lon="12.1719205"><ele>442.57142857142856</ele><time>2026-05-01T12:11:06.273Z</time></trkpt><trkpt lat="46.1301689" lon="12.1719154"><ele>443.0</ele><time>2026-05-01T12:11:10.263Z</time></trkpt><trkpt lat="46.1302346" lon="12.1718967"><ele>445.16666666666663</ele><time>2026-05-01T12:11:14.272Z</time></trkpt><trkpt lat="46.1303145" lon="12.1718636"><ele>447.3333333333333</ele><time>2026-05-01T12:11:18.263Z</time></trkpt><trkpt lat="46.1303871" lon="12.1718128"><ele>449.5</ele><time>2026-05-01T12:11:22.27Z</time></trkpt><trkpt lat="46.1304447" lon="12.1717319"><ele>451.66666666666663</ele><time>2026-05-01T12:11:26.265Z</time></trkpt><trkpt lat="46.130487" lon="12.1716347"><ele>453.8333333333333</ele><time>2026-05-01T12:11:30.269Z</time></trkpt><trkpt lat="46.1305239" lon="12.1715022"><ele>456.0</ele><time>2026-05-01T12:11:33.262Z</time></trkpt><trkpt lat="46.1305484" lon="12.1713928"><ele>456.5</ele><time>2026-05-01T12:11:35.269Z</time></trkpt><trkpt lat="46.1305666" lon="12.171291"><ele>457.0</ele><time>2026-05-01T12:11:37.264Z</time></trkpt><trkpt lat="46.1305871" lon="12.171176"><ele>457.5</ele><time>2026-05-01T12:11:39.271Z</time></trkpt><trkpt lat="46.1306371" lon="12.1710417"><ele>458.0</ele><time>2026-05-01T12:11:41.271Z</time></trkpt><trkpt lat="46.1306714" lon="12.170918"><ele>458.5</ele><time>2026-05-01T12:11:43.263Z</time></trkpt><trkpt lat="46.1307207" lon="12.1708043"><ele>459.0</ele><time>2026-05-01T12:11:45.26Z</time></trkpt><trkpt lat="46.1307565" lon="12.17068"><ele>459.3333333333333</ele><time>2026-05-01T12:11:47.269Z</time></trkpt><trkpt lat="46.1307883" lon="12.170566"><ele>459.66666666666663</ele><time>2026-05-01T12:11:49.271Z</time></trkpt><trkpt lat="46.1308249" lon="12.1704548"><ele>460.0</ele><time>2026-05-01T12:11:51.27Z</time></trkpt><trkpt lat="46.1308688" lon="12.1703396"><ele>460.3333333333333</ele><time>2026-05-01T12:11:53.264Z</time></trkpt><trkpt lat="46.1309233" lon="12.1702433"><ele>460.66666666666663</ele><time>2026-05-01T12:11:55.272Z</time></trkpt><trkpt lat="46.1310125" lon="12.1702207"><ele>461.0</ele><time>2026-05-01T12:11:57.262Z</time></trkpt><trkpt lat="46.131075" lon="12.1702422"><ele>460.99999999999994</ele><time>2026-05-01T12:11:59.269Z</time></trkpt><trkpt lat="46.1311512" lon="12.1702551"><ele>461.0</ele><time>2026-05-01T12:12:01.263Z</time></trkpt><trkpt lat="46.1312242" lon="12.1702467"><ele>461.0</ele><time>2026-05-01T12:12:03.271Z</time></trkpt><trkpt lat="46.1312891" lon="12.1702288"><ele>461.0</ele><time>2026-05-01T12:12:05.272Z</time></trkpt><trkpt lat="46.1313723" lon="12.1701996"><ele>460.99999999999994</ele><time>2026-05-01T12:12:07.271Z</time></trkpt><trkpt lat="46.1314593" lon="12.17017"><ele>461.0</ele><time>2026-05-01T12:12:09.266Z</time></trkpt><trkpt lat="46.1315448" lon="12.1701405"><ele>462.20000000000005</ele><time>2026-05-01T12:12:11.263Z</time></trkpt><trkpt lat="46.1316323" lon="12.1701056"><ele>463.40000000000003</ele><time>2026-05-01T12:12:13.273Z</time></trkpt><trkpt lat="46.1317177" lon="12.1700758"><ele>464.6</ele><time>2026-05-01T12:12:15.27Z</time></trkpt><trkpt lat="46.131805" lon="12.1700332"><ele>465.8</ele><time>2026-05-01T12:12:17.263Z</time></trkpt><trkpt lat="46.1318784" lon="12.1699667"><ele>467.0</ele><time>2026-05-01T12:12:19.272Z</time></trkpt><trkpt lat="46.1319499" lon="12.1698794"><ele>467.16666666666663</ele><time>2026-05-01T12:12:21.276Z</time></trkpt><trkpt lat="46.132025" lon="12.1698079"><ele>467.3333333333333</ele><time>2026-05-01T12:12:23.27Z</time></trkpt><trkpt lat="46.1321056" lon="12.1697445"><ele>467.5</ele><time>2026-05-01T12:12:25.267Z</time></trkpt><trkpt lat="46.1321846" lon="12.1697156"><ele>467.66666666666663</ele><time>2026-05-01T12:12:27.269Z</time></trkpt><trkpt lat="46.1322493" lon="12.1696969"><ele>467.8333333333333</ele><time>2026-05-01T12:12:29.27Z</time></trkpt><trkpt lat="46.1323357" lon="12.1696404"><ele>468.0</ele><time>2026-05-01T12:12:31.271Z</time></trkpt><trkpt lat="46.132416" lon="12.1695778"><ele>468.0</ele><time>2026-05-01T12:12:33.262Z</time></trkpt><trkpt lat="46.1325019" lon="12.1695227"><ele>467.99999999999994</ele><time>2026-05-01T12:12:35.268Z</time></trkpt><trkpt lat="46.1325873" lon="12.1694764"><ele>467.99999999999994</ele><time>2026-05-01T12:12:37.271Z</time></trkpt><trkpt lat="46.1326764" lon="12.1694249"><ele>468.0</ele><time>2026-05-01T12:12:39.272Z</time></trkpt><trkpt lat="46.1327606" lon="12.1693766"><ele>468.0</ele><time>2026-05-01T12:12:41.264Z</time></trkpt><trkpt lat="46.1328485" lon="12.1693263"><ele>468.0</ele><time>2026-05-01T12:12:43.259Z</time></trkpt><trkpt lat="46.1329329" lon="12.1693081"><ele>468.0</ele><time>2026-05-01T12:12:46.268Z</time></trkpt><trkpt lat="46.1330076" lon="12.1692418"><ele>468.0</ele><time>2026-05-01T12:12:49.274Z</time></trkpt><trkpt lat="46.133073" lon="12.1692042"><ele>468.0</ele><time>2026-05-01T12:12:52.272Z</time></trkpt><trkpt lat="46.1331149" lon="12.1692879"><ele>468.0</ele><time>2026-05-01T12:12:55.273Z</time></trkpt><trkpt lat="46.1330903" lon="12.1691727"><ele>468.0</ele><time>2026-05-01T12:13:03.269Z</time></trkpt><trkpt lat="46.133042" lon="12.1690693"><ele>468.1666666666667</ele><time>2026-05-01T12:13:05.273Z</time></trkpt><trkpt lat="46.1329981" lon="12.1689642"><ele>468.33333333333337</ele><time>2026-05-01T12:13:07.265Z</time></trkpt><trkpt lat="46.1329574" lon="12.1688548"><ele>468.5</ele><time>2026-05-01T12:13:09.271Z</time></trkpt><trkpt lat="46.1329163" lon="12.1687401"><ele>468.6666666666667</ele><time>2026-05-01T12:13:11.272Z</time></trkpt><trkpt lat="46.1328725" lon="12.1686271"><ele>468.83333333333337</ele><time>2026-05-01T12:13:13.271Z</time></trkpt><trkpt lat="46.1328328" lon="12.1685128"><ele>469.0</ele><time>2026-05-01T12:13:15.271Z</time></trkpt><trkpt lat="46.1327924" lon="12.1683963"><ele>469.00000000000006</ele><time>2026-05-01T12:13:17.269Z</time></trkpt><trkpt lat="46.1327494" lon="12.1682822"><ele>469.0</ele><time>2026-05-01T12:13:19.27Z</time></trkpt><trkpt lat="46.1327091" lon="12.168175"><ele>469.0</ele><time>2026-05-01T12:13:21.271Z</time></trkpt><trkpt lat="46.1326971" lon="12.168078"><ele>469.0</ele><time>2026-05-01T12:13:23.27Z</time></trkpt><trkpt lat="46.1327417" lon="12.1679972"><ele>469.00000000000006</ele><time>2026-05-01T12:13:25.271Z</time></trkpt><trkpt lat="46.1328103" lon="12.1679365"><ele>469.0</ele><time>2026-05-01T12:13:27.259Z</time></trkpt><trkpt lat="46.1328899" lon="12.1678964"><ele>469.2</ele><time>2026-05-01T12:13:29.267Z</time></trkpt><trkpt lat="46.1329758" lon="12.1678759"><ele>469.4</ele><time>2026-05-01T12:13:31.272Z</time></trkpt><trkpt lat="46.1330685" lon="12.1678612"><ele>469.6</ele><time>2026-05-01T12:13:33.275Z</time></trkpt><trkpt lat="46.1331725" lon="12.1678341"><ele>469.8</ele><time>2026-05-01T12:13:35.273Z</time></trkpt><trkpt lat="46.1332752" lon="12.1678131"><ele>470.0</ele><time>2026-05-01T12:13:37.271Z</time></trkpt><trkpt lat="46.1333735" lon="12.1677735"><ele>469.6</ele><time>2026-05-01T12:13:39.272Z</time></trkpt><trkpt lat="46.1334761" lon="12.1677259"><ele>469.2</ele><time>2026-05-01T12:13:41.272Z</time></trkpt><trkpt lat="46.1335757" lon="12.1676598"><ele>468.79999999999995</ele><time>2026-05-01T12:13:43.26Z</time></trkpt><trkpt lat="46.1336655" lon="12.1675908"><ele>468.4</ele><time>2026-05-01T12:13:45.262Z</time></trkpt><trkpt lat="46.1337434" lon="12.1675229"><ele>468.0</ele><time>2026-05-01T12:13:47.266Z</time></trkpt><trkpt lat="46.1338257" lon="12.1674518"><ele>468.0</ele><time>2026-05-01T12:13:49.263Z</time></trkpt><trkpt lat="46.133916" lon="12.1673899"><ele>467.99999999999994</ele><time>2026-05-01T12:13:51.262Z</time></trkpt><trkpt lat="46.1340086" lon="12.1673572"><ele>467.99999999999994</ele><time>2026-05-01T12:13:53.261Z</time></trkpt><trkpt lat="46.1340971" lon="12.1673573"><ele>468.0</ele><time>2026-05-01T12:13:55.258Z</time></trkpt><trkpt lat="46.1341794" lon="12.1673909"><ele>468.0</ele><time>2026-05-01T12:13:57.258Z</time></trkpt><trkpt lat="46.1342641" lon="12.1674399"><ele>468.4</ele><time>2026-05-01T12:13:59.27Z</time></trkpt><trkpt lat="46.1343529" lon="12.1674758"><ele>468.79999999999995</ele><time>2026-05-01T12:14:01.265Z</time></trkpt><trkpt lat="46.1344506" lon="12.1675301"><ele>469.2</ele><time>2026-05-01T12:14:03.266Z</time></trkpt><trkpt lat="46.134548" lon="12.1675857"><ele>469.6</ele><time>2026-05-01T12:14:05.269Z</time></trkpt><trkpt lat="46.1346363" lon="12.1676431"><ele>470.0</ele><time>2026-05-01T12:14:07.262Z</time></trkpt><trkpt lat="46.1347253" lon="12.1677035"><ele>470.0</ele><time>2026-05-01T12:14:09.261Z</time></trkpt><trkpt lat="46.1348192" lon="12.1677521"><ele>470.0</ele><time>2026-05-01T12:14:11.261Z</time></trkpt><trkpt lat="46.134914" lon="12.167812"><ele>470.0</ele><time>2026-05-01T12:14:13.262Z</time></trkpt><trkpt lat="46.1350169" lon="12.1678577"><ele>470.0</ele><time>2026-05-01T12:14:15.26Z</time></trkpt><trkpt lat="46.1351187" lon="12.1679048"><ele>470.0</ele><time>2026-05-01T12:14:17.26Z</time></trkpt><trkpt lat="46.135228" lon="12.167933"><ele>468.75</ele><time>2026-05-01T12:14:19.263Z</time></trkpt><trkpt lat="46.1353455" lon="12.1679559"><ele>467.5</ele><time>2026-05-01T12:14:21.384Z</time></trkpt><trkpt lat="46.1354616" lon="12.1679695"><ele>466.25</ele><time>2026-05-01T12:14:23.266Z</time></trkpt><trkpt lat="46.1355761" lon="12.1679827"><ele>465.0</ele><time>2026-05-01T12:14:25.273Z</time></trkpt><trkpt lat="46.1356902" lon="12.1679954"><ele>465.25</ele><time>2026-05-01T12:14:27.264Z</time></trkpt><trkpt lat="46.1358061" lon="12.1680082"><ele>465.5</ele><time>2026-05-01T12:14:29.257Z</time></trkpt><trkpt lat="46.135928" lon="12.1680316"><ele>465.75</ele><time>2026-05-01T12:14:31.264Z</time></trkpt><trkpt lat="46.1360446" lon="12.1680439"><ele>466.0</ele><time>2026-05-01T12:14:33.259Z</time></trkpt><trkpt lat="46.136163" lon="12.1680578"><ele>466.0</ele><time>2026-05-01T12:14:35.261Z</time></trkpt><trkpt lat="46.1362863" lon="12.1680706"><ele>466.0</ele><time>2026-05-01T12:14:37.269Z</time></trkpt><trkpt lat="46.1364045" lon="12.1680893"><ele>466.0</ele><time>2026-05-01T12:14:39.271Z</time></trkpt><trkpt lat="46.1365285" lon="12.1681047"><ele>466.0</ele><time>2026-05-01T12:14:41.266Z</time></trkpt><trkpt lat="46.1366495" lon="12.1681178"><ele>465.75</ele><time>2026-05-01T12:14:43.271Z</time></trkpt><trkpt lat="46.1367701" lon="12.1681297"><ele>465.5</ele><time>2026-05-01T12:14:45.267Z</time></trkpt><trkpt lat="46.1368929" lon="12.168133"><ele>465.25</ele><time>2026-05-01T12:14:47.268Z</time></trkpt><trkpt lat="46.1370136" lon="12.1681495"><ele>465.0</ele><time>2026-05-01T12:14:49.271Z</time></trkpt><trkpt lat="46.1371346" lon="12.1681735"><ele>465.0</ele><time>2026-05-01T12:14:51.266Z</time></trkpt><trkpt lat="46.1371976" lon="12.1681805"><ele>465.0</ele><time>2026-05-01T12:14:52.27Z</time></trkpt><trkpt lat="46.1373168" lon="12.1681962"><ele>465.0</ele><time>2026-05-01T12:14:54.27Z</time></trkpt><trkpt lat="46.1374357" lon="12.1682154"><ele>465.0</ele><time>2026-05-01T12:14:56.269Z</time></trkpt><trkpt lat="46.1375531" lon="12.1682449"><ele>465.0</ele><time>2026-05-01T12:14:58.27Z</time></trkpt><trkpt lat="46.1376758" lon="12.1682675"><ele>465.25</ele><time>2026-05-01T12:15:00.269Z</time></trkpt><trkpt lat="46.1377915" lon="12.1683001"><ele>465.5</ele><time>2026-05-01T12:15:02.261Z</time></trkpt><trkpt lat="46.1379091" lon="12.1683471"><ele>465.75</ele><time>2026-05-01T12:15:04.262Z</time></trkpt><trkpt lat="46.1380167" lon="12.1684094"><ele>466.0</ele><time>2026-05-01T12:15:06.264Z</time></trkpt><trkpt lat="46.1381225" lon="12.1684823"><ele>466.0</ele><time>2026-05-01T12:15:08.274Z</time></trkpt><trkpt lat="46.1382176" lon="12.1685753"><ele>466.0</ele><time>2026-05-01T12:15:10.268Z</time></trkpt><trkpt lat="46.1383112" lon="12.1686678"><ele>466.0</ele><time>2026-05-01T12:15:12.272Z</time></trkpt><trkpt lat="46.1383965" lon="12.1687835"><ele>466.0</ele><time>2026-05-01T12:15:14.263Z</time></trkpt><trkpt lat="46.1384879" lon="12.1688986"><ele>465.5</ele><time>2026-05-01T12:15:16.261Z</time></trkpt><trkpt lat="46.1385711" lon="12.169028"><ele>465.0</ele><time>2026-05-01T12:15:18.269Z</time></trkpt><trkpt lat="46.1386511" lon="12.1691579"><ele>464.5</ele><time>2026-05-01T12:15:20.261Z</time></trkpt><trkpt lat="46.138715" lon="12.1692846"><ele>464.0</ele><time>2026-05-01T12:15:22.268Z</time></trkpt><trkpt lat="46.1387751" lon="12.1694049"><ele>464.0</ele><time>2026-05-01T12:15:24.27Z</time></trkpt><trkpt lat="46.1388316" lon="12.1695123"><ele>464.0</ele><time>2026-05-01T12:15:26.269Z</time></trkpt><trkpt lat="46.1388952" lon="12.1696219"><ele>464.0</ele><time>2026-05-01T12:15:28.264Z</time></trkpt><trkpt lat="46.1389541" lon="12.1697221"><ele>464.0</ele><time>2026-05-01T12:15:30.268Z</time></trkpt><trkpt lat="46.1390053" lon="12.1698259"><ele>464.0</ele><time>2026-05-01T12:15:32.258Z</time></trkpt><trkpt lat="46.1390575" lon="12.1699138"><ele>464.49999999999994</ele><time>2026-05-01T12:15:34.26Z</time></trkpt><trkpt lat="46.1391083" lon="12.170003"><ele>465.0</ele><time>2026-05-01T12:15:36.262Z</time></trkpt><trkpt lat="46.13916" lon="12.1700862"><ele>465.5</ele><time>2026-05-01T12:15:38.261Z</time></trkpt><trkpt lat="46.13921" lon="12.1701677"><ele>466.0</ele><time>2026-05-01T12:15:40.261Z</time></trkpt><trkpt lat="46.1392627" lon="12.1702451"><ele>466.49999999999994</ele><time>2026-05-01T12:15:42.265Z</time></trkpt><trkpt lat="46.1393157" lon="12.1703241"><ele>467.0</ele><time>2026-05-01T12:15:44.264Z</time></trkpt><trkpt lat="46.1393712" lon="12.1703957"><ele>466.99999999999994</ele><time>2026-05-01T12:15:46.267Z</time></trkpt><trkpt lat="46.1394262" lon="12.1704632"><ele>467.0</ele><time>2026-05-01T12:15:48.263Z</time></trkpt><trkpt lat="46.139481" lon="12.1705289"><ele>466.99999999999994</ele><time>2026-05-01T12:15:50.272Z</time></trkpt><trkpt lat="46.1395352" lon="12.1705912"><ele>466.99999999999994</ele><time>2026-05-01T12:15:52.268Z</time></trkpt><trkpt lat="46.1395864" lon="12.170661"><ele>467.0</ele><time>2026-05-01T12:15:54.27Z</time></trkpt><trkpt lat="46.1396478" lon="12.1707117"><ele>466.99999999999994</ele><time>2026-05-01T12:15:56.261Z</time></trkpt><trkpt lat="46.1397207" lon="12.1707616"><ele>466.99999999999994</ele><time>2026-05-01T12:15:59.269Z</time></trkpt><trkpt lat="46.139782" lon="12.1708358"><ele>466.8333333333333</ele><time>2026-05-01T12:16:03.269Z</time></trkpt><trkpt lat="46.1398523" lon="12.170897"><ele>466.66666666666663</ele><time>2026-05-01T12:16:07.26Z</time></trkpt><trkpt lat="46.1399129" lon="12.1709522"><ele>466.5</ele><time>2026-05-01T12:16:10.268Z</time></trkpt><trkpt lat="46.1399741" lon="12.1710081"><ele>466.33333333333337</ele><time>2026-05-01T12:16:13.295Z</time></trkpt><trkpt lat="46.1400353" lon="12.1710629"><ele>466.1666666666667</ele><time>2026-05-01T12:16:16.269Z</time></trkpt><trkpt lat="46.1400962" lon="12.1711275"><ele>466.0</ele><time>2026-05-01T12:16:19.265Z</time></trkpt><trkpt lat="46.1401789" lon="12.1712024"><ele>466.0</ele><time>2026-05-01T12:16:22.271Z</time></trkpt><trkpt lat="46.1402416" lon="12.171266"><ele>466.0</ele><time>2026-05-01T12:16:24.271Z</time></trkpt><trkpt lat="46.1403118" lon="12.1713266"><ele>466.0</ele><time>2026-05-01T12:16:26.268Z</time></trkpt><trkpt lat="46.1404171" lon="12.1714228"><ele>466.0</ele><time>2026-05-01T12:16:29.262Z</time></trkpt><trkpt lat="46.140484" lon="12.1714951"><ele>466.0</ele><time>2026-05-01T12:16:31.269Z</time></trkpt><trkpt lat="46.1405527" lon="12.1715642"><ele>465.6666666666667</ele><time>2026-05-01T12:16:33.271Z</time></trkpt><trkpt lat="46.1406194" lon="12.1716341"><ele>465.33333333333337</ele><time>2026-05-01T12:16:35.263Z</time></trkpt><trkpt lat="46.1406871" lon="12.1717009"><ele>465.0</ele><time>2026-05-01T12:16:37.27Z</time></trkpt><trkpt lat="46.1407543" lon="12.1717645"><ele>464.66666666666663</ele><time>2026-05-01T12:16:39.269Z</time></trkpt><trkpt lat="46.1408182" lon="12.171825"><ele>464.3333333333333</ele><time>2026-05-01T12:16:41.269Z</time></trkpt><trkpt lat="46.1408787" lon="12.171893"><ele>464.0</ele><time>2026-05-01T12:16:43.264Z</time></trkpt><trkpt lat="46.1409407" lon="12.171955"><ele>464.8333333333333</ele><time>2026-05-01T12:16:45.271Z</time></trkpt><trkpt lat="46.1409984" lon="12.1720118"><ele>465.66666666666663</ele><time>2026-05-01T12:16:47.269Z</time></trkpt><trkpt lat="46.1410584" lon="12.1721066"><ele>466.5</ele><time>2026-05-01T12:16:50.273Z</time></trkpt><trkpt lat="46.1410612" lon="12.172223"><ele>467.33333333333337</ele><time>2026-05-01T12:16:53.272Z</time></trkpt><trkpt lat="46.1410543" lon="12.1721144"><ele>468.1666666666667</ele><time>2026-05-01T12:17:05.264Z</time></trkpt><trkpt lat="46.1410095" lon="12.1720302"><ele>469.0</ele><time>2026-05-01T12:17:15.275Z</time></trkpt><trkpt lat="46.140956" lon="12.1719786"><ele>469.0</ele><time>2026-05-01T12:17:17.271Z</time></trkpt><trkpt lat="46.1408852" lon="12.1718982"><ele>469.0</ele><time>2026-05-01T12:17:19.283Z</time></trkpt><trkpt lat="46.1408053" lon="12.1717771"><ele>469.0</ele><time>2026-05-01T12:17:21.27Z</time></trkpt><trkpt lat="46.1407038" lon="12.1716781"><ele>469.0</ele><time>2026-05-01T12:17:23.259Z</time></trkpt><trkpt lat="46.1406462" lon="12.1716217"><ele>469.0</ele><time>2026-05-01T12:17:24.268Z</time></trkpt><trkpt lat="46.140588" lon="12.171565"><ele>468.50000000000006</ele><time>2026-05-01T12:17:25.27Z</time></trkpt><trkpt lat="46.1405305" lon="12.1715091"><ele>468.0</ele><time>2026-05-01T12:17:26.27Z</time></trkpt><trkpt lat="46.1404713" lon="12.1714528"><ele>467.5</ele><time>2026-05-01T12:17:27.271Z</time></trkpt><trkpt lat="46.1404152" lon="12.1713948"><ele>467.0</ele><time>2026-05-01T12:17:28.27Z</time></trkpt><trkpt lat="46.1403126" lon="12.1713021"><ele>466.50000000000006</ele><time>2026-05-01T12:17:30.268Z</time></trkpt><trkpt lat="46.1402205" lon="12.1712091"><ele>466.0</ele><time>2026-05-01T12:17:32.269Z</time></trkpt><trkpt lat="46.1401245" lon="12.1711128"><ele>466.0</ele><time>2026-05-01T12:17:34.26Z</time></trkpt><trkpt lat="46.1400715" lon="12.1710613"><ele>466.0</ele><time>2026-05-01T12:17:35.27Z</time></trkpt><trkpt lat="46.1399719" lon="12.1709589"><ele>466.0</ele><time>2026-05-01T12:17:37.27Z</time></trkpt><trkpt lat="46.1398734" lon="12.1708611"><ele>466.0</ele><time>2026-05-01T12:17:39.261Z</time></trkpt><trkpt lat="46.1397701" lon="12.1707626"><ele>466.0</ele><time>2026-05-01T12:17:41.267Z</time></trkpt><trkpt lat="46.1396744" lon="12.1706668"><ele>466.25</ele><time>2026-05-01T12:17:43.266Z</time></trkpt><trkpt lat="46.1395805" lon="12.1705659"><ele>466.5</ele><time>2026-05-01T12:17:45.272Z</time></trkpt><trkpt lat="46.1394841" lon="12.1704698"><ele>466.75</ele><time>2026-05-01T12:17:47.27Z</time></trkpt><trkpt lat="46.1393893" lon="12.1703638"><ele>467.0</ele><time>2026-05-01T12:17:49.269Z</time></trkpt><trkpt lat="46.139301" lon="12.1702443"><ele>467.0</ele><time>2026-05-01T12:17:51.259Z</time></trkpt><trkpt lat="46.1392162" lon="12.1701251"><ele>467.0</ele><time>2026-05-01T12:17:53.261Z</time></trkpt><trkpt lat="46.1391367" lon="12.1699945"><ele>467.0</ele><time>2026-05-01T12:17:55.26Z</time></trkpt><trkpt lat="46.1390551" lon="12.1698628"><ele>467.0</ele><time>2026-05-01T12:17:57.261Z</time></trkpt><trkpt lat="46.1389749" lon="12.1697263"><ele>466.40000000000003</ele><time>2026-05-01T12:17:59.269Z</time></trkpt><trkpt lat="46.1389328" lon="12.1696555"><ele>465.80000000000007</ele><time>2026-05-01T12:18:00.271Z</time></trkpt><trkpt lat="46.1388121" lon="12.1694417"><ele>465.2</ele><time>2026-05-01T12:18:03.261Z</time></trkpt><trkpt lat="46.1387713" lon="12.1693693"><ele>464.6</ele><time>2026-05-01T12:18:04.259Z</time></trkpt><trkpt lat="46.1386947" lon="12.1692264"><ele>464.0</ele><time>2026-05-01T12:18:06.27Z</time></trkpt><trkpt lat="46.1386575" lon="12.1691506"><ele>464.0</ele><time>2026-05-01T12:18:07.261Z</time></trkpt><trkpt lat="46.1386166" lon="12.1690745"><ele>464.0</ele><time>2026-05-01T12:18:08.261Z</time></trkpt><trkpt lat="46.1385391" lon="12.168937"><ele>464.0</ele><time>2026-05-01T12:18:10.27Z</time></trkpt><trkpt lat="46.1384518" lon="12.1688179"><ele>464.0</ele><time>2026-05-01T12:18:12.263Z</time></trkpt><trkpt lat="46.138361" lon="12.1687082"><ele>464.0</ele><time>2026-05-01T12:18:14.267Z</time></trkpt><trkpt lat="46.1382704" lon="12.168594"><ele>464.5</ele><time>2026-05-01T12:18:16.264Z</time></trkpt><trkpt lat="46.1381757" lon="12.1684934"><ele>465.0</ele><time>2026-05-01T12:18:18.273Z</time></trkpt><trkpt lat="46.1380702" lon="12.1684079"><ele>465.5</ele><time>2026-05-01T12:18:20.268Z</time></trkpt><trkpt lat="46.1379587" lon="12.1683386"><ele>466.0</ele><time>2026-05-01T12:18:22.267Z</time></trkpt><trkpt lat="46.137849" lon="12.1682922"><ele>466.00000000000006</ele><time>2026-05-01T12:18:24.268Z</time></trkpt><trkpt lat="46.1377491" lon="12.1682552"><ele>466.0</ele><time>2026-05-01T12:18:26.261Z</time></trkpt><trkpt lat="46.1376564" lon="12.1682749"><ele>466.0</ele><time>2026-05-01T12:18:28.265Z</time></trkpt><trkpt lat="46.1375689" lon="12.1683648"><ele>466.0</ele><time>2026-05-01T12:18:30.267Z</time></trkpt><trkpt lat="46.1375172" lon="12.1684233"><ele>466.00000000000006</ele><time>2026-05-01T12:18:31.259Z</time></trkpt><trkpt lat="46.1374657" lon="12.1684797"><ele>466.0</ele><time>2026-05-01T12:18:32.269Z</time></trkpt><trkpt lat="46.1374117" lon="12.1685337"><ele>466.0</ele><time>2026-05-01T12:18:33.269Z</time></trkpt><trkpt lat="46.1373639" lon="12.1685977"><ele>466.0</ele><time>2026-05-01T12:18:34.262Z</time></trkpt><trkpt lat="46.137287" lon="12.1687347"><ele>466.0</ele><time>2026-05-01T12:18:36.267Z</time></trkpt><trkpt lat="46.1372206" lon="12.1688704"><ele>466.0</ele><time>2026-05-01T12:18:38.265Z</time></trkpt><trkpt lat="46.1371894" lon="12.1690154"><ele>466.0</ele><time>2026-05-01T12:18:40.269Z</time></trkpt><trkpt lat="46.1371727" lon="12.1691576"><ele>466.0</ele><time>2026-05-01T12:18:42.268Z</time></trkpt><trkpt lat="46.137159" lon="12.1693055"><ele>466.0</ele><time>2026-05-01T12:18:44.268Z</time></trkpt><trkpt lat="46.1371388" lon="12.1694669"><ele>466.0</ele><time>2026-05-01T12:18:46.267Z</time></trkpt><trkpt lat="46.1371088" lon="12.1696344"><ele>466.0</ele><time>2026-05-01T12:18:48.296Z</time></trkpt><trkpt lat="46.1370758" lon="12.1698035"><ele>466.6</ele><time>2026-05-01T12:18:50.272Z</time></trkpt><trkpt lat="46.1370537" lon="12.1699512"><ele>467.20000000000005</ele><time>2026-05-01T12:18:52.269Z</time></trkpt><trkpt lat="46.1370165" lon="12.1700925"><ele>467.79999999999995</ele><time>2026-05-01T12:18:54.271Z</time></trkpt><trkpt lat="46.1369753" lon="12.170213"><ele>468.4</ele><time>2026-05-01T12:18:56.262Z</time></trkpt><trkpt lat="46.1369351" lon="12.1703362"><ele>469.0</ele><time>2026-05-01T12:18:58.262Z</time></trkpt><trkpt lat="46.1369012" lon="12.1704252"><ele>469.0</ele><time>2026-05-01T12:19:00.269Z</time></trkpt><trkpt lat="46.1368706" lon="12.1705171"><ele>469.0</ele><time>2026-05-01T12:19:02.269Z</time></trkpt><trkpt lat="46.1368313" lon="12.1706345"><ele>469.0</ele><time>2026-05-01T12:19:04.268Z</time></trkpt><trkpt lat="46.1368065" lon="12.1707763"><ele>469.0</ele><time>2026-05-01T12:19:06.269Z</time></trkpt><trkpt lat="46.1367828" lon="12.170918"><ele>469.0</ele><time>2026-05-01T12:19:08.266Z</time></trkpt><trkpt lat="46.1367583" lon="12.1710422"><ele>469.1666666666667</ele><time>2026-05-01T12:19:10.273Z</time></trkpt><trkpt lat="46.1367525" lon="12.1711524"><ele>469.33333333333337</ele><time>2026-05-01T12:19:12.268Z</time></trkpt><trkpt lat="46.1367536" lon="12.1712835"><ele>469.5</ele><time>2026-05-01T12:19:14.269Z</time></trkpt><trkpt lat="46.1367489" lon="12.1713943"><ele>469.66666666666663</ele><time>2026-05-01T12:19:16.267Z</time></trkpt><trkpt lat="46.1367393" lon="12.1715043"><ele>469.8333333333333</ele><time>2026-05-01T12:19:18.269Z</time></trkpt><trkpt lat="46.136735" lon="12.1716206"><ele>470.0</ele><time>2026-05-01T12:19:20.269Z</time></trkpt><trkpt lat="46.1367345" lon="12.1717394"><ele>469.99999999999994</ele><time>2026-05-01T12:19:22.271Z</time></trkpt><trkpt lat="46.1367319" lon="12.1718601"><ele>470.0</ele><time>2026-05-01T12:19:24.262Z</time></trkpt><trkpt lat="46.1367212" lon="12.1719757"><ele>470.0</ele><time>2026-05-01T12:19:26.268Z</time></trkpt><trkpt lat="46.136708" lon="12.1720885"><ele>470.0</ele><time>2026-05-01T12:19:28.275Z</time></trkpt><trkpt lat="46.1366867" lon="12.1721929"><ele>469.99999999999994</ele><time>2026-05-01T12:19:30.269Z</time></trkpt><trkpt lat="46.1366544" lon="12.1722877"><ele>470.0</ele><time>2026-05-01T12:19:33.271Z</time></trkpt><trkpt lat="46.1366276" lon="12.1723806"><ele>469.8</ele><time>2026-05-01T12:19:36.273Z</time></trkpt><trkpt lat="46.1366035" lon="12.1724648"><ele>469.6</ele><time>2026-05-01T12:19:38.272Z</time></trkpt><trkpt lat="46.1365571" lon="12.1725865"><ele>469.4</ele><time>2026-05-01T12:19:40.27Z</time></trkpt><trkpt lat="46.1365016" lon="12.1727042"><ele>469.2</ele><time>2026-05-01T12:19:42.269Z</time></trkpt><trkpt lat="46.1364041" lon="12.1728901"><ele>469.0</ele><time>2026-05-01T12:19:45.271Z</time></trkpt><trkpt lat="46.136353" lon="12.1730319"><ele>470.0</ele><time>2026-05-01T12:19:47.268Z</time></trkpt><trkpt lat="46.1363109" lon="12.1731739"><ele>471.0</ele><time>2026-05-01T12:19:49.267Z</time></trkpt><trkpt lat="46.1363075" lon="12.1733176"><ele>472.0</ele><time>2026-05-01T12:19:51.287Z</time></trkpt><trkpt lat="46.1363009" lon="12.1734582"><ele>473.0</ele><time>2026-05-01T12:19:53.265Z</time></trkpt><trkpt lat="46.1363029" lon="12.1735803"><ele>474.0</ele><time>2026-05-01T12:19:55.264Z</time></trkpt><trkpt lat="46.1363181" lon="12.1736994"><ele>474.4</ele><time>2026-05-01T12:19:57.261Z</time></trkpt><trkpt lat="46.1363464" lon="12.1738245"><ele>474.79999999999995</ele><time>2026-05-01T12:19:59.286Z</time></trkpt><trkpt lat="46.1363894" lon="12.173962"><ele>475.20000000000005</ele><time>2026-05-01T12:20:01.275Z</time></trkpt><trkpt lat="46.1364237" lon="12.174089"><ele>475.6</ele><time>2026-05-01T12:20:03.27Z</time></trkpt><trkpt lat="46.1364495" lon="12.1742226"><ele>476.0</ele><time>2026-05-01T12:20:05.263Z</time></trkpt><trkpt lat="46.1364703" lon="12.1743612"><ele>475.8</ele><time>2026-05-01T12:20:07.263Z</time></trkpt><trkpt lat="46.1364875" lon="12.1744928"><ele>475.6</ele><time>2026-05-01T12:20:09.272Z</time></trkpt><trkpt lat="46.1364578" lon="12.1746388"><ele>475.4</ele><time>2026-05-01T12:20:11.26Z</time></trkpt><trkpt lat="46.1364202" lon="12.1747863"><ele>475.2</ele><time>2026-05-01T12:20:13.287Z</time></trkpt><trkpt lat="46.1363801" lon="12.174942"><ele>475.0</ele><time>2026-05-01T12:20:15.268Z</time></trkpt><trkpt lat="46.1363401" lon="12.1750957"><ele>475.0</ele><time>2026-05-01T12:20:17.264Z</time></trkpt><trkpt lat="46.1362883" lon="12.1752463"><ele>475.0</ele><time>2026-05-01T12:20:19.268Z</time></trkpt><trkpt lat="46.1362349" lon="12.175393"><ele>475.0</ele><time>2026-05-01T12:20:21.264Z</time></trkpt><trkpt lat="46.1361716" lon="12.1755125"><ele>475.0</ele><time>2026-05-01T12:20:23.271Z</time></trkpt><trkpt lat="46.1360969" lon="12.1756895"><ele>473.4</ele><time>2026-05-01T12:20:26.261Z</time></trkpt><trkpt lat="46.1360606" lon="12.1758198"><ele>471.8</ele><time>2026-05-01T12:20:28.277Z</time></trkpt><trkpt lat="46.13605" lon="12.1759618"><ele>470.20000000000005</ele><time>2026-05-01T12:20:30.268Z</time></trkpt><trkpt lat="46.1360679" lon="12.1761045"><ele>468.6</ele><time>2026-05-01T12:20:32.278Z</time></trkpt><trkpt lat="46.1361069" lon="12.1762099"><ele>467.0</ele><time>2026-05-01T12:20:34.267Z</time></trkpt><trkpt lat="46.1361658" lon="12.1763029"><ele>466.99999999999994</ele><time>2026-05-01T12:20:36.273Z</time></trkpt><trkpt lat="46.1362274" lon="12.1763887"><ele>467.0</ele><time>2026-05-01T12:20:38.263Z</time></trkpt><trkpt lat="46.1362879" lon="12.1765053"><ele>467.0</ele><time>2026-05-01T12:20:40.263Z</time></trkpt><trkpt lat="46.1363553" lon="12.1766412"><ele>467.0</ele><time>2026-05-01T12:20:42.283Z</time></trkpt><trkpt lat="46.1363901" lon="12.1767175"><ele>466.99999999999994</ele><time>2026-05-01T12:20:43.269Z</time></trkpt><trkpt lat="46.1364248" lon="12.1768033"><ele>467.0</ele><time>2026-05-01T12:20:44.261Z</time></trkpt><trkpt lat="46.136458" lon="12.1768817"><ele>467.16666666666663</ele><time>2026-05-01T12:20:45.268Z</time></trkpt><trkpt lat="46.1364891" lon="12.1769629"><ele>467.3333333333333</ele><time>2026-05-01T12:20:46.27Z</time></trkpt><trkpt lat="46.1365208" lon="12.1770456"><ele>467.5</ele><time>2026-05-01T12:20:47.271Z</time></trkpt><trkpt lat="46.1365551" lon="12.1771278"><ele>467.66666666666663</ele><time>2026-05-01T12:20:48.263Z</time></trkpt><trkpt lat="46.1366106" lon="12.1772799"><ele>467.8333333333333</ele><time>2026-05-01T12:20:50.269Z</time></trkpt><trkpt lat="46.13667" lon="12.1774405"><ele>468.0</ele><time>2026-05-01T12:20:52.262Z</time></trkpt><trkpt lat="46.1367017" lon="12.1775212"><ele>467.25</ele><time>2026-05-01T12:20:53.272Z</time></trkpt><trkpt lat="46.1367592" lon="12.1776771"><ele>466.5</ele><time>2026-05-01T12:20:55.262Z</time></trkpt><trkpt lat="46.1368162" lon="12.1778328"><ele>465.75</ele><time>2026-05-01T12:20:57.273Z</time></trkpt><trkpt lat="46.136875" lon="12.1779838"><ele>465.0</ele><time>2026-05-01T12:20:59.264Z</time></trkpt><trkpt lat="46.1369319" lon="12.178139"><ele>464.75</ele><time>2026-05-01T12:21:01.265Z</time></trkpt><trkpt lat="46.13699" lon="12.1782907"><ele>464.5</ele><time>2026-05-01T12:21:03.262Z</time></trkpt><trkpt lat="46.1370409" lon="12.1784433"><ele>464.25</ele><time>2026-05-01T12:21:05.27Z</time></trkpt><trkpt lat="46.1370867" lon="12.1786035"><ele>464.0</ele><time>2026-05-01T12:21:07.269Z</time></trkpt><trkpt lat="46.1371225" lon="12.1787671"><ele>464.0</ele><time>2026-05-01T12:21:09.272Z</time></trkpt><trkpt lat="46.1371532" lon="12.1789094"><ele>464.0</ele><time>2026-05-01T12:21:11.263Z</time></trkpt><trkpt lat="46.1371633" lon="12.1790498"><ele>464.0</ele><time>2026-05-01T12:21:13.262Z</time></trkpt><trkpt lat="46.1371819" lon="12.1791769"><ele>464.0</ele><time>2026-05-01T12:21:15.262Z</time></trkpt><trkpt lat="46.1371989" lon="12.1793057"><ele>464.0</ele><time>2026-05-01T12:21:17.272Z</time></trkpt><trkpt lat="46.1372189" lon="12.1794231"><ele>464.3333333333333</ele><time>2026-05-01T12:21:19.265Z</time></trkpt><trkpt lat="46.1372366" lon="12.179539"><ele>464.66666666666663</ele><time>2026-05-01T12:21:21.261Z</time></trkpt><trkpt lat="46.1372564" lon="12.1796623"><ele>465.0</ele><time>2026-05-01T12:21:23.259Z</time></trkpt><trkpt lat="46.1372894" lon="12.1797841"><ele>465.33333333333337</ele><time>2026-05-01T12:21:25.262Z</time></trkpt><trkpt lat="46.1373256" lon="12.1799005"><ele>465.6666666666667</ele><time>2026-05-01T12:21:27.267Z</time></trkpt><trkpt lat="46.1373632" lon="12.1800131"><ele>466.0</ele><time>2026-05-01T12:21:29.27Z</time></trkpt><trkpt lat="46.1373959" lon="12.1801237"><ele>466.0</ele><time>2026-05-01T12:21:31.269Z</time></trkpt><trkpt lat="46.1374194" lon="12.1802352"><ele>466.0</ele><time>2026-05-01T12:21:33.269Z</time></trkpt><trkpt lat="46.1374307" lon="12.1803593"><ele>466.0</ele><time>2026-05-01T12:21:35.269Z</time></trkpt><trkpt lat="46.1374415" lon="12.180495"><ele>466.0</ele><time>2026-05-01T12:21:37.269Z</time></trkpt><trkpt lat="46.1374561" lon="12.1806446"><ele>466.0</ele><time>2026-05-01T12:21:39.271Z</time></trkpt><trkpt lat="46.1374739" lon="12.1808001"><ele>466.0</ele><time>2026-05-01T12:21:41.261Z</time></trkpt><trkpt lat="46.1374981" lon="12.1809483"><ele>466.0</ele><time>2026-05-01T12:21:43.266Z</time></trkpt><trkpt lat="46.1375177" lon="12.1810906"><ele>466.0</ele><time>2026-05-01T12:21:45.27Z</time></trkpt><trkpt lat="46.1375368" lon="12.1812235"><ele>466.0</ele><time>2026-05-01T12:21:47.271Z</time></trkpt><trkpt lat="46.1375594" lon="12.181369"><ele>466.0</ele><time>2026-05-01T12:21:49.269Z</time></trkpt><trkpt lat="46.1375918" lon="12.1815229"><ele>466.20000000000005</ele><time>2026-05-01T12:21:51.266Z</time></trkpt><trkpt lat="46.1376227" lon="12.181679"><ele>466.40000000000003</ele><time>2026-05-01T12:21:53.272Z</time></trkpt><trkpt lat="46.1376507" lon="12.1818332"><ele>466.6</ele><time>2026-05-01T12:21:55.272Z</time></trkpt><trkpt lat="46.1376822" lon="12.1819722"><ele>466.8</ele><time>2026-05-01T12:21:57.271Z</time></trkpt><trkpt lat="46.1377106" lon="12.1821088"><ele>467.0</ele><time>2026-05-01T12:21:59.274Z</time></trkpt><trkpt lat="46.1377427" lon="12.1822364"><ele>466.40000000000003</ele><time>2026-05-01T12:22:01.269Z</time></trkpt><trkpt lat="46.1377788" lon="12.1823691"><ele>465.80000000000007</ele><time>2026-05-01T12:22:03.262Z</time></trkpt><trkpt lat="46.1378175" lon="12.1825198"><ele>465.2</ele><time>2026-05-01T12:22:05.264Z</time></trkpt><trkpt lat="46.1378647" lon="12.1826736"><ele>464.6</ele><time>2026-05-01T12:22:07.263Z</time></trkpt><trkpt lat="46.1379141" lon="12.1828244"><ele>464.0</ele><time>2026-05-01T12:22:09.262Z</time></trkpt><trkpt lat="46.1379702" lon="12.182971"><ele>464.0</ele><time>2026-05-01T12:22:11.269Z</time></trkpt><trkpt lat="46.1380345" lon="12.1831157"><ele>464.0</ele><time>2026-05-01T12:22:13.261Z</time></trkpt><trkpt lat="46.1380943" lon="12.1832505"><ele>464.0</ele><time>2026-05-01T12:22:15.271Z</time></trkpt><trkpt lat="46.1381447" lon="12.1833874"><ele>464.0</ele><time>2026-05-01T12:22:17.27Z</time></trkpt><trkpt lat="46.138195" lon="12.1835308"><ele>464.0</ele><time>2026-05-01T12:22:19.272Z</time></trkpt><trkpt lat="46.1382457" lon="12.18366"><ele>464.16666666666663</ele><time>2026-05-01T12:22:21.265Z</time></trkpt><trkpt lat="46.1383086" lon="12.1837315"><ele>464.3333333333333</ele><time>2026-05-01T12:22:23.271Z</time></trkpt><trkpt lat="46.1383898" lon="12.1836963"><ele>464.5</ele><time>2026-05-01T12:22:25.268Z</time></trkpt><trkpt lat="46.1385042" lon="12.1836219"><ele>464.66666666666663</ele><time>2026-05-01T12:22:27.263Z</time></trkpt><trkpt lat="46.1385666" lon="12.1835779"><ele>464.8333333333333</ele><time>2026-05-01T12:22:28.272Z</time></trkpt><trkpt lat="46.1386302" lon="12.1835326"><ele>465.0</ele><time>2026-05-01T12:22:29.267Z</time></trkpt><trkpt lat="46.1386957" lon="12.1834807"><ele>465.0</ele><time>2026-05-01T12:22:30.268Z</time></trkpt><trkpt lat="46.1387645" lon="12.1834337"><ele>465.0</ele><time>2026-05-01T12:22:31.272Z</time></trkpt><trkpt lat="46.1388349" lon="12.1833781"><ele>465.0</ele><time>2026-05-01T12:22:32.269Z</time></trkpt><trkpt lat="46.1389042" lon="12.1833247"><ele>465.0</ele><time>2026-05-01T12:22:33.268Z</time></trkpt><trkpt lat="46.1389731" lon="12.183277"><ele>465.0</ele><time>2026-05-01T12:22:34.268Z</time></trkpt><trkpt lat="46.1390381" lon="12.1832277"><ele>465.0</ele><time>2026-05-01T12:22:35.26Z</time></trkpt><trkpt lat="46.1391046" lon="12.1831716"><ele>463.6666666666667</ele><time>2026-05-01T12:22:36.27Z</time></trkpt><trkpt lat="46.1391732" lon="12.1831213"><ele>462.33333333333337</ele><time>2026-05-01T12:22:37.27Z</time></trkpt><trkpt lat="46.1392449" lon="12.1830735"><ele>461.0</ele><time>2026-05-01T12:22:38.27Z</time></trkpt><trkpt lat="46.1393201" lon="12.1830248"><ele>459.6666666666667</ele><time>2026-05-01T12:22:39.27Z</time></trkpt><trkpt lat="46.1393963" lon="12.1829767"><ele>458.33333333333337</ele><time>2026-05-01T12:22:40.292Z</time></trkpt><trkpt lat="46.1394754" lon="12.1829332"><ele>457.0</ele><time>2026-05-01T12:22:41.269Z</time></trkpt><trkpt lat="46.1395584" lon="12.1828933"><ele>457.00000000000006</ele><time>2026-05-01T12:22:42.269Z</time></trkpt><trkpt lat="46.1396452" lon="12.182862"><ele>457.0</ele><time>2026-05-01T12:22:43.267Z</time></trkpt><trkpt lat="46.1397324" lon="12.1828519"><ele>457.0</ele><time>2026-05-01T12:22:44.263Z</time></trkpt><trkpt lat="46.1398208" lon="12.1828517"><ele>457.0</ele><time>2026-05-01T12:22:45.271Z</time></trkpt><trkpt lat="46.1399093" lon="12.1828593"><ele>457.00000000000006</ele><time>2026-05-01T12:22:46.27Z</time></trkpt><trkpt lat="46.1399936" lon="12.1828662"><ele>457.0</ele><time>2026-05-01T12:22:47.27Z</time></trkpt><trkpt lat="46.1400731" lon="12.1828783"><ele>457.1666666666667</ele><time>2026-05-01T12:22:48.268Z</time></trkpt><trkpt lat="46.1401504" lon="12.1828845"><ele>457.33333333333337</ele><time>2026-05-01T12:22:49.259Z</time></trkpt><trkpt lat="46.1402228" lon="12.1828766"><ele>457.5</ele><time>2026-05-01T12:22:50.263Z</time></trkpt><trkpt lat="46.1402929" lon="12.1828638"><ele>457.66666666666663</ele><time>2026-05-01T12:22:51.366Z</time></trkpt><trkpt lat="46.1403604" lon="12.1828423"><ele>457.8333333333333</ele><time>2026-05-01T12:22:52.272Z</time></trkpt><trkpt lat="46.1404225" lon="12.1828136"><ele>458.0</ele><time>2026-05-01T12:22:53.265Z</time></trkpt><trkpt lat="46.1405179" lon="12.1827825"><ele>458.0</ele><time>2026-05-01T12:22:55.261Z</time></trkpt><trkpt lat="46.1405866" lon="12.1827823"><ele>457.99999999999994</ele><time>2026-05-01T12:22:58.269Z</time></trkpt><trkpt lat="46.1406252" lon="12.1829052"><ele>457.99999999999994</ele><time>2026-05-01T12:23:03.265Z</time></trkpt><trkpt lat="46.1406327" lon="12.1830484"><ele>458.0</ele><time>2026-05-01T12:23:05.267Z</time></trkpt><trkpt lat="46.1406514" lon="12.1831992"><ele>458.0</ele><time>2026-05-01T12:23:07.262Z</time></trkpt><trkpt lat="46.1406634" lon="12.1833294"><ele>457.79999999999995</ele><time>2026-05-01T12:23:09.265Z</time></trkpt><trkpt lat="46.1406767" lon="12.18343"><ele>457.59999999999997</ele><time>2026-05-01T12:23:11.263Z</time></trkpt><trkpt lat="46.1407069" lon="12.1835371"><ele>457.40000000000003</ele><time>2026-05-01T12:23:14.296Z</time></trkpt><trkpt lat="46.1408074" lon="12.1835345"><ele>457.20000000000005</ele><time>2026-05-01T12:23:17.269Z</time></trkpt><trkpt lat="46.1409121" lon="12.183525"><ele>457.0</ele><time>2026-05-01T12:23:19.268Z</time></trkpt><trkpt lat="46.1410177" lon="12.1835026"><ele>456.6</ele><time>2026-05-01T12:23:21.295Z</time></trkpt><trkpt lat="46.1411215" lon="12.1834747"><ele>456.20000000000005</ele><time>2026-05-01T12:23:23.269Z</time></trkpt><trkpt lat="46.1412284" lon="12.1834429"><ele>455.8</ele><time>2026-05-01T12:23:25.271Z</time></trkpt><trkpt lat="46.1413381" lon="12.183412"><ele>455.4</ele><time>2026-05-01T12:23:27.267Z</time></trkpt><trkpt lat="46.141449" lon="12.1833846"><ele>455.0</ele><time>2026-05-01T12:23:29.271Z</time></trkpt><trkpt lat="46.1415678" lon="12.1833597"><ele>455.8</ele><time>2026-05-01T12:23:31.271Z</time></trkpt><trkpt lat="46.1416831" lon="12.183333"><ele>456.6</ele><time>2026-05-01T12:23:33.27Z</time></trkpt><trkpt lat="46.141798" lon="12.1833044"><ele>457.4</ele><time>2026-05-01T12:23:35.265Z</time></trkpt><trkpt lat="46.1418946" lon="12.1832738"><ele>458.2</ele><time>2026-05-01T12:23:37.265Z</time></trkpt><trkpt lat="46.1419781" lon="12.1832334"><ele>459.0</ele><time>2026-05-01T12:23:39.271Z</time></trkpt><trkpt lat="46.142059" lon="12.1831973"><ele>459.14285714285717</ele><time>2026-05-01T12:23:41.261Z</time></trkpt><trkpt lat="46.1421282" lon="12.1831552"><ele>459.2857142857142</ele><time>2026-05-01T12:23:43.266Z</time></trkpt><trkpt lat="46.1421941" lon="12.1831218"><ele>459.4285714285714</ele><time>2026-05-01T12:23:45.27Z</time></trkpt><trkpt lat="46.142261" lon="12.1830918"><ele>459.57142857142856</ele><time>2026-05-01T12:23:47.27Z</time></trkpt><trkpt lat="46.1423302" lon="12.1830588"><ele>459.71428571428567</ele><time>2026-05-01T12:23:49.271Z</time></trkpt><trkpt lat="46.1423942" lon="12.1830257"><ele>459.8571428571428</ele><time>2026-05-01T12:23:51.263Z</time></trkpt><trkpt lat="46.142467" lon="12.1829931"><ele>459.99999999999994</ele><time>2026-05-01T12:23:53.27Z</time></trkpt><trkpt lat="46.1425394" lon="12.1829541"><ele>460.00000000000006</ele><time>2026-05-01T12:23:55.269Z</time></trkpt><trkpt lat="46.1426163" lon="12.1829139"><ele>460.0</ele><time>2026-05-01T12:23:57.263Z</time></trkpt><trkpt lat="46.1426945" lon="12.1828858"><ele>460.0</ele><time>2026-05-01T12:23:59.262Z</time></trkpt><trkpt lat="46.1427646" lon="12.1828878"><ele>460.0</ele><time>2026-05-01T12:24:01.273Z</time></trkpt><trkpt lat="46.1428231" lon="12.1829765"><ele>460.00000000000006</ele><time>2026-05-01T12:24:03.263Z</time></trkpt><trkpt lat="46.1428782" lon="12.1830773"><ele>460.0</ele><time>2026-05-01T12:24:05.269Z</time></trkpt><trkpt lat="46.1429371" lon="12.183168"><ele>460.33333333333337</ele><time>2026-05-01T12:24:07.265Z</time></trkpt><trkpt lat="46.1429927" lon="12.1832635"><ele>460.6666666666667</ele><time>2026-05-01T12:24:09.271Z</time></trkpt><trkpt lat="46.1430533" lon="12.1833522"><ele>461.0</ele><time>2026-05-01T12:24:11.271Z</time></trkpt><trkpt lat="46.143108" lon="12.183446"><ele>461.33333333333337</ele><time>2026-05-01T12:24:13.27Z</time></trkpt><trkpt lat="46.1431551" lon="12.1835437"><ele>461.6666666666667</ele><time>2026-05-01T12:24:15.264Z</time></trkpt><trkpt lat="46.1432012" lon="12.1836353"><ele>462.0</ele><time>2026-05-01T12:24:17.261Z</time></trkpt><trkpt lat="46.1432512" lon="12.1837202"><ele>462.42857142857144</ele><time>2026-05-01T12:24:19.27Z</time></trkpt><trkpt lat="46.1433005" lon="12.1838032"><ele>462.8571428571429</ele><time>2026-05-01T12:24:21.436Z</time></trkpt><trkpt lat="46.1433442" lon="12.1838876"><ele>463.2857142857143</ele><time>2026-05-01T12:24:23.266Z</time></trkpt><trkpt lat="46.1433929" lon="12.1839661"><ele>463.7142857142857</ele><time>2026-05-01T12:24:25.272Z</time></trkpt><trkpt lat="46.1434457" lon="12.1840282"><ele>464.14285714285717</ele><time>2026-05-01T12:24:27.264Z</time></trkpt><trkpt lat="46.1434966" lon="12.184089"><ele>464.57142857142856</ele><time>2026-05-01T12:24:29.273Z</time></trkpt><trkpt lat="46.1435746" lon="12.1841597"><ele>465.0</ele><time>2026-05-01T12:24:32.272Z</time></trkpt><trkpt lat="46.1436468" lon="12.1842156"><ele>465.2857142857143</ele><time>2026-05-01T12:24:35.271Z</time></trkpt><trkpt lat="46.143713" lon="12.1842666"><ele>465.57142857142856</ele><time>2026-05-01T12:24:38.269Z</time></trkpt><trkpt lat="46.1437784" lon="12.1842777"><ele>465.85714285714283</ele><time>2026-05-01T12:24:41.271Z</time></trkpt><trkpt lat="46.1438554" lon="12.1843009"><ele>466.1428571428571</ele><time>2026-05-01T12:24:45.289Z</time></trkpt><trkpt lat="46.1439329" lon="12.1843351"><ele>466.42857142857144</ele><time>2026-05-01T12:24:49.271Z</time></trkpt><trkpt lat="46.14401" lon="12.1843365"><ele>466.71428571428567</ele><time>2026-05-01T12:24:53.271Z</time></trkpt><trkpt lat="46.1440774" lon="12.1843404"><ele>466.99999999999994</ele><time>2026-05-01T12:24:57.27Z</time></trkpt><trkpt lat="46.1441521" lon="12.1843284"><ele>469.5714285714285</ele><time>2026-05-01T12:25:01.272Z</time></trkpt><trkpt lat="46.1442291" lon="12.1843057"><ele>472.1428571428571</ele><time>2026-05-01T12:25:05.27Z</time></trkpt><trkpt lat="46.1443006" lon="12.1842799"><ele>474.7142857142857</ele><time>2026-05-01T12:25:09.27Z</time></trkpt><trkpt lat="46.1443771" lon="12.184258"><ele>477.2857142857143</ele><time>2026-05-01T12:25:13.289Z</time></trkpt><trkpt lat="46.1444545" lon="12.1842703"><ele>479.8571428571429</ele><time>2026-05-01T12:25:18.284Z</time></trkpt><trkpt lat="46.1445247" lon="12.1843117"><ele>482.4285714285715</ele><time>2026-05-01T12:25:23.27Z</time></trkpt><trkpt lat="46.1445885" lon="12.1843154"><ele>485.00000000000006</ele><time>2026-05-01T12:25:26.275Z</time></trkpt><trkpt lat="46.1446598" lon="12.184304"><ele>484.99999999999994</ele><time>2026-05-01T12:25:30.272Z</time></trkpt><trkpt lat="46.1447378" lon="12.1843031"><ele>485.0</ele><time>2026-05-01T12:25:34.272Z</time></trkpt><trkpt lat="46.144821" lon="12.1843133"><ele>485.0</ele><time>2026-05-01T12:25:38.269Z</time></trkpt><trkpt lat="46.1448836" lon="12.1843244"><ele>485.0</ele><time>2026-05-01T12:25:41.265Z</time></trkpt><trkpt lat="46.1449731" lon="12.1843426"><ele>484.99999999999994</ele><time>2026-05-01T12:25:46.268Z</time></trkpt><trkpt lat="46.1450469" lon="12.1843686"><ele>485.0</ele><time>2026-05-01T12:25:50.274Z</time></trkpt><trkpt lat="46.1451115" lon="12.1843785"><ele>489.28571428571433</ele><time>2026-05-01T12:25:53.261Z</time></trkpt><trkpt lat="46.1451807" lon="12.1843825"><ele>493.57142857142856</ele><time>2026-05-01T12:25:57.366Z</time></trkpt><trkpt lat="46.1452545" lon="12.184393"><ele>497.8571428571429</ele><time>2026-05-01T12:26:02.271Z</time></trkpt><trkpt lat="46.1453197" lon="12.1843917"><ele>502.14285714285717</ele><time>2026-05-01T12:26:07.27Z</time></trkpt><trkpt lat="46.1453888" lon="12.1844056"><ele>506.42857142857144</ele><time>2026-05-01T12:26:13.287Z</time></trkpt><trkpt lat="46.1454522" lon="12.1844281"><ele>510.7142857142857</ele><time>2026-05-01T12:26:18.27Z</time></trkpt><trkpt lat="46.1455108" lon="12.1844694"><ele>515.0</ele><time>2026-05-01T12:26:23.263Z</time></trkpt><trkpt lat="46.1455711" lon="12.1845134"><ele>515.0</ele><time>2026-05-01T12:26:29.298Z</time></trkpt><trkpt lat="46.145648" lon="12.184532"><ele>515.0</ele><time>2026-05-01T12:26:36.293Z</time></trkpt><trkpt lat="46.1456976" lon="12.1844737"><ele>515.0</ele><time>2026-05-01T12:26:41.269Z</time></trkpt><trkpt lat="46.1457567" lon="12.1844094"><ele>515.0</ele><time>2026-05-01T12:26:47.271Z</time></trkpt><trkpt lat="46.145827" lon="12.1844277"><ele>515.0</ele><time>2026-05-01T12:26:54.264Z</time></trkpt><trkpt lat="46.1458782" lon="12.1844845"><ele>515.0</ele><time>2026-05-01T12:26:59.271Z</time></trkpt><trkpt lat="46.1459213" lon="12.1845628"><ele>515.0</ele><time>2026-05-01T12:27:04.271Z</time></trkpt><trkpt lat="46.1459343" lon="12.1846571"><ele>517.4285714285714</ele><time>2026-05-01T12:27:09.261Z</time></trkpt><trkpt lat="46.145946" lon="12.1847684"><ele>519.8571428571429</ele><time>2026-05-01T12:27:14.26Z</time></trkpt><trkpt lat="46.1459581" lon="12.1848603"><ele>522.2857142857142</ele><time>2026-05-01T12:27:18.261Z</time></trkpt><trkpt lat="46.145945" lon="12.1849603"><ele>524.7142857142858</ele><time>2026-05-01T12:27:23.272Z</time></trkpt><trkpt lat="46.1459309" lon="12.1850572"><ele>527.1428571428571</ele><time>2026-05-01T12:27:28.273Z</time></trkpt><trkpt lat="46.1459145" lon="12.1851556"><ele>529.5714285714286</ele><time>2026-05-01T12:27:33.269Z</time></trkpt><trkpt lat="46.1458786" lon="12.1852403"><ele>532.0</ele><time>2026-05-01T12:27:37.27Z</time></trkpt><trkpt lat="46.1458357" lon="12.1853317"><ele>532.0</ele><time>2026-05-01T12:27:41.269Z</time></trkpt><trkpt lat="46.1457896" lon="12.1854182"><ele>532.0</ele><time>2026-05-01T12:27:45.266Z</time></trkpt><trkpt lat="46.1457308" lon="12.1854776"><ele>532.0</ele><time>2026-05-01T12:27:49.267Z</time></trkpt><trkpt lat="46.1456642" lon="12.1855115"><ele>532.0</ele><time>2026-05-01T12:27:53.27Z</time></trkpt><trkpt lat="46.1455883" lon="12.1855451"><ele>532.0</ele><time>2026-05-01T12:27:57.262Z</time></trkpt><trkpt lat="46.1455293" lon="12.1856058"><ele>532.0</ele><time>2026-05-01T12:28:01.261Z</time></trkpt><trkpt lat="46.1455279" lon="12.1857027"><ele>532.0</ele><time>2026-05-01T12:28:04.268Z</time></trkpt><trkpt lat="46.1455663" lon="12.1857809"><ele>534.1428571428571</ele><time>2026-05-01T12:28:07.26Z</time></trkpt><trkpt lat="46.1456308" lon="12.1858024"><ele>536.2857142857142</ele><time>2026-05-01T12:28:11.268Z</time></trkpt><trkpt lat="46.1457011" lon="12.1858255"><ele>538.4285714285714</ele><time>2026-05-01T12:28:15.27Z</time></trkpt><trkpt lat="46.1457639" lon="12.1858364"><ele>540.5714285714286</ele><time>2026-05-01T12:28:19.26Z</time></trkpt><trkpt lat="46.1458222" lon="12.1858761"><ele>542.7142857142857</ele><time>2026-05-01T12:28:23.294Z</time></trkpt><trkpt lat="46.1458844" lon="12.1859117"><ele>544.8571428571429</ele><time>2026-05-01T12:28:27.272Z</time></trkpt><trkpt lat="46.1459651" lon="12.1859293"><ele>547.0</ele><time>2026-05-01T12:28:31.269Z</time></trkpt><trkpt lat="46.1460461" lon="12.1859459"><ele>547.0</ele><time>2026-05-01T12:28:35.27Z</time></trkpt><trkpt lat="46.1461264" lon="12.1859521"><ele>547.0</ele><time>2026-05-01T12:28:39.271Z</time></trkpt><trkpt lat="46.1462064" lon="12.18597"><ele>547.0</ele><time>2026-05-01T12:28:43.267Z</time></trkpt><trkpt lat="46.1462701" lon="12.1859783"><ele>547.0</ele><time>2026-05-01T12:28:47.262Z</time></trkpt><trkpt lat="46.1463392" lon="12.18595"><ele>547.0</ele><time>2026-05-01T12:28:52.271Z</time></trkpt><trkpt lat="46.146402" lon="12.1859647"><ele>547.0</ele><time>2026-05-01T12:28:57.27Z</time></trkpt><trkpt lat="46.1464411" lon="12.1858749"><ele>547.0</ele><time>2026-05-01T12:29:59.258Z</time></trkpt><trkpt lat="46.1464684" lon="12.1857687"><ele>544.5</ele><time>2026-05-01T12:30:02.262Z</time></trkpt><trkpt lat="46.1464821" lon="12.1856398"><ele>542.0</ele><time>2026-05-01T12:30:05.261Z</time></trkpt><trkpt lat="46.1464702" lon="12.1855377"><ele>539.5</ele><time>2026-05-01T12:30:07.263Z</time></trkpt><trkpt lat="46.1464756" lon="12.1854357"><ele>537.0</ele><time>2026-05-01T12:30:08.262Z</time></trkpt><trkpt lat="46.1464557" lon="12.1852575"><ele>534.5</ele><time>2026-05-01T12:30:10.268Z</time></trkpt><trkpt lat="46.1465089" lon="12.1851957"><ele>532.0</ele><time>2026-05-01T12:30:11.268Z</time></trkpt><trkpt lat="46.1465439" lon="12.1851107"><ele>535.5714285714286</ele><time>2026-05-01T12:30:12.27Z</time></trkpt><trkpt lat="46.1466148" lon="12.1850428"><ele>539.1428571428571</ele><time>2026-05-01T12:30:14.259Z</time></trkpt><trkpt lat="46.1466725" lon="12.1849703"><ele>542.7142857142858</ele><time>2026-05-01T12:30:16.269Z</time></trkpt><trkpt lat="46.1467022" lon="12.1848838"><ele>546.2857142857142</ele><time>2026-05-01T12:30:18.261Z</time></trkpt><trkpt lat="46.146719" lon="12.1847951"><ele>549.8571428571429</ele><time>2026-05-01T12:30:21.271Z</time></trkpt><trkpt lat="46.1467423" lon="12.1846878"><ele>553.4285714285714</ele><time>2026-05-01T12:30:24.268Z</time></trkpt><trkpt lat="46.1467991" lon="12.1846299"><ele>557.0</ele><time>2026-05-01T12:30:27.271Z</time></trkpt><trkpt lat="46.146876" lon="12.1846804"><ele>557.0</ele><time>2026-05-01T12:30:30.263Z</time></trkpt><trkpt lat="46.1469435" lon="12.1847658"><ele>557.0</ele><time>2026-05-01T12:30:33.272Z</time></trkpt><trkpt lat="46.1469941" lon="12.1848346"><ele>557.0</ele><time>2026-05-01T12:30:35.27Z</time></trkpt><trkpt lat="46.147047" lon="12.1849092"><ele>557.0</ele><time>2026-05-01T12:30:37.271Z</time></trkpt><trkpt lat="46.1471028" lon="12.18499"><ele>557.0</ele><time>2026-05-01T12:30:39.26Z</time></trkpt><trkpt lat="46.1471603" lon="12.1850738"><ele>557.0</ele><time>2026-05-01T12:30:41.262Z</time></trkpt><trkpt lat="46.1472176" lon="12.1851654"><ele>557.0</ele><time>2026-05-01T12:30:43.27Z</time></trkpt><trkpt lat="46.1472762" lon="12.1852578"><ele>557.0</ele><time>2026-05-01T12:30:45.264Z</time></trkpt><trkpt lat="46.1473385" lon="12.1853394"><ele>557.0</ele><time>2026-05-01T12:30:47.269Z</time></trkpt><trkpt lat="46.1473897" lon="12.1854169"><ele>557.0</ele><time>2026-05-01T12:30:49.27Z</time></trkpt><trkpt lat="46.1474425" lon="12.1854702"><ele>557.0</ele><time>2026-05-01T12:30:51.27Z</time></trkpt><trkpt lat="46.1475234" lon="12.1854583"><ele>557.0</ele><time>2026-05-01T12:30:53.261Z</time></trkpt><trkpt lat="46.1475871" lon="12.1854576"><ele>556.6666666666666</ele><time>2026-05-01T12:30:55.27Z</time></trkpt><trkpt lat="46.1476546" lon="12.1854757"><ele>556.3333333333333</ele><time>2026-05-01T12:30:59.264Z</time></trkpt><trkpt lat="46.1477343" lon="12.1855358"><ele>556.0</ele><time>2026-05-01T12:31:10.265Z</time></trkpt><trkpt lat="46.1477896" lon="12.1856046"><ele>555.6666666666666</ele><time>2026-05-01T12:31:12.264Z</time></trkpt><trkpt lat="46.1478341" lon="12.1856805"><ele>555.3333333333334</ele><time>2026-05-01T12:31:14.269Z</time></trkpt><trkpt lat="46.1478828" lon="12.1857733"><ele>555.0</ele><time>2026-05-01T12:31:16.261Z</time></trkpt><trkpt lat="46.14794" lon="12.1858707"><ele>555.0</ele><time>2026-05-01T12:31:18.263Z</time></trkpt><trkpt lat="46.1479881" lon="12.1859821"><ele>555.0</ele><time>2026-05-01T12:31:20.27Z</time></trkpt><trkpt lat="46.1480361" lon="12.1860913"><ele>555.0</ele><time>2026-05-01T12:31:22.266Z</time></trkpt><trkpt lat="46.1480831" lon="12.1862137"><ele>555.0</ele><time>2026-05-01T12:31:24.271Z</time></trkpt><trkpt lat="46.1481563" lon="12.1863227"><ele>555.0</ele><time>2026-05-01T12:31:26.271Z</time></trkpt><trkpt lat="46.1482519" lon="12.1864111"><ele>554.2</ele><time>2026-05-01T12:31:28.262Z</time></trkpt><trkpt lat="46.1483348" lon="12.186521"><ele>553.4</ele><time>2026-05-01T12:31:30.269Z</time></trkpt><trkpt lat="46.148397" lon="12.1866667"><ele>552.6</ele><time>2026-05-01T12:31:32.27Z</time></trkpt><trkpt lat="46.1484107" lon="12.1868452"><ele>551.8</ele><time>2026-05-01T12:31:34.269Z</time></trkpt><trkpt lat="46.1484111" lon="12.186938"><ele>551.0</ele><time>2026-05-01T12:31:35.263Z</time></trkpt><trkpt lat="46.1484216" lon="12.1871109"><ele>551.0</ele><time>2026-05-01T12:31:37.273Z</time></trkpt><trkpt lat="46.1484547" lon="12.1872698"><ele>551.0</ele><time>2026-05-01T12:31:39.263Z</time></trkpt><trkpt lat="46.1484708" lon="12.1873903"><ele>551.0</ele><time>2026-05-01T12:31:41.261Z</time></trkpt><trkpt lat="46.1484789" lon="12.1875005"><ele>551.0</ele><time>2026-05-01T12:31:43.269Z</time></trkpt><trkpt lat="46.1484699" lon="12.187599"><ele>551.0</ele><time>2026-05-01T12:31:45.269Z</time></trkpt><trkpt lat="46.1484535" lon="12.1877244"><ele>551.0</ele><time>2026-05-01T12:31:48.265Z</time></trkpt><trkpt lat="46.1484457" lon="12.1878459"><ele>550.6666666666666</ele><time>2026-05-01T12:31:51.262Z</time></trkpt><trkpt lat="46.1484458" lon="12.1879562"><ele>550.3333333333333</ele><time>2026-05-01T12:31:54.265Z</time></trkpt><trkpt lat="46.1484471" lon="12.188055"><ele>550.0</ele><time>2026-05-01T12:31:57.272Z</time></trkpt><trkpt lat="46.1484382" lon="12.1881618"><ele>549.6666666666666</ele><time>2026-05-01T12:32:00.264Z</time></trkpt><trkpt lat="46.1484094" lon="12.1882625"><ele>549.3333333333334</ele><time>2026-05-01T12:32:03.268Z</time></trkpt><trkpt lat="46.1483473" lon="12.1883403"><ele>549.0</ele><time>2026-05-01T12:32:06.261Z</time></trkpt><trkpt lat="46.1482623" lon="12.1883991"><ele>548.1666666666666</ele><time>2026-05-01T12:32:09.271Z</time></trkpt><trkpt lat="46.1481854" lon="12.1884393"><ele>547.3333333333334</ele><time>2026-05-01T12:32:11.262Z</time></trkpt><trkpt lat="46.1481038" lon="12.1884749"><ele>546.5</ele><time>2026-05-01T12:32:13.262Z</time></trkpt><trkpt lat="46.1480287" lon="12.188508"><ele>545.6666666666667</ele><time>2026-05-01T12:32:15.267Z</time></trkpt><trkpt lat="46.1479585" lon="12.1885522"><ele>544.8333333333334</ele><time>2026-05-01T12:32:17.264Z</time></trkpt><trkpt lat="46.1478998" lon="12.1885975"><ele>544.0</ele><time>2026-05-01T12:32:19.259Z</time></trkpt><trkpt lat="46.1478472" lon="12.1886552"><ele>544.0</ele><time>2026-05-01T12:32:21.261Z</time></trkpt><trkpt lat="46.1477839" lon="12.1887422"><ele>544.0</ele><time>2026-05-01T12:32:23.268Z</time></trkpt><trkpt lat="46.1477154" lon="12.1888543"><ele>544.0</ele><time>2026-05-01T12:32:25.26Z</time></trkpt><trkpt lat="46.1476661" lon="12.188982"><ele>544.0</ele><time>2026-05-01T12:32:27.259Z</time></trkpt><trkpt lat="46.1476447" lon="12.1891058"><ele>544.0</ele><time>2026-05-01T12:32:29.26Z</time></trkpt><trkpt lat="46.1476359" lon="12.1892135"><ele>545.2857142857142</ele><time>2026-05-01T12:32:31.261Z</time></trkpt><trkpt lat="46.1476235" lon="12.1893189"><ele>546.5714285714286</ele><time>2026-05-01T12:32:33.27Z</time></trkpt><trkpt lat="46.1476107" lon="12.1894226"><ele>547.8571428571429</ele><time>2026-05-01T12:32:35.275Z</time></trkpt><trkpt lat="46.1475952" lon="12.1895267"><ele>549.1428571428571</ele><time>2026-05-01T12:32:37.268Z</time></trkpt><trkpt lat="46.1475813" lon="12.1896298"><ele>550.4285714285714</ele><time>2026-05-01T12:32:39.262Z</time></trkpt><trkpt lat="46.1475632" lon="12.1897297"><ele>551.7142857142857</ele><time>2026-05-01T12:32:41.272Z</time></trkpt><trkpt lat="46.1475586" lon="12.189821"><ele>553.0</ele><time>2026-05-01T12:32:43.268Z</time></trkpt><trkpt lat="46.147615" lon="12.1899057"><ele>553.8333333333334</ele><time>2026-05-01T12:32:46.267Z</time></trkpt><trkpt lat="46.147607" lon="12.1900236"><ele>554.6666666666667</ele><time>2026-05-01T12:32:49.269Z</time></trkpt><trkpt lat="46.1475938" lon="12.1901466"><ele>555.5</ele><time>2026-05-01T12:32:52.259Z</time></trkpt><trkpt lat="46.1475779" lon="12.1902782"><ele>556.3333333333334</ele><time>2026-05-01T12:32:55.262Z</time></trkpt><trkpt lat="46.1475692" lon="12.1903754"><ele>557.1666666666666</ele><time>2026-05-01T12:32:57.262Z</time></trkpt><trkpt lat="46.1475792" lon="12.1904684"><ele>558.0</ele><time>2026-05-01T12:32:59.271Z</time></trkpt><trkpt lat="46.1475981" lon="12.1906093"><ele>557.6</ele><time>2026-05-01T12:33:02.27Z</time></trkpt><trkpt lat="46.1476061" lon="12.1907289"><ele>557.1999999999999</ele><time>2026-05-01T12:33:04.268Z</time></trkpt><trkpt lat="46.1476144" lon="12.1908621"><ele>556.8</ele><time>2026-05-01T12:33:06.269Z</time></trkpt><trkpt lat="46.1476288" lon="12.1910123"><ele>556.4</ele><time>2026-05-01T12:33:08.268Z</time></trkpt><trkpt lat="46.1476378" lon="12.1911677"><ele>556.0</ele><time>2026-05-01T12:33:10.256Z</time></trkpt><trkpt lat="46.1476427" lon="12.1913131"><ele>556.0</ele><time>2026-05-01T12:33:12.265Z</time></trkpt><trkpt lat="46.1476456" lon="12.1914514"><ele>556.0</ele><time>2026-05-01T12:33:14.273Z</time></trkpt><trkpt lat="46.1476564" lon="12.1915581"><ele>556.0</ele><time>2026-05-01T12:33:16.269Z</time></trkpt><trkpt lat="46.1476799" lon="12.191665"><ele>556.0</ele><time>2026-05-01T12:33:19.268Z</time></trkpt><trkpt lat="46.1477063" lon="12.1917648"><ele>556.0</ele><time>2026-05-01T12:33:23.27Z</time></trkpt><trkpt lat="46.1477423" lon="12.1918635"><ele>556.0</ele><time>2026-05-01T12:33:47.259Z</time></trkpt><trkpt lat="46.1477808" lon="12.1919609"><ele>555.6666666666667</ele><time>2026-05-01T12:34:21.26Z</time></trkpt><trkpt lat="46.1478291" lon="12.1920306"><ele>555.3333333333334</ele><time>2026-05-01T12:34:24.26Z</time></trkpt><trkpt lat="46.1478884" lon="12.1921033"><ele>555.0</ele><time>2026-05-01T12:34:27.268Z</time></trkpt><trkpt lat="46.1479852" lon="12.1921464"><ele>554.6666666666666</ele><time>2026-05-01T12:34:30.269Z</time></trkpt><trkpt lat="46.1480467" lon="12.1921906"><ele>554.3333333333333</ele><time>2026-05-01T12:34:32.27Z</time></trkpt><trkpt lat="46.1481106" lon="12.1922142"><ele>554.0</ele><time>2026-05-01T12:34:34.269Z</time></trkpt><trkpt lat="46.1481751" lon="12.1922453"><ele>553.5714285714286</ele><time>2026-05-01T12:34:37.263Z</time></trkpt><trkpt lat="46.1482307" lon="12.1923021"><ele>553.1428571428571</ele><time>2026-05-01T12:34:42.265Z</time></trkpt><trkpt lat="46.1482998" lon="12.1923265"><ele>552.7142857142857</ele><time>2026-05-01T12:34:46.269Z</time></trkpt><trkpt lat="46.1483672" lon="12.1923834"><ele>552.2857142857142</ele><time>2026-05-01T12:34:51.261Z</time></trkpt><trkpt lat="46.1484202" lon="12.192443"><ele>551.8571428571429</ele><time>2026-05-01T12:34:55.263Z</time></trkpt><trkpt lat="46.1484365" lon="12.1925441"><ele>551.4285714285713</ele><time>2026-05-01T12:34:57.269Z</time></trkpt><trkpt lat="46.1484296" lon="12.1926431"><ele>551.0</ele><time>2026-05-01T12:35:00.265Z</time></trkpt><trkpt lat="46.1483815" lon="12.1927045"><ele>550.9999999999999</ele><time>2026-05-01T12:35:05.27Z</time></trkpt><trkpt lat="46.1483139" lon="12.1927346"><ele>551.0</ele><time>2026-05-01T12:35:10.26Z</time></trkpt><trkpt lat="46.1482551" lon="12.1927678"><ele>551.0</ele><time>2026-05-01T12:35:14.269Z</time></trkpt><trkpt lat="46.148194" lon="12.1928267"><ele>551.0</ele><time>2026-05-01T12:35:18.264Z</time></trkpt><trkpt lat="46.1481139" lon="12.192882"><ele>551.0</ele><time>2026-05-01T12:35:22.267Z</time></trkpt><trkpt lat="46.1480646" lon="12.1929413"><ele>550.9999999999999</ele><time>2026-05-01T12:35:24.258Z</time></trkpt><trkpt lat="46.1480023" lon="12.1930249"><ele>551.0</ele><time>2026-05-01T12:35:27.267Z</time></trkpt><trkpt lat="46.1480019" lon="12.1931191"><ele>547.8333333333333</ele><time>2026-05-01T12:35:54.271Z</time></trkpt><trkpt lat="46.1480749" lon="12.1931742"><ele>544.6666666666666</ele><time>2026-05-01T12:35:57.269Z</time></trkpt><trkpt lat="46.1481462" lon="12.1931914"><ele>541.5</ele><time>2026-05-01T12:35:59.271Z</time></trkpt><trkpt lat="46.148228" lon="12.193215"><ele>538.3333333333334</ele><time>2026-05-01T12:36:01.264Z</time></trkpt><trkpt lat="46.1482884" lon="12.1932464"><ele>535.1666666666667</ele><time>2026-05-01T12:36:03.265Z</time></trkpt><trkpt lat="46.1483815" lon="12.1932936"><ele>532.0</ele><time>2026-05-01T12:36:05.269Z</time></trkpt><trkpt lat="46.1484572" lon="12.1933259"><ele>532.0</ele><time>2026-05-01T12:36:07.258Z</time></trkpt><trkpt lat="46.1485146" lon="12.1933709"><ele>532.0</ele><time>2026-05-01T12:36:09.266Z</time></trkpt><trkpt lat="46.1485787" lon="12.1934208"><ele>532.0</ele><time>2026-05-01T12:36:11.259Z</time></trkpt><trkpt lat="46.1486401" lon="12.1934492"><ele>532.0</ele><time>2026-05-01T12:36:13.26Z</time></trkpt><trkpt lat="46.1487251" lon="12.1934929"><ele>532.0</ele><time>2026-05-01T12:36:15.267Z</time></trkpt><trkpt lat="46.1488" lon="12.1935413"><ele>532.0</ele><time>2026-05-01T12:36:18.26Z</time></trkpt><trkpt lat="46.1488776" lon="12.1934927"><ele>532.0</ele><time>2026-05-01T12:36:21.26Z</time></trkpt><trkpt lat="46.1489302" lon="12.1934404"><ele>532.0</ele><time>2026-05-01T12:36:23.271Z</time></trkpt><trkpt lat="46.1490183" lon="12.1934153"><ele>532.0</ele><time>2026-05-01T12:36:28.267Z</time></trkpt><trkpt lat="46.1490886" lon="12.1934766"><ele>532.0</ele><time>2026-05-01T12:36:30.261Z</time></trkpt><trkpt lat="46.149126" lon="12.1935846"><ele>532.0</ele><time>2026-05-01T12:36:33.255Z</time></trkpt><trkpt lat="46.1491956" lon="12.1936698"><ele>532.0</ele><time>2026-05-01T12:36:35.268Z</time></trkpt><trkpt lat="46.1492312" lon="12.193775"><ele>528.8333333333334</ele><time>2026-05-01T12:36:52.26Z</time></trkpt><trkpt lat="46.1492006" lon="12.1938843"><ele>525.6666666666667</ele><time>2026-05-01T12:37:15.267Z</time></trkpt><trkpt lat="46.1491659" lon="12.193985"><ele>522.5</ele><time>2026-05-01T12:37:18.269Z</time></trkpt><trkpt lat="46.1491122" lon="12.1940457"><ele>519.3333333333334</ele><time>2026-05-01T12:37:20.259Z</time></trkpt><trkpt lat="46.1490516" lon="12.194109"><ele>516.1666666666666</ele><time>2026-05-01T12:37:22.27Z</time></trkpt><trkpt lat="46.14901" lon="12.1942087"><ele>513.0</ele><time>2026-05-01T12:37:24.267Z</time></trkpt><trkpt lat="46.1489644" lon="12.1942997"><ele>511.6666666666667</ele><time>2026-05-01T12:37:26.264Z</time></trkpt><trkpt lat="46.148918" lon="12.1943725"><ele>510.33333333333337</ele><time>2026-05-01T12:37:29.266Z</time></trkpt><trkpt lat="46.1488379" lon="12.1943983"><ele>509.0</ele><time>2026-05-01T12:37:38.265Z</time></trkpt><trkpt lat="46.1487603" lon="12.1944017"><ele>507.6666666666667</ele><time>2026-05-01T12:37:39.262Z</time></trkpt><trkpt lat="46.1486562" lon="12.1944166"><ele>506.33333333333337</ele><time>2026-05-01T12:37:41.266Z</time></trkpt><trkpt lat="46.1485561" lon="12.1943966"><ele>505.0</ele><time>2026-05-01T12:37:43.268Z</time></trkpt><trkpt lat="46.1484864" lon="12.1944126"><ele>505.0</ele><time>2026-05-01T12:37:45.268Z</time></trkpt><trkpt lat="46.148391" lon="12.1943905"><ele>505.0</ele><time>2026-05-01T12:37:47.271Z</time></trkpt><trkpt lat="46.1483269" lon="12.1943974"><ele>505.0</ele><time>2026-05-01T12:37:54.269Z</time></trkpt><trkpt lat="46.1483197" lon="12.1945288"><ele>505.0</ele><time>2026-05-01T12:37:59.267Z</time></trkpt><trkpt lat="46.148297" lon="12.1946588"><ele>505.0</ele><time>2026-05-01T12:38:01.269Z</time></trkpt><trkpt lat="46.1482812" lon="12.1948144"><ele>502.33333333333337</ele><time>2026-05-01T12:38:03.27Z</time></trkpt><trkpt lat="46.1482941" lon="12.1949269"><ele>499.6666666666667</ele><time>2026-05-01T12:38:05.27Z</time></trkpt><trkpt lat="46.148335" lon="12.1950253"><ele>497.0</ele><time>2026-05-01T12:38:07.261Z</time></trkpt><trkpt lat="46.1483841" lon="12.1951188"><ele>494.33333333333337</ele><time>2026-05-01T12:38:09.274Z</time></trkpt><trkpt lat="46.1484488" lon="12.1951985"><ele>491.6666666666667</ele><time>2026-05-01T12:38:11.265Z</time></trkpt><trkpt lat="46.1485057" lon="12.1953039"><ele>489.0</ele><time>2026-05-01T12:38:13.262Z</time></trkpt><trkpt lat="46.1485642" lon="12.1954454"><ele>489.0</ele><time>2026-05-01T12:38:15.268Z</time></trkpt><trkpt lat="46.148618" lon="12.1956063"><ele>489.0</ele><time>2026-05-01T12:38:17.278Z</time></trkpt><trkpt lat="46.1486411" lon="12.1957073"><ele>489.0</ele><time>2026-05-01T12:38:18.265Z</time></trkpt><trkpt lat="46.1486655" lon="12.1957967"><ele>489.0</ele><time>2026-05-01T12:38:19.267Z</time></trkpt><trkpt lat="46.1486955" lon="12.1958771"><ele>489.0</ele><time>2026-05-01T12:38:20.262Z</time></trkpt><trkpt lat="46.1487317" lon="12.1959741"><ele>489.0</ele><time>2026-05-01T12:38:21.269Z</time></trkpt><trkpt lat="46.1487659" lon="12.1960671"><ele>487.6666666666667</ele><time>2026-05-01T12:38:22.269Z</time></trkpt><trkpt lat="46.1487994" lon="12.1961664"><ele>486.33333333333337</ele><time>2026-05-01T12:38:23.262Z</time></trkpt><trkpt lat="46.148833" lon="12.1962653"><ele>485.0</ele><time>2026-05-01T12:38:24.258Z</time></trkpt><trkpt lat="46.1488688" lon="12.1963751"><ele>483.6666666666667</ele><time>2026-05-01T12:38:25.263Z</time></trkpt><trkpt lat="46.148904" lon="12.1964795"><ele>482.33333333333337</ele><time>2026-05-01T12:38:26.271Z</time></trkpt><trkpt lat="46.1489334" lon="12.1965817"><ele>481.0</ele><time>2026-05-01T12:38:27.269Z</time></trkpt><trkpt lat="46.1489662" lon="12.1966812"><ele>479.50000000000006</ele><time>2026-05-01T12:38:28.262Z</time></trkpt><trkpt lat="46.1489928" lon="12.1967845"><ele>478.0</ele><time>2026-05-01T12:38:29.276Z</time></trkpt><trkpt lat="46.1490157" lon="12.1968784"><ele>476.5</ele><time>2026-05-01T12:38:30.268Z</time></trkpt><trkpt lat="46.1490475" lon="12.1970492"><ele>475.0</ele><time>2026-05-01T12:38:32.269Z</time></trkpt><trkpt lat="46.1490637" lon="12.197153"><ele>473.50000000000006</ele><time>2026-05-01T12:38:34.269Z</time></trkpt><trkpt lat="46.1490846" lon="12.19726"><ele>472.0</ele><time>2026-05-01T12:38:36.27Z</time></trkpt><trkpt lat="46.1491066" lon="12.1973578"><ele>471.83333333333337</ele><time>2026-05-01T12:38:38.273Z</time></trkpt><trkpt lat="46.1491442" lon="12.1974667"><ele>471.6666666666667</ele><time>2026-05-01T12:38:41.273Z</time></trkpt><trkpt lat="46.1491657" lon="12.1975636"><ele>471.5</ele><time>2026-05-01T12:38:45.267Z</time></trkpt><trkpt lat="46.1491963" lon="12.1976439"><ele>471.33333333333337</ele><time>2026-05-01T12:38:51.262Z</time></trkpt><trkpt lat="46.1492488" lon="12.1977228"><ele>471.1666666666667</ele><time>2026-05-01T12:38:54.268Z</time></trkpt><trkpt lat="46.1492696" lon="12.1978419"><ele>471.0</ele><time>2026-05-01T12:38:58.262Z</time></trkpt><trkpt lat="46.1492786" lon="12.1979763"><ele>471.0</ele><time>2026-05-01T12:39:02.26Z</time></trkpt><trkpt lat="46.149283" lon="12.1980804"><ele>471.0</ele><time>2026-05-01T12:39:03.27Z</time></trkpt><trkpt lat="46.1493133" lon="12.1982019"><ele>471.0</ele><time>2026-05-01T12:39:06.269Z</time></trkpt><trkpt lat="46.1493476" lon="12.1982889"><ele>471.0</ele><time>2026-05-01T12:39:08.266Z</time></trkpt><trkpt lat="46.1493888" lon="12.1983717"><ele>471.0</ele><time>2026-05-01T12:39:10.27Z</time></trkpt><trkpt lat="46.149433" lon="12.1984966"><ele>471.0</ele><time>2026-05-01T12:39:12.269Z</time></trkpt><trkpt lat="46.149489" lon="12.198619"><ele>469.20000000000005</ele><time>2026-05-01T12:39:14.269Z</time></trkpt><trkpt lat="46.1495518" lon="12.1987428"><ele>467.40000000000003</ele><time>2026-05-01T12:39:16.271Z</time></trkpt><trkpt lat="46.1496504" lon="12.1988576"><ele>465.6</ele><time>2026-05-01T12:39:18.264Z</time></trkpt><trkpt lat="46.1497242" lon="12.1989429"><ele>463.8</ele><time>2026-05-01T12:39:20.269Z</time></trkpt><trkpt lat="46.1498016" lon="12.1990256"><ele>462.0</ele><time>2026-05-01T12:39:22.287Z</time></trkpt><trkpt lat="46.1498604" lon="12.1990948"><ele>460.5</ele><time>2026-05-01T12:39:24.261Z</time></trkpt><trkpt lat="46.1499381" lon="12.1991306"><ele>459.0</ele><time>2026-05-01T12:39:26.26Z</time></trkpt><trkpt lat="46.1500129" lon="12.1991862"><ele>457.5</ele><time>2026-05-01T12:39:28.264Z</time></trkpt><trkpt lat="46.1500607" lon="12.1992471"><ele>456.0</ele><time>2026-05-01T12:39:30.272Z</time></trkpt><trkpt lat="46.150117" lon="12.1993042"><ele>454.5</ele><time>2026-05-01T12:39:31.27Z</time></trkpt><trkpt lat="46.1502042" lon="12.1994105"><ele>453.0</ele><time>2026-05-01T12:39:33.272Z</time></trkpt><trkpt lat="46.1503162" lon="12.1995205"><ele>453.0</ele><time>2026-05-01T12:39:35.271Z</time></trkpt><trkpt lat="46.1504063" lon="12.1996203"><ele>453.0</ele><time>2026-05-01T12:39:37.266Z</time></trkpt><trkpt lat="46.150478" lon="12.1997162"><ele>453.0</ele><time>2026-05-01T12:39:39.269Z</time></trkpt><trkpt lat="46.1504922" lon="12.1998084"><ele>453.0</ele><time>2026-05-01T12:39:41.268Z</time></trkpt><trkpt lat="46.1504501" lon="12.1999072"><ele>453.0</ele><time>2026-05-01T12:39:45.268Z</time></trkpt><trkpt lat="46.1503968" lon="12.19998"><ele>453.0</ele><time>2026-05-01T12:39:49.268Z</time></trkpt><trkpt lat="46.1504247" lon="12.1998899"><ele>452.99999999999994</ele><time>2026-05-01T12:39:55.27Z</time></trkpt><trkpt lat="46.1504671" lon="12.1998127"><ele>453.0</ele><time>2026-05-01T12:39:59.269Z</time></trkpt><trkpt lat="46.1504762" lon="12.1997034"><ele>452.99999999999994</ele><time>2026-05-01T12:40:02.264Z</time></trkpt><trkpt lat="46.150433" lon="12.1996152"><ele>452.99999999999994</ele><time>2026-05-01T12:40:05.271Z</time></trkpt><trkpt lat="46.1503873" lon="12.199543"><ele>453.0</ele><time>2026-05-01T12:40:08.264Z</time></trkpt><trkpt lat="46.1503335" lon="12.1994804"><ele>452.99999999999994</ele><time>2026-05-01T12:40:11.27Z</time></trkpt><trkpt lat="46.1502771" lon="12.199414"><ele>452.99999999999994</ele><time>2026-05-01T12:40:14.264Z</time></trkpt><trkpt lat="46.1502284" lon="12.1993503"><ele>452.99999999999994</ele><time>2026-05-01T12:40:17.269Z</time></trkpt><trkpt lat="46.1501585" lon="12.1992922"><ele>453.0</ele><time>2026-05-01T12:40:21.263Z</time></trkpt><trkpt lat="46.1501036" lon="12.199243"><ele>452.99999999999994</ele><time>2026-05-01T12:40:24.268Z</time></trkpt><trkpt lat="46.1500505" lon="12.1991879"><ele>452.99999999999994</ele><time>2026-05-01T12:40:28.264Z</time></trkpt><trkpt lat="46.1499877" lon="12.1991447"><ele>453.0</ele><time>2026-05-01T12:40:31.27Z</time></trkpt><trkpt lat="46.1499176" lon="12.1991042"><ele>452.99999999999994</ele><time>2026-05-01T12:40:35.265Z</time></trkpt><trkpt lat="46.1498554" lon="12.1990518"><ele>452.99999999999994</ele><time>2026-05-01T12:40:39.261Z</time></trkpt><trkpt lat="46.1497918" lon="12.1989742"><ele>454.2857142857142</ele><time>2026-05-01T12:40:43.27Z</time></trkpt><trkpt lat="46.1497161" lon="12.1989255"><ele>455.57142857142856</ele><time>2026-05-01T12:40:47.268Z</time></trkpt><trkpt lat="46.1496587" lon="12.1988602"><ele>456.85714285714283</ele><time>2026-05-01T12:40:51.268Z</time></trkpt><trkpt lat="46.1496096" lon="12.1987869"><ele>458.1428571428571</ele><time>2026-05-01T12:40:55.267Z</time></trkpt><trkpt lat="46.1495586" lon="12.1987073"><ele>459.42857142857144</ele><time>2026-05-01T12:40:59.261Z</time></trkpt><trkpt lat="46.1495209" lon="12.1986211"><ele>460.7142857142857</ele><time>2026-05-01T12:41:06.269Z</time></trkpt><trkpt lat="46.1494727" lon="12.1985361"><ele>462.0</ele><time>2026-05-01T12:41:10.262Z</time></trkpt><trkpt lat="46.1494278" lon="12.1984348"><ele>462.0</ele><time>2026-05-01T12:41:14.268Z</time></trkpt><trkpt lat="46.1493941" lon="12.1983544"><ele>462.0</ele><time>2026-05-01T12:41:18.263Z</time></trkpt><trkpt lat="46.1493525" lon="12.1982736"><ele>462.0</ele><time>2026-05-01T12:41:22.262Z</time></trkpt><trkpt lat="46.149333" lon="12.1981849"><ele>462.0</ele><time>2026-05-01T12:41:27.267Z</time></trkpt><trkpt lat="46.149345" lon="12.1980935"><ele>462.0</ele><time>2026-05-01T12:41:32.264Z</time></trkpt><trkpt lat="46.149333" lon="12.1979974"><ele>462.0</ele><time>2026-05-01T12:41:37.273Z</time></trkpt><trkpt lat="46.1492969" lon="12.1979144"><ele>462.0</ele><time>2026-05-01T12:41:41.26Z</time></trkpt><trkpt lat="46.1492445" lon="12.19784"><ele>461.1666666666667</ele><time>2026-05-01T12:41:51.27Z</time></trkpt><trkpt lat="46.1491712" lon="12.1977375"><ele>460.33333333333337</ele><time>2026-05-01T12:42:08.259Z</time></trkpt><trkpt lat="46.1491146" lon="12.1976652"><ele>459.5</ele><time>2026-05-01T12:42:12.268Z</time></trkpt><trkpt lat="46.1490461" lon="12.1976221"><ele>458.6666666666667</ele><time>2026-05-01T12:42:16.269Z</time></trkpt><trkpt lat="46.1489834" lon="12.1975586"><ele>457.83333333333337</ele><time>2026-05-01T12:42:20.253Z</time></trkpt><trkpt lat="46.1489384" lon="12.1974934"><ele>457.0</ele><time>2026-05-01T12:42:24.267Z</time></trkpt><trkpt lat="46.1488956" lon="12.1973995"><ele>459.50000000000006</ele><time>2026-05-01T12:42:28.269Z</time></trkpt><trkpt lat="46.1488744" lon="12.1973017"><ele>462.0</ele><time>2026-05-01T12:42:33.258Z</time></trkpt><trkpt lat="46.1488595" lon="12.1971919"><ele>464.5</ele><time>2026-05-01T12:42:37.269Z</time></trkpt><trkpt lat="46.1488299" lon="12.1971019"><ele>467.0</ele><time>2026-05-01T12:42:41.26Z</time></trkpt><trkpt lat="46.1487874" lon="12.1969859"><ele>469.50000000000006</ele><time>2026-05-01T12:42:45.267Z</time></trkpt><trkpt lat="46.1487553" lon="12.1969018"><ele>472.0</ele><time>2026-05-01T12:42:47.269Z</time></trkpt><trkpt lat="46.1487253" lon="12.1967808"><ele>472.00000000000006</ele><time>2026-05-01T12:42:50.267Z</time></trkpt><trkpt lat="46.1487033" lon="12.1966726"><ele>472.0</ele><time>2026-05-01T12:42:53.266Z</time></trkpt><trkpt lat="46.1486491" lon="12.1965657"><ele>472.0</ele><time>2026-05-01T12:42:56.27Z</time></trkpt><trkpt lat="46.1485939" lon="12.1964601"><ele>472.0</ele><time>2026-05-01T12:42:59.263Z</time></trkpt><trkpt lat="46.1485391" lon="12.1963487"><ele>472.00000000000006</ele><time>2026-05-01T12:43:02.27Z</time></trkpt><trkpt lat="46.1485013" lon="12.1962484"><ele>472.0</ele><time>2026-05-01T12:43:05.27Z</time></trkpt><trkpt lat="46.1484613" lon="12.1961415"><ele>471.50000000000006</ele><time>2026-05-01T12:43:08.269Z</time></trkpt><trkpt lat="46.1484313" lon="12.1960381"><ele>471.0</ele><time>2026-05-01T12:43:11.26Z</time></trkpt><trkpt lat="46.1483765" lon="12.1959367"><ele>470.5</ele><time>2026-05-01T12:43:14.264Z</time></trkpt><trkpt lat="46.1483266" lon="12.1958623"><ele>470.0</ele><time>2026-05-01T12:43:16.261Z</time></trkpt><trkpt lat="46.1482818" lon="12.1957729"><ele>469.50000000000006</ele><time>2026-05-01T12:43:19.269Z</time></trkpt><trkpt lat="46.1482339" lon="12.1956732"><ele>469.0</ele><time>2026-05-01T12:43:22.267Z</time></trkpt><trkpt lat="46.1481916" lon="12.1955509"><ele>469.00000000000006</ele><time>2026-05-01T12:43:25.267Z</time></trkpt><trkpt lat="46.1481689" lon="12.1954654"><ele>469.0</ele><time>2026-05-01T12:43:27.266Z</time></trkpt><trkpt lat="46.1481586" lon="12.1953676"><ele>469.0</ele><time>2026-05-01T12:43:30.269Z</time></trkpt><trkpt lat="46.1481189" lon="12.1952519"><ele>469.0</ele><time>2026-05-01T12:43:33.268Z</time></trkpt><trkpt lat="46.1480859" lon="12.195142"><ele>469.00000000000006</ele><time>2026-05-01T12:43:36.269Z</time></trkpt><trkpt lat="46.1480719" lon="12.1950227"><ele>469.0</ele><time>2026-05-01T12:43:39.271Z</time></trkpt><trkpt lat="46.1480789" lon="12.1949151"><ele>471.83333333333337</ele><time>2026-05-01T12:43:42.267Z</time></trkpt><trkpt lat="46.1480909" lon="12.1948249"><ele>474.6666666666667</ele><time>2026-05-01T12:43:44.264Z</time></trkpt><trkpt lat="46.1481195" lon="12.1947202"><ele>477.5</ele><time>2026-05-01T12:43:47.264Z</time></trkpt><trkpt lat="46.1481674" lon="12.1946468"><ele>480.33333333333337</ele><time>2026-05-01T12:43:50.267Z</time></trkpt><trkpt lat="46.1482355" lon="12.1945646"><ele>483.1666666666667</ele><time>2026-05-01T12:43:53.27Z</time></trkpt><trkpt lat="46.1482903" lon="12.1944579"><ele>486.0</ele><time>2026-05-01T12:43:55.266Z</time></trkpt><trkpt lat="46.1483488" lon="12.1943951"><ele>488.71428571428567</ele><time>2026-05-01T12:43:57.27Z</time></trkpt><trkpt lat="46.1484141" lon="12.1943823"><ele>491.42857142857144</ele><time>2026-05-01T12:44:00.271Z</time></trkpt><trkpt lat="46.1484862" lon="12.1943917"><ele>494.1428571428571</ele><time>2026-05-01T12:44:04.264Z</time></trkpt><trkpt lat="46.1485575" lon="12.1944122"><ele>496.85714285714283</ele><time>2026-05-01T12:44:08.262Z</time></trkpt><trkpt lat="46.1486201" lon="12.1944266"><ele>499.57142857142856</ele><time>2026-05-01T12:44:12.262Z</time></trkpt><trkpt lat="46.1486932" lon="12.1944217"><ele>502.2857142857143</ele><time>2026-05-01T12:44:16.271Z</time></trkpt><trkpt lat="46.1487658" lon="12.1944137"><ele>505.0</ele><time>2026-05-01T12:44:19.268Z</time></trkpt><trkpt lat="46.1488437" lon="12.1943975"><ele>505.0</ele><time>2026-05-01T12:44:23.268Z</time></trkpt><trkpt lat="46.1489118" lon="12.1943268"><ele>504.99999999999994</ele><time>2026-05-01T12:44:27.269Z</time></trkpt><trkpt lat="46.1489549" lon="12.1942428"><ele>505.0</ele><time>2026-05-01T12:44:30.26Z</time></trkpt><trkpt lat="46.1490011" lon="12.1941575"><ele>505.0</ele><time>2026-05-01T12:44:33.271Z</time></trkpt><trkpt lat="46.1490541" lon="12.1940665"><ele>504.99999999999994</ele><time>2026-05-01T12:44:36.267Z</time></trkpt><trkpt lat="46.1490984" lon="12.1939987"><ele>505.0</ele><time>2026-05-01T12:44:39.265Z</time></trkpt><trkpt lat="46.1491116" lon="12.1939095"><ele>505.0</ele><time>2026-05-01T12:44:42.26Z</time></trkpt><trkpt lat="46.1491553" lon="12.1938425"><ele>506.33333333333337</ele><time>2026-05-01T12:44:45.261Z</time></trkpt><trkpt lat="46.1492046" lon="12.1937522"><ele>507.6666666666667</ele><time>2026-05-01T12:44:49.262Z</time></trkpt><trkpt lat="46.1492326" lon="12.1936371"><ele>509.0</ele><time>2026-05-01T12:44:56.262Z</time></trkpt><trkpt lat="46.149267" lon="12.1935294"><ele>510.33333333333337</ele><time>2026-05-01T12:44:59.265Z</time></trkpt><trkpt lat="46.1492825" lon="12.193424"><ele>511.6666666666667</ele><time>2026-05-01T12:45:02.262Z</time></trkpt><trkpt lat="46.1492748" lon="12.1933204"><ele>513.0</ele><time>2026-05-01T12:45:05.262Z</time></trkpt><trkpt lat="46.1492845" lon="12.1932109"><ele>515.1666666666666</ele><time>2026-05-01T12:45:08.272Z</time></trkpt><trkpt lat="46.1493051" lon="12.1931022"><ele>517.3333333333334</ele><time>2026-05-01T12:45:11.262Z</time></trkpt><trkpt lat="46.1493296" lon="12.1930055"><ele>519.5</ele><time>2026-05-01T12:45:14.262Z</time></trkpt><trkpt lat="46.1493855" lon="12.1929539"><ele>521.6666666666667</ele><time>2026-05-01T12:45:19.259Z</time></trkpt><trkpt lat="46.1494625" lon="12.1929636"><ele>523.8333333333334</ele><time>2026-05-01T12:45:23.26Z</time></trkpt><trkpt lat="46.1495432" lon="12.1929715"><ele>526.0</ele><time>2026-05-01T12:45:26.262Z</time></trkpt><trkpt lat="46.1496298" lon="12.193"><ele>526.0</ele><time>2026-05-01T12:45:29.268Z</time></trkpt><trkpt lat="46.1497121" lon="12.1929987"><ele>526.0</ele><time>2026-05-01T12:45:32.269Z</time></trkpt><trkpt lat="46.1497735" lon="12.1929686"><ele>526.0</ele><time>2026-05-01T12:45:34.26Z</time></trkpt><trkpt lat="46.1498392" lon="12.1929302"><ele>526.0</ele><time>2026-05-01T12:45:37.264Z</time></trkpt><trkpt lat="46.149892" lon="12.1928733"><ele>526.0</ele><time>2026-05-01T12:45:41.271Z</time></trkpt><trkpt lat="46.149963" lon="12.1928077"><ele>526.0</ele><time>2026-05-01T12:45:45.271Z</time></trkpt><trkpt lat="46.150015" lon="12.1927512"><ele>526.0</ele><time>2026-05-01T12:45:48.268Z</time></trkpt><trkpt lat="46.1500813" lon="12.1926807"><ele>527.1666666666667</ele><time>2026-05-01T12:45:52.263Z</time></trkpt><trkpt lat="46.1501484" lon="12.1926011"><ele>528.3333333333334</ele><time>2026-05-01T12:45:56.274Z</time></trkpt><trkpt lat="46.1501963" lon="12.1925047"><ele>529.5</ele><time>2026-05-01T12:45:59.259Z</time></trkpt><trkpt lat="46.150238" lon="12.192423"><ele>530.6666666666666</ele><time>2026-05-01T12:46:02.27Z</time></trkpt><trkpt lat="46.1502925" lon="12.1923547"><ele>531.8333333333333</ele><time>2026-05-01T12:46:06.258Z</time></trkpt><trkpt lat="46.1503654" lon="12.1923128"><ele>533.0</ele><time>2026-05-01T12:46:10.267Z</time></trkpt><trkpt lat="46.1504257" lon="12.1922833"><ele>533.0</ele><time>2026-05-01T12:46:14.264Z</time></trkpt><trkpt lat="46.1505001" lon="12.1922508"><ele>533.0</ele><time>2026-05-01T12:46:18.268Z</time></trkpt><trkpt lat="46.1505917" lon="12.1922395"><ele>533.0</ele><time>2026-05-01T12:46:21.267Z</time></trkpt><trkpt lat="46.1506613" lon="12.1921898"><ele>533.0</ele><time>2026-05-01T12:46:24.266Z</time></trkpt><trkpt lat="46.1506943" lon="12.1920978"><ele>533.0</ele><time>2026-05-01T12:46:26.276Z</time></trkpt><trkpt lat="46.1507412" lon="12.1919929"><ele>533.0</ele><time>2026-05-01T12:46:29.264Z</time></trkpt><trkpt lat="46.1508376" lon="12.191962"><ele>533.3333333333333</ele><time>2026-05-01T12:46:30.271Z</time></trkpt><trkpt lat="46.1509592" lon="12.1918946"><ele>533.6666666666666</ele><time>2026-05-01T12:46:32.269Z</time></trkpt><trkpt lat="46.1510389" lon="12.1918167"><ele>534.0</ele><time>2026-05-01T12:46:34.261Z</time></trkpt><trkpt lat="46.1510884" lon="12.1917181"><ele>534.3333333333334</ele><time>2026-05-01T12:46:37.263Z</time></trkpt><trkpt lat="46.1511109" lon="12.1916323"><ele>534.6666666666667</ele><time>2026-05-01T12:46:39.267Z</time></trkpt><trkpt lat="46.151139" lon="12.1915402"><ele>535.0</ele><time>2026-05-01T12:46:41.269Z</time></trkpt><trkpt lat="46.151185" lon="12.1914556"><ele>535.0</ele><time>2026-05-01T12:46:43.267Z</time></trkpt><trkpt lat="46.1512389" lon="12.1913756"><ele>535.0</ele><time>2026-05-01T12:46:45.264Z</time></trkpt><trkpt lat="46.1512954" lon="12.1912596"><ele>535.0</ele><time>2026-05-01T12:46:47.269Z</time></trkpt><trkpt lat="46.1513494" lon="12.1911922"><ele>535.0</ele><time>2026-05-01T12:46:49.267Z</time></trkpt><trkpt lat="46.1513587" lon="12.1910843"><ele>535.0</ele><time>2026-05-01T12:46:53.268Z</time></trkpt><trkpt lat="46.1514462" lon="12.1910386"><ele>535.0</ele><time>2026-05-01T12:46:56.262Z</time></trkpt><trkpt lat="46.1515087" lon="12.1909974"><ele>531.5</ele><time>2026-05-01T12:46:58.27Z</time></trkpt><trkpt lat="46.1515845" lon="12.1909297"><ele>528.0</ele><time>2026-05-01T12:47:00.262Z</time></trkpt><trkpt lat="46.1516481" lon="12.1908582"><ele>524.5</ele><time>2026-05-01T12:47:02.262Z</time></trkpt><trkpt lat="46.1517017" lon="12.1907918"><ele>521.0</ele><time>2026-05-01T12:47:04.273Z</time></trkpt><trkpt lat="46.1517389" lon="12.1907147"><ele>517.5</ele><time>2026-05-01T12:47:06.268Z</time></trkpt><trkpt lat="46.15178" lon="12.1906171"><ele>514.0</ele><time>2026-05-01T12:47:08.263Z</time></trkpt><trkpt lat="46.1518037" lon="12.1905064"><ele>514.0</ele><time>2026-05-01T12:47:10.273Z</time></trkpt><trkpt lat="46.1518368" lon="12.1903901"><ele>514.0</ele><time>2026-05-01T12:47:12.27Z</time></trkpt><trkpt lat="46.1518479" lon="12.1902804"><ele>514.0</ele><time>2026-05-01T12:47:14.262Z</time></trkpt><trkpt lat="46.1518639" lon="12.1901435"><ele>514.0</ele><time>2026-05-01T12:47:16.26Z</time></trkpt><trkpt lat="46.151904" lon="12.1899692"><ele>514.0</ele><time>2026-05-01T12:47:18.267Z</time></trkpt><trkpt lat="46.1519199" lon="12.1898241"><ele>514.0</ele><time>2026-05-01T12:47:20.284Z</time></trkpt><trkpt lat="46.1519355" lon="12.1896807"><ele>514.0</ele><time>2026-05-01T12:47:22.269Z</time></trkpt><trkpt lat="46.1519772" lon="12.1895586"><ele>514.0</ele><time>2026-05-01T12:47:24.262Z</time></trkpt><trkpt lat="46.1520342" lon="12.1894451"><ele>514.0</ele><time>2026-05-01T12:47:26.267Z</time></trkpt><trkpt lat="46.1520832" lon="12.189308"><ele>514.0</ele><time>2026-05-01T12:47:28.263Z</time></trkpt><trkpt lat="46.1520974" lon="12.1891903"><ele>514.0</ele><time>2026-05-01T12:47:30.267Z</time></trkpt><trkpt lat="46.1521174" lon="12.1890938"><ele>514.0</ele><time>2026-05-01T12:47:32.266Z</time></trkpt><trkpt lat="46.1521015" lon="12.1890031"><ele>514.0</ele><time>2026-05-01T12:47:34.268Z</time></trkpt><trkpt lat="46.1520334" lon="12.1888819"><ele>514.0</ele><time>2026-05-01T12:47:36.269Z</time></trkpt><trkpt lat="46.151991" lon="12.1887901"><ele>514.0</ele><time>2026-05-01T12:47:37.268Z</time></trkpt><trkpt lat="46.1519358" lon="12.1886335"><ele>514.0</ele><time>2026-05-01T12:47:39.268Z</time></trkpt><trkpt lat="46.1519171" lon="12.1884638"><ele>512.4</ele><time>2026-05-01T12:47:41.268Z</time></trkpt><trkpt lat="46.1519151" lon="12.1883713"><ele>510.79999999999995</ele><time>2026-05-01T12:47:42.27Z</time></trkpt><trkpt lat="46.1519371" lon="12.1882116"><ele>509.20000000000005</ele><time>2026-05-01T12:47:44.261Z</time></trkpt><trkpt lat="46.1519507" lon="12.1880617"><ele>507.6</ele><time>2026-05-01T12:47:47.26Z</time></trkpt><trkpt lat="46.1519372" lon="12.1879229"><ele>506.0</ele><time>2026-05-01T12:47:49.27Z</time></trkpt><trkpt lat="46.1519339" lon="12.1877955"><ele>504.99999999999994</ele><time>2026-05-01T12:47:52.265Z</time></trkpt><trkpt lat="46.1519345" lon="12.1877043"><ele>504.0</ele><time>2026-05-01T12:47:54.263Z</time></trkpt><trkpt lat="46.15195" lon="12.1876093"><ele>503.0</ele><time>2026-05-01T12:47:57.274Z</time></trkpt><trkpt lat="46.1519821" lon="12.1875299"><ele>502.0</ele><time>2026-05-01T12:47:59.262Z</time></trkpt><trkpt lat="46.1520437" lon="12.1874511"><ele>500.99999999999994</ele><time>2026-05-01T12:48:01.269Z</time></trkpt><trkpt lat="46.1521009" lon="12.1873791"><ele>500.0</ele><time>2026-05-01T12:48:04.263Z</time></trkpt><trkpt lat="46.1521304" lon="12.1872161"><ele>499.16666666666663</ele><time>2026-05-01T12:48:24.271Z</time></trkpt><trkpt lat="46.1521173" lon="12.1870865"><ele>498.3333333333333</ele><time>2026-05-01T12:48:28.264Z</time></trkpt><trkpt lat="46.1520936" lon="12.1869981"><ele>497.5</ele><time>2026-05-01T12:48:30.268Z</time></trkpt><trkpt lat="46.1520548" lon="12.1868898"><ele>496.66666666666663</ele><time>2026-05-01T12:48:33.27Z</time></trkpt><trkpt lat="46.1519854" lon="12.1868066"><ele>495.8333333333333</ele><time>2026-05-01T12:48:34.285Z</time></trkpt><trkpt lat="46.151972" lon="12.1866923"><ele>495.0</ele><time>2026-05-01T12:48:36.264Z</time></trkpt><trkpt lat="46.1519239" lon="12.1866012"><ele>495.0</ele><time>2026-05-01T12:48:39.271Z</time></trkpt><trkpt lat="46.1518686" lon="12.1865408"><ele>495.0</ele><time>2026-05-01T12:48:42.269Z</time></trkpt><trkpt lat="46.1518175" lon="12.1864405"><ele>495.0</ele><time>2026-05-01T12:48:45.271Z</time></trkpt><trkpt lat="46.1517617" lon="12.1863449"><ele>495.0</ele><time>2026-05-01T12:48:48.265Z</time></trkpt><trkpt lat="46.1517447" lon="12.1862276"><ele>495.0</ele><time>2026-05-01T12:48:52.262Z</time></trkpt><trkpt lat="46.1517403" lon="12.1861222"><ele>495.0</ele><time>2026-05-01T12:48:55.27Z</time></trkpt><trkpt lat="46.1517502" lon="12.1860107"><ele>495.0</ele><time>2026-05-01T12:48:58.268Z</time></trkpt><trkpt lat="46.1517647" lon="12.1858909"><ele>495.0</ele><time>2026-05-01T12:49:01.27Z</time></trkpt><trkpt lat="46.1517844" lon="12.1858013"><ele>495.0</ele><time>2026-05-01T12:49:03.267Z</time></trkpt><trkpt lat="46.1517921" lon="12.1856703"><ele>495.0</ele><time>2026-05-01T12:49:06.27Z</time></trkpt><trkpt lat="46.1517996" lon="12.1855631"><ele>495.0</ele><time>2026-05-01T12:49:08.265Z</time></trkpt><trkpt lat="46.1517842" lon="12.1854358"><ele>495.0</ele><time>2026-05-01T12:49:11.269Z</time></trkpt><trkpt lat="46.1517739" lon="12.1853089"><ele>495.42857142857133</ele><time>2026-05-01T12:49:14.261Z</time></trkpt><trkpt lat="46.1517538" lon="12.1852011"><ele>495.85714285714283</ele><time>2026-05-01T12:49:16.264Z</time></trkpt><trkpt lat="46.1517392" lon="12.1850977"><ele>496.2857142857142</ele><time>2026-05-01T12:49:18.269Z</time></trkpt><trkpt lat="46.1517258" lon="12.1849924"><ele>496.71428571428567</ele><time>2026-05-01T12:49:20.269Z</time></trkpt><trkpt lat="46.1517068" lon="12.1848928"><ele>497.1428571428571</ele><time>2026-05-01T12:49:22.27Z</time></trkpt><trkpt lat="46.1516894" lon="12.1847882"><ele>497.57142857142856</ele><time>2026-05-01T12:49:24.265Z</time></trkpt><trkpt lat="46.1516779" lon="12.184692"><ele>498.0</ele><time>2026-05-01T12:49:26.268Z</time></trkpt><trkpt lat="46.151651" lon="12.1845998"><ele>498.1666666666667</ele><time>2026-05-01T12:49:28.269Z</time></trkpt><trkpt lat="46.1516074" lon="12.1845202"><ele>498.33333333333337</ele><time>2026-05-01T12:49:30.266Z</time></trkpt><trkpt lat="46.1515728" lon="12.1844392"><ele>498.5</ele><time>2026-05-01T12:49:32.264Z</time></trkpt><trkpt lat="46.1515602" lon="12.1843479"><ele>498.6666666666667</ele><time>2026-05-01T12:49:34.265Z</time></trkpt><trkpt lat="46.1515343" lon="12.1842246"><ele>498.83333333333337</ele><time>2026-05-01T12:49:36.266Z</time></trkpt><trkpt lat="46.1514947" lon="12.1841078"><ele>499.0</ele><time>2026-05-01T12:49:39.267Z</time></trkpt><trkpt lat="46.1514741" lon="12.1839888"><ele>500.33333333333337</ele><time>2026-05-01T12:49:42.265Z</time></trkpt><trkpt lat="46.1514338" lon="12.1838709"><ele>501.6666666666667</ele><time>2026-05-01T12:49:45.273Z</time></trkpt><trkpt lat="46.1514327" lon="12.1837557"><ele>503.0</ele><time>2026-05-01T12:49:48.262Z</time></trkpt><trkpt lat="46.1514664" lon="12.1836688"><ele>504.33333333333337</ele><time>2026-05-01T12:49:51.269Z</time></trkpt><trkpt lat="46.1515052" lon="12.1835513"><ele>505.6666666666667</ele><time>2026-05-01T12:49:54.269Z</time></trkpt><trkpt lat="46.1515213" lon="12.1834419"><ele>507.0</ele><time>2026-05-01T12:49:57.266Z</time></trkpt><trkpt lat="46.1514732" lon="12.1833566"><ele>507.0</ele><time>2026-05-01T12:50:00.26Z</time></trkpt><trkpt lat="46.1514073" lon="12.1833484"><ele>507.0</ele><time>2026-05-01T12:50:03.262Z</time></trkpt><trkpt lat="46.1513775" lon="12.1832385"><ele>507.0</ele><time>2026-05-01T12:50:08.261Z</time></trkpt><trkpt lat="46.1513783" lon="12.1831136"><ele>507.0</ele><time>2026-05-01T12:50:12.268Z</time></trkpt><trkpt lat="46.1513738" lon="12.1830188"><ele>507.0</ele><time>2026-05-01T12:50:15.261Z</time></trkpt><trkpt lat="46.1513676" lon="12.1829114"><ele>507.0</ele><time>2026-05-01T12:50:18.264Z</time></trkpt><trkpt lat="46.1513771" lon="12.1828061"><ele>507.0</ele><time>2026-05-01T12:50:22.261Z</time></trkpt><trkpt lat="46.1513587" lon="12.182719"><ele>509.0</ele><time>2026-05-01T12:50:25.269Z</time></trkpt><trkpt lat="46.1513635" lon="12.1826082"><ele>511.0</ele><time>2026-05-01T12:50:29.266Z</time></trkpt><trkpt lat="46.1513741" lon="12.1825074"><ele>513.0</ele><time>2026-05-01T12:50:33.269Z</time></trkpt><trkpt lat="46.1513689" lon="12.182415"><ele>515.0</ele><time>2026-05-01T12:50:39.262Z</time></trkpt><trkpt lat="46.1513722" lon="12.1823198"><ele>517.0</ele><time>2026-05-01T12:51:12.271Z</time></trkpt><trkpt lat="46.1513414" lon="12.1822254"><ele>519.0</ele><time>2026-05-01T12:51:21.261Z</time></trkpt><trkpt lat="46.1512911" lon="12.1821641"><ele>521.0</ele><time>2026-05-01T12:51:30.269Z</time></trkpt><trkpt lat="46.1512692" lon="12.1820598"><ele>523.5714285714286</ele><time>2026-05-01T12:51:36.268Z</time></trkpt><trkpt lat="46.1512308" lon="12.1819819"><ele>526.1428571428571</ele><time>2026-05-01T12:51:40.271Z</time></trkpt><trkpt lat="46.1511775" lon="12.1819241"><ele>528.7142857142858</ele><time>2026-05-01T12:51:43.268Z</time></trkpt><trkpt lat="46.1511379" lon="12.1818471"><ele>531.2857142857142</ele><time>2026-05-01T12:51:46.27Z</time></trkpt><trkpt lat="46.1511055" lon="12.1817679"><ele>533.8571428571429</ele><time>2026-05-01T12:51:50.274Z</time></trkpt><trkpt lat="46.1510608" lon="12.1816762"><ele>536.4285714285714</ele><time>2026-05-01T12:51:54.268Z</time></trkpt><trkpt lat="46.1510108" lon="12.1816111"><ele>539.0</ele><time>2026-05-01T12:51:57.261Z</time></trkpt><trkpt lat="46.1509636" lon="12.1815309"><ele>540.2857142857143</ele><time>2026-05-01T12:52:00.268Z</time></trkpt><trkpt lat="46.1509547" lon="12.1814291"><ele>541.5714285714286</ele><time>2026-05-01T12:52:04.259Z</time></trkpt><trkpt lat="46.150912" lon="12.1813417"><ele>542.8571428571429</ele><time>2026-05-01T12:52:08.26Z</time></trkpt><trkpt lat="46.1508678" lon="12.1812428"><ele>544.1428571428571</ele><time>2026-05-01T12:52:12.268Z</time></trkpt><trkpt lat="46.1508363" lon="12.1811338"><ele>545.4285714285714</ele><time>2026-05-01T12:52:16.276Z</time></trkpt><trkpt lat="46.1508042" lon="12.1810546"><ele>546.7142857142858</ele><time>2026-05-01T12:52:19.269Z</time></trkpt><trkpt lat="46.150761" lon="12.180982"><ele>548.0</ele><time>2026-05-01T12:52:22.275Z</time></trkpt><trkpt lat="46.1507333" lon="12.180897"><ele>548.0000000000001</ele><time>2026-05-01T12:52:25.267Z</time></trkpt><trkpt lat="46.1507547" lon="12.1807894"><ele>548.0</ele><time>2026-05-01T12:52:29.263Z</time></trkpt><trkpt lat="46.150762" lon="12.1806764"><ele>548.0</ele><time>2026-05-01T12:52:33.27Z</time></trkpt><trkpt lat="46.1507978" lon="12.1805923"><ele>548.0</ele><time>2026-05-01T12:52:36.269Z</time></trkpt><trkpt lat="46.1508487" lon="12.1805159"><ele>548.0</ele><time>2026-05-01T12:52:39.27Z</time></trkpt><trkpt lat="46.1508919" lon="12.1804236"><ele>548.0000000000001</ele><time>2026-05-01T12:52:43.26Z</time></trkpt><trkpt lat="46.1509465" lon="12.1803586"><ele>548.0</ele><time>2026-05-01T12:52:47.261Z</time></trkpt><trkpt lat="46.1509983" lon="12.1802997"><ele>548.7142857142858</ele><time>2026-05-01T12:52:50.267Z</time></trkpt><trkpt lat="46.1510408" lon="12.180222"><ele>549.4285714285714</ele><time>2026-05-01T12:52:53.27Z</time></trkpt><trkpt lat="46.1510478" lon="12.1801233"><ele>550.1428571428571</ele><time>2026-05-01T12:52:56.275Z</time></trkpt><trkpt lat="46.1510459" lon="12.1800262"><ele>550.8571428571429</ele><time>2026-05-01T12:52:59.259Z</time></trkpt><trkpt lat="46.1510805" lon="12.1799324"><ele>551.5714285714286</ele><time>2026-05-01T12:53:02.271Z</time></trkpt><trkpt lat="46.1510729" lon="12.1798297"><ele>552.2857142857143</ele><time>2026-05-01T12:53:07.265Z</time></trkpt><trkpt lat="46.1510042" lon="12.179771"><ele>553.0</ele><time>2026-05-01T12:53:10.267Z</time></trkpt><trkpt lat="46.150955" lon="12.1797047"><ele>553.4285714285714</ele><time>2026-05-01T12:53:13.257Z</time></trkpt><trkpt lat="46.1509433" lon="12.1796044"><ele>553.8571428571429</ele><time>2026-05-01T12:53:16.268Z</time></trkpt><trkpt lat="46.1509281" lon="12.1794766"><ele>554.2857142857142</ele><time>2026-05-01T12:53:19.269Z</time></trkpt><trkpt lat="46.1509108" lon="12.179376"><ele>554.7142857142858</ele><time>2026-05-01T12:53:21.267Z</time></trkpt><trkpt lat="46.1508939" lon="12.1792718"><ele>555.1428571428571</ele><time>2026-05-01T12:53:23.271Z</time></trkpt><trkpt lat="46.1508746" lon="12.1791836"><ele>555.5714285714286</ele><time>2026-05-01T12:53:25.268Z</time></trkpt><trkpt lat="46.150874" lon="12.1790788"><ele>556.0</ele><time>2026-05-01T12:53:27.268Z</time></trkpt><trkpt lat="46.1508663" lon="12.1789699"><ele>556.1428571428571</ele><time>2026-05-01T12:53:29.268Z</time></trkpt><trkpt lat="46.1508592" lon="12.1788707"><ele>556.2857142857143</ele><time>2026-05-01T12:53:31.263Z</time></trkpt><trkpt lat="46.1508466" lon="12.1787465"><ele>556.4285714285714</ele><time>2026-05-01T12:53:34.269Z</time></trkpt><trkpt lat="46.1508106" lon="12.1786679"><ele>556.5714285714286</ele><time>2026-05-01T12:53:37.27Z</time></trkpt><trkpt lat="46.1508113" lon="12.1785676"><ele>556.7142857142857</ele><time>2026-05-01T12:54:08.261Z</time></trkpt><trkpt lat="46.1508398" lon="12.1784732"><ele>556.8571428571429</ele><time>2026-05-01T12:54:11.26Z</time></trkpt><trkpt lat="46.1508518" lon="12.1783807"><ele>557.0</ele><time>2026-05-01T12:54:13.268Z</time></trkpt><trkpt lat="46.1508614" lon="12.1782777"><ele>557.6666666666666</ele><time>2026-05-01T12:54:15.276Z</time></trkpt><trkpt lat="46.1508616" lon="12.1781684"><ele>558.3333333333333</ele><time>2026-05-01T12:54:17.27Z</time></trkpt><trkpt lat="46.1508574" lon="12.1780572"><ele>559.0</ele><time>2026-05-01T12:54:19.275Z</time></trkpt><trkpt lat="46.1508532" lon="12.1779468"><ele>559.6666666666666</ele><time>2026-05-01T12:54:21.272Z</time></trkpt><trkpt lat="46.1508469" lon="12.1778457"><ele>560.3333333333334</ele><time>2026-05-01T12:54:23.27Z</time></trkpt><trkpt lat="46.1508455" lon="12.1777329"><ele>561.0</ele><time>2026-05-01T12:54:25.26Z</time></trkpt><trkpt lat="46.150837" lon="12.1776061"><ele>561.0</ele><time>2026-05-01T12:54:27.26Z</time></trkpt><trkpt lat="46.1508317" lon="12.1774771"><ele>561.0</ele><time>2026-05-01T12:54:29.268Z</time></trkpt><trkpt lat="46.1508264" lon="12.1773572"><ele>561.0</ele><time>2026-05-01T12:54:31.271Z</time></trkpt><trkpt lat="46.1508253" lon="12.1772294"><ele>561.0</ele><time>2026-05-01T12:54:33.263Z</time></trkpt><trkpt lat="46.1508124" lon="12.1771091"><ele>561.0</ele><time>2026-05-01T12:54:35.269Z</time></trkpt><trkpt lat="46.1508025" lon="12.1769882"><ele>561.0</ele><time>2026-05-01T12:54:37.259Z</time></trkpt><trkpt lat="46.1508013" lon="12.1768661"><ele>561.0</ele><time>2026-05-01T12:54:39.26Z</time></trkpt><trkpt lat="46.1507992" lon="12.1767468"><ele>561.0</ele><time>2026-05-01T12:54:41.265Z</time></trkpt><trkpt lat="46.1507981" lon="12.1766348"><ele>561.0</ele><time>2026-05-01T12:54:43.268Z</time></trkpt><trkpt lat="46.1507996" lon="12.176532"><ele>561.0</ele><time>2026-05-01T12:54:45.255Z</time></trkpt><trkpt lat="46.150799" lon="12.1764321"><ele>561.0</ele><time>2026-05-01T12:54:47.268Z</time></trkpt><trkpt lat="46.1508143" lon="12.1763333"><ele>561.0</ele><time>2026-05-01T12:54:49.263Z</time></trkpt><trkpt lat="46.1508305" lon="12.1762265"><ele>561.0</ele><time>2026-05-01T12:54:51.267Z</time></trkpt><trkpt lat="46.1508413" lon="12.1761202"><ele>560.8571428571429</ele><time>2026-05-01T12:54:53.267Z</time></trkpt><trkpt lat="46.1508558" lon="12.1760184"><ele>560.7142857142857</ele><time>2026-05-01T12:54:55.268Z</time></trkpt><trkpt lat="46.1508791" lon="12.1759218"><ele>560.5714285714286</ele><time>2026-05-01T12:54:57.373Z</time></trkpt><trkpt lat="46.150911" lon="12.1758346"><ele>560.4285714285714</ele><time>2026-05-01T12:54:59.266Z</time></trkpt><trkpt lat="46.1509559" lon="12.175766"><ele>560.2857142857142</ele><time>2026-05-01T12:55:03.265Z</time></trkpt><trkpt lat="46.1510249" lon="12.1758068"><ele>560.1428571428571</ele><time>2026-05-01T12:59:14.272Z</time></trkpt><trkpt lat="46.151082" lon="12.1758958"><ele>560.0</ele><time>2026-05-01T12:59:17.266Z</time></trkpt><trkpt lat="46.1511458" lon="12.1759785"><ele>560.0</ele><time>2026-05-01T12:59:20.261Z</time></trkpt><trkpt lat="46.1512019" lon="12.1760333"><ele>560.0</ele><time>2026-05-01T12:59:22.267Z</time></trkpt><trkpt lat="46.1512622" lon="12.1760734"><ele>560.0</ele><time>2026-05-01T12:59:24.268Z</time></trkpt><trkpt lat="46.1513327" lon="12.1761221"><ele>560.0</ele><time>2026-05-01T12:59:26.267Z</time></trkpt><trkpt lat="46.1514148" lon="12.1762007"><ele>560.0</ele><time>2026-05-01T12:59:28.268Z</time></trkpt><trkpt lat="46.1514881" lon="12.1763002"><ele>560.0</ele><time>2026-05-01T12:59:30.269Z</time></trkpt><trkpt lat="46.1515739" lon="12.1764018"><ele>560.0</ele><time>2026-05-01T12:59:32.269Z</time></trkpt><trkpt lat="46.1516574" lon="12.1765062"><ele>560.0</ele><time>2026-05-01T12:59:34.26Z</time></trkpt><trkpt lat="46.1517436" lon="12.1766089"><ele>560.0</ele><time>2026-05-01T12:59:36.278Z</time></trkpt><trkpt lat="46.1518432" lon="12.1766962"><ele>560.0</ele><time>2026-05-01T12:59:38.267Z</time></trkpt><trkpt lat="46.151937" lon="12.1767589"><ele>560.0</ele><time>2026-05-01T12:59:40.268Z</time></trkpt><trkpt lat="46.1520438" lon="12.1767733"><ele>560.0</ele><time>2026-05-01T12:59:42.269Z</time></trkpt><trkpt lat="46.1521547" lon="12.1767334"><ele>560.0</ele><time>2026-05-01T12:59:44.265Z</time></trkpt><trkpt lat="46.1522376" lon="12.1766683"><ele>560.0</ele><time>2026-05-01T12:59:46.27Z</time></trkpt><trkpt lat="46.152305" lon="12.1765653"><ele>560.0</ele><time>2026-05-01T12:59:48.266Z</time></trkpt><trkpt lat="46.1523647" lon="12.1764707"><ele>560.0</ele><time>2026-05-01T12:59:50.26Z</time></trkpt><trkpt lat="46.1524399" lon="12.1764023"><ele>560.7142857142857</ele><time>2026-05-01T12:59:53.26Z</time></trkpt><trkpt lat="46.1525011" lon="12.1763624"><ele>561.4285714285714</ele><time>2026-05-01T12:59:56.267Z</time></trkpt><trkpt lat="46.1525758" lon="12.1763503"><ele>562.1428571428571</ele><time>2026-05-01T12:59:59.261Z</time></trkpt><trkpt lat="46.1526668" lon="12.176342"><ele>562.8571428571429</ele><time>2026-05-01T13:00:02.269Z</time></trkpt><trkpt lat="46.152733" lon="12.176334"><ele>563.5714285714286</ele><time>2026-05-01T13:00:04.263Z</time></trkpt><trkpt lat="46.1528007" lon="12.1763239"><ele>564.2857142857142</ele><time>2026-05-01T13:00:06.269Z</time></trkpt><trkpt lat="46.1528677" lon="12.1763143"><ele>565.0</ele><time>2026-05-01T13:00:08.262Z</time></trkpt><trkpt lat="46.1529329" lon="12.1762833"><ele>565.0</ele><time>2026-05-01T13:00:10.266Z</time></trkpt><trkpt lat="46.1530037" lon="12.1762482"><ele>565.0</ele><time>2026-05-01T13:00:12.257Z</time></trkpt><trkpt lat="46.1530771" lon="12.1762083"><ele>565.0</ele><time>2026-05-01T13:00:14.269Z</time></trkpt><trkpt lat="46.1531548" lon="12.1761662"><ele>565.0</ele><time>2026-05-01T13:00:16.26Z</time></trkpt><trkpt lat="46.1532373" lon="12.1761209"><ele>565.0</ele><time>2026-05-01T13:00:18.269Z</time></trkpt><trkpt lat="46.153329" lon="12.1760764"><ele>565.0</ele><time>2026-05-01T13:00:20.258Z</time></trkpt><trkpt lat="46.153426" lon="12.1760205"><ele>565.2</ele><time>2026-05-01T13:00:22.267Z</time></trkpt><trkpt lat="46.1535254" lon="12.1759643"><ele>565.4</ele><time>2026-05-01T13:00:24.26Z</time></trkpt><trkpt lat="46.1536195" lon="12.175919"><ele>565.6</ele><time>2026-05-01T13:00:26.261Z</time></trkpt><trkpt lat="46.153702" lon="12.1758792"><ele>565.8</ele><time>2026-05-01T13:00:28.259Z</time></trkpt><trkpt lat="46.1537787" lon="12.1758281"><ele>566.0</ele><time>2026-05-01T13:00:30.29Z</time></trkpt><trkpt lat="46.153853" lon="12.175788"><ele>566.0</ele><time>2026-05-01T13:00:32.266Z</time></trkpt><trkpt lat="46.1539335" lon="12.1757424"><ele>566.0</ele><time>2026-05-01T13:00:34.261Z</time></trkpt><trkpt lat="46.1540103" lon="12.1757079"><ele>566.0</ele><time>2026-05-01T13:00:36.262Z</time></trkpt><trkpt lat="46.1540846" lon="12.1756972"><ele>566.0</ele><time>2026-05-01T13:00:38.269Z</time></trkpt><trkpt lat="46.1541647" lon="12.1757203"><ele>566.0</ele><time>2026-05-01T13:00:40.27Z</time></trkpt><trkpt lat="46.1542268" lon="12.1758204"><ele>566.0</ele><time>2026-05-01T13:00:42.268Z</time></trkpt><trkpt lat="46.1542737" lon="12.1759509"><ele>566.2</ele><time>2026-05-01T13:00:44.266Z</time></trkpt><trkpt lat="46.1543098" lon="12.1760905"><ele>566.4000000000001</ele><time>2026-05-01T13:00:46.259Z</time></trkpt><trkpt lat="46.1543471" lon="12.1762319"><ele>566.6</ele><time>2026-05-01T13:00:48.268Z</time></trkpt><trkpt lat="46.1543768" lon="12.1763784"><ele>566.8000000000001</ele><time>2026-05-01T13:00:50.267Z</time></trkpt><trkpt lat="46.1544079" lon="12.1765294"><ele>567.0</ele><time>2026-05-01T13:00:52.258Z</time></trkpt><trkpt lat="46.1544319" lon="12.1766825"><ele>567.0</ele><time>2026-05-01T13:00:54.259Z</time></trkpt><trkpt lat="46.1544585" lon="12.1768443"><ele>567.0</ele><time>2026-05-01T13:00:56.268Z</time></trkpt><trkpt lat="46.154491" lon="12.1770077"><ele>567.0</ele><time>2026-05-01T13:00:58.257Z</time></trkpt><trkpt lat="46.154536" lon="12.1771729"><ele>567.0</ele><time>2026-05-01T13:01:00.259Z</time></trkpt><trkpt lat="46.1545919" lon="12.1773182"><ele>567.5</ele><time>2026-05-01T13:01:02.266Z</time></trkpt><trkpt lat="46.1546684" lon="12.1774407"><ele>568.0</ele><time>2026-05-01T13:01:04.269Z</time></trkpt><trkpt lat="46.154744" lon="12.1775298"><ele>568.5</ele><time>2026-05-01T13:01:06.267Z</time></trkpt><trkpt lat="46.1548094" lon="12.1775844"><ele>569.0</ele><time>2026-05-01T13:01:08.268Z</time></trkpt><trkpt lat="46.1548818" lon="12.1776362"><ele>569.5</ele><time>2026-05-01T13:01:11.259Z</time></trkpt><trkpt lat="46.1549421" lon="12.1776633"><ele>570.0</ele><time>2026-05-01T13:01:16.259Z</time></trkpt><trkpt lat="46.155013" lon="12.1776278"><ele>569.0</ele><time>2026-05-01T13:01:45.26Z</time></trkpt><trkpt lat="46.1550806" lon="12.1775891"><ele>568.0</ele><time>2026-05-01T13:01:48.26Z</time></trkpt><trkpt lat="46.1551506" lon="12.177527"><ele>567.0</ele><time>2026-05-01T13:01:51.383Z</time></trkpt><trkpt lat="46.1552029" lon="12.1774686"><ele>566.0</ele><time>2026-05-01T13:01:53.268Z</time></trkpt><trkpt lat="46.1552669" lon="12.1773878"><ele>565.0</ele><time>2026-05-01T13:01:55.263Z</time></trkpt><trkpt lat="46.1553298" lon="12.1772906"><ele>564.0</ele><time>2026-05-01T13:01:57.269Z</time></trkpt><trkpt lat="46.1553932" lon="12.1771851"><ele>563.6</ele><time>2026-05-01T13:01:59.262Z</time></trkpt><trkpt lat="46.1554747" lon="12.1770837"><ele>563.2</ele><time>2026-05-01T13:02:01.269Z</time></trkpt><trkpt lat="46.1555682" lon="12.1769836"><ele>562.8000000000001</ele><time>2026-05-01T13:02:03.27Z</time></trkpt><trkpt lat="46.1556784" lon="12.1768854"><ele>562.4</ele><time>2026-05-01T13:02:05.269Z</time></trkpt><trkpt lat="46.1557438" lon="12.1768401"><ele>562.0</ele><time>2026-05-01T13:02:06.263Z</time></trkpt><trkpt lat="46.1558106" lon="12.1767967"><ele>561.5714285714287</ele><time>2026-05-01T13:02:07.26Z</time></trkpt><trkpt lat="46.1558797" lon="12.1767641"><ele>561.1428571428571</ele><time>2026-05-01T13:02:08.26Z</time></trkpt><trkpt lat="46.1559578" lon="12.1767428"><ele>560.7142857142858</ele><time>2026-05-01T13:02:09.267Z</time></trkpt><trkpt lat="46.1560344" lon="12.1767221"><ele>560.2857142857143</ele><time>2026-05-01T13:02:10.267Z</time></trkpt><trkpt lat="46.1561074" lon="12.1767069"><ele>559.8571428571429</ele><time>2026-05-01T13:02:11.268Z</time></trkpt><trkpt lat="46.1561788" lon="12.1766795"><ele>559.4285714285714</ele><time>2026-05-01T13:02:12.268Z</time></trkpt><trkpt lat="46.1562418" lon="12.1766385"><ele>559.0</ele><time>2026-05-01T13:02:13.267Z</time></trkpt><trkpt lat="46.156349" lon="12.1765645"><ele>559.0</ele><time>2026-05-01T13:02:15.26Z</time></trkpt><trkpt lat="46.1564464" lon="12.1765614"><ele>559.0</ele><time>2026-05-01T13:02:17.262Z</time></trkpt><trkpt lat="46.1565159" lon="12.1766308"><ele>559.0</ele><time>2026-05-01T13:02:19.269Z</time></trkpt><trkpt lat="46.156576" lon="12.176734"><ele>559.0</ele><time>2026-05-01T13:02:21.267Z</time></trkpt><trkpt lat="46.1566176" lon="12.1768596"><ele>559.0</ele><time>2026-05-01T13:02:23.267Z</time></trkpt><trkpt lat="46.1566516" lon="12.1769989"><ele>559.4</ele><time>2026-05-01T13:02:25.267Z</time></trkpt><trkpt lat="46.1566836" lon="12.1771332"><ele>559.8</ele><time>2026-05-01T13:02:27.259Z</time></trkpt><trkpt lat="46.1567226" lon="12.1772577"><ele>560.2</ele><time>2026-05-01T13:02:29.267Z</time></trkpt><trkpt lat="46.1567674" lon="12.1773771"><ele>560.6</ele><time>2026-05-01T13:02:31.261Z</time></trkpt><trkpt lat="46.1568081" lon="12.177493"><ele>561.0</ele><time>2026-05-01T13:02:33.266Z</time></trkpt><trkpt lat="46.1568539" lon="12.1776246"><ele>561.0</ele><time>2026-05-01T13:02:35.259Z</time></trkpt><trkpt lat="46.1569013" lon="12.1777552"><ele>561.0</ele><time>2026-05-01T13:02:37.269Z</time></trkpt><trkpt lat="46.1569455" lon="12.1778788"><ele>561.0</ele><time>2026-05-01T13:02:39.274Z</time></trkpt><trkpt lat="46.1569824" lon="12.1780022"><ele>561.0</ele><time>2026-05-01T13:02:41.267Z</time></trkpt><trkpt lat="46.1570176" lon="12.1781306"><ele>561.0</ele><time>2026-05-01T13:02:43.271Z</time></trkpt><trkpt lat="46.1570689" lon="12.1782252"><ele>561.0</ele><time>2026-05-01T13:02:45.27Z</time></trkpt><trkpt lat="46.1571727" lon="12.1781873"><ele>561.0</ele><time>2026-05-01T13:02:47.275Z</time></trkpt><trkpt lat="46.1572795" lon="12.1781447"><ele>561.0</ele><time>2026-05-01T13:02:49.269Z</time></trkpt><trkpt lat="46.1573424" lon="12.1781211"><ele>561.0</ele><time>2026-05-01T13:02:50.261Z</time></trkpt><trkpt lat="46.1574632" lon="12.178071"><ele>561.0</ele><time>2026-05-01T13:02:52.268Z</time></trkpt><trkpt lat="46.1575211" lon="12.1780322"><ele>559.6</ele><time>2026-05-01T13:02:53.261Z</time></trkpt><trkpt lat="46.1575862" lon="12.178001"><ele>558.2</ele><time>2026-05-01T13:02:54.26Z</time></trkpt><trkpt lat="46.1576908" lon="12.1779671"><ele>556.8</ele><time>2026-05-01T13:02:56.267Z</time></trkpt><trkpt lat="46.1578114" lon="12.1779819"><ele>555.4</ele><time>2026-05-01T13:02:58.263Z</time></trkpt><trkpt lat="46.1579433" lon="12.1779938"><ele>554.0</ele><time>2026-05-01T13:03:00.267Z</time></trkpt><trkpt lat="46.1580076" lon="12.1779967"><ele>554.0</ele><time>2026-05-01T13:03:01.258Z</time></trkpt><trkpt lat="46.1580734" lon="12.1779966"><ele>554.0</ele><time>2026-05-01T13:03:02.267Z</time></trkpt><trkpt lat="46.1581931" lon="12.1780086"><ele>554.0</ele><time>2026-05-01T13:03:04.266Z</time></trkpt><trkpt lat="46.1582815" lon="12.1780226"><ele>554.0</ele><time>2026-05-01T13:03:06.262Z</time></trkpt><trkpt lat="46.15835" lon="12.17809"><ele>554.0</ele><time>2026-05-01T13:03:08.266Z</time></trkpt><trkpt lat="46.1583827" lon="12.1782001"><ele>554.0</ele><time>2026-05-01T13:03:10.27Z</time></trkpt><trkpt lat="46.1584173" lon="12.1782947"><ele>552.0</ele><time>2026-05-01T13:03:12.263Z</time></trkpt><trkpt lat="46.1584988" lon="12.1783377"><ele>550.0</ele><time>2026-05-01T13:03:15.268Z</time></trkpt><trkpt lat="46.1585763" lon="12.178388"><ele>548.0</ele><time>2026-05-01T13:03:17.267Z</time></trkpt><trkpt lat="46.1586621" lon="12.1784166"><ele>546.0</ele><time>2026-05-01T13:03:19.26Z</time></trkpt><trkpt lat="46.1587579" lon="12.1784271"><ele>544.0</ele><time>2026-05-01T13:03:21.411Z</time></trkpt><trkpt lat="46.1588749" lon="12.1784399"><ele>544.0</ele><time>2026-05-01T13:03:23.264Z</time></trkpt><trkpt lat="46.1589365" lon="12.1784647"><ele>544.0</ele><time>2026-05-01T13:03:24.283Z</time></trkpt><trkpt lat="46.1590441" lon="12.1785104"><ele>544.0</ele><time>2026-05-01T13:03:26.262Z</time></trkpt><trkpt lat="46.159143" lon="12.1785349"><ele>544.0</ele><time>2026-05-01T13:03:28.27Z</time></trkpt><trkpt lat="46.159245" lon="12.1785527"><ele>544.0</ele><time>2026-05-01T13:03:30.262Z</time></trkpt><trkpt lat="46.1593553" lon="12.1785649"><ele>543.3333333333334</ele><time>2026-05-01T13:03:32.268Z</time></trkpt><trkpt lat="46.1594527" lon="12.1785606"><ele>542.6666666666667</ele><time>2026-05-01T13:03:34.266Z</time></trkpt><trkpt lat="46.1595339" lon="12.1785688"><ele>542.0</ele><time>2026-05-01T13:03:36.266Z</time></trkpt><trkpt lat="46.1596114" lon="12.1785836"><ele>541.3333333333334</ele><time>2026-05-01T13:03:38.263Z</time></trkpt><trkpt lat="46.1596926" lon="12.1786278"><ele>540.6666666666666</ele><time>2026-05-01T13:03:41.266Z</time></trkpt><trkpt lat="46.1597729" lon="12.1786856"><ele>540.0</ele><time>2026-05-01T13:03:44.26Z</time></trkpt><trkpt lat="46.1598552" lon="12.1787685"><ele>539.4</ele><time>2026-05-01T13:03:47.261Z</time></trkpt><trkpt lat="46.1599239" lon="12.1788414"><ele>538.8</ele><time>2026-05-01T13:03:49.268Z</time></trkpt><trkpt lat="46.1599703" lon="12.1789043"><ele>538.2</ele><time>2026-05-01T13:03:50.261Z</time></trkpt><trkpt lat="46.1600614" lon="12.1790006"><ele>537.6</ele><time>2026-05-01T13:03:52.267Z</time></trkpt><trkpt lat="46.1601463" lon="12.1791013"><ele>537.0</ele><time>2026-05-01T13:03:54.265Z</time></trkpt><trkpt lat="46.1601708" lon="12.1792231"><ele>536.6666666666666</ele><time>2026-05-01T13:03:56.269Z</time></trkpt><trkpt lat="46.1601635" lon="12.1793474"><ele>536.3333333333334</ele><time>2026-05-01T13:03:58.262Z</time></trkpt><trkpt lat="46.1602113" lon="12.1794907"><ele>536.0</ele><time>2026-05-01T13:04:00.285Z</time></trkpt><trkpt lat="46.1602487" lon="12.179584"><ele>535.6666666666667</ele><time>2026-05-01T13:04:02.264Z</time></trkpt><trkpt lat="46.1603199" lon="12.1795891"><ele>535.3333333333334</ele><time>2026-05-01T13:04:06.261Z</time></trkpt><trkpt lat="46.1603534" lon="12.1795031"><ele>535.0</ele><time>2026-05-01T13:04:10.261Z</time></trkpt><trkpt lat="46.1603658" lon="12.179413"><ele>535.0</ele><time>2026-05-01T13:04:13.259Z</time></trkpt><trkpt lat="46.1604153" lon="12.1793133"><ele>535.0</ele><time>2026-05-01T13:04:16.266Z</time></trkpt><trkpt lat="46.1604669" lon="12.1792036"><ele>535.0</ele><time>2026-05-01T13:04:19.263Z</time></trkpt><trkpt lat="46.1605192" lon="12.1791019"><ele>535.0</ele><time>2026-05-01T13:04:22.266Z</time></trkpt><trkpt lat="46.1605629" lon="12.1790175"><ele>535.0</ele><time>2026-05-01T13:04:24.268Z</time></trkpt><trkpt lat="46.1605955" lon="12.1789337"><ele>535.0</ele><time>2026-05-01T13:04:26.265Z</time></trkpt><trkpt lat="46.1606234" lon="12.1788319"><ele>535.0</ele><time>2026-05-01T13:04:28.266Z</time></trkpt><trkpt lat="46.1606663" lon="12.1787431"><ele>535.0</ele><time>2026-05-01T13:04:30.267Z</time></trkpt><trkpt lat="46.1607516" lon="12.1787317"><ele>535.0</ele><time>2026-05-01T13:04:33.261Z</time></trkpt><trkpt lat="46.1608378" lon="12.1787506"><ele>535.0</ele><time>2026-05-01T13:04:35.268Z</time></trkpt><trkpt lat="46.1609315" lon="12.178749"><ele>535.0</ele><time>2026-05-01T13:04:37.269Z</time></trkpt><trkpt lat="46.1610312" lon="12.1787088"><ele>535.0</ele><time>2026-05-01T13:04:39.264Z</time></trkpt><trkpt lat="46.1611271" lon="12.1786743"><ele>535.0</ele><time>2026-05-01T13:04:41.266Z</time></trkpt><trkpt lat="46.1612235" lon="12.1786426"><ele>535.0</ele><time>2026-05-01T13:04:43.266Z</time></trkpt><trkpt lat="46.1613227" lon="12.1786067"><ele>535.0</ele><time>2026-05-01T13:04:45.269Z</time></trkpt><trkpt lat="46.1614164" lon="12.1785724"><ele>535.0</ele><time>2026-05-01T13:04:47.268Z</time></trkpt><trkpt lat="46.1615041" lon="12.1785457"><ele>535.0</ele><time>2026-05-01T13:04:49.257Z</time></trkpt><trkpt lat="46.1615909" lon="12.1785192"><ele>534.8571428571429</ele><time>2026-05-01T13:04:51.265Z</time></trkpt><trkpt lat="46.1616728" lon="12.1784889"><ele>534.7142857142858</ele><time>2026-05-01T13:04:53.268Z</time></trkpt><trkpt lat="46.1617498" lon="12.1784684"><ele>534.5714285714287</ele><time>2026-05-01T13:04:55.26Z</time></trkpt><trkpt lat="46.1618129" lon="12.1784414"><ele>534.4285714285714</ele><time>2026-05-01T13:04:57.267Z</time></trkpt><trkpt lat="46.1618757" lon="12.1784096"><ele>534.2857142857143</ele><time>2026-05-01T13:04:59.268Z</time></trkpt><trkpt lat="46.1619394" lon="12.1783802"><ele>534.1428571428572</ele><time>2026-05-01T13:05:01.27Z</time></trkpt><trkpt lat="46.1620097" lon="12.178342"><ele>534.0</ele><time>2026-05-01T13:05:03.26Z</time></trkpt><trkpt lat="46.1620857" lon="12.178304"><ele>534.0</ele><time>2026-05-01T13:05:05.267Z</time></trkpt><trkpt lat="46.1621745" lon="12.1782543"><ele>534.0</ele><time>2026-05-01T13:05:07.267Z</time></trkpt><trkpt lat="46.1622606" lon="12.1781814"><ele>534.0</ele><time>2026-05-01T13:05:09.266Z</time></trkpt><trkpt lat="46.1623265" lon="12.1780384"><ele>534.0</ele><time>2026-05-01T13:05:11.259Z</time></trkpt><trkpt lat="46.1623723" lon="12.1778616"><ele>534.0</ele><time>2026-05-01T13:05:13.272Z</time></trkpt><trkpt lat="46.1624152" lon="12.1777035"><ele>533.6</ele><time>2026-05-01T13:05:15.271Z</time></trkpt><trkpt lat="46.1624577" lon="12.1775624"><ele>533.2</ele><time>2026-05-01T13:05:17.27Z</time></trkpt><trkpt lat="46.1625112" lon="12.1774437"><ele>532.8000000000001</ele><time>2026-05-01T13:05:19.26Z</time></trkpt><trkpt lat="46.162611" lon="12.1773675"><ele>532.4</ele><time>2026-05-01T13:05:21.282Z</time></trkpt><trkpt lat="46.1627302" lon="12.1773954"><ele>532.0</ele><time>2026-05-01T13:05:23.266Z</time></trkpt><trkpt lat="46.1628173" lon="12.1774956"><ele>532.0</ele><time>2026-05-01T13:05:25.261Z</time></trkpt><trkpt lat="46.1629137" lon="12.1775866"><ele>532.0</ele><time>2026-05-01T13:05:27.263Z</time></trkpt><trkpt lat="46.163016" lon="12.1776644"><ele>532.0</ele><time>2026-05-01T13:05:29.27Z</time></trkpt><trkpt lat="46.1631128" lon="12.1777111"><ele>532.0</ele><time>2026-05-01T13:05:31.271Z</time></trkpt><trkpt lat="46.1631998" lon="12.1777378"><ele>532.0</ele><time>2026-05-01T13:05:33.273Z</time></trkpt><trkpt lat="46.1632932" lon="12.1777414"><ele>532.1666666666667</ele><time>2026-05-01T13:05:35.259Z</time></trkpt><trkpt lat="46.163376" lon="12.1777206"><ele>532.3333333333334</ele><time>2026-05-01T13:05:37.269Z</time></trkpt><trkpt lat="46.1634582" lon="12.1776861"><ele>532.5</ele><time>2026-05-01T13:05:39.268Z</time></trkpt><trkpt lat="46.1635318" lon="12.1776494"><ele>532.6666666666666</ele><time>2026-05-01T13:05:41.273Z</time></trkpt><trkpt lat="46.1636048" lon="12.1776191"><ele>532.8333333333333</ele><time>2026-05-01T13:05:43.267Z</time></trkpt><trkpt lat="46.1636733" lon="12.1775913"><ele>533.0</ele><time>2026-05-01T13:05:45.271Z</time></trkpt><trkpt lat="46.1637378" lon="12.1775669"><ele>533.0</ele><time>2026-05-01T13:05:47.269Z</time></trkpt><trkpt lat="46.1638227" lon="12.1775311"><ele>533.0</ele><time>2026-05-01T13:05:50.27Z</time></trkpt><trkpt lat="46.1638995" lon="12.1774947"><ele>533.0</ele><time>2026-05-01T13:05:53.262Z</time></trkpt><trkpt lat="46.1639671" lon="12.1774857"><ele>533.0</ele><time>2026-05-01T13:05:56.272Z</time></trkpt><trkpt lat="46.1640347" lon="12.1775201"><ele>533.0</ele><time>2026-05-01T13:06:00.269Z</time></trkpt><trkpt lat="46.1641197" lon="12.1775342"><ele>533.0</ele><time>2026-05-01T13:06:03.271Z</time></trkpt><trkpt lat="46.164198" lon="12.1775353"><ele>533.8571428571429</ele><time>2026-05-01T13:06:06.271Z</time></trkpt><trkpt lat="46.1642705" lon="12.1775536"><ele>534.7142857142857</ele><time>2026-05-01T13:06:09.271Z</time></trkpt><trkpt lat="46.1643375" lon="12.1775828"><ele>535.5714285714286</ele><time>2026-05-01T13:06:12.271Z</time></trkpt><trkpt lat="46.1644151" lon="12.1775672"><ele>536.4285714285714</ele><time>2026-05-01T13:06:16.273Z</time></trkpt><trkpt lat="46.1644848" lon="12.1775243"><ele>537.2857142857142</ele><time>2026-05-01T13:06:20.272Z</time></trkpt><trkpt lat="46.1645545" lon="12.177478"><ele>538.1428571428571</ele><time>2026-05-01T13:06:24.272Z</time></trkpt><trkpt lat="46.1646194" lon="12.1774616"><ele>539.0</ele><time>2026-05-01T13:06:38.266Z</time></trkpt><trkpt lat="46.1646819" lon="12.1774496"><ele>539.0</ele><time>2026-05-01T13:06:41.269Z</time></trkpt><trkpt lat="46.1647692" lon="12.1774355"><ele>539.0</ele><time>2026-05-01T13:06:45.261Z</time></trkpt><trkpt lat="46.1648443" lon="12.1774321"><ele>539.0</ele><time>2026-05-01T13:06:48.268Z</time></trkpt><trkpt lat="46.1649321" lon="12.1774538"><ele>539.0</ele><time>2026-05-01T13:06:51.268Z</time></trkpt><trkpt lat="46.1649995" lon="12.1775083"><ele>539.0</ele><time>2026-05-01T13:06:54.269Z</time></trkpt><trkpt lat="46.1650637" lon="12.1775302"><ele>539.0</ele><time>2026-05-01T13:06:57.269Z</time></trkpt><trkpt lat="46.1651369" lon="12.1775601"><ele>541.7142857142857</ele><time>2026-05-01T13:07:00.268Z</time></trkpt><trkpt lat="46.1652216" lon="12.177557"><ele>544.4285714285714</ele><time>2026-05-01T13:07:04.27Z</time></trkpt><trkpt lat="46.1652977" lon="12.1775223"><ele>547.1428571428571</ele><time>2026-05-01T13:07:08.276Z</time></trkpt><trkpt lat="46.1653521" lon="12.1774572"><ele>549.8571428571429</ele><time>2026-05-01T13:07:12.27Z</time></trkpt><trkpt lat="46.165403" lon="12.1773998"><ele>552.5714285714286</ele><time>2026-05-01T13:07:16.271Z</time></trkpt><trkpt lat="46.1654483" lon="12.1773304"><ele>555.2857142857142</ele><time>2026-05-01T13:07:20.27Z</time></trkpt><trkpt lat="46.165502" lon="12.1772647"><ele>558.0</ele><time>2026-05-01T13:07:24.269Z</time></trkpt><trkpt lat="46.1655639" lon="12.1771997"><ele>557.9999999999999</ele><time>2026-05-01T13:07:28.262Z</time></trkpt><trkpt lat="46.1656274" lon="12.1771326"><ele>558.0</ele><time>2026-05-01T13:07:32.27Z</time></trkpt><trkpt lat="46.1656866" lon="12.1771"><ele>558.0</ele><time>2026-05-01T13:07:35.271Z</time></trkpt><trkpt lat="46.1657603" lon="12.1771048"><ele>558.0</ele><time>2026-05-01T13:07:38.27Z</time></trkpt><trkpt lat="46.1658284" lon="12.1771255"><ele>558.0</ele><time>2026-05-01T13:07:41.294Z</time></trkpt><trkpt lat="46.1659007" lon="12.1771192"><ele>557.9999999999999</ele><time>2026-05-01T13:07:44.264Z</time></trkpt><trkpt lat="46.1659644" lon="12.177125"><ele>558.0</ele><time>2026-05-01T13:07:47.262Z</time></trkpt><trkpt lat="46.1660384" lon="12.1771294"><ele>558.9999999999999</ele><time>2026-05-01T13:07:50.27Z</time></trkpt><trkpt lat="46.1661041" lon="12.1771337"><ele>560.0</ele><time>2026-05-01T13:07:53.27Z</time></trkpt><trkpt lat="46.1661727" lon="12.1771286"><ele>561.0</ele><time>2026-05-01T13:07:56.27Z</time></trkpt><trkpt lat="46.1662369" lon="12.1771197"><ele>562.0</ele><time>2026-05-01T13:07:59.261Z</time></trkpt><trkpt lat="46.1663054" lon="12.1770921"><ele>563.0</ele><time>2026-05-01T13:08:03.273Z</time></trkpt><trkpt lat="46.1663654" lon="12.1770413"><ele>563.9999999999999</ele><time>2026-05-01T13:08:07.268Z</time></trkpt><trkpt lat="46.1664387" lon="12.1769802"><ele>565.0</ele><time>2026-05-01T13:08:12.266Z</time></trkpt><trkpt lat="46.1664959" lon="12.176936"><ele>566.9999999999999</ele><time>2026-05-01T13:08:15.27Z</time></trkpt><trkpt lat="46.1665561" lon="12.176882"><ele>569.0</ele><time>2026-05-01T13:08:19.26Z</time></trkpt><trkpt lat="46.1666064" lon="12.1768205"><ele>571.0</ele><time>2026-05-01T13:08:23.268Z</time></trkpt><trkpt lat="46.1666629" lon="12.1767746"><ele>573.0</ele><time>2026-05-01T13:08:27.267Z</time></trkpt><trkpt lat="46.1667231" lon="12.176722"><ele>575.0</ele><time>2026-05-01T13:08:31.269Z</time></trkpt><trkpt lat="46.1667889" lon="12.1766867"><ele>576.9999999999999</ele><time>2026-05-01T13:08:35.27Z</time></trkpt><trkpt lat="46.1668655" lon="12.1766884"><ele>579.0</ele><time>2026-05-01T13:08:39.269Z</time></trkpt><trkpt lat="46.1669401" lon="12.1767112"><ele>578.9999999999999</ele><time>2026-05-01T13:08:44.26Z</time></trkpt><trkpt lat="46.1669986" lon="12.1767552"><ele>579.0</ele><time>2026-05-01T13:08:48.266Z</time></trkpt><trkpt lat="46.1670738" lon="12.1767775"><ele>579.0</ele><time>2026-05-01T13:08:52.265Z</time></trkpt><trkpt lat="46.1671367" lon="12.1768118"><ele>579.0</ele><time>2026-05-01T13:09:03.263Z</time></trkpt><trkpt lat="46.1671855" lon="12.1768827"><ele>579.0</ele><time>2026-05-01T13:09:07.27Z</time></trkpt><trkpt lat="46.1672593" lon="12.1769185"><ele>578.9999999999999</ele><time>2026-05-01T13:09:11.262Z</time></trkpt><trkpt lat="46.1673332" lon="12.176941"><ele>579.0</ele><time>2026-05-01T13:09:15.291Z</time></trkpt><trkpt lat="46.1673982" lon="12.176952"><ele>581.5714285714286</ele><time>2026-05-01T13:09:19.261Z</time></trkpt><trkpt lat="46.1674604" lon="12.1769697"><ele>584.1428571428571</ele><time>2026-05-01T13:09:22.269Z</time></trkpt><trkpt lat="46.1675309" lon="12.176971"><ele>586.7142857142858</ele><time>2026-05-01T13:09:26.268Z</time></trkpt><trkpt lat="46.167606" lon="12.177001"><ele>589.2857142857142</ele><time>2026-05-01T13:09:30.268Z</time></trkpt><trkpt lat="46.1676812" lon="12.1770468"><ele>591.8571428571429</ele><time>2026-05-01T13:09:34.263Z</time></trkpt><trkpt lat="46.1677595" lon="12.177086"><ele>594.4285714285714</ele><time>2026-05-01T13:09:38.27Z</time></trkpt><trkpt lat="46.1678302" lon="12.1770938"><ele>597.0</ele><time>2026-05-01T13:09:41.268Z</time></trkpt><trkpt lat="46.1679037" lon="12.1770758"><ele>597.0</ele><time>2026-05-01T13:09:44.26Z</time></trkpt><trkpt lat="46.1679713" lon="12.1770189"><ele>597.0</ele><time>2026-05-01T13:09:48.266Z</time></trkpt><trkpt lat="46.1680451" lon="12.1769744"><ele>597.0</ele><time>2026-05-01T13:09:52.262Z</time></trkpt><trkpt lat="46.1681054" lon="12.1769418"><ele>597.0</ele><time>2026-05-01T13:09:55.261Z</time></trkpt><trkpt lat="46.1681644" lon="12.1768774"><ele>597.0</ele><time>2026-05-01T13:09:58.262Z</time></trkpt><trkpt lat="46.1682166" lon="12.1768072"><ele>597.0</ele><time>2026-05-01T13:10:02.262Z</time></trkpt><trkpt lat="46.1682875" lon="12.1767479"><ele>598.7142857142858</ele><time>2026-05-01T13:10:06.262Z</time></trkpt><trkpt lat="46.1683459" lon="12.1766716"><ele>600.4285714285714</ele><time>2026-05-01T13:10:10.269Z</time></trkpt><trkpt lat="46.1684094" lon="12.1766375"><ele>602.1428571428571</ele><time>2026-05-01T13:10:14.263Z</time></trkpt><trkpt lat="46.1684753" lon="12.1766433"><ele>603.8571428571429</ele><time>2026-05-01T13:10:18.271Z</time></trkpt><trkpt lat="46.1685473" lon="12.1766724"><ele>605.5714285714286</ele><time>2026-05-01T13:10:22.262Z</time></trkpt><trkpt lat="46.168617" lon="12.1767196"><ele>607.2857142857143</ele><time>2026-05-01T13:10:26.268Z</time></trkpt><trkpt lat="46.1686886" lon="12.1767536"><ele>609.0</ele><time>2026-05-01T13:10:30.263Z</time></trkpt><trkpt lat="46.168763" lon="12.1767642"><ele>609.0</ele><time>2026-05-01T13:10:34.268Z</time></trkpt><trkpt lat="46.1688374" lon="12.1767644"><ele>609.0</ele><time>2026-05-01T13:10:38.261Z</time></trkpt><trkpt lat="46.1689142" lon="12.1767744"><ele>609.0</ele><time>2026-05-01T13:10:42.268Z</time></trkpt><trkpt lat="46.1689883" lon="12.1768206"><ele>609.0</ele><time>2026-05-01T13:10:46.259Z</time></trkpt><trkpt lat="46.1690471" lon="12.1768807"><ele>609.0</ele><time>2026-05-01T13:10:50.269Z</time></trkpt><trkpt lat="46.1691754" lon="12.177038"><ele>611.4285714285714</ele><time>2026-05-01T13:12:22.262Z</time></trkpt><trkpt lat="46.1692457" lon="12.1770684"><ele>613.8571428571429</ele><time>2026-05-01T13:12:27.268Z</time></trkpt><trkpt lat="46.1693209" lon="12.1770622"><ele>616.2857142857142</ele><time>2026-05-01T13:12:31.27Z</time></trkpt><trkpt lat="46.1693933" lon="12.1770792"><ele>618.7142857142858</ele><time>2026-05-01T13:12:35.269Z</time></trkpt><trkpt lat="46.1694689" lon="12.1770835"><ele>621.1428571428571</ele><time>2026-05-01T13:12:40.268Z</time></trkpt><trkpt lat="46.1695429" lon="12.1770414"><ele>623.5714285714286</ele><time>2026-05-01T13:12:44.265Z</time></trkpt><trkpt lat="46.1696064" lon="12.1769999"><ele>626.0</ele><time>2026-05-01T13:12:48.267Z</time></trkpt><trkpt lat="46.1696924" lon="12.1770106"><ele>626.0</ele><time>2026-05-01T13:12:53.258Z</time></trkpt><trkpt lat="46.1696398" lon="12.1770932"><ele>626.0</ele><time>2026-05-01T13:13:02.261Z</time></trkpt><trkpt lat="46.1695855" lon="12.1771513"><ele>626.0</ele><time>2026-05-01T13:13:06.279Z</time></trkpt><trkpt lat="46.1695281" lon="12.1772276"><ele>626.0</ele><time>2026-05-01T13:13:10.263Z</time></trkpt><trkpt lat="46.1694608" lon="12.1772936"><ele>626.0</ele><time>2026-05-01T13:13:14.26Z</time></trkpt><trkpt lat="46.1693886" lon="12.1773591"><ele>626.0</ele><time>2026-05-01T13:13:18.261Z</time></trkpt><trkpt lat="46.1693435" lon="12.1774284"><ele>626.0</ele><time>2026-05-01T13:13:22.268Z</time></trkpt><trkpt lat="46.1694274" lon="12.1774078"><ele>626.0</ele><time>2026-05-01T13:13:27.277Z</time></trkpt><trkpt lat="46.1694946" lon="12.1773639"><ele>626.0</ele><time>2026-05-01T13:13:30.27Z</time></trkpt><trkpt lat="46.1695578" lon="12.1773186"><ele>626.0</ele><time>2026-05-01T13:13:32.272Z</time></trkpt><trkpt lat="46.1696347" lon="12.1772713"><ele>626.0</ele><time>2026-05-01T13:13:36.264Z</time></trkpt><trkpt lat="46.1697072" lon="12.1772382"><ele>626.0</ele><time>2026-05-01T13:13:39.268Z</time></trkpt><trkpt lat="46.1697715" lon="12.1772124"><ele>626.0</ele><time>2026-05-01T13:13:42.263Z</time></trkpt><trkpt lat="46.1698388" lon="12.1772018"><ele>626.0</ele><time>2026-05-01T13:13:45.268Z</time></trkpt><trkpt lat="46.1699154" lon="12.1772154"><ele>626.0</ele><time>2026-05-01T13:13:49.264Z</time></trkpt><trkpt lat="46.1699826" lon="12.1772571"><ele>626.0</ele><time>2026-05-01T13:13:53.268Z</time></trkpt><trkpt lat="46.1700584" lon="12.1772799"><ele>626.0</ele><time>2026-05-01T13:13:57.268Z</time></trkpt><trkpt lat="46.1701228" lon="12.1772995"><ele>626.0</ele><time>2026-05-01T13:14:01.268Z</time></trkpt><trkpt lat="46.1701867" lon="12.1773324"><ele>626.0</ele><time>2026-05-01T13:14:05.258Z</time></trkpt><trkpt lat="46.170262" lon="12.1773609"><ele>626.8333333333333</ele><time>2026-05-01T13:14:10.266Z</time></trkpt><trkpt lat="46.1703301" lon="12.1774182"><ele>627.6666666666666</ele><time>2026-05-01T13:14:14.262Z</time></trkpt><trkpt lat="46.1703875" lon="12.1774865"><ele>628.5</ele><time>2026-05-01T13:14:18.268Z</time></trkpt><trkpt lat="46.1704537" lon="12.1775455"><ele>629.3333333333334</ele><time>2026-05-01T13:14:22.261Z</time></trkpt><trkpt lat="46.1705135" lon="12.1776142"><ele>630.1666666666667</ele><time>2026-05-01T13:14:26.267Z</time></trkpt><trkpt lat="46.1705664" lon="12.1776852"><ele>631.0</ele><time>2026-05-01T13:14:30.261Z</time></trkpt><trkpt lat="46.170611" lon="12.1777696"><ele>631.0</ele><time>2026-05-01T13:14:34.27Z</time></trkpt><trkpt lat="46.1706613" lon="12.1778611"><ele>631.0</ele><time>2026-05-01T13:14:39.268Z</time></trkpt><trkpt lat="46.1707149" lon="12.1779525"><ele>631.0</ele><time>2026-05-01T13:14:43.265Z</time></trkpt><trkpt lat="46.1707599" lon="12.1780413"><ele>631.0</ele><time>2026-05-01T13:14:47.268Z</time></trkpt><trkpt lat="46.170798" lon="12.1781223"><ele>631.0</ele><time>2026-05-01T13:14:50.258Z</time></trkpt><trkpt lat="46.1708416" lon="12.1782006"><ele>631.0</ele><time>2026-05-01T13:14:53.265Z</time></trkpt><trkpt lat="46.1708908" lon="12.1782941"><ele>633.4285714285714</ele><time>2026-05-01T13:14:57.267Z</time></trkpt><trkpt lat="46.1709328" lon="12.1783881"><ele>635.8571428571428</ele><time>2026-05-01T13:15:01.268Z</time></trkpt><trkpt lat="46.1709794" lon="12.1784837"><ele>638.2857142857142</ele><time>2026-05-01T13:15:05.257Z</time></trkpt><trkpt lat="46.1710274" lon="12.1785547"><ele>640.7142857142858</ele><time>2026-05-01T13:15:08.266Z</time></trkpt><trkpt lat="46.1710822" lon="12.1786074"><ele>643.1428571428571</ele><time>2026-05-01T13:15:11.268Z</time></trkpt><trkpt lat="46.171144" lon="12.1786348"><ele>645.5714285714286</ele><time>2026-05-01T13:15:14.267Z</time></trkpt><trkpt lat="46.1712092" lon="12.1786158"><ele>648.0</ele><time>2026-05-01T13:15:17.266Z</time></trkpt><trkpt lat="46.1712762" lon="12.1785918"><ele>648.0</ele><time>2026-05-01T13:15:21.267Z</time></trkpt><trkpt lat="46.1713497" lon="12.1786077"><ele>648.0</ele><time>2026-05-01T13:15:25.26Z</time></trkpt><trkpt lat="46.1714257" lon="12.1786707"><ele>648.0</ele><time>2026-05-01T13:15:29.263Z</time></trkpt><trkpt lat="46.1714688" lon="12.1787381"><ele>648.0</ele><time>2026-05-01T13:15:32.261Z</time></trkpt><trkpt lat="46.1715057" lon="12.1788259"><ele>648.0</ele><time>2026-05-01T13:15:36.261Z</time></trkpt><trkpt lat="46.1715756" lon="12.1788671"><ele>648.0</ele><time>2026-05-01T13:18:03.271Z</time></trkpt><trkpt lat="46.1716438" lon="12.1789027"><ele>648.0</ele><time>2026-05-01T13:18:06.251Z</time></trkpt><trkpt lat="46.1717021" lon="12.1789833"><ele>649.2857142857143</ele><time>2026-05-01T13:18:09.266Z</time></trkpt><trkpt lat="46.171769" lon="12.1790651"><ele>650.5714285714286</ele><time>2026-05-01T13:18:12.258Z</time></trkpt><trkpt lat="46.1718195" lon="12.1791503"><ele>651.8571428571429</ele><time>2026-05-01T13:18:15.257Z</time></trkpt><trkpt lat="46.1718756" lon="12.179217"><ele>653.1428571428571</ele><time>2026-05-01T13:18:18.258Z</time></trkpt><trkpt lat="46.1719359" lon="12.1792773"><ele>654.4285714285714</ele><time>2026-05-01T13:18:21.261Z</time></trkpt><trkpt lat="46.1720007" lon="12.1793248"><ele>655.7142857142857</ele><time>2026-05-01T13:18:25.257Z</time></trkpt><trkpt lat="46.1720176" lon="12.1794147"><ele>657.0</ele><time>2026-05-01T13:18:43.259Z</time></trkpt><trkpt lat="46.1720736" lon="12.1794833"><ele>657.0</ele><time>2026-05-01T13:18:47.27Z</time></trkpt><trkpt lat="46.1721271" lon="12.1795637"><ele>657.0</ele><time>2026-05-01T13:18:51.261Z</time></trkpt><trkpt lat="46.1721902" lon="12.1796379"><ele>657.0</ele><time>2026-05-01T13:18:55.265Z</time></trkpt><trkpt lat="46.1722382" lon="12.1797045"><ele>657.0</ele><time>2026-05-01T13:18:58.259Z</time></trkpt><trkpt lat="46.17228" lon="12.1797755"><ele>657.0</ele><time>2026-05-01T13:19:01.267Z</time></trkpt><trkpt lat="46.1723184" lon="12.1798605"><ele>657.0</ele><time>2026-05-01T13:19:04.28Z</time></trkpt><trkpt lat="46.1723547" lon="12.1799422"><ele>657.0</ele><time>2026-05-01T13:19:07.27Z</time></trkpt><trkpt lat="46.1723873" lon="12.1800231"><ele>659.2857142857142</ele><time>2026-05-01T13:19:10.263Z</time></trkpt><trkpt lat="46.1724176" lon="12.1801034"><ele>661.5714285714287</ele><time>2026-05-01T13:19:13.265Z</time></trkpt><trkpt lat="46.1724545" lon="12.1801807"><ele>663.8571428571429</ele><time>2026-05-01T13:19:16.259Z</time></trkpt><trkpt lat="46.1724923" lon="12.1802576"><ele>666.1428571428571</ele><time>2026-05-01T13:19:19.264Z</time></trkpt><trkpt lat="46.1725415" lon="12.1803205"><ele>668.4285714285713</ele><time>2026-05-01T13:19:22.275Z</time></trkpt><trkpt lat="46.1725923" lon="12.1803806"><ele>670.7142857142858</ele><time>2026-05-01T13:19:25.259Z</time></trkpt><trkpt lat="46.1726534" lon="12.1804381"><ele>673.0</ele><time>2026-05-01T13:19:28.262Z</time></trkpt><trkpt lat="46.1727087" lon="12.1804868"><ele>673.0</ele><time>2026-05-01T13:19:31.271Z</time></trkpt><trkpt lat="46.1727619" lon="12.1805371"><ele>673.0</ele><time>2026-05-01T13:19:34.269Z</time></trkpt><trkpt lat="46.1728151" lon="12.1805982"><ele>673.0</ele><time>2026-05-01T13:19:37.264Z</time></trkpt><trkpt lat="46.1728784" lon="12.1806377"><ele>673.0</ele><time>2026-05-01T13:19:40.275Z</time></trkpt><trkpt lat="46.172938" lon="12.1805743"><ele>673.0</ele><time>2026-05-01T13:19:44.265Z</time></trkpt><trkpt lat="46.1729256" lon="12.1804725"><ele>673.0</ele><time>2026-05-01T13:19:48.261Z</time></trkpt><trkpt lat="46.17291" lon="12.1803645"><ele>673.0</ele><time>2026-05-01T13:19:52.275Z</time></trkpt><trkpt lat="46.1728918" lon="12.1802495"><ele>673.0</ele><time>2026-05-01T13:19:56.276Z</time></trkpt><trkpt lat="46.1728881" lon="12.180132"><ele>673.0</ele><time>2026-05-01T13:20:00.251Z</time></trkpt><trkpt lat="46.1728971" lon="12.1800151"><ele>673.0</ele><time>2026-05-01T13:20:04.275Z</time></trkpt><trkpt lat="46.1729321" lon="12.17992"><ele>673.0</ele><time>2026-05-01T13:20:08.266Z</time></trkpt><trkpt lat="46.1729572" lon="12.1798109"><ele>673.0</ele><time>2026-05-01T13:20:12.259Z</time></trkpt><trkpt lat="46.1729599" lon="12.1797177"><ele>673.0</ele><time>2026-05-01T13:20:15.262Z</time></trkpt><trkpt lat="46.1729696" lon="12.1796036"><ele>673.5714285714286</ele><time>2026-05-01T13:20:19.258Z</time></trkpt><trkpt lat="46.1729623" lon="12.1795109"><ele>674.1428571428571</ele><time>2026-05-01T13:20:22.275Z</time></trkpt><trkpt lat="46.1729536" lon="12.1794197"><ele>674.7142857142857</ele><time>2026-05-01T13:20:25.261Z</time></trkpt><trkpt lat="46.1729498" lon="12.1793074"><ele>675.2857142857142</ele><time>2026-05-01T13:20:29.261Z</time></trkpt><trkpt lat="46.1729488" lon="12.1791947"><ele>675.8571428571429</ele><time>2026-05-01T13:20:33.302Z</time></trkpt><trkpt lat="46.1729537" lon="12.1791024"><ele>676.4285714285713</ele><time>2026-05-01T13:20:36.267Z</time></trkpt><trkpt lat="46.1729644" lon="12.1789986"><ele>677.0</ele><time>2026-05-01T13:20:40.278Z</time></trkpt><trkpt lat="46.1730334" lon="12.1790432"><ele>677.0</ele><time>2026-05-01T13:20:45.271Z</time></trkpt><trkpt lat="46.1730707" lon="12.1791165"><ele>677.0</ele><time>2026-05-01T13:20:48.262Z</time></trkpt><trkpt lat="46.1731179" lon="12.1792151"><ele>677.0</ele><time>2026-05-01T13:20:52.26Z</time></trkpt><trkpt lat="46.1731651" lon="12.1793051"><ele>677.0</ele><time>2026-05-01T13:20:56.258Z</time></trkpt><trkpt lat="46.1732177" lon="12.1793939"><ele>677.0</ele><time>2026-05-01T13:21:00.266Z</time></trkpt><trkpt lat="46.1732828" lon="12.1794656"><ele>677.0</ele><time>2026-05-01T13:21:04.338Z</time></trkpt><trkpt lat="46.1733485" lon="12.1795381"><ele>680.9999999999999</ele><time>2026-05-01T13:21:08.276Z</time></trkpt><trkpt lat="46.17342" lon="12.1795997"><ele>685.0</ele><time>2026-05-01T13:21:12.264Z</time></trkpt><trkpt lat="46.1734771" lon="12.1796407"><ele>689.0</ele><time>2026-05-01T13:21:15.269Z</time></trkpt><trkpt lat="46.1735559" lon="12.1796748"><ele>693.0</ele><time>2026-05-01T13:21:19.27Z</time></trkpt><trkpt lat="46.1736377" lon="12.179694"><ele>697.0</ele><time>2026-05-01T13:21:23.28Z</time></trkpt><trkpt lat="46.1737015" lon="12.1796895"><ele>700.9999999999999</ele><time>2026-05-01T13:21:26.27Z</time></trkpt><trkpt lat="46.1737668" lon="12.1796584"><ele>705.0</ele><time>2026-05-01T13:21:29.275Z</time></trkpt><trkpt lat="46.1738318" lon="12.1796328"><ele>705.0</ele><time>2026-05-01T13:21:33.267Z</time></trkpt><trkpt lat="46.1737483" lon="12.1796618"><ele>705.0</ele><time>2026-05-01T13:29:22.269Z</time></trkpt><trkpt lat="46.1736964" lon="12.1797324"><ele>705.0</ele><time>2026-05-01T13:29:24.259Z</time></trkpt><trkpt lat="46.1736126" lon="12.1796987"><ele>705.0</ele><time>2026-05-01T13:29:27.262Z</time></trkpt><trkpt lat="46.1736056" lon="12.1795923"><ele>705.0</ele><time>2026-05-01T13:29:31.269Z</time></trkpt><trkpt lat="46.1736142" lon="12.179492"><ele>705.0</ele><time>2026-05-01T13:29:35.27Z</time></trkpt><trkpt lat="46.1736057" lon="12.1793999"><ele>704.9999999999999</ele><time>2026-05-01T13:29:39.267Z</time></trkpt><trkpt lat="46.1736077" lon="12.1792866"><ele>705.0</ele><time>2026-05-01T13:29:44.257Z</time></trkpt><trkpt lat="46.1735982" lon="12.17919"><ele>705.0</ele><time>2026-05-01T13:29:48.268Z</time></trkpt><trkpt lat="46.1735886" lon="12.1790886"><ele>705.0</ele><time>2026-05-01T13:29:53.263Z</time></trkpt><trkpt lat="46.1735923" lon="12.1789823"><ele>705.0</ele><time>2026-05-01T13:29:58.269Z</time></trkpt><trkpt lat="46.1735698" lon="12.178896"><ele>704.9999999999999</ele><time>2026-05-01T13:30:02.268Z</time></trkpt><trkpt lat="46.173561" lon="12.1787853"><ele>705.0</ele><time>2026-05-01T13:30:07.266Z</time></trkpt><trkpt lat="46.1735486" lon="12.1786794"><ele>706.8571428571428</ele><time>2026-05-01T13:30:12.266Z</time></trkpt><trkpt lat="46.1735531" lon="12.1785721"><ele>708.7142857142857</ele><time>2026-05-01T13:30:17.282Z</time></trkpt><trkpt lat="46.1735541" lon="12.1784791"><ele>710.5714285714286</ele><time>2026-05-01T13:30:21.283Z</time></trkpt><trkpt lat="46.1735494" lon="12.178366"><ele>712.4285714285713</ele><time>2026-05-01T13:30:26.274Z</time></trkpt><trkpt lat="46.1735412" lon="12.1782593"><ele>714.2857142857143</ele><time>2026-05-01T13:30:31.283Z</time></trkpt><trkpt lat="46.1735482" lon="12.1781515"><ele>716.1428571428571</ele><time>2026-05-01T13:30:37.258Z</time></trkpt><trkpt lat="46.1735558" lon="12.1780554"><ele>718.0</ele><time>2026-05-01T13:30:42.276Z</time></trkpt><trkpt lat="46.173574" lon="12.177952"><ele>718.5714285714286</ele><time>2026-05-01T13:30:47.268Z</time></trkpt><trkpt lat="46.1735709" lon="12.1778369"><ele>719.1428571428571</ele><time>2026-05-01T13:30:52.261Z</time></trkpt><trkpt lat="46.1735812" lon="12.1777444"><ele>719.7142857142858</ele><time>2026-05-01T13:30:56.274Z</time></trkpt><trkpt lat="46.1736528" lon="12.1777696"><ele>720.2857142857142</ele><time>2026-05-01T13:31:02.28Z</time></trkpt><trkpt lat="46.173696" lon="12.1778588"><ele>720.8571428571428</ele><time>2026-05-01T13:31:08.272Z</time></trkpt><trkpt lat="46.1737278" lon="12.1779465"><ele>721.4285714285714</ele><time>2026-05-01T13:31:13.274Z</time></trkpt><trkpt lat="46.1737591" lon="12.1780262"><ele>722.0</ele><time>2026-05-01T13:31:17.287Z</time></trkpt><trkpt lat="46.1738173" lon="12.1780636"><ele>722.0</ele><time>2026-05-01T13:31:22.282Z</time></trkpt><trkpt lat="46.1738793" lon="12.1780287"><ele>722.0</ele><time>2026-05-01T13:31:27.269Z</time></trkpt><trkpt lat="46.1739491" lon="12.1779689"><ele>722.0</ele><time>2026-05-01T13:31:31.267Z</time></trkpt><trkpt lat="46.1740003" lon="12.1779127"><ele>722.0</ele><time>2026-05-01T13:31:34.262Z</time></trkpt><trkpt lat="46.1740232" lon="12.1778064"><ele>722.0</ele><time>2026-05-01T13:31:38.267Z</time></trkpt><trkpt lat="46.1740262" lon="12.1777147"><ele>722.0</ele><time>2026-05-01T13:31:42.261Z</time></trkpt><trkpt lat="46.1740304" lon="12.1776237"><ele>722.0</ele><time>2026-05-01T13:31:46.272Z</time></trkpt><trkpt lat="46.1740426" lon="12.1775147"><ele>726.8571428571429</ele><time>2026-05-01T13:31:51.267Z</time></trkpt><trkpt lat="46.1740607" lon="12.1774185"><ele>731.7142857142857</ele><time>2026-05-01T13:31:55.271Z</time></trkpt><trkpt lat="46.1740959" lon="12.1773336"><ele>736.5714285714286</ele><time>2026-05-01T13:31:59.276Z</time></trkpt><trkpt lat="46.1741476" lon="12.1772508"><ele>741.4285714285714</ele><time>2026-05-01T13:32:04.269Z</time></trkpt><trkpt lat="46.1742022" lon="12.1771844"><ele>746.2857142857142</ele><time>2026-05-01T13:32:08.279Z</time></trkpt><trkpt lat="46.1742506" lon="12.1771102"><ele>751.1428571428571</ele><time>2026-05-01T13:32:13.28Z</time></trkpt><trkpt lat="46.1742461" lon="12.1769987"><ele>756.0</ele><time>2026-05-01T13:32:17.28Z</time></trkpt><trkpt lat="46.1742352" lon="12.1768864"><ele>757.4285714285714</ele><time>2026-05-01T13:32:21.281Z</time></trkpt><trkpt lat="46.1742195" lon="12.1767908"><ele>758.8571428571429</ele><time>2026-05-01T13:32:25.277Z</time></trkpt><trkpt lat="46.1742086" lon="12.1766961"><ele>760.2857142857142</ele><time>2026-05-01T13:32:29.279Z</time></trkpt><trkpt lat="46.1741945" lon="12.1765825"><ele>761.7142857142858</ele><time>2026-05-01T13:32:33.272Z</time></trkpt><trkpt lat="46.1741702" lon="12.176482"><ele>763.1428571428571</ele><time>2026-05-01T13:32:37.274Z</time></trkpt><trkpt lat="46.1741417" lon="12.1763981"><ele>764.5714285714286</ele><time>2026-05-01T13:32:41.277Z</time></trkpt><trkpt lat="46.174116" lon="12.1763023"><ele>766.0</ele><time>2026-05-01T13:32:45.282Z</time></trkpt><trkpt lat="46.1740828" lon="12.1762248"><ele>767.3333333333334</ele><time>2026-05-01T13:32:49.277Z</time></trkpt><trkpt lat="46.1740656" lon="12.1761312"><ele>768.6666666666667</ele><time>2026-05-01T13:32:53.263Z</time></trkpt><trkpt lat="46.1740267" lon="12.1760319"><ele>770.0</ele><time>2026-05-01T13:32:57.276Z</time></trkpt><trkpt lat="46.1740042" lon="12.1759436"><ele>771.3333333333334</ele><time>2026-05-01T13:33:01.269Z</time></trkpt><trkpt lat="46.1739911" lon="12.1758339"><ele>772.6666666666666</ele><time>2026-05-01T13:33:05.258Z</time></trkpt><trkpt lat="46.1739737" lon="12.1757212"><ele>774.0</ele><time>2026-05-01T13:33:10.267Z</time></trkpt><trkpt lat="46.1739499" lon="12.175569"><ele>774.0</ele><time>2026-05-01T13:33:15.268Z</time></trkpt><trkpt lat="46.1739116" lon="12.1754483"><ele>774.0</ele><time>2026-05-01T13:33:19.282Z</time></trkpt><trkpt lat="46.173873" lon="12.175353"><ele>774.0</ele><time>2026-05-01T13:33:22.274Z</time></trkpt><trkpt lat="46.173837" lon="12.1752417"><ele>774.0</ele><time>2026-05-01T13:33:25.275Z</time></trkpt><trkpt lat="46.1738079" lon="12.175152"><ele>774.0</ele><time>2026-05-01T13:33:28.265Z</time></trkpt><trkpt lat="46.173757" lon="12.1750482"><ele>774.0</ele><time>2026-05-01T13:33:31.281Z</time></trkpt><trkpt lat="46.173719" lon="12.1749626"><ele>776.5</ele><time>2026-05-01T13:33:33.273Z</time></trkpt><trkpt lat="46.1736846" lon="12.1748523"><ele>779.0</ele><time>2026-05-01T13:33:36.263Z</time></trkpt><trkpt lat="46.1736646" lon="12.1747323"><ele>781.5</ele><time>2026-05-01T13:33:39.269Z</time></trkpt><trkpt lat="46.1736457" lon="12.1746331"><ele>784.0</ele><time>2026-05-01T13:33:42.273Z</time></trkpt><trkpt lat="46.1736079" lon="12.1745574"><ele>786.5</ele><time>2026-05-01T13:33:44.272Z</time></trkpt><trkpt lat="46.1735542" lon="12.1744723"><ele>789.0</ele><time>2026-05-01T13:33:47.267Z</time></trkpt><trkpt lat="46.1735006" lon="12.1744098"><ele>789.0</ele><time>2026-05-01T13:33:49.277Z</time></trkpt><trkpt lat="46.173457" lon="12.1743091"><ele>789.0</ele><time>2026-05-01T13:33:52.282Z</time></trkpt><trkpt lat="46.1734326" lon="12.1741955"><ele>789.0</ele><time>2026-05-01T13:33:55.273Z</time></trkpt><trkpt lat="46.1734163" lon="12.1740895"><ele>789.0</ele><time>2026-05-01T13:33:58.28Z</time></trkpt><trkpt lat="46.1734157" lon="12.173972"><ele>789.0</ele><time>2026-05-01T13:34:02.275Z</time></trkpt><trkpt lat="46.173391" lon="12.1738672"><ele>789.0</ele><time>2026-05-01T13:34:06.274Z</time></trkpt><trkpt lat="46.1733642" lon="12.1737826"><ele>790.9999999999999</ele><time>2026-05-01T13:34:10.277Z</time></trkpt><trkpt lat="46.1733279" lon="12.1736987"><ele>793.0</ele><time>2026-05-01T13:34:14.271Z</time></trkpt><trkpt lat="46.1732857" lon="12.1736291"><ele>795.0</ele><time>2026-05-01T13:34:17.274Z</time></trkpt><trkpt lat="46.173238" lon="12.1735342"><ele>797.0</ele><time>2026-05-01T13:34:21.26Z</time></trkpt><trkpt lat="46.1732243" lon="12.1734183"><ele>799.0</ele><time>2026-05-01T13:34:25.326Z</time></trkpt><trkpt lat="46.1732453" lon="12.173331"><ele>800.9999999999999</ele><time>2026-05-01T13:34:29.273Z</time></trkpt><trkpt lat="46.1732631" lon="12.1732376"><ele>803.0</ele><time>2026-05-01T13:34:34.265Z</time></trkpt><trkpt lat="46.1733061" lon="12.1731473"><ele>803.8571428571428</ele><time>2026-05-01T13:34:39.305Z</time></trkpt><trkpt lat="46.173347" lon="12.1730736"><ele>804.7142857142857</ele><time>2026-05-01T13:34:43.268Z</time></trkpt><trkpt lat="46.173391" lon="12.1729828"><ele>805.5714285714286</ele><time>2026-05-01T13:34:49.27Z</time></trkpt><trkpt lat="46.1734471" lon="12.172907"><ele>806.4285714285713</ele><time>2026-05-01T13:34:54.279Z</time></trkpt><trkpt lat="46.1735008" lon="12.1728285"><ele>807.2857142857143</ele><time>2026-05-01T13:34:59.267Z</time></trkpt><trkpt lat="46.1735555" lon="12.1727601"><ele>808.1428571428571</ele><time>2026-05-01T13:35:04.277Z</time></trkpt><trkpt lat="46.1734965" lon="12.172832"><ele>809.0</ele><time>2026-05-01T13:35:29.283Z</time></trkpt><trkpt lat="46.1734446" lon="12.1728852"><ele>809.0</ele><time>2026-05-01T13:35:31.271Z</time></trkpt><trkpt lat="46.173397" lon="12.1729532"><ele>809.0</ele><time>2026-05-01T13:35:33.277Z</time></trkpt><trkpt lat="46.1733356" lon="12.1730312"><ele>809.0</ele><time>2026-05-01T13:35:36.283Z</time></trkpt><trkpt lat="46.1732774" lon="12.1731044"><ele>809.0</ele><time>2026-05-01T13:35:38.278Z</time></trkpt><trkpt lat="46.1732294" lon="12.1731915"><ele>809.0</ele><time>2026-05-01T13:35:40.283Z</time></trkpt><trkpt lat="46.1731612" lon="12.1732195"><ele>809.0</ele><time>2026-05-01T13:35:43.284Z</time></trkpt><trkpt lat="46.173094" lon="12.1732373"><ele>809.0</ele><time>2026-05-01T13:35:46.285Z</time></trkpt><trkpt lat="46.1731084" lon="12.1733459"><ele>809.0</ele><time>2026-05-01T13:35:56.266Z</time></trkpt><trkpt lat="46.1731763" lon="12.1733241"><ele>809.0</ele><time>2026-05-01T13:36:39.268Z</time></trkpt><trkpt lat="46.1732063" lon="12.1732303"><ele>809.0</ele><time>2026-05-01T13:36:44.27Z</time></trkpt><trkpt lat="46.1732633" lon="12.1731775"><ele>809.0</ele><time>2026-05-01T13:36:47.27Z</time></trkpt><trkpt lat="46.1733128" lon="12.1730979"><ele>809.0</ele><time>2026-05-01T13:36:51.276Z</time></trkpt><trkpt lat="46.1733614" lon="12.1730194"><ele>809.0</ele><time>2026-05-01T13:36:55.275Z</time></trkpt><trkpt lat="46.1734127" lon="12.1729404"><ele>809.0</ele><time>2026-05-01T13:37:00.27Z</time></trkpt><trkpt lat="46.1734683" lon="12.1728625"><ele>809.0</ele><time>2026-05-01T13:37:05.274Z</time></trkpt><trkpt lat="46.1735116" lon="12.1727935"><ele>809.0</ele><time>2026-05-01T13:37:10.27Z</time></trkpt><trkpt lat="46.1735683" lon="12.1727207"><ele>809.0</ele><time>2026-05-01T13:37:16.279Z</time></trkpt><trkpt lat="46.1736192" lon="12.1726602"><ele>809.0</ele><time>2026-05-01T13:38:00.281Z</time></trkpt><trkpt lat="46.1736669" lon="12.1725658"><ele>809.0</ele><time>2026-05-01T13:38:04.286Z</time></trkpt><trkpt lat="46.1736926" lon="12.1724674"><ele>809.0</ele><time>2026-05-01T13:38:07.277Z</time></trkpt><trkpt lat="46.1737193" lon="12.1723621"><ele>809.0</ele><time>2026-05-01T13:38:10.283Z</time></trkpt><trkpt lat="46.1737393" lon="12.172257"><ele>809.8571428571429</ele><time>2026-05-01T13:38:13.285Z</time></trkpt><trkpt lat="46.1737544" lon="12.1721682"><ele>810.7142857142858</ele><time>2026-05-01T13:38:16.28Z</time></trkpt><trkpt lat="46.1737851" lon="12.1720612"><ele>811.5714285714286</ele><time>2026-05-01T13:38:20.278Z</time></trkpt><trkpt lat="46.173813" lon="12.1719462"><ele>812.4285714285714</ele><time>2026-05-01T13:38:24.285Z</time></trkpt><trkpt lat="46.1738293" lon="12.1718568"><ele>813.2857142857142</ele><time>2026-05-01T13:38:27.273Z</time></trkpt><trkpt lat="46.1738631" lon="12.1717446"><ele>814.1428571428571</ele><time>2026-05-01T13:38:31.274Z</time></trkpt><trkpt lat="46.1738879" lon="12.1716474"><ele>815.0</ele><time>2026-05-01T13:38:35.279Z</time></trkpt><trkpt lat="46.1739214" lon="12.1715446"><ele>817.0</ele><time>2026-05-01T13:38:38.261Z</time></trkpt><trkpt lat="46.1739316" lon="12.171451"><ele>819.0</ele><time>2026-05-01T13:38:40.273Z</time></trkpt><trkpt lat="46.1739336" lon="12.1713502"><ele>821.0</ele><time>2026-05-01T13:38:43.271Z</time></trkpt><trkpt lat="46.1739372" lon="12.1712559"><ele>823.0</ele><time>2026-05-01T13:38:46.278Z</time></trkpt><trkpt lat="46.1739429" lon="12.1711432"><ele>825.0</ele><time>2026-05-01T13:38:50.276Z</time></trkpt><trkpt lat="46.1739456" lon="12.1710364"><ele>827.0</ele><time>2026-05-01T13:38:54.28Z</time></trkpt><trkpt lat="46.1739496" lon="12.1709295"><ele>829.0</ele><time>2026-05-01T13:38:58.267Z</time></trkpt><trkpt lat="46.1739662" lon="12.1708368"><ele>828.9999999999999</ele><time>2026-05-01T13:39:01.261Z</time></trkpt><trkpt lat="46.1739999" lon="12.1707299"><ele>829.0</ele><time>2026-05-01T13:39:05.27Z</time></trkpt><trkpt lat="46.1740382" lon="12.1706278"><ele>829.0</ele><time>2026-05-01T13:39:09.265Z</time></trkpt><trkpt lat="46.1740714" lon="12.1705426"><ele>829.0</ele><time>2026-05-01T13:39:13.267Z</time></trkpt><trkpt lat="46.1741197" lon="12.1704499"><ele>828.9999999999999</ele><time>2026-05-01T13:39:17.258Z</time></trkpt><trkpt lat="46.1741916" lon="12.1703984"><ele>829.0</ele><time>2026-05-01T13:39:21.258Z</time></trkpt><trkpt lat="46.1742358" lon="12.1702971"><ele>832.1428571428571</ele><time>2026-05-01T13:39:25.281Z</time></trkpt><trkpt lat="46.174277" lon="12.1701908"><ele>835.2857142857142</ele><time>2026-05-01T13:39:29.262Z</time></trkpt><trkpt lat="46.174333" lon="12.1701075"><ele>838.4285714285714</ele><time>2026-05-01T13:39:33.281Z</time></trkpt><trkpt lat="46.1743672" lon="12.1700239"><ele>841.5714285714286</ele><time>2026-05-01T13:39:38.272Z</time></trkpt><trkpt lat="46.1743235" lon="12.1699537"><ele>844.7142857142858</ele><time>2026-05-01T13:39:43.289Z</time></trkpt><trkpt lat="46.1743181" lon="12.1698434"><ele>847.8571428571429</ele><time>2026-05-01T13:39:47.266Z</time></trkpt><trkpt lat="46.1743113" lon="12.169738"><ele>851.0</ele><time>2026-05-01T13:39:50.267Z</time></trkpt><trkpt lat="46.1742961" lon="12.1696461"><ele>852.3333333333334</ele><time>2026-05-01T13:39:53.274Z</time></trkpt><trkpt lat="46.1742755" lon="12.1695473"><ele>853.6666666666667</ele><time>2026-05-01T13:39:56.272Z</time></trkpt><trkpt lat="46.1742343" lon="12.1694379"><ele>855.0</ele><time>2026-05-01T13:39:59.275Z</time></trkpt><trkpt lat="46.1742064" lon="12.169345"><ele>856.3333333333333</ele><time>2026-05-01T13:40:02.269Z</time></trkpt><trkpt lat="46.174182" lon="12.1692527"><ele>857.6666666666666</ele><time>2026-05-01T13:40:05.262Z</time></trkpt><trkpt lat="46.1741537" lon="12.1691351"><ele>859.0</ele><time>2026-05-01T13:40:09.258Z</time></trkpt><trkpt lat="46.1741273" lon="12.1690334"><ele>859.4999999999999</ele><time>2026-05-01T13:40:12.257Z</time></trkpt><trkpt lat="46.1741112" lon="12.1689375"><ele>860.0</ele><time>2026-05-01T13:40:15.266Z</time></trkpt><trkpt lat="46.1740797" lon="12.1688499"><ele>860.5</ele><time>2026-05-01T13:40:19.258Z</time></trkpt><trkpt lat="46.1740694" lon="12.1687547"><ele>861.0</ele><time>2026-05-01T13:42:54.26Z</time></trkpt><trkpt lat="46.1740331" lon="12.1686503"><ele>861.4999999999999</ele><time>2026-05-01T13:42:59.258Z</time></trkpt><trkpt lat="46.1739796" lon="12.1684818"><ele>862.0</ele><time>2026-05-01T13:43:03.262Z</time></trkpt><trkpt lat="46.1739457" lon="12.168393"><ele>860.4999999999999</ele><time>2026-05-01T13:43:05.271Z</time></trkpt><trkpt lat="46.1739201" lon="12.1682919"><ele>859.0</ele><time>2026-05-01T13:43:08.261Z</time></trkpt><trkpt lat="46.173883" lon="12.1681758"><ele>857.5</ele><time>2026-05-01T13:43:11.273Z</time></trkpt><trkpt lat="46.1738445" lon="12.1681023"><ele>856.0</ele><time>2026-05-01T13:43:13.272Z</time></trkpt><trkpt lat="46.1737908" lon="12.1680485"><ele>854.4999999999999</ele><time>2026-05-01T13:43:15.271Z</time></trkpt><trkpt lat="46.1737283" lon="12.1679886"><ele>853.0</ele><time>2026-05-01T13:43:18.275Z</time></trkpt><trkpt lat="46.1736563" lon="12.167919"><ele>852.9999999999999</ele><time>2026-05-01T13:43:21.261Z</time></trkpt><trkpt lat="46.1735795" lon="12.1678664"><ele>853.0</ele><time>2026-05-01T13:43:23.271Z</time></trkpt><trkpt lat="46.1735167" lon="12.1677912"><ele>853.0</ele><time>2026-05-01T13:43:24.262Z</time></trkpt><trkpt lat="46.173451" lon="12.1677289"><ele>853.0</ele><time>2026-05-01T13:43:26.264Z</time></trkpt><trkpt lat="46.1733762" lon="12.1676855"><ele>852.9999999999999</ele><time>2026-05-01T13:43:29.257Z</time></trkpt><trkpt lat="46.1733047" lon="12.1676732"><ele>853.0</ele><time>2026-05-01T13:43:35.263Z</time></trkpt><trkpt lat="46.1732398" lon="12.1677011"><ele>848.8</ele><time>2026-05-01T13:43:38.28Z</time></trkpt><trkpt lat="46.1731575" lon="12.167744"><ele>844.5999999999999</ele><time>2026-05-01T13:43:41.275Z</time></trkpt><trkpt lat="46.1730815" lon="12.1677816"><ele>840.4000000000001</ele><time>2026-05-01T13:43:43.265Z</time></trkpt><trkpt lat="46.1730113" lon="12.1677945"><ele>836.2</ele><time>2026-05-01T13:43:45.268Z</time></trkpt><trkpt lat="46.1729309" lon="12.1677986"><ele>832.0</ele><time>2026-05-01T13:43:47.276Z</time></trkpt><trkpt lat="46.1727985" lon="12.1677858"><ele>831.9999999999999</ele><time>2026-05-01T13:43:49.259Z</time></trkpt><trkpt lat="46.1727077" lon="12.1677637"><ele>832.0</ele><time>2026-05-01T13:43:51.259Z</time></trkpt><trkpt lat="46.1726164" lon="12.1677278"><ele>832.0</ele><time>2026-05-01T13:43:53.258Z</time></trkpt><trkpt lat="46.1725519" lon="12.1677213"><ele>832.0</ele><time>2026-05-01T13:43:55.26Z</time></trkpt><trkpt lat="46.1725198" lon="12.1676068"><ele>831.9999999999999</ele><time>2026-05-01T13:44:40.259Z</time></trkpt><trkpt lat="46.1725025" lon="12.1674832"><ele>832.0</ele><time>2026-05-01T13:44:43.26Z</time></trkpt><trkpt lat="46.1724579" lon="12.1673261"><ele>832.4000000000001</ele><time>2026-05-01T13:44:45.266Z</time></trkpt><trkpt lat="46.1724299" lon="12.1672281"><ele>832.8000000000001</ele><time>2026-05-01T13:44:47.259Z</time></trkpt><trkpt lat="46.1724002" lon="12.1670672"><ele>833.2</ele><time>2026-05-01T13:44:49.269Z</time></trkpt><trkpt lat="46.1723585" lon="12.1669038"><ele>833.6</ele><time>2026-05-01T13:44:51.27Z</time></trkpt><trkpt lat="46.1723238" lon="12.166734"><ele>834.0</ele><time>2026-05-01T13:44:53.268Z</time></trkpt><trkpt lat="46.1723085" lon="12.1666401"><ele>831.2857142857143</ele><time>2026-05-01T13:44:54.268Z</time></trkpt><trkpt lat="46.1722768" lon="12.1665236"><ele>828.5714285714286</ele><time>2026-05-01T13:44:56.265Z</time></trkpt><trkpt lat="46.1722401" lon="12.1664279"><ele>825.8571428571429</ele><time>2026-05-01T13:44:58.262Z</time></trkpt><trkpt lat="46.1722189" lon="12.1663391"><ele>823.1428571428571</ele><time>2026-05-01T13:45:01.29Z</time></trkpt><trkpt lat="46.1721972" lon="12.1662341"><ele>820.4285714285713</ele><time>2026-05-01T13:45:04.268Z</time></trkpt><trkpt lat="46.172201" lon="12.1661264"><ele>817.7142857142857</ele><time>2026-05-01T13:45:07.275Z</time></trkpt><trkpt lat="46.1721793" lon="12.1660309"><ele>815.0</ele><time>2026-05-01T13:45:10.27Z</time></trkpt><trkpt lat="46.1721782" lon="12.1659294"><ele>815.0000000000001</ele><time>2026-05-01T13:45:13.26Z</time></trkpt><trkpt lat="46.1721621" lon="12.1658402"><ele>815.0</ele><time>2026-05-01T13:45:16.267Z</time></trkpt><trkpt lat="46.1721461" lon="12.1657362"><ele>815.0</ele><time>2026-05-01T13:45:20.262Z</time></trkpt><trkpt lat="46.1720883" lon="12.165676"><ele>815.0</ele><time>2026-05-01T13:45:27.258Z</time></trkpt><trkpt lat="46.1720151" lon="12.1656119"><ele>815.0000000000001</ele><time>2026-05-01T13:45:30.265Z</time></trkpt><trkpt lat="46.1718906" lon="12.1655051"><ele>815.0</ele><time>2026-05-01T13:45:32.286Z</time></trkpt><trkpt lat="46.1718292" lon="12.1654551"><ele>815.2857142857142</ele><time>2026-05-01T13:45:33.271Z</time></trkpt><trkpt lat="46.171786" lon="12.1653694"><ele>815.5714285714286</ele><time>2026-05-01T13:45:34.267Z</time></trkpt><trkpt lat="46.1717494" lon="12.165295"><ele>815.8571428571429</ele><time>2026-05-01T13:45:35.272Z</time></trkpt><trkpt lat="46.1717127" lon="12.1651822"><ele>816.1428571428571</ele><time>2026-05-01T13:45:37.268Z</time></trkpt><trkpt lat="46.1716983" lon="12.165086"><ele>816.4285714285714</ele><time>2026-05-01T13:45:40.269Z</time></trkpt><trkpt lat="46.1717212" lon="12.1649881"><ele>816.7142857142857</ele><time>2026-05-01T13:45:44.26Z</time></trkpt><trkpt lat="46.1717556" lon="12.1649084"><ele>817.0</ele><time>2026-05-01T13:45:47.258Z</time></trkpt><trkpt lat="46.1718135" lon="12.1648439"><ele>817.9999999999999</ele><time>2026-05-01T13:45:51.268Z</time></trkpt><trkpt lat="46.1718776" lon="12.1647996"><ele>819.0</ele><time>2026-05-01T13:45:55.269Z</time></trkpt><trkpt lat="46.171927" lon="12.1647194"><ele>820.0</ele><time>2026-05-01T13:45:58.262Z</time></trkpt><trkpt lat="46.1719589" lon="12.164639"><ele>821.0</ele><time>2026-05-01T13:46:01.269Z</time></trkpt><trkpt lat="46.1719805" lon="12.1645434"><ele>821.9999999999999</ele><time>2026-05-01T13:46:03.263Z</time></trkpt><trkpt lat="46.1719081" lon="12.1644347"><ele>823.0</ele><time>2026-05-01T13:46:05.27Z</time></trkpt><trkpt lat="46.1718061" lon="12.1643538"><ele>822.9999999999999</ele><time>2026-05-01T13:46:07.258Z</time></trkpt><trkpt lat="46.1717384" lon="12.1642357"><ele>823.0</ele><time>2026-05-01T13:46:09.266Z</time></trkpt><trkpt lat="46.171702" lon="12.1641355"><ele>823.0</ele><time>2026-05-01T13:46:13.268Z</time></trkpt><trkpt lat="46.1716677" lon="12.1640568"><ele>823.0</ele><time>2026-05-01T13:46:16.26Z</time></trkpt><trkpt lat="46.1716444" lon="12.1639624"><ele>822.9999999999999</ele><time>2026-05-01T13:46:21.264Z</time></trkpt><trkpt lat="46.1716517" lon="12.1640687"><ele>823.0</ele><time>2026-05-01T13:46:35.264Z</time></trkpt><trkpt lat="46.1717142" lon="12.1641623"><ele>822.9999999999999</ele><time>2026-05-01T13:46:37.267Z</time></trkpt><trkpt lat="46.1717582" lon="12.1642596"><ele>823.0</ele><time>2026-05-01T13:46:39.267Z</time></trkpt><trkpt lat="46.1717299" lon="12.1643583"><ele>823.0</ele><time>2026-05-01T13:46:43.261Z</time></trkpt><trkpt lat="46.1716658" lon="12.164283"><ele>823.0</ele><time>2026-05-01T13:46:46.268Z</time></trkpt><trkpt lat="46.1715953" lon="12.164236"><ele>822.9999999999999</ele><time>2026-05-01T13:46:49.27Z</time></trkpt><trkpt lat="46.1715182" lon="12.1642159"><ele>823.0</ele><time>2026-05-01T13:46:51.258Z</time></trkpt><trkpt lat="46.1714435" lon="12.1642456"><ele>819.7142857142858</ele><time>2026-05-01T13:46:53.269Z</time></trkpt><trkpt lat="46.17137" lon="12.1642799"><ele>816.4285714285714</ele><time>2026-05-01T13:46:56.269Z</time></trkpt><trkpt lat="46.1713159" lon="12.1643322"><ele>813.1428571428571</ele><time>2026-05-01T13:46:59.27Z</time></trkpt><trkpt lat="46.171295" lon="12.1644496"><ele>809.8571428571429</ele><time>2026-05-01T13:47:02.268Z</time></trkpt><trkpt lat="46.1712338" lon="12.1644754"><ele>806.5714285714286</ele><time>2026-05-01T13:47:09.261Z</time></trkpt><trkpt lat="46.1712607" lon="12.1643833"><ele>803.2857142857143</ele><time>2026-05-01T13:47:15.267Z</time></trkpt><trkpt lat="46.1712617" lon="12.1642871"><ele>800.0</ele><time>2026-05-01T13:49:19.268Z</time></trkpt><trkpt lat="46.1713257" lon="12.164293"><ele>800.0000000000001</ele><time>2026-05-01T13:49:24.266Z</time></trkpt><trkpt lat="46.1713977" lon="12.1642417"><ele>800.0</ele><time>2026-05-01T13:49:28.266Z</time></trkpt><trkpt lat="46.1714785" lon="12.164209"><ele>800.0</ele><time>2026-05-01T13:49:31.26Z</time></trkpt><trkpt lat="46.1715528" lon="12.1642049"><ele>800.0</ele><time>2026-05-01T13:49:34.27Z</time></trkpt><trkpt lat="46.1716217" lon="12.1642659"><ele>800.0000000000001</ele><time>2026-05-01T13:49:38.267Z</time></trkpt><trkpt lat="46.1716914" lon="12.1642968"><ele>800.0</ele><time>2026-05-01T13:49:41.269Z</time></trkpt><trkpt lat="46.1717268" lon="12.1642203"><ele>803.2857142857143</ele><time>2026-05-01T13:49:47.261Z</time></trkpt><trkpt lat="46.1716898" lon="12.1641326"><ele>806.5714285714286</ele><time>2026-05-01T13:49:54.276Z</time></trkpt><trkpt lat="46.1716676" lon="12.1640376"><ele>809.8571428571429</ele><time>2026-05-01T13:49:58.269Z</time></trkpt><trkpt lat="46.1716382" lon="12.1639434"><ele>813.1428571428571</ele><time>2026-05-01T13:50:02.268Z</time></trkpt><trkpt lat="46.1716307" lon="12.1638484"><ele>816.4285714285714</ele><time>2026-05-01T13:50:06.271Z</time></trkpt><trkpt lat="46.1716448" lon="12.1637573"><ele>819.7142857142858</ele><time>2026-05-01T13:50:11.27Z</time></trkpt><trkpt lat="46.1716551" lon="12.1636655"><ele>823.0</ele><time>2026-05-01T13:50:15.269Z</time></trkpt><trkpt lat="46.1716488" lon="12.1635692"><ele>822.1428571428571</ele><time>2026-05-01T13:50:19.273Z</time></trkpt><trkpt lat="46.1716423" lon="12.1634718"><ele>821.2857142857143</ele><time>2026-05-01T13:50:23.262Z</time></trkpt><trkpt lat="46.171628" lon="12.1633675"><ele>820.4285714285713</ele><time>2026-05-01T13:50:27.262Z</time></trkpt><trkpt lat="46.1715772" lon="12.1632993"><ele>819.5714285714286</ele><time>2026-05-01T13:50:31.267Z</time></trkpt><trkpt lat="46.1715544" lon="12.1631985"><ele>818.7142857142857</ele><time>2026-05-01T13:50:53.26Z</time></trkpt><trkpt lat="46.1715291" lon="12.1631037"><ele>817.8571428571428</ele><time>2026-05-01T13:50:59.266Z</time></trkpt><trkpt lat="46.1715088" lon="12.1629967"><ele>817.0</ele><time>2026-05-01T13:51:04.263Z</time></trkpt><trkpt lat="46.1714875" lon="12.1628953"><ele>816.9999999999999</ele><time>2026-05-01T13:51:08.264Z</time></trkpt><trkpt lat="46.1714571" lon="12.1628025"><ele>817.0</ele><time>2026-05-01T13:51:12.26Z</time></trkpt><trkpt lat="46.1714373" lon="12.1627077"><ele>817.0</ele><time>2026-05-01T13:51:17.268Z</time></trkpt><trkpt lat="46.1714301" lon="12.1625916"><ele>817.0</ele><time>2026-05-01T13:51:22.272Z</time></trkpt><trkpt lat="46.1713938" lon="12.1625102"><ele>817.0</ele><time>2026-05-01T13:51:25.261Z</time></trkpt><trkpt lat="46.1713522" lon="12.1624237"><ele>816.9999999999999</ele><time>2026-05-01T13:51:28.259Z</time></trkpt><trkpt lat="46.1713253" lon="12.1623258"><ele>817.0</ele><time>2026-05-01T13:51:31.26Z</time></trkpt><trkpt lat="46.1712986" lon="12.1622251"><ele>818.2857142857142</ele><time>2026-05-01T13:51:34.262Z</time></trkpt><trkpt lat="46.1712925" lon="12.1621238"><ele>819.5714285714286</ele><time>2026-05-01T13:51:37.27Z</time></trkpt><trkpt lat="46.1712989" lon="12.1620119"><ele>820.8571428571429</ele><time>2026-05-01T13:51:41.268Z</time></trkpt><trkpt lat="46.1713086" lon="12.161903"><ele>822.1428571428571</ele><time>2026-05-01T13:51:44.276Z</time></trkpt><trkpt lat="46.1713257" lon="12.161793"><ele>823.4285714285714</ele><time>2026-05-01T13:51:47.263Z</time></trkpt><trkpt lat="46.1713435" lon="12.1616905"><ele>824.7142857142857</ele><time>2026-05-01T13:51:50.271Z</time></trkpt><trkpt lat="46.1713398" lon="12.1615909"><ele>826.0</ele><time>2026-05-01T13:51:53.276Z</time></trkpt><trkpt lat="46.1713126" lon="12.1614739"><ele>827.5714285714286</ele><time>2026-05-01T13:51:56.27Z</time></trkpt><trkpt lat="46.1712763" lon="12.1613605"><ele>829.1428571428571</ele><time>2026-05-01T13:51:59.262Z</time></trkpt><trkpt lat="46.1712492" lon="12.1612711"><ele>830.7142857142858</ele><time>2026-05-01T13:52:02.268Z</time></trkpt><trkpt lat="46.1712337" lon="12.1611801"><ele>832.2857142857142</ele><time>2026-05-01T13:52:06.269Z</time></trkpt><trkpt lat="46.171216" lon="12.1610636"><ele>833.8571428571429</ele><time>2026-05-01T13:52:10.271Z</time></trkpt><trkpt lat="46.1711891" lon="12.160966"><ele>835.4285714285714</ele><time>2026-05-01T13:52:13.277Z</time></trkpt><trkpt lat="46.1711658" lon="12.1608702"><ele>837.0</ele><time>2026-05-01T13:52:16.27Z</time></trkpt><trkpt lat="46.171135" lon="12.1607794"><ele>839.0</ele><time>2026-05-01T13:52:19.268Z</time></trkpt><trkpt lat="46.1710959" lon="12.1606866"><ele>841.0</ele><time>2026-05-01T13:52:22.272Z</time></trkpt><trkpt lat="46.1710614" lon="12.1605998"><ele>843.0</ele><time>2026-05-01T13:52:25.267Z</time></trkpt><trkpt lat="46.1710217" lon="12.1605276"><ele>845.0</ele><time>2026-05-01T13:52:28.267Z</time></trkpt><trkpt lat="46.1709673" lon="12.1604681"><ele>847.0</ele><time>2026-05-01T13:52:31.258Z</time></trkpt><trkpt lat="46.1709115" lon="12.1604009"><ele>849.0</ele><time>2026-05-01T13:52:35.268Z</time></trkpt><trkpt lat="46.1708529" lon="12.1603153"><ele>851.0</ele><time>2026-05-01T13:52:39.255Z</time></trkpt><trkpt lat="46.1708068" lon="12.1602372"><ele>851.0000000000001</ele><time>2026-05-01T13:52:42.268Z</time></trkpt><trkpt lat="46.1707727" lon="12.1601524"><ele>851.0</ele><time>2026-05-01T13:52:45.271Z</time></trkpt><trkpt lat="46.1707452" lon="12.1600398"><ele>851.0</ele><time>2026-05-01T13:52:49.27Z</time></trkpt><trkpt lat="46.1707221" lon="12.1599507"><ele>851.0</ele><time>2026-05-01T13:52:52.274Z</time></trkpt><trkpt lat="46.1706952" lon="12.1598412"><ele>851.0000000000001</ele><time>2026-05-01T13:52:55.27Z</time></trkpt><trkpt lat="46.1706611" lon="12.1597137"><ele>851.0</ele><time>2026-05-01T13:52:58.27Z</time></trkpt><trkpt lat="46.1706279" lon="12.1596118"><ele>845.4</ele><time>2026-05-01T13:53:00.271Z</time></trkpt><trkpt lat="46.1705875" lon="12.1594976"><ele>839.8</ele><time>2026-05-01T13:53:03.267Z</time></trkpt><trkpt lat="46.1705521" lon="12.159389"><ele>834.1999999999999</ele><time>2026-05-01T13:53:05.258Z</time></trkpt><trkpt lat="46.1705163" lon="12.1592586"><ele>828.5999999999999</ele><time>2026-05-01T13:53:07.274Z</time></trkpt><trkpt lat="46.1704924" lon="12.1591228"><ele>823.0</ele><time>2026-05-01T13:53:09.261Z</time></trkpt><trkpt lat="46.1704951" lon="12.158963"><ele>822.5714285714286</ele><time>2026-05-01T13:53:11.263Z</time></trkpt><trkpt lat="46.1705033" lon="12.15887"><ele>822.1428571428571</ele><time>2026-05-01T13:53:12.267Z</time></trkpt><trkpt lat="46.1705147" lon="12.1587743"><ele>821.7142857142858</ele><time>2026-05-01T13:53:13.268Z</time></trkpt><trkpt lat="46.1705279" lon="12.15867"><ele>821.2857142857142</ele><time>2026-05-01T13:53:14.268Z</time></trkpt><trkpt lat="46.1705482" lon="12.158559"><ele>820.8571428571428</ele><time>2026-05-01T13:53:15.263Z</time></trkpt><trkpt lat="46.1705727" lon="12.1584581"><ele>820.4285714285714</ele><time>2026-05-01T13:53:16.259Z</time></trkpt><trkpt lat="46.1705978" lon="12.1583592"><ele>820.0</ele><time>2026-05-01T13:53:17.259Z</time></trkpt><trkpt lat="46.1706142" lon="12.1582512"><ele>818.4</ele><time>2026-05-01T13:53:18.261Z</time></trkpt><trkpt lat="46.1706286" lon="12.158138"><ele>816.8</ele><time>2026-05-01T13:53:19.258Z</time></trkpt><trkpt lat="46.1706334" lon="12.158043"><ele>815.2</ele><time>2026-05-01T13:53:20.272Z</time></trkpt><trkpt lat="46.1706477" lon="12.1578839"><ele>813.6</ele><time>2026-05-01T13:53:22.271Z</time></trkpt><trkpt lat="46.1706824" lon="12.1577495"><ele>812.0</ele><time>2026-05-01T13:53:24.258Z</time></trkpt><trkpt lat="46.1707409" lon="12.1576243"><ele>816.2</ele><time>2026-05-01T13:53:26.261Z</time></trkpt><trkpt lat="46.1708004" lon="12.15749"><ele>820.4000000000001</ele><time>2026-05-01T13:53:28.26Z</time></trkpt><trkpt lat="46.1707804" lon="12.1573082"><ele>824.5999999999999</ele><time>2026-05-01T13:53:30.283Z</time></trkpt><trkpt lat="46.170755" lon="12.1571698"><ele>828.8</ele><time>2026-05-01T13:53:31.269Z</time></trkpt><trkpt lat="46.1707378" lon="12.157066"><ele>833.0</ele><time>2026-05-01T13:53:32.271Z</time></trkpt><trkpt lat="46.170743" lon="12.1569608"><ele>833.0</ele><time>2026-05-01T13:53:33.27Z</time></trkpt><trkpt lat="46.1707432" lon="12.1568625"><ele>833.0</ele><time>2026-05-01T13:53:34.266Z</time></trkpt><trkpt lat="46.1707429" lon="12.1567514"><ele>833.0</ele><time>2026-05-01T13:53:35.267Z</time></trkpt><trkpt lat="46.1707482" lon="12.1566467"><ele>833.0</ele><time>2026-05-01T13:53:36.258Z</time></trkpt><trkpt lat="46.170796" lon="12.1565648"><ele>833.0</ele><time>2026-05-01T13:53:37.259Z</time></trkpt><trkpt lat="46.1708326" lon="12.1564882"><ele>833.0</ele><time>2026-05-01T13:53:38.271Z</time></trkpt><trkpt lat="46.1708657" lon="12.1563887"><ele>833.0</ele><time>2026-05-01T13:53:39.261Z</time></trkpt><trkpt lat="46.1709077" lon="12.1563055"><ele>831.0000000000001</ele><time>2026-05-01T13:53:40.26Z</time></trkpt><trkpt lat="46.1709531" lon="12.1562278"><ele>829.0</ele><time>2026-05-01T13:53:41.273Z</time></trkpt><trkpt lat="46.1709996" lon="12.1561637"><ele>827.0</ele><time>2026-05-01T13:53:42.256Z</time></trkpt><trkpt lat="46.1710414" lon="12.1560894"><ele>825.0</ele><time>2026-05-01T13:53:43.257Z</time></trkpt><trkpt lat="46.1710946" lon="12.1559548"><ele>823.0000000000001</ele><time>2026-05-01T13:53:45.263Z</time></trkpt><trkpt lat="46.1711233" lon="12.1558214"><ele>821.0</ele><time>2026-05-01T13:53:47.261Z</time></trkpt><trkpt lat="46.1711577" lon="12.1557299"><ele>820.0000000000001</ele><time>2026-05-01T13:53:49.259Z</time></trkpt><trkpt lat="46.1711869" lon="12.1556391"><ele>819.0</ele><time>2026-05-01T13:53:51.268Z</time></trkpt><trkpt lat="46.1712277" lon="12.1555352"><ele>818.0</ele><time>2026-05-01T13:53:53.275Z</time></trkpt><trkpt lat="46.1712715" lon="12.1554223"><ele>817.0</ele><time>2026-05-01T13:53:55.275Z</time></trkpt><trkpt lat="46.1713236" lon="12.1553045"><ele>816.0000000000001</ele><time>2026-05-01T13:53:57.266Z</time></trkpt><trkpt lat="46.1713829" lon="12.1551869"><ele>815.0</ele><time>2026-05-01T13:53:59.265Z</time></trkpt><trkpt lat="46.1714341" lon="12.1550637"><ele>815.0000000000001</ele><time>2026-05-01T13:54:01.271Z</time></trkpt><trkpt lat="46.1714733" lon="12.1549491"><ele>815.0</ele><time>2026-05-01T13:54:03.27Z</time></trkpt><trkpt lat="46.1715221" lon="12.1548355"><ele>815.0</ele><time>2026-05-01T13:54:05.276Z</time></trkpt><trkpt lat="46.1715563" lon="12.1547107"><ele>815.0</ele><time>2026-05-01T13:54:07.266Z</time></trkpt><trkpt lat="46.1715817" lon="12.1545897"><ele>815.0000000000001</ele><time>2026-05-01T13:54:09.265Z</time></trkpt><trkpt lat="46.1715989" lon="12.1544788"><ele>815.0</ele><time>2026-05-01T13:54:11.256Z</time></trkpt><trkpt lat="46.1716267" lon="12.1543843"><ele>815.1428571428571</ele><time>2026-05-01T13:54:13.265Z</time></trkpt><trkpt lat="46.1716614" lon="12.1542889"><ele>815.2857142857142</ele><time>2026-05-01T13:54:15.262Z</time></trkpt><trkpt lat="46.1717126" lon="12.154217"><ele>815.4285714285714</ele><time>2026-05-01T13:54:17.258Z</time></trkpt><trkpt lat="46.1717744" lon="12.1541395"><ele>815.5714285714286</ele><time>2026-05-01T13:54:21.259Z</time></trkpt><trkpt lat="46.1718232" lon="12.1540644"><ele>815.7142857142858</ele><time>2026-05-01T13:54:24.265Z</time></trkpt><trkpt lat="46.171843" lon="12.1539665"><ele>815.8571428571429</ele><time>2026-05-01T13:54:28.259Z</time></trkpt><trkpt lat="46.1719116" lon="12.1539404"><ele>816.0</ele><time>2026-05-01T13:54:33.257Z</time></trkpt><trkpt lat="46.1719826" lon="12.1539406"><ele>816.0</ele><time>2026-05-01T13:54:38.274Z</time></trkpt><trkpt lat="46.1720489" lon="12.1539049"><ele>816.0</ele><time>2026-05-01T13:54:42.265Z</time></trkpt><trkpt lat="46.1721057" lon="12.1538636"><ele>816.0</ele><time>2026-05-01T13:54:45.268Z</time></trkpt><trkpt lat="46.1721703" lon="12.1538281"><ele>816.0</ele><time>2026-05-01T13:54:49.266Z</time></trkpt><trkpt lat="46.17224" lon="12.1537882"><ele>816.0</ele><time>2026-05-01T13:54:53.265Z</time></trkpt><trkpt lat="46.1723103" lon="12.1537582"><ele>816.0</ele><time>2026-05-01T13:54:57.266Z</time></trkpt><trkpt lat="46.1723964" lon="12.1537554"><ele>816.0</ele><time>2026-05-01T13:55:01.271Z</time></trkpt><trkpt lat="46.1724703" lon="12.153718"><ele>818.2857142857143</ele><time>2026-05-01T13:55:05.267Z</time></trkpt><trkpt lat="46.1725513" lon="12.1536901"><ele>820.5714285714287</ele><time>2026-05-01T13:55:09.263Z</time></trkpt><trkpt lat="46.172633" lon="12.1536779"><ele>822.8571428571429</ele><time>2026-05-01T13:55:14.258Z</time></trkpt><trkpt lat="46.1726953" lon="12.1536984"><ele>825.1428571428571</ele><time>2026-05-01T13:55:19.256Z</time></trkpt><trkpt lat="46.1727669" lon="12.1537074"><ele>827.4285714285714</ele><time>2026-05-01T13:55:23.256Z</time></trkpt><trkpt lat="46.1728444" lon="12.1537143"><ele>829.7142857142857</ele><time>2026-05-01T13:55:27.259Z</time></trkpt><trkpt lat="46.1729118" lon="12.153701"><ele>832.0</ele><time>2026-05-01T13:55:31.254Z</time></trkpt><trkpt lat="46.1729845" lon="12.153673"><ele>832.0</ele><time>2026-05-01T13:55:35.268Z</time></trkpt><trkpt lat="46.1730473" lon="12.1536358"><ele>832.0</ele><time>2026-05-01T13:55:39.256Z</time></trkpt><trkpt lat="46.1731206" lon="12.1535996"><ele>832.0</ele><time>2026-05-01T13:55:43.255Z</time></trkpt><trkpt lat="46.173184" lon="12.1535735"><ele>832.0</ele><time>2026-05-01T13:55:47.256Z</time></trkpt><trkpt lat="46.1732447" lon="12.1535285"><ele>832.0</ele><time>2026-05-01T13:55:51.285Z</time></trkpt><trkpt lat="46.1733062" lon="12.1534901"><ele>832.0</ele><time>2026-05-01T13:55:55.292Z</time></trkpt><trkpt lat="46.173364" lon="12.1534401"><ele>832.0</ele><time>2026-05-01T13:55:59.268Z</time></trkpt><trkpt lat="46.1734201" lon="12.1533802"><ele>834.0</ele><time>2026-05-01T13:56:03.268Z</time></trkpt><trkpt lat="46.1734758" lon="12.1533353"><ele>836.0</ele><time>2026-05-01T13:56:07.262Z</time></trkpt><trkpt lat="46.1735388" lon="12.1532598"><ele>838.0</ele><time>2026-05-01T13:56:12.267Z</time></trkpt><trkpt lat="46.1736013" lon="12.1532244"><ele>840.0</ele><time>2026-05-01T13:56:16.262Z</time></trkpt><trkpt lat="46.1736506" lon="12.1531365"><ele>842.0</ele><time>2026-05-01T13:56:21.259Z</time></trkpt><trkpt lat="46.1737043" lon="12.1530873"><ele>844.0</ele><time>2026-05-01T13:56:25.267Z</time></trkpt><trkpt lat="46.1737552" lon="12.1530018"><ele>846.0</ele><time>2026-05-01T13:56:30.283Z</time></trkpt><trkpt lat="46.1737965" lon="12.1529313"><ele>846.0</ele><time>2026-05-01T13:56:34.268Z</time></trkpt><trkpt lat="46.1738396" lon="12.1528642"><ele>846.0</ele><time>2026-05-01T13:56:38.258Z</time></trkpt><trkpt lat="46.1738793" lon="12.1527875"><ele>846.0</ele><time>2026-05-01T13:56:42.292Z</time></trkpt><trkpt lat="46.173924" lon="12.1527168"><ele>846.0</ele><time>2026-05-01T13:56:46.266Z</time></trkpt><trkpt lat="46.1739783" lon="12.152658"><ele>846.0</ele><time>2026-05-01T13:56:50.26Z</time></trkpt><trkpt lat="46.1740263" lon="12.1525885"><ele>846.0</ele><time>2026-05-01T13:56:55.261Z</time></trkpt><trkpt lat="46.174084" lon="12.1525379"><ele>846.0</ele><time>2026-05-01T13:56:59.267Z</time></trkpt><trkpt lat="46.1741519" lon="12.1525071"><ele>850.4285714285714</ele><time>2026-05-01T13:57:03.261Z</time></trkpt><trkpt lat="46.1742238" lon="12.1524842"><ele>854.8571428571429</ele><time>2026-05-01T13:57:07.266Z</time></trkpt><trkpt lat="46.174287" lon="12.1524951"><ele>859.2857142857143</ele><time>2026-05-01T13:57:11.258Z</time></trkpt><trkpt lat="46.1743549" lon="12.1525082"><ele>863.7142857142858</ele><time>2026-05-01T13:57:19.258Z</time></trkpt><trkpt lat="46.17443" lon="12.1524976"><ele>868.1428571428571</ele><time>2026-05-01T13:57:24.258Z</time></trkpt><trkpt lat="46.1744969" lon="12.1525123"><ele>872.5714285714287</ele><time>2026-05-01T13:57:28.259Z</time></trkpt><trkpt lat="46.1745639" lon="12.1525114"><ele>877.0</ele><time>2026-05-01T13:57:31.256Z</time></trkpt><trkpt lat="46.1746413" lon="12.1524956"><ele>876.9999999999999</ele><time>2026-05-01T13:57:35.259Z</time></trkpt><trkpt lat="46.174728" lon="12.152475"><ele>877.0</ele><time>2026-05-01T13:57:38.257Z</time></trkpt><trkpt lat="46.1748096" lon="12.1524493"><ele>877.0</ele><time>2026-05-01T13:57:41.258Z</time></trkpt><trkpt lat="46.1748784" lon="12.1524022"><ele>877.0</ele><time>2026-05-01T13:57:44.256Z</time></trkpt><trkpt lat="46.1749443" lon="12.1523465"><ele>876.9999999999999</ele><time>2026-05-01T13:57:48.257Z</time></trkpt><trkpt lat="46.1750113" lon="12.1522886"><ele>877.0</ele><time>2026-05-01T13:57:52.254Z</time></trkpt><trkpt lat="46.1750793" lon="12.1522243"><ele>876.1428571428572</ele><time>2026-05-01T13:57:56.257Z</time></trkpt><trkpt lat="46.1751439" lon="12.1522275"><ele>875.2857142857143</ele><time>2026-05-01T13:58:02.259Z</time></trkpt><trkpt lat="46.1752116" lon="12.1522542"><ele>874.4285714285714</ele><time>2026-05-01T13:58:09.255Z</time></trkpt><trkpt lat="46.1752773" lon="12.152289"><ele>873.5714285714287</ele><time>2026-05-01T13:59:23.257Z</time></trkpt><trkpt lat="46.1753427" lon="12.1523348"><ele>872.7142857142857</ele><time>2026-05-01T13:59:28.257Z</time></trkpt><trkpt lat="46.175411" lon="12.1523412"><ele>871.8571428571429</ele><time>2026-05-01T13:59:32.256Z</time></trkpt><trkpt lat="46.1754934" lon="12.1523218"><ele>871.0</ele><time>2026-05-01T13:59:36.256Z</time></trkpt><trkpt lat="46.1755614" lon="12.1522881"><ele>871.0</ele><time>2026-05-01T13:59:40.256Z</time></trkpt><trkpt lat="46.1756245" lon="12.1522178"><ele>871.0</ele><time>2026-05-01T13:59:44.268Z</time></trkpt><trkpt lat="46.1757142" lon="12.1521687"><ele>871.0</ele><time>2026-05-01T13:59:48.256Z</time></trkpt><trkpt lat="46.1757757" lon="12.1521427"><ele>871.0</ele><time>2026-05-01T13:59:50.258Z</time></trkpt><trkpt lat="46.1758405" lon="12.1521238"><ele>871.0</ele><time>2026-05-01T13:59:52.256Z</time></trkpt><trkpt lat="46.1759013" lon="12.1520635"><ele>871.0</ele><time>2026-05-01T13:59:55.257Z</time></trkpt><trkpt lat="46.1759606" lon="12.1520117"><ele>871.0</ele><time>2026-05-01T13:59:58.257Z</time></trkpt><trkpt lat="46.1760255" lon="12.1519685"><ele>870.1428571428571</ele><time>2026-05-01T14:00:01.257Z</time></trkpt><trkpt lat="46.1760845" lon="12.1519022"><ele>869.2857142857142</ele><time>2026-05-01T14:00:04.263Z</time></trkpt><trkpt lat="46.1761315" lon="12.151812"><ele>868.4285714285714</ele><time>2026-05-01T14:00:08.266Z</time></trkpt><trkpt lat="46.176177" lon="12.1517294"><ele>867.5714285714286</ele><time>2026-05-01T14:00:12.261Z</time></trkpt><trkpt lat="46.1762136" lon="12.1516523"><ele>866.7142857142858</ele><time>2026-05-01T14:00:15.267Z</time></trkpt><trkpt lat="46.1762498" lon="12.1515582"><ele>865.8571428571429</ele><time>2026-05-01T14:00:19.262Z</time></trkpt><trkpt lat="46.1762827" lon="12.1514802"><ele>865.0</ele><time>2026-05-01T14:00:22.259Z</time></trkpt><trkpt lat="46.1763215" lon="12.1513811"><ele>865.0</ele><time>2026-05-01T14:00:26.26Z</time></trkpt><trkpt lat="46.1763703" lon="12.1512908"><ele>865.0</ele><time>2026-05-01T14:00:30.259Z</time></trkpt><trkpt lat="46.1764283" lon="12.1512381"><ele>865.0</ele><time>2026-05-01T14:00:35.263Z</time></trkpt><trkpt lat="46.1764829" lon="12.151186"><ele>865.0</ele><time>2026-05-01T14:00:41.267Z</time></trkpt><trkpt lat="46.1765501" lon="12.1511485"><ele>865.0</ele><time>2026-05-01T14:00:46.261Z</time></trkpt><trkpt lat="46.1766174" lon="12.1511332"><ele>865.0</ele><time>2026-05-01T14:00:50.264Z</time></trkpt><trkpt lat="46.1766845" lon="12.1510959"><ele>865.0</ele><time>2026-05-01T14:00:55.266Z</time></trkpt><trkpt lat="46.176759" lon="12.1510614"><ele>869.4285714285714</ele><time>2026-05-01T14:01:00.264Z</time></trkpt><trkpt lat="46.176823" lon="12.1510434"><ele>873.8571428571429</ele><time>2026-05-01T14:01:04.266Z</time></trkpt><trkpt lat="46.1768932" lon="12.1510395"><ele>878.2857142857142</ele><time>2026-05-01T14:01:08.264Z</time></trkpt><trkpt lat="46.1769596" lon="12.1510322"><ele>882.7142857142858</ele><time>2026-05-01T14:01:12.265Z</time></trkpt><trkpt lat="46.1770298" lon="12.1510124"><ele>887.1428571428571</ele><time>2026-05-01T14:01:16.265Z</time></trkpt><trkpt lat="46.177089" lon="12.1509756"><ele>891.5714285714286</ele><time>2026-05-01T14:01:20.265Z</time></trkpt><trkpt lat="46.1771598" lon="12.1509568"><ele>896.0</ele><time>2026-05-01T14:01:24.258Z</time></trkpt><trkpt lat="46.1772276" lon="12.1509446"><ele>896.0</ele><time>2026-05-01T14:01:27.259Z</time></trkpt><trkpt lat="46.1772927" lon="12.1509138"><ele>896.0</ele><time>2026-05-01T14:01:30.257Z</time></trkpt><trkpt lat="46.1773567" lon="12.1509118"><ele>896.0</ele><time>2026-05-01T14:01:33.261Z</time></trkpt><trkpt lat="46.1774254" lon="12.1509002"><ele>896.0</ele><time>2026-05-01T14:01:36.256Z</time></trkpt><trkpt lat="46.1774881" lon="12.1508863"><ele>896.0</ele><time>2026-05-01T14:01:39.257Z</time></trkpt><trkpt lat="46.1775536" lon="12.1508465"><ele>896.0</ele><time>2026-05-01T14:01:42.263Z</time></trkpt><trkpt lat="46.1776271" lon="12.1508207"><ele>896.0</ele><time>2026-05-01T14:01:46.259Z</time></trkpt><trkpt lat="46.1776926" lon="12.1507696"><ele>897.4285714285714</ele><time>2026-05-01T14:01:50.264Z</time></trkpt><trkpt lat="46.1777542" lon="12.1507179"><ele>898.8571428571429</ele><time>2026-05-01T14:01:54.259Z</time></trkpt><trkpt lat="46.1778273" lon="12.1506731"><ele>900.2857142857142</ele><time>2026-05-01T14:01:58.26Z</time></trkpt><trkpt lat="46.1778935" lon="12.1506291"><ele>901.7142857142857</ele><time>2026-05-01T14:02:02.259Z</time></trkpt><trkpt lat="46.1779602" lon="12.1505724"><ele>903.1428571428571</ele><time>2026-05-01T14:02:07.257Z</time></trkpt><trkpt lat="46.1780304" lon="12.150532"><ele>904.5714285714284</ele><time>2026-05-01T14:02:12.265Z</time></trkpt><trkpt lat="46.1780963" lon="12.1504887"><ele>905.9999999999999</ele><time>2026-05-01T14:02:16.268Z</time></trkpt><trkpt lat="46.1781723" lon="12.1504566"><ele>911.3333333333334</ele><time>2026-05-01T14:02:21.268Z</time></trkpt><trkpt lat="46.1782477" lon="12.1503857"><ele>916.6666666666667</ele><time>2026-05-01T14:02:27.267Z</time></trkpt><trkpt lat="46.1783037" lon="12.1503157"><ele>922.0</ele><time>2026-05-01T14:02:31.268Z</time></trkpt><trkpt lat="46.1783586" lon="12.1502418"><ele>927.3333333333334</ele><time>2026-05-01T14:02:35.256Z</time></trkpt><trkpt lat="46.1784213" lon="12.1501983"><ele>932.6666666666667</ele><time>2026-05-01T14:02:39.256Z</time></trkpt><trkpt lat="46.1784995" lon="12.1501775"><ele>938.0</ele><time>2026-05-01T14:02:46.264Z</time></trkpt><trkpt lat="46.1785773" lon="12.150157"><ele>938.0</ele><time>2026-05-01T14:02:50.257Z</time></trkpt><trkpt lat="46.1786512" lon="12.1501334"><ele>938.0</ele><time>2026-05-01T14:02:54.257Z</time></trkpt><trkpt lat="46.1787188" lon="12.1501296"><ele>938.0</ele><time>2026-05-01T14:02:57.263Z</time></trkpt><trkpt lat="46.1787982" lon="12.1501423"><ele>938.0</ele><time>2026-05-01T14:03:01.266Z</time></trkpt><trkpt lat="46.1788591" lon="12.1501968"><ele>938.0</ele><time>2026-05-01T14:03:06.257Z</time></trkpt><trkpt lat="46.1789111" lon="12.1502647"><ele>938.0</ele><time>2026-05-01T14:03:10.266Z</time></trkpt><trkpt lat="46.1789687" lon="12.1503284"><ele>938.0</ele><time>2026-05-01T14:03:14.256Z</time></trkpt><trkpt lat="46.1790332" lon="12.1503625"><ele>940.5000000000001</ele><time>2026-05-01T14:03:18.257Z</time></trkpt><trkpt lat="46.1791076" lon="12.1503705"><ele>943.0</ele><time>2026-05-01T14:03:22.265Z</time></trkpt><trkpt lat="46.1792526" lon="12.1503779"><ele>945.5</ele><time>2026-05-01T14:03:31.266Z</time></trkpt><trkpt lat="46.1793236" lon="12.1503665"><ele>948.0</ele><time>2026-05-01T14:03:34.259Z</time></trkpt><trkpt lat="46.1793837" lon="12.1503335"><ele>950.5000000000001</ele><time>2026-05-01T14:03:39.267Z</time></trkpt><trkpt lat="46.1794502" lon="12.1503107"><ele>953.0</ele><time>2026-05-01T14:03:42.258Z</time></trkpt><trkpt lat="46.179528" lon="12.1502794"><ele>953.0</ele><time>2026-05-01T14:03:45.267Z</time></trkpt><trkpt lat="46.1795969" lon="12.1502368"><ele>953.0</ele><time>2026-05-01T14:03:48.263Z</time></trkpt><trkpt lat="46.1796651" lon="12.150185"><ele>953.0</ele><time>2026-05-01T14:03:51.26Z</time></trkpt><trkpt lat="46.1797123" lon="12.1501218"><ele>953.0</ele><time>2026-05-01T14:03:54.267Z</time></trkpt><trkpt lat="46.1797845" lon="12.1500594"><ele>953.0</ele><time>2026-05-01T14:03:58.26Z</time></trkpt><trkpt lat="46.1798484" lon="12.150028"><ele>953.0</ele><time>2026-05-01T14:04:26.267Z</time></trkpt><trkpt lat="46.1799199" lon="12.1499839"><ele>953.0</ele><time>2026-05-01T14:04:30.265Z</time></trkpt><trkpt lat="46.1799866" lon="12.1499399"><ele>951.1666666666667</ele><time>2026-05-01T14:04:34.257Z</time></trkpt><trkpt lat="46.1800523" lon="12.1499099"><ele>949.3333333333334</ele><time>2026-05-01T14:04:37.267Z</time></trkpt><trkpt lat="46.180146" lon="12.1498562"><ele>947.5</ele><time>2026-05-01T14:04:41.256Z</time></trkpt><trkpt lat="46.1802107" lon="12.1497947"><ele>945.6666666666667</ele><time>2026-05-01T14:04:45.256Z</time></trkpt><trkpt lat="46.1802722" lon="12.1497659"><ele>943.8333333333334</ele><time>2026-05-01T14:04:48.256Z</time></trkpt><trkpt lat="46.180336" lon="12.1497485"><ele>942.0</ele><time>2026-05-01T14:04:51.254Z</time></trkpt><trkpt lat="46.1804126" lon="12.1497338"><ele>942.0000000000001</ele><time>2026-05-01T14:04:56.255Z</time></trkpt><trkpt lat="46.1804839" lon="12.1497201"><ele>942.0</ele><time>2026-05-01T14:05:00.271Z</time></trkpt><trkpt lat="46.1805483" lon="12.1497208"><ele>942.0000000000001</ele><time>2026-05-01T14:05:03.26Z</time></trkpt><trkpt lat="46.1806308" lon="12.1497026"><ele>942.0000000000001</ele><time>2026-05-01T14:05:07.262Z</time></trkpt><trkpt lat="46.1806991" lon="12.149687"><ele>942.0</ele><time>2026-05-01T14:05:10.259Z</time></trkpt><trkpt lat="46.1807676" lon="12.1496597"><ele>942.0000000000001</ele><time>2026-05-01T14:05:13.26Z</time></trkpt><trkpt lat="46.1808354" lon="12.1496333"><ele>942.0000000000001</ele><time>2026-05-01T14:05:16.26Z</time></trkpt><trkpt lat="46.1809027" lon="12.1495964"><ele>945.7142857142858</ele><time>2026-05-01T14:05:19.255Z</time></trkpt><trkpt lat="46.1809637" lon="12.1495683"><ele>949.4285714285714</ele><time>2026-05-01T14:05:22.262Z</time></trkpt><trkpt lat="46.1810401" lon="12.1495224"><ele>953.1428571428571</ele><time>2026-05-01T14:05:26.267Z</time></trkpt><trkpt lat="46.1811037" lon="12.1494961"><ele>956.8571428571429</ele><time>2026-05-01T14:05:29.261Z</time></trkpt><trkpt lat="46.181181" lon="12.149439"><ele>960.5714285714284</ele><time>2026-05-01T14:05:33.258Z</time></trkpt><trkpt lat="46.1812453" lon="12.1494064"><ele>964.2857142857142</ele><time>2026-05-01T14:05:36.26Z</time></trkpt><trkpt lat="46.1813141" lon="12.149372"><ele>968.0</ele><time>2026-05-01T14:05:39.258Z</time></trkpt><trkpt lat="46.1813789" lon="12.1493356"><ele>968.0000000000001</ele><time>2026-05-01T14:05:42.256Z</time></trkpt><trkpt lat="46.181449" lon="12.1492903"><ele>968.0</ele><time>2026-05-01T14:05:45.255Z</time></trkpt><trkpt lat="46.1815364" lon="12.1492463"><ele>968.0</ele><time>2026-05-01T14:05:48.257Z</time></trkpt><trkpt lat="46.1816121" lon="12.1492171"><ele>968.0</ele><time>2026-05-01T14:05:51.255Z</time></trkpt><trkpt lat="46.1816763" lon="12.1491914"><ele>968.0000000000001</ele><time>2026-05-01T14:05:54.255Z</time></trkpt><trkpt lat="46.1817438" lon="12.1491679"><ele>968.0</ele><time>2026-05-01T14:05:58.263Z</time></trkpt><trkpt lat="46.1818197" lon="12.1491581"><ele>970.4285714285713</ele><time>2026-05-01T14:06:02.26Z</time></trkpt><trkpt lat="46.1818977" lon="12.1491574"><ele>972.8571428571428</ele><time>2026-05-01T14:06:06.26Z</time></trkpt><trkpt lat="46.1819748" lon="12.1491494"><ele>975.2857142857142</ele><time>2026-05-01T14:06:11.255Z</time></trkpt><trkpt lat="46.1820462" lon="12.1491275"><ele>977.7142857142858</ele><time>2026-05-01T14:06:15.254Z</time></trkpt><trkpt lat="46.1821193" lon="12.1491035"><ele>980.1428571428572</ele><time>2026-05-01T14:06:19.257Z</time></trkpt><trkpt lat="46.1821895" lon="12.1490777"><ele>982.5714285714287</ele><time>2026-05-01T14:06:23.255Z</time></trkpt><trkpt lat="46.1822629" lon="12.1490741"><ele>985.0</ele><time>2026-05-01T14:06:26.258Z</time></trkpt><trkpt lat="46.1823283" lon="12.1490886"><ele>987.4285714285714</ele><time>2026-05-01T14:06:30.259Z</time></trkpt><trkpt lat="46.1824072" lon="12.1491129"><ele>989.8571428571429</ele><time>2026-05-01T14:06:35.258Z</time></trkpt><trkpt lat="46.1824806" lon="12.1491225"><ele>992.2857142857143</ele><time>2026-05-01T14:06:39.262Z</time></trkpt><trkpt lat="46.1825581" lon="12.1491214"><ele>994.7142857142858</ele><time>2026-05-01T14:06:43.255Z</time></trkpt><trkpt lat="46.1826295" lon="12.1491408"><ele>997.1428571428571</ele><time>2026-05-01T14:06:46.257Z</time></trkpt><trkpt lat="46.1827006" lon="12.1491628"><ele>999.5714285714287</ele><time>2026-05-01T14:06:50.259Z</time></trkpt><trkpt lat="46.1827614" lon="12.1492041"><ele>1002.0</ele><time>2026-05-01T14:06:53.258Z</time></trkpt><trkpt lat="46.1828269" lon="12.1492806"><ele>1002.0</ele><time>2026-05-01T14:06:55.259Z</time></trkpt><trkpt lat="46.1829039" lon="12.1492343"><ele>1002.0</ele><time>2026-05-01T14:06:58.272Z</time></trkpt><trkpt lat="46.1829662" lon="12.1491467"><ele>1002.0</ele><time>2026-05-01T14:07:01.26Z</time></trkpt><trkpt lat="46.1830347" lon="12.1490626"><ele>1002.0</ele><time>2026-05-01T14:07:04.259Z</time></trkpt><trkpt lat="46.183086" lon="12.1489804"><ele>1002.0</ele><time>2026-05-01T14:07:07.259Z</time></trkpt><trkpt lat="46.1831531" lon="12.1489094"><ele>1002.0</ele><time>2026-05-01T14:07:10.262Z</time></trkpt><trkpt lat="46.1832129" lon="12.1488458"><ele>1002.5714285714287</ele><time>2026-05-01T14:07:13.259Z</time></trkpt><trkpt lat="46.1832752" lon="12.1488115"><ele>1003.1428571428571</ele><time>2026-05-01T14:07:16.259Z</time></trkpt><trkpt lat="46.1833413" lon="12.1487857"><ele>1003.7142857142858</ele><time>2026-05-01T14:07:19.258Z</time></trkpt><trkpt lat="46.1834039" lon="12.148758"><ele>1004.2857142857143</ele><time>2026-05-01T14:07:22.263Z</time></trkpt><trkpt lat="46.1834589" lon="12.1486727"><ele>1004.8571428571429</ele><time>2026-05-01T14:07:26.263Z</time></trkpt><trkpt lat="46.1835071" lon="12.1486043"><ele>1005.4285714285714</ele><time>2026-05-01T14:07:29.259Z</time></trkpt><trkpt lat="46.1835727" lon="12.1485274"><ele>1006.0</ele><time>2026-05-01T14:07:33.258Z</time></trkpt><trkpt lat="46.1836299" lon="12.1484506"><ele>1005.9999999999999</ele><time>2026-05-01T14:07:36.26Z</time></trkpt><trkpt lat="46.1836728" lon="12.1483738"><ele>1006.0</ele><time>2026-05-01T14:07:39.259Z</time></trkpt><trkpt lat="46.1837179" lon="12.1482875"><ele>1006.0</ele><time>2026-05-01T14:07:42.259Z</time></trkpt><trkpt lat="46.1837596" lon="12.1481981"><ele>1006.0</ele><time>2026-05-01T14:07:45.26Z</time></trkpt><trkpt lat="46.1838048" lon="12.1481206"><ele>1005.9999999999999</ele><time>2026-05-01T14:07:48.268Z</time></trkpt><trkpt lat="46.1838623" lon="12.1480269"><ele>1006.0</ele><time>2026-05-01T14:07:51.26Z</time></trkpt><trkpt lat="46.1839294" lon="12.1479498"><ele>1004.3333333333333</ele><time>2026-05-01T14:07:55.263Z</time></trkpt><trkpt lat="46.1839797" lon="12.1478864"><ele>1002.6666666666666</ele><time>2026-05-01T14:07:58.259Z</time></trkpt><trkpt lat="46.1840492" lon="12.1478102"><ele>1001.0</ele><time>2026-05-01T14:08:02.267Z</time></trkpt><trkpt lat="46.1840882" lon="12.147727"><ele>999.3333333333333</ele><time>2026-05-01T14:08:05.266Z</time></trkpt><trkpt lat="46.1841381" lon="12.1476609"><ele>997.6666666666666</ele><time>2026-05-01T14:08:08.263Z</time></trkpt><trkpt lat="46.1841623" lon="12.1475536"><ele>996.0</ele><time>2026-05-01T14:08:12.269Z</time></trkpt><trkpt lat="46.1841921" lon="12.1474433"><ele>999.4285714285713</ele><time>2026-05-01T14:08:16.262Z</time></trkpt><trkpt lat="46.1842223" lon="12.1473633"><ele>1002.8571428571428</ele><time>2026-05-01T14:08:19.26Z</time></trkpt><trkpt lat="46.1842804" lon="12.1472916"><ele>1006.2857142857142</ele><time>2026-05-01T14:08:23.264Z</time></trkpt><trkpt lat="46.1843286" lon="12.1472312"><ele>1009.7142857142858</ele><time>2026-05-01T14:08:27.266Z</time></trkpt><trkpt lat="46.1843905" lon="12.1471927"><ele>1013.1428571428572</ele><time>2026-05-01T14:08:31.258Z</time></trkpt><trkpt lat="46.1844525" lon="12.1471433"><ele>1016.5714285714287</ele><time>2026-05-01T14:08:34.259Z</time></trkpt><trkpt lat="46.1845072" lon="12.1470876"><ele>1020.0</ele><time>2026-05-01T14:08:37.268Z</time></trkpt><trkpt lat="46.1845661" lon="12.14703"><ele>1020.0</ele><time>2026-05-01T14:08:41.266Z</time></trkpt><trkpt lat="46.1846139" lon="12.1469613"><ele>1020.0000000000001</ele><time>2026-05-01T14:08:44.27Z</time></trkpt><trkpt lat="46.1846457" lon="12.1468717"><ele>1020.0</ele><time>2026-05-01T14:08:47.269Z</time></trkpt><trkpt lat="46.1846808" lon="12.14679"><ele>1020.0</ele><time>2026-05-01T14:08:50.261Z</time></trkpt><trkpt lat="46.1847416" lon="12.1467182"><ele>1020.0000000000001</ele><time>2026-05-01T14:08:54.266Z</time></trkpt><trkpt lat="46.1848115" lon="12.146668"><ele>1020.0</ele><time>2026-05-01T14:08:58.265Z</time></trkpt><trkpt lat="46.1848897" lon="12.1466385"><ele>1020.0</ele><time>2026-05-01T14:09:01.265Z</time></trkpt><trkpt lat="46.1849419" lon="12.1465849"><ele>1023.2857142857143</ele><time>2026-05-01T14:09:52.268Z</time></trkpt><trkpt lat="46.1849695" lon="12.1464695"><ele>1026.5714285714287</ele><time>2026-05-01T14:10:32.265Z</time></trkpt><trkpt lat="46.1849496" lon="12.1463813"><ele>1029.857142857143</ele><time>2026-05-01T14:11:30.265Z</time></trkpt><trkpt lat="46.1849606" lon="12.1462916"><ele>1033.142857142857</ele><time>2026-05-01T14:11:34.264Z</time></trkpt><trkpt lat="46.1849424" lon="12.1461852"><ele>1036.4285714285716</ele><time>2026-05-01T14:12:38.265Z</time></trkpt><trkpt lat="46.1848945" lon="12.1461064"><ele>1039.7142857142858</ele><time>2026-05-01T14:12:43.261Z</time></trkpt><trkpt lat="46.1848374" lon="12.1460542"><ele>1043.0</ele><time>2026-05-01T14:12:46.255Z</time></trkpt><trkpt lat="46.184774" lon="12.1460167"><ele>1043.0</ele><time>2026-05-01T14:12:49.259Z</time></trkpt><trkpt lat="46.1847459" lon="12.1459216"><ele>1043.0</ele><time>2026-05-01T14:12:54.282Z</time></trkpt><trkpt lat="46.1846967" lon="12.1458291"><ele>1043.0</ele><time>2026-05-01T14:12:57.255Z</time></trkpt><trkpt lat="46.1846495" lon="12.1457568"><ele>1043.0</ele><time>2026-05-01T14:13:00.264Z</time></trkpt><trkpt lat="46.1845879" lon="12.1456911"><ele>1043.0</ele><time>2026-05-01T14:13:04.258Z</time></trkpt><trkpt lat="46.1845041" lon="12.1456433"><ele>1043.0</ele><time>2026-05-01T14:13:07.257Z</time></trkpt><trkpt lat="46.1844255" lon="12.1456279"><ele>1047.1666666666667</ele><time>2026-05-01T14:13:11.262Z</time></trkpt><trkpt lat="46.1843644" lon="12.1455994"><ele>1051.3333333333335</ele><time>2026-05-01T14:13:14.264Z</time></trkpt><trkpt lat="46.1842905" lon="12.1455712"><ele>1055.5</ele><time>2026-05-01T14:13:17.258Z</time></trkpt><trkpt lat="46.1842268" lon="12.1454761"><ele>1059.6666666666667</ele><time>2026-05-01T14:13:21.265Z</time></trkpt><trkpt lat="46.1841659" lon="12.1454224"><ele>1063.8333333333333</ele><time>2026-05-01T14:13:23.268Z</time></trkpt><trkpt lat="46.1840917" lon="12.1453855"><ele>1068.0</ele><time>2026-05-01T14:13:26.263Z</time></trkpt><trkpt lat="46.1840316" lon="12.1453374"><ele>1065.6666666666667</ele><time>2026-05-01T14:13:29.265Z</time></trkpt><trkpt lat="46.1839415" lon="12.145284"><ele>1063.3333333333333</ele><time>2026-05-01T14:13:33.256Z</time></trkpt><trkpt lat="46.1838545" lon="12.1452308"><ele>1061.0</ele><time>2026-05-01T14:13:35.258Z</time></trkpt><trkpt lat="46.1837685" lon="12.145186"><ele>1058.6666666666665</ele><time>2026-05-01T14:13:37.268Z</time></trkpt><trkpt lat="46.1836879" lon="12.1451463"><ele>1056.3333333333333</ele><time>2026-05-01T14:13:39.254Z</time></trkpt><trkpt lat="46.1836138" lon="12.1451312"><ele>1054.0</ele><time>2026-05-01T14:13:44.259Z</time></trkpt><trkpt lat="46.1835431" lon="12.1451036"><ele>1054.0</ele><time>2026-05-01T14:13:47.257Z</time></trkpt><trkpt lat="46.18347" lon="12.1450869"><ele>1054.0</ele><time>2026-05-01T14:13:50.26Z</time></trkpt><trkpt lat="46.1834061" lon="12.1450148"><ele>1054.0</ele><time>2026-05-01T14:13:53.259Z</time></trkpt><trkpt lat="46.1833563" lon="12.1449263"><ele>1054.0</ele><time>2026-05-01T14:13:56.258Z</time></trkpt><trkpt lat="46.1833217" lon="12.144835"><ele>1054.0</ele><time>2026-05-01T14:13:59.256Z</time></trkpt><trkpt lat="46.1832854" lon="12.1447374"><ele>1054.0</ele><time>2026-05-01T14:14:03.256Z</time></trkpt><trkpt lat="46.1832321" lon="12.144667"><ele>1057.1428571428573</ele><time>2026-05-01T14:14:07.255Z</time></trkpt><trkpt lat="46.1832956" lon="12.1446316"><ele>1060.2857142857142</ele><time>2026-05-01T14:14:16.26Z</time></trkpt><trkpt lat="46.1833701" lon="12.1446513"><ele>1063.4285714285716</ele><time>2026-05-01T14:14:36.266Z</time></trkpt><trkpt lat="46.183445" lon="12.144679"><ele>1066.5714285714287</ele><time>2026-05-01T14:14:40.262Z</time></trkpt><trkpt lat="46.1835125" lon="12.1446906"><ele>1069.7142857142858</ele><time>2026-05-01T14:14:44.262Z</time></trkpt><trkpt lat="46.1835858" lon="12.1446989"><ele>1072.857142857143</ele><time>2026-05-01T14:14:48.264Z</time></trkpt><trkpt lat="46.1836497" lon="12.1447084"><ele>1076.0</ele><time>2026-05-01T14:14:51.257Z</time></trkpt><trkpt lat="46.1837114" lon="12.1447278"><ele>1076.0</ele><time>2026-05-01T14:14:55.262Z</time></trkpt><trkpt lat="46.1837956" lon="12.1447045"><ele>1076.0</ele><time>2026-05-01T14:14:59.255Z</time></trkpt><trkpt lat="46.1839028" lon="12.1447055"><ele>1076.0</ele><time>2026-05-01T14:15:02.257Z</time></trkpt><trkpt lat="46.1839728" lon="12.1446998"><ele>1076.0</ele><time>2026-05-01T14:15:06.264Z</time></trkpt><trkpt lat="46.1840342" lon="12.1446752"><ele>1076.0</ele><time>2026-05-01T14:15:10.258Z</time></trkpt><trkpt lat="46.1841022" lon="12.1446428"><ele>1076.0</ele><time>2026-05-01T14:15:14.26Z</time></trkpt><trkpt lat="46.1841707" lon="12.1446291"><ele>1077.5714285714287</ele><time>2026-05-01T14:15:35.269Z</time></trkpt><trkpt lat="46.1842343" lon="12.1446454"><ele>1079.1428571428573</ele><time>2026-05-01T14:15:38.267Z</time></trkpt><trkpt lat="46.1843047" lon="12.144667"><ele>1080.7142857142858</ele><time>2026-05-01T14:15:41.254Z</time></trkpt><trkpt lat="46.184377" lon="12.1446911"><ele>1082.2857142857142</ele><time>2026-05-01T14:15:44.258Z</time></trkpt><trkpt lat="46.1844576" lon="12.1447022"><ele>1083.8571428571427</ele><time>2026-05-01T14:15:48.256Z</time></trkpt><trkpt lat="46.1845312" lon="12.1447092"><ele>1085.4285714285713</ele><time>2026-05-01T14:15:51.267Z</time></trkpt><trkpt lat="46.1846086" lon="12.1447082"><ele>1087.0</ele><time>2026-05-01T14:15:54.257Z</time></trkpt><trkpt lat="46.1846772" lon="12.1446757"><ele>1087.0</ele><time>2026-05-01T14:15:57.256Z</time></trkpt><trkpt lat="46.1847451" lon="12.144646"><ele>1087.0</ele><time>2026-05-01T14:16:00.256Z</time></trkpt><trkpt lat="46.1848217" lon="12.1446305"><ele>1087.0</ele><time>2026-05-01T14:16:04.253Z</time></trkpt><trkpt lat="46.1848871" lon="12.1446359"><ele>1087.0</ele><time>2026-05-01T14:16:22.258Z</time></trkpt><trkpt lat="46.1849611" lon="12.1446573"><ele>1087.0</ele><time>2026-05-01T14:16:32.264Z</time></trkpt><trkpt lat="46.1850449" lon="12.1446667"><ele>1087.0</ele><time>2026-05-01T14:16:36.256Z</time></trkpt><trkpt lat="46.1851227" lon="12.1446654"><ele>1086.4285714285713</ele><time>2026-05-01T14:16:40.258Z</time></trkpt><trkpt lat="46.1851822" lon="12.1447244"><ele>1085.8571428571427</ele><time>2026-05-01T14:16:44.257Z</time></trkpt><trkpt lat="46.1852332" lon="12.1447847"><ele>1085.2857142857142</ele><time>2026-05-01T14:16:47.256Z</time></trkpt><trkpt lat="46.1853044" lon="12.1448555"><ele>1084.7142857142858</ele><time>2026-05-01T14:16:52.257Z</time></trkpt><trkpt lat="46.1853548" lon="12.1449319"><ele>1084.1428571428573</ele><time>2026-05-01T14:16:55.255Z</time></trkpt><trkpt lat="46.1854119" lon="12.1450039"><ele>1083.5714285714287</ele><time>2026-05-01T14:16:58.269Z</time></trkpt><trkpt lat="46.1854614" lon="12.1450693"><ele>1083.0</ele><time>2026-05-01T14:17:01.26Z</time></trkpt><trkpt lat="46.1855204" lon="12.1451498"><ele>1083.0</ele><time>2026-05-01T14:17:04.26Z</time></trkpt><trkpt lat="46.1855718" lon="12.1452379"><ele>1083.0</ele><time>2026-05-01T14:17:07.265Z</time></trkpt><trkpt lat="46.1856225" lon="12.1453344"><ele>1083.0</ele><time>2026-05-01T14:17:10.266Z</time></trkpt><trkpt lat="46.185667" lon="12.1454008"><ele>1083.0</ele><time>2026-05-01T14:17:12.265Z</time></trkpt><trkpt lat="46.1857231" lon="12.145461"><ele>1083.0</ele><time>2026-05-01T14:17:14.261Z</time></trkpt><trkpt lat="46.1857983" lon="12.1455226"><ele>1083.0</ele><time>2026-05-01T14:17:17.257Z</time></trkpt><trkpt lat="46.1858638" lon="12.1455836"><ele>1083.8333333333333</ele><time>2026-05-01T14:17:20.262Z</time></trkpt><trkpt lat="46.1859237" lon="12.1456499"><ele>1084.6666666666667</ele><time>2026-05-01T14:17:23.265Z</time></trkpt><trkpt lat="46.1859855" lon="12.1457064"><ele>1085.5</ele><time>2026-05-01T14:17:26.265Z</time></trkpt><trkpt lat="46.1860548" lon="12.145752"><ele>1086.3333333333335</ele><time>2026-05-01T14:17:30.258Z</time></trkpt><trkpt lat="46.1861172" lon="12.1458033"><ele>1087.1666666666667</ele><time>2026-05-01T14:17:33.264Z</time></trkpt><trkpt lat="46.1861892" lon="12.1458469"><ele>1088.0</ele><time>2026-05-01T14:17:36.264Z</time></trkpt><trkpt lat="46.186257" lon="12.1458938"><ele>1087.9999999999998</ele><time>2026-05-01T14:17:39.265Z</time></trkpt><trkpt lat="46.1863258" lon="12.145924"><ele>1088.0</ele><time>2026-05-01T14:17:42.262Z</time></trkpt><trkpt lat="46.1863875" lon="12.1459745"><ele>1088.0</ele><time>2026-05-01T14:17:45.262Z</time></trkpt><trkpt lat="46.1864584" lon="12.1460179"><ele>1088.0</ele><time>2026-05-01T14:17:49.257Z</time></trkpt><trkpt lat="46.1865178" lon="12.1460721"><ele>1088.0</ele><time>2026-05-01T14:18:35.26Z</time></trkpt><trkpt lat="46.1864526" lon="12.1460527"><ele>1087.9999999999998</ele><time>2026-05-01T14:19:05.265Z</time></trkpt><trkpt lat="46.1863951" lon="12.1459945"><ele>1088.0</ele><time>2026-05-01T14:19:08.265Z</time></trkpt><trkpt lat="46.1863278" lon="12.1459364"><ele>1088.0</ele><time>2026-05-01T14:19:11.261Z</time></trkpt><trkpt lat="46.1862298" lon="12.1459072"><ele>1088.0</ele><time>2026-05-01T14:19:13.257Z</time></trkpt><trkpt lat="46.1861415" lon="12.145862"><ele>1088.0</ele><time>2026-05-01T14:19:15.266Z</time></trkpt><trkpt lat="46.1860553" lon="12.1458073"><ele>1088.0</ele><time>2026-05-01T14:19:17.259Z</time></trkpt><trkpt lat="46.1859473" lon="12.1457003"><ele>1088.0</ele><time>2026-05-01T14:19:19.262Z</time></trkpt><trkpt lat="46.185879" lon="12.1456392"><ele>1087.1666666666667</ele><time>2026-05-01T14:19:20.273Z</time></trkpt><trkpt lat="46.1858204" lon="12.1455872"><ele>1086.3333333333335</ele><time>2026-05-01T14:19:21.263Z</time></trkpt><trkpt lat="46.1857624" lon="12.1455271"><ele>1085.5</ele><time>2026-05-01T14:19:22.264Z</time></trkpt><trkpt lat="46.1857015" lon="12.1454616"><ele>1084.6666666666667</ele><time>2026-05-01T14:19:23.272Z</time></trkpt><trkpt lat="46.1856584" lon="12.1453877"><ele>1083.8333333333333</ele><time>2026-05-01T14:19:24.269Z</time></trkpt><trkpt lat="46.1856273" lon="12.1453071"><ele>1083.0</ele><time>2026-05-01T14:19:25.27Z</time></trkpt><trkpt lat="46.1855384" lon="12.145172"><ele>1083.0</ele><time>2026-05-01T14:19:27.264Z</time></trkpt><trkpt lat="46.1854764" lon="12.1450516"><ele>1083.0</ele><time>2026-05-01T14:19:29.271Z</time></trkpt><trkpt lat="46.1853965" lon="12.1449321"><ele>1083.0</ele><time>2026-05-01T14:19:31.253Z</time></trkpt><trkpt lat="46.1853369" lon="12.1448508"><ele>1083.0</ele><time>2026-05-01T14:19:33.265Z</time></trkpt><trkpt lat="46.1852369" lon="12.1447509"><ele>1083.0</ele><time>2026-05-01T14:19:35.269Z</time></trkpt><trkpt lat="46.1851846" lon="12.144686"><ele>1083.6666666666667</ele><time>2026-05-01T14:19:36.251Z</time></trkpt><trkpt lat="46.185111" lon="12.144658"><ele>1084.3333333333333</ele><time>2026-05-01T14:19:37.27Z</time></trkpt><trkpt lat="46.1849848" lon="12.1446376"><ele>1085.0</ele><time>2026-05-01T14:19:39.26Z</time></trkpt><trkpt lat="46.1849166" lon="12.144617"><ele>1085.6666666666665</ele><time>2026-05-01T14:19:40.26Z</time></trkpt><trkpt lat="46.184853" lon="12.1446094"><ele>1086.3333333333333</ele><time>2026-05-01T14:19:41.258Z</time></trkpt><trkpt lat="46.1847679" lon="12.1445994"><ele>1087.0</ele><time>2026-05-01T14:19:43.413Z</time></trkpt><trkpt lat="46.1846823" lon="12.1446749"><ele>1087.0</ele><time>2026-05-01T14:19:45.26Z</time></trkpt><trkpt lat="46.1845887" lon="12.1447052"><ele>1087.0</ele><time>2026-05-01T14:19:47.271Z</time></trkpt><trkpt lat="46.1844907" lon="12.1446901"><ele>1087.0</ele><time>2026-05-01T14:19:49.26Z</time></trkpt><trkpt lat="46.1844202" lon="12.1446634"><ele>1087.0</ele><time>2026-05-01T14:19:51.257Z</time></trkpt><trkpt lat="46.1843225" lon="12.1446509"><ele>1087.0</ele><time>2026-05-01T14:19:53.265Z</time></trkpt><trkpt lat="46.1842311" lon="12.1446537"><ele>1087.0</ele><time>2026-05-01T14:19:55.267Z</time></trkpt><trkpt lat="46.1841408" lon="12.1446787"><ele>1087.0</ele><time>2026-05-01T14:19:57.266Z</time></trkpt><trkpt lat="46.1840584" lon="12.1447185"><ele>1087.0</ele><time>2026-05-01T14:19:59.268Z</time></trkpt><trkpt lat="46.1839823" lon="12.1447256"><ele>1087.0</ele><time>2026-05-01T14:20:01.265Z</time></trkpt><trkpt lat="46.1839017" lon="12.1447254"><ele>1087.0</ele><time>2026-05-01T14:20:03.257Z</time></trkpt><trkpt lat="46.1838093" lon="12.1447522"><ele>1087.0</ele><time>2026-05-01T14:20:05.256Z</time></trkpt><trkpt lat="46.1837298" lon="12.1447751"><ele>1084.8</ele><time>2026-05-01T14:20:07.254Z</time></trkpt><trkpt lat="46.1836243" lon="12.14475"><ele>1082.6</ele><time>2026-05-01T14:20:09.258Z</time></trkpt><trkpt lat="46.1835223" lon="12.1447728"><ele>1080.3999999999999</ele><time>2026-05-01T14:20:11.259Z</time></trkpt><trkpt lat="46.1834592" lon="12.1447466"><ele>1078.2</ele><time>2026-05-01T14:20:12.256Z</time></trkpt><trkpt lat="46.1833516" lon="12.1447318"><ele>1076.0</ele><time>2026-05-01T14:20:14.255Z</time></trkpt><trkpt lat="46.1832188" lon="12.1446921"><ele>1075.8333333333335</ele><time>2026-05-01T14:20:16.258Z</time></trkpt><trkpt lat="46.183139" lon="12.1447037"><ele>1075.6666666666667</ele><time>2026-05-01T14:20:17.257Z</time></trkpt><trkpt lat="46.1830739" lon="12.1446848"><ele>1075.5</ele><time>2026-05-01T14:20:18.258Z</time></trkpt><trkpt lat="46.1830012" lon="12.1446842"><ele>1075.3333333333333</ele><time>2026-05-01T14:20:19.27Z</time></trkpt><trkpt lat="46.1829065" lon="12.1447897"><ele>1075.1666666666665</ele><time>2026-05-01T14:20:21.264Z</time></trkpt><trkpt lat="46.1828405" lon="12.1448947"><ele>1075.0</ele><time>2026-05-01T14:20:23.258Z</time></trkpt><trkpt lat="46.1827577" lon="12.1450107"><ele>1070.2</ele><time>2026-05-01T14:20:25.258Z</time></trkpt><trkpt lat="46.1826993" lon="12.1451093"><ele>1065.4</ele><time>2026-05-01T14:20:27.259Z</time></trkpt><trkpt lat="46.1826206" lon="12.1451511"><ele>1060.6</ele><time>2026-05-01T14:20:29.256Z</time></trkpt><trkpt lat="46.1825242" lon="12.1451332"><ele>1055.8</ele><time>2026-05-01T14:20:32.255Z</time></trkpt><trkpt lat="46.182426" lon="12.1451209"><ele>1051.0</ele><time>2026-05-01T14:20:35.256Z</time></trkpt><trkpt lat="46.1823098" lon="12.1451122"><ele>1048.3999999999999</ele><time>2026-05-01T14:20:37.259Z</time></trkpt><trkpt lat="46.1822109" lon="12.1450518"><ele>1045.8</ele><time>2026-05-01T14:20:39.258Z</time></trkpt><trkpt lat="46.182097" lon="12.1450063"><ele>1043.1999999999998</ele><time>2026-05-01T14:20:41.258Z</time></trkpt><trkpt lat="46.1820318" lon="12.1449923"><ele>1040.6</ele><time>2026-05-01T14:20:42.26Z</time></trkpt><trkpt lat="46.1819647" lon="12.1450004"><ele>1038.0</ele><time>2026-05-01T14:20:43.258Z</time></trkpt><trkpt lat="46.1818381" lon="12.1449842"><ele>1038.0</ele><time>2026-05-01T14:20:45.263Z</time></trkpt><trkpt lat="46.181727" lon="12.1449989"><ele>1038.0</ele><time>2026-05-01T14:20:47.259Z</time></trkpt><trkpt lat="46.1816523" lon="12.1449927"><ele>1038.0</ele><time>2026-05-01T14:20:48.255Z</time></trkpt><trkpt lat="46.1815885" lon="12.1449902"><ele>1038.0</ele><time>2026-05-01T14:20:49.258Z</time></trkpt><trkpt lat="46.1815171" lon="12.1449988"><ele>1038.0</ele><time>2026-05-01T14:20:50.255Z</time></trkpt><trkpt lat="46.1814535" lon="12.1450087"><ele>1038.0</ele><time>2026-05-01T14:20:51.256Z</time></trkpt><trkpt lat="46.181348" lon="12.145073"><ele>1036.6666666666667</ele><time>2026-05-01T14:20:53.261Z</time></trkpt><trkpt lat="46.1812857" lon="12.1451244"><ele>1035.3333333333333</ele><time>2026-05-01T14:20:54.257Z</time></trkpt><trkpt lat="46.1812216" lon="12.1451469"><ele>1034.0</ele><time>2026-05-01T14:20:55.257Z</time></trkpt><trkpt lat="46.1811271" lon="12.1451872"><ele>1032.6666666666665</ele><time>2026-05-01T14:20:57.255Z</time></trkpt><trkpt lat="46.1810538" lon="12.1452077"><ele>1031.3333333333333</ele><time>2026-05-01T14:20:59.26Z</time></trkpt><trkpt lat="46.1809908" lon="12.1452161"><ele>1030.0</ele><time>2026-05-01T14:21:00.256Z</time></trkpt><trkpt lat="46.1809211" lon="12.1451264"><ele>1030.0</ele><time>2026-05-01T14:21:02.255Z</time></trkpt><trkpt lat="46.1808329" lon="12.1451556"><ele>1030.0</ele><time>2026-05-01T14:21:04.256Z</time></trkpt><trkpt lat="46.1807158" lon="12.1451834"><ele>1030.0</ele><time>2026-05-01T14:21:06.262Z</time></trkpt><trkpt lat="46.180654" lon="12.1452018"><ele>1030.0</ele><time>2026-05-01T14:21:07.255Z</time></trkpt><trkpt lat="46.180564" lon="12.1451997"><ele>1030.0</ele><time>2026-05-01T14:21:09.257Z</time></trkpt><trkpt lat="46.1804503" lon="12.1452392"><ele>1027.8333333333333</ele><time>2026-05-01T14:21:11.266Z</time></trkpt><trkpt lat="46.1803499" lon="12.1452023"><ele>1025.6666666666665</ele><time>2026-05-01T14:21:13.254Z</time></trkpt><trkpt lat="46.1802807" lon="12.1452142"><ele>1023.5</ele><time>2026-05-01T14:21:15.256Z</time></trkpt><trkpt lat="46.1802169" lon="12.1452271"><ele>1021.3333333333333</ele><time>2026-05-01T14:21:17.255Z</time></trkpt><trkpt lat="46.1800896" lon="12.1452481"><ele>1019.1666666666666</ele><time>2026-05-01T14:21:19.256Z</time></trkpt><trkpt lat="46.1800292" lon="12.1452918"><ele>1017.0</ele><time>2026-05-01T14:21:20.256Z</time></trkpt><trkpt lat="46.1799406" lon="12.145369"><ele>1017.0</ele><time>2026-05-01T14:21:22.255Z</time></trkpt><trkpt lat="46.1798553" lon="12.1454392"><ele>1017.0</ele><time>2026-05-01T14:21:24.258Z</time></trkpt><trkpt lat="46.1797918" lon="12.1455044"><ele>1017.0</ele><time>2026-05-01T14:21:26.257Z</time></trkpt><trkpt lat="46.179724" lon="12.1455579"><ele>1017.0</ele><time>2026-05-01T14:21:28.256Z</time></trkpt><trkpt lat="46.1796512" lon="12.1456322"><ele>1017.0</ele><time>2026-05-01T14:21:31.257Z</time></trkpt><trkpt lat="46.1795941" lon="12.1456852"><ele>1017.0</ele><time>2026-05-01T14:21:33.266Z</time></trkpt><trkpt lat="46.1795352" lon="12.1457688"><ele>1012.8571428571428</ele><time>2026-05-01T14:21:35.26Z</time></trkpt><trkpt lat="46.1795039" lon="12.1458598"><ele>1008.7142857142856</ele><time>2026-05-01T14:21:37.256Z</time></trkpt><trkpt lat="46.1794832" lon="12.1459511"><ele>1004.5714285714286</ele><time>2026-05-01T14:21:39.259Z</time></trkpt><trkpt lat="46.1794339" lon="12.1460304"><ele>1000.4285714285713</ele><time>2026-05-01T14:21:42.254Z</time></trkpt><trkpt lat="46.1793903" lon="12.1461034"><ele>996.2857142857142</ele><time>2026-05-01T14:22:48.255Z</time></trkpt><trkpt lat="46.1793986" lon="12.1462108"><ele>992.1428571428571</ele><time>2026-05-01T14:23:36.266Z</time></trkpt><trkpt lat="46.1794435" lon="12.1462813"><ele>988.0</ele><time>2026-05-01T14:23:43.265Z</time></trkpt><trkpt lat="46.1795261" lon="12.1462813"><ele>988.0</ele><time>2026-05-01T14:23:47.258Z</time></trkpt><trkpt lat="46.1796171" lon="12.1462627"><ele>988.0</ele><time>2026-05-01T14:23:50.256Z</time></trkpt><trkpt lat="46.1797042" lon="12.1462563"><ele>988.0</ele><time>2026-05-01T14:23:51.257Z</time></trkpt><trkpt lat="46.1798867" lon="12.1463464"><ele>988.0</ele><time>2026-05-01T14:23:59.258Z</time></trkpt><trkpt lat="46.1798768" lon="12.1464391"><ele>988.0</ele><time>2026-05-01T14:24:01.257Z</time></trkpt><trkpt lat="46.1797788" lon="12.1465026"><ele>987.9999999999999</ele><time>2026-05-01T14:24:04.257Z</time></trkpt><trkpt lat="46.1796828" lon="12.1464646"><ele>988.0</ele><time>2026-05-01T14:24:06.265Z</time></trkpt><trkpt lat="46.1796123" lon="12.1464788"><ele>988.0</ele><time>2026-05-01T14:24:08.268Z</time></trkpt><trkpt lat="46.1795446" lon="12.1465324"><ele>988.0</ele><time>2026-05-01T14:24:10.255Z</time></trkpt><trkpt lat="46.1795071" lon="12.1466065"><ele>987.9999999999999</ele><time>2026-05-01T14:24:12.268Z</time></trkpt><trkpt lat="46.1794688" lon="12.1466842"><ele>988.0</ele><time>2026-05-01T14:24:14.266Z</time></trkpt><trkpt lat="46.1794244" lon="12.1467813"><ele>983.0</ele><time>2026-05-01T14:24:16.26Z</time></trkpt><trkpt lat="46.1793325" lon="12.1468886"><ele>978.0</ele><time>2026-05-01T14:24:18.266Z</time></trkpt><trkpt lat="46.1792396" lon="12.1469881"><ele>973.0</ele><time>2026-05-01T14:24:20.268Z</time></trkpt><trkpt lat="46.1791618" lon="12.1470255"><ele>968.0</ele><time>2026-05-01T14:24:22.259Z</time></trkpt><trkpt lat="46.1790606" lon="12.1469619"><ele>963.0</ele><time>2026-05-01T14:24:24.265Z</time></trkpt><trkpt lat="46.1790046" lon="12.1469083"><ele>961.5999999999999</ele><time>2026-05-01T14:24:25.256Z</time></trkpt><trkpt lat="46.1789438" lon="12.1468558"><ele>960.1999999999999</ele><time>2026-05-01T14:24:26.261Z</time></trkpt><trkpt lat="46.1788444" lon="12.1467747"><ele>958.8</ele><time>2026-05-01T14:24:28.259Z</time></trkpt><trkpt lat="46.1787326" lon="12.1467372"><ele>957.4</ele><time>2026-05-01T14:24:30.259Z</time></trkpt><trkpt lat="46.1786665" lon="12.1467514"><ele>956.0</ele><time>2026-05-01T14:24:31.266Z</time></trkpt><trkpt lat="46.1785767" lon="12.1468215"><ele>956.0000000000001</ele><time>2026-05-01T14:24:33.268Z</time></trkpt><trkpt lat="46.1785125" lon="12.146848"><ele>956.0</ele><time>2026-05-01T14:24:35.256Z</time></trkpt><trkpt lat="46.1784397" lon="12.1468288"><ele>956.0000000000001</ele><time>2026-05-01T14:25:12.259Z</time></trkpt><trkpt lat="46.1783745" lon="12.1468723"><ele>956.0000000000001</ele><time>2026-05-01T14:25:15.258Z</time></trkpt><trkpt lat="46.1783143" lon="12.1469507"><ele>956.0</ele><time>2026-05-01T14:25:19.258Z</time></trkpt><trkpt lat="46.1782683" lon="12.1470472"><ele>956.0000000000001</ele><time>2026-05-01T14:25:23.265Z</time></trkpt><trkpt lat="46.1782084" lon="12.1471026"><ele>956.0000000000001</ele><time>2026-05-01T14:25:26.264Z</time></trkpt><trkpt lat="46.1781312" lon="12.14714"><ele>956.1666666666667</ele><time>2026-05-01T14:25:28.264Z</time></trkpt><trkpt lat="46.178031" lon="12.1471321"><ele>956.3333333333334</ele><time>2026-05-01T14:25:30.265Z</time></trkpt><trkpt lat="46.1779563" lon="12.1471106"><ele>956.5</ele><time>2026-05-01T14:25:32.266Z</time></trkpt><trkpt lat="46.1778888" lon="12.1470907"><ele>956.6666666666667</ele><time>2026-05-01T14:25:45.255Z</time></trkpt><trkpt lat="46.1778256" lon="12.1471071"><ele>956.8333333333334</ele><time>2026-05-01T14:25:47.264Z</time></trkpt><trkpt lat="46.1777356" lon="12.1471625"><ele>957.0</ele><time>2026-05-01T14:25:49.265Z</time></trkpt><trkpt lat="46.1776736" lon="12.1472148"><ele>957.0</ele><time>2026-05-01T14:25:50.255Z</time></trkpt><trkpt lat="46.1775517" lon="12.1472573"><ele>957.0</ele><time>2026-05-01T14:25:52.267Z</time></trkpt><trkpt lat="46.1774773" lon="12.1472721"><ele>957.0</ele><time>2026-05-01T14:25:53.266Z</time></trkpt><trkpt lat="46.1774018" lon="12.1472735"><ele>957.0</ele><time>2026-05-01T14:25:54.266Z</time></trkpt><trkpt lat="46.1773292" lon="12.1472689"><ele>957.0</ele><time>2026-05-01T14:25:55.266Z</time></trkpt><trkpt lat="46.1772562" lon="12.1472538"><ele>957.0</ele><time>2026-05-01T14:25:56.266Z</time></trkpt><trkpt lat="46.1771887" lon="12.1472353"><ele>952.8333333333334</ele><time>2026-05-01T14:25:57.265Z</time></trkpt><trkpt lat="46.1770742" lon="12.1471463"><ele>948.6666666666667</ele><time>2026-05-01T14:25:59.266Z</time></trkpt><trkpt lat="46.1770156" lon="12.1470775"><ele>944.5</ele><time>2026-05-01T14:26:00.266Z</time></trkpt><trkpt lat="46.1769721" lon="12.1469859"><ele>940.3333333333334</ele><time>2026-05-01T14:26:01.268Z</time></trkpt><trkpt lat="46.1769362" lon="12.1469017"><ele>936.1666666666667</ele><time>2026-05-01T14:26:02.265Z</time></trkpt><trkpt lat="46.1768867" lon="12.1468327"><ele>932.0</ele><time>2026-05-01T14:26:03.26Z</time></trkpt><trkpt lat="46.1768222" lon="12.1467893"><ele>932.0000000000001</ele><time>2026-05-01T14:26:04.265Z</time></trkpt><trkpt lat="46.176761" lon="12.146756"><ele>932.0</ele><time>2026-05-01T14:26:05.26Z</time></trkpt><trkpt lat="46.176648" lon="12.1466988"><ele>932.0</ele><time>2026-05-01T14:26:07.256Z</time></trkpt><trkpt lat="46.1765476" lon="12.1466552"><ele>932.0</ele><time>2026-05-01T14:26:09.264Z</time></trkpt><trkpt lat="46.1764829" lon="12.1466663"><ele>932.0000000000001</ele><time>2026-05-01T14:26:10.256Z</time></trkpt><trkpt lat="46.1764026" lon="12.1467222"><ele>932.0</ele><time>2026-05-01T14:26:12.26Z</time></trkpt><trkpt lat="46.176331" lon="12.146831"><ele>931.4000000000001</ele><time>2026-05-01T14:26:14.256Z</time></trkpt><trkpt lat="46.1762387" lon="12.146902"><ele>930.8000000000001</ele><time>2026-05-01T14:26:16.266Z</time></trkpt><trkpt lat="46.1761234" lon="12.1468736"><ele>930.2</ele><time>2026-05-01T14:26:18.266Z</time></trkpt><trkpt lat="46.1760147" lon="12.1469175"><ele>929.6</ele><time>2026-05-01T14:26:20.258Z</time></trkpt><trkpt lat="46.1759522" lon="12.146943"><ele>929.0</ele><time>2026-05-01T14:26:21.393Z</time></trkpt><trkpt lat="46.1758362" lon="12.1469753"><ele>929.0000000000001</ele><time>2026-05-01T14:26:23.266Z</time></trkpt><trkpt lat="46.1757701" lon="12.1469947"><ele>929.0</ele><time>2026-05-01T14:26:24.266Z</time></trkpt><trkpt lat="46.1756627" lon="12.147052"><ele>929.0</ele><time>2026-05-01T14:26:26.257Z</time></trkpt><trkpt lat="46.1755454" lon="12.1471273"><ele>929.0</ele><time>2026-05-01T14:26:28.256Z</time></trkpt><trkpt lat="46.1754841" lon="12.1471624"><ele>929.0000000000001</ele><time>2026-05-01T14:26:29.265Z</time></trkpt><trkpt lat="46.1754118" lon="12.1471495"><ele>929.0</ele><time>2026-05-01T14:26:30.266Z</time></trkpt><trkpt lat="46.1753392" lon="12.1471444"><ele>927.8333333333334</ele><time>2026-05-01T14:26:31.266Z</time></trkpt><trkpt lat="46.1752651" lon="12.1471568"><ele>926.6666666666667</ele><time>2026-05-01T14:26:32.266Z</time></trkpt><trkpt lat="46.1751733" lon="12.147218"><ele>925.5</ele><time>2026-05-01T14:26:33.259Z</time></trkpt><trkpt lat="46.1751113" lon="12.1472652"><ele>924.3333333333333</ele><time>2026-05-01T14:26:34.263Z</time></trkpt><trkpt lat="46.1750476" lon="12.1473006"><ele>923.1666666666666</ele><time>2026-05-01T14:26:35.259Z</time></trkpt><trkpt lat="46.1749832" lon="12.1473399"><ele>922.0</ele><time>2026-05-01T14:26:36.266Z</time></trkpt><trkpt lat="46.174911" lon="12.1473535"><ele>918.0</ele><time>2026-05-01T14:26:37.266Z</time></trkpt><trkpt lat="46.1748355" lon="12.1473757"><ele>914.0</ele><time>2026-05-01T14:26:38.256Z</time></trkpt><trkpt lat="46.1747783" lon="12.1473186"><ele>910.0</ele><time>2026-05-01T14:26:39.257Z</time></trkpt><trkpt lat="46.1747058" lon="12.1473017"><ele>906.0</ele><time>2026-05-01T14:26:40.257Z</time></trkpt><trkpt lat="46.1745885" lon="12.1472532"><ele>902.0</ele><time>2026-05-01T14:26:42.255Z</time></trkpt><trkpt lat="46.1744861" lon="12.1472058"><ele>902.0</ele><time>2026-05-01T14:26:44.258Z</time></trkpt><trkpt lat="46.1743805" lon="12.1471417"><ele>902.0</ele><time>2026-05-01T14:26:46.26Z</time></trkpt><trkpt lat="46.1742622" lon="12.1470857"><ele>902.0</ele><time>2026-05-01T14:26:48.259Z</time></trkpt><trkpt lat="46.1741856" lon="12.1470583"><ele>902.0</ele><time>2026-05-01T14:26:49.253Z</time></trkpt><trkpt lat="46.1741175" lon="12.147017"><ele>902.0</ele><time>2026-05-01T14:26:50.264Z</time></trkpt><trkpt lat="46.1740499" lon="12.1469903"><ele>899.3333333333334</ele><time>2026-05-01T14:26:51.254Z</time></trkpt><trkpt lat="46.1739783" lon="12.1469621"><ele>896.6666666666667</ele><time>2026-05-01T14:26:52.258Z</time></trkpt><trkpt lat="46.1739109" lon="12.146931"><ele>894.0</ele><time>2026-05-01T14:26:53.253Z</time></trkpt><trkpt lat="46.1738384" lon="12.1468788"><ele>891.3333333333333</ele><time>2026-05-01T14:26:54.256Z</time></trkpt><trkpt lat="46.1737649" lon="12.1468439"><ele>888.6666666666666</ele><time>2026-05-01T14:26:55.255Z</time></trkpt><trkpt lat="46.1736848" lon="12.1468147"><ele>886.0</ele><time>2026-05-01T14:26:56.255Z</time></trkpt><trkpt lat="46.1736136" lon="12.1467764"><ele>885.9999999999999</ele><time>2026-05-01T14:26:57.256Z</time></trkpt><trkpt lat="46.1735405" lon="12.1467425"><ele>886.0</ele><time>2026-05-01T14:26:58.256Z</time></trkpt><trkpt lat="46.1734747" lon="12.1467425"><ele>886.0</ele><time>2026-05-01T14:26:59.256Z</time></trkpt><trkpt lat="46.1733928" lon="12.1467217"><ele>886.0</ele><time>2026-05-01T14:27:00.254Z</time></trkpt><trkpt lat="46.1733118" lon="12.1467091"><ele>885.9999999999999</ele><time>2026-05-01T14:27:01.257Z</time></trkpt><trkpt lat="46.1732029" lon="12.146715"><ele>886.0</ele><time>2026-05-01T14:27:02.256Z</time></trkpt><trkpt lat="46.1730931" lon="12.1467217"><ele>883.0</ele><time>2026-05-01T14:27:03.254Z</time></trkpt><trkpt lat="46.172991" lon="12.1467254"><ele>880.0</ele><time>2026-05-01T14:27:04.257Z</time></trkpt><trkpt lat="46.1728764" lon="12.1467472"><ele>877.0</ele><time>2026-05-01T14:27:05.253Z</time></trkpt><trkpt lat="46.1727572" lon="12.1467558"><ele>874.0</ele><time>2026-05-01T14:27:06.255Z</time></trkpt><trkpt lat="46.17264" lon="12.1467708"><ele>874.0</ele><time>2026-05-01T14:27:07.267Z</time></trkpt><trkpt lat="46.1725372" lon="12.1467847"><ele>874.0000000000001</ele><time>2026-05-01T14:27:08.258Z</time></trkpt><trkpt lat="46.1724369" lon="12.1468014"><ele>874.0000000000001</ele><time>2026-05-01T14:27:09.266Z</time></trkpt><trkpt lat="46.1723606" lon="12.1468264"><ele>874.0</ele><time>2026-05-01T14:27:10.27Z</time></trkpt><trkpt lat="46.1722756" lon="12.146849"><ele>874.0</ele><time>2026-05-01T14:27:11.263Z</time></trkpt><trkpt lat="46.1721895" lon="12.1468603"><ele>871.1666666666666</ele><time>2026-05-01T14:27:12.265Z</time></trkpt><trkpt lat="46.1720978" lon="12.1468559"><ele>868.3333333333333</ele><time>2026-05-01T14:27:13.266Z</time></trkpt><trkpt lat="46.1720057" lon="12.1468399"><ele>865.5</ele><time>2026-05-01T14:27:14.266Z</time></trkpt><trkpt lat="46.1719329" lon="12.1468135"><ele>862.6666666666667</ele><time>2026-05-01T14:27:15.261Z</time></trkpt><trkpt lat="46.1718605" lon="12.1467855"><ele>859.8333333333334</ele><time>2026-05-01T14:27:16.271Z</time></trkpt><trkpt lat="46.1717931" lon="12.146751"><ele>857.0</ele><time>2026-05-01T14:27:17.256Z</time></trkpt><trkpt lat="46.1717229" lon="12.146704"><ele>857.0000000000001</ele><time>2026-05-01T14:27:18.254Z</time></trkpt><trkpt lat="46.1716408" lon="12.1466576"><ele>857.0</ele><time>2026-05-01T14:27:19.252Z</time></trkpt><trkpt lat="46.1715621" lon="12.1466012"><ele>857.0</ele><time>2026-05-01T14:27:20.254Z</time></trkpt><trkpt lat="46.1714484" lon="12.1465323"><ele>857.0</ele><time>2026-05-01T14:27:22.257Z</time></trkpt><trkpt lat="46.1713816" lon="12.1465181"><ele>857.0000000000001</ele><time>2026-05-01T14:27:24.256Z</time></trkpt><trkpt lat="46.1713085" lon="12.1465002"><ele>857.0</ele><time>2026-05-01T14:27:26.258Z</time></trkpt><trkpt lat="46.1712225" lon="12.1464912"><ele>855.8333333333334</ele><time>2026-05-01T14:27:28.26Z</time></trkpt><trkpt lat="46.1711189" lon="12.1465053"><ele>854.6666666666667</ele><time>2026-05-01T14:27:32.256Z</time></trkpt><trkpt lat="46.1710551" lon="12.1465147"><ele>853.5</ele><time>2026-05-01T14:27:35.266Z</time></trkpt><trkpt lat="46.1709717" lon="12.1465162"><ele>852.3333333333333</ele><time>2026-05-01T14:27:38.265Z</time></trkpt><trkpt lat="46.1709086" lon="12.1464931"><ele>851.1666666666666</ele><time>2026-05-01T14:27:40.262Z</time></trkpt><trkpt lat="46.1708271" lon="12.1464394"><ele>850.0</ele><time>2026-05-01T14:27:43.265Z</time></trkpt><trkpt lat="46.1707653" lon="12.1463866"><ele>849.9999999999999</ele><time>2026-05-01T14:27:52.257Z</time></trkpt><trkpt lat="46.1707769" lon="12.1462819"><ele>850.0</ele><time>2026-05-01T14:27:57.257Z</time></trkpt><trkpt lat="46.1707263" lon="12.1461768"><ele>850.0</ele><time>2026-05-01T14:28:01.258Z</time></trkpt><trkpt lat="46.1706826" lon="12.1460993"><ele>850.0</ele><time>2026-05-01T14:28:03.258Z</time></trkpt><trkpt lat="46.1706344" lon="12.1460115"><ele>849.9999999999999</ele><time>2026-05-01T14:28:05.265Z</time></trkpt><trkpt lat="46.1705838" lon="12.1459274"><ele>850.0</ele><time>2026-05-01T14:28:07.266Z</time></trkpt><trkpt lat="46.1705347" lon="12.1458509"><ele>849.6666666666666</ele><time>2026-05-01T14:28:09.256Z</time></trkpt><trkpt lat="46.1704709" lon="12.1457866"><ele>849.3333333333333</ele><time>2026-05-01T14:28:11.267Z</time></trkpt><trkpt lat="46.1704115" lon="12.1457447"><ele>849.0</ele><time>2026-05-01T14:28:13.267Z</time></trkpt><trkpt lat="46.170345" lon="12.145706"><ele>848.6666666666667</ele><time>2026-05-01T14:28:15.26Z</time></trkpt><trkpt lat="46.1702605" lon="12.1456643"><ele>848.3333333333334</ele><time>2026-05-01T14:28:18.261Z</time></trkpt><trkpt lat="46.1702013" lon="12.1455925"><ele>848.0</ele><time>2026-05-01T14:28:20.259Z</time></trkpt><trkpt lat="46.1701441" lon="12.1455287"><ele>848.0000000000001</ele><time>2026-05-01T14:28:22.262Z</time></trkpt><trkpt lat="46.1700953" lon="12.1454645"><ele>848.0</ele><time>2026-05-01T14:28:24.268Z</time></trkpt><trkpt lat="46.1700562" lon="12.1453686"><ele>848.0</ele><time>2026-05-01T14:28:26.26Z</time></trkpt><trkpt lat="46.1699889" lon="12.1452856"><ele>848.0</ele><time>2026-05-01T14:28:28.259Z</time></trkpt><trkpt lat="46.1699194" lon="12.1452164"><ele>848.0000000000001</ele><time>2026-05-01T14:28:30.269Z</time></trkpt><trkpt lat="46.1698549" lon="12.1451556"><ele>848.0</ele><time>2026-05-01T14:28:32.266Z</time></trkpt><trkpt lat="46.1697952" lon="12.1451084"><ele>846.3333333333334</ele><time>2026-05-01T14:28:34.268Z</time></trkpt><trkpt lat="46.1697315" lon="12.1451187"><ele>844.6666666666667</ele><time>2026-05-01T14:28:36.258Z</time></trkpt><trkpt lat="46.1696547" lon="12.1451709"><ele>843.0</ele><time>2026-05-01T14:28:39.257Z</time></trkpt><trkpt lat="46.1695816" lon="12.1451851"><ele>841.3333333333333</ele><time>2026-05-01T14:28:41.256Z</time></trkpt><trkpt lat="46.1694792" lon="12.1451793"><ele>839.6666666666666</ele><time>2026-05-01T14:28:43.258Z</time></trkpt><trkpt lat="46.1693853" lon="12.1451502"><ele>838.0</ele><time>2026-05-01T14:28:45.265Z</time></trkpt><trkpt lat="46.1693167" lon="12.1451114"><ele>837.9999999999999</ele><time>2026-05-01T14:28:47.265Z</time></trkpt><trkpt lat="46.1692565" lon="12.1450678"><ele>838.0</ele><time>2026-05-01T14:28:49.258Z</time></trkpt><trkpt lat="46.1691773" lon="12.145031"><ele>838.0</ele><time>2026-05-01T14:28:51.366Z</time></trkpt><trkpt lat="46.1691141" lon="12.1449677"><ele>838.0</ele><time>2026-05-01T14:28:53.254Z</time></trkpt><trkpt lat="46.1690499" lon="12.144894"><ele>837.9999999999999</ele><time>2026-05-01T14:28:55.257Z</time></trkpt><trkpt lat="46.1689775" lon="12.1448389"><ele>838.0</ele><time>2026-05-01T14:28:57.264Z</time></trkpt><trkpt lat="46.1688931" lon="12.1448228"><ele>836.9999999999999</ele><time>2026-05-01T14:28:59.263Z</time></trkpt><trkpt lat="46.1688164" lon="12.1448216"><ele>836.0</ele><time>2026-05-01T14:29:01.279Z</time></trkpt><trkpt lat="46.1687535" lon="12.1448568"><ele>835.0</ele><time>2026-05-01T14:29:04.256Z</time></trkpt><trkpt lat="46.168678" lon="12.14484"><ele>834.0</ele><time>2026-05-01T14:29:09.264Z</time></trkpt><trkpt lat="46.1686118" lon="12.1447925"><ele>833.0</ele><time>2026-05-01T14:29:20.262Z</time></trkpt><trkpt lat="46.1685451" lon="12.1448213"><ele>831.9999999999999</ele><time>2026-05-01T14:29:23.269Z</time></trkpt><trkpt lat="46.1684749" lon="12.1448636"><ele>831.0</ele><time>2026-05-01T14:29:26.27Z</time></trkpt><trkpt lat="46.1684181" lon="12.144905"><ele>831.0</ele><time>2026-05-01T14:29:28.267Z</time></trkpt><trkpt lat="46.1683289" lon="12.1449135"><ele>831.0</ele><time>2026-05-01T14:29:32.283Z</time></trkpt><trkpt lat="46.1682564" lon="12.144841"><ele>831.0</ele><time>2026-05-01T14:29:35.27Z</time></trkpt><trkpt lat="46.1681874" lon="12.1448579"><ele>831.0</ele><time>2026-05-01T14:29:37.262Z</time></trkpt><trkpt lat="46.1681172" lon="12.14481"><ele>831.0</ele><time>2026-05-01T14:29:41.256Z</time></trkpt><trkpt lat="46.1680686" lon="12.1447488"><ele>831.0</ele><time>2026-05-01T14:29:44.259Z</time></trkpt><trkpt lat="46.1680197" lon="12.1446669"><ele>827.8</ele><time>2026-05-01T14:29:48.256Z</time></trkpt><trkpt lat="46.1679678" lon="12.1445973"><ele>824.5999999999999</ele><time>2026-05-01T14:29:52.27Z</time></trkpt><trkpt lat="46.1679227" lon="12.1445156"><ele>821.4</ele><time>2026-05-01T14:29:57.269Z</time></trkpt><trkpt lat="46.167871" lon="12.144414"><ele>818.2</ele><time>2026-05-01T14:30:00.268Z</time></trkpt><trkpt lat="46.1678602" lon="12.1441133"><ele>815.0</ele><time>2026-05-01T14:30:01.265Z</time></trkpt><trkpt lat="46.167803" lon="12.144051"><ele>810.5000000000001</ele><time>2026-05-01T14:30:06.266Z</time></trkpt><trkpt lat="46.1677467" lon="12.1439766"><ele>806.0</ele><time>2026-05-01T14:30:11.267Z</time></trkpt><trkpt lat="46.1676916" lon="12.1438953"><ele>801.5</ele><time>2026-05-01T14:30:15.276Z</time></trkpt><trkpt lat="46.1676317" lon="12.1438615"><ele>797.0</ele><time>2026-05-01T14:30:48.258Z</time></trkpt><trkpt lat="46.1675638" lon="12.1438908"><ele>792.5000000000001</ele><time>2026-05-01T14:31:03.26Z</time></trkpt><trkpt lat="46.1674983" lon="12.143833"><ele>788.0</ele><time>2026-05-01T14:31:07.273Z</time></trkpt><trkpt lat="46.1674316" lon="12.1437524"><ele>788.0</ele><time>2026-05-01T14:31:11.275Z</time></trkpt><trkpt lat="46.1673642" lon="12.1437027"><ele>788.0</ele><time>2026-05-01T14:31:15.258Z</time></trkpt><trkpt lat="46.1673491" lon="12.1436109"><ele>788.0</ele><time>2026-05-01T14:31:36.277Z</time></trkpt><trkpt lat="46.1672806" lon="12.143603"><ele>788.0</ele><time>2026-05-01T14:31:42.268Z</time></trkpt><trkpt lat="46.1672374" lon="12.1436718"><ele>788.0</ele><time>2026-05-01T14:31:46.258Z</time></trkpt><trkpt lat="46.1671897" lon="12.1437441"><ele>788.0</ele><time>2026-05-01T14:31:50.268Z</time></trkpt><trkpt lat="46.1671403" lon="12.1438049"><ele>788.0</ele><time>2026-05-01T14:31:53.27Z</time></trkpt><trkpt lat="46.1670795" lon="12.1437459"><ele>785.8571428571429</ele><time>2026-05-01T14:32:28.281Z</time></trkpt><trkpt lat="46.1670044" lon="12.1437277"><ele>783.7142857142858</ele><time>2026-05-01T14:32:32.267Z</time></trkpt><trkpt lat="46.1669368" lon="12.143725"><ele>781.5714285714286</ele><time>2026-05-01T14:32:36.265Z</time></trkpt><trkpt lat="46.1668647" lon="12.1437361"><ele>779.4285714285714</ele><time>2026-05-01T14:32:44.262Z</time></trkpt><trkpt lat="46.1667898" lon="12.1437628"><ele>777.2857142857142</ele><time>2026-05-01T14:32:47.259Z</time></trkpt><trkpt lat="46.1667395" lon="12.1438395"><ele>775.1428571428571</ele><time>2026-05-01T14:32:51.255Z</time></trkpt><trkpt lat="46.1667026" lon="12.1439241"><ele>773.0</ele><time>2026-05-01T14:33:32.262Z</time></trkpt><trkpt lat="46.1666583" lon="12.143992"><ele>775.1666666666667</ele><time>2026-05-01T14:33:37.264Z</time></trkpt><trkpt lat="46.1666235" lon="12.1440934"><ele>777.3333333333334</ele><time>2026-05-01T14:33:42.256Z</time></trkpt><trkpt lat="46.1665981" lon="12.1441919"><ele>779.5</ele><time>2026-05-01T14:33:46.272Z</time></trkpt><trkpt lat="46.1665661" lon="12.1442906"><ele>781.6666666666667</ele><time>2026-05-01T14:33:51.257Z</time></trkpt><trkpt lat="46.1665566" lon="12.1443985"><ele>783.8333333333334</ele><time>2026-05-01T14:33:56.263Z</time></trkpt><trkpt lat="46.1665462" lon="12.1445001"><ele>786.0</ele><time>2026-05-01T14:34:01.264Z</time></trkpt><trkpt lat="46.1662585" lon="12.1461835"><ele>779.0</ele><time>2026-05-01T14:34:04.258Z</time></trkpt><trkpt lat="46.1662776" lon="12.1463333"><ele>772.0</ele><time>2026-05-01T14:34:06.275Z</time></trkpt><trkpt lat="46.1662853" lon="12.1464828"><ele>765.0</ele><time>2026-05-01T14:34:08.262Z</time></trkpt><trkpt lat="46.1663411" lon="12.1466281"><ele>758.0</ele><time>2026-05-01T14:34:10.266Z</time></trkpt><trkpt lat="46.1663756" lon="12.1467105"><ele>751.0</ele><time>2026-05-01T14:34:11.266Z</time></trkpt><trkpt lat="46.1664148" lon="12.146796"><ele>750.5714285714287</ele><time>2026-05-01T14:34:12.261Z</time></trkpt><trkpt lat="46.1664514" lon="12.1468891"><ele>750.1428571428571</ele><time>2026-05-01T14:34:13.267Z</time></trkpt><trkpt lat="46.1664885" lon="12.1469908"><ele>749.7142857142858</ele><time>2026-05-01T14:34:14.291Z</time></trkpt><trkpt lat="46.1665203" lon="12.1470914"><ele>749.2857142857143</ele><time>2026-05-01T14:34:15.266Z</time></trkpt><trkpt lat="46.1665502" lon="12.147195"><ele>748.8571428571429</ele><time>2026-05-01T14:34:16.285Z</time></trkpt><trkpt lat="46.1665774" lon="12.1472914"><ele>748.4285714285714</ele><time>2026-05-01T14:34:17.262Z</time></trkpt><trkpt lat="46.1666184" lon="12.1473714"><ele>748.0</ele><time>2026-05-01T14:34:18.266Z</time></trkpt><trkpt lat="46.1666593" lon="12.1474468"><ele>749.3333333333334</ele><time>2026-05-01T14:34:19.266Z</time></trkpt><trkpt lat="46.1666941" lon="12.14753"><ele>750.6666666666667</ele><time>2026-05-01T14:34:20.266Z</time></trkpt><trkpt lat="46.1667521" lon="12.1476819"><ele>752.0</ele><time>2026-05-01T14:34:22.266Z</time></trkpt><trkpt lat="46.1667831" lon="12.1477617"><ele>753.3333333333334</ele><time>2026-05-01T14:34:23.256Z</time></trkpt><trkpt lat="46.1668058" lon="12.1478492"><ele>754.6666666666666</ele><time>2026-05-01T14:34:24.259Z</time></trkpt><trkpt lat="46.1668406" lon="12.1479803"><ele>756.0</ele><time>2026-05-01T14:34:26.267Z</time></trkpt><trkpt lat="46.1668638" lon="12.1480854"><ele>756.0</ele><time>2026-05-01T14:34:29.257Z</time></trkpt><trkpt lat="46.166822" lon="12.1481657"><ele>756.0</ele><time>2026-05-01T14:34:35.271Z</time></trkpt><trkpt lat="46.1667595" lon="12.1482236"><ele>756.0</ele><time>2026-05-01T14:34:39.26Z</time></trkpt><trkpt lat="46.166719" lon="12.1483103"><ele>756.0</ele><time>2026-05-01T14:34:54.261Z</time></trkpt><trkpt lat="46.1667026" lon="12.1483988"><ele>756.0</ele><time>2026-05-01T14:35:57.262Z</time></trkpt><trkpt lat="46.1666666" lon="12.1485153"><ele>756.0</ele><time>2026-05-01T14:35:59.287Z</time></trkpt><trkpt lat="46.1666393" lon="12.1486728"><ele>755.0</ele><time>2026-05-01T14:36:01.263Z</time></trkpt><trkpt lat="46.1666176" lon="12.1488283"><ele>754.0</ele><time>2026-05-01T14:36:03.269Z</time></trkpt><trkpt lat="46.1665442" lon="12.1489409"><ele>753.0</ele><time>2026-05-01T14:36:05.269Z</time></trkpt><trkpt lat="46.1664868" lon="12.148994"><ele>752.0</ele><time>2026-05-01T14:36:06.267Z</time></trkpt><trkpt lat="46.1664301" lon="12.1490593"><ele>751.0</ele><time>2026-05-01T14:36:07.26Z</time></trkpt><trkpt lat="46.1663676" lon="12.1491191"><ele>750.0</ele><time>2026-05-01T14:36:08.263Z</time></trkpt><trkpt lat="46.1663026" lon="12.1491693"><ele>747.1666666666666</ele><time>2026-05-01T14:36:09.269Z</time></trkpt><trkpt lat="46.1662314" lon="12.1492031"><ele>744.3333333333334</ele><time>2026-05-01T14:36:10.268Z</time></trkpt><trkpt lat="46.1661476" lon="12.1492254"><ele>741.5</ele><time>2026-05-01T14:36:11.269Z</time></trkpt><trkpt lat="46.1660565" lon="12.1492431"><ele>738.6666666666667</ele><time>2026-05-01T14:36:12.269Z</time></trkpt><trkpt lat="46.1659731" lon="12.1492685"><ele>735.8333333333334</ele><time>2026-05-01T14:36:13.264Z</time></trkpt><trkpt lat="46.165891" lon="12.1492861"><ele>733.0</ele><time>2026-05-01T14:36:14.267Z</time></trkpt><trkpt lat="46.1658205" lon="12.1493004"><ele>732.9999999999999</ele><time>2026-05-01T14:36:15.27Z</time></trkpt><trkpt lat="46.165748" lon="12.1493193"><ele>733.0</ele><time>2026-05-01T14:36:16.268Z</time></trkpt><trkpt lat="46.1656733" lon="12.1493418"><ele>733.0</ele><time>2026-05-01T14:36:17.268Z</time></trkpt><trkpt lat="46.1656099" lon="12.1493214"><ele>733.0</ele><time>2026-05-01T14:36:18.272Z</time></trkpt><trkpt lat="46.165549" lon="12.1492789"><ele>733.0</ele><time>2026-05-01T14:36:19.264Z</time></trkpt><trkpt lat="46.1654933" lon="12.1492113"><ele>732.9999999999999</ele><time>2026-05-01T14:36:20.26Z</time></trkpt><trkpt lat="46.1654347" lon="12.1491641"><ele>733.0</ele><time>2026-05-01T14:36:21.258Z</time></trkpt><trkpt lat="46.1653708" lon="12.1491414"><ele>730.8333333333334</ele><time>2026-05-01T14:36:22.258Z</time></trkpt><trkpt lat="46.1652967" lon="12.1491443"><ele>728.6666666666667</ele><time>2026-05-01T14:36:23.257Z</time></trkpt><trkpt lat="46.165214" lon="12.1491652"><ele>726.5</ele><time>2026-05-01T14:36:24.264Z</time></trkpt><trkpt lat="46.1651258" lon="12.1491996"><ele>724.3333333333334</ele><time>2026-05-01T14:36:25.257Z</time></trkpt><trkpt lat="46.1650398" lon="12.1492439"><ele>722.1666666666666</ele><time>2026-05-01T14:36:26.259Z</time></trkpt><trkpt lat="46.1649684" lon="12.1493003"><ele>720.0</ele><time>2026-05-01T14:36:27.257Z</time></trkpt><trkpt lat="46.1649145" lon="12.1493522"><ele>720.0</ele><time>2026-05-01T14:36:28.261Z</time></trkpt><trkpt lat="46.1648526" lon="12.1494262"><ele>720.0</ele><time>2026-05-01T14:36:30.257Z</time></trkpt><trkpt lat="46.1648216" lon="12.149343"><ele>720.0</ele><time>2026-05-01T14:36:34.259Z</time></trkpt><trkpt lat="46.1648543" lon="12.1492292"><ele>720.0</ele><time>2026-05-01T14:36:38.258Z</time></trkpt><trkpt lat="46.1648698" lon="12.1491155"><ele>720.0</ele><time>2026-05-01T14:36:41.267Z</time></trkpt><trkpt lat="46.164882" lon="12.1490244"><ele>720.0</ele><time>2026-05-01T14:36:43.273Z</time></trkpt><trkpt lat="46.1649034" lon="12.1489119"><ele>720.3333333333334</ele><time>2026-05-01T14:36:46.259Z</time></trkpt><trkpt lat="46.164924" lon="12.1488232"><ele>720.6666666666666</ele><time>2026-05-01T14:36:49.261Z</time></trkpt><trkpt lat="46.1649815" lon="12.1487217"><ele>721.0</ele><time>2026-05-01T14:36:52.258Z</time></trkpt><trkpt lat="46.1650343" lon="12.1486305"><ele>721.3333333333333</ele><time>2026-05-01T14:36:55.256Z</time></trkpt><trkpt lat="46.1650667" lon="12.1485108"><ele>721.6666666666666</ele><time>2026-05-01T14:36:59.256Z</time></trkpt><trkpt lat="46.1650999" lon="12.1484234"><ele>722.0</ele><time>2026-05-01T14:37:02.264Z</time></trkpt><trkpt lat="46.1651137" lon="12.1483242"><ele>722.0</ele><time>2026-05-01T14:37:05.259Z</time></trkpt><trkpt lat="46.1651315" lon="12.1482122"><ele>722.0</ele><time>2026-05-01T14:37:08.255Z</time></trkpt><trkpt lat="46.1651527" lon="12.1480821"><ele>722.0</ele><time>2026-05-01T14:37:11.266Z</time></trkpt><trkpt lat="46.1651755" lon="12.1479587"><ele>722.0</ele><time>2026-05-01T14:37:14.259Z</time></trkpt><trkpt lat="46.1652025" lon="12.1478394"><ele>722.0</ele><time>2026-05-01T14:37:17.261Z</time></trkpt><trkpt lat="46.1652235" lon="12.1477381"><ele>722.0</ele><time>2026-05-01T14:37:20.269Z</time></trkpt><trkpt lat="46.1652409" lon="12.147636"><ele>722.0</ele><time>2026-05-01T14:37:23.266Z</time></trkpt><trkpt lat="46.1652567" lon="12.1475159"><ele>722.0</ele><time>2026-05-01T14:37:26.267Z</time></trkpt><trkpt lat="46.1652636" lon="12.1474241"><ele>722.0</ele><time>2026-05-01T14:37:28.252Z</time></trkpt><trkpt lat="46.1652644" lon="12.147326"><ele>722.0</ele><time>2026-05-01T14:37:30.263Z</time></trkpt><trkpt lat="46.1652684" lon="12.147233"><ele>722.0</ele><time>2026-05-01T14:37:32.258Z</time></trkpt><trkpt lat="46.1652751" lon="12.1471392"><ele>722.0</ele><time>2026-05-01T14:37:34.262Z</time></trkpt><trkpt lat="46.165283" lon="12.1470475"><ele>722.0</ele><time>2026-05-01T14:37:36.259Z</time></trkpt><trkpt lat="46.1652973" lon="12.1469185"><ele>722.5</ele><time>2026-05-01T14:37:39.258Z</time></trkpt><trkpt lat="46.1653134" lon="12.1467955"><ele>723.0</ele><time>2026-05-01T14:37:42.261Z</time></trkpt><trkpt lat="46.1653382" lon="12.1466812"><ele>723.5</ele><time>2026-05-01T14:37:45.256Z</time></trkpt><trkpt lat="46.165371" lon="12.1465777"><ele>724.0</ele><time>2026-05-01T14:37:48.285Z</time></trkpt><trkpt lat="46.1654135" lon="12.1464883"><ele>724.5</ele><time>2026-05-01T14:37:51.258Z</time></trkpt><trkpt lat="46.1654447" lon="12.1463838"><ele>725.0</ele><time>2026-05-01T14:37:54.259Z</time></trkpt><trkpt lat="46.1654765" lon="12.1462748"><ele>725.0</ele><time>2026-05-01T14:37:57.258Z</time></trkpt><trkpt lat="46.1655053" lon="12.1461664"><ele>725.0</ele><time>2026-05-01T14:38:00.256Z</time></trkpt><trkpt lat="46.1655356" lon="12.1460577"><ele>725.0</ele><time>2026-05-01T14:38:03.27Z</time></trkpt><trkpt lat="46.1655502" lon="12.145946"><ele>725.0</ele><time>2026-05-01T14:38:06.265Z</time></trkpt><trkpt lat="46.1655651" lon="12.1458306"><ele>725.0</ele><time>2026-05-01T14:38:09.263Z</time></trkpt><trkpt lat="46.1655671" lon="12.1457142"><ele>725.0</ele><time>2026-05-01T14:38:12.26Z</time></trkpt><trkpt lat="46.1655593" lon="12.1456031"><ele>723.8333333333333</ele><time>2026-05-01T14:38:15.26Z</time></trkpt><trkpt lat="46.1655742" lon="12.1455011"><ele>722.6666666666666</ele><time>2026-05-01T14:38:18.264Z</time></trkpt><trkpt lat="46.1655968" lon="12.1454059"><ele>721.5</ele><time>2026-05-01T14:38:21.263Z</time></trkpt><trkpt lat="46.1656277" lon="12.1453037"><ele>720.3333333333334</ele><time>2026-05-01T14:38:24.269Z</time></trkpt><trkpt lat="46.165663" lon="12.1452011"><ele>719.1666666666667</ele><time>2026-05-01T14:38:27.266Z</time></trkpt><trkpt lat="46.1656953" lon="12.1450892"><ele>718.0</ele><time>2026-05-01T14:38:30.268Z</time></trkpt><trkpt lat="46.1657138" lon="12.1449815"><ele>717.1428571428571</ele><time>2026-05-01T14:38:33.267Z</time></trkpt><trkpt lat="46.1657243" lon="12.1448641"><ele>716.2857142857143</ele><time>2026-05-01T14:38:36.263Z</time></trkpt><trkpt lat="46.1657098" lon="12.1447575"><ele>715.4285714285713</ele><time>2026-05-01T14:38:39.271Z</time></trkpt><trkpt lat="46.1656784" lon="12.1446492"><ele>714.5714285714286</ele><time>2026-05-01T14:38:42.26Z</time></trkpt><trkpt lat="46.1656863" lon="12.1445405"><ele>713.7142857142857</ele><time>2026-05-01T14:38:45.267Z</time></trkpt><trkpt lat="46.165713" lon="12.1444519"><ele>712.8571428571428</ele><time>2026-05-01T14:38:48.258Z</time></trkpt><trkpt lat="46.165747" lon="12.1443699"><ele>712.0</ele><time>2026-05-01T14:38:51.379Z</time></trkpt><trkpt lat="46.1657857" lon="12.1442958"><ele>716.8333333333334</ele><time>2026-05-01T14:38:54.268Z</time></trkpt><trkpt lat="46.1658297" lon="12.144197"><ele>721.6666666666667</ele><time>2026-05-01T14:38:58.265Z</time></trkpt><trkpt lat="46.1658694" lon="12.1441108"><ele>726.5</ele><time>2026-05-01T14:39:01.271Z</time></trkpt><trkpt lat="46.1659005" lon="12.1440225"><ele>731.3333333333334</ele><time>2026-05-01T14:39:04.268Z</time></trkpt><trkpt lat="46.1659238" lon="12.1439321"><ele>736.1666666666666</ele><time>2026-05-01T14:39:07.266Z</time></trkpt><trkpt lat="46.1659503" lon="12.143816"><ele>741.0</ele><time>2026-05-01T14:39:10.27Z</time></trkpt><trkpt lat="46.1659813" lon="12.1437011"><ele>741.0</ele><time>2026-05-01T14:39:13.271Z</time></trkpt><trkpt lat="46.166024" lon="12.1436115"><ele>741.0</ele><time>2026-05-01T14:39:16.263Z</time></trkpt><trkpt lat="46.166079" lon="12.143516"><ele>741.0</ele><time>2026-05-01T14:39:19.269Z</time></trkpt><trkpt lat="46.1661284" lon="12.1434232"><ele>741.0</ele><time>2026-05-01T14:39:22.266Z</time></trkpt><trkpt lat="46.1661772" lon="12.1433321"><ele>741.0</ele><time>2026-05-01T14:39:25.269Z</time></trkpt><trkpt lat="46.1662314" lon="12.1432426"><ele>741.0</ele><time>2026-05-01T14:39:28.26Z</time></trkpt><trkpt lat="46.1662878" lon="12.1431499"><ele>743.0</ele><time>2026-05-01T14:39:31.27Z</time></trkpt><trkpt lat="46.1663345" lon="12.1430725"><ele>745.0</ele><time>2026-05-01T14:39:34.275Z</time></trkpt><trkpt lat="46.1663697" lon="12.1429837"><ele>747.0</ele><time>2026-05-01T14:39:37.266Z</time></trkpt><trkpt lat="46.1664074" lon="12.1429064"><ele>749.0</ele><time>2026-05-01T14:39:42.269Z</time></trkpt><trkpt lat="46.1664496" lon="12.1428317"><ele>751.0</ele><time>2026-05-01T14:39:45.269Z</time></trkpt><trkpt lat="46.1665162" lon="12.142782"><ele>753.0</ele><time>2026-05-01T14:39:48.288Z</time></trkpt><trkpt lat="46.1665846" lon="12.1427755"><ele>755.0</ele><time>2026-05-01T14:39:50.258Z</time></trkpt><trkpt lat="46.1666725" lon="12.1427676"><ele>755.0</ele><time>2026-05-01T14:39:52.272Z</time></trkpt><trkpt lat="46.1667606" lon="12.1427712"><ele>755.0</ele><time>2026-05-01T14:39:54.259Z</time></trkpt><trkpt lat="46.1668549" lon="12.1427719"><ele>755.0</ele><time>2026-05-01T14:39:56.27Z</time></trkpt><trkpt lat="46.1669695" lon="12.1427474"><ele>755.0</ele><time>2026-05-01T14:39:58.268Z</time></trkpt><trkpt lat="46.1670862" lon="12.1426807"><ele>755.0</ele><time>2026-05-01T14:40:00.262Z</time></trkpt><trkpt lat="46.1671669" lon="12.1426366"><ele>755.0</ele><time>2026-05-01T14:40:03.267Z</time></trkpt><trkpt lat="46.1672407" lon="12.1426117"><ele>755.0</ele><time>2026-05-01T14:40:06.267Z</time></trkpt><trkpt lat="46.1673131" lon="12.1426221"><ele>755.0</ele><time>2026-05-01T14:40:09.265Z</time></trkpt><trkpt lat="46.1673996" lon="12.1426804"><ele>755.0</ele><time>2026-05-01T14:40:12.266Z</time></trkpt><trkpt lat="46.1674692" lon="12.1426913"><ele>755.0</ele><time>2026-05-01T14:40:13.264Z</time></trkpt><trkpt lat="46.1675449" lon="12.1427018"><ele>755.0</ele><time>2026-05-01T14:40:15.269Z</time></trkpt><trkpt lat="46.1676147" lon="12.1426697"><ele>755.4</ele><time>2026-05-01T14:40:18.266Z</time></trkpt><trkpt lat="46.1676647" lon="12.1426099"><ele>755.8</ele><time>2026-05-01T14:40:21.267Z</time></trkpt><trkpt lat="46.1677042" lon="12.1425284"><ele>756.2</ele><time>2026-05-01T14:42:08.269Z</time></trkpt><trkpt lat="46.1677551" lon="12.1425831"><ele>756.6</ele><time>2026-05-01T14:42:12.268Z</time></trkpt><trkpt lat="46.1678079" lon="12.142641"><ele>757.0</ele><time>2026-05-01T14:42:31.259Z</time></trkpt><trkpt lat="46.1687403" lon="12.1429133"><ele>757.0</ele><time>2026-05-01T14:43:06.259Z</time></trkpt><trkpt lat="46.1687786" lon="12.1428407"><ele>757.0</ele><time>2026-05-01T14:43:35.258Z</time></trkpt><trkpt lat="46.1687516" lon="12.1427195"><ele>757.0</ele><time>2026-05-01T14:43:52.267Z</time></trkpt><trkpt lat="46.1687412" lon="12.1426228"><ele>757.0</ele><time>2026-05-01T14:44:02.267Z</time></trkpt><trkpt lat="46.1687281" lon="12.1425199"><ele>757.0</ele><time>2026-05-01T14:44:26.266Z</time></trkpt><trkpt lat="46.1687033" lon="12.1424279"><ele>757.0</ele><time>2026-05-01T14:44:30.258Z</time></trkpt><trkpt lat="46.1686956" lon="12.1423225"><ele>757.0</ele><time>2026-05-01T14:44:36.262Z</time></trkpt><trkpt lat="46.1686628" lon="12.1422293"><ele>753.4285714285714</ele><time>2026-05-01T14:44:40.259Z</time></trkpt><trkpt lat="46.1686421" lon="12.1421189"><ele>749.8571428571428</ele><time>2026-05-01T14:44:48.257Z</time></trkpt><trkpt lat="46.1686278" lon="12.142004"><ele>746.2857142857142</ele><time>2026-05-01T14:44:58.269Z</time></trkpt><trkpt lat="46.1686049" lon="12.1419133"><ele>742.7142857142858</ele><time>2026-05-01T14:45:07.269Z</time></trkpt><trkpt lat="46.1685788" lon="12.1418269"><ele>739.1428571428571</ele><time>2026-05-01T14:45:16.264Z</time></trkpt><trkpt lat="46.1685931" lon="12.1417178"><ele>735.5714285714286</ele><time>2026-05-01T14:46:11.266Z</time></trkpt><trkpt lat="46.1685604" lon="12.141633"><ele>732.0</ele><time>2026-05-01T14:46:27.264Z</time></trkpt><trkpt lat="46.1685345" lon="12.1415411"><ele>729.5714285714286</ele><time>2026-05-01T14:46:32.267Z</time></trkpt><trkpt lat="46.1684877" lon="12.1414656"><ele>727.1428571428571</ele><time>2026-05-01T14:46:37.266Z</time></trkpt><trkpt lat="46.168455" lon="12.1413869"><ele>724.7142857142858</ele><time>2026-05-01T14:46:40.258Z</time></trkpt><trkpt lat="46.1683943" lon="12.1413438"><ele>722.2857142857142</ele><time>2026-05-01T14:46:44.267Z</time></trkpt><trkpt lat="46.1683763" lon="12.1412314"><ele>719.8571428571428</ele><time>2026-05-01T14:46:49.268Z</time></trkpt><trkpt lat="46.1683535" lon="12.1411374"><ele>717.4285714285714</ele><time>2026-05-01T14:46:53.266Z</time></trkpt><trkpt lat="46.1683252" lon="12.1410469"><ele>715.0</ele><time>2026-05-01T14:47:19.264Z</time></trkpt><trkpt lat="46.168288" lon="12.1409688"><ele>715.0</ele><time>2026-05-01T14:47:36.267Z</time></trkpt><trkpt lat="46.1682492" lon="12.1408952"><ele>715.0</ele><time>2026-05-01T14:47:45.264Z</time></trkpt><trkpt lat="46.1682386" lon="12.1408033"><ele>715.0</ele><time>2026-05-01T14:47:54.267Z</time></trkpt><trkpt lat="46.1681774" lon="12.1407601"><ele>715.0</ele><time>2026-05-01T14:48:12.266Z</time></trkpt><trkpt lat="46.1681421" lon="12.1406842"><ele>715.0</ele><time>2026-05-01T14:48:27.267Z</time></trkpt><trkpt lat="46.1681037" lon="12.1406065"><ele>715.0</ele><time>2026-05-01T14:48:34.269Z</time></trkpt><trkpt lat="46.1681111" lon="12.1405051"><ele>715.0</ele><time>2026-05-01T14:48:55.271Z</time></trkpt><trkpt lat="46.1680611" lon="12.1404237"><ele>708.8571428571429</ele><time>2026-05-01T14:49:00.267Z</time></trkpt><trkpt lat="46.1680116" lon="12.1403629"><ele>702.7142857142857</ele><time>2026-05-01T14:49:04.261Z</time></trkpt><trkpt lat="46.1679801" lon="12.1402655"><ele>696.5714285714286</ele><time>2026-05-01T14:49:09.261Z</time></trkpt><trkpt lat="46.1679456" lon="12.140143"><ele>690.4285714285714</ele><time>2026-05-01T14:49:12.265Z</time></trkpt><trkpt lat="46.1679161" lon="12.1400603"><ele>684.2857142857142</ele><time>2026-05-01T14:49:14.268Z</time></trkpt><trkpt lat="46.1678981" lon="12.1399496"><ele>678.1428571428571</ele><time>2026-05-01T14:49:18.274Z</time></trkpt><trkpt lat="46.1678812" lon="12.139856"><ele>672.0</ele><time>2026-05-01T14:49:22.282Z</time></trkpt><trkpt lat="46.1678471" lon="12.1397639"><ele>668.5714285714286</ele><time>2026-05-01T14:49:26.267Z</time></trkpt><trkpt lat="46.1678106" lon="12.1396823"><ele>665.1428571428571</ele><time>2026-05-01T14:49:30.258Z</time></trkpt><trkpt lat="46.1677763" lon="12.1395874"><ele>661.7142857142858</ele><time>2026-05-01T14:49:35.258Z</time></trkpt><trkpt lat="46.1677642" lon="12.1394843"><ele>658.2857142857142</ele><time>2026-05-01T14:49:39.256Z</time></trkpt><trkpt lat="46.1677349" lon="12.1393909"><ele>654.8571428571429</ele><time>2026-05-01T14:49:43.266Z</time></trkpt><trkpt lat="46.167703" lon="12.1392839"><ele>651.4285714285714</ele><time>2026-05-01T14:49:47.265Z</time></trkpt><trkpt lat="46.1676655" lon="12.1392096"><ele>648.0</ele><time>2026-05-01T14:49:50.279Z</time></trkpt><trkpt lat="46.1676016" lon="12.1391553"><ele>648.0</ele><time>2026-05-01T14:50:08.256Z</time></trkpt><trkpt lat="46.1675529" lon="12.1390795"><ele>648.0</ele><time>2026-05-01T14:50:13.26Z</time></trkpt><trkpt lat="46.1675284" lon="12.1389684"><ele>648.0</ele><time>2026-05-01T14:50:17.28Z</time></trkpt><trkpt lat="46.1674936" lon="12.1388637"><ele>648.0</ele><time>2026-05-01T14:50:20.272Z</time></trkpt><trkpt lat="46.1675194" lon="12.1387529"><ele>648.0</ele><time>2026-05-01T14:51:02.262Z</time></trkpt><trkpt lat="46.1675088" lon="12.1386557"><ele>648.0</ele><time>2026-05-01T14:51:06.267Z</time></trkpt><trkpt lat="46.1674787" lon="12.1385671"><ele>645.1428571428571</ele><time>2026-05-01T14:51:11.259Z</time></trkpt><trkpt lat="46.1674431" lon="12.1384808"><ele>642.2857142857142</ele><time>2026-05-01T14:51:15.259Z</time></trkpt><trkpt lat="46.1674205" lon="12.1383874"><ele>639.4285714285713</ele><time>2026-05-01T14:51:18.264Z</time></trkpt><trkpt lat="46.1674086" lon="12.1382946"><ele>636.5714285714286</ele><time>2026-05-01T14:51:21.266Z</time></trkpt><trkpt lat="46.1673799" lon="12.1381798"><ele>633.7142857142857</ele><time>2026-05-01T14:51:24.263Z</time></trkpt><trkpt lat="46.1673407" lon="12.1381063"><ele>630.8571428571428</ele><time>2026-05-01T14:51:27.26Z</time></trkpt><trkpt lat="46.1672902" lon="12.1380173"><ele>628.0</ele><time>2026-05-01T14:51:30.262Z</time></trkpt><trkpt lat="46.167248" lon="12.1379356"><ele>621.7142857142857</ele><time>2026-05-01T14:51:34.262Z</time></trkpt><trkpt lat="46.1672114" lon="12.137837"><ele>615.4285714285714</ele><time>2026-05-01T14:51:39.26Z</time></trkpt><trkpt lat="46.1671705" lon="12.1377561"><ele>609.1428571428571</ele><time>2026-05-01T14:51:45.264Z</time></trkpt><trkpt lat="46.167132" lon="12.137661"><ele>602.8571428571429</ele><time>2026-05-01T14:51:52.263Z</time></trkpt><trkpt lat="46.1671312" lon="12.1375599"><ele>596.5714285714286</ele><time>2026-05-01T14:53:39.264Z</time></trkpt><trkpt lat="46.1672016" lon="12.1374942"><ele>590.2857142857142</ele><time>2026-05-01T14:53:44.266Z</time></trkpt><trkpt lat="46.1672633" lon="12.1374512"><ele>584.0</ele><time>2026-05-01T14:53:48.264Z</time></trkpt><trkpt lat="46.167307" lon="12.1373736"><ele>581.5714285714286</ele><time>2026-05-01T14:53:52.258Z</time></trkpt><trkpt lat="46.1673543" lon="12.1372964"><ele>579.1428571428571</ele><time>2026-05-01T14:53:57.262Z</time></trkpt><trkpt lat="46.1674028" lon="12.1372361"><ele>576.7142857142858</ele><time>2026-05-01T14:54:01.263Z</time></trkpt><trkpt lat="46.1674432" lon="12.1371623"><ele>574.2857142857142</ele><time>2026-05-01T14:54:04.263Z</time></trkpt><trkpt lat="46.1674889" lon="12.1370766"><ele>571.8571428571429</ele><time>2026-05-01T14:54:08.265Z</time></trkpt><trkpt lat="46.1674991" lon="12.1369698"><ele>569.4285714285714</ele><time>2026-05-01T14:54:12.266Z</time></trkpt><trkpt lat="46.1675209" lon="12.1368816"><ele>567.0</ele><time>2026-05-01T14:54:15.266Z</time></trkpt><trkpt lat="46.167561" lon="12.1367733"><ele>570.7142857142857</ele><time>2026-05-01T14:54:19.263Z</time></trkpt><trkpt lat="46.1676002" lon="12.1366715"><ele>574.4285714285714</ele><time>2026-05-01T14:54:23.266Z</time></trkpt><trkpt lat="46.1676321" lon="12.1365683"><ele>578.1428571428571</ele><time>2026-05-01T14:54:27.258Z</time></trkpt><trkpt lat="46.1676728" lon="12.1364757"><ele>581.8571428571429</ele><time>2026-05-01T14:54:31.265Z</time></trkpt><trkpt lat="46.1676926" lon="12.1363844"><ele>585.5714285714286</ele><time>2026-05-01T14:54:35.267Z</time></trkpt><trkpt lat="46.1677158" lon="12.1362892"><ele>589.2857142857142</ele><time>2026-05-01T14:54:38.262Z</time></trkpt><trkpt lat="46.1677446" lon="12.136207"><ele>593.0</ele><time>2026-05-01T14:54:41.256Z</time></trkpt><trkpt lat="46.1677629" lon="12.1361188"><ele>592.9999999999999</ele><time>2026-05-01T14:54:45.263Z</time></trkpt><trkpt lat="46.1677902" lon="12.1360228"><ele>593.0</ele><time>2026-05-01T14:54:50.262Z</time></trkpt><trkpt lat="46.1678181" lon="12.1359393"><ele>593.0</ele><time>2026-05-01T14:54:55.265Z</time></trkpt><trkpt lat="46.1678564" lon="12.1358645"><ele>593.0</ele><time>2026-05-01T14:54:59.254Z</time></trkpt><trkpt lat="46.1678736" lon="12.1357502"><ele>593.0</ele><time>2026-05-01T14:55:11.259Z</time></trkpt><trkpt lat="46.1678883" lon="12.1356524"><ele>592.9999999999999</ele><time>2026-05-01T14:55:15.27Z</time></trkpt><trkpt lat="46.1679128" lon="12.1355527"><ele>593.0</ele><time>2026-05-01T14:55:20.265Z</time></trkpt><trkpt lat="46.1679372" lon="12.1354669"><ele>591.4285714285713</ele><time>2026-05-01T14:55:45.265Z</time></trkpt><trkpt lat="46.1679533" lon="12.135373"><ele>589.8571428571429</ele><time>2026-05-01T14:55:56.259Z</time></trkpt><trkpt lat="46.1679856" lon="12.1352821"><ele>588.2857142857142</ele><time>2026-05-01T14:56:01.267Z</time></trkpt><trkpt lat="46.1680156" lon="12.135189"><ele>586.7142857142857</ele><time>2026-05-01T14:56:13.266Z</time></trkpt><trkpt lat="46.1680462" lon="12.1350897"><ele>585.1428571428571</ele><time>2026-05-01T14:56:18.261Z</time></trkpt><trkpt lat="46.1680899" lon="12.1350112"><ele>583.5714285714286</ele><time>2026-05-01T14:56:22.263Z</time></trkpt><trkpt lat="46.1680994" lon="12.1349104"><ele>582.0</ele><time>2026-05-01T14:56:26.269Z</time></trkpt><trkpt lat="46.1681333" lon="12.1348238"><ele>580.0</ele><time>2026-05-01T14:56:31.265Z</time></trkpt><trkpt lat="46.1681861" lon="12.1347402"><ele>578.0</ele><time>2026-05-01T14:56:36.264Z</time></trkpt><trkpt lat="46.1682327" lon="12.134661"><ele>576.0</ele><time>2026-05-01T14:56:58.26Z</time></trkpt><trkpt lat="46.1682855" lon="12.1345918"><ele>574.0</ele><time>2026-05-01T14:57:03.263Z</time></trkpt><trkpt lat="46.1683319" lon="12.1345185"><ele>572.0</ele><time>2026-05-01T14:57:15.266Z</time></trkpt><trkpt lat="46.1683799" lon="12.1344509"><ele>570.0</ele><time>2026-05-01T14:57:19.267Z</time></trkpt><trkpt lat="46.1684103" lon="12.1343677"><ele>568.0</ele><time>2026-05-01T14:57:23.269Z</time></trkpt><trkpt lat="46.1684502" lon="12.1342934"><ele>571.2857142857142</ele><time>2026-05-01T14:57:26.265Z</time></trkpt><trkpt lat="46.1684963" lon="12.1342099"><ele>574.5714285714286</ele><time>2026-05-01T14:57:30.262Z</time></trkpt><trkpt lat="46.1685524" lon="12.1341609"><ele>577.8571428571429</ele><time>2026-05-01T14:57:34.266Z</time></trkpt><trkpt lat="46.1686031" lon="12.1341068"><ele>581.1428571428571</ele><time>2026-05-01T14:57:37.266Z</time></trkpt><trkpt lat="46.168667" lon="12.1340404"><ele>584.4285714285714</ele><time>2026-05-01T14:57:41.271Z</time></trkpt><trkpt lat="46.1687337" lon="12.1339918"><ele>587.7142857142857</ele><time>2026-05-01T14:57:45.257Z</time></trkpt><trkpt lat="46.1687887" lon="12.133921"><ele>591.0</ele><time>2026-05-01T14:57:49.27Z</time></trkpt><trkpt lat="46.1688284" lon="12.1338259"><ele>591.0</ele><time>2026-05-01T14:57:53.265Z</time></trkpt><trkpt lat="46.1688538" lon="12.1337333"><ele>591.0</ele><time>2026-05-01T14:57:56.259Z</time></trkpt><trkpt lat="46.1689098" lon="12.1336577"><ele>591.0</ele><time>2026-05-01T14:58:00.266Z</time></trkpt><trkpt lat="46.1689644" lon="12.1335841"><ele>591.0</ele><time>2026-05-01T14:58:05.265Z</time></trkpt><trkpt lat="46.1690114" lon="12.1334954"><ele>591.0</ele><time>2026-05-01T14:58:09.275Z</time></trkpt><trkpt lat="46.1690603" lon="12.1334087"><ele>591.0</ele><time>2026-05-01T14:58:13.255Z</time></trkpt><trkpt lat="46.1691067" lon="12.1333315"><ele>591.0</ele><time>2026-05-01T14:58:17.273Z</time></trkpt><trkpt lat="46.1691564" lon="12.1332594"><ele>594.5714285714286</ele><time>2026-05-01T14:58:31.267Z</time></trkpt><trkpt lat="46.1692013" lon="12.1331776"><ele>598.1428571428571</ele><time>2026-05-01T14:58:35.262Z</time></trkpt><trkpt lat="46.1692566" lon="12.1331053"><ele>601.7142857142858</ele><time>2026-05-01T14:58:39.263Z</time></trkpt><trkpt lat="46.1693123" lon="12.1330188"><ele>605.2857142857142</ele><time>2026-05-01T14:58:43.261Z</time></trkpt><trkpt lat="46.1693575" lon="12.132949"><ele>608.8571428571429</ele><time>2026-05-01T14:58:46.256Z</time></trkpt><trkpt lat="46.169406" lon="12.13289"><ele>612.4285714285714</ele><time>2026-05-01T14:59:13.29Z</time></trkpt><trkpt lat="46.1694555" lon="12.1328099"><ele>616.0</ele><time>2026-05-01T14:59:18.272Z</time></trkpt><trkpt lat="46.16951" lon="12.1327396"><ele>616.0</ele><time>2026-05-01T14:59:22.268Z</time></trkpt><trkpt lat="46.1695643" lon="12.1326912"><ele>616.0</ele><time>2026-05-01T14:59:43.259Z</time></trkpt><trkpt lat="46.1696131" lon="12.1326253"><ele>616.0</ele><time>2026-05-01T14:59:55.263Z</time></trkpt><trkpt lat="46.1696643" lon="12.1325722"><ele>616.0</ele><time>2026-05-01T15:00:00.268Z</time></trkpt><trkpt lat="46.1697298" lon="12.132553"><ele>616.0</ele><time>2026-05-01T15:00:34.267Z</time></trkpt><trkpt lat="46.1697808" lon="12.1324652"><ele>616.0</ele><time>2026-05-01T15:00:39.268Z</time></trkpt><trkpt lat="46.1698184" lon="12.1323863"><ele>616.0</ele><time>2026-05-01T15:00:42.259Z</time></trkpt><trkpt lat="46.1698721" lon="12.1323139"><ele>619.4285714285714</ele><time>2026-05-01T15:00:46.259Z</time></trkpt><trkpt lat="46.1699126" lon="12.1322335"><ele>622.8571428571429</ele><time>2026-05-01T15:00:49.268Z</time></trkpt><trkpt lat="46.1699487" lon="12.1321519"><ele>626.2857142857142</ele><time>2026-05-01T15:00:56.262Z</time></trkpt><trkpt lat="46.1699976" lon="12.1320835"><ele>629.7142857142858</ele><time>2026-05-01T15:00:59.257Z</time></trkpt><trkpt lat="46.1700494" lon="12.1320095"><ele>633.1428571428571</ele><time>2026-05-01T15:01:04.264Z</time></trkpt><trkpt lat="46.1700924" lon="12.1319058"><ele>636.5714285714286</ele><time>2026-05-01T15:01:07.267Z</time></trkpt><trkpt lat="46.1701293" lon="12.1318306"><ele>640.0</ele><time>2026-05-01T15:01:20.264Z</time></trkpt><trkpt lat="46.1701716" lon="12.1317447"><ele>640.0</ele><time>2026-05-01T15:01:28.255Z</time></trkpt><trkpt lat="46.1701956" lon="12.1316589"><ele>640.0</ele><time>2026-05-01T15:01:31.256Z</time></trkpt><trkpt lat="46.1702427" lon="12.1315925"><ele>640.0</ele><time>2026-05-01T15:01:34.264Z</time></trkpt><trkpt lat="46.1702934" lon="12.1315082"><ele>640.0</ele><time>2026-05-01T15:01:37.263Z</time></trkpt><trkpt lat="46.1703294" lon="12.1313914"><ele>640.0</ele><time>2026-05-01T15:01:42.257Z</time></trkpt><trkpt lat="46.1703656" lon="12.1313112"><ele>640.0</ele><time>2026-05-01T15:01:45.265Z</time></trkpt><trkpt lat="46.170426" lon="12.1312534"><ele>640.0</ele><time>2026-05-01T15:01:48.261Z</time></trkpt><trkpt lat="46.1704899" lon="12.131217"><ele>640.7142857142857</ele><time>2026-05-01T15:01:51.344Z</time></trkpt><trkpt lat="46.1705632" lon="12.131206"><ele>641.4285714285714</ele><time>2026-05-01T15:01:56.257Z</time></trkpt><trkpt lat="46.1706314" lon="12.1312294"><ele>642.1428571428571</ele><time>2026-05-01T15:02:24.265Z</time></trkpt><trkpt lat="46.1706935" lon="12.1312138"><ele>642.8571428571429</ele><time>2026-05-01T15:02:29.262Z</time></trkpt><trkpt lat="46.1707558" lon="12.1312002"><ele>643.5714285714286</ele><time>2026-05-01T15:02:32.262Z</time></trkpt><trkpt lat="46.1707962" lon="12.1311242"><ele>644.2857142857143</ele><time>2026-05-01T15:02:37.262Z</time></trkpt><trkpt lat="46.1708312" lon="12.131046"><ele>645.0</ele><time>2026-05-01T15:02:41.253Z</time></trkpt><trkpt lat="46.1708617" lon="12.1309607"><ele>645.0</ele><time>2026-05-01T15:02:44.263Z</time></trkpt><trkpt lat="46.1708833" lon="12.1308707"><ele>645.0</ele><time>2026-05-01T15:02:48.26Z</time></trkpt><trkpt lat="46.1709168" lon="12.1307876"><ele>645.0</ele><time>2026-05-01T15:02:51.263Z</time></trkpt><trkpt lat="46.1709477" lon="12.1306887"><ele>645.0</ele><time>2026-05-01T15:02:54.261Z</time></trkpt><trkpt lat="46.1709997" lon="12.1306246"><ele>645.0</ele><time>2026-05-01T15:02:57.257Z</time></trkpt><trkpt lat="46.1710629" lon="12.1305473"><ele>645.0</ele><time>2026-05-01T15:03:00.263Z</time></trkpt><trkpt lat="46.1711105" lon="12.1304671"><ele>645.0</ele><time>2026-05-01T15:03:03.262Z</time></trkpt><trkpt lat="46.1711704" lon="12.1303652"><ele>642.5714285714286</ele><time>2026-05-01T15:03:05.249Z</time></trkpt><trkpt lat="46.1712183" lon="12.1302856"><ele>640.1428571428571</ele><time>2026-05-01T15:03:07.265Z</time></trkpt><trkpt lat="46.1712531" lon="12.1301958"><ele>637.7142857142857</ele><time>2026-05-01T15:03:11.25Z</time></trkpt><trkpt lat="46.1713174" lon="12.130157"><ele>635.2857142857142</ele><time>2026-05-01T15:03:17.252Z</time></trkpt><trkpt lat="46.1713494" lon="12.1300533"><ele>632.8571428571429</ele><time>2026-05-01T15:03:22.252Z</time></trkpt><trkpt lat="46.1713963" lon="12.1299808"><ele>630.4285714285713</ele><time>2026-05-01T15:03:26.257Z</time></trkpt><trkpt lat="46.1714524" lon="12.1299258"><ele>628.0</ele><time>2026-05-01T15:03:31.256Z</time></trkpt><trkpt lat="46.1714794" lon="12.1298253"><ele>627.1666666666667</ele><time>2026-05-01T15:03:35.265Z</time></trkpt><trkpt lat="46.1715104" lon="12.1297123"><ele>626.3333333333334</ele><time>2026-05-01T15:04:20.261Z</time></trkpt><trkpt lat="46.1714917" lon="12.1296059"><ele>625.5</ele><time>2026-05-01T15:04:24.253Z</time></trkpt><trkpt lat="46.171487" lon="12.129489"><ele>624.6666666666666</ele><time>2026-05-01T15:04:27.264Z</time></trkpt><trkpt lat="46.1715017" lon="12.1293871"><ele>623.8333333333333</ele><time>2026-05-01T15:04:30.264Z</time></trkpt><trkpt lat="46.1715391" lon="12.1292921"><ele>623.0</ele><time>2026-05-01T15:04:34.257Z</time></trkpt><trkpt lat="46.1714957" lon="12.1291937"><ele>623.0</ele><time>2026-05-01T15:04:38.261Z</time></trkpt><trkpt lat="46.1714921" lon="12.1290685"><ele>623.0</ele><time>2026-05-01T15:04:41.261Z</time></trkpt><trkpt lat="46.1714808" lon="12.1289754"><ele>623.0</ele><time>2026-05-01T15:04:44.263Z</time></trkpt><trkpt lat="46.1714546" lon="12.1288861"><ele>623.0</ele><time>2026-05-01T15:04:47.262Z</time></trkpt><trkpt lat="46.1714803" lon="12.1287895"><ele>623.0</ele><time>2026-05-01T15:04:52.256Z</time></trkpt><trkpt lat="46.1714891" lon="12.1286854"><ele>623.0</ele><time>2026-05-01T15:04:56.257Z</time></trkpt><trkpt lat="46.1715042" lon="12.1285575"><ele>622.3333333333333</ele><time>2026-05-01T15:04:59.255Z</time></trkpt><trkpt lat="46.1714921" lon="12.128441"><ele>621.6666666666666</ele><time>2026-05-01T15:05:02.256Z</time></trkpt><trkpt lat="46.1715422" lon="12.1283374"><ele>621.0</ele><time>2026-05-01T15:05:05.259Z</time></trkpt><trkpt lat="46.1716189" lon="12.1282755"><ele>620.3333333333334</ele><time>2026-05-01T15:05:08.262Z</time></trkpt><trkpt lat="46.1717105" lon="12.1282542"><ele>619.6666666666667</ele><time>2026-05-01T15:05:11.257Z</time></trkpt><trkpt lat="46.1717672" lon="12.1282003"><ele>619.0</ele><time>2026-05-01T15:05:13.27Z</time></trkpt><trkpt lat="46.1718095" lon="12.128127"><ele>621.5</ele><time>2026-05-01T15:05:15.274Z</time></trkpt><trkpt lat="46.1718471" lon="12.128012"><ele>624.0</ele><time>2026-05-01T15:05:18.286Z</time></trkpt><trkpt lat="46.1717977" lon="12.1279552"><ele>626.5</ele><time>2026-05-01T15:05:54.255Z</time></trkpt><trkpt lat="46.1717824" lon="12.127816"><ele>629.0</ele><time>2026-05-01T15:05:57.253Z</time></trkpt><trkpt lat="46.1717345" lon="12.1277395"><ele>631.5</ele><time>2026-05-01T15:06:00.264Z</time></trkpt><trkpt lat="46.1716838" lon="12.1276476"><ele>634.0</ele><time>2026-05-01T15:06:03.263Z</time></trkpt><trkpt lat="46.171613" lon="12.1276247"><ele>634.0</ele><time>2026-05-01T15:06:06.256Z</time></trkpt><trkpt lat="46.1715503" lon="12.1275619"><ele>634.0</ele><time>2026-05-01T15:06:10.256Z</time></trkpt><trkpt lat="46.1715026" lon="12.1274794"><ele>634.0</ele><time>2026-05-01T15:06:14.265Z</time></trkpt><trkpt lat="46.1714941" lon="12.127347"><ele>634.0</ele><time>2026-05-01T15:06:18.263Z</time></trkpt><trkpt lat="46.1714372" lon="12.1272995"><ele>634.0</ele><time>2026-05-01T15:06:21.262Z</time></trkpt><trkpt lat="46.1714159" lon="12.1272091"><ele>634.0</ele><time>2026-05-01T15:06:25.254Z</time></trkpt><trkpt lat="46.171367" lon="12.1271406"><ele>634.0</ele><time>2026-05-01T15:06:39.266Z</time></trkpt><trkpt lat="46.1713247" lon="12.1270619"><ele>628.7142857142858</ele><time>2026-05-01T15:07:02.257Z</time></trkpt><trkpt lat="46.1713" lon="12.1269764"><ele>623.4285714285714</ele><time>2026-05-01T15:07:08.258Z</time></trkpt><trkpt lat="46.171262" lon="12.1268935"><ele>618.1428571428571</ele><time>2026-05-01T15:07:23.256Z</time></trkpt><trkpt lat="46.1712654" lon="12.1268023"><ele>612.8571428571429</ele><time>2026-05-01T15:07:31.262Z</time></trkpt><trkpt lat="46.1712724" lon="12.1266944"><ele>607.5714285714286</ele><time>2026-05-01T15:07:36.269Z</time></trkpt><trkpt lat="46.1712929" lon="12.1265887"><ele>602.2857142857143</ele><time>2026-05-01T15:07:41.26Z</time></trkpt><trkpt lat="46.1712896" lon="12.1264867"><ele>597.0</ele><time>2026-05-01T15:07:43.254Z</time></trkpt><trkpt lat="46.1712771" lon="12.1263816"><ele>594.8333333333334</ele><time>2026-05-01T15:07:45.262Z</time></trkpt><trkpt lat="46.1712096" lon="12.1262667"><ele>592.6666666666666</ele><time>2026-05-01T15:07:48.261Z</time></trkpt><trkpt lat="46.1711575" lon="12.1261433"><ele>590.5</ele><time>2026-05-01T15:07:51.267Z</time></trkpt><trkpt lat="46.1711417" lon="12.1260453"><ele>588.3333333333333</ele><time>2026-05-01T15:07:54.259Z</time></trkpt><trkpt lat="46.1711642" lon="12.125923"><ele>586.1666666666666</ele><time>2026-05-01T15:07:57.262Z</time></trkpt><trkpt lat="46.1711617" lon="12.1258194"><ele>584.0</ele><time>2026-05-01T15:08:00.257Z</time></trkpt><trkpt lat="46.1711279" lon="12.1257417"><ele>583.6666666666666</ele><time>2026-05-01T15:08:03.254Z</time></trkpt><trkpt lat="46.1710896" lon="12.1256321"><ele>583.3333333333333</ele><time>2026-05-01T15:08:06.255Z</time></trkpt><trkpt lat="46.1710434" lon="12.1255305"><ele>583.0</ele><time>2026-05-01T15:08:09.259Z</time></trkpt><trkpt lat="46.1710344" lon="12.1254134"><ele>582.6666666666666</ele><time>2026-05-01T15:08:14.258Z</time></trkpt><trkpt lat="46.1710128" lon="12.1253162"><ele>582.3333333333334</ele><time>2026-05-01T15:08:17.258Z</time></trkpt><trkpt lat="46.170997" lon="12.1252078"><ele>582.0</ele><time>2026-05-01T15:08:21.267Z</time></trkpt><trkpt lat="46.1710004" lon="12.1251155"><ele>582.0</ele><time>2026-05-01T15:08:25.255Z</time></trkpt><trkpt lat="46.1709921" lon="12.1250236"><ele>582.0</ele><time>2026-05-01T15:08:30.262Z</time></trkpt><trkpt lat="46.170961" lon="12.1249215"><ele>582.0</ele><time>2026-05-01T15:08:33.261Z</time></trkpt><trkpt lat="46.1709076" lon="12.1248352"><ele>582.0</ele><time>2026-05-01T15:08:36.267Z</time></trkpt><trkpt lat="46.1708796" lon="12.1247417"><ele>582.0</ele><time>2026-05-01T15:08:46.258Z</time></trkpt><trkpt lat="46.1708495" lon="12.1246609"><ele>582.0</ele><time>2026-05-01T15:09:01.264Z</time></trkpt><trkpt lat="46.1708141" lon="12.1245733"><ele>582.0</ele><time>2026-05-01T15:09:12.263Z</time></trkpt><trkpt lat="46.1707803" lon="12.1244922"><ele>582.0</ele><time>2026-05-01T15:09:19.262Z</time></trkpt><trkpt lat="46.1707334" lon="12.1244201"><ele>582.0</ele><time>2026-05-01T15:09:32.267Z</time></trkpt><trkpt lat="46.1706811" lon="12.1243349"><ele>582.0</ele><time>2026-05-01T15:10:02.261Z</time></trkpt><trkpt lat="46.1706328" lon="12.1242536"><ele>582.0</ele><time>2026-05-01T15:10:07.263Z</time></trkpt><trkpt lat="46.1705903" lon="12.1241711"><ele>582.0</ele><time>2026-05-01T15:10:12.267Z</time></trkpt><trkpt lat="46.1705528" lon="12.1240976"><ele>582.0</ele><time>2026-05-01T15:10:30.261Z</time></trkpt><trkpt lat="46.1704741" lon="12.1240499"><ele>582.0</ele><time>2026-05-01T15:10:51.368Z</time></trkpt><trkpt lat="46.1704492" lon="12.1241341"><ele>576.7142857142857</ele><time>2026-05-01T15:11:08.264Z</time></trkpt><trkpt lat="46.1704449" lon="12.1242275"><ele>571.4285714285713</ele><time>2026-05-01T15:11:18.26Z</time></trkpt><trkpt lat="46.1704349" lon="12.1243234"><ele>566.1428571428571</ele><time>2026-05-01T15:11:29.266Z</time></trkpt><trkpt lat="46.170373" lon="12.1243544"><ele>560.8571428571429</ele><time>2026-05-01T15:11:38.269Z</time></trkpt><trkpt lat="46.1703074" lon="12.1243163"><ele>555.5714285714287</ele><time>2026-05-01T15:11:51.258Z</time></trkpt><trkpt lat="46.1702611" lon="12.1242527"><ele>550.2857142857143</ele><time>2026-05-01T15:11:58.261Z</time></trkpt><trkpt lat="46.1701948" lon="12.1242304"><ele>545.0</ele><time>2026-05-01T15:12:04.258Z</time></trkpt><trkpt lat="46.1701164" lon="12.1241859"><ele>545.0</ele><time>2026-05-01T15:12:08.263Z</time></trkpt><trkpt lat="46.1700434" lon="12.1241713"><ele>545.0</ele><time>2026-05-01T15:12:11.265Z</time></trkpt><trkpt lat="46.1699827" lon="12.1241331"><ele>545.0</ele><time>2026-05-01T15:12:22.267Z</time></trkpt><trkpt lat="46.1699054" lon="12.1241263"><ele>545.0</ele><time>2026-05-01T15:12:42.266Z</time></trkpt><trkpt lat="46.1698447" lon="12.1240798"><ele>545.0</ele><time>2026-05-01T15:12:50.264Z</time></trkpt><trkpt lat="46.1697814" lon="12.1241142"><ele>545.0</ele><time>2026-05-01T15:13:03.264Z</time></trkpt><trkpt lat="46.169739" lon="12.124183"><ele>545.0</ele><time>2026-05-01T15:13:12.258Z</time></trkpt><trkpt lat="46.1697142" lon="12.1243074"><ele>538.8333333333333</ele><time>2026-05-01T15:13:35.264Z</time></trkpt><trkpt lat="46.1697135" lon="12.1244091"><ele>532.6666666666666</ele><time>2026-05-01T15:13:38.251Z</time></trkpt><trkpt lat="46.16963" lon="12.1244249"><ele>526.5</ele><time>2026-05-01T15:13:41.26Z</time></trkpt><trkpt lat="46.169552" lon="12.1244319"><ele>520.3333333333334</ele><time>2026-05-01T15:13:45.257Z</time></trkpt><trkpt lat="46.1694985" lon="12.1245448"><ele>514.1666666666667</ele><time>2026-05-01T15:13:48.257Z</time></trkpt><trkpt lat="46.1694879" lon="12.124651"><ele>508.0</ele><time>2026-05-01T15:13:50.26Z</time></trkpt><trkpt lat="46.1694521" lon="12.1247309"><ele>508.0</ele><time>2026-05-01T15:13:54.259Z</time></trkpt><trkpt lat="46.1694582" lon="12.1248288"><ele>508.0</ele><time>2026-05-01T15:13:59.261Z</time></trkpt><trkpt lat="46.1694869" lon="12.1249267"><ele>508.0</ele><time>2026-05-01T15:14:03.258Z</time></trkpt><trkpt lat="46.1694654" lon="12.125019"><ele>508.0</ele><time>2026-05-01T15:14:08.267Z</time></trkpt><trkpt lat="46.1694256" lon="12.1250916"><ele>508.0</ele><time>2026-05-01T15:14:24.26Z</time></trkpt><trkpt lat="46.1693717" lon="12.1251517"><ele>508.0</ele><time>2026-05-01T15:14:31.257Z</time></trkpt><trkpt lat="46.169306" lon="12.1251347"><ele>508.0</ele><time>2026-05-01T15:15:15.264Z</time></trkpt><trkpt lat="46.1692428" lon="12.1250856"><ele>508.0</ele><time>2026-05-01T15:15:28.267Z</time></trkpt><trkpt lat="46.1692393" lon="12.1249831"><ele>508.0</ele><time>2026-05-01T15:15:40.274Z</time></trkpt><trkpt lat="46.1692388" lon="12.124891"><ele>508.0</ele><time>2026-05-01T15:16:18.273Z</time></trkpt><trkpt lat="46.1691832" lon="12.1248453"><ele>508.0</ele><time>2026-05-01T15:16:26.277Z</time></trkpt><trkpt lat="46.1691099" lon="12.1248931"><ele>508.0</ele><time>2026-05-01T15:17:45.251Z</time></trkpt><trkpt lat="46.1690433" lon="12.1248607"><ele>508.0</ele><time>2026-05-01T15:17:47.254Z</time></trkpt><trkpt lat="46.1689847" lon="12.1248268"><ele>508.0</ele><time>2026-05-01T15:17:49.254Z</time></trkpt><trkpt lat="46.1689187" lon="12.1248077"><ele>502.1666666666667</ele><time>2026-05-01T15:17:51.25Z</time></trkpt><trkpt lat="46.1688453" lon="12.1248128"><ele>496.33333333333337</ele><time>2026-05-01T15:17:53.259Z</time></trkpt><trkpt lat="46.1687689" lon="12.1248144"><ele>490.5</ele><time>2026-05-01T15:17:55.275Z</time></trkpt><trkpt lat="46.1687102" lon="12.1247811"><ele>484.66666666666663</ele><time>2026-05-01T15:17:57.277Z</time></trkpt><trkpt lat="46.1686323" lon="12.1247381"><ele>478.8333333333333</ele><time>2026-05-01T15:18:00.273Z</time></trkpt><trkpt lat="46.1685602" lon="12.1247012"><ele>473.0</ele><time>2026-05-01T15:18:02.272Z</time></trkpt><trkpt lat="46.1684768" lon="12.1246507"><ele>473.0</ele><time>2026-05-01T15:18:04.258Z</time></trkpt><trkpt lat="46.1683959" lon="12.1246457"><ele>473.0</ele><time>2026-05-01T15:18:06.254Z</time></trkpt><trkpt lat="46.1683255" lon="12.1246657"><ele>473.0</ele><time>2026-05-01T15:18:08.257Z</time></trkpt><trkpt lat="46.1682545" lon="12.1246662"><ele>473.0</ele><time>2026-05-01T15:18:10.262Z</time></trkpt><trkpt lat="46.1681828" lon="12.124664"><ele>473.0</ele><time>2026-05-01T15:18:47.259Z</time></trkpt><trkpt lat="46.168164" lon="12.1245612"><ele>473.0</ele><time>2026-05-01T15:18:50.258Z</time></trkpt><trkpt lat="46.1681437" lon="12.1244549"><ele>473.0</ele><time>2026-05-01T15:18:54.267Z</time></trkpt><trkpt lat="46.1681035" lon="12.124371"><ele>471.7142857142857</ele><time>2026-05-01T15:19:28.252Z</time></trkpt><trkpt lat="46.1680844" lon="12.1242833"><ele>470.42857142857144</ele><time>2026-05-01T15:19:31.268Z</time></trkpt><trkpt lat="46.168061" lon="12.1241749"><ele>469.14285714285717</ele><time>2026-05-01T15:19:35.246Z</time></trkpt><trkpt lat="46.1680705" lon="12.1240519"><ele>467.8571428571429</ele><time>2026-05-01T15:19:38.259Z</time></trkpt><trkpt lat="46.168058" lon="12.1239559"><ele>466.57142857142856</ele><time>2026-05-01T15:19:42.259Z</time></trkpt><trkpt lat="46.1680992" lon="12.1238738"><ele>465.28571428571433</ele><time>2026-05-01T15:19:44.256Z</time></trkpt><trkpt lat="46.1681639" lon="12.1238227"><ele>464.00000000000006</ele><time>2026-05-01T15:19:47.263Z</time></trkpt><trkpt lat="46.1682117" lon="12.1237621"><ele>464.00000000000006</ele><time>2026-05-01T15:19:50.256Z</time></trkpt><trkpt lat="46.1682571" lon="12.1236858"><ele>464.0</ele><time>2026-05-01T15:19:53.274Z</time></trkpt><trkpt lat="46.1683183" lon="12.1237082"><ele>464.00000000000006</ele><time>2026-05-01T15:20:22.261Z</time></trkpt><trkpt lat="46.1683602" lon="12.12361"><ele>464.00000000000006</ele><time>2026-05-01T15:20:28.248Z</time></trkpt><trkpt lat="46.1683999" lon="12.1235297"><ele>464.0</ele><time>2026-05-01T15:20:32.257Z</time></trkpt><trkpt lat="46.1683286" lon="12.1235052"><ele>464.00000000000006</ele><time>2026-05-01T15:20:54.254Z</time></trkpt><trkpt lat="46.1682767" lon="12.1234365"><ele>464.00000000000006</ele><time>2026-05-01T15:20:57.272Z</time></trkpt><trkpt lat="46.1682063" lon="12.1234028"><ele>459.3333333333333</ele><time>2026-05-01T15:21:01.271Z</time></trkpt><trkpt lat="46.168153" lon="12.1233157"><ele>454.66666666666663</ele><time>2026-05-01T15:21:05.262Z</time></trkpt><trkpt lat="46.1680842" lon="12.1232443"><ele>450.0</ele><time>2026-05-01T15:21:09.256Z</time></trkpt><trkpt lat="46.1680322" lon="12.1231528"><ele>445.33333333333337</ele><time>2026-05-01T15:21:12.258Z</time></trkpt><trkpt lat="46.1679557" lon="12.1230681"><ele>440.6666666666667</ele><time>2026-05-01T15:21:15.257Z</time></trkpt><trkpt lat="46.1678879" lon="12.1229895"><ele>436.0</ele><time>2026-05-01T15:21:18.258Z</time></trkpt><trkpt lat="46.1678285" lon="12.1229122"><ele>435.00000000000006</ele><time>2026-05-01T15:21:21.259Z</time></trkpt><trkpt lat="46.1677589" lon="12.1228592"><ele>434.0</ele><time>2026-05-01T15:21:24.269Z</time></trkpt><trkpt lat="46.1676963" lon="12.1228185"><ele>433.0</ele><time>2026-05-01T15:21:27.389Z</time></trkpt><trkpt lat="46.1676422" lon="12.1227505"><ele>432.0</ele><time>2026-05-01T15:21:30.266Z</time></trkpt><trkpt lat="46.1675731" lon="12.1226883"><ele>431.00000000000006</ele><time>2026-05-01T15:21:34.26Z</time></trkpt><trkpt lat="46.1675258" lon="12.1226048"><ele>430.0</ele><time>2026-05-01T15:21:37.26Z</time></trkpt><trkpt lat="46.1674611" lon="12.1225236"><ele>430.00000000000006</ele><time>2026-05-01T15:21:40.258Z</time></trkpt><trkpt lat="46.1674354" lon="12.1224186"><ele>430.0</ele><time>2026-05-01T15:21:43.258Z</time></trkpt><trkpt lat="46.1674213" lon="12.1223208"><ele>430.0</ele><time>2026-05-01T15:21:47.261Z</time></trkpt><trkpt lat="46.1673936" lon="12.1222288"><ele>430.0</ele><time>2026-05-01T15:21:52.271Z</time></trkpt><trkpt lat="46.1673638" lon="12.1221318"><ele>430.00000000000006</ele><time>2026-05-01T15:21:55.254Z</time></trkpt><trkpt lat="46.1673313" lon="12.1220461"><ele>430.0</ele><time>2026-05-01T15:21:58.262Z</time></trkpt><trkpt lat="46.1673164" lon="12.121901"><ele>425.75</ele><time>2026-05-01T15:22:08.255Z</time></trkpt><trkpt lat="46.1672014" lon="12.1216137"><ele>421.5</ele><time>2026-05-01T15:22:12.263Z</time></trkpt><trkpt lat="46.1671494" lon="12.1215423"><ele>417.25</ele><time>2026-05-01T15:22:15.254Z</time></trkpt><trkpt lat="46.167087" lon="12.1216057"><ele>413.0</ele><time>2026-05-01T15:22:18.26Z</time></trkpt><trkpt lat="46.1670277" lon="12.121683"><ele>412.99999999999994</ele><time>2026-05-01T15:22:21.251Z</time></trkpt><trkpt lat="46.1669683" lon="12.1217427"><ele>413.0</ele><time>2026-05-01T15:22:24.26Z</time></trkpt><trkpt lat="46.1669195" lon="12.1218134"><ele>413.0</ele><time>2026-05-01T15:22:27.253Z</time></trkpt><trkpt lat="46.1668537" lon="12.1218991"><ele>413.0</ele><time>2026-05-01T15:22:30.264Z</time></trkpt><trkpt lat="46.166802" lon="12.1219634"><ele>412.99999999999994</ele><time>2026-05-01T15:22:32.258Z</time></trkpt><trkpt lat="46.1667529" lon="12.1220589"><ele>413.0</ele><time>2026-05-01T15:22:35.255Z</time></trkpt><trkpt lat="46.1667055" lon="12.1221538"><ele>412.99999999999994</ele><time>2026-05-01T15:22:37.26Z</time></trkpt><trkpt lat="46.166639" lon="12.1222476"><ele>413.0</ele><time>2026-05-01T15:22:39.255Z</time></trkpt><trkpt lat="46.1665809" lon="12.1223114"><ele>413.0</ele><time>2026-05-01T15:22:40.259Z</time></trkpt><trkpt lat="46.1665107" lon="12.1224148"><ele>413.0</ele><time>2026-05-01T15:22:42.251Z</time></trkpt><trkpt lat="46.166441" lon="12.1224954"><ele>412.99999999999994</ele><time>2026-05-01T15:22:44.258Z</time></trkpt><trkpt lat="46.1663825" lon="12.1225492"><ele>413.0</ele><time>2026-05-01T15:22:46.248Z</time></trkpt><trkpt lat="46.1663638" lon="12.1226471"><ele>411.16666666666663</ele><time>2026-05-01T15:22:48.254Z</time></trkpt><trkpt lat="46.1663559" lon="12.1227664"><ele>409.3333333333333</ele><time>2026-05-01T15:22:50.25Z</time></trkpt><trkpt lat="46.1663615" lon="12.1228975"><ele>407.5</ele><time>2026-05-01T15:22:52.262Z</time></trkpt><trkpt lat="46.1663337" lon="12.1229921"><ele>405.66666666666663</ele><time>2026-05-01T15:22:54.257Z</time></trkpt><trkpt lat="46.166299" lon="12.1230863"><ele>403.8333333333333</ele><time>2026-05-01T15:22:56.264Z</time></trkpt><trkpt lat="46.166261" lon="12.1231642"><ele>402.0</ele><time>2026-05-01T15:22:58.267Z</time></trkpt><trkpt lat="46.1662019" lon="12.1232316"><ele>401.40000000000003</ele><time>2026-05-01T15:23:00.253Z</time></trkpt><trkpt lat="46.1661209" lon="12.1232778"><ele>400.8</ele><time>2026-05-01T15:23:02.26Z</time></trkpt><trkpt lat="46.1660286" lon="12.1233492"><ele>400.2</ele><time>2026-05-01T15:23:04.261Z</time></trkpt><trkpt lat="46.1659241" lon="12.1234316"><ele>399.6</ele><time>2026-05-01T15:23:06.249Z</time></trkpt><trkpt lat="46.1658047" lon="12.1235055"><ele>399.0</ele><time>2026-05-01T15:23:08.254Z</time></trkpt><trkpt lat="46.1657444" lon="12.1235348"><ele>397.0</ele><time>2026-05-01T15:23:09.391Z</time></trkpt><trkpt lat="46.1656509" lon="12.1235795"><ele>395.0</ele><time>2026-05-01T15:23:11.254Z</time></trkpt><trkpt lat="46.165584" lon="12.1236349"><ele>393.0</ele><time>2026-05-01T15:23:13.256Z</time></trkpt><trkpt lat="46.1655531" lon="12.1237329"><ele>391.0</ele><time>2026-05-01T15:23:15.267Z</time></trkpt><trkpt lat="46.1655232" lon="12.1238541"><ele>389.0</ele><time>2026-05-01T15:23:18.256Z</time></trkpt><trkpt lat="46.1654868" lon="12.1239677"><ele>387.0</ele><time>2026-05-01T15:23:21.254Z</time></trkpt><trkpt lat="46.1654677" lon="12.1240985"><ele>387.0</ele><time>2026-05-01T15:23:24.257Z</time></trkpt><trkpt lat="46.1654515" lon="12.1241944"><ele>387.0</ele><time>2026-05-01T15:23:26.255Z</time></trkpt><trkpt lat="46.165432" lon="12.1242897"><ele>387.0</ele><time>2026-05-01T15:23:28.252Z</time></trkpt><trkpt lat="46.1654081" lon="12.1243851"><ele>387.0</ele><time>2026-05-01T15:23:30.266Z</time></trkpt><trkpt lat="46.1653808" lon="12.1244812"><ele>387.0</ele><time>2026-05-01T15:23:32.25Z</time></trkpt><trkpt lat="46.1653584" lon="12.1245805"><ele>387.0</ele><time>2026-05-01T15:23:34.257Z</time></trkpt><trkpt lat="46.1653338" lon="12.1246771"><ele>387.0</ele><time>2026-05-01T15:23:36.259Z</time></trkpt><trkpt lat="46.1653116" lon="12.1247775"><ele>387.0</ele><time>2026-05-01T15:23:38.263Z</time></trkpt><trkpt lat="46.165294" lon="12.124881"><ele>387.0</ele><time>2026-05-01T15:23:40.266Z</time></trkpt><trkpt lat="46.1652783" lon="12.1249984"><ele>387.0</ele><time>2026-05-01T15:23:42.249Z</time></trkpt><trkpt lat="46.1652656" lon="12.1251126"><ele>387.0</ele><time>2026-05-01T15:23:44.266Z</time></trkpt><trkpt lat="46.1652547" lon="12.1252207"><ele>387.0</ele><time>2026-05-01T15:23:46.253Z</time></trkpt><trkpt lat="46.1652455" lon="12.1253216"><ele>387.0</ele><time>2026-05-01T15:23:48.263Z</time></trkpt><trkpt lat="46.1652353" lon="12.1254153"><ele>387.0</ele><time>2026-05-01T15:23:50.263Z</time></trkpt><trkpt lat="46.1652216" lon="12.1255402"><ele>387.1666666666667</ele><time>2026-05-01T15:23:53.25Z</time></trkpt><trkpt lat="46.1652083" lon="12.1256542"><ele>387.33333333333337</ele><time>2026-05-01T15:23:56.257Z</time></trkpt><trkpt lat="46.165202" lon="12.1257662"><ele>387.5</ele><time>2026-05-01T15:23:59.269Z</time></trkpt><trkpt lat="46.1651948" lon="12.1258826"><ele>387.6666666666667</ele><time>2026-05-01T15:24:02.266Z</time></trkpt><trkpt lat="46.1651799" lon="12.1260049"><ele>387.83333333333337</ele><time>2026-05-01T15:24:05.259Z</time></trkpt><trkpt lat="46.1651745" lon="12.1261174"><ele>388.0</ele><time>2026-05-01T15:24:08.257Z</time></trkpt><trkpt lat="46.165168" lon="12.1262172"><ele>388.00000000000006</ele><time>2026-05-01T15:24:11.263Z</time></trkpt><trkpt lat="46.1651706" lon="12.1263196"><ele>388.0</ele><time>2026-05-01T15:24:14.256Z</time></trkpt><trkpt lat="46.1651671" lon="12.1264169"><ele>388.0</ele><time>2026-05-01T15:24:17.249Z</time></trkpt><trkpt lat="46.1651629" lon="12.1265113"><ele>388.0</ele><time>2026-05-01T15:24:20.266Z</time></trkpt><trkpt lat="46.1651597" lon="12.1266349"><ele>388.00000000000006</ele><time>2026-05-01T15:24:24.261Z</time></trkpt><trkpt lat="46.1651555" lon="12.1267673"><ele>388.0</ele><time>2026-05-01T15:24:27.255Z</time></trkpt><trkpt lat="46.1651542" lon="12.126875"><ele>388.33333333333337</ele><time>2026-05-01T15:24:29.264Z</time></trkpt><trkpt lat="46.1651515" lon="12.126986"><ele>388.6666666666667</ele><time>2026-05-01T15:24:31.263Z</time></trkpt><trkpt lat="46.1651499" lon="12.1271039"><ele>389.0</ele><time>2026-05-01T15:24:33.262Z</time></trkpt><trkpt lat="46.1651444" lon="12.127229"><ele>389.33333333333337</ele><time>2026-05-01T15:24:35.263Z</time></trkpt><trkpt lat="46.1651286" lon="12.1273648"><ele>389.6666666666667</ele><time>2026-05-01T15:24:37.266Z</time></trkpt><trkpt lat="46.1651189" lon="12.1275072"><ele>390.0</ele><time>2026-05-01T15:24:39.261Z</time></trkpt><trkpt lat="46.1651006" lon="12.1276496"><ele>390.0</ele><time>2026-05-01T15:24:41.264Z</time></trkpt><trkpt lat="46.165066" lon="12.1277835"><ele>390.0</ele><time>2026-05-01T15:24:43.258Z</time></trkpt><trkpt lat="46.165026" lon="12.1279053"><ele>390.0</ele><time>2026-05-01T15:24:45.26Z</time></trkpt><trkpt lat="46.1649623" lon="12.1280232"><ele>390.0</ele><time>2026-05-01T15:24:47.261Z</time></trkpt><trkpt lat="46.1648848" lon="12.1281232"><ele>390.0</ele><time>2026-05-01T15:24:49.253Z</time></trkpt><trkpt lat="46.1647979" lon="12.1281996"><ele>389.5</ele><time>2026-05-01T15:24:51.362Z</time></trkpt><trkpt lat="46.1647113" lon="12.1282575"><ele>389.0</ele><time>2026-05-01T15:24:53.26Z</time></trkpt><trkpt lat="46.164627" lon="12.1283043"><ele>388.5</ele><time>2026-05-01T15:24:55.254Z</time></trkpt><trkpt lat="46.1645632" lon="12.1283608"><ele>388.0</ele><time>2026-05-01T15:24:57.265Z</time></trkpt><trkpt lat="46.1645044" lon="12.1284181"><ele>387.5</ele><time>2026-05-01T15:24:59.254Z</time></trkpt><trkpt lat="46.1644566" lon="12.1284838"><ele>387.0</ele><time>2026-05-01T15:25:01.258Z</time></trkpt><trkpt lat="46.1644051" lon="12.1285478"><ele>387.0</ele><time>2026-05-01T15:25:03.255Z</time></trkpt><trkpt lat="46.1643529" lon="12.1286211"><ele>387.0</ele><time>2026-05-01T15:25:05.261Z</time></trkpt><trkpt lat="46.1643071" lon="12.128699"><ele>387.0</ele><time>2026-05-01T15:25:07.261Z</time></trkpt><trkpt lat="46.1642576" lon="12.1287759"><ele>387.0</ele><time>2026-05-01T15:25:09.246Z</time></trkpt><trkpt lat="46.1642039" lon="12.128847"><ele>387.0</ele><time>2026-05-01T15:25:11.256Z</time></trkpt><trkpt lat="46.164154" lon="12.1289267"><ele>387.0</ele><time>2026-05-01T15:25:13.255Z</time></trkpt><trkpt lat="46.1641052" lon="12.1290063"><ele>387.0</ele><time>2026-05-01T15:25:15.26Z</time></trkpt><trkpt lat="46.1640502" lon="12.12908"><ele>386.8333333333333</ele><time>2026-05-01T15:25:17.261Z</time></trkpt><trkpt lat="46.1639901" lon="12.129156"><ele>386.66666666666663</ele><time>2026-05-01T15:25:19.264Z</time></trkpt><trkpt lat="46.1639294" lon="12.1292404"><ele>386.5</ele><time>2026-05-01T15:25:21.258Z</time></trkpt><trkpt lat="46.16386" lon="12.1293224"><ele>386.3333333333333</ele><time>2026-05-01T15:25:23.249Z</time></trkpt><trkpt lat="46.1637842" lon="12.1294098"><ele>386.16666666666663</ele><time>2026-05-01T15:25:25.258Z</time></trkpt><trkpt lat="46.1637129" lon="12.1294965"><ele>386.0</ele><time>2026-05-01T15:25:27.252Z</time></trkpt><trkpt lat="46.1636445" lon="12.1295822"><ele>385.99999999999994</ele><time>2026-05-01T15:25:29.261Z</time></trkpt><trkpt lat="46.1635796" lon="12.1296716"><ele>386.0</ele><time>2026-05-01T15:25:31.257Z</time></trkpt><trkpt lat="46.1635133" lon="12.1297517"><ele>386.0</ele><time>2026-05-01T15:25:33.253Z</time></trkpt><trkpt lat="46.1634461" lon="12.1298263"><ele>386.0</ele><time>2026-05-01T15:25:35.263Z</time></trkpt><trkpt lat="46.1633794" lon="12.1299073"><ele>385.99999999999994</ele><time>2026-05-01T15:25:37.258Z</time></trkpt><trkpt lat="46.1633086" lon="12.1299891"><ele>386.0</ele><time>2026-05-01T15:25:39.252Z</time></trkpt><trkpt lat="46.1632432" lon="12.1300705"><ele>385.8571428571429</ele><time>2026-05-01T15:25:41.268Z</time></trkpt><trkpt lat="46.1631797" lon="12.1301416"><ele>385.7142857142857</ele><time>2026-05-01T15:25:43.248Z</time></trkpt><trkpt lat="46.1631348" lon="12.1302275"><ele>385.57142857142856</ele><time>2026-05-01T15:25:45.262Z</time></trkpt><trkpt lat="46.1630966" lon="12.1303211"><ele>385.42857142857144</ele><time>2026-05-01T15:25:47.26Z</time></trkpt><trkpt lat="46.1630694" lon="12.1304238"><ele>385.2857142857143</ele><time>2026-05-01T15:25:49.262Z</time></trkpt><trkpt lat="46.1630444" lon="12.1305161"><ele>385.14285714285717</ele><time>2026-05-01T15:25:51.254Z</time></trkpt><trkpt lat="46.1630204" lon="12.1306097"><ele>385.0</ele><time>2026-05-01T15:25:53.258Z</time></trkpt><trkpt lat="46.1629963" lon="12.1307056"><ele>385.7142857142857</ele><time>2026-05-01T15:25:55.261Z</time></trkpt><trkpt lat="46.162974" lon="12.1307989"><ele>386.42857142857144</ele><time>2026-05-01T15:25:57.26Z</time></trkpt><trkpt lat="46.1629508" lon="12.1308931"><ele>387.1428571428571</ele><time>2026-05-01T15:25:59.252Z</time></trkpt><trkpt lat="46.1629285" lon="12.1309876"><ele>387.8571428571429</ele><time>2026-05-01T15:26:01.262Z</time></trkpt><trkpt lat="46.1629015" lon="12.1310787"><ele>388.57142857142856</ele><time>2026-05-01T15:26:03.252Z</time></trkpt><trkpt lat="46.1628745" lon="12.1311684"><ele>389.2857142857143</ele><time>2026-05-01T15:26:05.264Z</time></trkpt><trkpt lat="46.1628372" lon="12.1312847"><ele>390.0</ele><time>2026-05-01T15:26:08.26Z</time></trkpt><trkpt lat="46.1627868" lon="12.1313875"><ele>390.0</ele><time>2026-05-01T15:26:11.248Z</time></trkpt><trkpt lat="46.1627236" lon="12.1314778"><ele>390.0</ele><time>2026-05-01T15:26:14.26Z</time></trkpt><trkpt lat="46.1626613" lon="12.131548"><ele>390.0</ele><time>2026-05-01T15:26:17.269Z</time></trkpt><trkpt lat="46.1625988" lon="12.1316169"><ele>390.0</ele><time>2026-05-01T15:26:20.263Z</time></trkpt><trkpt lat="46.1625415" lon="12.1316797"><ele>390.0</ele><time>2026-05-01T15:26:23.261Z</time></trkpt><trkpt lat="46.1624898" lon="12.1317479"><ele>390.0</ele><time>2026-05-01T15:26:26.251Z</time></trkpt><trkpt lat="46.1624513" lon="12.1318221"><ele>390.7142857142857</ele><time>2026-05-01T15:26:29.253Z</time></trkpt><trkpt lat="46.1624122" lon="12.1318943"><ele>391.42857142857144</ele><time>2026-05-01T15:26:32.255Z</time></trkpt><trkpt lat="46.1623757" lon="12.1319799"><ele>392.1428571428571</ele><time>2026-05-01T15:26:35.253Z</time></trkpt><trkpt lat="46.1623311" lon="12.1320652"><ele>392.8571428571429</ele><time>2026-05-01T15:26:38.258Z</time></trkpt><trkpt lat="46.1622868" lon="12.1321456"><ele>393.5714285714286</ele><time>2026-05-01T15:26:41.258Z</time></trkpt><trkpt lat="46.1622441" lon="12.1322248"><ele>394.2857142857143</ele><time>2026-05-01T15:26:44.264Z</time></trkpt><trkpt lat="46.1622007" lon="12.1322976"><ele>395.0</ele><time>2026-05-01T15:26:47.258Z</time></trkpt><trkpt lat="46.1621584" lon="12.1323694"><ele>396.7142857142857</ele><time>2026-05-01T15:26:50.255Z</time></trkpt><trkpt lat="46.1621214" lon="12.1324483"><ele>398.42857142857144</ele><time>2026-05-01T15:26:53.26Z</time></trkpt><trkpt lat="46.1620851" lon="12.1325239"><ele>400.14285714285717</ele><time>2026-05-01T15:26:56.252Z</time></trkpt><trkpt lat="46.162049" lon="12.1326022"><ele>401.8571428571429</ele><time>2026-05-01T15:26:59.257Z</time></trkpt><trkpt lat="46.1620044" lon="12.1326804"><ele>403.57142857142856</ele><time>2026-05-01T15:27:02.254Z</time></trkpt><trkpt lat="46.1619627" lon="12.132761"><ele>405.28571428571433</ele><time>2026-05-01T15:27:05.258Z</time></trkpt><trkpt lat="46.1619234" lon="12.1328387"><ele>407.0</ele><time>2026-05-01T15:27:08.253Z</time></trkpt><trkpt lat="46.1618832" lon="12.1329139"><ele>407.00000000000006</ele><time>2026-05-01T15:27:11.263Z</time></trkpt><trkpt lat="46.1618437" lon="12.132987"><ele>407.0</ele><time>2026-05-01T15:27:14.249Z</time></trkpt><trkpt lat="46.1617987" lon="12.1330577"><ele>407.0</ele><time>2026-05-01T15:27:17.248Z</time></trkpt><trkpt lat="46.1617609" lon="12.1331347"><ele>407.0</ele><time>2026-05-01T15:27:20.255Z</time></trkpt><trkpt lat="46.1617096" lon="12.1332286"><ele>407.0</ele><time>2026-05-01T15:27:24.258Z</time></trkpt><trkpt lat="46.1616604" lon="12.1333232"><ele>407.00000000000006</ele><time>2026-05-01T15:27:28.254Z</time></trkpt><trkpt lat="46.1616203" lon="12.133394"><ele>407.0</ele><time>2026-05-01T15:27:31.261Z</time></trkpt><trkpt lat="46.1615832" lon="12.1334717"><ele>408.42857142857144</ele><time>2026-05-01T15:27:34.251Z</time></trkpt><trkpt lat="46.1615542" lon="12.1335593"><ele>409.8571428571429</ele><time>2026-05-01T15:27:37.267Z</time></trkpt><trkpt lat="46.161528" lon="12.1336556"><ele>411.28571428571433</ele><time>2026-05-01T15:27:40.262Z</time></trkpt><trkpt lat="46.1615058" lon="12.1337595"><ele>412.7142857142857</ele><time>2026-05-01T15:27:43.26Z</time></trkpt><trkpt lat="46.1614896" lon="12.1338598"><ele>414.1428571428571</ele><time>2026-05-01T15:27:46.264Z</time></trkpt><trkpt lat="46.1614653" lon="12.1339557"><ele>415.5714285714286</ele><time>2026-05-01T15:27:49.254Z</time></trkpt><trkpt lat="46.1614492" lon="12.1340596"><ele>417.0</ele><time>2026-05-01T15:27:52.259Z</time></trkpt><trkpt lat="46.1614317" lon="12.1341603"><ele>417.0</ele><time>2026-05-01T15:27:55.257Z</time></trkpt><trkpt lat="46.1614017" lon="12.1342593"><ele>417.0</ele><time>2026-05-01T15:27:58.258Z</time></trkpt><trkpt lat="46.1613644" lon="12.1343547"><ele>417.0</ele><time>2026-05-01T15:28:01.256Z</time></trkpt><trkpt lat="46.1613192" lon="12.1344445"><ele>417.0</ele><time>2026-05-01T15:28:04.259Z</time></trkpt><trkpt lat="46.1612533" lon="12.1345402"><ele>417.0</ele><time>2026-05-01T15:28:07.261Z</time></trkpt><trkpt lat="46.1612025" lon="12.134596"><ele>417.0</ele><time>2026-05-01T15:28:09.26Z</time></trkpt><trkpt lat="46.1611438" lon="12.1346454"><ele>417.0</ele><time>2026-05-01T15:28:11.257Z</time></trkpt><trkpt lat="46.1610817" lon="12.1346951"><ele>417.0</ele><time>2026-05-01T15:28:13.265Z</time></trkpt><trkpt lat="46.1610172" lon="12.1347494"><ele>417.0</ele><time>2026-05-01T15:28:15.255Z</time></trkpt><trkpt lat="46.160953" lon="12.1348112"><ele>417.0</ele><time>2026-05-01T15:28:17.266Z</time></trkpt><trkpt lat="46.1608884" lon="12.134873"><ele>417.0</ele><time>2026-05-01T15:28:19.264Z</time></trkpt><trkpt lat="46.1608208" lon="12.1349353"><ele>417.0</ele><time>2026-05-01T15:28:21.254Z</time></trkpt><trkpt lat="46.1607503" lon="12.1349987"><ele>418.1666666666667</ele><time>2026-05-01T15:28:23.254Z</time></trkpt><trkpt lat="46.1606808" lon="12.135063"><ele>419.33333333333337</ele><time>2026-05-01T15:28:25.264Z</time></trkpt><trkpt lat="46.1606113" lon="12.1351279"><ele>420.5</ele><time>2026-05-01T15:28:27.258Z</time></trkpt><trkpt lat="46.1605367" lon="12.1351892"><ele>421.6666666666667</ele><time>2026-05-01T15:28:29.255Z</time></trkpt><trkpt lat="46.160461" lon="12.1352416"><ele>422.83333333333337</ele><time>2026-05-01T15:28:31.257Z</time></trkpt><trkpt lat="46.1603853" lon="12.1352831"><ele>424.0</ele><time>2026-05-01T15:28:33.251Z</time></trkpt><trkpt lat="46.1603078" lon="12.1353135"><ele>424.00000000000006</ele><time>2026-05-01T15:28:35.246Z</time></trkpt><trkpt lat="46.160226" lon="12.1353206"><ele>424.0</ele><time>2026-05-01T15:28:37.253Z</time></trkpt><trkpt lat="46.1601442" lon="12.1353345"><ele>424.0</ele><time>2026-05-01T15:28:39.253Z</time></trkpt><trkpt lat="46.16007" lon="12.1353334"><ele>424.0</ele><time>2026-05-01T15:28:41.261Z</time></trkpt><trkpt lat="46.1599965" lon="12.1353313"><ele>424.00000000000006</ele><time>2026-05-01T15:28:43.262Z</time></trkpt><trkpt lat="46.1599243" lon="12.1353241"><ele>424.0</ele><time>2026-05-01T15:28:45.262Z</time></trkpt><trkpt lat="46.1598553" lon="12.1353204"><ele>425.33333333333337</ele><time>2026-05-01T15:28:47.259Z</time></trkpt><trkpt lat="46.1597884" lon="12.1353165"><ele>426.6666666666667</ele><time>2026-05-01T15:28:49.254Z</time></trkpt><trkpt lat="46.1597227" lon="12.135302"><ele>428.0</ele><time>2026-05-01T15:28:51.387Z</time></trkpt><trkpt lat="46.1596587" lon="12.1352961"><ele>429.33333333333337</ele><time>2026-05-01T15:28:53.258Z</time></trkpt><trkpt lat="46.1595692" lon="12.1352907"><ele>430.6666666666667</ele><time>2026-05-01T15:28:56.262Z</time></trkpt><trkpt lat="46.1594761" lon="12.1352799"><ele>432.0</ele><time>2026-05-01T15:28:59.254Z</time></trkpt><trkpt lat="46.1593839" lon="12.1352671"><ele>432.0</ele><time>2026-05-01T15:29:02.257Z</time></trkpt><trkpt lat="46.1592949" lon="12.1352533"><ele>432.0</ele><time>2026-05-01T15:29:05.257Z</time></trkpt><trkpt lat="46.1592052" lon="12.1352404"><ele>432.0</ele><time>2026-05-01T15:29:08.263Z</time></trkpt><trkpt lat="46.1591162" lon="12.1352313"><ele>432.0</ele><time>2026-05-01T15:29:11.263Z</time></trkpt><trkpt lat="46.1590258" lon="12.1352295"><ele>432.0</ele><time>2026-05-01T15:29:14.259Z</time></trkpt><trkpt lat="46.1589624" lon="12.1352343"><ele>432.0</ele><time>2026-05-01T15:29:16.257Z</time></trkpt><trkpt lat="46.1588988" lon="12.1352488"><ele>432.42857142857144</ele><time>2026-05-01T15:29:18.259Z</time></trkpt><trkpt lat="46.1588286" lon="12.1352551"><ele>432.85714285714283</ele><time>2026-05-01T15:29:20.258Z</time></trkpt><trkpt lat="46.1587564" lon="12.1352691"><ele>433.28571428571433</ele><time>2026-05-01T15:29:22.258Z</time></trkpt><trkpt lat="46.158685" lon="12.1352789"><ele>433.7142857142857</ele><time>2026-05-01T15:29:24.26Z</time></trkpt><trkpt lat="46.1586158" lon="12.1352905"><ele>434.14285714285717</ele><time>2026-05-01T15:29:26.258Z</time></trkpt><trkpt lat="46.1585449" lon="12.1353148"><ele>434.5714285714286</ele><time>2026-05-01T15:29:28.266Z</time></trkpt><trkpt lat="46.1584743" lon="12.1353546"><ele>435.0</ele><time>2026-05-01T15:29:30.249Z</time></trkpt><trkpt lat="46.1583984" lon="12.1353886"><ele>435.0</ele><time>2026-05-01T15:29:32.253Z</time></trkpt><trkpt lat="46.1583315" lon="12.1354143"><ele>435.0</ele><time>2026-05-01T15:29:34.258Z</time></trkpt><trkpt lat="46.15824" lon="12.1354536"><ele>435.0</ele><time>2026-05-01T15:29:37.25Z</time></trkpt><trkpt lat="46.1581657" lon="12.1354376"><ele>435.0</ele><time>2026-05-01T15:29:39.252Z</time></trkpt><trkpt lat="46.1580863" lon="12.1353756"><ele>435.0</ele><time>2026-05-01T15:29:41.261Z</time></trkpt><trkpt lat="46.158013" lon="12.135263"><ele>435.0</ele><time>2026-05-01T15:29:43.261Z</time></trkpt><trkpt lat="46.1579402" lon="12.1351194"><ele>434.0</ele><time>2026-05-01T15:29:45.266Z</time></trkpt><trkpt lat="46.1578643" lon="12.1349812"><ele>433.0</ele><time>2026-05-01T15:29:47.258Z</time></trkpt><trkpt lat="46.1578266" lon="12.1349073"><ele>432.0</ele><time>2026-05-01T15:29:48.26Z</time></trkpt><trkpt lat="46.1577858" lon="12.1348325"><ele>431.0</ele><time>2026-05-01T15:29:49.254Z</time></trkpt><trkpt lat="46.1576991" lon="12.134711"><ele>430.0</ele><time>2026-05-01T15:29:51.254Z</time></trkpt><trkpt lat="46.1575869" lon="12.1346839"><ele>430.00000000000006</ele><time>2026-05-01T15:29:53.266Z</time></trkpt><trkpt lat="46.1574754" lon="12.1347572"><ele>430.0</ele><time>2026-05-01T15:29:55.251Z</time></trkpt><trkpt lat="46.1574311" lon="12.1348301"><ele>430.0</ele><time>2026-05-01T15:29:56.252Z</time></trkpt><trkpt lat="46.1573937" lon="12.1349198"><ele>430.0</ele><time>2026-05-01T15:29:57.262Z</time></trkpt><trkpt lat="46.1573626" lon="12.1350203"><ele>430.00000000000006</ele><time>2026-05-01T15:29:58.255Z</time></trkpt><trkpt lat="46.1573511" lon="12.1351292"><ele>430.0</ele><time>2026-05-01T15:29:59.26Z</time></trkpt><trkpt lat="46.1573407" lon="12.1352344"><ele>429.2857142857143</ele><time>2026-05-01T15:30:00.266Z</time></trkpt><trkpt lat="46.1573389" lon="12.1353449"><ele>428.5714285714286</ele><time>2026-05-01T15:30:01.263Z</time></trkpt><trkpt lat="46.1573489" lon="12.1354496"><ele>427.8571428571429</ele><time>2026-05-01T15:30:02.263Z</time></trkpt><trkpt lat="46.1573617" lon="12.1355581"><ele>427.1428571428571</ele><time>2026-05-01T15:30:03.261Z</time></trkpt><trkpt lat="46.1573755" lon="12.1356664"><ele>426.42857142857144</ele><time>2026-05-01T15:30:04.256Z</time></trkpt><trkpt lat="46.1573873" lon="12.1357733"><ele>425.7142857142857</ele><time>2026-05-01T15:30:05.265Z</time></trkpt><trkpt lat="46.1574007" lon="12.1358668"><ele>425.0</ele><time>2026-05-01T15:30:06.258Z</time></trkpt><trkpt lat="46.1573651" lon="12.1360127"><ele>424.2</ele><time>2026-05-01T15:30:08.252Z</time></trkpt><trkpt lat="46.1572766" lon="12.1360103"><ele>423.4</ele><time>2026-05-01T15:30:10.253Z</time></trkpt><trkpt lat="46.1572375" lon="12.1358882"><ele>422.6</ele><time>2026-05-01T15:30:12.258Z</time></trkpt><trkpt lat="46.1572081" lon="12.1357577"><ele>421.8</ele><time>2026-05-01T15:30:14.263Z</time></trkpt><trkpt lat="46.1571584" lon="12.1356155"><ele>421.0</ele><time>2026-05-01T15:30:16.266Z</time></trkpt><trkpt lat="46.1571035" lon="12.1354842"><ele>419.8</ele><time>2026-05-01T15:30:18.266Z</time></trkpt><trkpt lat="46.1570439" lon="12.135347"><ele>418.6</ele><time>2026-05-01T15:30:20.263Z</time></trkpt><trkpt lat="46.1569792" lon="12.1351996"><ele>417.4</ele><time>2026-05-01T15:30:22.266Z</time></trkpt><trkpt lat="46.1569087" lon="12.1350625"><ele>416.2</ele><time>2026-05-01T15:30:24.262Z</time></trkpt><trkpt lat="46.1568713" lon="12.1349893"><ele>415.0</ele><time>2026-05-01T15:30:25.261Z</time></trkpt><trkpt lat="46.1568299" lon="12.1349121"><ele>414.00000000000006</ele><time>2026-05-01T15:30:26.265Z</time></trkpt><trkpt lat="46.1567822" lon="12.1348286"><ele>413.0</ele><time>2026-05-01T15:30:27.265Z</time></trkpt><trkpt lat="46.156734" lon="12.1347253"><ele>412.0</ele><time>2026-05-01T15:30:28.255Z</time></trkpt><trkpt lat="46.1566985" lon="12.1346154"><ele>411.0</ele><time>2026-05-01T15:30:29.264Z</time></trkpt><trkpt lat="46.1566805" lon="12.1344814"><ele>410.00000000000006</ele><time>2026-05-01T15:30:30.264Z</time></trkpt><trkpt lat="46.156688" lon="12.1343412"><ele>409.0</ele><time>2026-05-01T15:30:31.255Z</time></trkpt><trkpt lat="46.1567084" lon="12.1342007"><ele>409.0</ele><time>2026-05-01T15:30:32.261Z</time></trkpt><trkpt lat="46.1567079" lon="12.1340564"><ele>409.0</ele><time>2026-05-01T15:30:33.258Z</time></trkpt><trkpt lat="46.156695" lon="12.133912"><ele>409.0</ele><time>2026-05-01T15:30:34.267Z</time></trkpt><trkpt lat="46.1566722" lon="12.1337675"><ele>409.0</ele><time>2026-05-01T15:30:35.26Z</time></trkpt><trkpt lat="46.1566423" lon="12.1336221"><ele>409.0</ele><time>2026-05-01T15:30:36.263Z</time></trkpt><trkpt lat="46.1566176" lon="12.1334682"><ele>409.2</ele><time>2026-05-01T15:30:37.266Z</time></trkpt><trkpt lat="46.1565986" lon="12.1333168"><ele>409.4</ele><time>2026-05-01T15:30:38.263Z</time></trkpt><trkpt lat="46.1565721" lon="12.1331679"><ele>409.6</ele><time>2026-05-01T15:30:39.259Z</time></trkpt><trkpt lat="46.1565428" lon="12.1330237"><ele>409.8</ele><time>2026-05-01T15:30:40.259Z</time></trkpt><trkpt lat="46.1565103" lon="12.1328761"><ele>410.0</ele><time>2026-05-01T15:30:41.264Z</time></trkpt><trkpt lat="46.1564798" lon="12.1327289"><ele>404.5</ele><time>2026-05-01T15:30:42.26Z</time></trkpt><trkpt lat="46.1564456" lon="12.1325822"><ele>399.0</ele><time>2026-05-01T15:30:43.263Z</time></trkpt><trkpt lat="46.1563984" lon="12.1324341"><ele>393.5</ele><time>2026-05-01T15:30:44.264Z</time></trkpt><trkpt lat="46.1563391" lon="12.1322849"><ele>388.0</ele><time>2026-05-01T15:30:45.257Z</time></trkpt><trkpt lat="46.156275" lon="12.1321297"><ele>388.0</ele><time>2026-05-01T15:30:46.266Z</time></trkpt><trkpt lat="46.1562076" lon="12.1319731"><ele>388.0</ele><time>2026-05-01T15:30:47.258Z</time></trkpt><trkpt lat="46.1561464" lon="12.1318163"><ele>388.0</ele><time>2026-05-01T15:30:48.257Z</time></trkpt><trkpt lat="46.1560865" lon="12.13167"><ele>388.0</ele><time>2026-05-01T15:30:49.264Z</time></trkpt><trkpt lat="46.1560231" lon="12.1315256"><ele>388.75</ele><time>2026-05-01T15:30:50.263Z</time></trkpt><trkpt lat="46.1559601" lon="12.1314017"><ele>389.5</ele><time>2026-05-01T15:30:51.261Z</time></trkpt><trkpt lat="46.1558779" lon="12.1312813"><ele>390.25</ele><time>2026-05-01T15:30:52.251Z</time></trkpt><trkpt lat="46.1557813" lon="12.1311843"><ele>391.0</ele><time>2026-05-01T15:30:53.261Z</time></trkpt><trkpt lat="46.1556685" lon="12.1311164"><ele>388.0</ele><time>2026-05-01T15:30:54.251Z</time></trkpt><trkpt lat="46.1555603" lon="12.1310595"><ele>385.0</ele><time>2026-05-01T15:30:55.259Z</time></trkpt><trkpt lat="46.1554644" lon="12.1309748"><ele>382.0</ele><time>2026-05-01T15:30:56.251Z</time></trkpt><trkpt lat="46.1553843" lon="12.1308619"><ele>379.0</ele><time>2026-05-01T15:30:57.261Z</time></trkpt><trkpt lat="46.1553248" lon="12.1307338"><ele>376.0</ele><time>2026-05-01T15:30:58.261Z</time></trkpt><trkpt lat="46.1552815" lon="12.1305982"><ele>376.0</ele><time>2026-05-01T15:30:59.257Z</time></trkpt><trkpt lat="46.1552403" lon="12.1304806"><ele>376.0</ele><time>2026-05-01T15:31:00.258Z</time></trkpt><trkpt lat="46.1552049" lon="12.1303854"><ele>376.0</ele><time>2026-05-01T15:31:01.256Z</time></trkpt><trkpt lat="46.1551699" lon="12.1303064"><ele>376.0</ele><time>2026-05-01T15:31:02.261Z</time></trkpt><trkpt lat="46.15515" lon="12.1301909"><ele>376.0</ele><time>2026-05-01T15:31:04.255Z</time></trkpt><trkpt lat="46.1551142" lon="12.1301072"><ele>376.0</ele><time>2026-05-01T15:31:58.262Z</time></trkpt><trkpt lat="46.1550762" lon="12.130018"><ele>376.0</ele><time>2026-05-01T15:32:01.254Z</time></trkpt><trkpt lat="46.1550343" lon="12.1299068"><ele>376.0</ele><time>2026-05-01T15:32:03.26Z</time></trkpt><trkpt lat="46.1549932" lon="12.1297667"><ele>376.0</ele><time>2026-05-01T15:32:05.259Z</time></trkpt><trkpt lat="46.1549429" lon="12.1296367"><ele>376.0</ele><time>2026-05-01T15:32:07.259Z</time></trkpt><trkpt lat="46.1549017" lon="12.1295045"><ele>376.0</ele><time>2026-05-01T15:32:09.264Z</time></trkpt><trkpt lat="46.1548583" lon="12.1293719"><ele>375.8333333333333</ele><time>2026-05-01T15:32:11.261Z</time></trkpt><trkpt lat="46.1548136" lon="12.1292505"><ele>375.66666666666663</ele><time>2026-05-01T15:32:13.263Z</time></trkpt><trkpt lat="46.1547731" lon="12.1291303"><ele>375.5</ele><time>2026-05-01T15:32:15.265Z</time></trkpt><trkpt lat="46.1547378" lon="12.1290184"><ele>375.3333333333333</ele><time>2026-05-01T15:32:17.262Z</time></trkpt><trkpt lat="46.1547018" lon="12.1289198"><ele>375.1666666666667</ele><time>2026-05-01T15:32:19.253Z</time></trkpt><trkpt lat="46.1546634" lon="12.1288105"><ele>375.0</ele><time>2026-05-01T15:32:21.265Z</time></trkpt><trkpt lat="46.1546197" lon="12.1286977"><ele>375.4</ele><time>2026-05-01T15:32:23.265Z</time></trkpt><trkpt lat="46.1545758" lon="12.1285844"><ele>375.8</ele><time>2026-05-01T15:32:25.262Z</time></trkpt><trkpt lat="46.1545299" lon="12.1284727"><ele>376.20000000000005</ele><time>2026-05-01T15:32:27.268Z</time></trkpt><trkpt lat="46.1544905" lon="12.1283606"><ele>376.6</ele><time>2026-05-01T15:32:29.256Z</time></trkpt><trkpt lat="46.1544448" lon="12.1282457"><ele>377.0</ele><time>2026-05-01T15:32:31.252Z</time></trkpt><trkpt lat="46.1543965" lon="12.1281297"><ele>377.40000000000003</ele><time>2026-05-01T15:32:33.257Z</time></trkpt><trkpt lat="46.1543514" lon="12.1280119"><ele>377.8</ele><time>2026-05-01T15:32:35.259Z</time></trkpt><trkpt lat="46.1543012" lon="12.1278918"><ele>378.2</ele><time>2026-05-01T15:32:37.256Z</time></trkpt><trkpt lat="46.1542567" lon="12.12777"><ele>378.6</ele><time>2026-05-01T15:32:39.257Z</time></trkpt><trkpt lat="46.1542082" lon="12.1276558"><ele>379.0</ele><time>2026-05-01T15:32:41.256Z</time></trkpt><trkpt lat="46.1541568" lon="12.1275563"><ele>379.0</ele><time>2026-05-01T15:32:43.264Z</time></trkpt><trkpt lat="46.1540767" lon="12.1275326"><ele>379.0</ele><time>2026-05-01T15:32:45.253Z</time></trkpt><trkpt lat="46.1539883" lon="12.1275785"><ele>379.0</ele><time>2026-05-01T15:32:47.258Z</time></trkpt><trkpt lat="46.1538973" lon="12.1276415"><ele>379.0</ele><time>2026-05-01T15:32:49.262Z</time></trkpt><trkpt lat="46.1538037" lon="12.1277067"><ele>379.0</ele><time>2026-05-01T15:32:51.269Z</time></trkpt><trkpt lat="46.1537084" lon="12.1277919"><ele>378.6</ele><time>2026-05-01T15:32:53.263Z</time></trkpt><trkpt lat="46.1536395" lon="12.1279101"><ele>378.2</ele><time>2026-05-01T15:32:55.265Z</time></trkpt><trkpt lat="46.153637" lon="12.1280628"><ele>377.8</ele><time>2026-05-01T15:32:57.259Z</time></trkpt><trkpt lat="46.1536862" lon="12.1281929"><ele>377.40000000000003</ele><time>2026-05-01T15:32:59.255Z</time></trkpt><trkpt lat="46.1537388" lon="12.1283111"><ele>377.0</ele><time>2026-05-01T15:33:01.265Z</time></trkpt><trkpt lat="46.1537568" lon="12.1284318"><ele>377.0</ele><time>2026-05-01T15:33:03.267Z</time></trkpt><trkpt lat="46.1537019" lon="12.1285299"><ele>377.0</ele><time>2026-05-01T15:33:05.256Z</time></trkpt><trkpt lat="46.1536096" lon="12.1285964"><ele>377.0</ele><time>2026-05-01T15:33:07.257Z</time></trkpt><trkpt lat="46.1535184" lon="12.1286655"><ele>377.0</ele><time>2026-05-01T15:33:09.266Z</time></trkpt><trkpt lat="46.1534229" lon="12.1287353"><ele>377.0</ele><time>2026-05-01T15:33:11.265Z</time></trkpt><trkpt lat="46.1533293" lon="12.1288116"><ele>377.0</ele><time>2026-05-01T15:33:13.26Z</time></trkpt><trkpt lat="46.1532331" lon="12.1288827"><ele>377.0</ele><time>2026-05-01T15:33:15.267Z</time></trkpt><trkpt lat="46.1531363" lon="12.1289607"><ele>377.0</ele><time>2026-05-01T15:33:17.267Z</time></trkpt><trkpt lat="46.1530419" lon="12.1290423"><ele>377.0</ele><time>2026-05-01T15:33:19.264Z</time></trkpt><trkpt lat="46.1529436" lon="12.1291235"><ele>377.0</ele><time>2026-05-01T15:33:21.264Z</time></trkpt><trkpt lat="46.1528483" lon="12.1292117"><ele>376.8</ele><time>2026-05-01T15:33:23.27Z</time></trkpt><trkpt lat="46.1527485" lon="12.1292854"><ele>376.6</ele><time>2026-05-01T15:33:25.264Z</time></trkpt><trkpt lat="46.1526493" lon="12.1293472"><ele>376.40000000000003</ele><time>2026-05-01T15:33:27.266Z</time></trkpt><trkpt lat="46.1525628" lon="12.1294148"><ele>376.20000000000005</ele><time>2026-05-01T15:33:29.264Z</time></trkpt><trkpt lat="46.152479" lon="12.1294828"><ele>376.0</ele><time>2026-05-01T15:33:31.269Z</time></trkpt><trkpt lat="46.1523901" lon="12.129508"><ele>375.66666666666663</ele><time>2026-05-01T15:33:33.265Z</time></trkpt><trkpt lat="46.1523276" lon="12.1294266"><ele>375.3333333333333</ele><time>2026-05-01T15:33:35.252Z</time></trkpt><trkpt lat="46.1522813" lon="12.1293148"><ele>375.0</ele><time>2026-05-01T15:33:37.261Z</time></trkpt><trkpt lat="46.1522338" lon="12.1291943"><ele>374.6666666666667</ele><time>2026-05-01T15:33:39.264Z</time></trkpt><trkpt lat="46.1521731" lon="12.1291151"><ele>374.33333333333337</ele><time>2026-05-01T15:33:41.266Z</time></trkpt><trkpt lat="46.1520869" lon="12.1291175"><ele>374.0</ele><time>2026-05-01T15:33:43.26Z</time></trkpt><trkpt lat="46.1519922" lon="12.1291788"><ele>374.0</ele><time>2026-05-01T15:33:45.266Z</time></trkpt><trkpt lat="46.1518958" lon="12.1292513"><ele>374.0</ele><time>2026-05-01T15:33:47.267Z</time></trkpt><trkpt lat="46.1518042" lon="12.1293164"><ele>374.0</ele><time>2026-05-01T15:33:49.267Z</time></trkpt><trkpt lat="46.1517148" lon="12.1293945"><ele>374.0</ele><time>2026-05-01T15:33:51.259Z</time></trkpt><trkpt lat="46.1516244" lon="12.1294689"><ele>374.0</ele><time>2026-05-01T15:33:53.264Z</time></trkpt><trkpt lat="46.1515378" lon="12.1295345"><ele>374.0</ele><time>2026-05-01T15:33:55.265Z</time></trkpt><trkpt lat="46.1514401" lon="12.12958"><ele>374.0</ele><time>2026-05-01T15:33:57.266Z</time></trkpt><trkpt lat="46.1513448" lon="12.1295388"><ele>374.0</ele><time>2026-05-01T15:33:59.268Z</time></trkpt><trkpt lat="46.1512674" lon="12.1294589"><ele>374.0</ele><time>2026-05-01T15:34:01.262Z</time></trkpt><trkpt lat="46.1511995" lon="12.1293932"><ele>374.0</ele><time>2026-05-01T15:34:03.271Z</time></trkpt><trkpt lat="46.1511349" lon="12.1293304"><ele>374.0</ele><time>2026-05-01T15:34:05.272Z</time></trkpt><trkpt lat="46.1510731" lon="12.1292939"><ele>374.0</ele><time>2026-05-01T15:34:07.267Z</time></trkpt><trkpt lat="46.1510551" lon="12.1292017"><ele>374.0</ele><time>2026-05-01T15:34:11.259Z</time></trkpt><trkpt lat="46.1511327" lon="12.1292106"><ele>374.0</ele><time>2026-05-01T15:34:14.267Z</time></trkpt><trkpt lat="46.1512036" lon="12.1291674"><ele>374.0</ele><time>2026-05-01T15:34:17.26Z</time></trkpt><trkpt lat="46.151208" lon="12.1290675"><ele>374.0</ele><time>2026-05-01T15:34:20.26Z</time></trkpt><trkpt lat="46.1511652" lon="12.1289885"><ele>374.0</ele><time>2026-05-01T15:34:24.269Z</time></trkpt><trkpt lat="46.1512106" lon="12.1290623"><ele>374.0</ele><time>2026-05-01T15:34:29.263Z</time></trkpt><trkpt lat="46.1511724" lon="12.12917"><ele>374.0</ele><time>2026-05-01T15:34:32.264Z</time></trkpt><trkpt lat="46.1511181" lon="12.1292215"><ele>374.0</ele><time>2026-05-01T15:34:35.257Z</time></trkpt><trkpt lat="46.151116" lon="12.1293288"><ele>374.0</ele><time>2026-05-01T15:34:40.262Z</time></trkpt><trkpt lat="46.1511795" lon="12.1293933"><ele>374.0</ele><time>2026-05-01T15:34:43.265Z</time></trkpt><trkpt lat="46.1512529" lon="12.1294718"><ele>374.0</ele><time>2026-05-01T15:34:46.265Z</time></trkpt><trkpt lat="46.1512786" lon="12.1295637"><ele>374.0</ele><time>2026-05-01T15:34:48.257Z</time></trkpt><trkpt lat="46.1513032" lon="12.1296683"><ele>374.0</ele><time>2026-05-01T15:34:50.26Z</time></trkpt><trkpt lat="46.1513255" lon="12.1297763"><ele>374.0</ele><time>2026-05-01T15:34:52.254Z</time></trkpt><trkpt lat="46.151354" lon="12.1298711"><ele>374.0</ele><time>2026-05-01T15:34:54.263Z</time></trkpt><trkpt lat="46.1513814" lon="12.1299917"><ele>374.0</ele><time>2026-05-01T15:34:57.252Z</time></trkpt><trkpt lat="46.1514254" lon="12.130102"><ele>374.0</ele><time>2026-05-01T15:35:00.262Z</time></trkpt><trkpt lat="46.1514615" lon="12.1302224"><ele>374.1666666666667</ele><time>2026-05-01T15:35:03.264Z</time></trkpt><trkpt lat="46.1514883" lon="12.1303293"><ele>374.33333333333337</ele><time>2026-05-01T15:35:06.257Z</time></trkpt><trkpt lat="46.1515248" lon="12.1304565"><ele>374.5</ele><time>2026-05-01T15:35:09.263Z</time></trkpt><trkpt lat="46.151549" lon="12.1305615"><ele>374.6666666666667</ele><time>2026-05-01T15:35:11.257Z</time></trkpt><trkpt lat="46.1515792" lon="12.1306506"><ele>374.8333333333333</ele><time>2026-05-01T15:35:13.264Z</time></trkpt><trkpt lat="46.1516141" lon="12.1307692"><ele>375.0</ele><time>2026-05-01T15:35:16.264Z</time></trkpt><trkpt lat="46.1516369" lon="12.1308657"><ele>375.5714285714286</ele><time>2026-05-01T15:35:19.259Z</time></trkpt><trkpt lat="46.1515779" lon="12.1308993"><ele>376.1428571428571</ele><time>2026-05-01T15:35:22.256Z</time></trkpt><trkpt lat="46.1515149" lon="12.1308961"><ele>376.7142857142857</ele><time>2026-05-01T15:35:24.262Z</time></trkpt><trkpt lat="46.1514514" lon="12.130884"><ele>377.28571428571433</ele><time>2026-05-01T15:35:26.265Z</time></trkpt><trkpt lat="46.1513616" lon="12.1308527"><ele>377.8571428571429</ele><time>2026-05-01T15:35:29.264Z</time></trkpt><trkpt lat="46.1512981" lon="12.1308316"><ele>378.42857142857144</ele><time>2026-05-01T15:35:31.265Z</time></trkpt><trkpt lat="46.1512309" lon="12.1308138"><ele>379.0</ele><time>2026-05-01T15:35:33.259Z</time></trkpt><trkpt lat="46.1511594" lon="12.1308151"><ele>379.3333333333333</ele><time>2026-05-01T15:35:35.267Z</time></trkpt><trkpt lat="46.1510785" lon="12.130837"><ele>379.66666666666663</ele><time>2026-05-01T15:35:37.262Z</time></trkpt><trkpt lat="46.1509964" lon="12.1308565"><ele>380.0</ele><time>2026-05-01T15:35:39.266Z</time></trkpt><trkpt lat="46.1509183" lon="12.1308155"><ele>380.3333333333333</ele><time>2026-05-01T15:35:41.264Z</time></trkpt><trkpt lat="46.1508567" lon="12.1307511"><ele>380.6666666666667</ele><time>2026-05-01T15:35:43.261Z</time></trkpt><trkpt lat="46.1508033" lon="12.1306946"><ele>381.0</ele><time>2026-05-01T15:35:45.261Z</time></trkpt><trkpt lat="46.1507372" lon="12.1306556"><ele>380.3333333333333</ele><time>2026-05-01T15:35:47.265Z</time></trkpt><trkpt lat="46.1506564" lon="12.1306334"><ele>379.6666666666667</ele><time>2026-05-01T15:35:49.26Z</time></trkpt><trkpt lat="46.1505789" lon="12.1306115"><ele>379.0</ele><time>2026-05-01T15:35:51.262Z</time></trkpt><trkpt lat="46.1505129" lon="12.130561"><ele>378.33333333333337</ele><time>2026-05-01T15:35:53.258Z</time></trkpt><trkpt lat="46.150456" lon="12.1305001"><ele>377.6666666666667</ele><time>2026-05-01T15:35:55.262Z</time></trkpt><trkpt lat="46.1503899" lon="12.1304483"><ele>377.0</ele><time>2026-05-01T15:35:57.265Z</time></trkpt><trkpt lat="46.1503256" lon="12.130415"><ele>377.0</ele><time>2026-05-01T15:35:59.251Z</time></trkpt><trkpt lat="46.1502497" lon="12.1303459"><ele>377.0</ele><time>2026-05-01T15:36:02.25Z</time></trkpt><trkpt lat="46.1501681" lon="12.1302937"><ele>377.0</ele><time>2026-05-01T15:36:05.254Z</time></trkpt><trkpt lat="46.1500949" lon="12.1302898"><ele>377.0</ele><time>2026-05-01T15:36:50.258Z</time></trkpt><trkpt lat="46.1500277" lon="12.1303719"><ele>377.0</ele><time>2026-05-01T15:36:53.265Z</time></trkpt><trkpt lat="46.1499877" lon="12.1304557"><ele>377.0</ele><time>2026-05-01T15:36:55.267Z</time></trkpt><trkpt lat="46.1499459" lon="12.1305364"><ele>377.0</ele><time>2026-05-01T15:36:57.26Z</time></trkpt><trkpt lat="46.1498999" lon="12.1306116"><ele>377.0</ele><time>2026-05-01T15:36:59.266Z</time></trkpt><trkpt lat="46.1498497" lon="12.1306845"><ele>377.0</ele><time>2026-05-01T15:37:01.26Z</time></trkpt><trkpt lat="46.1497999" lon="12.1307473"><ele>377.0</ele><time>2026-05-01T15:37:03.269Z</time></trkpt><trkpt lat="46.149729" lon="12.1308318"><ele>377.0</ele><time>2026-05-01T15:37:06.266Z</time></trkpt><trkpt lat="46.1496733" lon="12.1309073"><ele>377.0</ele><time>2026-05-01T15:37:08.258Z</time></trkpt><trkpt lat="46.149617" lon="12.1309859"><ele>377.57142857142856</ele><time>2026-05-01T15:37:10.265Z</time></trkpt><trkpt lat="46.1495593" lon="12.1310632"><ele>378.1428571428571</ele><time>2026-05-01T15:37:12.257Z</time></trkpt><trkpt lat="46.1494998" lon="12.1311285"><ele>378.71428571428567</ele><time>2026-05-01T15:37:14.26Z</time></trkpt><trkpt lat="46.1494466" lon="12.131198"><ele>379.2857142857143</ele><time>2026-05-01T15:37:16.268Z</time></trkpt><trkpt lat="46.1493954" lon="12.1312731"><ele>379.8571428571429</ele><time>2026-05-01T15:37:18.267Z</time></trkpt><trkpt lat="46.1493477" lon="12.131354"><ele>380.4285714285714</ele><time>2026-05-01T15:37:20.265Z</time></trkpt><trkpt lat="46.1493056" lon="12.1314449"><ele>381.0</ele><time>2026-05-01T15:37:22.267Z</time></trkpt><trkpt lat="46.1492649" lon="12.1315408"><ele>381.6666666666667</ele><time>2026-05-01T15:37:24.261Z</time></trkpt><trkpt lat="46.1492308" lon="12.1316481"><ele>382.33333333333337</ele><time>2026-05-01T15:37:26.264Z</time></trkpt><trkpt lat="46.1491963" lon="12.131762"><ele>383.0</ele><time>2026-05-01T15:37:28.269Z</time></trkpt><trkpt lat="46.1491674" lon="12.1318798"><ele>383.6666666666667</ele><time>2026-05-01T15:37:30.266Z</time></trkpt><trkpt lat="46.1491423" lon="12.1319931"><ele>384.33333333333337</ele><time>2026-05-01T15:37:32.262Z</time></trkpt><trkpt lat="46.1491114" lon="12.1321076"><ele>385.0</ele><time>2026-05-01T15:37:34.266Z</time></trkpt><trkpt lat="46.1490741" lon="12.132226"><ele>384.8</ele><time>2026-05-01T15:37:36.269Z</time></trkpt><trkpt lat="46.1490354" lon="12.1323475"><ele>384.6</ele><time>2026-05-01T15:37:38.267Z</time></trkpt><trkpt lat="46.1490024" lon="12.1324811"><ele>384.4</ele><time>2026-05-01T15:37:40.267Z</time></trkpt><trkpt lat="46.1489659" lon="12.1326137"><ele>384.2</ele><time>2026-05-01T15:37:42.259Z</time></trkpt><trkpt lat="46.1489238" lon="12.1327389"><ele>384.0</ele><time>2026-05-01T15:37:44.262Z</time></trkpt><trkpt lat="46.1488864" lon="12.1328652"><ele>384.0</ele><time>2026-05-01T15:37:46.263Z</time></trkpt><trkpt lat="46.1488335" lon="12.1329804"><ele>384.0</ele><time>2026-05-01T15:37:48.262Z</time></trkpt><trkpt lat="46.1487715" lon="12.1330982"><ele>384.0</ele><time>2026-05-01T15:37:50.265Z</time></trkpt><trkpt lat="46.1487029" lon="12.1332099"><ele>384.0</ele><time>2026-05-01T15:37:52.254Z</time></trkpt><trkpt lat="46.1486382" lon="12.1333212"><ele>384.0</ele><time>2026-05-01T15:37:54.264Z</time></trkpt><trkpt lat="46.1485684" lon="12.1334256"><ele>384.4</ele><time>2026-05-01T15:37:56.263Z</time></trkpt><trkpt lat="46.1484949" lon="12.1335247"><ele>384.79999999999995</ele><time>2026-05-01T15:37:58.262Z</time></trkpt><trkpt lat="46.1484221" lon="12.1336152"><ele>385.20000000000005</ele><time>2026-05-01T15:38:00.262Z</time></trkpt><trkpt lat="46.1483532" lon="12.133704"><ele>385.6</ele><time>2026-05-01T15:38:02.264Z</time></trkpt><trkpt lat="46.148275" lon="12.1337796"><ele>386.0</ele><time>2026-05-01T15:38:04.262Z</time></trkpt><trkpt lat="46.1481944" lon="12.1338385"><ele>386.3333333333333</ele><time>2026-05-01T15:38:06.252Z</time></trkpt><trkpt lat="46.1481099" lon="12.1338819"><ele>386.66666666666663</ele><time>2026-05-01T15:38:08.267Z</time></trkpt><trkpt lat="46.1480337" lon="12.1339072"><ele>387.0</ele><time>2026-05-01T15:38:10.265Z</time></trkpt><trkpt lat="46.1479593" lon="12.1339423"><ele>387.33333333333337</ele><time>2026-05-01T15:38:12.25Z</time></trkpt><trkpt lat="46.1478908" lon="12.1339748"><ele>387.6666666666667</ele><time>2026-05-01T15:38:14.263Z</time></trkpt><trkpt lat="46.1478225" lon="12.134008"><ele>388.0</ele><time>2026-05-01T15:38:16.262Z</time></trkpt><trkpt lat="46.1477563" lon="12.1340356"><ele>388.57142857142856</ele><time>2026-05-01T15:38:18.258Z</time></trkpt><trkpt lat="46.1476877" lon="12.1340639"><ele>389.14285714285717</ele><time>2026-05-01T15:38:20.257Z</time></trkpt><trkpt lat="46.1476215" lon="12.1340902"><ele>389.7142857142857</ele><time>2026-05-01T15:38:22.254Z</time></trkpt><trkpt lat="46.1475563" lon="12.1341152"><ele>390.2857142857143</ele><time>2026-05-01T15:38:24.264Z</time></trkpt><trkpt lat="46.1474894" lon="12.1341482"><ele>390.8571428571429</ele><time>2026-05-01T15:38:26.263Z</time></trkpt><trkpt lat="46.1474248" lon="12.1341885"><ele>391.42857142857144</ele><time>2026-05-01T15:38:28.262Z</time></trkpt><trkpt lat="46.1473663" lon="12.1342421"><ele>392.0</ele><time>2026-05-01T15:38:30.26Z</time></trkpt><trkpt lat="46.1473104" lon="12.1342998"><ele>393.0</ele><time>2026-05-01T15:38:32.262Z</time></trkpt><trkpt lat="46.1472521" lon="12.1343582"><ele>394.0</ele><time>2026-05-01T15:38:34.259Z</time></trkpt><trkpt lat="46.1471971" lon="12.1344194"><ele>395.0</ele><time>2026-05-01T15:38:36.279Z</time></trkpt><trkpt lat="46.147142" lon="12.1344855"><ele>396.0</ele><time>2026-05-01T15:38:38.26Z</time></trkpt><trkpt lat="46.1470888" lon="12.1345472"><ele>397.0</ele><time>2026-05-01T15:38:40.264Z</time></trkpt><trkpt lat="46.1470349" lon="12.1346125"><ele>398.0</ele><time>2026-05-01T15:38:42.26Z</time></trkpt><trkpt lat="46.1469823" lon="12.1346772"><ele>399.0</ele><time>2026-05-01T15:38:44.261Z</time></trkpt><trkpt lat="46.146932" lon="12.134744"><ele>399.0</ele><time>2026-05-01T15:38:46.259Z</time></trkpt><trkpt lat="46.146877" lon="12.1348057"><ele>399.0</ele><time>2026-05-01T15:38:48.256Z</time></trkpt><trkpt lat="46.146825" lon="12.1348718"><ele>399.0</ele><time>2026-05-01T15:38:50.26Z</time></trkpt><trkpt lat="46.1467728" lon="12.1349375"><ele>399.0</ele><time>2026-05-01T15:38:52.26Z</time></trkpt><trkpt lat="46.1467245" lon="12.1349988"><ele>399.0</ele><time>2026-05-01T15:38:54.26Z</time></trkpt><trkpt lat="46.1466739" lon="12.1350567"><ele>399.0</ele><time>2026-05-01T15:38:56.266Z</time></trkpt><trkpt lat="46.146621" lon="12.1351146"><ele>399.0</ele><time>2026-05-01T15:38:58.258Z</time></trkpt><trkpt lat="46.1465421" lon="12.1351744"><ele>400.3333333333333</ele><time>2026-05-01T15:39:01.264Z</time></trkpt><trkpt lat="46.1464573" lon="12.1351977"><ele>401.66666666666663</ele><time>2026-05-01T15:39:04.258Z</time></trkpt><trkpt lat="46.1463941" lon="12.1351801"><ele>403.0</ele><time>2026-05-01T15:39:06.261Z</time></trkpt><trkpt lat="46.1463378" lon="12.135129"><ele>404.3333333333333</ele><time>2026-05-01T15:39:08.259Z</time></trkpt><trkpt lat="46.146295" lon="12.1350597"><ele>405.66666666666663</ele><time>2026-05-01T15:39:10.26Z</time></trkpt><trkpt lat="46.1462505" lon="12.1349559"><ele>407.0</ele><time>2026-05-01T15:39:13.263Z</time></trkpt><trkpt lat="46.1462213" lon="12.1348389"><ele>406.99999999999994</ele><time>2026-05-01T15:39:16.256Z</time></trkpt><trkpt lat="46.146204" lon="12.1347191"><ele>407.0</ele><time>2026-05-01T15:39:19.265Z</time></trkpt><trkpt lat="46.146206" lon="12.1346067"><ele>407.0</ele><time>2026-05-01T15:39:22.262Z</time></trkpt><trkpt lat="46.1461938" lon="12.1344908"><ele>407.0</ele><time>2026-05-01T15:39:25.27Z</time></trkpt><trkpt lat="46.146175" lon="12.1343822"><ele>406.99999999999994</ele><time>2026-05-01T15:39:28.264Z</time></trkpt><trkpt lat="46.146161" lon="12.1342789"><ele>407.0</ele><time>2026-05-01T15:39:31.257Z</time></trkpt><trkpt lat="46.1461403" lon="12.1341764"><ele>406.99999999999994</ele><time>2026-05-01T15:39:34.264Z</time></trkpt><trkpt lat="46.146117" lon="12.134077"><ele>407.0</ele><time>2026-05-01T15:39:37.263Z</time></trkpt><trkpt lat="46.1460742" lon="12.1339818"><ele>407.0</ele><time>2026-05-01T15:39:40.257Z</time></trkpt><trkpt lat="46.1460241" lon="12.1338895"><ele>407.0</ele><time>2026-05-01T15:39:43.27Z</time></trkpt><trkpt lat="46.1459739" lon="12.1337999"><ele>406.99999999999994</ele><time>2026-05-01T15:39:46.26Z</time></trkpt><trkpt lat="46.1459206" lon="12.1337125"><ele>407.0</ele><time>2026-05-01T15:39:49.256Z</time></trkpt><trkpt lat="46.1458682" lon="12.1336202"><ele>405.8333333333333</ele><time>2026-05-01T15:39:52.267Z</time></trkpt><trkpt lat="46.1458112" lon="12.1335341"><ele>404.66666666666663</ele><time>2026-05-01T15:39:55.265Z</time></trkpt><trkpt lat="46.1457377" lon="12.1334807"><ele>403.5</ele><time>2026-05-01T15:39:58.256Z</time></trkpt><trkpt lat="46.1456565" lon="12.1334885"><ele>402.33333333333337</ele><time>2026-05-01T15:40:01.263Z</time></trkpt><trkpt lat="46.1455956" lon="12.1335588"><ele>401.1666666666667</ele><time>2026-05-01T15:40:04.264Z</time></trkpt><trkpt lat="46.1455622" lon="12.1336749"><ele>400.0</ele><time>2026-05-01T15:40:07.255Z</time></trkpt><trkpt lat="46.1455392" lon="12.1337969"><ele>400.0</ele><time>2026-05-01T15:40:10.265Z</time></trkpt><trkpt lat="46.1455155" lon="12.1339194"><ele>400.0</ele><time>2026-05-01T15:40:13.269Z</time></trkpt><trkpt lat="46.1454879" lon="12.1340451"><ele>400.0</ele><time>2026-05-01T15:40:16.263Z</time></trkpt><trkpt lat="46.1454623" lon="12.1341729"><ele>400.0</ele><time>2026-05-01T15:40:19.266Z</time></trkpt><trkpt lat="46.1454409" lon="12.1343015"><ele>400.0</ele><time>2026-05-01T15:40:22.249Z</time></trkpt><trkpt lat="46.1454146" lon="12.1344286"><ele>401.8571428571429</ele><time>2026-05-01T15:40:25.27Z</time></trkpt><trkpt lat="46.1453973" lon="12.1345175"><ele>403.7142857142857</ele><time>2026-05-01T15:40:27.259Z</time></trkpt><trkpt lat="46.1453779" lon="12.1346512"><ele>405.57142857142856</ele><time>2026-05-01T15:40:30.254Z</time></trkpt><trkpt lat="46.1453607" lon="12.1347419"><ele>407.42857142857144</ele><time>2026-05-01T15:40:32.267Z</time></trkpt><trkpt lat="46.1453454" lon="12.1348317"><ele>409.2857142857143</ele><time>2026-05-01T15:40:34.265Z</time></trkpt><trkpt lat="46.1453252" lon="12.1349232"><ele>411.14285714285717</ele><time>2026-05-01T15:40:36.259Z</time></trkpt><trkpt lat="46.1453044" lon="12.1350129"><ele>413.0</ele><time>2026-05-01T15:40:38.261Z</time></trkpt><trkpt lat="46.1452872" lon="12.1351034"><ele>413.16666666666663</ele><time>2026-05-01T15:40:40.255Z</time></trkpt><trkpt lat="46.145267" lon="12.135234"><ele>413.3333333333333</ele><time>2026-05-01T15:40:43.263Z</time></trkpt><trkpt lat="46.1452416" lon="12.1353641"><ele>413.5</ele><time>2026-05-01T15:40:46.256Z</time></trkpt><trkpt lat="46.1452259" lon="12.1354943"><ele>413.66666666666663</ele><time>2026-05-01T15:40:49.256Z</time></trkpt><trkpt lat="46.1452135" lon="12.1355844"><ele>413.8333333333333</ele><time>2026-05-01T15:40:51.257Z</time></trkpt><trkpt lat="46.1451919" lon="12.135714"><ele>414.0</ele><time>2026-05-01T15:40:54.261Z</time></trkpt><trkpt lat="46.1451813" lon="12.1358455"><ele>414.14285714285717</ele><time>2026-05-01T15:40:57.258Z</time></trkpt><trkpt lat="46.1451708" lon="12.1359731"><ele>414.2857142857143</ele><time>2026-05-01T15:41:00.258Z</time></trkpt><trkpt lat="46.1451664" lon="12.1360668"><ele>414.42857142857144</ele><time>2026-05-01T15:41:02.265Z</time></trkpt><trkpt lat="46.1451601" lon="12.1361648"><ele>414.57142857142856</ele><time>2026-05-01T15:41:04.266Z</time></trkpt><trkpt lat="46.1451547" lon="12.1362679"><ele>414.7142857142857</ele><time>2026-05-01T15:41:06.259Z</time></trkpt><trkpt lat="46.1451465" lon="12.1363713"><ele>414.8571428571429</ele><time>2026-05-01T15:41:08.262Z</time></trkpt><trkpt lat="46.1451396" lon="12.1364705"><ele>415.0</ele><time>2026-05-01T15:41:10.261Z</time></trkpt><trkpt lat="46.1451378" lon="12.1365663"><ele>415.2857142857143</ele><time>2026-05-01T15:41:12.256Z</time></trkpt><trkpt lat="46.1451279" lon="12.136657"><ele>415.57142857142856</ele><time>2026-05-01T15:41:14.258Z</time></trkpt><trkpt lat="46.1451226" lon="12.1367498"><ele>415.8571428571429</ele><time>2026-05-01T15:41:16.265Z</time></trkpt><trkpt lat="46.1451211" lon="12.1368447"><ele>416.1428571428571</ele><time>2026-05-01T15:41:18.261Z</time></trkpt><trkpt lat="46.1451119" lon="12.1369378"><ele>416.4285714285714</ele><time>2026-05-01T15:41:20.264Z</time></trkpt><trkpt lat="46.145104" lon="12.1370313"><ele>416.7142857142857</ele><time>2026-05-01T15:41:22.259Z</time></trkpt><trkpt lat="46.1450963" lon="12.1371256"><ele>417.0</ele><time>2026-05-01T15:41:24.267Z</time></trkpt><trkpt lat="46.1450864" lon="12.1372673"><ele>417.0</ele><time>2026-05-01T15:41:27.261Z</time></trkpt><trkpt lat="46.1450746" lon="12.1373627"><ele>417.0</ele><time>2026-05-01T15:41:29.26Z</time></trkpt><trkpt lat="46.1450657" lon="12.1374536"><ele>417.0</ele><time>2026-05-01T15:41:31.262Z</time></trkpt><trkpt lat="46.1450589" lon="12.1375467"><ele>417.0</ele><time>2026-05-01T15:41:33.261Z</time></trkpt><trkpt lat="46.1450447" lon="12.1376376"><ele>417.0</ele><time>2026-05-01T15:41:35.264Z</time></trkpt><trkpt lat="46.1450045" lon="12.137755"><ele>417.0</ele><time>2026-05-01T15:41:38.255Z</time></trkpt><trkpt lat="46.1449514" lon="12.1378571"><ele>417.0</ele><time>2026-05-01T15:41:41.265Z</time></trkpt><trkpt lat="46.14488" lon="12.1379431"><ele>417.1666666666667</ele><time>2026-05-01T15:41:44.264Z</time></trkpt><trkpt lat="46.1448009" lon="12.1380116"><ele>417.33333333333337</ele><time>2026-05-01T15:41:47.257Z</time></trkpt><trkpt lat="46.1447229" lon="12.1380737"><ele>417.5</ele><time>2026-05-01T15:41:50.263Z</time></trkpt><trkpt lat="46.1446466" lon="12.1381398"><ele>417.6666666666667</ele><time>2026-05-01T15:41:53.265Z</time></trkpt><trkpt lat="46.1445773" lon="12.1382068"><ele>417.83333333333337</ele><time>2026-05-01T15:41:56.263Z</time></trkpt><trkpt lat="46.1445096" lon="12.1382807"><ele>418.0</ele><time>2026-05-01T15:41:59.254Z</time></trkpt><trkpt lat="46.1444406" lon="12.138341"><ele>418.6666666666667</ele><time>2026-05-01T15:42:02.26Z</time></trkpt><trkpt lat="46.1443679" lon="12.1384004"><ele>419.33333333333337</ele><time>2026-05-01T15:42:05.255Z</time></trkpt><trkpt lat="46.1443029" lon="12.138465"><ele>420.0</ele><time>2026-05-01T15:42:08.26Z</time></trkpt><trkpt lat="46.1442439" lon="12.1385323"><ele>420.66666666666663</ele><time>2026-05-01T15:42:11.254Z</time></trkpt><trkpt lat="46.1441906" lon="12.1386017"><ele>421.3333333333333</ele><time>2026-05-01T15:42:14.267Z</time></trkpt><trkpt lat="46.1441503" lon="12.138686"><ele>422.0</ele><time>2026-05-01T15:42:17.262Z</time></trkpt><trkpt lat="46.1441184" lon="12.1387867"><ele>421.99999999999994</ele><time>2026-05-01T15:42:20.259Z</time></trkpt><trkpt lat="46.1440942" lon="12.1388967"><ele>422.0</ele><time>2026-05-01T15:42:23.262Z</time></trkpt><trkpt lat="46.1440723" lon="12.1390117"><ele>422.0</ele><time>2026-05-01T15:42:26.258Z</time></trkpt><trkpt lat="46.1440474" lon="12.1391353"><ele>422.0</ele><time>2026-05-01T15:42:29.289Z</time></trkpt><trkpt lat="46.1440291" lon="12.1392507"><ele>421.99999999999994</ele><time>2026-05-01T15:42:32.267Z</time></trkpt><trkpt lat="46.1439998" lon="12.1393705"><ele>422.0</ele><time>2026-05-01T15:42:35.263Z</time></trkpt><trkpt lat="46.1439664" lon="12.1394854"><ele>422.66666666666663</ele><time>2026-05-01T15:42:38.261Z</time></trkpt><trkpt lat="46.1439187" lon="12.1395845"><ele>423.3333333333333</ele><time>2026-05-01T15:42:41.262Z</time></trkpt><trkpt lat="46.1438723" lon="12.1396862"><ele>424.0</ele><time>2026-05-01T15:42:44.262Z</time></trkpt><trkpt lat="46.143808" lon="12.13978"><ele>424.66666666666663</ele><time>2026-05-01T15:42:47.261Z</time></trkpt><trkpt lat="46.1437462" lon="12.1398796"><ele>425.3333333333333</ele><time>2026-05-01T15:42:50.265Z</time></trkpt><trkpt lat="46.1436884" lon="12.1399801"><ele>426.0</ele><time>2026-05-01T15:42:53.265Z</time></trkpt><trkpt lat="46.1436339" lon="12.1400813"><ele>426.0</ele><time>2026-05-01T15:42:56.266Z</time></trkpt><trkpt lat="46.1435867" lon="12.1401883"><ele>426.0</ele><time>2026-05-01T15:42:59.261Z</time></trkpt><trkpt lat="46.143557" lon="12.1403022"><ele>426.0</ele><time>2026-05-01T15:43:02.255Z</time></trkpt><trkpt lat="46.1435539" lon="12.1403937"><ele>426.0</ele><time>2026-05-01T15:43:04.263Z</time></trkpt><trkpt lat="46.1435606" lon="12.1404892"><ele>426.0</ele><time>2026-05-01T15:43:06.259Z</time></trkpt><trkpt lat="46.1435864" lon="12.1405927"><ele>426.0</ele><time>2026-05-01T15:43:08.261Z</time></trkpt><trkpt lat="46.1436244" lon="12.1406965"><ele>427.6</ele><time>2026-05-01T15:43:10.268Z</time></trkpt><trkpt lat="46.1436838" lon="12.140818"><ele>429.20000000000005</ele><time>2026-05-01T15:43:12.258Z</time></trkpt><trkpt lat="46.1437476" lon="12.1409165"><ele>430.79999999999995</ele><time>2026-05-01T15:43:14.259Z</time></trkpt><trkpt lat="46.1438134" lon="12.1410025"><ele>432.4</ele><time>2026-05-01T15:43:16.258Z</time></trkpt><trkpt lat="46.143866" lon="12.1411018"><ele>434.0</ele><time>2026-05-01T15:43:18.259Z</time></trkpt><trkpt lat="46.1438843" lon="12.1412135"><ele>434.0</ele><time>2026-05-01T15:43:20.265Z</time></trkpt><trkpt lat="46.1438533" lon="12.1413328"><ele>434.0</ele><time>2026-05-01T15:43:22.264Z</time></trkpt><trkpt lat="46.1437655" lon="12.1413872"><ele>434.0</ele><time>2026-05-01T15:43:24.279Z</time></trkpt><trkpt lat="46.1436677" lon="12.1414165"><ele>434.0</ele><time>2026-05-01T15:43:26.262Z</time></trkpt><trkpt lat="46.1435718" lon="12.1414432"><ele>434.0</ele><time>2026-05-01T15:43:28.261Z</time></trkpt><trkpt lat="46.143474" lon="12.1414846"><ele>434.0</ele><time>2026-05-01T15:43:30.262Z</time></trkpt><trkpt lat="46.143378" lon="12.1415325"><ele>434.0</ele><time>2026-05-01T15:43:32.259Z</time></trkpt><trkpt lat="46.1432914" lon="12.1416049"><ele>434.0</ele><time>2026-05-01T15:43:34.273Z</time></trkpt><trkpt lat="46.1432175" lon="12.1417011"><ele>434.0</ele><time>2026-05-01T15:43:36.271Z</time></trkpt><trkpt lat="46.1431622" lon="12.141819"><ele>434.0</ele><time>2026-05-01T15:43:38.267Z</time></trkpt><trkpt lat="46.1431179" lon="12.1419624"><ele>431.75</ele><time>2026-05-01T15:43:40.265Z</time></trkpt><trkpt lat="46.1430898" lon="12.1421366"><ele>429.5</ele><time>2026-05-01T15:43:42.253Z</time></trkpt><trkpt lat="46.1430863" lon="12.1423035"><ele>427.25</ele><time>2026-05-01T15:43:44.261Z</time></trkpt><trkpt lat="46.1430991" lon="12.1424685"><ele>425.0</ele><time>2026-05-01T15:43:46.262Z</time></trkpt><trkpt lat="46.1431175" lon="12.1426399"><ele>425.0</ele><time>2026-05-01T15:43:48.265Z</time></trkpt><trkpt lat="46.1431421" lon="12.1428099"><ele>425.0</ele><time>2026-05-01T15:43:50.258Z</time></trkpt><trkpt lat="46.1431716" lon="12.1429758"><ele>425.0</ele><time>2026-05-01T15:43:52.273Z</time></trkpt><trkpt lat="46.1432037" lon="12.1431493"><ele>425.0</ele><time>2026-05-01T15:43:54.262Z</time></trkpt><trkpt lat="46.1432376" lon="12.1432267"><ele>425.0</ele><time>2026-05-01T15:43:55.256Z</time></trkpt><trkpt lat="46.1433099" lon="12.1433706"><ele>427.66666666666663</ele><time>2026-05-01T15:43:57.253Z</time></trkpt><trkpt lat="46.1433476" lon="12.1434458"><ele>430.3333333333333</ele><time>2026-05-01T15:43:58.264Z</time></trkpt><trkpt lat="46.143382" lon="12.1435232"><ele>433.0</ele><time>2026-05-01T15:43:59.268Z</time></trkpt><trkpt lat="46.1434121" lon="12.1436042"><ele>435.66666666666663</ele><time>2026-05-01T15:44:00.266Z</time></trkpt><trkpt lat="46.1434524" lon="12.1437692"><ele>438.3333333333333</ele><time>2026-05-01T15:44:02.264Z</time></trkpt><trkpt lat="46.1434612" lon="12.1439473"><ele>441.0</ele><time>2026-05-01T15:44:04.267Z</time></trkpt><trkpt lat="46.1434565" lon="12.1440432"><ele>439.0</ele><time>2026-05-01T15:44:05.257Z</time></trkpt><trkpt lat="46.143459" lon="12.1442215"><ele>437.0</ele><time>2026-05-01T15:44:07.259Z</time></trkpt><trkpt lat="46.1434786" lon="12.1444005"><ele>435.0</ele><time>2026-05-01T15:44:09.264Z</time></trkpt><trkpt lat="46.1435214" lon="12.1445644"><ele>433.0</ele><time>2026-05-01T15:44:11.267Z</time></trkpt><trkpt lat="46.1435809" lon="12.1447308"><ele>432.99999999999994</ele><time>2026-05-01T15:44:13.268Z</time></trkpt><trkpt lat="46.1436194" lon="12.144813"><ele>433.0</ele><time>2026-05-01T15:44:14.27Z</time></trkpt><trkpt lat="46.1436521" lon="12.1448981"><ele>433.0</ele><time>2026-05-01T15:44:15.266Z</time></trkpt><trkpt lat="46.1436868" lon="12.1449816"><ele>433.0</ele><time>2026-05-01T15:44:16.267Z</time></trkpt><trkpt lat="46.1437225" lon="12.1450636"><ele>433.0</ele><time>2026-05-01T15:44:17.267Z</time></trkpt><trkpt lat="46.1437625" lon="12.1451442"><ele>432.99999999999994</ele><time>2026-05-01T15:44:18.264Z</time></trkpt><trkpt lat="46.1438005" lon="12.1452237"><ele>433.0</ele><time>2026-05-01T15:44:19.267Z</time></trkpt><trkpt lat="46.1438365" lon="12.1453044"><ele>431.99999999999994</ele><time>2026-05-01T15:44:20.262Z</time></trkpt><trkpt lat="46.1438702" lon="12.1453988"><ele>431.0</ele><time>2026-05-01T15:44:21.268Z</time></trkpt><trkpt lat="46.1439027" lon="12.1454925"><ele>430.0</ele><time>2026-05-01T15:44:22.268Z</time></trkpt><trkpt lat="46.143924" lon="12.1455941"><ele>429.0</ele><time>2026-05-01T15:44:23.267Z</time></trkpt><trkpt lat="46.143939" lon="12.1457001"><ele>428.0</ele><time>2026-05-01T15:44:24.264Z</time></trkpt><trkpt lat="46.1439437" lon="12.1458031"><ele>426.99999999999994</ele><time>2026-05-01T15:44:25.265Z</time></trkpt><trkpt lat="46.143945" lon="12.1459079"><ele>426.0</ele><time>2026-05-01T15:44:26.258Z</time></trkpt><trkpt lat="46.1439487" lon="12.1460178"><ele>425.85714285714283</ele><time>2026-05-01T15:44:27.262Z</time></trkpt><trkpt lat="46.1439526" lon="12.1461249"><ele>425.7142857142857</ele><time>2026-05-01T15:44:28.263Z</time></trkpt><trkpt lat="46.1439508" lon="12.1462314"><ele>425.57142857142856</ele><time>2026-05-01T15:44:29.267Z</time></trkpt><trkpt lat="46.1439449" lon="12.1463372"><ele>425.42857142857144</ele><time>2026-05-01T15:44:30.263Z</time></trkpt><trkpt lat="46.1439331" lon="12.1464428"><ele>425.2857142857143</ele><time>2026-05-01T15:44:31.272Z</time></trkpt><trkpt lat="46.1439127" lon="12.146541"><ele>425.1428571428571</ele><time>2026-05-01T15:44:32.266Z</time></trkpt><trkpt lat="46.1438815" lon="12.1466285"><ele>425.0</ele><time>2026-05-01T15:44:33.262Z</time></trkpt><trkpt lat="46.1438335" lon="12.1466893"><ele>425.0</ele><time>2026-05-01T15:44:34.263Z</time></trkpt><trkpt lat="46.1437821" lon="12.1467427"><ele>425.0</ele><time>2026-05-01T15:44:35.267Z</time></trkpt><trkpt lat="46.1436802" lon="12.1468421"><ele>425.0</ele><time>2026-05-01T15:44:37.262Z</time></trkpt><trkpt lat="46.143584" lon="12.1469422"><ele>425.0</ele><time>2026-05-01T15:44:39.265Z</time></trkpt><trkpt lat="46.1434895" lon="12.1470375"><ele>425.0</ele><time>2026-05-01T15:44:41.266Z</time></trkpt><trkpt lat="46.1433949" lon="12.147125"><ele>425.0</ele><time>2026-05-01T15:44:43.265Z</time></trkpt><trkpt lat="46.1433115" lon="12.1472413"><ele>425.0</ele><time>2026-05-01T15:44:45.265Z</time></trkpt><trkpt lat="46.1432494" lon="12.1473761"><ele>425.0</ele><time>2026-05-01T15:44:47.275Z</time></trkpt><trkpt lat="46.1432004" lon="12.1475112"><ele>425.0</ele><time>2026-05-01T15:44:49.246Z</time></trkpt><trkpt lat="46.1431592" lon="12.1476485"><ele>425.0</ele><time>2026-05-01T15:44:51.263Z</time></trkpt><trkpt lat="46.1431203" lon="12.147776"><ele>425.2</ele><time>2026-05-01T15:44:53.272Z</time></trkpt><trkpt lat="46.143084" lon="12.147899"><ele>425.4</ele><time>2026-05-01T15:44:55.262Z</time></trkpt><trkpt lat="46.1430294" lon="12.1480149"><ele>425.6</ele><time>2026-05-01T15:44:57.266Z</time></trkpt><trkpt lat="46.1429641" lon="12.1481336"><ele>425.8</ele><time>2026-05-01T15:44:59.261Z</time></trkpt><trkpt lat="46.1428849" lon="12.1482333"><ele>426.0</ele><time>2026-05-01T15:45:01.264Z</time></trkpt><trkpt lat="46.1427893" lon="12.1483293"><ele>425.99999999999994</ele><time>2026-05-01T15:45:03.255Z</time></trkpt><trkpt lat="46.1427353" lon="12.1483785"><ele>426.0</ele><time>2026-05-01T15:45:04.267Z</time></trkpt><trkpt lat="46.1426818" lon="12.148428"><ele>426.0</ele><time>2026-05-01T15:45:05.254Z</time></trkpt><trkpt lat="46.1426238" lon="12.1484803"><ele>426.0</ele><time>2026-05-01T15:45:06.253Z</time></trkpt><trkpt lat="46.1425635" lon="12.1485336"><ele>426.0</ele><time>2026-05-01T15:45:07.257Z</time></trkpt><trkpt lat="46.1425072" lon="12.1485944"><ele>425.99999999999994</ele><time>2026-05-01T15:45:08.274Z</time></trkpt><trkpt lat="46.1424548" lon="12.1486631"><ele>426.0</ele><time>2026-05-01T15:45:09.265Z</time></trkpt><trkpt lat="46.1424125" lon="12.1487487"><ele>426.0</ele><time>2026-05-01T15:45:10.266Z</time></trkpt><trkpt lat="46.1423911" lon="12.1488509"><ele>426.0</ele><time>2026-05-01T15:45:11.267Z</time></trkpt><trkpt lat="46.1423916" lon="12.1489604"><ele>426.0</ele><time>2026-05-01T15:45:12.256Z</time></trkpt><trkpt lat="46.1424192" lon="12.1490685"><ele>426.0</ele><time>2026-05-01T15:45:13.268Z</time></trkpt><trkpt lat="46.1424602" lon="12.1491691"><ele>426.0</ele><time>2026-05-01T15:45:14.259Z</time></trkpt><trkpt lat="46.1425084" lon="12.149275"><ele>426.0</ele><time>2026-05-01T15:45:15.259Z</time></trkpt><trkpt lat="46.1425635" lon="12.1493751"><ele>425.20000000000005</ele><time>2026-05-01T15:45:16.264Z</time></trkpt><trkpt lat="46.1426176" lon="12.1494851"><ele>424.40000000000003</ele><time>2026-05-01T15:45:17.262Z</time></trkpt><trkpt lat="46.1426705" lon="12.1495965"><ele>423.6</ele><time>2026-05-01T15:45:18.262Z</time></trkpt><trkpt lat="46.1427177" lon="12.1497166"><ele>422.8</ele><time>2026-05-01T15:45:19.266Z</time></trkpt><trkpt lat="46.1427602" lon="12.1498394"><ele>422.0</ele><time>2026-05-01T15:45:20.269Z</time></trkpt><trkpt lat="46.1427979" lon="12.149962"><ele>420.99999999999994</ele><time>2026-05-01T15:45:21.267Z</time></trkpt><trkpt lat="46.1428317" lon="12.1500836"><ele>420.0</ele><time>2026-05-01T15:45:22.258Z</time></trkpt><trkpt lat="46.1428643" lon="12.1502055"><ele>419.0</ele><time>2026-05-01T15:45:23.269Z</time></trkpt><trkpt lat="46.142896" lon="12.1503188"><ele>418.0</ele><time>2026-05-01T15:45:24.266Z</time></trkpt><trkpt lat="46.1429265" lon="12.1504313"><ele>416.99999999999994</ele><time>2026-05-01T15:45:25.268Z</time></trkpt><trkpt lat="46.1429564" lon="12.1505341"><ele>416.0</ele><time>2026-05-01T15:45:26.27Z</time></trkpt><trkpt lat="46.1429869" lon="12.1506347"><ele>416.8333333333333</ele><time>2026-05-01T15:45:27.267Z</time></trkpt><trkpt lat="46.1430132" lon="12.1507308"><ele>417.66666666666663</ele><time>2026-05-01T15:45:28.268Z</time></trkpt><trkpt lat="46.1430375" lon="12.1508276"><ele>418.5</ele><time>2026-05-01T15:45:29.265Z</time></trkpt><trkpt lat="46.1430607" lon="12.1509129"><ele>419.33333333333337</ele><time>2026-05-01T15:45:30.268Z</time></trkpt><trkpt lat="46.1431037" lon="12.1510715"><ele>420.1666666666667</ele><time>2026-05-01T15:45:32.265Z</time></trkpt><trkpt lat="46.1431481" lon="12.151229"><ele>421.0</ele><time>2026-05-01T15:45:34.267Z</time></trkpt><trkpt lat="46.1431897" lon="12.1513797"><ele>421.0</ele><time>2026-05-01T15:45:36.268Z</time></trkpt><trkpt lat="46.1432335" lon="12.1515234"><ele>421.0</ele><time>2026-05-01T15:45:38.268Z</time></trkpt><trkpt lat="46.143274" lon="12.1516669"><ele>421.0</ele><time>2026-05-01T15:45:40.258Z</time></trkpt><trkpt lat="46.1433092" lon="12.1518085"><ele>421.0</ele><time>2026-05-01T15:45:42.259Z</time></trkpt><trkpt lat="46.1433391" lon="12.1519173"><ele>421.0</ele><time>2026-05-01T15:45:44.261Z</time></trkpt><trkpt lat="46.143365" lon="12.1520383"><ele>421.00000000000006</ele><time>2026-05-01T15:45:46.26Z</time></trkpt><trkpt lat="46.1433929" lon="12.1521556"><ele>421.0</ele><time>2026-05-01T15:45:48.263Z</time></trkpt><trkpt lat="46.1434219" lon="12.1522736"><ele>421.0</ele><time>2026-05-01T15:45:50.267Z</time></trkpt><trkpt lat="46.1434363" lon="12.1523962"><ele>421.0</ele><time>2026-05-01T15:45:52.247Z</time></trkpt><trkpt lat="46.1434159" lon="12.1525177"><ele>421.00000000000006</ele><time>2026-05-01T15:45:54.269Z</time></trkpt><trkpt lat="46.1433756" lon="12.152614"><ele>421.0</ele><time>2026-05-01T15:45:56.266Z</time></trkpt><trkpt lat="46.1433192" lon="12.1526654"><ele>421.1666666666667</ele><time>2026-05-01T15:45:58.267Z</time></trkpt><trkpt lat="46.1432554" lon="12.1526971"><ele>421.33333333333337</ele><time>2026-05-01T15:46:00.263Z</time></trkpt><trkpt lat="46.1431899" lon="12.1527243"><ele>421.5</ele><time>2026-05-01T15:46:02.267Z</time></trkpt><trkpt lat="46.1431257" lon="12.1527503"><ele>421.66666666666663</ele><time>2026-05-01T15:46:04.273Z</time></trkpt><trkpt lat="46.1430488" lon="12.1527829"><ele>421.8333333333333</ele><time>2026-05-01T15:46:06.251Z</time></trkpt><trkpt lat="46.1429705" lon="12.1528388"><ele>422.0</ele><time>2026-05-01T15:46:08.26Z</time></trkpt><trkpt lat="46.1428943" lon="12.1529127"><ele>424.14285714285717</ele><time>2026-05-01T15:46:10.265Z</time></trkpt><trkpt lat="46.1428299" lon="12.1529707"><ele>426.28571428571433</ele><time>2026-05-01T15:46:12.266Z</time></trkpt><trkpt lat="46.1427814" lon="12.1530295"><ele>428.42857142857144</ele><time>2026-05-01T15:46:14.266Z</time></trkpt><trkpt lat="46.142734" lon="12.1530933"><ele>430.57142857142856</ele><time>2026-05-01T15:46:16.262Z</time></trkpt><trkpt lat="46.1427037" lon="12.1531938"><ele>432.7142857142857</ele><time>2026-05-01T15:46:19.261Z</time></trkpt><trkpt lat="46.1426959" lon="12.1533117"><ele>434.85714285714283</ele><time>2026-05-01T15:46:22.268Z</time></trkpt><trkpt lat="46.142674" lon="12.1534162"><ele>437.0</ele><time>2026-05-01T15:46:25.268Z</time></trkpt><trkpt lat="46.1426512" lon="12.1535265"><ele>438.16666666666663</ele><time>2026-05-01T15:46:28.26Z</time></trkpt><trkpt lat="46.1426284" lon="12.1536475"><ele>439.3333333333333</ele><time>2026-05-01T15:46:31.251Z</time></trkpt><trkpt lat="46.1426194" lon="12.1537723"><ele>440.5</ele><time>2026-05-01T15:46:34.26Z</time></trkpt><trkpt lat="46.1426409" lon="12.153888"><ele>441.66666666666663</ele><time>2026-05-01T15:46:37.267Z</time></trkpt><trkpt lat="46.1426804" lon="12.1539965"><ele>442.8333333333333</ele><time>2026-05-01T15:46:40.264Z</time></trkpt><trkpt lat="46.1427287" lon="12.1540994"><ele>444.0</ele><time>2026-05-01T15:46:43.266Z</time></trkpt><trkpt lat="46.1427765" lon="12.1542014"><ele>445.0</ele><time>2026-05-01T15:46:46.268Z</time></trkpt><trkpt lat="46.1428205" lon="12.1543088"><ele>446.0</ele><time>2026-05-01T15:46:49.264Z</time></trkpt><trkpt lat="46.142861" lon="12.1544236"><ele>447.0</ele><time>2026-05-01T15:46:52.264Z</time></trkpt><trkpt lat="46.1428869" lon="12.1545471"><ele>448.0</ele><time>2026-05-01T15:46:55.259Z</time></trkpt><trkpt lat="46.142906" lon="12.1546729"><ele>449.0</ele><time>2026-05-01T15:46:58.284Z</time></trkpt><trkpt lat="46.1429213" lon="12.1548002"><ele>450.0</ele><time>2026-05-01T15:47:01.266Z</time></trkpt><trkpt lat="46.1429383" lon="12.1549291"><ele>451.1666666666667</ele><time>2026-05-01T15:47:04.252Z</time></trkpt><trkpt lat="46.1429534" lon="12.15506"><ele>452.33333333333337</ele><time>2026-05-01T15:47:07.265Z</time></trkpt><trkpt lat="46.1429547" lon="12.1551531"><ele>453.5</ele><time>2026-05-01T15:47:09.263Z</time></trkpt><trkpt lat="46.142957" lon="12.1552473"><ele>454.6666666666667</ele><time>2026-05-01T15:47:11.266Z</time></trkpt><trkpt lat="46.1429609" lon="12.1553764"><ele>455.83333333333337</ele><time>2026-05-01T15:47:14.269Z</time></trkpt><trkpt lat="46.1429544" lon="12.1555044"><ele>457.0</ele><time>2026-05-01T15:47:17.269Z</time></trkpt><trkpt lat="46.1429375" lon="12.1556283"><ele>456.57142857142867</ele><time>2026-05-01T15:47:20.245Z</time></trkpt><trkpt lat="46.142913" lon="12.1557509"><ele>456.14285714285717</ele><time>2026-05-01T15:47:23.253Z</time></trkpt><trkpt lat="46.1428821" lon="12.1558449"><ele>455.7142857142858</ele><time>2026-05-01T15:47:26.267Z</time></trkpt><trkpt lat="46.1428462" lon="12.155928"><ele>455.28571428571433</ele><time>2026-05-01T15:47:28.253Z</time></trkpt><trkpt lat="46.142811" lon="12.1560102"><ele>454.8571428571429</ele><time>2026-05-01T15:47:30.25Z</time></trkpt><trkpt lat="46.142787" lon="12.1560965"><ele>454.42857142857144</ele><time>2026-05-01T15:47:32.251Z</time></trkpt><trkpt lat="46.1427692" lon="12.1561883"><ele>454.0</ele><time>2026-05-01T15:47:34.26Z</time></trkpt><trkpt lat="46.142756" lon="12.1562856"><ele>454.00000000000006</ele><time>2026-05-01T15:47:36.253Z</time></trkpt><trkpt lat="46.1427496" lon="12.1563777"><ele>454.0</ele><time>2026-05-01T15:47:38.253Z</time></trkpt><trkpt lat="46.1427512" lon="12.1565089"><ele>454.0</ele><time>2026-05-01T15:47:41.252Z</time></trkpt><trkpt lat="46.1427458" lon="12.1566404"><ele>454.0</ele><time>2026-05-01T15:47:44.273Z</time></trkpt><trkpt lat="46.1427439" lon="12.156737"><ele>454.00000000000006</ele><time>2026-05-01T15:47:46.26Z</time></trkpt><trkpt lat="46.1427452" lon="12.1568713"><ele>454.0</ele><time>2026-05-01T15:47:49.255Z</time></trkpt><trkpt lat="46.1427432" lon="12.1569665"><ele>455.14285714285717</ele><time>2026-05-01T15:47:51.26Z</time></trkpt><trkpt lat="46.1427397" lon="12.1570582"><ele>456.28571428571433</ele><time>2026-05-01T15:47:53.263Z</time></trkpt><trkpt lat="46.1427341" lon="12.1571913"><ele>457.42857142857144</ele><time>2026-05-01T15:47:56.252Z</time></trkpt><trkpt lat="46.14273" lon="12.1572868"><ele>458.57142857142856</ele><time>2026-05-01T15:47:58.284Z</time></trkpt><trkpt lat="46.1427255" lon="12.1573791"><ele>459.7142857142857</ele><time>2026-05-01T15:48:00.269Z</time></trkpt><trkpt lat="46.1427244" lon="12.157474"><ele>460.8571428571429</ele><time>2026-05-01T15:48:02.255Z</time></trkpt><trkpt lat="46.142724" lon="12.157604"><ele>462.0</ele><time>2026-05-01T15:48:05.256Z</time></trkpt><trkpt lat="46.1427288" lon="12.1577324"><ele>462.6666666666667</ele><time>2026-05-01T15:48:08.254Z</time></trkpt><trkpt lat="46.1427334" lon="12.1578271"><ele>463.33333333333337</ele><time>2026-05-01T15:48:10.253Z</time></trkpt><trkpt lat="46.1427206" lon="12.1579605"><ele>464.0</ele><time>2026-05-01T15:48:13.26Z</time></trkpt><trkpt lat="46.1426948" lon="12.1580836"><ele>464.6666666666667</ele><time>2026-05-01T15:48:16.26Z</time></trkpt><trkpt lat="46.1426461" lon="12.1581944"><ele>465.33333333333337</ele><time>2026-05-01T15:48:19.264Z</time></trkpt><trkpt lat="46.1425902" lon="12.1583009"><ele>466.0</ele><time>2026-05-01T15:48:22.254Z</time></trkpt><trkpt lat="46.1425342" lon="12.1584055"><ele>466.0</ele><time>2026-05-01T15:48:25.257Z</time></trkpt><trkpt lat="46.1424838" lon="12.1585175"><ele>466.0</ele><time>2026-05-01T15:48:28.257Z</time></trkpt><trkpt lat="46.1424471" lon="12.1585926"><ele>466.0</ele><time>2026-05-01T15:48:30.26Z</time></trkpt><trkpt lat="46.1424102" lon="12.1586704"><ele>466.0</ele><time>2026-05-01T15:48:32.266Z</time></trkpt><trkpt lat="46.1423708" lon="12.1587433"><ele>466.0</ele><time>2026-05-01T15:48:34.275Z</time></trkpt><trkpt lat="46.1423349" lon="12.1588237"><ele>466.0</ele><time>2026-05-01T15:48:36.257Z</time></trkpt><trkpt lat="46.1422969" lon="12.1589007"><ele>466.0</ele><time>2026-05-01T15:48:38.262Z</time></trkpt><trkpt lat="46.1422607" lon="12.1589804"><ele>468.7142857142857</ele><time>2026-05-01T15:48:40.268Z</time></trkpt><trkpt lat="46.1422219" lon="12.1590621"><ele>471.42857142857144</ele><time>2026-05-01T15:48:42.266Z</time></trkpt><trkpt lat="46.1421844" lon="12.1591462"><ele>474.14285714285717</ele><time>2026-05-01T15:48:44.264Z</time></trkpt><trkpt lat="46.1421423" lon="12.1592266"><ele>476.8571428571429</ele><time>2026-05-01T15:48:46.265Z</time></trkpt><trkpt lat="46.1421033" lon="12.1593051"><ele>479.57142857142856</ele><time>2026-05-01T15:48:48.261Z</time></trkpt><trkpt lat="46.1420664" lon="12.1593801"><ele>482.28571428571433</ele><time>2026-05-01T15:48:50.266Z</time></trkpt><trkpt lat="46.1420289" lon="12.1594571"><ele>485.00000000000006</ele><time>2026-05-01T15:48:52.257Z</time></trkpt><trkpt lat="46.1419918" lon="12.1595356"><ele>485.00000000000006</ele><time>2026-05-01T15:48:54.267Z</time></trkpt><trkpt lat="46.1419529" lon="12.1596128"><ele>485.0</ele><time>2026-05-01T15:48:56.253Z</time></trkpt><trkpt lat="46.1419134" lon="12.1596895"><ele>485.00000000000006</ele><time>2026-05-01T15:48:58.278Z</time></trkpt><trkpt lat="46.1418744" lon="12.1597663"><ele>485.00000000000006</ele><time>2026-05-01T15:49:00.256Z</time></trkpt><trkpt lat="46.1418355" lon="12.159845"><ele>485.0</ele><time>2026-05-01T15:49:02.257Z</time></trkpt><trkpt lat="46.1417813" lon="12.1599573"><ele>485.00000000000006</ele><time>2026-05-01T15:49:05.267Z</time></trkpt><trkpt lat="46.1417458" lon="12.160035"><ele>485.00000000000006</ele><time>2026-05-01T15:49:07.272Z</time></trkpt><trkpt lat="46.1417096" lon="12.1601123"><ele>485.8333333333333</ele><time>2026-05-01T15:49:09.252Z</time></trkpt><trkpt lat="46.1416546" lon="12.1602304"><ele>486.66666666666663</ele><time>2026-05-01T15:49:12.266Z</time></trkpt><trkpt lat="46.1416206" lon="12.160311"><ele>487.5</ele><time>2026-05-01T15:49:14.266Z</time></trkpt><trkpt lat="46.1415723" lon="12.1604263"><ele>488.33333333333337</ele><time>2026-05-01T15:49:17.266Z</time></trkpt><trkpt lat="46.1415201" lon="12.160542"><ele>489.1666666666667</ele><time>2026-05-01T15:49:20.263Z</time></trkpt><trkpt lat="46.141483" lon="12.1606203"><ele>490.0</ele><time>2026-05-01T15:49:22.253Z</time></trkpt><trkpt lat="46.1414437" lon="12.1606985"><ele>488.33333333333337</ele><time>2026-05-01T15:49:24.275Z</time></trkpt><trkpt lat="46.1413919" lon="12.1608105"><ele>486.6666666666667</ele><time>2026-05-01T15:49:27.256Z</time></trkpt><trkpt lat="46.1413537" lon="12.1608851"><ele>485.0</ele><time>2026-05-01T15:49:29.265Z</time></trkpt><trkpt lat="46.1413154" lon="12.160962"><ele>483.33333333333337</ele><time>2026-05-01T15:49:31.265Z</time></trkpt><trkpt lat="46.1412807" lon="12.1610388"><ele>481.6666666666667</ele><time>2026-05-01T15:49:33.253Z</time></trkpt><trkpt lat="46.1412343" lon="12.1611347"><ele>480.0</ele><time>2026-05-01T15:49:36.264Z</time></trkpt><trkpt lat="46.1411821" lon="12.161236"><ele>480.0</ele><time>2026-05-01T15:49:39.258Z</time></trkpt><trkpt lat="46.1411484" lon="12.161315"><ele>480.0</ele><time>2026-05-01T15:49:41.261Z</time></trkpt><trkpt lat="46.1411131" lon="12.1613995"><ele>480.0</ele><time>2026-05-01T15:49:43.26Z</time></trkpt><trkpt lat="46.1410765" lon="12.1614865"><ele>480.0</ele><time>2026-05-01T15:49:45.259Z</time></trkpt><trkpt lat="46.1410415" lon="12.1615754"><ele>480.0</ele><time>2026-05-01T15:49:47.26Z</time></trkpt><trkpt lat="46.1410078" lon="12.1616663"><ele>480.0</ele><time>2026-05-01T15:49:49.26Z</time></trkpt><trkpt lat="46.1409783" lon="12.1617583"><ele>480.0</ele><time>2026-05-01T15:49:51.258Z</time></trkpt><trkpt lat="46.1409481" lon="12.1618465"><ele>479.42857142857144</ele><time>2026-05-01T15:49:53.264Z</time></trkpt><trkpt lat="46.140921" lon="12.1619365"><ele>478.85714285714283</ele><time>2026-05-01T15:49:55.265Z</time></trkpt><trkpt lat="46.1408988" lon="12.1620313"><ele>478.2857142857143</ele><time>2026-05-01T15:49:57.255Z</time></trkpt><trkpt lat="46.14088" lon="12.162129"><ele>477.7142857142857</ele><time>2026-05-01T15:49:59.26Z</time></trkpt><trkpt lat="46.1408616" lon="12.1622301"><ele>477.1428571428571</ele><time>2026-05-01T15:50:01.264Z</time></trkpt><trkpt lat="46.140846" lon="12.1623363"><ele>476.57142857142856</ele><time>2026-05-01T15:50:03.26Z</time></trkpt><trkpt lat="46.1408312" lon="12.1624429"><ele>476.0</ele><time>2026-05-01T15:50:05.253Z</time></trkpt><trkpt lat="46.1408204" lon="12.1625485"><ele>476.0</ele><time>2026-05-01T15:50:07.259Z</time></trkpt><trkpt lat="46.1408116" lon="12.1626524"><ele>476.0</ele><time>2026-05-01T15:50:09.263Z</time></trkpt><trkpt lat="46.1408114" lon="12.1627523"><ele>476.0</ele><time>2026-05-01T15:50:11.264Z</time></trkpt><trkpt lat="46.140812" lon="12.1628546"><ele>476.0</ele><time>2026-05-01T15:50:13.256Z</time></trkpt><trkpt lat="46.1408193" lon="12.1629551"><ele>476.0</ele><time>2026-05-01T15:50:15.263Z</time></trkpt><trkpt lat="46.1408247" lon="12.1630554"><ele>476.0</ele><time>2026-05-01T15:50:17.263Z</time></trkpt><trkpt lat="46.1408302" lon="12.163156"><ele>476.0</ele><time>2026-05-01T15:50:19.261Z</time></trkpt><trkpt lat="46.1408355" lon="12.163256"><ele>475.8571428571429</ele><time>2026-05-01T15:50:21.26Z</time></trkpt><trkpt lat="46.1408415" lon="12.1633586"><ele>475.7142857142857</ele><time>2026-05-01T15:50:23.253Z</time></trkpt><trkpt lat="46.1408468" lon="12.1634634"><ele>475.57142857142856</ele><time>2026-05-01T15:50:25.266Z</time></trkpt><trkpt lat="46.1408526" lon="12.1635693"><ele>475.42857142857144</ele><time>2026-05-01T15:50:27.262Z</time></trkpt><trkpt lat="46.1408599" lon="12.1636775"><ele>475.28571428571433</ele><time>2026-05-01T15:50:29.253Z</time></trkpt><trkpt lat="46.1408618" lon="12.1637882"><ele>475.14285714285717</ele><time>2026-05-01T15:50:31.26Z</time></trkpt><trkpt lat="46.140869" lon="12.1638967"><ele>475.0</ele><time>2026-05-01T15:50:33.262Z</time></trkpt><trkpt lat="46.1408781" lon="12.1640066"><ele>474.42857142857144</ele><time>2026-05-01T15:50:35.264Z</time></trkpt><trkpt lat="46.1408862" lon="12.1641151"><ele>473.8571428571429</ele><time>2026-05-01T15:50:37.256Z</time></trkpt><trkpt lat="46.1408908" lon="12.1642207"><ele>473.28571428571433</ele><time>2026-05-01T15:50:39.261Z</time></trkpt><trkpt lat="46.1408939" lon="12.1643236"><ele>472.7142857142858</ele><time>2026-05-01T15:50:41.266Z</time></trkpt><trkpt lat="46.1408949" lon="12.164422"><ele>472.14285714285717</ele><time>2026-05-01T15:50:43.267Z</time></trkpt><trkpt lat="46.1408951" lon="12.1645139"><ele>471.57142857142867</ele><time>2026-05-01T15:50:45.264Z</time></trkpt><trkpt lat="46.1408345" lon="12.1645826"><ele>471.00000000000006</ele><time>2026-05-01T15:50:48.264Z</time></trkpt><trkpt lat="46.140788" lon="12.1645029"><ele>471.0</ele><time>2026-05-01T15:50:52.261Z</time></trkpt><trkpt lat="46.1407656" lon="12.1643845"><ele>471.0</ele><time>2026-05-01T15:50:55.269Z</time></trkpt><trkpt lat="46.1407423" lon="12.1642588"><ele>471.0</ele><time>2026-05-01T15:50:58.269Z</time></trkpt><trkpt lat="46.140717" lon="12.1641284"><ele>471.0</ele><time>2026-05-01T15:51:01.266Z</time></trkpt><trkpt lat="46.1406924" lon="12.1640443"><ele>471.0</ele><time>2026-05-01T15:51:03.271Z</time></trkpt><trkpt lat="46.1406689" lon="12.1639206"><ele>471.0</ele><time>2026-05-01T15:51:06.259Z</time></trkpt><trkpt lat="46.1406381" lon="12.1638018"><ele>470.5</ele><time>2026-05-01T15:51:09.264Z</time></trkpt><trkpt lat="46.1406158" lon="12.1636745"><ele>470.0</ele><time>2026-05-01T15:51:12.264Z</time></trkpt><trkpt lat="46.1405966" lon="12.1635878"><ele>469.5</ele><time>2026-05-01T15:51:14.263Z</time></trkpt><trkpt lat="46.1405727" lon="12.1634548"><ele>469.0</ele><time>2026-05-01T15:51:17.261Z</time></trkpt><trkpt lat="46.1405524" lon="12.1633636"><ele>468.5</ele><time>2026-05-01T15:51:19.26Z</time></trkpt><trkpt lat="46.1405277" lon="12.163269"><ele>468.0</ele><time>2026-05-01T15:51:21.267Z</time></trkpt><trkpt lat="46.1405077" lon="12.1631746"><ele>468.0</ele><time>2026-05-01T15:51:23.266Z</time></trkpt><trkpt lat="46.1404817" lon="12.1630837"><ele>468.00000000000006</ele><time>2026-05-01T15:51:25.258Z</time></trkpt><trkpt lat="46.1404537" lon="12.1629901"><ele>468.0</ele><time>2026-05-01T15:51:27.271Z</time></trkpt><trkpt lat="46.1404248" lon="12.1628975"><ele>468.0</ele><time>2026-05-01T15:51:29.275Z</time></trkpt><trkpt lat="46.1403981" lon="12.162807"><ele>468.00000000000006</ele><time>2026-05-01T15:51:31.268Z</time></trkpt><trkpt lat="46.140366" lon="12.1627187"><ele>468.0</ele><time>2026-05-01T15:51:33.27Z</time></trkpt><trkpt lat="46.1403364" lon="12.1626319"><ele>468.0</ele><time>2026-05-01T15:51:35.261Z</time></trkpt><trkpt lat="46.1403099" lon="12.1625481"><ele>468.0</ele><time>2026-05-01T15:51:37.26Z</time></trkpt><trkpt lat="46.1402681" lon="12.1624267"><ele>468.0</ele><time>2026-05-01T15:51:40.267Z</time></trkpt><trkpt lat="46.1402281" lon="12.1623062"><ele>468.0</ele><time>2026-05-01T15:51:43.26Z</time></trkpt><trkpt lat="46.1401883" lon="12.1621904"><ele>468.0</ele><time>2026-05-01T15:51:46.258Z</time></trkpt><trkpt lat="46.1401518" lon="12.162076"><ele>468.0</ele><time>2026-05-01T15:51:49.259Z</time></trkpt><trkpt lat="46.1401177" lon="12.1619972"><ele>468.0</ele><time>2026-05-01T15:51:51.265Z</time></trkpt><trkpt lat="46.1400851" lon="12.1619148"><ele>469.28571428571433</ele><time>2026-05-01T15:51:53.261Z</time></trkpt><trkpt lat="46.1400511" lon="12.1618303"><ele>470.5714285714286</ele><time>2026-05-01T15:51:55.263Z</time></trkpt><trkpt lat="46.1400168" lon="12.1617514"><ele>471.8571428571429</ele><time>2026-05-01T15:51:57.252Z</time></trkpt><trkpt lat="46.1399831" lon="12.1616727"><ele>473.1428571428571</ele><time>2026-05-01T15:51:59.262Z</time></trkpt><trkpt lat="46.1399479" lon="12.1615933"><ele>474.4285714285714</ele><time>2026-05-01T15:52:01.258Z</time></trkpt><trkpt lat="46.1398944" lon="12.1614783"><ele>475.71428571428567</ele><time>2026-05-01T15:52:04.265Z</time></trkpt><trkpt lat="46.1398572" lon="12.1613949"><ele>477.0</ele><time>2026-05-01T15:52:06.263Z</time></trkpt><trkpt lat="46.1397946" lon="12.1612823"><ele>477.0</ele><time>2026-05-01T15:52:09.253Z</time></trkpt><trkpt lat="46.1397622" lon="12.1611984"><ele>476.99999999999994</ele><time>2026-05-01T15:52:11.262Z</time></trkpt><trkpt lat="46.1397276" lon="12.1611174"><ele>477.0</ele><time>2026-05-01T15:52:13.262Z</time></trkpt><trkpt lat="46.1396952" lon="12.1610327"><ele>477.0</ele><time>2026-05-01T15:52:15.265Z</time></trkpt><trkpt lat="46.1396622" lon="12.1609477"><ele>476.99999999999994</ele><time>2026-05-01T15:52:17.26Z</time></trkpt><trkpt lat="46.139629" lon="12.1608635"><ele>477.0</ele><time>2026-05-01T15:52:19.287Z</time></trkpt><trkpt lat="46.1395963" lon="12.160778"><ele>477.0</ele><time>2026-05-01T15:52:21.267Z</time></trkpt><trkpt lat="46.1395612" lon="12.1606959"><ele>479.8</ele><time>2026-05-01T15:52:23.263Z</time></trkpt><trkpt lat="46.1395165" lon="12.1605816"><ele>482.6</ele><time>2026-05-01T15:52:26.263Z</time></trkpt><trkpt lat="46.1394719" lon="12.16047"><ele>485.40000000000003</ele><time>2026-05-01T15:52:29.266Z</time></trkpt><trkpt lat="46.1394315" lon="12.1603566"><ele>488.20000000000005</ele><time>2026-05-01T15:52:32.267Z</time></trkpt><trkpt lat="46.1393964" lon="12.160236"><ele>491.0</ele><time>2026-05-01T15:52:35.258Z</time></trkpt><trkpt lat="46.1393591" lon="12.16011"><ele>490.99999999999994</ele><time>2026-05-01T15:52:38.266Z</time></trkpt><trkpt lat="46.1393365" lon="12.1600246"><ele>491.0</ele><time>2026-05-01T15:52:40.263Z</time></trkpt><trkpt lat="46.1393104" lon="12.1599307"><ele>491.0</ele><time>2026-05-01T15:52:42.262Z</time></trkpt><trkpt lat="46.1392757" lon="12.1598473"><ele>491.0</ele><time>2026-05-01T15:52:44.251Z</time></trkpt><trkpt lat="46.139206" lon="12.1597766"><ele>490.99999999999994</ele><time>2026-05-01T15:52:47.262Z</time></trkpt><trkpt lat="46.1391305" lon="12.159749"><ele>491.0</ele><time>2026-05-01T15:52:49.251Z</time></trkpt><trkpt lat="46.1390186" lon="12.1596666"><ele>487.99999999999994</ele><time>2026-05-01T15:52:51.254Z</time></trkpt><trkpt lat="46.1389645" lon="12.1595838"><ele>485.0</ele><time>2026-05-01T15:52:52.254Z</time></trkpt><trkpt lat="46.1389127" lon="12.1594945"><ele>482.0</ele><time>2026-05-01T15:52:53.261Z</time></trkpt><trkpt lat="46.1388546" lon="12.1593928"><ele>479.0</ele><time>2026-05-01T15:52:54.263Z</time></trkpt><trkpt lat="46.1387956" lon="12.1592949"><ele>475.99999999999994</ele><time>2026-05-01T15:52:55.283Z</time></trkpt><trkpt lat="46.1387407" lon="12.1591808"><ele>473.0</ele><time>2026-05-01T15:52:56.26Z</time></trkpt><trkpt lat="46.1386766" lon="12.1590755"><ele>475.59999999999997</ele><time>2026-05-01T15:52:57.252Z</time></trkpt><trkpt lat="46.138602" lon="12.1589737"><ele>478.19999999999993</ele><time>2026-05-01T15:52:58.259Z</time></trkpt><trkpt lat="46.1385317" lon="12.1588711"><ele>480.8</ele><time>2026-05-01T15:52:59.26Z</time></trkpt><trkpt lat="46.1384619" lon="12.1587619"><ele>483.4</ele><time>2026-05-01T15:53:00.255Z</time></trkpt><trkpt lat="46.138397" lon="12.1586601"><ele>486.0</ele><time>2026-05-01T15:53:01.263Z</time></trkpt><trkpt lat="46.1383241" lon="12.1585564"><ele>486.0</ele><time>2026-05-01T15:53:02.263Z</time></trkpt><trkpt lat="46.1382546" lon="12.1584563"><ele>486.0</ele><time>2026-05-01T15:53:03.263Z</time></trkpt><trkpt lat="46.1381948" lon="12.1583434"><ele>486.0</ele><time>2026-05-01T15:53:04.252Z</time></trkpt><trkpt lat="46.1381306" lon="12.1582349"><ele>486.0</ele><time>2026-05-01T15:53:05.26Z</time></trkpt><trkpt lat="46.1380605" lon="12.1581183"><ele>486.0</ele><time>2026-05-01T15:53:06.249Z</time></trkpt><trkpt lat="46.1379844" lon="12.1580106"><ele>483.4</ele><time>2026-05-01T15:53:07.245Z</time></trkpt><trkpt lat="46.1379085" lon="12.1578923"><ele>480.8</ele><time>2026-05-01T15:53:08.25Z</time></trkpt><trkpt lat="46.1378367" lon="12.1577767"><ele>478.19999999999993</ele><time>2026-05-01T15:53:09.251Z</time></trkpt><trkpt lat="46.1377626" lon="12.1576492"><ele>475.59999999999997</ele><time>2026-05-01T15:53:10.271Z</time></trkpt><trkpt lat="46.1376917" lon="12.1575366"><ele>473.0</ele><time>2026-05-01T15:53:11.254Z</time></trkpt><trkpt lat="46.1376298" lon="12.1574146"><ele>474.4</ele><time>2026-05-01T15:53:12.261Z</time></trkpt><trkpt lat="46.1375701" lon="12.1572977"><ele>475.79999999999995</ele><time>2026-05-01T15:53:13.255Z</time></trkpt><trkpt lat="46.1375157" lon="12.1571762"><ele>477.2</ele><time>2026-05-01T15:53:14.252Z</time></trkpt><trkpt lat="46.1374676" lon="12.1570548"><ele>478.6</ele><time>2026-05-01T15:53:15.264Z</time></trkpt><trkpt lat="46.137418" lon="12.1569526"><ele>480.0</ele><time>2026-05-01T15:53:16.263Z</time></trkpt><trkpt lat="46.1373585" lon="12.1568677"><ele>477.4</ele><time>2026-05-01T15:53:17.255Z</time></trkpt><trkpt lat="46.1372946" lon="12.1567888"><ele>474.8</ele><time>2026-05-01T15:53:18.253Z</time></trkpt><trkpt lat="46.1372262" lon="12.1567061"><ele>472.20000000000005</ele><time>2026-05-01T15:53:19.249Z</time></trkpt><trkpt lat="46.1371565" lon="12.1566214"><ele>469.6</ele><time>2026-05-01T15:53:20.251Z</time></trkpt><trkpt lat="46.1370811" lon="12.1565456"><ele>467.0</ele><time>2026-05-01T15:53:21.271Z</time></trkpt><trkpt lat="46.1370119" lon="12.1564544"><ele>466.99999999999994</ele><time>2026-05-01T15:53:22.252Z</time></trkpt><trkpt lat="46.1369492" lon="12.1563663"><ele>467.0</ele><time>2026-05-01T15:53:23.248Z</time></trkpt><trkpt lat="46.1368938" lon="12.1563011"><ele>466.99999999999994</ele><time>2026-05-01T15:53:24.253Z</time></trkpt><trkpt lat="46.1368332" lon="12.1562505"><ele>466.99999999999994</ele><time>2026-05-01T15:53:25.259Z</time></trkpt><trkpt lat="46.1367762" lon="12.1562107"><ele>467.0</ele><time>2026-05-01T15:53:26.251Z</time></trkpt><trkpt lat="46.1367092" lon="12.1561752"><ele>466.99999999999994</ele><time>2026-05-01T15:53:27.249Z</time></trkpt><trkpt lat="46.1366398" lon="12.156142"><ele>466.99999999999994</ele><time>2026-05-01T15:53:28.25Z</time></trkpt><trkpt lat="46.1365724" lon="12.1561318"><ele>463.20000000000005</ele><time>2026-05-01T15:53:29.25Z</time></trkpt><trkpt lat="46.1364634" lon="12.1561701"><ele>459.40000000000003</ele><time>2026-05-01T15:53:31.252Z</time></trkpt><trkpt lat="46.1363797" lon="12.1562288"><ele>455.59999999999997</ele><time>2026-05-01T15:53:33.25Z</time></trkpt><trkpt lat="46.13635" lon="12.1563407"><ele>451.79999999999995</ele><time>2026-05-01T15:53:36.25Z</time></trkpt><trkpt lat="46.136374" lon="12.156437"><ele>448.0</ele><time>2026-05-01T15:53:38.257Z</time></trkpt><trkpt lat="46.13627" lon="12.1564092"><ele>448.0</ele><time>2026-05-01T15:53:42.251Z</time></trkpt><trkpt lat="46.1362108" lon="12.1563587"><ele>448.0</ele><time>2026-05-01T15:53:43.25Z</time></trkpt><trkpt lat="46.1361395" lon="12.1562847"><ele>448.0</ele><time>2026-05-01T15:53:45.252Z</time></trkpt><trkpt lat="46.1361117" lon="12.1561612"><ele>448.0</ele><time>2026-05-01T15:53:47.255Z</time></trkpt><trkpt lat="46.1360925" lon="12.1560746"><ele>448.0</ele><time>2026-05-01T15:53:49.259Z</time></trkpt><trkpt lat="46.1360895" lon="12.155978"><ele>448.0</ele><time>2026-05-01T15:53:51.262Z</time></trkpt><trkpt lat="46.1360705" lon="12.1558786"><ele>448.0</ele><time>2026-05-01T15:53:53.266Z</time></trkpt><trkpt lat="46.1360579" lon="12.1557759"><ele>447.1666666666667</ele><time>2026-05-01T15:53:55.257Z</time></trkpt><trkpt lat="46.1360475" lon="12.1556684"><ele>446.33333333333337</ele><time>2026-05-01T15:53:57.267Z</time></trkpt><trkpt lat="46.1360443" lon="12.1555753"><ele>445.5</ele><time>2026-05-01T15:53:59.268Z</time></trkpt><trkpt lat="46.1360233" lon="12.1554441"><ele>444.66666666666663</ele><time>2026-05-01T15:54:02.262Z</time></trkpt><trkpt lat="46.1360045" lon="12.1553273"><ele>443.8333333333333</ele><time>2026-05-01T15:54:05.264Z</time></trkpt><trkpt lat="46.1359917" lon="12.155219"><ele>443.0</ele><time>2026-05-01T15:54:07.27Z</time></trkpt><trkpt lat="46.1359796" lon="12.1550851"><ele>443.0</ele><time>2026-05-01T15:54:09.255Z</time></trkpt><trkpt lat="46.135981" lon="12.1549787"><ele>442.99999999999994</ele><time>2026-05-01T15:54:11.271Z</time></trkpt><trkpt lat="46.1359867" lon="12.1548339"><ele>442.99999999999994</ele><time>2026-05-01T15:54:13.266Z</time></trkpt><trkpt lat="46.1359925" lon="12.1546852"><ele>443.0</ele><time>2026-05-01T15:54:15.259Z</time></trkpt><trkpt lat="46.1359912" lon="12.1545368"><ele>443.0</ele><time>2026-05-01T15:54:17.256Z</time></trkpt><trkpt lat="46.1359894" lon="12.1543729"><ele>443.4</ele><time>2026-05-01T15:54:19.264Z</time></trkpt><trkpt lat="46.1359866" lon="12.1542057"><ele>443.79999999999995</ele><time>2026-05-01T15:54:21.264Z</time></trkpt><trkpt lat="46.1359592" lon="12.1540598"><ele>444.2</ele><time>2026-05-01T15:54:23.263Z</time></trkpt><trkpt lat="46.1359361" lon="12.1539387"><ele>444.6</ele><time>2026-05-01T15:54:25.253Z</time></trkpt><trkpt lat="46.1359158" lon="12.153792"><ele>445.0</ele><time>2026-05-01T15:54:27.25Z</time></trkpt><trkpt lat="46.1358836" lon="12.15363"><ele>445.1666666666667</ele><time>2026-05-01T15:54:29.259Z</time></trkpt><trkpt lat="46.1358796" lon="12.1534908"><ele>445.33333333333337</ele><time>2026-05-01T15:54:31.264Z</time></trkpt><trkpt lat="46.1358549" lon="12.1533779"><ele>445.5</ele><time>2026-05-01T15:54:33.258Z</time></trkpt><trkpt lat="46.1358388" lon="12.1532613"><ele>445.66666666666663</ele><time>2026-05-01T15:54:35.26Z</time></trkpt><trkpt lat="46.1358208" lon="12.1531734"><ele>445.8333333333333</ele><time>2026-05-01T15:54:36.251Z</time></trkpt><trkpt lat="46.1357913" lon="12.1530392"><ele>446.0</ele><time>2026-05-01T15:54:38.251Z</time></trkpt><trkpt lat="46.1357637" lon="12.1529039"><ele>445.66666666666663</ele><time>2026-05-01T15:54:40.25Z</time></trkpt><trkpt lat="46.1357499" lon="12.152799"><ele>445.3333333333333</ele><time>2026-05-01T15:54:42.248Z</time></trkpt><trkpt lat="46.135688" lon="12.1527338"><ele>445.0</ele><time>2026-05-01T15:54:44.252Z</time></trkpt><trkpt lat="46.1356277" lon="12.1526868"><ele>444.66666666666663</ele><time>2026-05-01T15:54:45.254Z</time></trkpt><trkpt lat="46.1355304" lon="12.1526538"><ele>444.3333333333333</ele><time>2026-05-01T15:54:48.251Z</time></trkpt><trkpt lat="46.1355327" lon="12.1525609"><ele>444.0</ele><time>2026-05-01T15:55:37.257Z</time></trkpt><trkpt lat="46.1355167" lon="12.1524583"><ele>440.0</ele><time>2026-05-01T15:55:41.25Z</time></trkpt><trkpt lat="46.1354912" lon="12.1523567"><ele>436.0</ele><time>2026-05-01T15:55:43.252Z</time></trkpt><trkpt lat="46.1354493" lon="12.1522108"><ele>432.0</ele><time>2026-05-01T15:55:45.255Z</time></trkpt><trkpt lat="46.1354188" lon="12.1521074"><ele>428.0</ele><time>2026-05-01T15:55:47.254Z</time></trkpt><trkpt lat="46.1353984" lon="12.1519996"><ele>424.0</ele><time>2026-05-01T15:55:49.247Z</time></trkpt><trkpt lat="46.1353755" lon="12.1518606"><ele>420.0</ele><time>2026-05-01T15:55:51.25Z</time></trkpt><trkpt lat="46.135335" lon="12.1517735"><ele>420.0</ele><time>2026-05-01T15:55:52.252Z</time></trkpt><trkpt lat="46.135281" lon="12.1516633"><ele>420.0</ele><time>2026-05-01T15:55:54.254Z</time></trkpt><trkpt lat="46.1352513" lon="12.1515794"><ele>420.0</ele><time>2026-05-01T15:55:56.268Z</time></trkpt><trkpt lat="46.1352436" lon="12.1514409"><ele>420.0</ele><time>2026-05-01T15:55:57.26Z</time></trkpt><trkpt lat="46.1352038" lon="12.151364"><ele>420.0</ele><time>2026-05-01T15:56:02.248Z</time></trkpt><trkpt lat="46.1351676" lon="12.1512642"><ele>420.0</ele><time>2026-05-01T15:56:05.255Z</time></trkpt><trkpt lat="46.1351205" lon="12.1511844"><ele>418.3333333333333</ele><time>2026-05-01T15:56:30.251Z</time></trkpt><trkpt lat="46.1351557" lon="12.1511031"><ele>416.66666666666663</ele><time>2026-05-01T15:57:07.252Z</time></trkpt><trkpt lat="46.1351363" lon="12.1509978"><ele>415.0</ele><time>2026-05-01T15:57:17.254Z</time></trkpt><trkpt lat="46.135073" lon="12.1508884"><ele>413.3333333333333</ele><time>2026-05-01T15:57:20.258Z</time></trkpt><trkpt lat="46.1350428" lon="12.150798"><ele>411.66666666666663</ele><time>2026-05-01T15:57:22.258Z</time></trkpt><trkpt lat="46.1350123" lon="12.1506963"><ele>410.0</ele><time>2026-05-01T15:57:24.251Z</time></trkpt><trkpt lat="46.1349838" lon="12.1506118"><ele>409.8333333333333</ele><time>2026-05-01T15:57:27.252Z</time></trkpt><trkpt lat="46.1349693" lon="12.1505218"><ele>409.66666666666663</ele><time>2026-05-01T15:57:31.256Z</time></trkpt><trkpt lat="46.1349631" lon="12.1504253"><ele>409.5</ele><time>2026-05-01T15:57:34.248Z</time></trkpt><trkpt lat="46.1349315" lon="12.1503245"><ele>409.33333333333337</ele><time>2026-05-01T15:57:37.253Z</time></trkpt><trkpt lat="46.1349119" lon="12.1501958"><ele>409.1666666666667</ele><time>2026-05-01T15:57:40.256Z</time></trkpt><trkpt lat="46.1348729" lon="12.1500693"><ele>409.0</ele><time>2026-05-01T15:57:42.253Z</time></trkpt><trkpt lat="46.1348045" lon="12.1500211"><ele>408.83333333333337</ele><time>2026-05-01T15:57:45.253Z</time></trkpt><trkpt lat="46.1347616" lon="12.1499426"><ele>408.6666666666667</ele><time>2026-05-01T15:57:49.254Z</time></trkpt><trkpt lat="46.1347308" lon="12.1498566"><ele>408.5</ele><time>2026-05-01T15:57:53.252Z</time></trkpt><trkpt lat="46.134689" lon="12.1497606"><ele>408.33333333333337</ele><time>2026-05-01T15:57:56.258Z</time></trkpt><trkpt lat="46.1346603" lon="12.149661"><ele>408.1666666666667</ele><time>2026-05-01T15:57:58.259Z</time></trkpt><trkpt lat="46.1346325" lon="12.149535"><ele>408.0</ele><time>2026-05-01T15:58:01.256Z</time></trkpt><trkpt lat="46.1346023" lon="12.1493993"><ele>406.8333333333333</ele><time>2026-05-01T15:58:04.254Z</time></trkpt><trkpt lat="46.1345826" lon="12.1493037"><ele>405.66666666666663</ele><time>2026-05-01T15:58:06.253Z</time></trkpt><trkpt lat="46.1345158" lon="12.1491481"><ele>404.5</ele><time>2026-05-01T15:58:09.26Z</time></trkpt><trkpt lat="46.1344922" lon="12.1490464"><ele>403.3333333333333</ele><time>2026-05-01T15:58:11.261Z</time></trkpt><trkpt lat="46.1344782" lon="12.148941"><ele>402.16666666666663</ele><time>2026-05-01T15:58:13.254Z</time></trkpt><trkpt lat="46.1344778" lon="12.1488252"><ele>401.0</ele><time>2026-05-01T15:58:16.251Z</time></trkpt><trkpt lat="46.1344598" lon="12.1487269"><ele>400.66666666666663</ele><time>2026-05-01T15:58:18.25Z</time></trkpt><trkpt lat="46.1344448" lon="12.1486053"><ele>400.3333333333333</ele><time>2026-05-01T15:58:20.26Z</time></trkpt><trkpt lat="46.1344345" lon="12.1484815"><ele>400.0</ele><time>2026-05-01T15:58:22.259Z</time></trkpt><trkpt lat="46.1344278" lon="12.1483451"><ele>399.66666666666663</ele><time>2026-05-01T15:58:24.263Z</time></trkpt><trkpt lat="46.1343981" lon="12.1482406"><ele>399.3333333333333</ele><time>2026-05-01T15:58:26.26Z</time></trkpt><trkpt lat="46.1343647" lon="12.1481281"><ele>399.0</ele><time>2026-05-01T15:58:28.248Z</time></trkpt><trkpt lat="46.1343493" lon="12.1480185"><ele>398.0</ele><time>2026-05-01T15:58:30.251Z</time></trkpt><trkpt lat="46.1343301" lon="12.1479045"><ele>397.0</ele><time>2026-05-01T15:58:33.251Z</time></trkpt><trkpt lat="46.1343077" lon="12.1477924"><ele>396.0</ele><time>2026-05-01T15:58:36.254Z</time></trkpt><trkpt lat="46.1342976" lon="12.147669"><ele>395.0</ele><time>2026-05-01T15:58:39.249Z</time></trkpt><trkpt lat="46.1342763" lon="12.1474963"><ele>394.0</ele><time>2026-05-01T15:58:41.253Z</time></trkpt><trkpt lat="46.1342588" lon="12.1473323"><ele>392.79999999999995</ele><time>2026-05-01T15:58:43.255Z</time></trkpt><trkpt lat="46.1342543" lon="12.1471847"><ele>391.59999999999997</ele><time>2026-05-01T15:58:45.258Z</time></trkpt><trkpt lat="46.1342236" lon="12.1470145"><ele>390.4</ele><time>2026-05-01T15:58:47.26Z</time></trkpt><trkpt lat="46.1342085" lon="12.1468895"><ele>389.2</ele><time>2026-05-01T15:58:49.256Z</time></trkpt><trkpt lat="46.1341956" lon="12.1468005"><ele>388.0</ele><time>2026-05-01T15:58:52.26Z</time></trkpt><trkpt lat="46.1341764" lon="12.1466875"><ele>388.00000000000006</ele><time>2026-05-01T15:58:55.252Z</time></trkpt><trkpt lat="46.1341807" lon="12.1465912"><ele>388.0</ele><time>2026-05-01T15:58:57.253Z</time></trkpt><trkpt lat="46.1341913" lon="12.1464664"><ele>388.0</ele><time>2026-05-01T15:58:59.256Z</time></trkpt><trkpt lat="46.1342191" lon="12.1463669"><ele>388.0</ele><time>2026-05-01T15:59:01.251Z</time></trkpt><trkpt lat="46.1342541" lon="12.1462548"><ele>388.00000000000006</ele><time>2026-05-01T15:59:04.255Z</time></trkpt><trkpt lat="46.1342454" lon="12.1461388"><ele>388.0</ele><time>2026-05-01T15:59:07.257Z</time></trkpt><trkpt lat="46.1342475" lon="12.1460474"><ele>387.50000000000006</ele><time>2026-05-01T15:59:09.251Z</time></trkpt><trkpt lat="46.1342273" lon="12.1459551"><ele>387.0</ele><time>2026-05-01T15:59:12.249Z</time></trkpt><trkpt lat="46.1342021" lon="12.1458597"><ele>386.5</ele><time>2026-05-01T15:59:14.25Z</time></trkpt><trkpt lat="46.1341742" lon="12.1457726"><ele>386.0</ele><time>2026-05-01T15:59:16.252Z</time></trkpt><trkpt lat="46.1341693" lon="12.1456407"><ele>385.50000000000006</ele><time>2026-05-01T15:59:19.25Z</time></trkpt><trkpt lat="46.134122" lon="12.1455319"><ele>385.0</ele><time>2026-05-01T15:59:21.256Z</time></trkpt><trkpt lat="46.1340929" lon="12.145443"><ele>385.0</ele><time>2026-05-01T15:59:23.251Z</time></trkpt><trkpt lat="46.1340955" lon="12.1453439"><ele>385.0</ele><time>2026-05-01T15:59:27.25Z</time></trkpt><trkpt lat="46.1341248" lon="12.1452603"><ele>385.0</ele><time>2026-05-01T15:59:31.251Z</time></trkpt><trkpt lat="46.1341417" lon="12.145146"><ele>385.0</ele><time>2026-05-01T15:59:35.25Z</time></trkpt><trkpt lat="46.1341661" lon="12.1450264"><ele>385.0</ele><time>2026-05-01T15:59:38.251Z</time></trkpt><trkpt lat="46.1341555" lon="12.1449277"><ele>385.0</ele><time>2026-05-01T15:59:40.25Z</time></trkpt><trkpt lat="46.1341497" lon="12.1448206"><ele>385.0</ele><time>2026-05-01T15:59:42.253Z</time></trkpt><trkpt lat="46.1341495" lon="12.1447006"><ele>383.6666666666667</ele><time>2026-05-01T15:59:44.254Z</time></trkpt><trkpt lat="46.1341457" lon="12.14459"><ele>382.33333333333337</ele><time>2026-05-01T15:59:46.26Z</time></trkpt><trkpt lat="46.1341593" lon="12.1444815"><ele>381.0</ele><time>2026-05-01T15:59:50.255Z</time></trkpt><trkpt lat="46.1341546" lon="12.1443801"><ele>379.6666666666667</ele><time>2026-05-01T15:59:53.254Z</time></trkpt><trkpt lat="46.1341129" lon="12.1442973"><ele>378.33333333333337</ele><time>2026-05-01T16:03:07.267Z</time></trkpt><trkpt lat="46.1341221" lon="12.1441903"><ele>377.0</ele><time>2026-05-01T16:03:11.252Z</time></trkpt><trkpt lat="46.1341357" lon="12.1440753"><ele>376.1666666666667</ele><time>2026-05-01T16:03:14.257Z</time></trkpt><trkpt lat="46.1341172" lon="12.1439684"><ele>375.33333333333337</ele><time>2026-05-01T16:03:18.25Z</time></trkpt><trkpt lat="46.1341228" lon="12.1438744"><ele>374.5</ele><time>2026-05-01T16:03:21.255Z</time></trkpt><trkpt lat="46.1341553" lon="12.14378"><ele>373.6666666666667</ele><time>2026-05-01T16:03:24.253Z</time></trkpt><trkpt lat="46.1341613" lon="12.1436582"><ele>372.8333333333333</ele><time>2026-05-01T16:03:27.255Z</time></trkpt><trkpt lat="46.1341663" lon="12.1435376"><ele>372.0</ele><time>2026-05-01T16:03:30.257Z</time></trkpt><trkpt lat="46.1341653" lon="12.1434378"><ele>372.0</ele><time>2026-05-01T16:03:33.261Z</time></trkpt><trkpt lat="46.1341716" lon="12.1433338"><ele>372.0</ele><time>2026-05-01T16:03:37.257Z</time></trkpt><trkpt lat="46.1341821" lon="12.1432292"><ele>372.0</ele><time>2026-05-01T16:03:41.259Z</time></trkpt><trkpt lat="46.1341972" lon="12.1431287"><ele>372.0</ele><time>2026-05-01T16:03:46.265Z</time></trkpt><trkpt lat="46.1342049" lon="12.1430307"><ele>372.0</ele><time>2026-05-01T16:03:49.252Z</time></trkpt><trkpt lat="46.1342228" lon="12.1429039"><ele>372.0</ele><time>2026-05-01T16:03:52.256Z</time></trkpt><trkpt lat="46.1342431" lon="12.1427781"><ele>372.00000000000006</ele><time>2026-05-01T16:03:55.253Z</time></trkpt><trkpt lat="46.1342533" lon="12.1426458"><ele>372.0</ele><time>2026-05-01T16:03:58.252Z</time></trkpt><trkpt lat="46.134257" lon="12.1425187"><ele>372.0</ele><time>2026-05-01T16:04:01.258Z</time></trkpt><trkpt lat="46.1342513" lon="12.1424276"><ele>372.0</ele><time>2026-05-01T16:04:03.259Z</time></trkpt><trkpt lat="46.134245" lon="12.1423349"><ele>372.0</ele><time>2026-05-01T16:04:05.254Z</time></trkpt><trkpt lat="46.1342362" lon="12.1422407"><ele>372.00000000000006</ele><time>2026-05-01T16:04:07.258Z</time></trkpt><trkpt lat="46.1342274" lon="12.1421477"><ele>372.0</ele><time>2026-05-01T16:04:09.259Z</time></trkpt><trkpt lat="46.1342192" lon="12.142053"><ele>372.00000000000006</ele><time>2026-05-01T16:04:11.256Z</time></trkpt><trkpt lat="46.1342074" lon="12.1419534"><ele>372.0</ele><time>2026-05-01T16:04:13.269Z</time></trkpt><trkpt lat="46.1341964" lon="12.1418525"><ele>372.0</ele><time>2026-05-01T16:04:15.267Z</time></trkpt><trkpt lat="46.1341773" lon="12.1417539"><ele>372.0</ele><time>2026-05-01T16:04:17.255Z</time></trkpt><trkpt lat="46.1341528" lon="12.1416635"><ele>372.0</ele><time>2026-05-01T16:04:19.257Z</time></trkpt><trkpt lat="46.134115" lon="12.1415759"><ele>372.00000000000006</ele><time>2026-05-01T16:04:21.254Z</time></trkpt><trkpt lat="46.1340815" lon="12.1414775"><ele>372.0</ele><time>2026-05-01T16:04:23.252Z</time></trkpt><trkpt lat="46.1340501" lon="12.1413874"><ele>370.5</ele><time>2026-05-01T16:04:25.255Z</time></trkpt><trkpt lat="46.1340371" lon="12.1412923"><ele>369.0</ele><time>2026-05-01T16:05:49.252Z</time></trkpt><trkpt lat="46.1340297" lon="12.1411947"><ele>367.5</ele><time>2026-05-01T16:06:55.264Z</time></trkpt><trkpt lat="46.1339688" lon="12.1410988"><ele>366.0</ele><time>2026-05-01T16:06:58.261Z</time></trkpt><trkpt lat="46.1339058" lon="12.1410103"><ele>364.5</ele><time>2026-05-01T16:07:00.263Z</time></trkpt><trkpt lat="46.1338366" lon="12.1408981"><ele>363.0</ele><time>2026-05-01T16:07:02.259Z</time></trkpt><trkpt lat="46.1337371" lon="12.1407954"><ele>363.0</ele><time>2026-05-01T16:07:04.262Z</time></trkpt><trkpt lat="46.1336894" lon="12.1407289"><ele>363.0</ele><time>2026-05-01T16:07:05.258Z</time></trkpt><trkpt lat="46.1336466" lon="12.1406543"><ele>363.0</ele><time>2026-05-01T16:07:06.252Z</time></trkpt><trkpt lat="46.1335974" lon="12.1405877"><ele>363.0</ele><time>2026-05-01T16:07:07.257Z</time></trkpt><trkpt lat="46.133552" lon="12.1405204"><ele>363.0</ele><time>2026-05-01T16:07:08.257Z</time></trkpt><trkpt lat="46.1334704" lon="12.1403831"><ele>363.0</ele><time>2026-05-01T16:07:10.249Z</time></trkpt><trkpt lat="46.1333984" lon="12.1402331"><ele>362.2</ele><time>2026-05-01T16:07:12.261Z</time></trkpt><trkpt lat="46.1333381" lon="12.1400809"><ele>361.4</ele><time>2026-05-01T16:07:14.259Z</time></trkpt><trkpt lat="46.1332892" lon="12.139923"><ele>360.59999999999997</ele><time>2026-05-01T16:07:16.262Z</time></trkpt><trkpt lat="46.1332468" lon="12.139789"><ele>359.79999999999995</ele><time>2026-05-01T16:07:18.259Z</time></trkpt><trkpt lat="46.1332051" lon="12.1396597"><ele>359.0</ele><time>2026-05-01T16:07:20.257Z</time></trkpt><trkpt lat="46.1331459" lon="12.1395287"><ele>359.0</ele><time>2026-05-01T16:07:22.261Z</time></trkpt><trkpt lat="46.1330853" lon="12.1393879"><ele>359.0</ele><time>2026-05-01T16:07:24.265Z</time></trkpt><trkpt lat="46.1330572" lon="12.1393042"><ele>359.0</ele><time>2026-05-01T16:07:25.263Z</time></trkpt><trkpt lat="46.133031" lon="12.1392203"><ele>359.0</ele><time>2026-05-01T16:07:26.265Z</time></trkpt><trkpt lat="46.1329827" lon="12.1390685"><ele>359.0</ele><time>2026-05-01T16:07:28.262Z</time></trkpt><trkpt lat="46.1329344" lon="12.1389248"><ele>359.79999999999995</ele><time>2026-05-01T16:07:30.261Z</time></trkpt><trkpt lat="46.1328854" lon="12.1387985"><ele>360.59999999999997</ele><time>2026-05-01T16:07:32.274Z</time></trkpt><trkpt lat="46.1328399" lon="12.1386702"><ele>361.4</ele><time>2026-05-01T16:07:34.273Z</time></trkpt><trkpt lat="46.1327957" lon="12.1385505"><ele>362.2</ele><time>2026-05-01T16:07:36.275Z</time></trkpt><trkpt lat="46.132748" lon="12.1384294"><ele>363.0</ele><time>2026-05-01T16:07:38.276Z</time></trkpt><trkpt lat="46.1326972" lon="12.1383041"><ele>364.79999999999995</ele><time>2026-05-01T16:07:40.261Z</time></trkpt><trkpt lat="46.1326438" lon="12.1381719"><ele>366.6</ele><time>2026-05-01T16:07:42.268Z</time></trkpt><trkpt lat="46.1325925" lon="12.1380362"><ele>368.4</ele><time>2026-05-01T16:07:44.267Z</time></trkpt><trkpt lat="46.1325397" lon="12.1378986"><ele>370.20000000000005</ele><time>2026-05-01T16:07:46.273Z</time></trkpt><trkpt lat="46.1324799" lon="12.1377625"><ele>372.0</ele><time>2026-05-01T16:07:48.27Z</time></trkpt><trkpt lat="46.1324286" lon="12.1376242"><ele>369.6</ele><time>2026-05-01T16:07:50.266Z</time></trkpt><trkpt lat="46.1323759" lon="12.1374827"><ele>367.20000000000005</ele><time>2026-05-01T16:07:52.27Z</time></trkpt><trkpt lat="46.1323245" lon="12.1373421"><ele>364.8</ele><time>2026-05-01T16:07:54.261Z</time></trkpt><trkpt lat="46.1322783" lon="12.1371999"><ele>362.4</ele><time>2026-05-01T16:07:56.28Z</time></trkpt><trkpt lat="46.13223" lon="12.1370632"><ele>360.0</ele><time>2026-05-01T16:07:58.263Z</time></trkpt><trkpt lat="46.1321728" lon="12.1369317"><ele>360.4</ele><time>2026-05-01T16:08:00.27Z</time></trkpt><trkpt lat="46.1321123" lon="12.1368081"><ele>360.8</ele><time>2026-05-01T16:08:02.272Z</time></trkpt><trkpt lat="46.1320502" lon="12.1366897"><ele>361.20000000000005</ele><time>2026-05-01T16:08:04.264Z</time></trkpt><trkpt lat="46.1319846" lon="12.136561"><ele>361.6</ele><time>2026-05-01T16:08:06.274Z</time></trkpt><trkpt lat="46.1319222" lon="12.136425"><ele>362.0</ele><time>2026-05-01T16:08:08.26Z</time></trkpt><trkpt lat="46.1318747" lon="12.1362787"><ele>362.0</ele><time>2026-05-01T16:08:10.265Z</time></trkpt><trkpt lat="46.1318387" lon="12.1361156"><ele>362.0</ele><time>2026-05-01T16:08:12.269Z</time></trkpt><trkpt lat="46.1317966" lon="12.1359517"><ele>362.0</ele><time>2026-05-01T16:08:14.27Z</time></trkpt><trkpt lat="46.1317574" lon="12.1357842"><ele>362.0</ele><time>2026-05-01T16:08:16.266Z</time></trkpt><trkpt lat="46.1317168" lon="12.1356269"><ele>361.40000000000003</ele><time>2026-05-01T16:08:18.266Z</time></trkpt><trkpt lat="46.1316727" lon="12.1354767"><ele>360.8</ele><time>2026-05-01T16:08:20.272Z</time></trkpt><trkpt lat="46.131643" lon="12.135327"><ele>360.2</ele><time>2026-05-01T16:08:22.273Z</time></trkpt><trkpt lat="46.1316661" lon="12.135191"><ele>359.6</ele><time>2026-05-01T16:08:24.272Z</time></trkpt><trkpt lat="46.1317299" lon="12.1350864"><ele>359.0</ele><time>2026-05-01T16:08:26.264Z</time></trkpt><trkpt lat="46.1318021" lon="12.135006"><ele>359.0</ele><time>2026-05-01T16:08:28.274Z</time></trkpt><trkpt lat="46.1318853" lon="12.1349411"><ele>359.0</ele><time>2026-05-01T16:08:30.28Z</time></trkpt><trkpt lat="46.1319637" lon="12.1348712"><ele>359.0</ele><time>2026-05-01T16:08:32.27Z</time></trkpt><trkpt lat="46.1320393" lon="12.134808"><ele>359.0</ele><time>2026-05-01T16:08:34.36Z</time></trkpt><trkpt lat="46.1321141" lon="12.134745"><ele>359.0</ele><time>2026-05-01T16:08:36.266Z</time></trkpt><trkpt lat="46.1321839" lon="12.1346793"><ele>359.0</ele><time>2026-05-01T16:08:38.272Z</time></trkpt><trkpt lat="46.1322551" lon="12.1346169"><ele>359.0</ele><time>2026-05-01T16:08:40.275Z</time></trkpt><trkpt lat="46.1323289" lon="12.1345476"><ele>359.0</ele><time>2026-05-01T16:08:42.259Z</time></trkpt><trkpt lat="46.1324034" lon="12.1344805"><ele>359.0</ele><time>2026-05-01T16:08:44.269Z</time></trkpt><trkpt lat="46.132452" lon="12.1343786"><ele>359.0</ele><time>2026-05-01T16:08:46.264Z</time></trkpt><trkpt lat="46.1324867" lon="12.1342622"><ele>359.0</ele><time>2026-05-01T16:08:48.271Z</time></trkpt><trkpt lat="46.132504" lon="12.13414"><ele>359.0</ele><time>2026-05-01T16:08:50.267Z</time></trkpt><trkpt lat="46.1325045" lon="12.1340172"><ele>358.2</ele><time>2026-05-01T16:08:52.267Z</time></trkpt><trkpt lat="46.1324749" lon="12.1338905"><ele>357.4</ele><time>2026-05-01T16:08:54.263Z</time></trkpt><trkpt lat="46.1324051" lon="12.1337768"><ele>356.6</ele><time>2026-05-01T16:08:56.275Z</time></trkpt><trkpt lat="46.1323107" lon="12.1336927"><ele>355.8</ele><time>2026-05-01T16:08:58.27Z</time></trkpt><trkpt lat="46.1322029" lon="12.13365"><ele>355.0</ele><time>2026-05-01T16:09:00.266Z</time></trkpt><trkpt lat="46.1320942" lon="12.1336344"><ele>354.6</ele><time>2026-05-01T16:09:02.255Z</time></trkpt><trkpt lat="46.1319863" lon="12.1336309"><ele>354.2</ele><time>2026-05-01T16:09:04.27Z</time></trkpt><trkpt lat="46.1318765" lon="12.1336496"><ele>353.79999999999995</ele><time>2026-05-01T16:09:06.27Z</time></trkpt><trkpt lat="46.1317669" lon="12.1336723"><ele>353.4</ele><time>2026-05-01T16:09:08.269Z</time></trkpt><trkpt lat="46.1316534" lon="12.1336812"><ele>353.0</ele><time>2026-05-01T16:09:10.262Z</time></trkpt><trkpt lat="46.1315341" lon="12.1336681"><ele>353.0</ele><time>2026-05-01T16:09:12.269Z</time></trkpt><trkpt lat="46.1314242" lon="12.1336193"><ele>353.0</ele><time>2026-05-01T16:09:14.269Z</time></trkpt><trkpt lat="46.1313169" lon="12.1335399"><ele>353.0</ele><time>2026-05-01T16:09:16.256Z</time></trkpt><trkpt lat="46.1312236" lon="12.1334444"><ele>353.0</ele><time>2026-05-01T16:09:18.271Z</time></trkpt><trkpt lat="46.1311326" lon="12.1333459"><ele>353.0</ele><time>2026-05-01T16:09:20.272Z</time></trkpt><trkpt lat="46.1310575" lon="12.133245"><ele>353.0</ele><time>2026-05-01T16:09:22.27Z</time></trkpt><trkpt lat="46.1309834" lon="12.133137"><ele>353.0</ele><time>2026-05-01T16:09:24.271Z</time></trkpt><trkpt lat="46.130908" lon="12.1330266"><ele>353.0</ele><time>2026-05-01T16:09:26.273Z</time></trkpt><trkpt lat="46.1308253" lon="12.1329156"><ele>353.0</ele><time>2026-05-01T16:09:28.268Z</time></trkpt><trkpt lat="46.1307326" lon="12.1328214"><ele>352.79999999999995</ele><time>2026-05-01T16:09:30.268Z</time></trkpt><trkpt lat="46.1306298" lon="12.1327451"><ele>352.6</ele><time>2026-05-01T16:09:32.266Z</time></trkpt><trkpt lat="46.1305341" lon="12.1326974"><ele>352.4</ele><time>2026-05-01T16:09:34.274Z</time></trkpt><trkpt lat="46.1304355" lon="12.1326861"><ele>352.20000000000005</ele><time>2026-05-01T16:09:36.267Z</time></trkpt><trkpt lat="46.1303488" lon="12.1326788"><ele>352.0</ele><time>2026-05-01T16:09:38.27Z</time></trkpt><trkpt lat="46.1303551" lon="12.1325839"><ele>352.0</ele><time>2026-05-01T16:09:43.269Z</time></trkpt><trkpt lat="46.1303751" lon="12.1324767"><ele>352.0</ele><time>2026-05-01T16:09:48.269Z</time></trkpt><trkpt lat="46.1303839" lon="12.1323576"><ele>352.0</ele><time>2026-05-01T16:09:51.268Z</time></trkpt><trkpt lat="46.1303616" lon="12.1322498"><ele>352.0</ele><time>2026-05-01T16:09:53.271Z</time></trkpt><trkpt lat="46.1303338" lon="12.1321308"><ele>352.0</ele><time>2026-05-01T16:09:55.276Z</time></trkpt><trkpt lat="46.1303065" lon="12.1320136"><ele>352.0</ele><time>2026-05-01T16:09:57.271Z</time></trkpt><trkpt lat="46.1302745" lon="12.131897"><ele>351.3333333333333</ele><time>2026-05-01T16:09:59.269Z</time></trkpt><trkpt lat="46.1302408" lon="12.1317731"><ele>350.66666666666663</ele><time>2026-05-01T16:10:01.274Z</time></trkpt><trkpt lat="46.1302117" lon="12.1316591"><ele>350.0</ele><time>2026-05-01T16:10:03.27Z</time></trkpt><trkpt lat="46.1301866" lon="12.131548"><ele>349.3333333333333</ele><time>2026-05-01T16:10:05.263Z</time></trkpt><trkpt lat="46.1301591" lon="12.1314374"><ele>348.6666666666667</ele><time>2026-05-01T16:10:07.252Z</time></trkpt><trkpt lat="46.1301343" lon="12.1313235"><ele>348.0</ele><time>2026-05-01T16:10:09.254Z</time></trkpt><trkpt lat="46.1301234" lon="12.1312045"><ele>348.0</ele><time>2026-05-01T16:10:11.265Z</time></trkpt><trkpt lat="46.1301431" lon="12.131089"><ele>348.0</ele><time>2026-05-01T16:10:13.263Z</time></trkpt><trkpt lat="46.1301923" lon="12.1309911"><ele>348.0</ele><time>2026-05-01T16:10:15.265Z</time></trkpt><trkpt lat="46.1302596" lon="12.1309118"><ele>348.0</ele><time>2026-05-01T16:10:17.255Z</time></trkpt><trkpt lat="46.1303279" lon="12.1308454"><ele>348.0</ele><time>2026-05-01T16:10:19.262Z</time></trkpt><trkpt lat="46.1303943" lon="12.1307862"><ele>348.0</ele><time>2026-05-01T16:10:21.262Z</time></trkpt><trkpt lat="46.13046" lon="12.1307468"><ele>348.0</ele><time>2026-05-01T16:10:23.27Z</time></trkpt><trkpt lat="46.1305268" lon="12.1307338"><ele>348.0</ele><time>2026-05-01T16:10:25.266Z</time></trkpt><trkpt lat="46.1305891" lon="12.1307182"><ele>348.0</ele><time>2026-05-01T16:10:27.271Z</time></trkpt><trkpt lat="46.1306594" lon="12.1306905"><ele>348.0</ele><time>2026-05-01T16:10:29.271Z</time></trkpt><trkpt lat="46.1307401" lon="12.130666"><ele>348.0</ele><time>2026-05-01T16:10:31.268Z</time></trkpt><trkpt lat="46.130823" lon="12.1306358"><ele>348.0</ele><time>2026-05-01T16:10:33.27Z</time></trkpt><trkpt lat="46.1309067" lon="12.130605"><ele>347.3333333333333</ele><time>2026-05-01T16:10:35.28Z</time></trkpt><trkpt lat="46.1309957" lon="12.1305855"><ele>346.6666666666667</ele><time>2026-05-01T16:10:37.271Z</time></trkpt><trkpt lat="46.1310839" lon="12.1305547"><ele>346.0</ele><time>2026-05-01T16:10:39.264Z</time></trkpt><trkpt lat="46.1311581" lon="12.1305303"><ele>345.33333333333337</ele><time>2026-05-01T16:10:41.259Z</time></trkpt><trkpt lat="46.1312444" lon="12.1305023"><ele>344.6666666666667</ele><time>2026-05-01T16:10:44.274Z</time></trkpt><trkpt lat="46.1313083" lon="12.1304757"><ele>344.0</ele><time>2026-05-01T16:10:46.269Z</time></trkpt><trkpt lat="46.1313662" lon="12.1304359"><ele>344.0</ele><time>2026-05-01T16:10:48.267Z</time></trkpt><trkpt lat="46.1313519" lon="12.1303053"><ele>344.0</ele><time>2026-05-01T16:10:51.274Z</time></trkpt><trkpt lat="46.1313152" lon="12.130199"><ele>344.0</ele><time>2026-05-01T16:10:53.271Z</time></trkpt><trkpt lat="46.1312627" lon="12.1300998"><ele>344.0</ele><time>2026-05-01T16:10:55.262Z</time></trkpt><trkpt lat="46.1312129" lon="12.129994"><ele>344.0</ele><time>2026-05-01T16:10:57.274Z</time></trkpt><trkpt lat="46.1311646" lon="12.129875"><ele>344.0</ele><time>2026-05-01T16:10:59.264Z</time></trkpt><trkpt lat="46.1311143" lon="12.1297565"><ele>344.0</ele><time>2026-05-01T16:11:01.269Z</time></trkpt><trkpt lat="46.131061" lon="12.1296389"><ele>344.0</ele><time>2026-05-01T16:11:03.267Z</time></trkpt><trkpt lat="46.1310101" lon="12.1295132"><ele>344.0</ele><time>2026-05-01T16:11:05.262Z</time></trkpt><trkpt lat="46.1309603" lon="12.1293888"><ele>344.0</ele><time>2026-05-01T16:11:07.269Z</time></trkpt><trkpt lat="46.1309057" lon="12.1292616"><ele>344.0</ele><time>2026-05-01T16:11:09.259Z</time></trkpt><trkpt lat="46.1308501" lon="12.1291244"><ele>344.25</ele><time>2026-05-01T16:11:11.302Z</time></trkpt><trkpt lat="46.1307604" lon="12.1289119"><ele>344.5</ele><time>2026-05-01T16:11:14.31Z</time></trkpt><trkpt lat="46.1306952" lon="12.1287709"><ele>344.75</ele><time>2026-05-01T16:11:16.321Z</time></trkpt><trkpt lat="46.130633" lon="12.1286276"><ele>345.0</ele><time>2026-05-01T16:11:18.271Z</time></trkpt><trkpt lat="46.1305769" lon="12.1284837"><ele>344.2</ele><time>2026-05-01T16:11:20.26Z</time></trkpt><trkpt lat="46.1305415" lon="12.1283338"><ele>343.4</ele><time>2026-05-01T16:11:22.252Z</time></trkpt><trkpt lat="46.1305129" lon="12.1281832"><ele>342.6</ele><time>2026-05-01T16:11:24.255Z</time></trkpt><trkpt lat="46.1304916" lon="12.1280357"><ele>341.8</ele><time>2026-05-01T16:11:26.256Z</time></trkpt><trkpt lat="46.1304615" lon="12.1278747"><ele>341.0</ele><time>2026-05-01T16:11:28.254Z</time></trkpt><trkpt lat="46.1304237" lon="12.127727"><ele>341.0</ele><time>2026-05-01T16:11:30.269Z</time></trkpt><trkpt lat="46.1303573" lon="12.1275885"><ele>341.0</ele><time>2026-05-01T16:11:32.251Z</time></trkpt><trkpt lat="46.1302749" lon="12.1274757"><ele>341.0</ele><time>2026-05-01T16:11:34.259Z</time></trkpt><trkpt lat="46.1301942" lon="12.12736"><ele>341.0</ele><time>2026-05-01T16:11:36.271Z</time></trkpt><trkpt lat="46.130108" lon="12.1272501"><ele>341.8</ele><time>2026-05-01T16:11:38.252Z</time></trkpt><trkpt lat="46.1300314" lon="12.1271435"><ele>342.6</ele><time>2026-05-01T16:11:40.253Z</time></trkpt><trkpt lat="46.1299537" lon="12.127026"><ele>343.4</ele><time>2026-05-01T16:11:42.265Z</time></trkpt><trkpt lat="46.1298944" lon="12.1268981"><ele>344.2</ele><time>2026-05-01T16:11:44.272Z</time></trkpt><trkpt lat="46.1298477" lon="12.126764"><ele>345.0</ele><time>2026-05-01T16:11:46.272Z</time></trkpt><trkpt lat="46.129805" lon="12.1266458"><ele>345.0</ele><time>2026-05-01T16:11:48.251Z</time></trkpt><trkpt lat="46.1297756" lon="12.1265343"><ele>345.0</ele><time>2026-05-01T16:11:50.268Z</time></trkpt><trkpt lat="46.1297489" lon="12.1264327"><ele>345.0</ele><time>2026-05-01T16:11:52.269Z</time></trkpt><trkpt lat="46.1297266" lon="12.1263368"><ele>345.0</ele><time>2026-05-01T16:11:54.256Z</time></trkpt><trkpt lat="46.1297035" lon="12.1262433"><ele>345.0</ele><time>2026-05-01T16:11:56.263Z</time></trkpt><trkpt lat="46.1296824" lon="12.1261489"><ele>345.0</ele><time>2026-05-01T16:11:58.262Z</time></trkpt><trkpt lat="46.1296594" lon="12.1260562"><ele>345.0</ele><time>2026-05-01T16:12:00.275Z</time></trkpt><trkpt lat="46.1296281" lon="12.1259713"><ele>345.0</ele><time>2026-05-01T16:12:02.272Z</time></trkpt><trkpt lat="46.1295899" lon="12.1258891"><ele>345.0</ele><time>2026-05-01T16:12:04.27Z</time></trkpt><trkpt lat="46.1295519" lon="12.1258096"><ele>345.0</ele><time>2026-05-01T16:12:06.254Z</time></trkpt><trkpt lat="46.1295127" lon="12.1257318"><ele>345.0</ele><time>2026-05-01T16:12:08.271Z</time></trkpt><trkpt lat="46.1294676" lon="12.1256445"><ele>345.0</ele><time>2026-05-01T16:12:10.255Z</time></trkpt><trkpt lat="46.1294154" lon="12.1255535"><ele>345.0</ele><time>2026-05-01T16:12:12.256Z</time></trkpt><trkpt lat="46.1293574" lon="12.125465"><ele>345.0</ele><time>2026-05-01T16:12:14.273Z</time></trkpt><trkpt lat="46.1293022" lon="12.1253689"><ele>345.0</ele><time>2026-05-01T16:12:16.263Z</time></trkpt><trkpt lat="46.1292457" lon="12.125267"><ele>345.0</ele><time>2026-05-01T16:12:18.273Z</time></trkpt><trkpt lat="46.129184" lon="12.1251652"><ele>345.0</ele><time>2026-05-01T16:12:20.278Z</time></trkpt><trkpt lat="46.129131" lon="12.1250612"><ele>345.0</ele><time>2026-05-01T16:12:22.278Z</time></trkpt><trkpt lat="46.1290818" lon="12.1249579"><ele>345.0</ele><time>2026-05-01T16:12:24.258Z</time></trkpt><trkpt lat="46.1290286" lon="12.1248638"><ele>345.0</ele><time>2026-05-01T16:12:26.262Z</time></trkpt><trkpt lat="46.1289815" lon="12.1247596"><ele>345.0</ele><time>2026-05-01T16:12:28.273Z</time></trkpt><trkpt lat="46.1289292" lon="12.1246508"><ele>345.0</ele><time>2026-05-01T16:12:30.263Z</time></trkpt><trkpt lat="46.1288742" lon="12.1245275"><ele>345.0</ele><time>2026-05-01T16:12:32.264Z</time></trkpt><trkpt lat="46.1288331" lon="12.1243952"><ele>345.0</ele><time>2026-05-01T16:12:34.312Z</time></trkpt><trkpt lat="46.1287973" lon="12.1242622"><ele>345.0</ele><time>2026-05-01T16:12:36.274Z</time></trkpt><trkpt lat="46.1287755" lon="12.1241215"><ele>345.4</ele><time>2026-05-01T16:12:38.288Z</time></trkpt><trkpt lat="46.1287586" lon="12.1239802"><ele>345.8</ele><time>2026-05-01T16:12:40.278Z</time></trkpt><trkpt lat="46.1287302" lon="12.1238419"><ele>346.20000000000005</ele><time>2026-05-01T16:12:42.301Z</time></trkpt><trkpt lat="46.1286882" lon="12.1237139"><ele>346.6</ele><time>2026-05-01T16:12:44.318Z</time></trkpt><trkpt lat="46.1286366" lon="12.1235757"><ele>347.0</ele><time>2026-05-01T16:12:46.275Z</time></trkpt><trkpt lat="46.1285811" lon="12.1234378"><ele>347.0</ele><time>2026-05-01T16:12:48.261Z</time></trkpt><trkpt lat="46.1285307" lon="12.1233009"><ele>347.0</ele><time>2026-05-01T16:12:50.269Z</time></trkpt><trkpt lat="46.128478" lon="12.1231665"><ele>347.0</ele><time>2026-05-01T16:12:52.306Z</time></trkpt><trkpt lat="46.1284273" lon="12.1230222"><ele>347.0</ele><time>2026-05-01T16:12:54.317Z</time></trkpt><trkpt lat="46.1283738" lon="12.1228865"><ele>347.0</ele><time>2026-05-01T16:12:56.277Z</time></trkpt><trkpt lat="46.1283166" lon="12.1227537"><ele>347.0</ele><time>2026-05-01T16:12:58.276Z</time></trkpt><trkpt lat="46.128256" lon="12.1226248"><ele>347.0</ele><time>2026-05-01T16:13:00.268Z</time></trkpt><trkpt lat="46.1281943" lon="12.1224981"><ele>347.0</ele><time>2026-05-01T16:13:02.255Z</time></trkpt><trkpt lat="46.1281299" lon="12.1223756"><ele>347.0</ele><time>2026-05-01T16:13:04.27Z</time></trkpt><trkpt lat="46.1280723" lon="12.1222503"><ele>347.0</ele><time>2026-05-01T16:13:06.261Z</time></trkpt><trkpt lat="46.1280113" lon="12.1221235"><ele>347.0</ele><time>2026-05-01T16:13:08.262Z</time></trkpt><trkpt lat="46.1279533" lon="12.1220082"><ele>347.0</ele><time>2026-05-01T16:13:10.266Z</time></trkpt><trkpt lat="46.1278814" lon="12.1219173"><ele>347.0</ele><time>2026-05-01T16:13:12.271Z</time></trkpt><trkpt lat="46.1277828" lon="12.1219267"><ele>347.0</ele><time>2026-05-01T16:13:14.282Z</time></trkpt><trkpt lat="46.1276902" lon="12.121983"><ele>347.0</ele><time>2026-05-01T16:13:16.271Z</time></trkpt><trkpt lat="46.1275913" lon="12.122035"><ele>347.0</ele><time>2026-05-01T16:13:18.264Z</time></trkpt><trkpt lat="46.1274821" lon="12.1220709"><ele>347.0</ele><time>2026-05-01T16:13:20.276Z</time></trkpt><trkpt lat="46.1273675" lon="12.1221162"><ele>347.0</ele><time>2026-05-01T16:13:22.262Z</time></trkpt><trkpt lat="46.1272486" lon="12.1221506"><ele>347.0</ele><time>2026-05-01T16:13:24.268Z</time></trkpt><trkpt lat="46.1271348" lon="12.1221887"><ele>345.75</ele><time>2026-05-01T16:13:26.262Z</time></trkpt><trkpt lat="46.1270216" lon="12.122229"><ele>344.5</ele><time>2026-05-01T16:13:28.258Z</time></trkpt><trkpt lat="46.1269055" lon="12.1222668"><ele>343.25</ele><time>2026-05-01T16:13:30.267Z</time></trkpt><trkpt lat="46.1267905" lon="12.122306"><ele>342.0</ele><time>2026-05-01T16:13:32.263Z</time></trkpt><trkpt lat="46.1266698" lon="12.1223558"><ele>342.0</ele><time>2026-05-01T16:13:34.257Z</time></trkpt><trkpt lat="46.126609" lon="12.1223828"><ele>342.0</ele><time>2026-05-01T16:13:35.262Z</time></trkpt><trkpt lat="46.1264887" lon="12.1224232"><ele>342.0</ele><time>2026-05-01T16:13:37.255Z</time></trkpt><trkpt lat="46.126369" lon="12.122461"><ele>342.0</ele><time>2026-05-01T16:13:39.271Z</time></trkpt><trkpt lat="46.1262525" lon="12.1225123"><ele>342.0</ele><time>2026-05-01T16:13:41.265Z</time></trkpt><trkpt lat="46.1261372" lon="12.1225865"><ele>341.6666666666667</ele><time>2026-05-01T16:13:43.262Z</time></trkpt><trkpt lat="46.1260257" lon="12.122694"><ele>341.3333333333333</ele><time>2026-05-01T16:13:45.265Z</time></trkpt><trkpt lat="46.1259665" lon="12.1227517"><ele>341.0</ele><time>2026-05-01T16:13:46.26Z</time></trkpt><trkpt lat="46.125905" lon="12.1228154"><ele>340.66666666666663</ele><time>2026-05-01T16:13:47.298Z</time></trkpt><trkpt lat="46.1258486" lon="12.1228806"><ele>340.3333333333333</ele><time>2026-05-01T16:13:48.252Z</time></trkpt><trkpt lat="46.1257932" lon="12.1229504"><ele>340.0</ele><time>2026-05-01T16:13:49.261Z</time></trkpt><trkpt lat="46.1257398" lon="12.1230168"><ele>339.4</ele><time>2026-05-01T16:13:50.253Z</time></trkpt><trkpt lat="46.1256819" lon="12.1230853"><ele>338.8</ele><time>2026-05-01T16:13:51.254Z</time></trkpt><trkpt lat="46.1256221" lon="12.123142"><ele>338.20000000000005</ele><time>2026-05-01T16:13:52.253Z</time></trkpt><trkpt lat="46.1255622" lon="12.1231912"><ele>337.6</ele><time>2026-05-01T16:13:53.258Z</time></trkpt><trkpt lat="46.1254415" lon="12.1232483"><ele>337.0</ele><time>2026-05-01T16:13:55.266Z</time></trkpt><trkpt lat="46.12532" lon="12.1232731"><ele>337.0</ele><time>2026-05-01T16:13:57.263Z</time></trkpt><trkpt lat="46.1252008" lon="12.1232401"><ele>337.0</ele><time>2026-05-01T16:13:59.26Z</time></trkpt><trkpt lat="46.125095" lon="12.1231766"><ele>337.0</ele><time>2026-05-01T16:14:01.258Z</time></trkpt><trkpt lat="46.1249899" lon="12.1230838"><ele>337.0</ele><time>2026-05-01T16:14:03.255Z</time></trkpt><trkpt lat="46.124889" lon="12.1229814"><ele>336.16666666666663</ele><time>2026-05-01T16:14:05.274Z</time></trkpt><trkpt lat="46.1247861" lon="12.1228768"><ele>335.3333333333333</ele><time>2026-05-01T16:14:07.27Z</time></trkpt><trkpt lat="46.124732" lon="12.1228256"><ele>334.5</ele><time>2026-05-01T16:14:08.26Z</time></trkpt><trkpt lat="46.1246772" lon="12.1227761"><ele>333.6666666666667</ele><time>2026-05-01T16:14:09.266Z</time></trkpt><trkpt lat="46.1246188" lon="12.1227247"><ele>332.83333333333337</ele><time>2026-05-01T16:14:10.26Z</time></trkpt><trkpt lat="46.1245593" lon="12.1226819"><ele>332.0</ele><time>2026-05-01T16:14:11.271Z</time></trkpt><trkpt lat="46.1244972" lon="12.1226366"><ele>332.0</ele><time>2026-05-01T16:14:12.264Z</time></trkpt><trkpt lat="46.1244295" lon="12.1226"><ele>332.0</ele><time>2026-05-01T16:14:13.275Z</time></trkpt><trkpt lat="46.1243614" lon="12.1225676"><ele>332.0</ele><time>2026-05-01T16:14:14.261Z</time></trkpt><trkpt lat="46.1242964" lon="12.122541"><ele>332.0</ele><time>2026-05-01T16:14:15.264Z</time></trkpt><trkpt lat="46.1242271" lon="12.1225127"><ele>332.0</ele><time>2026-05-01T16:14:16.269Z</time></trkpt><trkpt lat="46.1241571" lon="12.1224868"><ele>332.0</ele><time>2026-05-01T16:14:17.264Z</time></trkpt><trkpt lat="46.1240905" lon="12.1224621"><ele>332.0</ele><time>2026-05-01T16:14:18.259Z</time></trkpt><trkpt lat="46.1240193" lon="12.122444"><ele>331.7142857142857</ele><time>2026-05-01T16:14:19.253Z</time></trkpt><trkpt lat="46.1239545" lon="12.1224232"><ele>331.42857142857144</ele><time>2026-05-01T16:14:20.266Z</time></trkpt><trkpt lat="46.1238872" lon="12.122405"><ele>331.14285714285717</ele><time>2026-05-01T16:14:21.258Z</time></trkpt><trkpt lat="46.1238204" lon="12.1223871"><ele>330.8571428571429</ele><time>2026-05-01T16:14:22.256Z</time></trkpt><trkpt lat="46.1237545" lon="12.122375"><ele>330.57142857142856</ele><time>2026-05-01T16:14:23.263Z</time></trkpt><trkpt lat="46.1236868" lon="12.1223568"><ele>330.28571428571433</ele><time>2026-05-01T16:14:24.261Z</time></trkpt><trkpt lat="46.1236234" lon="12.1223467"><ele>330.0</ele><time>2026-05-01T16:14:25.253Z</time></trkpt><trkpt lat="46.1235561" lon="12.1223325"><ele>329.7142857142857</ele><time>2026-05-01T16:14:26.257Z</time></trkpt><trkpt lat="46.1234862" lon="12.1223217"><ele>329.42857142857144</ele><time>2026-05-01T16:14:27.251Z</time></trkpt><trkpt lat="46.1234156" lon="12.1223156"><ele>329.1428571428571</ele><time>2026-05-01T16:14:28.25Z</time></trkpt><trkpt lat="46.1233466" lon="12.1223031"><ele>328.8571428571429</ele><time>2026-05-01T16:14:29.251Z</time></trkpt><trkpt lat="46.1232806" lon="12.1222901"><ele>328.57142857142856</ele><time>2026-05-01T16:14:30.254Z</time></trkpt><trkpt lat="46.1232131" lon="12.1222792"><ele>328.2857142857143</ele><time>2026-05-01T16:14:31.254Z</time></trkpt><trkpt lat="46.1231473" lon="12.1222754"><ele>328.0</ele><time>2026-05-01T16:14:32.253Z</time></trkpt><trkpt lat="46.1230244" lon="12.1222896"><ele>327.8333333333333</ele><time>2026-05-01T16:14:34.263Z</time></trkpt><trkpt lat="46.1229014" lon="12.1223108"><ele>327.66666666666663</ele><time>2026-05-01T16:14:36.267Z</time></trkpt><trkpt lat="46.1227772" lon="12.1223256"><ele>327.5</ele><time>2026-05-01T16:14:38.273Z</time></trkpt><trkpt lat="46.1227119" lon="12.1223188"><ele>327.3333333333333</ele><time>2026-05-01T16:14:39.264Z</time></trkpt><trkpt lat="46.1226499" lon="12.1222987"><ele>327.1666666666667</ele><time>2026-05-01T16:14:40.272Z</time></trkpt><trkpt lat="46.1225903" lon="12.1222558"><ele>327.0</ele><time>2026-05-01T16:14:41.272Z</time></trkpt><trkpt lat="46.1225396" lon="12.1221932"><ele>327.0</ele><time>2026-05-01T16:14:42.268Z</time></trkpt><trkpt lat="46.1224546" lon="12.1220499"><ele>327.0</ele><time>2026-05-01T16:14:44.268Z</time></trkpt><trkpt lat="46.1224133" lon="12.1219693"><ele>327.0</ele><time>2026-05-01T16:14:45.25Z</time></trkpt><trkpt lat="46.1223736" lon="12.1218922"><ele>327.0</ele><time>2026-05-01T16:14:46.265Z</time></trkpt><trkpt lat="46.1223312" lon="12.121815"><ele>327.0</ele><time>2026-05-01T16:14:47.26Z</time></trkpt><trkpt lat="46.1222923" lon="12.1217321"><ele>327.0</ele><time>2026-05-01T16:14:48.263Z</time></trkpt><trkpt lat="46.1222558" lon="12.1216563"><ele>326.85714285714283</ele><time>2026-05-01T16:14:49.263Z</time></trkpt><trkpt lat="46.1222148" lon="12.1215777"><ele>326.7142857142857</ele><time>2026-05-01T16:14:50.269Z</time></trkpt><trkpt lat="46.1221763" lon="12.1215003"><ele>326.57142857142856</ele><time>2026-05-01T16:14:51.26Z</time></trkpt><trkpt lat="46.1221376" lon="12.1214236"><ele>326.42857142857144</ele><time>2026-05-01T16:14:52.268Z</time></trkpt><trkpt lat="46.1220978" lon="12.1213517"><ele>326.2857142857143</ele><time>2026-05-01T16:14:53.272Z</time></trkpt><trkpt lat="46.1220607" lon="12.121277"><ele>326.14285714285717</ele><time>2026-05-01T16:14:54.264Z</time></trkpt><trkpt lat="46.1220212" lon="12.121202"><ele>326.0</ele><time>2026-05-01T16:14:55.26Z</time></trkpt><trkpt lat="46.1219779" lon="12.1211282"><ele>326.0</ele><time>2026-05-01T16:14:56.272Z</time></trkpt><trkpt lat="46.1219335" lon="12.1210575"><ele>326.0</ele><time>2026-05-01T16:14:57.265Z</time></trkpt><trkpt lat="46.1218861" lon="12.1209892"><ele>326.0</ele><time>2026-05-01T16:14:58.258Z</time></trkpt><trkpt lat="46.1218365" lon="12.1209243"><ele>326.0</ele><time>2026-05-01T16:14:59.257Z</time></trkpt><trkpt lat="46.1217847" lon="12.1208624"><ele>326.0</ele><time>2026-05-01T16:15:00.261Z</time></trkpt><trkpt lat="46.12173" lon="12.1208025"><ele>326.0</ele><time>2026-05-01T16:15:01.256Z</time></trkpt><trkpt lat="46.1216777" lon="12.1207467"><ele>326.0</ele><time>2026-05-01T16:15:02.253Z</time></trkpt><trkpt lat="46.1216258" lon="12.1206832"><ele>326.14285714285717</ele><time>2026-05-01T16:15:03.254Z</time></trkpt><trkpt lat="46.1215714" lon="12.1206205"><ele>326.2857142857143</ele><time>2026-05-01T16:15:04.317Z</time></trkpt><trkpt lat="46.1215169" lon="12.1205582"><ele>326.42857142857144</ele><time>2026-05-01T16:15:05.255Z</time></trkpt><trkpt lat="46.1214657" lon="12.1204945"><ele>326.57142857142856</ele><time>2026-05-01T16:15:06.263Z</time></trkpt><trkpt lat="46.1214131" lon="12.120432"><ele>326.7142857142857</ele><time>2026-05-01T16:15:07.255Z</time></trkpt><trkpt lat="46.1213625" lon="12.1203692"><ele>326.85714285714283</ele><time>2026-05-01T16:15:08.254Z</time></trkpt><trkpt lat="46.1213098" lon="12.1203049"><ele>327.0</ele><time>2026-05-01T16:15:09.255Z</time></trkpt><trkpt lat="46.1212578" lon="12.1202446"><ele>327.0</ele><time>2026-05-01T16:15:10.258Z</time></trkpt><trkpt lat="46.1212038" lon="12.1201834"><ele>327.0</ele><time>2026-05-01T16:15:11.258Z</time></trkpt><trkpt lat="46.1211524" lon="12.1201217"><ele>327.0</ele><time>2026-05-01T16:15:12.257Z</time></trkpt><trkpt lat="46.1211006" lon="12.1200614"><ele>327.0</ele><time>2026-05-01T16:15:13.259Z</time></trkpt><trkpt lat="46.1210481" lon="12.1199985"><ele>327.0</ele><time>2026-05-01T16:15:14.253Z</time></trkpt><trkpt lat="46.1209974" lon="12.1199404"><ele>327.0</ele><time>2026-05-01T16:15:15.255Z</time></trkpt><trkpt lat="46.1209486" lon="12.1198753"><ele>327.0</ele><time>2026-05-01T16:15:16.264Z</time></trkpt><trkpt lat="46.1208988" lon="12.1198188"><ele>326.40000000000003</ele><time>2026-05-01T16:15:17.265Z</time></trkpt><trkpt lat="46.1208472" lon="12.1197591"><ele>325.8</ele><time>2026-05-01T16:15:18.275Z</time></trkpt><trkpt lat="46.1207556" lon="12.1196416"><ele>325.2</ele><time>2026-05-01T16:15:20.268Z</time></trkpt><trkpt lat="46.1206637" lon="12.1195268"><ele>324.6</ele><time>2026-05-01T16:15:22.252Z</time></trkpt><trkpt lat="46.1205685" lon="12.1194173"><ele>324.0</ele><time>2026-05-01T16:15:24.265Z</time></trkpt><trkpt lat="46.1204741" lon="12.119297"><ele>324.0</ele><time>2026-05-01T16:15:26.262Z</time></trkpt><trkpt lat="46.1204236" lon="12.119241"><ele>324.0</ele><time>2026-05-01T16:15:27.262Z</time></trkpt><trkpt lat="46.1203754" lon="12.1191771"><ele>324.0</ele><time>2026-05-01T16:15:28.265Z</time></trkpt><trkpt lat="46.1203233" lon="12.1191184"><ele>324.0</ele><time>2026-05-01T16:15:29.253Z</time></trkpt><trkpt lat="46.1202735" lon="12.1190508"><ele>324.0</ele><time>2026-05-01T16:15:30.259Z</time></trkpt><trkpt lat="46.120221" lon="12.1189932"><ele>324.0</ele><time>2026-05-01T16:15:31.257Z</time></trkpt><trkpt lat="46.1201635" lon="12.1189353"><ele>324.0</ele><time>2026-05-01T16:15:32.252Z</time></trkpt><trkpt lat="46.1201072" lon="12.1188833"><ele>324.0</ele><time>2026-05-01T16:15:33.254Z</time></trkpt><trkpt lat="46.1200456" lon="12.1188427"><ele>324.0</ele><time>2026-05-01T16:15:34.255Z</time></trkpt><trkpt lat="46.1199832" lon="12.1187996"><ele>324.0</ele><time>2026-05-01T16:15:35.253Z</time></trkpt><trkpt lat="46.1199219" lon="12.1187627"><ele>324.0</ele><time>2026-05-01T16:15:36.264Z</time></trkpt><trkpt lat="46.1198552" lon="12.1187332"><ele>324.0</ele><time>2026-05-01T16:15:37.257Z</time></trkpt><trkpt lat="46.1197951" lon="12.1187045"><ele>324.0</ele><time>2026-05-01T16:15:38.252Z</time></trkpt><trkpt lat="46.1197284" lon="12.1186755"><ele>324.0</ele><time>2026-05-01T16:15:39.255Z</time></trkpt><trkpt lat="46.1196656" lon="12.1186461"><ele>324.0</ele><time>2026-05-01T16:15:40.254Z</time></trkpt><trkpt lat="46.119602" lon="12.118622"><ele>324.0</ele><time>2026-05-01T16:15:41.254Z</time></trkpt><trkpt lat="46.1195384" lon="12.118597"><ele>324.0</ele><time>2026-05-01T16:15:42.253Z</time></trkpt><trkpt lat="46.1194758" lon="12.1185722"><ele>324.0</ele><time>2026-05-01T16:15:43.253Z</time></trkpt><trkpt lat="46.1194125" lon="12.1185584"><ele>324.0</ele><time>2026-05-01T16:15:44.253Z</time></trkpt><trkpt lat="46.1192902" lon="12.1185248"><ele>324.0</ele><time>2026-05-01T16:15:46.261Z</time></trkpt><trkpt lat="46.1191668" lon="12.118499"><ele>323.79999999999995</ele><time>2026-05-01T16:15:48.263Z</time></trkpt><trkpt lat="46.1190421" lon="12.1184633"><ele>323.59999999999997</ele><time>2026-05-01T16:15:50.257Z</time></trkpt><trkpt lat="46.1189164" lon="12.1184205"><ele>323.4</ele><time>2026-05-01T16:15:52.256Z</time></trkpt><trkpt lat="46.1188504" lon="12.1183973"><ele>323.2</ele><time>2026-05-01T16:15:53.272Z</time></trkpt><trkpt lat="46.1187882" lon="12.1183757"><ele>323.0</ele><time>2026-05-01T16:15:54.282Z</time></trkpt><trkpt lat="46.1187222" lon="12.1183565"><ele>323.00000000000006</ele><time>2026-05-01T16:15:55.251Z</time></trkpt><trkpt lat="46.1186568" lon="12.1183412"><ele>323.0</ele><time>2026-05-01T16:15:56.255Z</time></trkpt><trkpt lat="46.1185914" lon="12.1183279"><ele>323.0</ele><time>2026-05-01T16:15:57.26Z</time></trkpt><trkpt lat="46.1185276" lon="12.1183163"><ele>323.0</ele><time>2026-05-01T16:15:58.265Z</time></trkpt><trkpt lat="46.1184644" lon="12.1183092"><ele>323.0</ele><time>2026-05-01T16:15:59.266Z</time></trkpt><trkpt lat="46.1184004" lon="12.1183027"><ele>323.00000000000006</ele><time>2026-05-01T16:16:00.263Z</time></trkpt><trkpt lat="46.1183326" lon="12.1183029"><ele>323.0</ele><time>2026-05-01T16:16:01.261Z</time></trkpt><trkpt lat="46.1182673" lon="12.1182988"><ele>322.33333333333337</ele><time>2026-05-01T16:16:02.258Z</time></trkpt><trkpt lat="46.1181991" lon="12.1182985"><ele>321.6666666666667</ele><time>2026-05-01T16:16:03.256Z</time></trkpt><trkpt lat="46.1181301" lon="12.118301"><ele>321.0</ele><time>2026-05-01T16:16:04.262Z</time></trkpt><trkpt lat="46.1180608" lon="12.1183011"><ele>320.3333333333333</ele><time>2026-05-01T16:16:05.27Z</time></trkpt><trkpt lat="46.1179934" lon="12.1182935"><ele>319.66666666666663</ele><time>2026-05-01T16:16:06.264Z</time></trkpt><trkpt lat="46.117928" lon="12.1182772"><ele>319.0</ele><time>2026-05-01T16:16:07.266Z</time></trkpt><trkpt lat="46.1178052" lon="12.1182299"><ele>319.0</ele><time>2026-05-01T16:16:09.268Z</time></trkpt><trkpt lat="46.1177443" lon="12.1182033"><ele>319.0</ele><time>2026-05-01T16:16:10.258Z</time></trkpt><trkpt lat="46.1176244" lon="12.1181495"><ele>319.0</ele><time>2026-05-01T16:16:12.269Z</time></trkpt><trkpt lat="46.1175622" lon="12.1181223"><ele>319.0</ele><time>2026-05-01T16:16:13.266Z</time></trkpt><trkpt lat="46.1175003" lon="12.1180949"><ele>319.0</ele><time>2026-05-01T16:16:14.268Z</time></trkpt><trkpt lat="46.1174365" lon="12.1180776"><ele>319.0</ele><time>2026-05-01T16:16:15.269Z</time></trkpt><trkpt lat="46.1173747" lon="12.1180507"><ele>319.0</ele><time>2026-05-01T16:16:16.261Z</time></trkpt><trkpt lat="46.1173135" lon="12.1180252"><ele>318.8571428571429</ele><time>2026-05-01T16:16:17.265Z</time></trkpt><trkpt lat="46.1172474" lon="12.1180058"><ele>318.71428571428567</ele><time>2026-05-01T16:16:18.268Z</time></trkpt><trkpt lat="46.1171837" lon="12.1179911"><ele>318.57142857142856</ele><time>2026-05-01T16:16:19.257Z</time></trkpt><trkpt lat="46.1171207" lon="12.1179704"><ele>318.42857142857144</ele><time>2026-05-01T16:16:20.277Z</time></trkpt><trkpt lat="46.1170549" lon="12.1179484"><ele>318.28571428571433</ele><time>2026-05-01T16:16:21.274Z</time></trkpt><trkpt lat="46.116989" lon="12.1179371"><ele>318.1428571428571</ele><time>2026-05-01T16:16:22.268Z</time></trkpt><trkpt lat="46.1169245" lon="12.1179215"><ele>318.0</ele><time>2026-05-01T16:16:23.262Z</time></trkpt><trkpt lat="46.1168619" lon="12.1179015"><ele>318.0</ele><time>2026-05-01T16:16:24.265Z</time></trkpt><trkpt lat="46.1167978" lon="12.1178815"><ele>318.0</ele><time>2026-05-01T16:16:25.262Z</time></trkpt><trkpt lat="46.1166765" lon="12.1178512"><ele>318.0</ele><time>2026-05-01T16:16:27.266Z</time></trkpt><trkpt lat="46.1165565" lon="12.117815"><ele>318.0</ele><time>2026-05-01T16:16:29.261Z</time></trkpt><trkpt lat="46.1164305" lon="12.1177842"><ele>318.0</ele><time>2026-05-01T16:16:31.267Z</time></trkpt><trkpt lat="46.1163671" lon="12.1177698"><ele>317.7142857142857</ele><time>2026-05-01T16:16:32.262Z</time></trkpt><trkpt lat="46.1162449" lon="12.1177436"><ele>317.42857142857144</ele><time>2026-05-01T16:16:34.262Z</time></trkpt><trkpt lat="46.1161818" lon="12.1177248"><ele>317.14285714285717</ele><time>2026-05-01T16:16:35.259Z</time></trkpt><trkpt lat="46.1161166" lon="12.1177117"><ele>316.8571428571429</ele><time>2026-05-01T16:16:36.259Z</time></trkpt><trkpt lat="46.1160521" lon="12.1176949"><ele>316.57142857142856</ele><time>2026-05-01T16:16:37.263Z</time></trkpt><trkpt lat="46.1159885" lon="12.1176792"><ele>316.28571428571433</ele><time>2026-05-01T16:16:38.258Z</time></trkpt><trkpt lat="46.115925" lon="12.1176628"><ele>316.0</ele><time>2026-05-01T16:16:39.27Z</time></trkpt><trkpt lat="46.1158613" lon="12.117647"><ele>316.28571428571433</ele><time>2026-05-01T16:16:40.277Z</time></trkpt><trkpt lat="46.1157358" lon="12.1176131"><ele>316.57142857142856</ele><time>2026-05-01T16:16:42.265Z</time></trkpt><trkpt lat="46.1156735" lon="12.1175972"><ele>316.8571428571429</ele><time>2026-05-01T16:16:43.278Z</time></trkpt><trkpt lat="46.1156106" lon="12.1175833"><ele>317.14285714285717</ele><time>2026-05-01T16:16:44.277Z</time></trkpt><trkpt lat="46.1155468" lon="12.1175664"><ele>317.42857142857144</ele><time>2026-05-01T16:16:45.261Z</time></trkpt><trkpt lat="46.1154843" lon="12.1175493"><ele>317.7142857142857</ele><time>2026-05-01T16:16:46.276Z</time></trkpt><trkpt lat="46.1154197" lon="12.1175336"><ele>318.0</ele><time>2026-05-01T16:16:47.277Z</time></trkpt><trkpt lat="46.1152957" lon="12.1175024"><ele>318.0</ele><time>2026-05-01T16:16:49.254Z</time></trkpt><trkpt lat="46.1152331" lon="12.1174876"><ele>318.0</ele><time>2026-05-01T16:16:50.276Z</time></trkpt><trkpt lat="46.1151709" lon="12.1174698"><ele>318.0</ele><time>2026-05-01T16:16:51.281Z</time></trkpt><trkpt lat="46.1151095" lon="12.1174473"><ele>318.0</ele><time>2026-05-01T16:16:52.282Z</time></trkpt><trkpt lat="46.1150479" lon="12.1174178"><ele>318.0</ele><time>2026-05-01T16:16:53.281Z</time></trkpt><trkpt lat="46.1149482" lon="12.1173065"><ele>318.0</ele><time>2026-05-01T16:16:55.277Z</time></trkpt><trkpt lat="46.1148865" lon="12.1171547"><ele>316.75</ele><time>2026-05-01T16:16:57.264Z</time></trkpt><trkpt lat="46.1148368" lon="12.1169966"><ele>315.5</ele><time>2026-05-01T16:16:59.254Z</time></trkpt><trkpt lat="46.1147856" lon="12.1168521"><ele>314.25</ele><time>2026-05-01T16:17:01.272Z</time></trkpt><trkpt lat="46.1147195" lon="12.1167185"><ele>313.0</ele><time>2026-05-01T16:17:03.268Z</time></trkpt><trkpt lat="46.1146366" lon="12.1166115"><ele>313.4</ele><time>2026-05-01T16:17:05.263Z</time></trkpt><trkpt lat="46.1145311" lon="12.1165384"><ele>313.8</ele><time>2026-05-01T16:17:07.262Z</time></trkpt><trkpt lat="46.114428" lon="12.1164827"><ele>314.2</ele><time>2026-05-01T16:17:09.265Z</time></trkpt><trkpt lat="46.1143278" lon="12.1164145"><ele>314.6</ele><time>2026-05-01T16:17:11.265Z</time></trkpt><trkpt lat="46.1142324" lon="12.1163581"><ele>315.0</ele><time>2026-05-01T16:17:13.269Z</time></trkpt><trkpt lat="46.1141312" lon="12.1163049"><ele>314.75</ele><time>2026-05-01T16:17:15.258Z</time></trkpt><trkpt lat="46.11402" lon="12.1162593"><ele>314.5</ele><time>2026-05-01T16:17:17.269Z</time></trkpt><trkpt lat="46.1139053" lon="12.1162269"><ele>314.25</ele><time>2026-05-01T16:17:19.264Z</time></trkpt><trkpt lat="46.1137942" lon="12.1162067"><ele>314.0</ele><time>2026-05-01T16:17:21.263Z</time></trkpt><trkpt lat="46.113676" lon="12.1162052"><ele>314.0</ele><time>2026-05-01T16:17:23.253Z</time></trkpt><trkpt lat="46.1135626" lon="12.1162022"><ele>314.0</ele><time>2026-05-01T16:17:25.264Z</time></trkpt><trkpt lat="46.1134454" lon="12.1162095"><ele>314.0</ele><time>2026-05-01T16:17:27.259Z</time></trkpt><trkpt lat="46.1133312" lon="12.1162277"><ele>314.0</ele><time>2026-05-01T16:17:29.266Z</time></trkpt><trkpt lat="46.1132119" lon="12.1162571"><ele>314.0</ele><time>2026-05-01T16:17:31.265Z</time></trkpt><trkpt lat="46.113099" lon="12.1162854"><ele>314.0</ele><time>2026-05-01T16:17:33.262Z</time></trkpt><trkpt lat="46.1129903" lon="12.1163225"><ele>314.0</ele><time>2026-05-01T16:17:35.277Z</time></trkpt><trkpt lat="46.1128735" lon="12.1163527"><ele>314.0</ele><time>2026-05-01T16:17:37.255Z</time></trkpt><trkpt lat="46.1127576" lon="12.1163708"><ele>314.0</ele><time>2026-05-01T16:17:39.255Z</time></trkpt><trkpt lat="46.1126359" lon="12.1163886"><ele>314.0</ele><time>2026-05-01T16:17:41.275Z</time></trkpt><trkpt lat="46.1125151" lon="12.1163862"><ele>314.0</ele><time>2026-05-01T16:17:43.266Z</time></trkpt><trkpt lat="46.1123963" lon="12.1163522"><ele>314.0</ele><time>2026-05-01T16:17:45.266Z</time></trkpt><trkpt lat="46.1122818" lon="12.1162853"><ele>313.59999999999997</ele><time>2026-05-01T16:17:47.263Z</time></trkpt><trkpt lat="46.1122228" lon="12.1162491"><ele>313.2</ele><time>2026-05-01T16:17:48.27Z</time></trkpt><trkpt lat="46.1121171" lon="12.1161608"><ele>312.79999999999995</ele><time>2026-05-01T16:17:50.276Z</time></trkpt><trkpt lat="46.112015" lon="12.1160556"><ele>312.4</ele><time>2026-05-01T16:17:52.265Z</time></trkpt><trkpt lat="46.1119196" lon="12.1159372"><ele>312.0</ele><time>2026-05-01T16:17:54.266Z</time></trkpt><trkpt lat="46.1118749" lon="12.1158673"><ele>312.2</ele><time>2026-05-01T16:17:55.257Z</time></trkpt><trkpt lat="46.1118034" lon="12.1157146"><ele>312.4</ele><time>2026-05-01T16:17:57.262Z</time></trkpt><trkpt lat="46.1117721" lon="12.1156328"><ele>312.6</ele><time>2026-05-01T16:17:58.263Z</time></trkpt><trkpt lat="46.1117188" lon="12.1154728"><ele>312.8</ele><time>2026-05-01T16:18:00.265Z</time></trkpt><trkpt lat="46.1116645" lon="12.1153142"><ele>313.0</ele><time>2026-05-01T16:18:02.267Z</time></trkpt><trkpt lat="46.1116115" lon="12.1151534"><ele>312.6</ele><time>2026-05-01T16:18:04.263Z</time></trkpt><trkpt lat="46.1115605" lon="12.1149882"><ele>312.20000000000005</ele><time>2026-05-01T16:18:06.269Z</time></trkpt><trkpt lat="46.1115332" lon="12.1149039"><ele>311.8</ele><time>2026-05-01T16:18:07.266Z</time></trkpt><trkpt lat="46.111512" lon="12.1148176"><ele>311.40000000000003</ele><time>2026-05-01T16:18:08.261Z</time></trkpt><trkpt lat="46.1114606" lon="12.1146577"><ele>311.0</ele><time>2026-05-01T16:18:10.266Z</time></trkpt><trkpt lat="46.1114104" lon="12.1145095"><ele>311.0</ele><time>2026-05-01T16:18:12.255Z</time></trkpt><trkpt lat="46.1113526" lon="12.1143867"><ele>311.0</ele><time>2026-05-01T16:18:14.254Z</time></trkpt><trkpt lat="46.1112903" lon="12.1142879"><ele>311.0</ele><time>2026-05-01T16:18:16.254Z</time></trkpt><trkpt lat="46.1112184" lon="12.1142176"><ele>311.0</ele><time>2026-05-01T16:18:18.26Z</time></trkpt><trkpt lat="46.1111252" lon="12.1141984"><ele>311.0</ele><time>2026-05-01T16:18:20.264Z</time></trkpt><trkpt lat="46.111026" lon="12.1142146"><ele>311.0</ele><time>2026-05-01T16:18:22.257Z</time></trkpt><trkpt lat="46.1109263" lon="12.1142335"><ele>311.0</ele><time>2026-05-01T16:18:24.269Z</time></trkpt><trkpt lat="46.1108229" lon="12.1142597"><ele>311.0</ele><time>2026-05-01T16:18:26.256Z</time></trkpt><trkpt lat="46.1107189" lon="12.1142672"><ele>311.0</ele><time>2026-05-01T16:18:28.268Z</time></trkpt><trkpt lat="46.1106098" lon="12.1142833"><ele>311.0</ele><time>2026-05-01T16:18:30.27Z</time></trkpt><trkpt lat="46.1104959" lon="12.1142968"><ele>310.75</ele><time>2026-05-01T16:18:32.265Z</time></trkpt><trkpt lat="46.1103807" lon="12.1143093"><ele>310.5</ele><time>2026-05-01T16:18:34.264Z</time></trkpt><trkpt lat="46.1102645" lon="12.114327"><ele>310.25</ele><time>2026-05-01T16:18:36.268Z</time></trkpt><trkpt lat="46.1101445" lon="12.1143487"><ele>310.0</ele><time>2026-05-01T16:18:38.26Z</time></trkpt><trkpt lat="46.1100302" lon="12.1143617"><ele>310.0</ele><time>2026-05-01T16:18:40.265Z</time></trkpt><trkpt lat="46.1099117" lon="12.1143842"><ele>310.0</ele><time>2026-05-01T16:18:42.265Z</time></trkpt><trkpt lat="46.1097948" lon="12.1144113"><ele>310.0</ele><time>2026-05-01T16:18:44.256Z</time></trkpt><trkpt lat="46.1096779" lon="12.1144276"><ele>310.0</ele><time>2026-05-01T16:18:46.27Z</time></trkpt><trkpt lat="46.1095643" lon="12.1144385"><ele>310.25</ele><time>2026-05-01T16:18:48.261Z</time></trkpt><trkpt lat="46.1094562" lon="12.1144634"><ele>310.5</ele><time>2026-05-01T16:18:50.26Z</time></trkpt><trkpt lat="46.1093452" lon="12.1144792"><ele>310.75</ele><time>2026-05-01T16:18:52.263Z</time></trkpt><trkpt lat="46.1092325" lon="12.1144992"><ele>311.0</ele><time>2026-05-01T16:18:54.266Z</time></trkpt><trkpt lat="46.1091166" lon="12.1145161"><ele>311.0</ele><time>2026-05-01T16:18:56.274Z</time></trkpt><trkpt lat="46.1089987" lon="12.1145393"><ele>311.0</ele><time>2026-05-01T16:18:58.262Z</time></trkpt><trkpt lat="46.1088763" lon="12.1145607"><ele>311.0</ele><time>2026-05-01T16:19:00.251Z</time></trkpt><trkpt lat="46.108758" lon="12.11457"><ele>311.0</ele><time>2026-05-01T16:19:02.265Z</time></trkpt><trkpt lat="46.1086383" lon="12.1145871"><ele>311.0</ele><time>2026-05-01T16:19:04.263Z</time></trkpt><trkpt lat="46.1085197" lon="12.1146078"><ele>311.0</ele><time>2026-05-01T16:19:06.26Z</time></trkpt><trkpt lat="46.1083971" lon="12.1146252"><ele>311.0</ele><time>2026-05-01T16:19:08.271Z</time></trkpt><trkpt lat="46.1082784" lon="12.114644"><ele>311.0</ele><time>2026-05-01T16:19:10.254Z</time></trkpt><trkpt lat="46.1081598" lon="12.1146746"><ele>310.40000000000003</ele><time>2026-05-01T16:19:12.267Z</time></trkpt><trkpt lat="46.1080662" lon="12.1146277"><ele>309.8</ele><time>2026-05-01T16:19:14.258Z</time></trkpt><trkpt lat="46.1080334" lon="12.1144814"><ele>309.20000000000005</ele><time>2026-05-01T16:19:16.259Z</time></trkpt><trkpt lat="46.1080352" lon="12.1143231"><ele>308.6</ele><time>2026-05-01T16:19:18.268Z</time></trkpt><trkpt lat="46.1080348" lon="12.114154"><ele>308.0</ele><time>2026-05-01T16:19:20.287Z</time></trkpt><trkpt lat="46.1080224" lon="12.1139848"><ele>308.0</ele><time>2026-05-01T16:19:22.263Z</time></trkpt><trkpt lat="46.1080283" lon="12.1138131"><ele>308.0</ele><time>2026-05-01T16:19:24.258Z</time></trkpt><trkpt lat="46.1080329" lon="12.1136456"><ele>308.0</ele><time>2026-05-01T16:19:26.268Z</time></trkpt><trkpt lat="46.1080356" lon="12.1134751"><ele>308.0</ele><time>2026-05-01T16:19:28.271Z</time></trkpt><trkpt lat="46.1080333" lon="12.1133001"><ele>308.25</ele><time>2026-05-01T16:19:30.261Z</time></trkpt><trkpt lat="46.1080296" lon="12.1131332"><ele>308.5</ele><time>2026-05-01T16:19:32.266Z</time></trkpt><trkpt lat="46.1080299" lon="12.1129584"><ele>308.75</ele><time>2026-05-01T16:19:34.272Z</time></trkpt><trkpt lat="46.1080309" lon="12.1127928"><ele>309.0</ele><time>2026-05-01T16:19:36.271Z</time></trkpt><trkpt lat="46.1080248" lon="12.1126255"><ele>309.0</ele><time>2026-05-01T16:19:38.264Z</time></trkpt><trkpt lat="46.1080268" lon="12.1124683"><ele>309.0</ele><time>2026-05-01T16:19:40.256Z</time></trkpt><trkpt lat="46.1080206" lon="12.1123044"><ele>309.0</ele><time>2026-05-01T16:19:42.267Z</time></trkpt><trkpt lat="46.1080172" lon="12.1121362"><ele>309.0</ele><time>2026-05-01T16:19:44.263Z</time></trkpt><trkpt lat="46.1080143" lon="12.1119575"><ele>308.75</ele><time>2026-05-01T16:19:46.26Z</time></trkpt><trkpt lat="46.108008" lon="12.1117863"><ele>308.5</ele><time>2026-05-01T16:19:48.263Z</time></trkpt><trkpt lat="46.1080026" lon="12.1116219"><ele>308.25</ele><time>2026-05-01T16:19:50.262Z</time></trkpt><trkpt lat="46.1080046" lon="12.1114565"><ele>308.0</ele><time>2026-05-01T16:19:52.269Z</time></trkpt><trkpt lat="46.1080557" lon="12.1113202"><ele>308.0</ele><time>2026-05-01T16:19:54.267Z</time></trkpt><trkpt lat="46.1081561" lon="12.1112856"><ele>308.0</ele><time>2026-05-01T16:19:56.309Z</time></trkpt><trkpt lat="46.108261" lon="12.1112803"><ele>308.0</ele><time>2026-05-01T16:19:58.277Z</time></trkpt><trkpt lat="46.1083678" lon="12.1112858"><ele>308.0</ele><time>2026-05-01T16:20:00.255Z</time></trkpt><trkpt lat="46.1084741" lon="12.1113141"><ele>308.0</ele><time>2026-05-01T16:20:02.264Z</time></trkpt><trkpt lat="46.1085723" lon="12.1113785"><ele>308.2</ele><time>2026-05-01T16:20:04.253Z</time></trkpt><trkpt lat="46.1086752" lon="12.1114015"><ele>308.4</ele><time>2026-05-01T16:20:06.254Z</time></trkpt><trkpt lat="46.108778" lon="12.1113835"><ele>308.59999999999997</ele><time>2026-05-01T16:20:08.254Z</time></trkpt><trkpt lat="46.1088791" lon="12.1113389"><ele>308.8</ele><time>2026-05-01T16:20:10.262Z</time></trkpt><trkpt lat="46.1089339" lon="12.111223"><ele>309.0</ele><time>2026-05-01T16:20:12.257Z</time></trkpt><trkpt lat="46.1089376" lon="12.1110734"><ele>309.0</ele><time>2026-05-01T16:20:14.251Z</time></trkpt><trkpt lat="46.1089274" lon="12.1109186"><ele>309.0</ele><time>2026-05-01T16:20:16.257Z</time></trkpt><trkpt lat="46.1089209" lon="12.1107679"><ele>309.0</ele><time>2026-05-01T16:20:18.253Z</time></trkpt><trkpt lat="46.1089164" lon="12.1106157"><ele>309.0</ele><time>2026-05-01T16:20:20.256Z</time></trkpt><trkpt lat="46.1089213" lon="12.110459"><ele>309.0</ele><time>2026-05-01T16:20:22.256Z</time></trkpt><trkpt lat="46.1089163" lon="12.1103037"><ele>309.0</ele><time>2026-05-01T16:20:24.255Z</time></trkpt><trkpt lat="46.1089208" lon="12.1101492"><ele>309.0</ele><time>2026-05-01T16:20:26.262Z</time></trkpt><trkpt lat="46.1089277" lon="12.1099917"><ele>309.0</ele><time>2026-05-01T16:20:28.257Z</time></trkpt><trkpt lat="46.108932" lon="12.1098353"><ele>309.0</ele><time>2026-05-01T16:20:30.266Z</time></trkpt><trkpt lat="46.1089324" lon="12.1096808"><ele>309.0</ele><time>2026-05-01T16:20:32.317Z</time></trkpt><trkpt lat="46.1089329" lon="12.1095365"><ele>308.6666666666667</ele><time>2026-05-01T16:20:34.261Z</time></trkpt><trkpt lat="46.1089339" lon="12.109398"><ele>308.3333333333333</ele><time>2026-05-01T16:20:36.26Z</time></trkpt><trkpt lat="46.1089451" lon="12.1092708"><ele>308.0</ele><time>2026-05-01T16:20:38.267Z</time></trkpt><trkpt lat="46.1089619" lon="12.1091489"><ele>307.66666666666663</ele><time>2026-05-01T16:20:40.262Z</time></trkpt><trkpt lat="46.108963" lon="12.1090291"><ele>307.3333333333333</ele><time>2026-05-01T16:20:42.273Z</time></trkpt><trkpt lat="46.1089671" lon="12.1089154"><ele>307.0</ele><time>2026-05-01T16:20:44.254Z</time></trkpt><trkpt lat="46.1089706" lon="12.1088055"><ele>306.66666666666663</ele><time>2026-05-01T16:20:46.266Z</time></trkpt><trkpt lat="46.1089717" lon="12.1086958"><ele>306.3333333333333</ele><time>2026-05-01T16:20:48.272Z</time></trkpt><trkpt lat="46.1089446" lon="12.1086032"><ele>306.0</ele><time>2026-05-01T16:20:50.265Z</time></trkpt><trkpt lat="46.1088974" lon="12.1085053"><ele>305.6666666666667</ele><time>2026-05-01T16:20:52.264Z</time></trkpt><trkpt lat="46.1088911" lon="12.1083887"><ele>305.33333333333337</ele><time>2026-05-01T16:20:54.264Z</time></trkpt><trkpt lat="46.1089086" lon="12.1082781"><ele>305.0</ele><time>2026-05-01T16:20:56.267Z</time></trkpt><trkpt lat="46.1089367" lon="12.1081689"><ele>305.0</ele><time>2026-05-01T16:20:58.26Z</time></trkpt><trkpt lat="46.1089632" lon="12.1080611"><ele>305.0</ele><time>2026-05-01T16:21:00.272Z</time></trkpt><trkpt lat="46.108974" lon="12.1079585"><ele>305.0</ele><time>2026-05-01T16:21:02.266Z</time></trkpt><trkpt lat="46.108996" lon="12.1078288"><ele>305.0</ele><time>2026-05-01T16:21:05.263Z</time></trkpt><trkpt lat="46.1089939" lon="12.1077179"><ele>305.0</ele><time>2026-05-01T16:21:07.267Z</time></trkpt><trkpt lat="46.1089856" lon="12.1076038"><ele>305.0</ele><time>2026-05-01T16:21:09.267Z</time></trkpt><trkpt lat="46.1089335" lon="12.107492"><ele>305.0</ele><time>2026-05-01T16:21:11.265Z</time></trkpt><trkpt lat="46.1088739" lon="12.1073926"><ele>305.0</ele><time>2026-05-01T16:21:13.265Z</time></trkpt><trkpt lat="46.1088259" lon="12.1072733"><ele>305.0</ele><time>2026-05-01T16:21:15.273Z</time></trkpt><trkpt lat="46.1087876" lon="12.1071409"><ele>305.0</ele><time>2026-05-01T16:21:17.258Z</time></trkpt><trkpt lat="46.1087693" lon="12.1070026"><ele>305.0</ele><time>2026-05-01T16:21:19.278Z</time></trkpt><trkpt lat="46.1087782" lon="12.1068633"><ele>305.0</ele><time>2026-05-01T16:21:21.271Z</time></trkpt><trkpt lat="46.108799" lon="12.1067273"><ele>305.0</ele><time>2026-05-01T16:21:23.269Z</time></trkpt><trkpt lat="46.108838" lon="12.1065911"><ele>305.0</ele><time>2026-05-01T16:21:25.286Z</time></trkpt><trkpt lat="46.1088693" lon="12.1064398"><ele>305.0</ele><time>2026-05-01T16:21:27.267Z</time></trkpt><trkpt lat="46.1089078" lon="12.1063048"><ele>305.0</ele><time>2026-05-01T16:21:29.266Z</time></trkpt><trkpt lat="46.1089462" lon="12.1061667"><ele>305.4</ele><time>2026-05-01T16:21:31.264Z</time></trkpt><trkpt lat="46.1089895" lon="12.1060216"><ele>305.8</ele><time>2026-05-01T16:21:33.269Z</time></trkpt><trkpt lat="46.1090156" lon="12.1058897"><ele>306.2</ele><time>2026-05-01T16:21:35.264Z</time></trkpt><trkpt lat="46.1090557" lon="12.1057646"><ele>306.6</ele><time>2026-05-01T16:21:37.257Z</time></trkpt><trkpt lat="46.1090566" lon="12.1056331"><ele>307.0</ele><time>2026-05-01T16:21:39.271Z</time></trkpt><trkpt lat="46.1090184" lon="12.1055119"><ele>307.16666666666663</ele><time>2026-05-01T16:21:41.263Z</time></trkpt><trkpt lat="46.1089548" lon="12.1054057"><ele>307.3333333333333</ele><time>2026-05-01T16:21:43.267Z</time></trkpt><trkpt lat="46.1089131" lon="12.105301"><ele>307.5</ele><time>2026-05-01T16:21:45.268Z</time></trkpt><trkpt lat="46.1088859" lon="12.1052096"><ele>307.6666666666667</ele><time>2026-05-01T16:21:49.271Z</time></trkpt><trkpt lat="46.1088195" lon="12.1051725"><ele>307.83333333333337</ele><time>2026-05-01T16:21:56.262Z</time></trkpt><trkpt lat="46.1087357" lon="12.1052158"><ele>308.0</ele><time>2026-05-01T16:21:59.258Z</time></trkpt><trkpt lat="46.1086623" lon="12.1052549"><ele>308.0</ele><time>2026-05-01T16:22:01.272Z</time></trkpt><trkpt lat="46.1085811" lon="12.1052903"><ele>308.0</ele><time>2026-05-01T16:22:03.295Z</time></trkpt><trkpt lat="46.1084975" lon="12.1053329"><ele>308.0</ele><time>2026-05-01T16:22:05.267Z</time></trkpt><trkpt lat="46.1084111" lon="12.1053832"><ele>308.0</ele><time>2026-05-01T16:22:07.267Z</time></trkpt><trkpt lat="46.1083301" lon="12.1054493"><ele>308.0</ele><time>2026-05-01T16:22:09.274Z</time></trkpt><trkpt lat="46.1082494" lon="12.1055182"><ele>307.8</ele><time>2026-05-01T16:22:11.263Z</time></trkpt><trkpt lat="46.1081735" lon="12.1055976"><ele>307.6</ele><time>2026-05-01T16:22:13.276Z</time></trkpt><trkpt lat="46.1081013" lon="12.1056833"><ele>307.4</ele><time>2026-05-01T16:22:15.269Z</time></trkpt><trkpt lat="46.1080311" lon="12.1057777"><ele>307.2</ele><time>2026-05-01T16:22:17.26Z</time></trkpt><trkpt lat="46.1079707" lon="12.1058862"><ele>307.0</ele><time>2026-05-01T16:22:19.27Z</time></trkpt><trkpt lat="46.1079247" lon="12.1060097"><ele>306.6</ele><time>2026-05-01T16:22:21.267Z</time></trkpt><trkpt lat="46.1078705" lon="12.1061329"><ele>306.2</ele><time>2026-05-01T16:22:23.264Z</time></trkpt><trkpt lat="46.107816" lon="12.1062588"><ele>305.8</ele><time>2026-05-01T16:22:25.274Z</time></trkpt><trkpt lat="46.1077574" lon="12.1063769"><ele>305.4</ele><time>2026-05-01T16:22:27.275Z</time></trkpt><trkpt lat="46.1076907" lon="12.1064968"><ele>305.0</ele><time>2026-05-01T16:22:29.267Z</time></trkpt><trkpt lat="46.1076335" lon="12.1066139"><ele>304.8</ele><time>2026-05-01T16:22:31.261Z</time></trkpt><trkpt lat="46.1075701" lon="12.1067366"><ele>304.6</ele><time>2026-05-01T16:22:33.268Z</time></trkpt><trkpt lat="46.1074913" lon="12.1068276"><ele>304.4</ele><time>2026-05-01T16:22:35.258Z</time></trkpt><trkpt lat="46.107397" lon="12.1068883"><ele>304.2</ele><time>2026-05-01T16:22:37.272Z</time></trkpt><trkpt lat="46.107298" lon="12.1069065"><ele>304.0</ele><time>2026-05-01T16:22:39.259Z</time></trkpt><trkpt lat="46.1071955" lon="12.1069115"><ele>303.8</ele><time>2026-05-01T16:22:41.26Z</time></trkpt><trkpt lat="46.1070942" lon="12.1069085"><ele>303.59999999999997</ele><time>2026-05-01T16:22:43.258Z</time></trkpt><trkpt lat="46.1069931" lon="12.1069157"><ele>303.4</ele><time>2026-05-01T16:22:45.267Z</time></trkpt><trkpt lat="46.1068872" lon="12.106915"><ele>303.2</ele><time>2026-05-01T16:22:47.27Z</time></trkpt><trkpt lat="46.1067812" lon="12.1069399"><ele>303.0</ele><time>2026-05-01T16:22:49.267Z</time></trkpt><trkpt lat="46.1066776" lon="12.1069641"><ele>302.8</ele><time>2026-05-01T16:22:51.269Z</time></trkpt><trkpt lat="46.1065761" lon="12.1069926"><ele>302.6</ele><time>2026-05-01T16:22:53.261Z</time></trkpt><trkpt lat="46.1064693" lon="12.1070144"><ele>302.4</ele><time>2026-05-01T16:22:55.261Z</time></trkpt><trkpt lat="46.1063675" lon="12.1070247"><ele>302.2</ele><time>2026-05-01T16:22:57.267Z</time></trkpt><trkpt lat="46.1062622" lon="12.1070328"><ele>302.0</ele><time>2026-05-01T16:22:59.257Z</time></trkpt><trkpt lat="46.1061575" lon="12.1070349"><ele>302.0</ele><time>2026-05-01T16:23:01.26Z</time></trkpt><trkpt lat="46.1060543" lon="12.1070193"><ele>302.0</ele><time>2026-05-01T16:23:03.263Z</time></trkpt><trkpt lat="46.1059554" lon="12.1070098"><ele>302.0</ele><time>2026-05-01T16:23:05.261Z</time></trkpt><trkpt lat="46.1058589" lon="12.1070173"><ele>302.0</ele><time>2026-05-01T16:23:07.267Z</time></trkpt><trkpt lat="46.1057611" lon="12.1070421"><ele>302.0</ele><time>2026-05-01T16:23:09.259Z</time></trkpt><trkpt lat="46.1056616" lon="12.107092"><ele>302.6</ele><time>2026-05-01T16:23:11.273Z</time></trkpt><trkpt lat="46.1055607" lon="12.10715"><ele>303.2</ele><time>2026-05-01T16:23:13.275Z</time></trkpt><trkpt lat="46.105459" lon="12.1071887"><ele>303.8</ele><time>2026-05-01T16:23:15.263Z</time></trkpt><trkpt lat="46.1053566" lon="12.1072333"><ele>304.4</ele><time>2026-05-01T16:23:17.262Z</time></trkpt><trkpt lat="46.1052574" lon="12.1072826"><ele>305.0</ele><time>2026-05-01T16:23:19.263Z</time></trkpt><trkpt lat="46.1051747" lon="12.1073577"><ele>304.83333333333337</ele><time>2026-05-01T16:23:21.263Z</time></trkpt><trkpt lat="46.1050971" lon="12.1074312"><ele>304.6666666666667</ele><time>2026-05-01T16:23:23.26Z</time></trkpt><trkpt lat="46.1050221" lon="12.1074989"><ele>304.5</ele><time>2026-05-01T16:23:25.261Z</time></trkpt><trkpt lat="46.1049555" lon="12.1075725"><ele>304.3333333333333</ele><time>2026-05-01T16:23:27.264Z</time></trkpt><trkpt lat="46.1048876" lon="12.1076465"><ele>304.16666666666663</ele><time>2026-05-01T16:23:29.261Z</time></trkpt><trkpt lat="46.1048271" lon="12.107716"><ele>304.0</ele><time>2026-05-01T16:23:31.257Z</time></trkpt><trkpt lat="46.1047653" lon="12.1077748"><ele>304.7142857142857</ele><time>2026-05-01T16:23:33.262Z</time></trkpt><trkpt lat="46.1047054" lon="12.1078351"><ele>305.42857142857144</ele><time>2026-05-01T16:23:35.254Z</time></trkpt><trkpt lat="46.104646" lon="12.1079036"><ele>306.14285714285717</ele><time>2026-05-01T16:23:37.267Z</time></trkpt><trkpt lat="46.1045857" lon="12.107973"><ele>306.8571428571429</ele><time>2026-05-01T16:23:39.273Z</time></trkpt><trkpt lat="46.1045333" lon="12.1080487"><ele>307.57142857142856</ele><time>2026-05-01T16:23:41.266Z</time></trkpt><trkpt lat="46.1044915" lon="12.1081264"><ele>308.28571428571433</ele><time>2026-05-01T16:23:43.273Z</time></trkpt><trkpt lat="46.1044605" lon="12.1082089"><ele>309.0</ele><time>2026-05-01T16:23:45.271Z</time></trkpt><trkpt lat="46.1044419" lon="12.1082985"><ele>309.5</ele><time>2026-05-01T16:23:47.266Z</time></trkpt><trkpt lat="46.1044283" lon="12.1084267"><ele>310.0</ele><time>2026-05-01T16:23:50.262Z</time></trkpt><trkpt lat="46.1044344" lon="12.1085454"><ele>310.5</ele><time>2026-05-01T16:23:53.263Z</time></trkpt><trkpt lat="46.1044473" lon="12.1086589"><ele>311.0</ele><time>2026-05-01T16:23:56.266Z</time></trkpt><trkpt lat="46.1044638" lon="12.1087573"><ele>311.5</ele><time>2026-05-01T16:24:00.262Z</time></trkpt><trkpt lat="46.1044048" lon="12.1088246"><ele>312.0</ele><time>2026-05-01T16:24:29.262Z</time></trkpt><trkpt lat="46.1043519" lon="12.1088933"><ele>312.0</ele><time>2026-05-01T16:24:33.278Z</time></trkpt><trkpt lat="46.1042998" lon="12.1089718"><ele>312.0</ele><time>2026-05-01T16:24:38.256Z</time></trkpt><trkpt lat="46.1042498" lon="12.1090372"><ele>312.0</ele><time>2026-05-01T16:24:42.269Z</time></trkpt><trkpt lat="46.1041871" lon="12.1090632"><ele>312.0</ele><time>2026-05-01T16:24:46.262Z</time></trkpt><trkpt lat="46.1041303" lon="12.1091083"><ele>312.0</ele><time>2026-05-01T16:24:50.263Z</time></trkpt><trkpt lat="46.1040671" lon="12.1091688"><ele>312.0</ele><time>2026-05-01T16:24:55.265Z</time></trkpt><trkpt lat="46.1040119" lon="12.1092301"><ele>312.0</ele><time>2026-05-01T16:24:59.262Z</time></trkpt><trkpt lat="46.1039587" lon="12.1092965"><ele>315.7142857142857</ele><time>2026-05-01T16:25:03.262Z</time></trkpt><trkpt lat="46.1039066" lon="12.1093604"><ele>319.4285714285714</ele><time>2026-05-01T16:25:07.273Z</time></trkpt><trkpt lat="46.1038614" lon="12.1094238"><ele>323.1428571428571</ele><time>2026-05-01T16:25:11.266Z</time></trkpt><trkpt lat="46.1038128" lon="12.1095053"><ele>326.8571428571429</ele><time>2026-05-01T16:25:15.266Z</time></trkpt><trkpt lat="46.1037499" lon="12.1095602"><ele>330.57142857142856</ele><time>2026-05-01T16:25:19.262Z</time></trkpt><trkpt lat="46.1036923" lon="12.1096136"><ele>334.2857142857143</ele><time>2026-05-01T16:25:23.32Z</time></trkpt><trkpt lat="46.103634" lon="12.1096976"><ele>338.0</ele><time>2026-05-01T16:25:27.266Z</time></trkpt><trkpt lat="46.1035684" lon="12.1097671"><ele>338.0</ele><time>2026-05-01T16:25:31.267Z</time></trkpt><trkpt lat="46.1035148" lon="12.1098408"><ele>338.0</ele><time>2026-05-01T16:25:34.262Z</time></trkpt><trkpt lat="46.1034475" lon="12.1099027"><ele>338.0</ele><time>2026-05-01T16:25:38.264Z</time></trkpt><trkpt lat="46.1033887" lon="12.109937"><ele>338.0</ele><time>2026-05-01T16:25:41.262Z</time></trkpt><trkpt lat="46.1033275" lon="12.1099615"><ele>338.0</ele><time>2026-05-01T16:25:44.264Z</time></trkpt><trkpt lat="46.1032648" lon="12.1100051"><ele>338.0</ele><time>2026-05-01T16:25:47.262Z</time></trkpt><trkpt lat="46.1031952" lon="12.1100689"><ele>338.0</ele><time>2026-05-01T16:25:50.27Z</time></trkpt><trkpt lat="46.1031332" lon="12.110098"><ele>339.2857142857143</ele><time>2026-05-01T16:25:53.265Z</time></trkpt><trkpt lat="46.1031078" lon="12.1101965"><ele>340.57142857142856</ele><time>2026-05-01T16:25:57.263Z</time></trkpt><trkpt lat="46.1030508" lon="12.1101532"><ele>341.8571428571429</ele><time>2026-05-01T16:26:00.262Z</time></trkpt><trkpt lat="46.1029981" lon="12.1100862"><ele>343.1428571428571</ele><time>2026-05-01T16:26:03.272Z</time></trkpt><trkpt lat="46.1029387" lon="12.1100295"><ele>344.4285714285714</ele><time>2026-05-01T16:26:06.27Z</time></trkpt><trkpt lat="46.1028693" lon="12.1099833"><ele>345.7142857142857</ele><time>2026-05-01T16:26:09.256Z</time></trkpt><trkpt lat="46.102793" lon="12.1099491"><ele>347.0</ele><time>2026-05-01T16:26:12.811Z</time></trkpt><trkpt lat="46.1027318" lon="12.1099997"><ele>347.0</ele><time>2026-05-01T16:26:15.257Z</time></trkpt><trkpt lat="46.1026984" lon="12.1100771"><ele>347.0</ele><time>2026-05-01T16:26:17.261Z</time></trkpt><trkpt lat="46.1026745" lon="12.110183"><ele>347.0</ele><time>2026-05-01T16:26:20.266Z</time></trkpt><trkpt lat="46.1026804" lon="12.1102774"><ele>347.0</ele><time>2026-05-01T16:26:22.264Z</time></trkpt><trkpt lat="46.1026992" lon="12.1103658"><ele>347.0</ele><time>2026-05-01T16:26:24.277Z</time></trkpt><trkpt lat="46.1026971" lon="12.1104884"><ele>347.0</ele><time>2026-05-01T16:26:27.262Z</time></trkpt><trkpt lat="46.1026803" lon="12.1106112"><ele>347.0</ele><time>2026-05-01T16:26:30.252Z</time></trkpt><trkpt lat="46.1026548" lon="12.1106949"><ele>347.14285714285717</ele><time>2026-05-01T16:26:32.263Z</time></trkpt><trkpt lat="46.102615" lon="12.1107754"><ele>347.2857142857143</ele><time>2026-05-01T16:26:34.263Z</time></trkpt><trkpt lat="46.1025682" lon="12.1108445"><ele>347.42857142857144</ele><time>2026-05-01T16:26:36.261Z</time></trkpt><trkpt lat="46.1025159" lon="12.1109043"><ele>347.57142857142856</ele><time>2026-05-01T16:26:38.264Z</time></trkpt><trkpt lat="46.1024606" lon="12.110959"><ele>347.7142857142857</ele><time>2026-05-01T16:26:40.263Z</time></trkpt><trkpt lat="46.1024098" lon="12.1110207"><ele>347.85714285714283</ele><time>2026-05-01T16:26:42.257Z</time></trkpt><trkpt lat="46.1023588" lon="12.1110838"><ele>348.0</ele><time>2026-05-01T16:26:44.263Z</time></trkpt><trkpt lat="46.1023048" lon="12.1111401"><ele>348.57142857142856</ele><time>2026-05-01T16:26:46.265Z</time></trkpt><trkpt lat="46.1022494" lon="12.1112014"><ele>349.14285714285717</ele><time>2026-05-01T16:26:48.262Z</time></trkpt><trkpt lat="46.1021933" lon="12.1112611"><ele>349.7142857142857</ele><time>2026-05-01T16:26:50.262Z</time></trkpt><trkpt lat="46.1021364" lon="12.1113147"><ele>350.2857142857143</ele><time>2026-05-01T16:26:52.263Z</time></trkpt><trkpt lat="46.1020827" lon="12.1113823"><ele>350.85714285714283</ele><time>2026-05-01T16:26:54.264Z</time></trkpt><trkpt lat="46.1020304" lon="12.1114442"><ele>351.42857142857144</ele><time>2026-05-01T16:26:56.264Z</time></trkpt><trkpt lat="46.1019754" lon="12.1115097"><ele>352.0</ele><time>2026-05-01T16:26:58.252Z</time></trkpt><trkpt lat="46.1019228" lon="12.1115738"><ele>352.0</ele><time>2026-05-01T16:27:00.254Z</time></trkpt><trkpt lat="46.1018737" lon="12.1116419"><ele>352.0</ele><time>2026-05-01T16:27:02.252Z</time></trkpt><trkpt lat="46.1018207" lon="12.1117054"><ele>352.0</ele><time>2026-05-01T16:27:04.255Z</time></trkpt><trkpt lat="46.1017707" lon="12.1117695"><ele>352.0</ele><time>2026-05-01T16:27:06.262Z</time></trkpt><trkpt lat="46.101727" lon="12.1118356"><ele>352.0</ele><time>2026-05-01T16:27:08.253Z</time></trkpt><trkpt lat="46.1016601" lon="12.1119272"><ele>352.0</ele><time>2026-05-01T16:27:11.258Z</time></trkpt><trkpt lat="46.1015984" lon="12.1119988"><ele>352.0</ele><time>2026-05-01T16:27:14.252Z</time></trkpt><trkpt lat="46.1015481" lon="12.1120689"><ele>351.40000000000003</ele><time>2026-05-01T16:27:17.254Z</time></trkpt><trkpt lat="46.1014719" lon="12.1121606"><ele>350.8</ele><time>2026-05-01T16:27:20.261Z</time></trkpt><trkpt lat="46.1014091" lon="12.1122389"><ele>350.2</ele><time>2026-05-01T16:27:22.256Z</time></trkpt><trkpt lat="46.1013356" lon="12.1123287"><ele>349.6</ele><time>2026-05-01T16:27:24.267Z</time></trkpt><trkpt lat="46.1012497" lon="12.1124124"><ele>349.0</ele><time>2026-05-01T16:27:26.266Z</time></trkpt><trkpt lat="46.10116" lon="12.1125063"><ele>349.0</ele><time>2026-05-01T16:27:28.265Z</time></trkpt><trkpt lat="46.1010651" lon="12.1125964"><ele>349.0</ele><time>2026-05-01T16:27:30.26Z</time></trkpt><trkpt lat="46.1009637" lon="12.112688"><ele>349.0</ele><time>2026-05-01T16:27:32.277Z</time></trkpt><trkpt lat="46.1008578" lon="12.1127658"><ele>349.0</ele><time>2026-05-01T16:27:34.269Z</time></trkpt><trkpt lat="46.1007598" lon="12.1128468"><ele>347.79999999999995</ele><time>2026-05-01T16:27:36.261Z</time></trkpt><trkpt lat="46.1006673" lon="12.1129212"><ele>346.59999999999997</ele><time>2026-05-01T16:27:38.264Z</time></trkpt><trkpt lat="46.100575" lon="12.1130013"><ele>345.4</ele><time>2026-05-01T16:27:40.255Z</time></trkpt><trkpt lat="46.1004835" lon="12.1130666"><ele>344.2</ele><time>2026-05-01T16:27:42.26Z</time></trkpt><trkpt lat="46.1003996" lon="12.1131339"><ele>343.0</ele><time>2026-05-01T16:27:44.259Z</time></trkpt><trkpt lat="46.1003166" lon="12.1132049"><ele>342.79999999999995</ele><time>2026-05-01T16:27:46.265Z</time></trkpt><trkpt lat="46.1002399" lon="12.1132782"><ele>342.6</ele><time>2026-05-01T16:27:48.262Z</time></trkpt><trkpt lat="46.1001631" lon="12.1133609"><ele>342.4</ele><time>2026-05-01T16:27:50.262Z</time></trkpt><trkpt lat="46.1000866" lon="12.11346"><ele>342.20000000000005</ele><time>2026-05-01T16:27:52.26Z</time></trkpt><trkpt lat="46.100021" lon="12.1135882"><ele>342.0</ele><time>2026-05-01T16:27:54.264Z</time></trkpt><trkpt lat="46.0999705" lon="12.1137421"><ele>341.99999999999994</ele><time>2026-05-01T16:27:56.265Z</time></trkpt><trkpt lat="46.0999501" lon="12.1138291"><ele>342.0</ele><time>2026-05-01T16:27:57.263Z</time></trkpt><trkpt lat="46.0999307" lon="12.1139178"><ele>342.0</ele><time>2026-05-01T16:27:58.265Z</time></trkpt><trkpt lat="46.0999152" lon="12.1140104"><ele>342.0</ele><time>2026-05-01T16:27:59.26Z</time></trkpt><trkpt lat="46.0998955" lon="12.114104"><ele>342.0</ele><time>2026-05-01T16:28:00.259Z</time></trkpt><trkpt lat="46.0998781" lon="12.1141992"><ele>341.99999999999994</ele><time>2026-05-01T16:28:01.265Z</time></trkpt><trkpt lat="46.0998621" lon="12.1142891"><ele>342.0</ele><time>2026-05-01T16:28:02.265Z</time></trkpt><trkpt lat="46.0998452" lon="12.1143953"><ele>340.57142857142856</ele><time>2026-05-01T16:28:03.278Z</time></trkpt><trkpt lat="46.0998283" lon="12.1144932"><ele>339.1428571428571</ele><time>2026-05-01T16:28:04.266Z</time></trkpt><trkpt lat="46.0998092" lon="12.1145894"><ele>337.71428571428567</ele><time>2026-05-01T16:28:05.263Z</time></trkpt><trkpt lat="46.099793" lon="12.1146899"><ele>336.2857142857143</ele><time>2026-05-01T16:28:06.26Z</time></trkpt><trkpt lat="46.0997785" lon="12.1147906"><ele>334.8571428571429</ele><time>2026-05-01T16:28:07.266Z</time></trkpt><trkpt lat="46.0997651" lon="12.1148884"><ele>333.4285714285714</ele><time>2026-05-01T16:28:08.254Z</time></trkpt><trkpt lat="46.099753" lon="12.1149832"><ele>332.0</ele><time>2026-05-01T16:28:09.263Z</time></trkpt><trkpt lat="46.0997293" lon="12.1150879"><ele>332.0</ele><time>2026-05-01T16:28:10.258Z</time></trkpt><trkpt lat="46.0997123" lon="12.1151805"><ele>332.0</ele><time>2026-05-01T16:28:11.261Z</time></trkpt><trkpt lat="46.0996893" lon="12.115279"><ele>332.0</ele><time>2026-05-01T16:28:12.253Z</time></trkpt><trkpt lat="46.0996745" lon="12.1153852"><ele>332.0</ele><time>2026-05-01T16:28:13.262Z</time></trkpt><trkpt lat="46.0996563" lon="12.1154876"><ele>332.0</ele><time>2026-05-01T16:28:14.275Z</time></trkpt><trkpt lat="46.0996463" lon="12.1155859"><ele>332.0</ele><time>2026-05-01T16:28:15.261Z</time></trkpt><trkpt lat="46.0996356" lon="12.1156886"><ele>332.0</ele><time>2026-05-01T16:28:16.269Z</time></trkpt><trkpt lat="46.0996284" lon="12.1158022"><ele>332.83333333333337</ele><time>2026-05-01T16:28:17.263Z</time></trkpt><trkpt lat="46.0996256" lon="12.115979"><ele>333.6666666666667</ele><time>2026-05-01T16:28:19.267Z</time></trkpt><trkpt lat="46.0996289" lon="12.1160764"><ele>334.5</ele><time>2026-05-01T16:28:20.264Z</time></trkpt><trkpt lat="46.0996269" lon="12.1161772"><ele>335.3333333333333</ele><time>2026-05-01T16:28:21.272Z</time></trkpt><trkpt lat="46.0996283" lon="12.1162751"><ele>336.16666666666663</ele><time>2026-05-01T16:28:22.273Z</time></trkpt><trkpt lat="46.099635" lon="12.1163685"><ele>337.0</ele><time>2026-05-01T16:28:23.277Z</time></trkpt><trkpt lat="46.099637" lon="12.1164756"><ele>336.42857142857144</ele><time>2026-05-01T16:28:24.266Z</time></trkpt><trkpt lat="46.0996435" lon="12.116578"><ele>335.8571428571429</ele><time>2026-05-01T16:28:25.264Z</time></trkpt><trkpt lat="46.0996524" lon="12.116681"><ele>335.28571428571433</ele><time>2026-05-01T16:28:26.266Z</time></trkpt><trkpt lat="46.0996563" lon="12.116792"><ele>334.7142857142857</ele><time>2026-05-01T16:28:27.265Z</time></trkpt><trkpt lat="46.0996697" lon="12.1168987"><ele>334.1428571428571</ele><time>2026-05-01T16:28:28.265Z</time></trkpt><trkpt lat="46.0996723" lon="12.1170078"><ele>333.5714285714286</ele><time>2026-05-01T16:28:29.267Z</time></trkpt><trkpt lat="46.0996721" lon="12.1171089"><ele>333.0</ele><time>2026-05-01T16:28:30.26Z</time></trkpt><trkpt lat="46.0996641" lon="12.1172246"><ele>333.0</ele><time>2026-05-01T16:28:31.267Z</time></trkpt><trkpt lat="46.0996317" lon="12.1173298"><ele>333.0</ele><time>2026-05-01T16:28:32.267Z</time></trkpt><trkpt lat="46.099577" lon="12.1174078"><ele>333.0</ele><time>2026-05-01T16:28:33.261Z</time></trkpt><trkpt lat="46.0995108" lon="12.1174607"><ele>333.0</ele><time>2026-05-01T16:28:34.268Z</time></trkpt><trkpt lat="46.0994337" lon="12.1174782"><ele>333.0</ele><time>2026-05-01T16:28:35.276Z</time></trkpt><trkpt lat="46.0993502" lon="12.117492"><ele>333.0</ele><time>2026-05-01T16:28:36.272Z</time></trkpt><trkpt lat="46.0992714" lon="12.1175037"><ele>333.3333333333333</ele><time>2026-05-01T16:28:37.261Z</time></trkpt><trkpt lat="46.0992015" lon="12.1175361"><ele>333.6666666666667</ele><time>2026-05-01T16:28:38.271Z</time></trkpt><trkpt lat="46.0991499" lon="12.1176123"><ele>334.0</ele><time>2026-05-01T16:28:39.266Z</time></trkpt><trkpt lat="46.0991113" lon="12.1177023"><ele>334.33333333333337</ele><time>2026-05-01T16:28:40.255Z</time></trkpt><trkpt lat="46.0991097" lon="12.1178146"><ele>334.6666666666667</ele><time>2026-05-01T16:28:41.266Z</time></trkpt><trkpt lat="46.0991167" lon="12.1179256"><ele>335.0</ele><time>2026-05-01T16:28:42.263Z</time></trkpt><trkpt lat="46.0991394" lon="12.1180521"><ele>335.0</ele><time>2026-05-01T16:28:43.27Z</time></trkpt><trkpt lat="46.0991517" lon="12.1181624"><ele>335.0</ele><time>2026-05-01T16:28:44.265Z</time></trkpt><trkpt lat="46.0991809" lon="12.1183779"><ele>335.0</ele><time>2026-05-01T16:28:46.27Z</time></trkpt><trkpt lat="46.0991336" lon="12.1184696"><ele>335.0</ele><time>2026-05-01T16:28:47.254Z</time></trkpt><trkpt lat="46.0990652" lon="12.1185256"><ele>335.0</ele><time>2026-05-01T16:28:48.265Z</time></trkpt><trkpt lat="46.0989935" lon="12.1185643"><ele>333.6666666666667</ele><time>2026-05-01T16:28:49.253Z</time></trkpt><trkpt lat="46.0989171" lon="12.1185717"><ele>332.33333333333337</ele><time>2026-05-01T16:28:50.264Z</time></trkpt><trkpt lat="46.0988373" lon="12.1185811"><ele>331.0</ele><time>2026-05-01T16:28:51.26Z</time></trkpt><trkpt lat="46.0987577" lon="12.1186063"><ele>329.6666666666667</ele><time>2026-05-01T16:28:52.265Z</time></trkpt><trkpt lat="46.0986842" lon="12.1186145"><ele>328.3333333333333</ele><time>2026-05-01T16:28:53.271Z</time></trkpt><trkpt lat="46.0986094" lon="12.1186189"><ele>327.0</ele><time>2026-05-01T16:28:54.274Z</time></trkpt><trkpt lat="46.0985378" lon="12.1186164"><ele>327.0</ele><time>2026-05-01T16:28:55.264Z</time></trkpt><trkpt lat="46.098419" lon="12.1186194"><ele>327.0</ele><time>2026-05-01T16:28:57.264Z</time></trkpt><trkpt lat="46.0983055" lon="12.1186233"><ele>327.0</ele><time>2026-05-01T16:28:59.257Z</time></trkpt><trkpt lat="46.0982079" lon="12.1186412"><ele>327.0</ele><time>2026-05-01T16:29:01.264Z</time></trkpt><trkpt lat="46.0981227" lon="12.1186432"><ele>327.0</ele><time>2026-05-01T16:29:03.274Z</time></trkpt><trkpt lat="46.0980314" lon="12.118641"><ele>327.0</ele><time>2026-05-01T16:29:05.257Z</time></trkpt><trkpt lat="46.0979401" lon="12.1186435"><ele>327.0</ele><time>2026-05-01T16:29:07.274Z</time></trkpt><trkpt lat="46.0978519" lon="12.118643"><ele>327.0</ele><time>2026-05-01T16:29:09.263Z</time></trkpt><trkpt lat="46.0977672" lon="12.1186297"><ele>327.0</ele><time>2026-05-01T16:29:11.254Z</time></trkpt><trkpt lat="46.097675" lon="12.1186359"><ele>327.0</ele><time>2026-05-01T16:29:13.265Z</time></trkpt><trkpt lat="46.0975843" lon="12.1186218"><ele>327.0</ele><time>2026-05-01T16:29:15.257Z</time></trkpt><trkpt lat="46.0974967" lon="12.1186054"><ele>327.0</ele><time>2026-05-01T16:29:17.262Z</time></trkpt><trkpt lat="46.097418" lon="12.1185997"><ele>327.0</ele><time>2026-05-01T16:29:19.265Z</time></trkpt><trkpt lat="46.0973303" lon="12.118591"><ele>327.0</ele><time>2026-05-01T16:29:21.266Z</time></trkpt><trkpt lat="46.0972469" lon="12.1185853"><ele>327.0</ele><time>2026-05-01T16:29:23.263Z</time></trkpt><trkpt lat="46.0971654" lon="12.1185877"><ele>327.0</ele><time>2026-05-01T16:29:25.253Z</time></trkpt><trkpt lat="46.0970736" lon="12.1185915"><ele>327.0</ele><time>2026-05-01T16:29:27.261Z</time></trkpt><trkpt lat="46.096965" lon="12.1185971"><ele>327.0</ele><time>2026-05-01T16:29:29.259Z</time></trkpt><trkpt lat="46.0968663" lon="12.1185967"><ele>327.0</ele><time>2026-05-01T16:29:31.272Z</time></trkpt><trkpt lat="46.0967694" lon="12.1185987"><ele>327.0</ele><time>2026-05-01T16:29:33.264Z</time></trkpt><trkpt lat="46.0966886" lon="12.1185964"><ele>327.0</ele><time>2026-05-01T16:29:35.254Z</time></trkpt><trkpt lat="46.096591" lon="12.118596"><ele>327.0</ele><time>2026-05-01T16:29:37.257Z</time></trkpt><trkpt lat="46.0964933" lon="12.1185888"><ele>327.6</ele><time>2026-05-01T16:29:39.259Z</time></trkpt><trkpt lat="46.0963972" lon="12.1185916"><ele>328.20000000000005</ele><time>2026-05-01T16:29:41.269Z</time></trkpt><trkpt lat="46.0963037" lon="12.1185808"><ele>328.8</ele><time>2026-05-01T16:29:43.278Z</time></trkpt><trkpt lat="46.0962184" lon="12.1185918"><ele>329.4</ele><time>2026-05-01T16:29:45.276Z</time></trkpt><trkpt lat="46.09613" lon="12.1186195"><ele>330.0</ele><time>2026-05-01T16:29:47.277Z</time></trkpt><trkpt lat="46.0960407" lon="12.1186666"><ele>330.0</ele><time>2026-05-01T16:29:49.265Z</time></trkpt><trkpt lat="46.095964" lon="12.118725"><ele>330.0</ele><time>2026-05-01T16:29:51.262Z</time></trkpt><trkpt lat="46.0958913" lon="12.1187906"><ele>330.0</ele><time>2026-05-01T16:29:53.268Z</time></trkpt><trkpt lat="46.095825" lon="12.1188633"><ele>330.0</ele><time>2026-05-01T16:29:55.279Z</time></trkpt><trkpt lat="46.0957554" lon="12.1189328"><ele>330.0</ele><time>2026-05-01T16:29:57.264Z</time></trkpt><trkpt lat="46.0956869" lon="12.1190004"><ele>330.0</ele><time>2026-05-01T16:29:59.264Z</time></trkpt><trkpt lat="46.0956182" lon="12.1190451"><ele>330.3333333333333</ele><time>2026-05-01T16:30:01.272Z</time></trkpt><trkpt lat="46.0955433" lon="12.1190673"><ele>330.6666666666667</ele><time>2026-05-01T16:30:03.267Z</time></trkpt><trkpt lat="46.0954662" lon="12.1190621"><ele>331.0</ele><time>2026-05-01T16:30:05.267Z</time></trkpt><trkpt lat="46.0953841" lon="12.1190297"><ele>331.33333333333337</ele><time>2026-05-01T16:30:07.263Z</time></trkpt><trkpt lat="46.0953132" lon="12.1189539"><ele>331.6666666666667</ele><time>2026-05-01T16:30:09.262Z</time></trkpt><trkpt lat="46.0952636" lon="12.1188747"><ele>332.0</ele><time>2026-05-01T16:30:11.272Z</time></trkpt><trkpt lat="46.0952197" lon="12.1188005"><ele>332.0</ele><time>2026-05-01T16:30:13.264Z</time></trkpt><trkpt lat="46.0951744" lon="12.1187291"><ele>332.0</ele><time>2026-05-01T16:30:15.261Z</time></trkpt><trkpt lat="46.0951296" lon="12.1186594"><ele>332.0</ele><time>2026-05-01T16:30:17.257Z</time></trkpt><trkpt lat="46.0950654" lon="12.118561"><ele>332.0</ele><time>2026-05-01T16:30:20.263Z</time></trkpt><trkpt lat="46.0950022" lon="12.1184697"><ele>332.0</ele><time>2026-05-01T16:30:23.271Z</time></trkpt><trkpt lat="46.0949425" lon="12.1183834"><ele>332.0</ele><time>2026-05-01T16:30:26.267Z</time></trkpt><trkpt lat="46.0948942" lon="12.1183226"><ele>330.6666666666667</ele><time>2026-05-01T16:30:28.257Z</time></trkpt><trkpt lat="46.0948397" lon="12.118242"><ele>329.33333333333337</ele><time>2026-05-01T16:30:30.255Z</time></trkpt><trkpt lat="46.0947614" lon="12.1181297"><ele>328.0</ele><time>2026-05-01T16:30:32.263Z</time></trkpt><trkpt lat="46.0946701" lon="12.1180054"><ele>326.6666666666667</ele><time>2026-05-01T16:30:34.257Z</time></trkpt><trkpt lat="46.0946158" lon="12.1179568"><ele>325.3333333333333</ele><time>2026-05-01T16:30:35.264Z</time></trkpt><trkpt lat="46.0945524" lon="12.1179297"><ele>324.0</ele><time>2026-05-01T16:30:36.259Z</time></trkpt><trkpt lat="46.0944826" lon="12.1179112"><ele>324.0</ele><time>2026-05-01T16:30:37.265Z</time></trkpt><trkpt lat="46.0943583" lon="12.1179341"><ele>324.0</ele><time>2026-05-01T16:30:39.265Z</time></trkpt><trkpt lat="46.0943041" lon="12.1180098"><ele>324.0</ele><time>2026-05-01T16:30:40.258Z</time></trkpt><trkpt lat="46.0942538" lon="12.1180694"><ele>324.0</ele><time>2026-05-01T16:30:41.263Z</time></trkpt><trkpt lat="46.0942055" lon="12.1181428"><ele>324.0</ele><time>2026-05-01T16:30:42.267Z</time></trkpt><trkpt lat="46.0941591" lon="12.1182233"><ele>324.0</ele><time>2026-05-01T16:30:43.265Z</time></trkpt><trkpt lat="46.0941101" lon="12.1183064"><ele>322.6666666666667</ele><time>2026-05-01T16:30:44.26Z</time></trkpt><trkpt lat="46.0940649" lon="12.118395"><ele>321.3333333333333</ele><time>2026-05-01T16:30:45.255Z</time></trkpt><trkpt lat="46.0940195" lon="12.1184888"><ele>320.0</ele><time>2026-05-01T16:30:46.258Z</time></trkpt><trkpt lat="46.0939734" lon="12.1185859"><ele>318.66666666666663</ele><time>2026-05-01T16:30:47.264Z</time></trkpt><trkpt lat="46.0939264" lon="12.1186918"><ele>317.3333333333333</ele><time>2026-05-01T16:30:48.266Z</time></trkpt><trkpt lat="46.0938674" lon="12.1187957"><ele>316.0</ele><time>2026-05-01T16:30:49.257Z</time></trkpt><trkpt lat="46.0938185" lon="12.1188905"><ele>316.0</ele><time>2026-05-01T16:30:50.261Z</time></trkpt><trkpt lat="46.0937671" lon="12.1189929"><ele>316.0</ele><time>2026-05-01T16:30:51.259Z</time></trkpt><trkpt lat="46.0937157" lon="12.1190906"><ele>316.0</ele><time>2026-05-01T16:30:52.257Z</time></trkpt><trkpt lat="46.0936714" lon="12.1191832"><ele>316.0</ele><time>2026-05-01T16:30:53.276Z</time></trkpt><trkpt lat="46.0936158" lon="12.1192662"><ele>316.0</ele><time>2026-05-01T16:30:54.268Z</time></trkpt><trkpt lat="46.0935531" lon="12.1193245"><ele>316.0</ele><time>2026-05-01T16:30:55.258Z</time></trkpt><trkpt lat="46.0934843" lon="12.119363"><ele>316.28571428571433</ele><time>2026-05-01T16:30:56.256Z</time></trkpt><trkpt lat="46.0934168" lon="12.1193834"><ele>316.57142857142856</ele><time>2026-05-01T16:30:57.256Z</time></trkpt><trkpt lat="46.0933501" lon="12.1194056"><ele>316.8571428571429</ele><time>2026-05-01T16:30:58.256Z</time></trkpt><trkpt lat="46.0932849" lon="12.1194289"><ele>317.14285714285717</ele><time>2026-05-01T16:30:59.257Z</time></trkpt><trkpt lat="46.0932229" lon="12.1194456"><ele>317.42857142857144</ele><time>2026-05-01T16:31:00.256Z</time></trkpt><trkpt lat="46.0931586" lon="12.1194623"><ele>317.7142857142857</ele><time>2026-05-01T16:31:01.266Z</time></trkpt><trkpt lat="46.0930912" lon="12.1194846"><ele>318.0</ele><time>2026-05-01T16:31:02.264Z</time></trkpt><trkpt lat="46.0930261" lon="12.119519"><ele>315.6666666666667</ele><time>2026-05-01T16:31:03.263Z</time></trkpt><trkpt lat="46.0929654" lon="12.1195646"><ele>313.3333333333333</ele><time>2026-05-01T16:31:04.265Z</time></trkpt><trkpt lat="46.0929141" lon="12.1196219"><ele>311.0</ele><time>2026-05-01T16:31:05.259Z</time></trkpt><trkpt lat="46.0928318" lon="12.1197597"><ele>308.66666666666663</ele><time>2026-05-01T16:31:07.262Z</time></trkpt><trkpt lat="46.0928073" lon="12.1198445"><ele>306.3333333333333</ele><time>2026-05-01T16:31:08.258Z</time></trkpt><trkpt lat="46.0927808" lon="12.1200121"><ele>304.0</ele><time>2026-05-01T16:31:10.269Z</time></trkpt><trkpt lat="46.0927612" lon="12.1201839"><ele>304.0</ele><time>2026-05-01T16:31:12.27Z</time></trkpt><trkpt lat="46.092737" lon="12.120352"><ele>304.0</ele><time>2026-05-01T16:31:14.264Z</time></trkpt><trkpt lat="46.0927124" lon="12.1205342"><ele>304.0</ele><time>2026-05-01T16:31:16.261Z</time></trkpt><trkpt lat="46.0927049" lon="12.1206321"><ele>304.0</ele><time>2026-05-01T16:31:17.272Z</time></trkpt><trkpt lat="46.0926989" lon="12.1207283"><ele>304.0</ele><time>2026-05-01T16:31:18.262Z</time></trkpt><trkpt lat="46.0926891" lon="12.120829"><ele>304.1428571428571</ele><time>2026-05-01T16:31:19.267Z</time></trkpt><trkpt lat="46.0926808" lon="12.1209305"><ele>304.28571428571433</ele><time>2026-05-01T16:31:20.26Z</time></trkpt><trkpt lat="46.0926737" lon="12.1210347"><ele>304.42857142857144</ele><time>2026-05-01T16:31:21.256Z</time></trkpt><trkpt lat="46.0926693" lon="12.1211382"><ele>304.57142857142856</ele><time>2026-05-01T16:31:22.251Z</time></trkpt><trkpt lat="46.0926615" lon="12.1212408"><ele>304.71428571428567</ele><time>2026-05-01T16:31:23.257Z</time></trkpt><trkpt lat="46.0926545" lon="12.121334"><ele>304.8571428571429</ele><time>2026-05-01T16:31:24.258Z</time></trkpt><trkpt lat="46.0926494" lon="12.1214279"><ele>305.0</ele><time>2026-05-01T16:31:25.254Z</time></trkpt><trkpt lat="46.0926468" lon="12.1216058"><ele>305.0</ele><time>2026-05-01T16:31:27.264Z</time></trkpt><trkpt lat="46.092638" lon="12.1217729"><ele>305.0</ele><time>2026-05-01T16:31:29.266Z</time></trkpt><trkpt lat="46.0926263" lon="12.1219476"><ele>305.0</ele><time>2026-05-01T16:31:31.281Z</time></trkpt><trkpt lat="46.0926264" lon="12.1221277"><ele>305.0</ele><time>2026-05-01T16:31:33.277Z</time></trkpt><trkpt lat="46.0926226" lon="12.1223033"><ele>305.2</ele><time>2026-05-01T16:31:35.272Z</time></trkpt><trkpt lat="46.092618" lon="12.1224886"><ele>305.4</ele><time>2026-05-01T16:31:37.268Z</time></trkpt><trkpt lat="46.0926063" lon="12.1225862"><ele>305.6</ele><time>2026-05-01T16:31:38.264Z</time></trkpt><trkpt lat="46.0925922" lon="12.122682"><ele>305.8</ele><time>2026-05-01T16:31:39.277Z</time></trkpt><trkpt lat="46.0925139" lon="12.12283"><ele>306.0</ele><time>2026-05-01T16:31:41.269Z</time></trkpt><trkpt lat="46.0924727" lon="12.1229078"><ele>306.0</ele><time>2026-05-01T16:31:42.258Z</time></trkpt><trkpt lat="46.0924294" lon="12.1229873"><ele>306.0</ele><time>2026-05-01T16:31:43.261Z</time></trkpt><trkpt lat="46.0923754" lon="12.1230607"><ele>306.0</ele><time>2026-05-01T16:31:44.267Z</time></trkpt><trkpt lat="46.0923217" lon="12.1231218"><ele>306.0</ele><time>2026-05-01T16:31:45.26Z</time></trkpt><trkpt lat="46.0922677" lon="12.123177"><ele>306.0</ele><time>2026-05-01T16:31:46.268Z</time></trkpt><trkpt lat="46.0922201" lon="12.1232373"><ele>306.0</ele><time>2026-05-01T16:31:47.263Z</time></trkpt><trkpt lat="46.0921669" lon="12.1232966"><ele>306.0</ele><time>2026-05-01T16:31:48.266Z</time></trkpt><trkpt lat="46.0921159" lon="12.1233663"><ele>304.42857142857144</ele><time>2026-05-01T16:31:49.278Z</time></trkpt><trkpt lat="46.0920713" lon="12.1234442"><ele>302.8571428571429</ele><time>2026-05-01T16:31:50.253Z</time></trkpt><trkpt lat="46.0920323" lon="12.1235231"><ele>301.28571428571433</ele><time>2026-05-01T16:31:51.262Z</time></trkpt><trkpt lat="46.0919883" lon="12.1235956"><ele>299.7142857142857</ele><time>2026-05-01T16:31:52.263Z</time></trkpt><trkpt lat="46.0919482" lon="12.1236719"><ele>298.14285714285717</ele><time>2026-05-01T16:31:53.264Z</time></trkpt><trkpt lat="46.0919235" lon="12.1237589"><ele>296.5714285714286</ele><time>2026-05-01T16:31:54.265Z</time></trkpt><trkpt lat="46.0919028" lon="12.1238476"><ele>295.0</ele><time>2026-05-01T16:31:55.268Z</time></trkpt><trkpt lat="46.0918787" lon="12.1239374"><ele>295.0</ele><time>2026-05-01T16:31:56.263Z</time></trkpt><trkpt lat="46.0918457" lon="12.124023"><ele>295.0</ele><time>2026-05-01T16:31:57.261Z</time></trkpt><trkpt lat="46.0918059" lon="12.124102"><ele>295.0</ele><time>2026-05-01T16:31:58.268Z</time></trkpt><trkpt lat="46.0917439" lon="12.1242527"><ele>295.0</ele><time>2026-05-01T16:32:00.265Z</time></trkpt><trkpt lat="46.0916815" lon="12.1243911"><ele>295.0</ele><time>2026-05-01T16:32:02.259Z</time></trkpt><trkpt lat="46.0916267" lon="12.1245167"><ele>294.4</ele><time>2026-05-01T16:32:04.275Z</time></trkpt><trkpt lat="46.0915742" lon="12.1246389"><ele>293.8</ele><time>2026-05-01T16:32:06.279Z</time></trkpt><trkpt lat="46.0915198" lon="12.1247591"><ele>293.2</ele><time>2026-05-01T16:32:08.267Z</time></trkpt><trkpt lat="46.0914652" lon="12.1248691"><ele>292.6</ele><time>2026-05-01T16:32:10.258Z</time></trkpt><trkpt lat="46.0914198" lon="12.1249858"><ele>292.0</ele><time>2026-05-01T16:32:12.269Z</time></trkpt><trkpt lat="46.0913681" lon="12.1250962"><ele>291.6</ele><time>2026-05-01T16:32:14.255Z</time></trkpt><trkpt lat="46.0913173" lon="12.1252037"><ele>291.2</ele><time>2026-05-01T16:32:16.261Z</time></trkpt><trkpt lat="46.0912654" lon="12.1253157"><ele>290.8</ele><time>2026-05-01T16:32:18.265Z</time></trkpt><trkpt lat="46.0912129" lon="12.1254306"><ele>290.4</ele><time>2026-05-01T16:32:20.256Z</time></trkpt><trkpt lat="46.0911621" lon="12.1255389"><ele>290.0</ele><time>2026-05-01T16:32:22.259Z</time></trkpt><trkpt lat="46.0911152" lon="12.1256512"><ele>290.2</ele><time>2026-05-01T16:32:24.263Z</time></trkpt><trkpt lat="46.0910607" lon="12.1257587"><ele>290.4</ele><time>2026-05-01T16:32:26.257Z</time></trkpt><trkpt lat="46.0910078" lon="12.1258714"><ele>290.6</ele><time>2026-05-01T16:32:28.268Z</time></trkpt><trkpt lat="46.0909598" lon="12.125981"><ele>290.8</ele><time>2026-05-01T16:32:30.276Z</time></trkpt><trkpt lat="46.09091" lon="12.126088"><ele>291.0</ele><time>2026-05-01T16:32:32.27Z</time></trkpt><trkpt lat="46.0908599" lon="12.1261986"><ele>291.0</ele><time>2026-05-01T16:32:34.266Z</time></trkpt><trkpt lat="46.0908099" lon="12.1263096"><ele>291.0</ele><time>2026-05-01T16:32:36.265Z</time></trkpt><trkpt lat="46.0907599" lon="12.1264276"><ele>291.0</ele><time>2026-05-01T16:32:38.259Z</time></trkpt><trkpt lat="46.0907083" lon="12.1265372"><ele>291.0</ele><time>2026-05-01T16:32:40.282Z</time></trkpt><trkpt lat="46.0906581" lon="12.1266443"><ele>291.0</ele><time>2026-05-01T16:32:42.26Z</time></trkpt><trkpt lat="46.0906045" lon="12.1267551"><ele>291.6</ele><time>2026-05-01T16:32:44.258Z</time></trkpt><trkpt lat="46.0905518" lon="12.1268734"><ele>292.20000000000005</ele><time>2026-05-01T16:32:46.271Z</time></trkpt><trkpt lat="46.0904964" lon="12.1269928"><ele>292.79999999999995</ele><time>2026-05-01T16:32:48.263Z</time></trkpt><trkpt lat="46.090443" lon="12.127114"><ele>293.4</ele><time>2026-05-01T16:32:50.258Z</time></trkpt><trkpt lat="46.0903923" lon="12.1272236"><ele>294.0</ele><time>2026-05-01T16:32:52.28Z</time></trkpt><trkpt lat="46.0903423" lon="12.127343"><ele>294.8</ele><time>2026-05-01T16:32:54.257Z</time></trkpt><trkpt lat="46.0902809" lon="12.1274603"><ele>295.59999999999997</ele><time>2026-05-01T16:32:56.269Z</time></trkpt><trkpt lat="46.0902289" lon="12.1275718"><ele>296.4</ele><time>2026-05-01T16:32:58.265Z</time></trkpt><trkpt lat="46.0901741" lon="12.1276905"><ele>297.2</ele><time>2026-05-01T16:33:00.263Z</time></trkpt><trkpt lat="46.0901273" lon="12.1277838"><ele>298.0</ele><time>2026-05-01T16:33:02.275Z</time></trkpt><trkpt lat="46.0900781" lon="12.1278846"><ele>298.0</ele><time>2026-05-01T16:33:04.264Z</time></trkpt><trkpt lat="46.0900251" lon="12.1279813"><ele>298.0</ele><time>2026-05-01T16:33:06.259Z</time></trkpt><trkpt lat="46.0899712" lon="12.1280885"><ele>298.0</ele><time>2026-05-01T16:33:08.257Z</time></trkpt><trkpt lat="46.0899191" lon="12.1281889"><ele>298.0</ele><time>2026-05-01T16:33:10.263Z</time></trkpt><trkpt lat="46.0898602" lon="12.128289"><ele>298.0</ele><time>2026-05-01T16:33:12.265Z</time></trkpt><trkpt lat="46.0898024" lon="12.1283919"><ele>298.0</ele><time>2026-05-01T16:33:14.26Z</time></trkpt><trkpt lat="46.0897465" lon="12.1284904"><ele>299.0</ele><time>2026-05-01T16:33:16.265Z</time></trkpt><trkpt lat="46.0896871" lon="12.1285817"><ele>300.0</ele><time>2026-05-01T16:33:18.263Z</time></trkpt><trkpt lat="46.0896259" lon="12.1286783"><ele>301.0</ele><time>2026-05-01T16:33:20.266Z</time></trkpt><trkpt lat="46.0895575" lon="12.1287763"><ele>302.0</ele><time>2026-05-01T16:33:22.26Z</time></trkpt><trkpt lat="46.0894892" lon="12.1288701"><ele>303.0</ele><time>2026-05-01T16:33:24.262Z</time></trkpt><trkpt lat="46.0894164" lon="12.1289615"><ele>303.0</ele><time>2026-05-01T16:33:26.275Z</time></trkpt><trkpt lat="46.0893401" lon="12.1290467"><ele>303.0</ele><time>2026-05-01T16:33:28.253Z</time></trkpt><trkpt lat="46.0892656" lon="12.129132"><ele>303.0</ele><time>2026-05-01T16:33:30.27Z</time></trkpt><trkpt lat="46.0891908" lon="12.1292142"><ele>303.0</ele><time>2026-05-01T16:33:32.265Z</time></trkpt><trkpt lat="46.089114" lon="12.1292879"><ele>303.0</ele><time>2026-05-01T16:33:34.272Z</time></trkpt><trkpt lat="46.0890325" lon="12.1293575"><ele>302.8</ele><time>2026-05-01T16:33:36.266Z</time></trkpt><trkpt lat="46.0889513" lon="12.1294202"><ele>302.6</ele><time>2026-05-01T16:33:38.264Z</time></trkpt><trkpt lat="46.0888697" lon="12.1294851"><ele>302.4</ele><time>2026-05-01T16:33:40.263Z</time></trkpt><trkpt lat="46.0887937" lon="12.129546"><ele>302.2</ele><time>2026-05-01T16:33:42.265Z</time></trkpt><trkpt lat="46.0887171" lon="12.1296104"><ele>302.0</ele><time>2026-05-01T16:33:44.265Z</time></trkpt><trkpt lat="46.0886381" lon="12.1296747"><ele>302.0</ele><time>2026-05-01T16:33:46.262Z</time></trkpt><trkpt lat="46.0885601" lon="12.129735"><ele>302.0</ele><time>2026-05-01T16:33:48.26Z</time></trkpt><trkpt lat="46.0884888" lon="12.1298032"><ele>302.0</ele><time>2026-05-01T16:33:50.264Z</time></trkpt><trkpt lat="46.0884088" lon="12.1298775"><ele>302.0</ele><time>2026-05-01T16:33:52.27Z</time></trkpt><trkpt lat="46.0883403" lon="12.1299547"><ele>302.0</ele><time>2026-05-01T16:33:54.275Z</time></trkpt><trkpt lat="46.0882717" lon="12.1300253"><ele>302.0</ele><time>2026-05-01T16:33:56.266Z</time></trkpt><trkpt lat="46.0881993" lon="12.130088"><ele>302.5</ele><time>2026-05-01T16:33:58.266Z</time></trkpt><trkpt lat="46.0881287" lon="12.1301515"><ele>303.0</ele><time>2026-05-01T16:34:00.259Z</time></trkpt><trkpt lat="46.0880621" lon="12.1302164"><ele>303.5</ele><time>2026-05-01T16:34:02.257Z</time></trkpt><trkpt lat="46.0879903" lon="12.1302676"><ele>304.0</ele><time>2026-05-01T16:34:04.271Z</time></trkpt><trkpt lat="46.0879191" lon="12.1303279"><ele>304.5</ele><time>2026-05-01T16:34:06.261Z</time></trkpt><trkpt lat="46.0878491" lon="12.1303865"><ele>305.0</ele><time>2026-05-01T16:34:08.276Z</time></trkpt><trkpt lat="46.0877794" lon="12.1304429"><ele>305.0</ele><time>2026-05-01T16:34:10.272Z</time></trkpt><trkpt lat="46.0877097" lon="12.1304998"><ele>305.0</ele><time>2026-05-01T16:34:12.269Z</time></trkpt><trkpt lat="46.0876406" lon="12.1305578"><ele>305.0</ele><time>2026-05-01T16:34:14.274Z</time></trkpt><trkpt lat="46.0875711" lon="12.1306122"><ele>305.0</ele><time>2026-05-01T16:34:16.26Z</time></trkpt><trkpt lat="46.0875019" lon="12.1306645"><ele>305.0</ele><time>2026-05-01T16:34:18.27Z</time></trkpt><trkpt lat="46.087434" lon="12.13072"><ele>305.0</ele><time>2026-05-01T16:34:20.282Z</time></trkpt><trkpt lat="46.0873656" lon="12.1307771"><ele>305.7142857142857</ele><time>2026-05-01T16:34:22.278Z</time></trkpt><trkpt lat="46.0872995" lon="12.1308352"><ele>306.4285714285714</ele><time>2026-05-01T16:34:24.273Z</time></trkpt><trkpt lat="46.0872349" lon="12.1308857"><ele>307.1428571428571</ele><time>2026-05-01T16:34:26.265Z</time></trkpt><trkpt lat="46.0871723" lon="12.1309343"><ele>307.8571428571429</ele><time>2026-05-01T16:34:28.258Z</time></trkpt><trkpt lat="46.0871089" lon="12.1309866"><ele>308.57142857142856</ele><time>2026-05-01T16:34:30.263Z</time></trkpt><trkpt lat="46.0870419" lon="12.1310367"><ele>309.2857142857143</ele><time>2026-05-01T16:34:32.259Z</time></trkpt><trkpt lat="46.0869772" lon="12.1310956"><ele>310.0</ele><time>2026-05-01T16:34:34.275Z</time></trkpt><trkpt lat="46.0869129" lon="12.1311496"><ele>310.0</ele><time>2026-05-01T16:34:36.265Z</time></trkpt><trkpt lat="46.0868464" lon="12.1312074"><ele>310.0</ele><time>2026-05-01T16:34:38.258Z</time></trkpt><trkpt lat="46.0867785" lon="12.1312663"><ele>310.0</ele><time>2026-05-01T16:34:40.266Z</time></trkpt><trkpt lat="46.0867108" lon="12.13132"><ele>310.0</ele><time>2026-05-01T16:34:42.268Z</time></trkpt><trkpt lat="46.0866446" lon="12.1313755"><ele>310.0</ele><time>2026-05-01T16:34:44.278Z</time></trkpt><trkpt lat="46.0865771" lon="12.1314299"><ele>310.0</ele><time>2026-05-01T16:34:46.271Z</time></trkpt><trkpt lat="46.0865124" lon="12.1314894"><ele>310.0</ele><time>2026-05-01T16:34:48.263Z</time></trkpt><trkpt lat="46.0864453" lon="12.1315449"><ele>310.0</ele><time>2026-05-01T16:34:50.278Z</time></trkpt><trkpt lat="46.0863795" lon="12.1316029"><ele>310.0</ele><time>2026-05-01T16:34:52.265Z</time></trkpt><trkpt lat="46.0863132" lon="12.1316598"><ele>310.0</ele><time>2026-05-01T16:34:54.263Z</time></trkpt><trkpt lat="46.0862458" lon="12.1317144"><ele>310.0</ele><time>2026-05-01T16:34:56.258Z</time></trkpt><trkpt lat="46.08618" lon="12.1317744"><ele>310.0</ele><time>2026-05-01T16:34:58.272Z</time></trkpt><trkpt lat="46.0861136" lon="12.1318285"><ele>310.0</ele><time>2026-05-01T16:35:00.276Z</time></trkpt><trkpt lat="46.0860476" lon="12.1318797"><ele>310.0</ele><time>2026-05-01T16:35:02.27Z</time></trkpt><trkpt lat="46.0859807" lon="12.1319292"><ele>310.0</ele><time>2026-05-01T16:35:04.259Z</time></trkpt><trkpt lat="46.0859152" lon="12.1319802"><ele>310.0</ele><time>2026-05-01T16:35:06.258Z</time></trkpt><trkpt lat="46.085851" lon="12.1320316"><ele>310.0</ele><time>2026-05-01T16:35:08.281Z</time></trkpt><trkpt lat="46.0857861" lon="12.1320825"><ele>310.0</ele><time>2026-05-01T16:35:10.263Z</time></trkpt><trkpt lat="46.0857237" lon="12.1321393"><ele>310.0</ele><time>2026-05-01T16:35:12.258Z</time></trkpt><trkpt lat="46.0856647" lon="12.1322064"><ele>310.57142857142856</ele><time>2026-05-01T16:35:14.265Z</time></trkpt><trkpt lat="46.0856151" lon="12.1322875"><ele>311.1428571428571</ele><time>2026-05-01T16:35:16.267Z</time></trkpt><trkpt lat="46.0855614" lon="12.1323587"><ele>311.71428571428567</ele><time>2026-05-01T16:35:18.264Z</time></trkpt><trkpt lat="46.0855028" lon="12.1324224"><ele>312.2857142857143</ele><time>2026-05-01T16:35:20.26Z</time></trkpt><trkpt lat="46.0854447" lon="12.1324872"><ele>312.85714285714283</ele><time>2026-05-01T16:35:22.263Z</time></trkpt><trkpt lat="46.0853879" lon="12.1325585"><ele>313.4285714285714</ele><time>2026-05-01T16:35:24.265Z</time></trkpt><trkpt lat="46.0853409" lon="12.1326454"><ele>314.0</ele><time>2026-05-01T16:35:26.27Z</time></trkpt><trkpt lat="46.0853081" lon="12.1327443"><ele>313.99999999999994</ele><time>2026-05-01T16:35:28.258Z</time></trkpt><trkpt lat="46.0852837" lon="12.1328442"><ele>314.0</ele><time>2026-05-01T16:35:30.27Z</time></trkpt><trkpt lat="46.0852675" lon="12.1329493"><ele>314.0</ele><time>2026-05-01T16:35:32.271Z</time></trkpt><trkpt lat="46.0852542" lon="12.1330544"><ele>314.0</ele><time>2026-05-01T16:35:34.259Z</time></trkpt><trkpt lat="46.0852443" lon="12.1331608"><ele>314.0</ele><time>2026-05-01T16:35:36.264Z</time></trkpt><trkpt lat="46.0852332" lon="12.1332662"><ele>313.99999999999994</ele><time>2026-05-01T16:35:38.259Z</time></trkpt><trkpt lat="46.0852255" lon="12.133373"><ele>314.0</ele><time>2026-05-01T16:35:40.267Z</time></trkpt><trkpt lat="46.0852111" lon="12.1334861"><ele>314.0</ele><time>2026-05-01T16:35:42.265Z</time></trkpt><trkpt lat="46.0851987" lon="12.1335999"><ele>314.0</ele><time>2026-05-01T16:35:44.262Z</time></trkpt><trkpt lat="46.085185" lon="12.1337108"><ele>314.0</ele><time>2026-05-01T16:35:46.259Z</time></trkpt><trkpt lat="46.0851727" lon="12.1338198"><ele>314.0</ele><time>2026-05-01T16:35:48.273Z</time></trkpt><trkpt lat="46.0851648" lon="12.1339294"><ele>314.0</ele><time>2026-05-01T16:35:50.27Z</time></trkpt><trkpt lat="46.0851575" lon="12.1340368"><ele>314.0</ele><time>2026-05-01T16:35:52.265Z</time></trkpt><trkpt lat="46.0851513" lon="12.1341456"><ele>314.0</ele><time>2026-05-01T16:35:54.26Z</time></trkpt><trkpt lat="46.085146" lon="12.134253"><ele>314.0</ele><time>2026-05-01T16:35:56.277Z</time></trkpt><trkpt lat="46.0851445" lon="12.1343626"><ele>314.0</ele><time>2026-05-01T16:35:58.271Z</time></trkpt><trkpt lat="46.0851432" lon="12.134476"><ele>314.0</ele><time>2026-05-01T16:36:00.26Z</time></trkpt><trkpt lat="46.0851408" lon="12.1345911"><ele>314.0</ele><time>2026-05-01T16:36:02.271Z</time></trkpt><trkpt lat="46.0851418" lon="12.1347057"><ele>314.0</ele><time>2026-05-01T16:36:04.267Z</time></trkpt><trkpt lat="46.0851377" lon="12.134819"><ele>314.33333333333337</ele><time>2026-05-01T16:36:06.274Z</time></trkpt><trkpt lat="46.0851357" lon="12.1349306"><ele>314.6666666666667</ele><time>2026-05-01T16:36:08.27Z</time></trkpt><trkpt lat="46.0851266" lon="12.1350394"><ele>315.0</ele><time>2026-05-01T16:36:10.265Z</time></trkpt><trkpt lat="46.085117" lon="12.1351453"><ele>315.3333333333333</ele><time>2026-05-01T16:36:12.266Z</time></trkpt><trkpt lat="46.0851029" lon="12.1352518"><ele>315.66666666666663</ele><time>2026-05-01T16:36:14.267Z</time></trkpt><trkpt lat="46.0850835" lon="12.1353576"><ele>316.0</ele><time>2026-05-01T16:36:16.267Z</time></trkpt><trkpt lat="46.085062" lon="12.1354611"><ele>316.0</ele><time>2026-05-01T16:36:18.28Z</time></trkpt><trkpt lat="46.0850471" lon="12.1355706"><ele>316.0</ele><time>2026-05-01T16:36:20.255Z</time></trkpt><trkpt lat="46.0850258" lon="12.1356772"><ele>316.0</ele><time>2026-05-01T16:36:22.264Z</time></trkpt><trkpt lat="46.0850076" lon="12.1357893"><ele>316.0</ele><time>2026-05-01T16:36:24.262Z</time></trkpt><trkpt lat="46.0849877" lon="12.1359041"><ele>316.0</ele><time>2026-05-01T16:36:26.271Z</time></trkpt><trkpt lat="46.0849676" lon="12.1360087"><ele>316.0</ele><time>2026-05-01T16:36:28.262Z</time></trkpt><trkpt lat="46.0849461" lon="12.1361189"><ele>316.5</ele><time>2026-05-01T16:36:30.271Z</time></trkpt><trkpt lat="46.0849217" lon="12.1362314"><ele>317.0</ele><time>2026-05-01T16:36:32.261Z</time></trkpt><trkpt lat="46.0848981" lon="12.1363421"><ele>317.5</ele><time>2026-05-01T16:36:34.263Z</time></trkpt><trkpt lat="46.084878" lon="12.1364522"><ele>318.0</ele><time>2026-05-01T16:36:36.263Z</time></trkpt><trkpt lat="46.0848551" lon="12.136562"><ele>318.5</ele><time>2026-05-01T16:36:38.273Z</time></trkpt><trkpt lat="46.0848324" lon="12.136673"><ele>319.0</ele><time>2026-05-01T16:36:40.266Z</time></trkpt><trkpt lat="46.0848079" lon="12.1367834"><ele>319.3333333333333</ele><time>2026-05-01T16:36:42.266Z</time></trkpt><trkpt lat="46.0847882" lon="12.1368925"><ele>319.66666666666663</ele><time>2026-05-01T16:36:44.261Z</time></trkpt><trkpt lat="46.084764" lon="12.137002"><ele>320.0</ele><time>2026-05-01T16:36:46.264Z</time></trkpt><trkpt lat="46.0847428" lon="12.1371136"><ele>320.3333333333333</ele><time>2026-05-01T16:36:48.266Z</time></trkpt><trkpt lat="46.0847204" lon="12.1372221"><ele>320.6666666666667</ele><time>2026-05-01T16:36:50.279Z</time></trkpt><trkpt lat="46.0846999" lon="12.1373325"><ele>321.0</ele><time>2026-05-01T16:36:52.263Z</time></trkpt><trkpt lat="46.0846834" lon="12.1374469"><ele>321.1666666666667</ele><time>2026-05-01T16:36:54.28Z</time></trkpt><trkpt lat="46.0846664" lon="12.1375611"><ele>321.3333333333333</ele><time>2026-05-01T16:36:56.265Z</time></trkpt><trkpt lat="46.084648" lon="12.1376759"><ele>321.5</ele><time>2026-05-01T16:36:58.265Z</time></trkpt><trkpt lat="46.0846281" lon="12.1377892"><ele>321.66666666666663</ele><time>2026-05-01T16:37:00.262Z</time></trkpt><trkpt lat="46.0846063" lon="12.1378988"><ele>321.8333333333333</ele><time>2026-05-01T16:37:02.266Z</time></trkpt><trkpt lat="46.0845875" lon="12.1380098"><ele>322.0</ele><time>2026-05-01T16:37:04.269Z</time></trkpt><trkpt lat="46.0845666" lon="12.1381214"><ele>322.16666666666663</ele><time>2026-05-01T16:37:06.265Z</time></trkpt><trkpt lat="46.084547" lon="12.1382307"><ele>322.3333333333333</ele><time>2026-05-01T16:37:08.283Z</time></trkpt><trkpt lat="46.0845294" lon="12.1383407"><ele>322.5</ele><time>2026-05-01T16:37:10.283Z</time></trkpt><trkpt lat="46.0845112" lon="12.1384535"><ele>322.6666666666667</ele><time>2026-05-01T16:37:12.272Z</time></trkpt><trkpt lat="46.0844899" lon="12.1385678"><ele>322.83333333333337</ele><time>2026-05-01T16:37:14.267Z</time></trkpt><trkpt lat="46.0844703" lon="12.1386836"><ele>323.0</ele><time>2026-05-01T16:37:16.272Z</time></trkpt><trkpt lat="46.0844487" lon="12.1387985"><ele>323.0</ele><time>2026-05-01T16:37:18.273Z</time></trkpt><trkpt lat="46.0844263" lon="12.138912"><ele>323.0</ele><time>2026-05-01T16:37:20.27Z</time></trkpt><trkpt lat="46.0844055" lon="12.1390284"><ele>323.0</ele><time>2026-05-01T16:37:22.268Z</time></trkpt><trkpt lat="46.0843871" lon="12.139144"><ele>323.0</ele><time>2026-05-01T16:37:24.261Z</time></trkpt><trkpt lat="46.0843693" lon="12.1392595"><ele>323.0</ele><time>2026-05-01T16:37:26.262Z</time></trkpt><trkpt lat="46.0843551" lon="12.1393772"><ele>323.0</ele><time>2026-05-01T16:37:28.274Z</time></trkpt><trkpt lat="46.0843377" lon="12.1394934"><ele>323.1666666666667</ele><time>2026-05-01T16:37:30.264Z</time></trkpt><trkpt lat="46.0843269" lon="12.1396112"><ele>323.33333333333337</ele><time>2026-05-01T16:37:32.269Z</time></trkpt><trkpt lat="46.0843186" lon="12.1397309"><ele>323.5</ele><time>2026-05-01T16:37:34.278Z</time></trkpt><trkpt lat="46.084322" lon="12.1398525"><ele>323.6666666666667</ele><time>2026-05-01T16:37:36.268Z</time></trkpt><trkpt lat="46.0843165" lon="12.1399736"><ele>323.8333333333333</ele><time>2026-05-01T16:37:38.267Z</time></trkpt><trkpt lat="46.0843129" lon="12.1400978"><ele>324.0</ele><time>2026-05-01T16:37:40.267Z</time></trkpt><trkpt lat="46.0843108" lon="12.1402196"><ele>324.0</ele><time>2026-05-01T16:37:42.275Z</time></trkpt><trkpt lat="46.0843039" lon="12.1403437"><ele>324.0</ele><time>2026-05-01T16:37:44.268Z</time></trkpt><trkpt lat="46.0842894" lon="12.14047"><ele>324.0</ele><time>2026-05-01T16:37:46.263Z</time></trkpt><trkpt lat="46.0842591" lon="12.1405927"><ele>324.0</ele><time>2026-05-01T16:37:48.277Z</time></trkpt><trkpt lat="46.0842301" lon="12.1407142"><ele>324.0</ele><time>2026-05-01T16:37:50.266Z</time></trkpt><trkpt lat="46.0841928" lon="12.1408306"><ele>324.0</ele><time>2026-05-01T16:37:52.264Z</time></trkpt><trkpt lat="46.0841584" lon="12.1409485"><ele>324.1666666666667</ele><time>2026-05-01T16:37:54.278Z</time></trkpt><trkpt lat="46.084117" lon="12.1410504"><ele>324.3333333333333</ele><time>2026-05-01T16:37:56.267Z</time></trkpt><trkpt lat="46.0840763" lon="12.1411353"><ele>324.5</ele><time>2026-05-01T16:37:58.264Z</time></trkpt><trkpt lat="46.0840311" lon="12.1412075"><ele>324.66666666666663</ele><time>2026-05-01T16:38:00.271Z</time></trkpt><trkpt lat="46.0839768" lon="12.1412842"><ele>324.8333333333333</ele><time>2026-05-01T16:38:02.256Z</time></trkpt><trkpt lat="46.0839112" lon="12.1413688"><ele>325.0</ele><time>2026-05-01T16:38:04.261Z</time></trkpt><trkpt lat="46.0838379" lon="12.1414836"><ele>325.8333333333333</ele><time>2026-05-01T16:38:06.258Z</time></trkpt><trkpt lat="46.083793" lon="12.1415572"><ele>326.66666666666663</ele><time>2026-05-01T16:38:07.253Z</time></trkpt><trkpt lat="46.0837492" lon="12.1416294"><ele>327.5</ele><time>2026-05-01T16:38:08.262Z</time></trkpt><trkpt lat="46.0837004" lon="12.1417019"><ele>328.3333333333333</ele><time>2026-05-01T16:38:09.27Z</time></trkpt><trkpt lat="46.0836504" lon="12.1417808"><ele>329.1666666666667</ele><time>2026-05-01T16:38:10.271Z</time></trkpt><trkpt lat="46.0836022" lon="12.1418433"><ele>330.0</ele><time>2026-05-01T16:38:11.269Z</time></trkpt><trkpt lat="46.0835306" lon="12.1419612"><ele>330.0</ele><time>2026-05-01T16:38:13.266Z</time></trkpt><trkpt lat="46.0834798" lon="12.142035"><ele>330.0</ele><time>2026-05-01T16:38:15.266Z</time></trkpt><trkpt lat="46.0834337" lon="12.1421016"><ele>330.0</ele><time>2026-05-01T16:38:17.262Z</time></trkpt><trkpt lat="46.0833762" lon="12.1421912"><ele>330.0</ele><time>2026-05-01T16:38:20.272Z</time></trkpt><trkpt lat="46.083318" lon="12.1422781"><ele>330.0</ele><time>2026-05-01T16:38:23.264Z</time></trkpt><trkpt lat="46.0832682" lon="12.1423591"><ele>330.0</ele><time>2026-05-01T16:38:26.26Z</time></trkpt><trkpt lat="46.0832201" lon="12.1424412"><ele>330.5</ele><time>2026-05-01T16:38:29.266Z</time></trkpt><trkpt lat="46.0831724" lon="12.1425169"><ele>331.0</ele><time>2026-05-01T16:38:32.267Z</time></trkpt><trkpt lat="46.0831221" lon="12.1425966"><ele>331.5</ele><time>2026-05-01T16:38:35.27Z</time></trkpt><trkpt lat="46.0830577" lon="12.1426688"><ele>332.0</ele><time>2026-05-01T16:38:38.338Z</time></trkpt><trkpt lat="46.0829942" lon="12.1427505"><ele>332.5</ele><time>2026-05-01T16:38:41.298Z</time></trkpt><trkpt lat="46.082932" lon="12.1428423"><ele>333.0</ele><time>2026-05-01T16:38:44.276Z</time></trkpt><trkpt lat="46.0828825" lon="12.1429104"><ele>333.0</ele><time>2026-05-01T16:38:46.272Z</time></trkpt><trkpt lat="46.0828442" lon="12.1429872"><ele>333.0</ele><time>2026-05-01T16:38:48.268Z</time></trkpt><trkpt lat="46.082811" lon="12.1430747"><ele>333.0</ele><time>2026-05-01T16:38:50.271Z</time></trkpt><trkpt lat="46.082776" lon="12.143158"><ele>333.0</ele><time>2026-05-01T16:38:52.279Z</time></trkpt><trkpt lat="46.0827418" lon="12.1432451"><ele>333.0</ele><time>2026-05-01T16:38:54.264Z</time></trkpt><trkpt lat="46.0827121" lon="12.1433346"><ele>333.0</ele><time>2026-05-01T16:38:56.267Z</time></trkpt><trkpt lat="46.0826942" lon="12.1434271"><ele>333.0</ele><time>2026-05-01T16:38:58.272Z</time></trkpt><trkpt lat="46.0826899" lon="12.1435228"><ele>333.0</ele><time>2026-05-01T16:39:00.265Z</time></trkpt><trkpt lat="46.0826953" lon="12.143615"><ele>333.0</ele><time>2026-05-01T16:39:02.267Z</time></trkpt><trkpt lat="46.0827218" lon="12.143703"><ele>333.0</ele><time>2026-05-01T16:39:04.267Z</time></trkpt><trkpt lat="46.0827505" lon="12.1437959"><ele>333.0</ele><time>2026-05-01T16:39:06.265Z</time></trkpt><trkpt lat="46.0827848" lon="12.1438869"><ele>333.0</ele><time>2026-05-01T16:39:08.274Z</time></trkpt><trkpt lat="46.0828107" lon="12.1439763"><ele>333.0</ele><time>2026-05-01T16:39:10.271Z</time></trkpt><trkpt lat="46.0828083" lon="12.1440716"><ele>333.0</ele><time>2026-05-01T16:39:12.261Z</time></trkpt><trkpt lat="46.0827994" lon="12.1441726"><ele>332.8571428571429</ele><time>2026-05-01T16:39:14.266Z</time></trkpt><trkpt lat="46.0827904" lon="12.1442777"><ele>332.71428571428567</ele><time>2026-05-01T16:39:16.268Z</time></trkpt><trkpt lat="46.0827796" lon="12.1443811"><ele>332.57142857142856</ele><time>2026-05-01T16:39:18.259Z</time></trkpt><trkpt lat="46.0827669" lon="12.1444837"><ele>332.42857142857144</ele><time>2026-05-01T16:39:20.268Z</time></trkpt><trkpt lat="46.0827542" lon="12.1445911"><ele>332.28571428571433</ele><time>2026-05-01T16:39:22.266Z</time></trkpt><trkpt lat="46.0827388" lon="12.144697"><ele>332.1428571428571</ele><time>2026-05-01T16:39:24.268Z</time></trkpt><trkpt lat="46.0827267" lon="12.1448044"><ele>332.0</ele><time>2026-05-01T16:39:26.27Z</time></trkpt><trkpt lat="46.0827127" lon="12.1449104"><ele>332.2857142857143</ele><time>2026-05-01T16:39:28.265Z</time></trkpt><trkpt lat="46.082692" lon="12.1450175"><ele>332.5714285714286</ele><time>2026-05-01T16:39:30.268Z</time></trkpt><trkpt lat="46.0826683" lon="12.1451271"><ele>332.8571428571429</ele><time>2026-05-01T16:39:32.256Z</time></trkpt><trkpt lat="46.0826549" lon="12.1452397"><ele>333.1428571428571</ele><time>2026-05-01T16:39:34.266Z</time></trkpt><trkpt lat="46.0826508" lon="12.1453393"><ele>333.42857142857144</ele><time>2026-05-01T16:39:36.272Z</time></trkpt><trkpt lat="46.082637" lon="12.1454298"><ele>333.7142857142857</ele><time>2026-05-01T16:39:38.269Z</time></trkpt><trkpt lat="46.0826088" lon="12.1455131"><ele>334.0</ele><time>2026-05-01T16:39:40.262Z</time></trkpt><trkpt lat="46.0826081" lon="12.1456169"><ele>334.3333333333333</ele><time>2026-05-01T16:39:42.265Z</time></trkpt><trkpt lat="46.0826052" lon="12.1457264"><ele>334.66666666666663</ele><time>2026-05-01T16:39:44.268Z</time></trkpt><trkpt lat="46.0825814" lon="12.1458364"><ele>335.0</ele><time>2026-05-01T16:39:46.264Z</time></trkpt><trkpt lat="46.0825429" lon="12.1459383"><ele>335.3333333333333</ele><time>2026-05-01T16:39:48.259Z</time></trkpt><trkpt lat="46.0824931" lon="12.1460249"><ele>335.6666666666667</ele><time>2026-05-01T16:39:50.264Z</time></trkpt><trkpt lat="46.0824377" lon="12.1461084"><ele>336.0</ele><time>2026-05-01T16:39:52.265Z</time></trkpt><trkpt lat="46.0823806" lon="12.1461887"><ele>336.0</ele><time>2026-05-01T16:39:54.266Z</time></trkpt><trkpt lat="46.082329" lon="12.1462732"><ele>336.0</ele><time>2026-05-01T16:39:56.262Z</time></trkpt><trkpt lat="46.0822778" lon="12.1463557"><ele>336.0</ele><time>2026-05-01T16:39:58.272Z</time></trkpt><trkpt lat="46.0822257" lon="12.1464353"><ele>336.0</ele><time>2026-05-01T16:40:00.275Z</time></trkpt><trkpt lat="46.0821685" lon="12.1465117"><ele>336.0</ele><time>2026-05-01T16:40:02.267Z</time></trkpt><trkpt lat="46.0821156" lon="12.1465932"><ele>336.0</ele><time>2026-05-01T16:40:04.262Z</time></trkpt><trkpt lat="46.0820617" lon="12.1466708"><ele>336.0</ele><time>2026-05-01T16:40:06.266Z</time></trkpt><trkpt lat="46.0820024" lon="12.1467464"><ele>336.0</ele><time>2026-05-01T16:40:08.269Z</time></trkpt><trkpt lat="46.0819396" lon="12.1468114"><ele>336.0</ele><time>2026-05-01T16:40:10.27Z</time></trkpt><trkpt lat="46.0818841" lon="12.1468862"><ele>336.0</ele><time>2026-05-01T16:40:12.264Z</time></trkpt><trkpt lat="46.0818306" lon="12.1469647"><ele>336.0</ele><time>2026-05-01T16:40:14.262Z</time></trkpt><trkpt lat="46.0817773" lon="12.1470439"><ele>336.0</ele><time>2026-05-01T16:40:16.283Z</time></trkpt><trkpt lat="46.0817245" lon="12.1471204"><ele>336.0</ele><time>2026-05-01T16:40:18.258Z</time></trkpt><trkpt lat="46.0816702" lon="12.1471949"><ele>336.0</ele><time>2026-05-01T16:40:20.267Z</time></trkpt><trkpt lat="46.0816145" lon="12.1472639"><ele>336.0</ele><time>2026-05-01T16:40:22.272Z</time></trkpt><trkpt lat="46.0815608" lon="12.1473352"><ele>336.0</ele><time>2026-05-01T16:40:24.284Z</time></trkpt><trkpt lat="46.0815048" lon="12.1474078"><ele>336.0</ele><time>2026-05-01T16:40:26.268Z</time></trkpt><trkpt lat="46.0814397" lon="12.1474607"><ele>336.0</ele><time>2026-05-01T16:40:28.274Z</time></trkpt><trkpt lat="46.081375" lon="12.1474921"><ele>336.0</ele><time>2026-05-01T16:40:30.266Z</time></trkpt><trkpt lat="46.0812906" lon="12.1475261"><ele>336.6666666666667</ele><time>2026-05-01T16:40:33.273Z</time></trkpt><trkpt lat="46.0812305" lon="12.1475709"><ele>337.3333333333333</ele><time>2026-05-01T16:40:35.268Z</time></trkpt><trkpt lat="46.0812145" lon="12.1476658"><ele>338.0</ele><time>2026-05-01T16:40:37.263Z</time></trkpt><trkpt lat="46.0812559" lon="12.1477593"><ele>338.66666666666663</ele><time>2026-05-01T16:40:39.263Z</time></trkpt><trkpt lat="46.0813096" lon="12.1478545"><ele>339.3333333333333</ele><time>2026-05-01T16:40:41.271Z</time></trkpt><trkpt lat="46.081359" lon="12.1479648"><ele>340.0</ele><time>2026-05-01T16:40:43.274Z</time></trkpt><trkpt lat="46.0814071" lon="12.148086"><ele>340.0</ele><time>2026-05-01T16:40:45.264Z</time></trkpt><trkpt lat="46.0814567" lon="12.148197"><ele>340.0</ele><time>2026-05-01T16:40:47.259Z</time></trkpt><trkpt lat="46.0814979" lon="12.1483082"><ele>340.0</ele><time>2026-05-01T16:40:49.267Z</time></trkpt><trkpt lat="46.0815438" lon="12.1484127"><ele>340.0</ele><time>2026-05-01T16:40:51.264Z</time></trkpt><trkpt lat="46.081583" lon="12.1485206"><ele>340.0</ele><time>2026-05-01T16:40:53.26Z</time></trkpt><trkpt lat="46.0816285" lon="12.1486313"><ele>340.0</ele><time>2026-05-01T16:40:55.282Z</time></trkpt><trkpt lat="46.0816802" lon="12.1487492"><ele>340.0</ele><time>2026-05-01T16:40:57.264Z</time></trkpt><trkpt lat="46.0817266" lon="12.1488662"><ele>340.0</ele><time>2026-05-01T16:40:59.26Z</time></trkpt><trkpt lat="46.0817745" lon="12.1489849"><ele>340.0</ele><time>2026-05-01T16:41:01.257Z</time></trkpt><trkpt lat="46.0818206" lon="12.1491049"><ele>340.0</ele><time>2026-05-01T16:41:03.256Z</time></trkpt><trkpt lat="46.0818622" lon="12.1492245"><ele>340.0</ele><time>2026-05-01T16:41:05.259Z</time></trkpt><trkpt lat="46.0819067" lon="12.1493389"><ele>340.2</ele><time>2026-05-01T16:41:07.269Z</time></trkpt><trkpt lat="46.0819552" lon="12.1494585"><ele>340.4</ele><time>2026-05-01T16:41:09.265Z</time></trkpt><trkpt lat="46.0820057" lon="12.1495771"><ele>340.6</ele><time>2026-05-01T16:41:11.266Z</time></trkpt><trkpt lat="46.0820503" lon="12.1496897"><ele>340.8</ele><time>2026-05-01T16:41:13.279Z</time></trkpt><trkpt lat="46.0821002" lon="12.1498239"><ele>341.0</ele><time>2026-05-01T16:41:15.261Z</time></trkpt><trkpt lat="46.0821524" lon="12.1499537"><ele>341.0</ele><time>2026-05-01T16:41:17.266Z</time></trkpt><trkpt lat="46.0822124" lon="12.1500901"><ele>341.0</ele><time>2026-05-01T16:41:19.266Z</time></trkpt><trkpt lat="46.0822708" lon="12.150235"><ele>341.0</ele><time>2026-05-01T16:41:21.264Z</time></trkpt><trkpt lat="46.0823322" lon="12.1503779"><ele>341.0</ele><time>2026-05-01T16:41:23.261Z</time></trkpt><trkpt lat="46.0823943" lon="12.1505222"><ele>340.0</ele><time>2026-05-01T16:41:25.264Z</time></trkpt><trkpt lat="46.0824626" lon="12.150658"><ele>339.0</ele><time>2026-05-01T16:41:27.257Z</time></trkpt><trkpt lat="46.0825392" lon="12.1507924"><ele>338.0</ele><time>2026-05-01T16:41:29.261Z</time></trkpt><trkpt lat="46.0826224" lon="12.1509154"><ele>337.0</ele><time>2026-05-01T16:41:31.285Z</time></trkpt><trkpt lat="46.0827039" lon="12.1510327"><ele>337.0</ele><time>2026-05-01T16:41:33.265Z</time></trkpt><trkpt lat="46.0827851" lon="12.1511428"><ele>337.0</ele><time>2026-05-01T16:41:35.265Z</time></trkpt><trkpt lat="46.0828638" lon="12.1512457"><ele>337.0</ele><time>2026-05-01T16:41:37.265Z</time></trkpt><trkpt lat="46.0829465" lon="12.1513484"><ele>337.0</ele><time>2026-05-01T16:41:39.266Z</time></trkpt><trkpt lat="46.0830299" lon="12.1514419"><ele>337.0</ele><time>2026-05-01T16:41:41.267Z</time></trkpt><trkpt lat="46.0831184" lon="12.1515414"><ele>336.8</ele><time>2026-05-01T16:41:43.265Z</time></trkpt><trkpt lat="46.0832034" lon="12.1516477"><ele>336.6</ele><time>2026-05-01T16:41:45.267Z</time></trkpt><trkpt lat="46.0832876" lon="12.1517519"><ele>336.40000000000003</ele><time>2026-05-01T16:41:47.263Z</time></trkpt><trkpt lat="46.0833761" lon="12.1518535"><ele>336.20000000000005</ele><time>2026-05-01T16:41:49.264Z</time></trkpt><trkpt lat="46.0834615" lon="12.1519542"><ele>336.0</ele><time>2026-05-01T16:41:51.271Z</time></trkpt><trkpt lat="46.0835444" lon="12.1520503"><ele>334.8</ele><time>2026-05-01T16:41:53.27Z</time></trkpt><trkpt lat="46.0836229" lon="12.1521516"><ele>333.6</ele><time>2026-05-01T16:41:55.266Z</time></trkpt><trkpt lat="46.0837042" lon="12.1522492"><ele>332.4</ele><time>2026-05-01T16:41:57.28Z</time></trkpt><trkpt lat="46.0837899" lon="12.1523473"><ele>331.2</ele><time>2026-05-01T16:41:59.268Z</time></trkpt><trkpt lat="46.083875" lon="12.1524508"><ele>330.0</ele><time>2026-05-01T16:42:01.271Z</time></trkpt><trkpt lat="46.0839556" lon="12.1525585"><ele>330.0</ele><time>2026-05-01T16:42:03.269Z</time></trkpt><trkpt lat="46.0840368" lon="12.1526621"><ele>330.0</ele><time>2026-05-01T16:42:05.266Z</time></trkpt><trkpt lat="46.0841217" lon="12.1527671"><ele>330.0</ele><time>2026-05-01T16:42:07.265Z</time></trkpt><trkpt lat="46.0842093" lon="12.1528717"><ele>330.0</ele><time>2026-05-01T16:42:09.267Z</time></trkpt><trkpt lat="46.0842972" lon="12.1529809"><ele>330.25</ele><time>2026-05-01T16:42:11.266Z</time></trkpt><trkpt lat="46.0843789" lon="12.1530952"><ele>330.5</ele><time>2026-05-01T16:42:13.268Z</time></trkpt><trkpt lat="46.0844562" lon="12.1532209"><ele>330.75</ele><time>2026-05-01T16:42:15.269Z</time></trkpt><trkpt lat="46.0845216" lon="12.1533566"><ele>331.0</ele><time>2026-05-01T16:42:17.258Z</time></trkpt><trkpt lat="46.0845878" lon="12.1534816"><ele>331.6</ele><time>2026-05-01T16:42:19.269Z</time></trkpt><trkpt lat="46.0846545" lon="12.1536167"><ele>332.20000000000005</ele><time>2026-05-01T16:42:21.267Z</time></trkpt><trkpt lat="46.0847141" lon="12.1537482"><ele>332.79999999999995</ele><time>2026-05-01T16:42:23.268Z</time></trkpt><trkpt lat="46.0847744" lon="12.1538782"><ele>333.4</ele><time>2026-05-01T16:42:25.256Z</time></trkpt><trkpt lat="46.0848362" lon="12.154003"><ele>334.0</ele><time>2026-05-01T16:42:27.265Z</time></trkpt><trkpt lat="46.084893" lon="12.1541251"><ele>335.2</ele><time>2026-05-01T16:42:29.264Z</time></trkpt><trkpt lat="46.0849532" lon="12.154243"><ele>336.4</ele><time>2026-05-01T16:42:31.267Z</time></trkpt><trkpt lat="46.0850088" lon="12.154361"><ele>337.6</ele><time>2026-05-01T16:42:33.267Z</time></trkpt><trkpt lat="46.0850637" lon="12.1544826"><ele>338.8</ele><time>2026-05-01T16:42:35.267Z</time></trkpt><trkpt lat="46.0851182" lon="12.1546019"><ele>340.0</ele><time>2026-05-01T16:42:37.275Z</time></trkpt><trkpt lat="46.0851782" lon="12.1547232"><ele>340.0</ele><time>2026-05-01T16:42:39.308Z</time></trkpt><trkpt lat="46.0852374" lon="12.1548484"><ele>340.0</ele><time>2026-05-01T16:42:41.269Z</time></trkpt><trkpt lat="46.0852906" lon="12.1549607"><ele>340.0</ele><time>2026-05-01T16:42:43.311Z</time></trkpt><trkpt lat="46.0853395" lon="12.1550803"><ele>340.0</ele><time>2026-05-01T16:42:45.265Z</time></trkpt><trkpt lat="46.0853967" lon="12.155198"><ele>340.0</ele><time>2026-05-01T16:42:47.265Z</time></trkpt><trkpt lat="46.0854485" lon="12.1553191"><ele>340.6</ele><time>2026-05-01T16:42:49.26Z</time></trkpt><trkpt lat="46.0854953" lon="12.1554356"><ele>341.2</ele><time>2026-05-01T16:42:51.264Z</time></trkpt><trkpt lat="46.085548" lon="12.1555482"><ele>341.79999999999995</ele><time>2026-05-01T16:42:53.264Z</time></trkpt><trkpt lat="46.0855947" lon="12.1556574"><ele>342.4</ele><time>2026-05-01T16:42:55.267Z</time></trkpt><trkpt lat="46.0856495" lon="12.1557757"><ele>343.0</ele><time>2026-05-01T16:42:57.269Z</time></trkpt><trkpt lat="46.085702" lon="12.1558903"><ele>342.79999999999995</ele><time>2026-05-01T16:42:59.308Z</time></trkpt><trkpt lat="46.0857562" lon="12.1560074"><ele>342.6</ele><time>2026-05-01T16:43:01.275Z</time></trkpt><trkpt lat="46.0858134" lon="12.1561136"><ele>342.4</ele><time>2026-05-01T16:43:03.281Z</time></trkpt><trkpt lat="46.0858775" lon="12.1562309"><ele>342.20000000000005</ele><time>2026-05-01T16:43:05.277Z</time></trkpt><trkpt lat="46.0859331" lon="12.1563486"><ele>342.0</ele><time>2026-05-01T16:43:07.279Z</time></trkpt><trkpt lat="46.0859839" lon="12.1564696"><ele>341.8</ele><time>2026-05-01T16:43:09.314Z</time></trkpt><trkpt lat="46.0860385" lon="12.1565908"><ele>341.6</ele><time>2026-05-01T16:43:11.266Z</time></trkpt><trkpt lat="46.0861015" lon="12.1567116"><ele>341.40000000000003</ele><time>2026-05-01T16:43:13.29Z</time></trkpt><trkpt lat="46.0861553" lon="12.156843"><ele>341.20000000000005</ele><time>2026-05-01T16:43:15.305Z</time></trkpt><trkpt lat="46.0862144" lon="12.1569739"><ele>341.0</ele><time>2026-05-01T16:43:17.273Z</time></trkpt><trkpt lat="46.0862712" lon="12.1571064"><ele>341.0</ele><time>2026-05-01T16:43:19.269Z</time></trkpt><trkpt lat="46.0863277" lon="12.1572313"><ele>341.0</ele><time>2026-05-01T16:43:21.266Z</time></trkpt><trkpt lat="46.0863817" lon="12.1573536"><ele>341.0</ele><time>2026-05-01T16:43:23.305Z</time></trkpt><trkpt lat="46.0864338" lon="12.1574822"><ele>341.0</ele><time>2026-05-01T16:43:25.313Z</time></trkpt><trkpt lat="46.0864912" lon="12.1576087"><ele>341.0</ele><time>2026-05-01T16:43:27.269Z</time></trkpt><trkpt lat="46.086549" lon="12.1577358"><ele>340.4</ele><time>2026-05-01T16:43:29.304Z</time></trkpt><trkpt lat="46.0866123" lon="12.1578595"><ele>339.8</ele><time>2026-05-01T16:43:31.266Z</time></trkpt><trkpt lat="46.0866748" lon="12.1579876"><ele>339.2</ele><time>2026-05-01T16:43:33.31Z</time></trkpt><trkpt lat="46.0867276" lon="12.1581272"><ele>338.59999999999997</ele><time>2026-05-01T16:43:35.304Z</time></trkpt><trkpt lat="46.0867702" lon="12.1582727"><ele>338.0</ele><time>2026-05-01T16:43:37.262Z</time></trkpt><trkpt lat="46.0868077" lon="12.158419"><ele>338.0</ele><time>2026-05-01T16:43:39.329Z</time></trkpt><trkpt lat="46.086847" lon="12.1585584"><ele>338.0</ele><time>2026-05-01T16:43:41.268Z</time></trkpt><trkpt lat="46.0868792" lon="12.1587036"><ele>338.0</ele><time>2026-05-01T16:43:43.311Z</time></trkpt><trkpt lat="46.0869194" lon="12.1588494"><ele>338.0</ele><time>2026-05-01T16:43:45.325Z</time></trkpt><trkpt lat="46.0869508" lon="12.1589834"><ele>338.0</ele><time>2026-05-01T16:43:47.259Z</time></trkpt><trkpt lat="46.0869878" lon="12.1591131"><ele>337.79999999999995</ele><time>2026-05-01T16:43:49.32Z</time></trkpt><trkpt lat="46.0870287" lon="12.1592424"><ele>337.6</ele><time>2026-05-01T16:43:51.265Z</time></trkpt><trkpt lat="46.0870706" lon="12.1593667"><ele>337.4</ele><time>2026-05-01T16:43:53.315Z</time></trkpt><trkpt lat="46.0871122" lon="12.1594895"><ele>337.20000000000005</ele><time>2026-05-01T16:43:55.312Z</time></trkpt><trkpt lat="46.0871636" lon="12.1596051"><ele>337.0</ele><time>2026-05-01T16:43:57.27Z</time></trkpt><trkpt lat="46.0872248" lon="12.1597069"><ele>337.0</ele><time>2026-05-01T16:43:59.309Z</time></trkpt><trkpt lat="46.087284" lon="12.1597995"><ele>337.0</ele><time>2026-05-01T16:44:01.27Z</time></trkpt><trkpt lat="46.087343" lon="12.1598848"><ele>337.0</ele><time>2026-05-01T16:44:03.321Z</time></trkpt><trkpt lat="46.0874179" lon="12.1599685"><ele>337.0</ele><time>2026-05-01T16:44:05.274Z</time></trkpt><trkpt lat="46.0874978" lon="12.1600544"><ele>337.0</ele><time>2026-05-01T16:44:07.274Z</time></trkpt><trkpt lat="46.0875809" lon="12.1601324"><ele>336.0</ele><time>2026-05-01T16:44:09.275Z</time></trkpt><trkpt lat="46.0876691" lon="12.1601993"><ele>335.0</ele><time>2026-05-01T16:44:11.273Z</time></trkpt><trkpt lat="46.0877642" lon="12.1602592"><ele>334.0</ele><time>2026-05-01T16:44:13.317Z</time></trkpt><trkpt lat="46.0878577" lon="12.1603016"><ele>333.0</ele><time>2026-05-01T16:44:15.321Z</time></trkpt><trkpt lat="46.0879582" lon="12.1603376"><ele>332.0</ele><time>2026-05-01T16:44:17.267Z</time></trkpt><trkpt lat="46.0880526" lon="12.1603671"><ele>332.0</ele><time>2026-05-01T16:44:19.311Z</time></trkpt><trkpt lat="46.0881524" lon="12.1603886"><ele>332.0</ele><time>2026-05-01T16:44:21.271Z</time></trkpt><trkpt lat="46.088252" lon="12.1604097"><ele>332.0</ele><time>2026-05-01T16:44:23.307Z</time></trkpt><trkpt lat="46.0883503" lon="12.1604349"><ele>332.0</ele><time>2026-05-01T16:44:25.267Z</time></trkpt><trkpt lat="46.0884444" lon="12.1604665"><ele>332.0</ele><time>2026-05-01T16:44:27.259Z</time></trkpt><trkpt lat="46.0885426" lon="12.1604915"><ele>332.20000000000005</ele><time>2026-05-01T16:44:29.266Z</time></trkpt><trkpt lat="46.0886293" lon="12.1605148"><ele>332.4</ele><time>2026-05-01T16:44:31.267Z</time></trkpt><trkpt lat="46.0887253" lon="12.1605463"><ele>332.6</ele><time>2026-05-01T16:44:33.266Z</time></trkpt><trkpt lat="46.0888116" lon="12.1605858"><ele>332.79999999999995</ele><time>2026-05-01T16:44:35.263Z</time></trkpt><trkpt lat="46.0888961" lon="12.1606427"><ele>333.0</ele><time>2026-05-01T16:44:37.261Z</time></trkpt><trkpt lat="46.0889757" lon="12.1607197"><ele>333.0</ele><time>2026-05-01T16:44:39.267Z</time></trkpt><trkpt lat="46.0890507" lon="12.1608009"><ele>333.0</ele><time>2026-05-01T16:44:41.265Z</time></trkpt><trkpt lat="46.0891196" lon="12.1608935"><ele>333.0</ele><time>2026-05-01T16:44:43.259Z</time></trkpt><trkpt lat="46.08918" lon="12.1609998"><ele>333.0</ele><time>2026-05-01T16:44:45.255Z</time></trkpt><trkpt lat="46.0892263" lon="12.1611144"><ele>333.0</ele><time>2026-05-01T16:44:47.261Z</time></trkpt><trkpt lat="46.0892648" lon="12.1612371"><ele>333.6666666666667</ele><time>2026-05-01T16:44:49.266Z</time></trkpt><trkpt lat="46.089294" lon="12.1613656"><ele>334.3333333333333</ele><time>2026-05-01T16:44:51.273Z</time></trkpt><trkpt lat="46.0893099" lon="12.1614942"><ele>335.0</ele><time>2026-05-01T16:44:53.268Z</time></trkpt><trkpt lat="46.0893211" lon="12.1616186"><ele>335.66666666666663</ele><time>2026-05-01T16:44:55.265Z</time></trkpt><trkpt lat="46.0893339" lon="12.1617329"><ele>336.3333333333333</ele><time>2026-05-01T16:44:57.319Z</time></trkpt><trkpt lat="46.0893462" lon="12.1618557"><ele>337.0</ele><time>2026-05-01T16:44:59.275Z</time></trkpt><trkpt lat="46.0893552" lon="12.1619598"><ele>337.0</ele><time>2026-05-01T16:45:01.266Z</time></trkpt><trkpt lat="46.0893749" lon="12.1621026"><ele>337.0</ele><time>2026-05-01T16:45:03.257Z</time></trkpt><trkpt lat="46.0893927" lon="12.1622406"><ele>337.0</ele><time>2026-05-01T16:45:05.281Z</time></trkpt><trkpt lat="46.0893974" lon="12.1623825"><ele>337.0</ele><time>2026-05-01T16:45:07.266Z</time></trkpt><trkpt lat="46.0893948" lon="12.1625213"><ele>337.0</ele><time>2026-05-01T16:45:09.258Z</time></trkpt><trkpt lat="46.0893691" lon="12.1626562"><ele>336.8</ele><time>2026-05-01T16:45:11.261Z</time></trkpt><trkpt lat="46.0893319" lon="12.1627871"><ele>336.6</ele><time>2026-05-01T16:45:13.263Z</time></trkpt><trkpt lat="46.0893093" lon="12.1629103"><ele>336.40000000000003</ele><time>2026-05-01T16:45:15.265Z</time></trkpt><trkpt lat="46.0893132" lon="12.1630452"><ele>336.20000000000005</ele><time>2026-05-01T16:45:17.257Z</time></trkpt><trkpt lat="46.0893383" lon="12.163179"><ele>336.0</ele><time>2026-05-01T16:45:19.264Z</time></trkpt><trkpt lat="46.089381" lon="12.1632983"><ele>335.8333333333333</ele><time>2026-05-01T16:45:21.273Z</time></trkpt><trkpt lat="46.0894458" lon="12.163396"><ele>335.6666666666667</ele><time>2026-05-01T16:45:23.27Z</time></trkpt><trkpt lat="46.0895121" lon="12.1634647"><ele>335.5</ele><time>2026-05-01T16:45:25.261Z</time></trkpt><trkpt lat="46.0895839" lon="12.1635219"><ele>335.33333333333337</ele><time>2026-05-01T16:45:27.265Z</time></trkpt><trkpt lat="46.0896636" lon="12.1635436"><ele>335.1666666666667</ele><time>2026-05-01T16:45:29.266Z</time></trkpt><trkpt lat="46.089743" lon="12.1635424"><ele>335.0</ele><time>2026-05-01T16:45:31.259Z</time></trkpt><trkpt lat="46.089818" lon="12.1635233"><ele>334.99999999999994</ele><time>2026-05-01T16:45:33.262Z</time></trkpt><trkpt lat="46.0898911" lon="12.1634965"><ele>335.0</ele><time>2026-05-01T16:45:35.261Z</time></trkpt><trkpt lat="46.089961" lon="12.1634653"><ele>335.0</ele><time>2026-05-01T16:45:37.26Z</time></trkpt><trkpt lat="46.0900334" lon="12.1634422"><ele>335.0</ele><time>2026-05-01T16:45:39.265Z</time></trkpt><trkpt lat="46.0901059" lon="12.163426"><ele>335.0</ele><time>2026-05-01T16:45:41.257Z</time></trkpt><trkpt lat="46.0901749" lon="12.163437"><ele>334.99999999999994</ele><time>2026-05-01T16:45:43.261Z</time></trkpt><trkpt lat="46.0902411" lon="12.1634772"><ele>335.0</ele><time>2026-05-01T16:45:45.259Z</time></trkpt><trkpt lat="46.0903025" lon="12.1635328"><ele>335.57142857142856</ele><time>2026-05-01T16:45:47.267Z</time></trkpt><trkpt lat="46.0903513" lon="12.1636027"><ele>336.1428571428571</ele><time>2026-05-01T16:45:49.265Z</time></trkpt><trkpt lat="46.090389" lon="12.1636886"><ele>336.71428571428567</ele><time>2026-05-01T16:45:51.265Z</time></trkpt><trkpt lat="46.0904246" lon="12.1637793"><ele>337.2857142857143</ele><time>2026-05-01T16:45:53.27Z</time></trkpt><trkpt lat="46.0904583" lon="12.1638707"><ele>337.8571428571429</ele><time>2026-05-01T16:45:55.268Z</time></trkpt><trkpt lat="46.0904953" lon="12.1639621"><ele>338.4285714285714</ele><time>2026-05-01T16:45:57.265Z</time></trkpt><trkpt lat="46.0905306" lon="12.1640569"><ele>339.0</ele><time>2026-05-01T16:45:59.255Z</time></trkpt><trkpt lat="46.0905694" lon="12.16415"><ele>339.0</ele><time>2026-05-01T16:46:01.268Z</time></trkpt><trkpt lat="46.090615" lon="12.1642415"><ele>339.0</ele><time>2026-05-01T16:46:03.26Z</time></trkpt><trkpt lat="46.0906619" lon="12.1643338"><ele>339.0</ele><time>2026-05-01T16:46:05.273Z</time></trkpt><trkpt lat="46.0907075" lon="12.1644288"><ele>339.0</ele><time>2026-05-01T16:46:07.268Z</time></trkpt><trkpt lat="46.090757" lon="12.1645203"><ele>339.0</ele><time>2026-05-01T16:46:09.261Z</time></trkpt><trkpt lat="46.0908048" lon="12.164614"><ele>339.0</ele><time>2026-05-01T16:46:11.266Z</time></trkpt><trkpt lat="46.0908591" lon="12.1647109"><ele>340.2</ele><time>2026-05-01T16:46:13.264Z</time></trkpt><trkpt lat="46.0909214" lon="12.16481"><ele>341.4</ele><time>2026-05-01T16:46:15.259Z</time></trkpt><trkpt lat="46.090971" lon="12.1649199"><ele>342.6</ele><time>2026-05-01T16:46:17.259Z</time></trkpt><trkpt lat="46.0910257" lon="12.1650183"><ele>343.8</ele><time>2026-05-01T16:46:19.263Z</time></trkpt><trkpt lat="46.091078" lon="12.1651213"><ele>345.0</ele><time>2026-05-01T16:46:21.262Z</time></trkpt><trkpt lat="46.0911345" lon="12.1652222"><ele>345.0</ele><time>2026-05-01T16:46:23.267Z</time></trkpt><trkpt lat="46.091188" lon="12.1653261"><ele>345.0</ele><time>2026-05-01T16:46:25.261Z</time></trkpt><trkpt lat="46.0912463" lon="12.1654245"><ele>345.0</ele><time>2026-05-01T16:46:27.275Z</time></trkpt><trkpt lat="46.0913043" lon="12.165521"><ele>345.0</ele><time>2026-05-01T16:46:29.266Z</time></trkpt><trkpt lat="46.0913598" lon="12.1656181"><ele>345.0</ele><time>2026-05-01T16:46:31.267Z</time></trkpt><trkpt lat="46.0914161" lon="12.1657147"><ele>345.0</ele><time>2026-05-01T16:46:33.262Z</time></trkpt><trkpt lat="46.0914737" lon="12.1658133"><ele>344.6</ele><time>2026-05-01T16:46:35.261Z</time></trkpt><trkpt lat="46.0915311" lon="12.1659148"><ele>344.2</ele><time>2026-05-01T16:46:37.26Z</time></trkpt><trkpt lat="46.0915965" lon="12.1660142"><ele>343.79999999999995</ele><time>2026-05-01T16:46:39.266Z</time></trkpt><trkpt lat="46.0916581" lon="12.1661125"><ele>343.4</ele><time>2026-05-01T16:46:41.261Z</time></trkpt><trkpt lat="46.0917225" lon="12.1662103"><ele>343.0</ele><time>2026-05-01T16:46:43.31Z</time></trkpt><trkpt lat="46.0917817" lon="12.166312"><ele>343.79999999999995</ele><time>2026-05-01T16:46:45.27Z</time></trkpt><trkpt lat="46.0918417" lon="12.1664132"><ele>344.6</ele><time>2026-05-01T16:46:47.271Z</time></trkpt><trkpt lat="46.0919043" lon="12.1665146"><ele>345.4</ele><time>2026-05-01T16:46:49.256Z</time></trkpt><trkpt lat="46.0919695" lon="12.16661"><ele>346.20000000000005</ele><time>2026-05-01T16:46:51.268Z</time></trkpt><trkpt lat="46.0920323" lon="12.1667067"><ele>347.0</ele><time>2026-05-01T16:46:53.269Z</time></trkpt><trkpt lat="46.0920942" lon="12.166807"><ele>347.0</ele><time>2026-05-01T16:46:55.263Z</time></trkpt><trkpt lat="46.0921566" lon="12.1669063"><ele>347.0</ele><time>2026-05-01T16:46:57.322Z</time></trkpt><trkpt lat="46.0922155" lon="12.1670095"><ele>347.0</ele><time>2026-05-01T16:46:59.314Z</time></trkpt><trkpt lat="46.0922792" lon="12.1671071"><ele>347.0</ele><time>2026-05-01T16:47:01.266Z</time></trkpt><trkpt lat="46.0923358" lon="12.1672089"><ele>347.0</ele><time>2026-05-01T16:47:03.265Z</time></trkpt><trkpt lat="46.0923981" lon="12.1673132"><ele>347.20000000000005</ele><time>2026-05-01T16:47:05.314Z</time></trkpt><trkpt lat="46.0924562" lon="12.1674133"><ele>347.4</ele><time>2026-05-01T16:47:07.275Z</time></trkpt><trkpt lat="46.0925155" lon="12.1675146"><ele>347.6</ele><time>2026-05-01T16:47:09.277Z</time></trkpt><trkpt lat="46.0925757" lon="12.1676195"><ele>347.79999999999995</ele><time>2026-05-01T16:47:11.271Z</time></trkpt><trkpt lat="46.0926382" lon="12.1677215"><ele>348.0</ele><time>2026-05-01T16:47:13.286Z</time></trkpt><trkpt lat="46.0926996" lon="12.1678235"><ele>348.0</ele><time>2026-05-01T16:47:15.261Z</time></trkpt><trkpt lat="46.0927658" lon="12.1679159"><ele>348.0</ele><time>2026-05-01T16:47:17.261Z</time></trkpt><trkpt lat="46.0928265" lon="12.1680139"><ele>348.0</ele><time>2026-05-01T16:47:19.264Z</time></trkpt><trkpt lat="46.0928887" lon="12.1681116"><ele>348.0</ele><time>2026-05-01T16:47:21.263Z</time></trkpt><trkpt lat="46.0929492" lon="12.1682081"><ele>348.0</ele><time>2026-05-01T16:47:23.277Z</time></trkpt><trkpt lat="46.0930095" lon="12.1683082"><ele>348.0</ele><time>2026-05-01T16:47:25.267Z</time></trkpt><trkpt lat="46.0930744" lon="12.1684096"><ele>348.0</ele><time>2026-05-01T16:47:27.257Z</time></trkpt><trkpt lat="46.093135" lon="12.1685126"><ele>348.0</ele><time>2026-05-01T16:47:29.261Z</time></trkpt><trkpt lat="46.0932011" lon="12.1686206"><ele>348.0</ele><time>2026-05-01T16:47:31.265Z</time></trkpt><trkpt lat="46.0932655" lon="12.1687258"><ele>348.0</ele><time>2026-05-01T16:47:33.269Z</time></trkpt><trkpt lat="46.0933329" lon="12.1688381"><ele>348.79999999999995</ele><time>2026-05-01T16:47:35.317Z</time></trkpt><trkpt lat="46.0934024" lon="12.16895"><ele>349.6</ele><time>2026-05-01T16:47:37.266Z</time></trkpt><trkpt lat="46.0934714" lon="12.1690611"><ele>350.4</ele><time>2026-05-01T16:47:39.262Z</time></trkpt><trkpt lat="46.0935424" lon="12.1691749"><ele>351.20000000000005</ele><time>2026-05-01T16:47:41.272Z</time></trkpt><trkpt lat="46.0936173" lon="12.1692928"><ele>352.0</ele><time>2026-05-01T16:47:43.268Z</time></trkpt><trkpt lat="46.0936906" lon="12.1694042"><ele>352.0</ele><time>2026-05-01T16:47:45.27Z</time></trkpt><trkpt lat="46.0937598" lon="12.1695251"><ele>352.0</ele><time>2026-05-01T16:47:47.32Z</time></trkpt><trkpt lat="46.0938249" lon="12.1696474"><ele>352.0</ele><time>2026-05-01T16:47:49.305Z</time></trkpt><trkpt lat="46.0938979" lon="12.1697682"><ele>352.0</ele><time>2026-05-01T16:47:51.26Z</time></trkpt><trkpt lat="46.0939761" lon="12.169888"><ele>352.0</ele><time>2026-05-01T16:47:53.268Z</time></trkpt><trkpt lat="46.0940552" lon="12.1700094"><ele>352.0</ele><time>2026-05-01T16:47:55.32Z</time></trkpt><trkpt lat="46.0941276" lon="12.1701372"><ele>352.0</ele><time>2026-05-01T16:47:57.271Z</time></trkpt><trkpt lat="46.0942084" lon="12.1702587"><ele>352.0</ele><time>2026-05-01T16:47:59.31Z</time></trkpt><trkpt lat="46.0942806" lon="12.170379"><ele>352.0</ele><time>2026-05-01T16:48:01.266Z</time></trkpt><trkpt lat="46.0943474" lon="12.1704917"><ele>352.0</ele><time>2026-05-01T16:48:03.312Z</time></trkpt><trkpt lat="46.0944132" lon="12.1706015"><ele>350.75</ele><time>2026-05-01T16:48:05.299Z</time></trkpt><trkpt lat="46.0944871" lon="12.1707192"><ele>349.5</ele><time>2026-05-01T16:48:07.269Z</time></trkpt><trkpt lat="46.0945643" lon="12.1708393"><ele>348.25</ele><time>2026-05-01T16:48:09.267Z</time></trkpt><trkpt lat="46.0946439" lon="12.1709679"><ele>347.0</ele><time>2026-05-01T16:48:11.273Z</time></trkpt><trkpt lat="46.0947252" lon="12.1710936"><ele>347.0</ele><time>2026-05-01T16:48:13.307Z</time></trkpt><trkpt lat="46.0948103" lon="12.1712165"><ele>347.0</ele><time>2026-05-01T16:48:15.265Z</time></trkpt><trkpt lat="46.0948958" lon="12.1713295"><ele>347.0</ele><time>2026-05-01T16:48:17.261Z</time></trkpt><trkpt lat="46.0949854" lon="12.171435"><ele>347.0</ele><time>2026-05-01T16:48:19.309Z</time></trkpt><trkpt lat="46.0950733" lon="12.1715398"><ele>346.6</ele><time>2026-05-01T16:48:21.269Z</time></trkpt><trkpt lat="46.0951515" lon="12.1716426"><ele>346.20000000000005</ele><time>2026-05-01T16:48:23.267Z</time></trkpt><trkpt lat="46.0952296" lon="12.1717389"><ele>345.8</ele><time>2026-05-01T16:48:25.322Z</time></trkpt><trkpt lat="46.09531" lon="12.1718299"><ele>345.4</ele><time>2026-05-01T16:48:27.272Z</time></trkpt><trkpt lat="46.0953932" lon="12.1719136"><ele>345.0</ele><time>2026-05-01T16:48:29.269Z</time></trkpt><trkpt lat="46.0954784" lon="12.171996"><ele>345.0</ele><time>2026-05-01T16:48:31.258Z</time></trkpt><trkpt lat="46.095567" lon="12.1720761"><ele>345.0</ele><time>2026-05-01T16:48:33.26Z</time></trkpt><trkpt lat="46.0956548" lon="12.1721544"><ele>345.0</ele><time>2026-05-01T16:48:35.268Z</time></trkpt><trkpt lat="46.0957469" lon="12.1722308"><ele>345.0</ele><time>2026-05-01T16:48:37.268Z</time></trkpt><trkpt lat="46.0958347" lon="12.1723004"><ele>345.0</ele><time>2026-05-01T16:48:39.266Z</time></trkpt><trkpt lat="46.0959299" lon="12.1723643"><ele>345.0</ele><time>2026-05-01T16:48:41.26Z</time></trkpt><trkpt lat="46.096028" lon="12.1724201"><ele>345.0</ele><time>2026-05-01T16:48:43.267Z</time></trkpt><trkpt lat="46.0961241" lon="12.1724594"><ele>345.0</ele><time>2026-05-01T16:48:45.258Z</time></trkpt><trkpt lat="46.0962196" lon="12.1725136"><ele>345.0</ele><time>2026-05-01T16:48:47.265Z</time></trkpt><trkpt lat="46.0963174" lon="12.1725776"><ele>345.0</ele><time>2026-05-01T16:48:49.258Z</time></trkpt><trkpt lat="46.0964279" lon="12.1726312"><ele>345.0</ele><time>2026-05-01T16:48:51.26Z</time></trkpt><trkpt lat="46.0965385" lon="12.1727006"><ele>345.0</ele><time>2026-05-01T16:48:53.266Z</time></trkpt><trkpt lat="46.0966427" lon="12.1727956"><ele>345.0</ele><time>2026-05-01T16:48:55.267Z</time></trkpt><trkpt lat="46.0967282" lon="12.1729134"><ele>345.0</ele><time>2026-05-01T16:48:57.263Z</time></trkpt><trkpt lat="46.0968338" lon="12.1729659"><ele>345.8333333333333</ele><time>2026-05-01T16:48:59.269Z</time></trkpt><trkpt lat="46.0969577" lon="12.1729869"><ele>346.6666666666667</ele><time>2026-05-01T16:49:01.262Z</time></trkpt><trkpt lat="46.0970206" lon="12.1730042"><ele>347.5</ele><time>2026-05-01T16:49:02.272Z</time></trkpt><trkpt lat="46.0970883" lon="12.1730233"><ele>348.33333333333337</ele><time>2026-05-01T16:49:03.268Z</time></trkpt><trkpt lat="46.0971545" lon="12.1730472"><ele>349.1666666666667</ele><time>2026-05-01T16:49:04.264Z</time></trkpt><trkpt lat="46.0972213" lon="12.1730705"><ele>350.0</ele><time>2026-05-01T16:49:05.267Z</time></trkpt><trkpt lat="46.0972878" lon="12.1730978"><ele>350.0</ele><time>2026-05-01T16:49:06.273Z</time></trkpt><trkpt lat="46.0973539" lon="12.1731232"><ele>350.0</ele><time>2026-05-01T16:49:07.273Z</time></trkpt><trkpt lat="46.0974216" lon="12.1731538"><ele>350.0</ele><time>2026-05-01T16:49:08.272Z</time></trkpt><trkpt lat="46.0974861" lon="12.173186"><ele>350.0</ele><time>2026-05-01T16:49:09.271Z</time></trkpt><trkpt lat="46.0975505" lon="12.1732153"><ele>350.0</ele><time>2026-05-01T16:49:10.267Z</time></trkpt><trkpt lat="46.0976141" lon="12.1732422"><ele>350.0</ele><time>2026-05-01T16:49:11.268Z</time></trkpt><trkpt lat="46.0976793" lon="12.1732699"><ele>350.0</ele><time>2026-05-01T16:49:12.283Z</time></trkpt><trkpt lat="46.0978054" lon="12.1733266"><ele>350.14285714285717</ele><time>2026-05-01T16:49:14.271Z</time></trkpt><trkpt lat="46.0978692" lon="12.1733565"><ele>350.2857142857143</ele><time>2026-05-01T16:49:15.271Z</time></trkpt><trkpt lat="46.0979318" lon="12.1733848"><ele>350.42857142857144</ele><time>2026-05-01T16:49:16.272Z</time></trkpt><trkpt lat="46.0979928" lon="12.1734189"><ele>350.57142857142856</ele><time>2026-05-01T16:49:17.269Z</time></trkpt><trkpt lat="46.0980558" lon="12.1734499"><ele>350.7142857142857</ele><time>2026-05-01T16:49:18.263Z</time></trkpt><trkpt lat="46.0981186" lon="12.1734777"><ele>350.8571428571429</ele><time>2026-05-01T16:49:19.263Z</time></trkpt><trkpt lat="46.0981851" lon="12.1735107"><ele>351.0</ele><time>2026-05-01T16:49:20.27Z</time></trkpt><trkpt lat="46.0982462" lon="12.1735435"><ele>350.6666666666667</ele><time>2026-05-01T16:49:21.267Z</time></trkpt><trkpt lat="46.0983069" lon="12.1735702"><ele>350.3333333333333</ele><time>2026-05-01T16:49:22.27Z</time></trkpt><trkpt lat="46.0983685" lon="12.1735962"><ele>350.0</ele><time>2026-05-01T16:49:23.27Z</time></trkpt><trkpt lat="46.098429" lon="12.1736243"><ele>349.66666666666663</ele><time>2026-05-01T16:49:24.265Z</time></trkpt><trkpt lat="46.0985493" lon="12.1736777"><ele>349.3333333333333</ele><time>2026-05-01T16:49:26.268Z</time></trkpt><trkpt lat="46.0986107" lon="12.1737064"><ele>349.0</ele><time>2026-05-01T16:49:27.267Z</time></trkpt><trkpt lat="46.0987263" lon="12.1737678"><ele>348.99999999999994</ele><time>2026-05-01T16:49:29.269Z</time></trkpt><trkpt lat="46.0987979" lon="12.1738019"><ele>349.0</ele><time>2026-05-01T16:49:30.27Z</time></trkpt><trkpt lat="46.0988634" lon="12.173833"><ele>349.0</ele><time>2026-05-01T16:49:31.263Z</time></trkpt><trkpt lat="46.0989346" lon="12.1738621"><ele>349.0</ele><time>2026-05-01T16:49:32.267Z</time></trkpt><trkpt lat="46.0990049" lon="12.1738964"><ele>349.0</ele><time>2026-05-01T16:49:33.27Z</time></trkpt><trkpt lat="46.0990746" lon="12.1739265"><ele>348.99999999999994</ele><time>2026-05-01T16:49:34.271Z</time></trkpt><trkpt lat="46.099149" lon="12.1739616"><ele>349.0</ele><time>2026-05-01T16:49:35.261Z</time></trkpt><trkpt lat="46.099219" lon="12.1739982"><ele>348.71428571428567</ele><time>2026-05-01T16:49:36.269Z</time></trkpt><trkpt lat="46.0992907" lon="12.1740339"><ele>348.42857142857144</ele><time>2026-05-01T16:49:37.272Z</time></trkpt><trkpt lat="46.0993616" lon="12.1740704"><ele>348.1428571428571</ele><time>2026-05-01T16:49:38.266Z</time></trkpt><trkpt lat="46.0994283" lon="12.1741109"><ele>347.85714285714283</ele><time>2026-05-01T16:49:39.263Z</time></trkpt><trkpt lat="46.0994964" lon="12.1741532"><ele>347.57142857142856</ele><time>2026-05-01T16:49:40.271Z</time></trkpt><trkpt lat="46.0995626" lon="12.1741941"><ele>347.2857142857143</ele><time>2026-05-01T16:49:41.272Z</time></trkpt><trkpt lat="46.0996209" lon="12.1742423"><ele>347.0</ele><time>2026-05-01T16:49:42.27Z</time></trkpt><trkpt lat="46.0996859" lon="12.174289"><ele>347.0</ele><time>2026-05-01T16:49:43.258Z</time></trkpt><trkpt lat="46.099745" lon="12.1743389"><ele>347.0</ele><time>2026-05-01T16:49:44.259Z</time></trkpt><trkpt lat="46.0998008" lon="12.1743911"><ele>347.0</ele><time>2026-05-01T16:49:45.267Z</time></trkpt><trkpt lat="46.0998545" lon="12.1744438"><ele>347.0</ele><time>2026-05-01T16:49:46.267Z</time></trkpt><trkpt lat="46.0999089" lon="12.1744972"><ele>347.0</ele><time>2026-05-01T16:49:47.268Z</time></trkpt><trkpt lat="46.1000127" lon="12.1745986"><ele>347.0</ele><time>2026-05-01T16:49:49.267Z</time></trkpt><trkpt lat="46.1000681" lon="12.1746528"><ele>347.0</ele><time>2026-05-01T16:49:50.266Z</time></trkpt><trkpt lat="46.1001222" lon="12.1747056"><ele>347.0</ele><time>2026-05-01T16:49:51.262Z</time></trkpt><trkpt lat="46.100176" lon="12.1747649"><ele>347.0</ele><time>2026-05-01T16:49:52.26Z</time></trkpt><trkpt lat="46.1002275" lon="12.1748305"><ele>347.0</ele><time>2026-05-01T16:49:53.307Z</time></trkpt><trkpt lat="46.1002764" lon="12.1748949"><ele>347.0</ele><time>2026-05-01T16:49:54.324Z</time></trkpt><trkpt lat="46.1003261" lon="12.1749597"><ele>347.0</ele><time>2026-05-01T16:49:55.274Z</time></trkpt><trkpt lat="46.1003732" lon="12.1750262"><ele>347.0</ele><time>2026-05-01T16:49:56.271Z</time></trkpt><trkpt lat="46.1004212" lon="12.1750943"><ele>347.0</ele><time>2026-05-01T16:49:57.32Z</time></trkpt><trkpt lat="46.1004717" lon="12.1751645"><ele>347.0</ele><time>2026-05-01T16:49:58.261Z</time></trkpt><trkpt lat="46.1005184" lon="12.1752412"><ele>347.0</ele><time>2026-05-01T16:49:59.269Z</time></trkpt><trkpt lat="46.1005638" lon="12.1753192"><ele>347.0</ele><time>2026-05-01T16:50:00.273Z</time></trkpt><trkpt lat="46.1006083" lon="12.175396"><ele>347.0</ele><time>2026-05-01T16:50:01.271Z</time></trkpt><trkpt lat="46.1006523" lon="12.1754771"><ele>347.0</ele><time>2026-05-01T16:50:02.319Z</time></trkpt><trkpt lat="46.1006933" lon="12.1755572"><ele>347.0</ele><time>2026-05-01T16:50:03.334Z</time></trkpt><trkpt lat="46.1007364" lon="12.175644"><ele>346.2857142857143</ele><time>2026-05-01T16:50:04.263Z</time></trkpt><trkpt lat="46.1007796" lon="12.1757271"><ele>345.57142857142856</ele><time>2026-05-01T16:50:05.321Z</time></trkpt><trkpt lat="46.100818" lon="12.1758125"><ele>344.85714285714283</ele><time>2026-05-01T16:50:06.271Z</time></trkpt><trkpt lat="46.1008555" lon="12.1758968"><ele>344.1428571428571</ele><time>2026-05-01T16:50:07.265Z</time></trkpt><trkpt lat="46.1008913" lon="12.1759842"><ele>343.42857142857144</ele><time>2026-05-01T16:50:08.265Z</time></trkpt><trkpt lat="46.1009246" lon="12.1760717"><ele>342.71428571428567</ele><time>2026-05-01T16:50:09.266Z</time></trkpt><trkpt lat="46.1009609" lon="12.1761589"><ele>342.0</ele><time>2026-05-01T16:50:10.269Z</time></trkpt><trkpt lat="46.1009972" lon="12.1762461"><ele>341.99999999999994</ele><time>2026-05-01T16:50:11.271Z</time></trkpt><trkpt lat="46.101033" lon="12.1763353"><ele>342.0</ele><time>2026-05-01T16:50:12.27Z</time></trkpt><trkpt lat="46.1010691" lon="12.1764208"><ele>342.0</ele><time>2026-05-01T16:50:13.269Z</time></trkpt><trkpt lat="46.1011052" lon="12.1765073"><ele>342.0</ele><time>2026-05-01T16:50:14.271Z</time></trkpt><trkpt lat="46.1011405" lon="12.176595"><ele>342.0</ele><time>2026-05-01T16:50:15.263Z</time></trkpt><trkpt lat="46.1011776" lon="12.1766784"><ele>341.99999999999994</ele><time>2026-05-01T16:50:16.259Z</time></trkpt><trkpt lat="46.1012118" lon="12.1767667"><ele>342.0</ele><time>2026-05-01T16:50:17.265Z</time></trkpt><trkpt lat="46.1012444" lon="12.1768555"><ele>342.1428571428571</ele><time>2026-05-01T16:50:18.266Z</time></trkpt><trkpt lat="46.1012774" lon="12.176945"><ele>342.2857142857143</ele><time>2026-05-01T16:50:19.262Z</time></trkpt><trkpt lat="46.1013121" lon="12.1770359"><ele>342.42857142857144</ele><time>2026-05-01T16:50:20.256Z</time></trkpt><trkpt lat="46.1013469" lon="12.177126"><ele>342.57142857142856</ele><time>2026-05-01T16:50:21.255Z</time></trkpt><trkpt lat="46.101383" lon="12.1772141"><ele>342.7142857142857</ele><time>2026-05-01T16:50:22.266Z</time></trkpt><trkpt lat="46.1014207" lon="12.1773018"><ele>342.85714285714283</ele><time>2026-05-01T16:50:23.268Z</time></trkpt><trkpt lat="46.1014552" lon="12.1773904"><ele>343.0</ele><time>2026-05-01T16:50:24.258Z</time></trkpt><trkpt lat="46.1014909" lon="12.1774798"><ele>343.0</ele><time>2026-05-01T16:50:25.311Z</time></trkpt><trkpt lat="46.1015248" lon="12.1775673"><ele>343.0</ele><time>2026-05-01T16:50:26.276Z</time></trkpt><trkpt lat="46.1015617" lon="12.1776583"><ele>343.0</ele><time>2026-05-01T16:50:27.261Z</time></trkpt><trkpt lat="46.1015953" lon="12.1777436"><ele>343.0</ele><time>2026-05-01T16:50:28.307Z</time></trkpt><trkpt lat="46.1016298" lon="12.1778318"><ele>343.0</ele><time>2026-05-01T16:50:29.311Z</time></trkpt><trkpt lat="46.1016636" lon="12.1779177"><ele>343.0</ele><time>2026-05-01T16:50:30.311Z</time></trkpt><trkpt lat="46.1016967" lon="12.1780022"><ele>343.0</ele><time>2026-05-01T16:50:31.27Z</time></trkpt><trkpt lat="46.1017306" lon="12.1780886"><ele>343.0</ele><time>2026-05-01T16:50:32.262Z</time></trkpt><trkpt lat="46.1017642" lon="12.1781751"><ele>343.0</ele><time>2026-05-01T16:50:33.266Z</time></trkpt><trkpt lat="46.1017987" lon="12.1782594"><ele>343.0</ele><time>2026-05-01T16:50:34.27Z</time></trkpt><trkpt lat="46.1018331" lon="12.178346"><ele>343.0</ele><time>2026-05-01T16:50:35.299Z</time></trkpt><trkpt lat="46.1018664" lon="12.1784331"><ele>343.0</ele><time>2026-05-01T16:50:36.265Z</time></trkpt><trkpt lat="46.1019027" lon="12.1785174"><ele>343.0</ele><time>2026-05-01T16:50:37.259Z</time></trkpt><trkpt lat="46.101937" lon="12.1786028"><ele>343.0</ele><time>2026-05-01T16:50:38.261Z</time></trkpt><trkpt lat="46.1019699" lon="12.1786827"><ele>343.0</ele><time>2026-05-01T16:50:39.267Z</time></trkpt><trkpt lat="46.1020039" lon="12.1787594"><ele>343.0</ele><time>2026-05-01T16:50:40.266Z</time></trkpt><trkpt lat="46.1020387" lon="12.178838"><ele>343.0</ele><time>2026-05-01T16:50:41.269Z</time></trkpt><trkpt lat="46.1020687" lon="12.178918"><ele>343.0</ele><time>2026-05-01T16:50:42.26Z</time></trkpt><trkpt lat="46.1021309" lon="12.1790709"><ele>343.0</ele><time>2026-05-01T16:50:44.261Z</time></trkpt><trkpt lat="46.1021627" lon="12.1791502"><ele>343.0</ele><time>2026-05-01T16:50:45.258Z</time></trkpt><trkpt lat="46.1022245" lon="12.1793044"><ele>343.0</ele><time>2026-05-01T16:50:47.268Z</time></trkpt><trkpt lat="46.102285" lon="12.1794543"><ele>343.0</ele><time>2026-05-01T16:50:49.27Z</time></trkpt><trkpt lat="46.1023413" lon="12.1796079"><ele>343.0</ele><time>2026-05-01T16:50:51.258Z</time></trkpt><trkpt lat="46.1024003" lon="12.1797585"><ele>343.0</ele><time>2026-05-01T16:50:53.266Z</time></trkpt><trkpt lat="46.1024622" lon="12.179906"><ele>343.0</ele><time>2026-05-01T16:50:55.261Z</time></trkpt><trkpt lat="46.1025196" lon="12.1800571"><ele>343.0</ele><time>2026-05-01T16:50:57.267Z</time></trkpt><trkpt lat="46.1025782" lon="12.1802035"><ele>343.0</ele><time>2026-05-01T16:50:59.267Z</time></trkpt><trkpt lat="46.1026365" lon="12.1803484"><ele>343.0</ele><time>2026-05-01T16:51:01.259Z</time></trkpt><trkpt lat="46.1026934" lon="12.1804884"><ele>343.0</ele><time>2026-05-01T16:51:03.259Z</time></trkpt><trkpt lat="46.1027465" lon="12.1806331"><ele>343.0</ele><time>2026-05-01T16:51:05.261Z</time></trkpt><trkpt lat="46.1027974" lon="12.1807762"><ele>343.0</ele><time>2026-05-01T16:51:07.261Z</time></trkpt><trkpt lat="46.102855" lon="12.1809148"><ele>343.0</ele><time>2026-05-01T16:51:09.3Z</time></trkpt><trkpt lat="46.1029088" lon="12.1810521"><ele>343.0</ele><time>2026-05-01T16:51:11.267Z</time></trkpt><trkpt lat="46.1029607" lon="12.1811838"><ele>343.0</ele><time>2026-05-01T16:51:13.317Z</time></trkpt><trkpt lat="46.1030149" lon="12.1813197"><ele>343.0</ele><time>2026-05-01T16:51:15.313Z</time></trkpt><trkpt lat="46.1030668" lon="12.1814562"><ele>343.0</ele><time>2026-05-01T16:51:17.259Z</time></trkpt><trkpt lat="46.1031213" lon="12.1815854"><ele>343.0</ele><time>2026-05-01T16:51:19.316Z</time></trkpt><trkpt lat="46.1031783" lon="12.1817166"><ele>343.0</ele><time>2026-05-01T16:51:21.261Z</time></trkpt><trkpt lat="46.103231" lon="12.1818479"><ele>343.4</ele><time>2026-05-01T16:51:23.325Z</time></trkpt><trkpt lat="46.103283" lon="12.1819761"><ele>343.79999999999995</ele><time>2026-05-01T16:51:25.267Z</time></trkpt><trkpt lat="46.1033368" lon="12.182108"><ele>344.2</ele><time>2026-05-01T16:51:27.27Z</time></trkpt><trkpt lat="46.1033852" lon="12.1822421"><ele>344.6</ele><time>2026-05-01T16:51:29.269Z</time></trkpt><trkpt lat="46.1034422" lon="12.182373"><ele>345.0</ele><time>2026-05-01T16:51:31.274Z</time></trkpt><trkpt lat="46.1034957" lon="12.1825077"><ele>345.2</ele><time>2026-05-01T16:51:33.312Z</time></trkpt><trkpt lat="46.1035512" lon="12.182639"><ele>345.4</ele><time>2026-05-01T16:51:35.26Z</time></trkpt><trkpt lat="46.1036002" lon="12.1827662"><ele>345.6</ele><time>2026-05-01T16:51:37.268Z</time></trkpt><trkpt lat="46.1036532" lon="12.1828964"><ele>345.8</ele><time>2026-05-01T16:51:39.271Z</time></trkpt><trkpt lat="46.1036999" lon="12.1830247"><ele>346.0</ele><time>2026-05-01T16:51:41.263Z</time></trkpt><trkpt lat="46.103752" lon="12.1831518"><ele>346.6</ele><time>2026-05-01T16:51:43.26Z</time></trkpt><trkpt lat="46.1038" lon="12.1832809"><ele>347.20000000000005</ele><time>2026-05-01T16:51:45.266Z</time></trkpt><trkpt lat="46.1038509" lon="12.1834127"><ele>347.79999999999995</ele><time>2026-05-01T16:51:47.261Z</time></trkpt><trkpt lat="46.1039057" lon="12.1835402"><ele>348.4</ele><time>2026-05-01T16:51:49.264Z</time></trkpt><trkpt lat="46.1039583" lon="12.1836706"><ele>349.0</ele><time>2026-05-01T16:51:51.268Z</time></trkpt><trkpt lat="46.1040059" lon="12.1838014"><ele>349.0</ele><time>2026-05-01T16:51:53.267Z</time></trkpt><trkpt lat="46.1040573" lon="12.1839309"><ele>349.0</ele><time>2026-05-01T16:51:55.272Z</time></trkpt><trkpt lat="46.1041101" lon="12.1840612"><ele>349.0</ele><time>2026-05-01T16:51:57.27Z</time></trkpt><trkpt lat="46.1041672" lon="12.1841944"><ele>349.0</ele><time>2026-05-01T16:51:59.267Z</time></trkpt><trkpt lat="46.1042239" lon="12.1843275"><ele>349.0</ele><time>2026-05-01T16:52:01.268Z</time></trkpt><trkpt lat="46.1042779" lon="12.1844567"><ele>349.2</ele><time>2026-05-01T16:52:03.266Z</time></trkpt><trkpt lat="46.1043315" lon="12.1845895"><ele>349.4</ele><time>2026-05-01T16:52:05.267Z</time></trkpt><trkpt lat="46.10438" lon="12.1847255"><ele>349.6</ele><time>2026-05-01T16:52:07.271Z</time></trkpt><trkpt lat="46.104433" lon="12.1848574"><ele>349.8</ele><time>2026-05-01T16:52:09.268Z</time></trkpt><trkpt lat="46.1044853" lon="12.1849891"><ele>350.0</ele><time>2026-05-01T16:52:11.264Z</time></trkpt><trkpt lat="46.1045387" lon="12.1851161"><ele>350.6</ele><time>2026-05-01T16:52:13.26Z</time></trkpt><trkpt lat="46.1045903" lon="12.1852493"><ele>351.2</ele><time>2026-05-01T16:52:15.264Z</time></trkpt><trkpt lat="46.1046418" lon="12.1853759"><ele>351.79999999999995</ele><time>2026-05-01T16:52:17.267Z</time></trkpt><trkpt lat="46.1046899" lon="12.1855051"><ele>352.4</ele><time>2026-05-01T16:52:19.268Z</time></trkpt><trkpt lat="46.1047406" lon="12.1856318"><ele>353.0</ele><time>2026-05-01T16:52:21.27Z</time></trkpt><trkpt lat="46.1047921" lon="12.1857619"><ele>352.79999999999995</ele><time>2026-05-01T16:52:23.265Z</time></trkpt><trkpt lat="46.1048446" lon="12.1858964"><ele>352.6</ele><time>2026-05-01T16:52:25.259Z</time></trkpt><trkpt lat="46.104897" lon="12.1860303"><ele>352.4</ele><time>2026-05-01T16:52:27.263Z</time></trkpt><trkpt lat="46.1049468" lon="12.1861683"><ele>352.20000000000005</ele><time>2026-05-01T16:52:29.267Z</time></trkpt><trkpt lat="46.1050047" lon="12.1863025"><ele>352.0</ele><time>2026-05-01T16:52:31.267Z</time></trkpt><trkpt lat="46.1050594" lon="12.1864342"><ele>352.40000000000003</ele><time>2026-05-01T16:52:33.263Z</time></trkpt><trkpt lat="46.1051102" lon="12.1865679"><ele>352.8</ele><time>2026-05-01T16:52:35.267Z</time></trkpt><trkpt lat="46.1051619" lon="12.1866975"><ele>353.2</ele><time>2026-05-01T16:52:37.267Z</time></trkpt><trkpt lat="46.1052147" lon="12.1868296"><ele>353.6</ele><time>2026-05-01T16:52:39.258Z</time></trkpt><trkpt lat="46.1052661" lon="12.186961"><ele>354.0</ele><time>2026-05-01T16:52:41.267Z</time></trkpt><trkpt lat="46.1053217" lon="12.1870883"><ele>354.0</ele><time>2026-05-01T16:52:43.268Z</time></trkpt><trkpt lat="46.1053772" lon="12.187226"><ele>354.0</ele><time>2026-05-01T16:52:45.26Z</time></trkpt><trkpt lat="46.1054292" lon="12.1873548"><ele>354.0</ele><time>2026-05-01T16:52:47.256Z</time></trkpt><trkpt lat="46.1054783" lon="12.1874811"><ele>354.0</ele><time>2026-05-01T16:52:49.259Z</time></trkpt><trkpt lat="46.1055347" lon="12.1876114"><ele>354.0</ele><time>2026-05-01T16:52:51.263Z</time></trkpt><trkpt lat="46.1055847" lon="12.1877454"><ele>354.2</ele><time>2026-05-01T16:52:53.262Z</time></trkpt><trkpt lat="46.1056368" lon="12.1878731"><ele>354.4</ele><time>2026-05-01T16:52:55.261Z</time></trkpt><trkpt lat="46.1056858" lon="12.1880001"><ele>354.6</ele><time>2026-05-01T16:52:57.271Z</time></trkpt><trkpt lat="46.1057377" lon="12.1881321"><ele>354.8</ele><time>2026-05-01T16:52:59.258Z</time></trkpt><trkpt lat="46.1057894" lon="12.188265"><ele>355.0</ele><time>2026-05-01T16:53:01.261Z</time></trkpt><trkpt lat="46.1058415" lon="12.1883959"><ele>355.0</ele><time>2026-05-01T16:53:03.259Z</time></trkpt><trkpt lat="46.1058901" lon="12.1885295"><ele>355.0</ele><time>2026-05-01T16:53:05.26Z</time></trkpt><trkpt lat="46.105947" lon="12.1886661"><ele>355.0</ele><time>2026-05-01T16:53:07.269Z</time></trkpt><trkpt lat="46.1059973" lon="12.188804"><ele>355.0</ele><time>2026-05-01T16:53:09.346Z</time></trkpt><trkpt lat="46.1060537" lon="12.1889356"><ele>355.0</ele><time>2026-05-01T16:53:11.269Z</time></trkpt><trkpt lat="46.1061048" lon="12.1890693"><ele>354.8</ele><time>2026-05-01T16:53:13.27Z</time></trkpt><trkpt lat="46.1061509" lon="12.1892073"><ele>354.6</ele><time>2026-05-01T16:53:15.264Z</time></trkpt><trkpt lat="46.1062008" lon="12.1893342"><ele>354.4</ele><time>2026-05-01T16:53:17.267Z</time></trkpt><trkpt lat="46.1062434" lon="12.1894678"><ele>354.2</ele><time>2026-05-01T16:53:19.266Z</time></trkpt><trkpt lat="46.1062894" lon="12.1895977"><ele>354.0</ele><time>2026-05-01T16:53:21.268Z</time></trkpt><trkpt lat="46.1063324" lon="12.1897274"><ele>354.6</ele><time>2026-05-01T16:53:23.267Z</time></trkpt><trkpt lat="46.1063771" lon="12.189857"><ele>355.2</ele><time>2026-05-01T16:53:25.267Z</time></trkpt><trkpt lat="46.1064181" lon="12.1899901"><ele>355.8</ele><time>2026-05-01T16:53:27.261Z</time></trkpt><trkpt lat="46.1064586" lon="12.1901225"><ele>356.40000000000003</ele><time>2026-05-01T16:53:29.263Z</time></trkpt><trkpt lat="46.1064968" lon="12.1902532"><ele>357.0</ele><time>2026-05-01T16:53:31.273Z</time></trkpt><trkpt lat="46.1065366" lon="12.1903777"><ele>357.0</ele><time>2026-05-01T16:53:33.263Z</time></trkpt><trkpt lat="46.1065734" lon="12.1904957"><ele>357.0</ele><time>2026-05-01T16:53:35.27Z</time></trkpt><trkpt lat="46.1066075" lon="12.1906205"><ele>357.0</ele><time>2026-05-01T16:53:37.267Z</time></trkpt><trkpt lat="46.1066463" lon="12.190754"><ele>357.0</ele><time>2026-05-01T16:53:39.262Z</time></trkpt><trkpt lat="46.1066832" lon="12.1908892"><ele>357.0</ele><time>2026-05-01T16:53:41.269Z</time></trkpt><trkpt lat="46.1067194" lon="12.1910207"><ele>357.40000000000003</ele><time>2026-05-01T16:53:43.268Z</time></trkpt><trkpt lat="46.1067538" lon="12.1911598"><ele>357.8</ele><time>2026-05-01T16:53:45.269Z</time></trkpt><trkpt lat="46.1067883" lon="12.191302"><ele>358.2</ele><time>2026-05-01T16:53:47.259Z</time></trkpt><trkpt lat="46.1068212" lon="12.1914474"><ele>358.6</ele><time>2026-05-01T16:53:49.261Z</time></trkpt><trkpt lat="46.1068558" lon="12.1915942"><ele>359.0</ele><time>2026-05-01T16:53:51.268Z</time></trkpt><trkpt lat="46.1068895" lon="12.1917439"><ele>359.0</ele><time>2026-05-01T16:53:53.272Z</time></trkpt><trkpt lat="46.106921" lon="12.1918925"><ele>359.0</ele><time>2026-05-01T16:53:55.264Z</time></trkpt><trkpt lat="46.1069553" lon="12.1920499"><ele>359.0</ele><time>2026-05-01T16:53:57.258Z</time></trkpt><trkpt lat="46.1069823" lon="12.1922061"><ele>359.0</ele><time>2026-05-01T16:53:59.271Z</time></trkpt><trkpt lat="46.1070035" lon="12.1923574"><ele>359.0</ele><time>2026-05-01T16:54:01.273Z</time></trkpt><trkpt lat="46.1070003" lon="12.1925029"><ele>359.2</ele><time>2026-05-01T16:54:03.278Z</time></trkpt><trkpt lat="46.1069831" lon="12.1926516"><ele>359.4</ele><time>2026-05-01T16:54:05.262Z</time></trkpt><trkpt lat="46.1070063" lon="12.1927962"><ele>359.6</ele><time>2026-05-01T16:54:07.252Z</time></trkpt><trkpt lat="46.1070865" lon="12.192899"><ele>359.8</ele><time>2026-05-01T16:54:09.266Z</time></trkpt><trkpt lat="46.1071943" lon="12.1928799"><ele>360.0</ele><time>2026-05-01T16:54:11.265Z</time></trkpt><trkpt lat="46.1072689" lon="12.1927665"><ele>360.0</ele><time>2026-05-01T16:54:13.262Z</time></trkpt><trkpt lat="46.1073131" lon="12.1926182"><ele>360.0</ele><time>2026-05-01T16:54:15.26Z</time></trkpt><trkpt lat="46.1073656" lon="12.1924701"><ele>360.0</ele><time>2026-05-01T16:54:17.273Z</time></trkpt><trkpt lat="46.1073935" lon="12.1923227"><ele>360.0</ele><time>2026-05-01T16:54:19.27Z</time></trkpt><trkpt lat="46.1073976" lon="12.1921619"><ele>360.0</ele><time>2026-05-01T16:54:21.27Z</time></trkpt><trkpt lat="46.1073718" lon="12.1919958"><ele>359.75</ele><time>2026-05-01T16:54:23.27Z</time></trkpt><trkpt lat="46.1073573" lon="12.1918225"><ele>359.5</ele><time>2026-05-01T16:54:25.263Z</time></trkpt><trkpt lat="46.1073658" lon="12.1916493"><ele>359.25</ele><time>2026-05-01T16:54:27.273Z</time></trkpt><trkpt lat="46.1073791" lon="12.1914795"><ele>359.0</ele><time>2026-05-01T16:54:29.268Z</time></trkpt><trkpt lat="46.1074292" lon="12.1913352"><ele>358.0</ele><time>2026-05-01T16:54:31.273Z</time></trkpt><trkpt lat="46.1075293" lon="12.1912555"><ele>357.0</ele><time>2026-05-01T16:54:33.268Z</time></trkpt><trkpt lat="46.1076407" lon="12.1912537"><ele>356.0</ele><time>2026-05-01T16:54:35.272Z</time></trkpt><trkpt lat="46.1077546" lon="12.1912533"><ele>355.0</ele><time>2026-05-01T16:54:37.27Z</time></trkpt><trkpt lat="46.1078717" lon="12.1912279"><ele>355.0</ele><time>2026-05-01T16:54:39.265Z</time></trkpt><trkpt lat="46.1079864" lon="12.1912072"><ele>355.0</ele><time>2026-05-01T16:54:41.273Z</time></trkpt><trkpt lat="46.1080964" lon="12.1911564"><ele>355.0</ele><time>2026-05-01T16:54:43.271Z</time></trkpt><trkpt lat="46.1081947" lon="12.1910798"><ele>355.0</ele><time>2026-05-01T16:54:45.27Z</time></trkpt><trkpt lat="46.1082934" lon="12.1909952"><ele>354.8333333333333</ele><time>2026-05-01T16:54:47.271Z</time></trkpt><trkpt lat="46.1083917" lon="12.1908972"><ele>354.66666666666663</ele><time>2026-05-01T16:54:49.266Z</time></trkpt><trkpt lat="46.1084955" lon="12.1907944"><ele>354.5</ele><time>2026-05-01T16:54:51.268Z</time></trkpt><trkpt lat="46.1085531" lon="12.1907455"><ele>354.3333333333333</ele><time>2026-05-01T16:54:52.267Z</time></trkpt><trkpt lat="46.1086101" lon="12.1906969"><ele>354.1666666666667</ele><time>2026-05-01T16:54:53.266Z</time></trkpt><trkpt lat="46.1086663" lon="12.1906459"><ele>354.0</ele><time>2026-05-01T16:54:54.269Z</time></trkpt><trkpt lat="46.1087255" lon="12.1905965"><ele>353.7142857142857</ele><time>2026-05-01T16:54:55.265Z</time></trkpt><trkpt lat="46.1087853" lon="12.1905491"><ele>353.4285714285714</ele><time>2026-05-01T16:54:56.259Z</time></trkpt><trkpt lat="46.1088425" lon="12.1904967"><ele>353.1428571428571</ele><time>2026-05-01T16:54:57.264Z</time></trkpt><trkpt lat="46.108899" lon="12.1904475"><ele>352.8571428571429</ele><time>2026-05-01T16:54:58.263Z</time></trkpt><trkpt lat="46.1089566" lon="12.1904"><ele>352.57142857142856</ele><time>2026-05-01T16:54:59.272Z</time></trkpt><trkpt lat="46.1090119" lon="12.1903539"><ele>352.2857142857143</ele><time>2026-05-01T16:55:00.267Z</time></trkpt><trkpt lat="46.1090684" lon="12.1903063"><ele>352.0</ele><time>2026-05-01T16:55:01.271Z</time></trkpt><trkpt lat="46.1091243" lon="12.1902572"><ele>352.0</ele><time>2026-05-01T16:55:02.268Z</time></trkpt><trkpt lat="46.1091817" lon="12.190206"><ele>352.0</ele><time>2026-05-01T16:55:03.272Z</time></trkpt><trkpt lat="46.1092393" lon="12.1901569"><ele>352.0</ele><time>2026-05-01T16:55:04.264Z</time></trkpt><trkpt lat="46.1093463" lon="12.1900598"><ele>352.0</ele><time>2026-05-01T16:55:06.269Z</time></trkpt><trkpt lat="46.1094012" lon="12.1900104"><ele>352.0</ele><time>2026-05-01T16:55:07.267Z</time></trkpt><trkpt lat="46.1094542" lon="12.1899566"><ele>352.0</ele><time>2026-05-01T16:55:08.263Z</time></trkpt><trkpt lat="46.1095604" lon="12.1898566"><ele>352.0</ele><time>2026-05-01T16:55:10.267Z</time></trkpt><trkpt lat="46.1096618" lon="12.1897452"><ele>352.0</ele><time>2026-05-01T16:55:12.27Z</time></trkpt><trkpt lat="46.1097156" lon="12.1896928"><ele>352.0</ele><time>2026-05-01T16:55:13.267Z</time></trkpt><trkpt lat="46.1097714" lon="12.1896462"><ele>352.0</ele><time>2026-05-01T16:55:14.27Z</time></trkpt><trkpt lat="46.1098252" lon="12.1895939"><ele>352.0</ele><time>2026-05-01T16:55:15.262Z</time></trkpt><trkpt lat="46.1098773" lon="12.1895385"><ele>352.0</ele><time>2026-05-01T16:55:16.259Z</time></trkpt><trkpt lat="46.1099276" lon="12.1894812"><ele>351.5</ele><time>2026-05-01T16:55:17.268Z</time></trkpt><trkpt lat="46.1099773" lon="12.1894247"><ele>351.0</ele><time>2026-05-01T16:55:18.276Z</time></trkpt><trkpt lat="46.1100276" lon="12.1893677"><ele>350.5</ele><time>2026-05-01T16:55:19.267Z</time></trkpt><trkpt lat="46.1100785" lon="12.1893105"><ele>350.0</ele><time>2026-05-01T16:55:20.264Z</time></trkpt><trkpt lat="46.1101277" lon="12.1892497"><ele>349.5</ele><time>2026-05-01T16:55:21.267Z</time></trkpt><trkpt lat="46.1101792" lon="12.1891948"><ele>349.0</ele><time>2026-05-01T16:55:22.261Z</time></trkpt><trkpt lat="46.1102334" lon="12.1891458"><ele>348.5</ele><time>2026-05-01T16:55:23.26Z</time></trkpt><trkpt lat="46.1102903" lon="12.1891017"><ele>348.0</ele><time>2026-05-01T16:55:24.267Z</time></trkpt><trkpt lat="46.1103528" lon="12.189068"><ele>348.0</ele><time>2026-05-01T16:55:25.269Z</time></trkpt><trkpt lat="46.1104165" lon="12.1890484"><ele>348.0</ele><time>2026-05-01T16:55:26.26Z</time></trkpt><trkpt lat="46.1104811" lon="12.1890327"><ele>348.0</ele><time>2026-05-01T16:55:27.262Z</time></trkpt><trkpt lat="46.1105462" lon="12.1890292"><ele>348.0</ele><time>2026-05-01T16:55:28.268Z</time></trkpt><trkpt lat="46.1106729" lon="12.1890154"><ele>348.0</ele><time>2026-05-01T16:55:30.268Z</time></trkpt><trkpt lat="46.1107363" lon="12.1890028"><ele>348.0</ele><time>2026-05-01T16:55:31.263Z</time></trkpt><trkpt lat="46.1108007" lon="12.1889875"><ele>347.4</ele><time>2026-05-01T16:55:32.27Z</time></trkpt><trkpt lat="46.1108644" lon="12.1889725"><ele>346.79999999999995</ele><time>2026-05-01T16:55:33.267Z</time></trkpt><trkpt lat="46.1109885" lon="12.1889555"><ele>346.2</ele><time>2026-05-01T16:55:35.32Z</time></trkpt><trkpt lat="46.11111" lon="12.188916"><ele>345.6</ele><time>2026-05-01T16:55:37.267Z</time></trkpt><trkpt lat="46.1112324" lon="12.1888692"><ele>345.0</ele><time>2026-05-01T16:55:39.316Z</time></trkpt><trkpt lat="46.1113553" lon="12.1888252"><ele>345.0</ele><time>2026-05-01T16:55:41.262Z</time></trkpt><trkpt lat="46.1114171" lon="12.188805"><ele>345.0</ele><time>2026-05-01T16:55:42.266Z</time></trkpt><trkpt lat="46.1115397" lon="12.1887608"><ele>345.0</ele><time>2026-05-01T16:55:44.274Z</time></trkpt><trkpt lat="46.1116019" lon="12.1887453"><ele>345.0</ele><time>2026-05-01T16:55:45.303Z</time></trkpt><trkpt lat="46.1116679" lon="12.1887294"><ele>345.0</ele><time>2026-05-01T16:55:46.271Z</time></trkpt><trkpt lat="46.1117318" lon="12.1887321"><ele>345.0</ele><time>2026-05-01T16:55:47.27Z</time></trkpt><trkpt lat="46.1118533" lon="12.1887278"><ele>345.5</ele><time>2026-05-01T16:55:49.3Z</time></trkpt><trkpt lat="46.1119171" lon="12.1887232"><ele>346.0</ele><time>2026-05-01T16:55:50.262Z</time></trkpt><trkpt lat="46.1120336" lon="12.1886943"><ele>346.5</ele><time>2026-05-01T16:55:52.312Z</time></trkpt><trkpt lat="46.1120999" lon="12.1886616"><ele>347.0</ele><time>2026-05-01T16:55:53.319Z</time></trkpt><trkpt lat="46.1121504" lon="12.188603"><ele>347.5</ele><time>2026-05-01T16:55:54.315Z</time></trkpt><trkpt lat="46.1122138" lon="12.1884759"><ele>348.0</ele><time>2026-05-01T16:55:56.272Z</time></trkpt><trkpt lat="46.1122819" lon="12.1883966"><ele>348.0</ele><time>2026-05-01T16:55:58.307Z</time></trkpt><trkpt lat="46.11236" lon="12.1883451"><ele>348.0</ele><time>2026-05-01T16:56:01.262Z</time></trkpt></trkseg></trk></gpx>